<?xml version="1.0" encoding="UTF-8" standalone="no" ?>
<gpx xmlns="http://www.topografix.com/GPX/1/1" xmlns:xsi="http://www.w3.org/2001/XMLSchema-instance" xsi:schemaLocation="http://www.topografix.com/GPX/1/1 http://www.topografix.com/GPX/1/1/gpx.xsd" version="1.1" creator="VisuGPX - https://www.visugpx.com">
  <metadata>
    <name>2018-02-04 Bike ride-Chatillon-Limas</name>
    <desc><![CDATA[2018-02-04 Bike ride-Chatillon-Limas]]></desc>
  </metadata>
  <wpt lat="45.92453" lon="4.73726">
    <ele>174</ele>
    <name><![CDATA[2018-02-04 10:40 (Start)]]></name>
  </wpt>
  <wpt lat="45.92455" lon="4.73713">
    <ele>174</ele>
    <name><![CDATA[2018-02-04 10:40 (End)]]></name>
  </wpt>
  <trk>
    <name><![CDATA[2018-02-04 10:40]]></name>
    <trkseg>
      <trkpt lat="45.92453" lon="4.73726">
        <ele>174</ele>
        <time>2018-02-04T09:40:44.974Z</time>
      </trkpt>
      <trkpt lat="45.92465" lon="4.73715">
        <ele>174</ele>
        <time>2018-02-04T09:40:43.937Z</time>
      </trkpt>
      <trkpt lat="45.92456" lon="4.7372">
        <ele>174</ele>
        <time>2018-02-04T09:40:45Z</time>
      </trkpt>
      <trkpt lat="45.92456" lon="4.73719">
        <ele>174</ele>
        <time>2018-02-04T09:40:46Z</time>
      </trkpt>
      <trkpt lat="45.92457" lon="4.73718">
        <ele>174</ele>
        <time>2018-02-04T09:40:49Z</time>
      </trkpt>
      <trkpt lat="45.92457" lon="4.73718">
        <ele>174</ele>
        <time>2018-02-04T09:40:50Z</time>
      </trkpt>
      <trkpt lat="45.92464" lon="4.7371">
        <ele>174</ele>
        <time>2018-02-04T09:41:07Z</time>
      </trkpt>
      <trkpt lat="45.92465" lon="4.73709">
        <ele>174</ele>
        <time>2018-02-04T09:41:08Z</time>
      </trkpt>
      <trkpt lat="45.92468" lon="4.73697">
        <ele>174</ele>
        <time>2018-02-04T09:41:13Z</time>
      </trkpt>
      <trkpt lat="45.92468" lon="4.73694">
        <ele>174</ele>
        <time>2018-02-04T09:41:14Z</time>
      </trkpt>
      <trkpt lat="45.92468" lon="4.73682">
        <ele>174</ele>
        <time>2018-02-04T09:41:18Z</time>
      </trkpt>
      <trkpt lat="45.92468" lon="4.73679">
        <ele>174</ele>
        <time>2018-02-04T09:41:19Z</time>
      </trkpt>
      <trkpt lat="45.9247" lon="4.73667">
        <ele>174</ele>
        <time>2018-02-04T09:41:22Z</time>
      </trkpt>
      <trkpt lat="45.9247" lon="4.73662">
        <ele>174</ele>
        <time>2018-02-04T09:41:23Z</time>
      </trkpt>
      <trkpt lat="45.9247" lon="4.73651">
        <ele>174</ele>
        <time>2018-02-04T09:41:25Z</time>
      </trkpt>
      <trkpt lat="45.92471" lon="4.73646">
        <ele>174</ele>
        <time>2018-02-04T09:41:26Z</time>
      </trkpt>
      <trkpt lat="45.92471" lon="4.73635">
        <ele>174</ele>
        <time>2018-02-04T09:41:28Z</time>
      </trkpt>
      <trkpt lat="45.92471" lon="4.73629">
        <ele>174</ele>
        <time>2018-02-04T09:41:29Z</time>
      </trkpt>
      <trkpt lat="45.92471" lon="4.73618">
        <ele>174</ele>
        <time>2018-02-04T09:41:31Z</time>
      </trkpt>
      <trkpt lat="45.92471" lon="4.73612">
        <ele>174</ele>
        <time>2018-02-04T09:41:32Z</time>
      </trkpt>
      <trkpt lat="45.9247" lon="4.736">
        <ele>174</ele>
        <time>2018-02-04T09:41:34Z</time>
      </trkpt>
      <trkpt lat="45.92469" lon="4.73595">
        <ele>174</ele>
        <time>2018-02-04T09:41:35Z</time>
      </trkpt>
      <trkpt lat="45.92466" lon="4.73585">
        <ele>174</ele>
        <time>2018-02-04T09:41:37Z</time>
      </trkpt>
      <trkpt lat="45.92466" lon="4.73579">
        <ele>173</ele>
        <time>2018-02-04T09:41:38Z</time>
      </trkpt>
      <trkpt lat="45.92466" lon="4.73569">
        <ele>173</ele>
        <time>2018-02-04T09:41:40Z</time>
      </trkpt>
      <trkpt lat="45.92466" lon="4.73565">
        <ele>173</ele>
        <time>2018-02-04T09:41:41Z</time>
      </trkpt>
      <trkpt lat="45.92464" lon="4.73553">
        <ele>173</ele>
        <time>2018-02-04T09:41:44Z</time>
      </trkpt>
      <trkpt lat="45.92461" lon="4.7355">
        <ele>173</ele>
        <time>2018-02-04T09:41:45Z</time>
      </trkpt>
      <trkpt lat="45.92455" lon="4.73548">
        <ele>174</ele>
        <time>2018-02-04T09:41:47Z</time>
      </trkpt>
      <trkpt lat="45.92451" lon="4.73548">
        <ele>174</ele>
        <time>2018-02-04T09:41:48Z</time>
      </trkpt>
      <trkpt lat="45.92443" lon="4.73551">
        <ele>174</ele>
        <time>2018-02-04T09:41:50Z</time>
      </trkpt>
      <trkpt lat="45.92439" lon="4.73553">
        <ele>174</ele>
        <time>2018-02-04T09:41:51Z</time>
      </trkpt>
      <trkpt lat="45.92435" lon="4.73557">
        <ele>174</ele>
        <time>2018-02-04T09:41:52Z</time>
      </trkpt>
      <trkpt lat="45.92431" lon="4.73559">
        <ele>174</ele>
        <time>2018-02-04T09:41:53Z</time>
      </trkpt>
      <trkpt lat="45.92427" lon="4.73562">
        <ele>174</ele>
        <time>2018-02-04T09:41:54Z</time>
      </trkpt>
      <trkpt lat="45.92422" lon="4.73564">
        <ele>174</ele>
        <time>2018-02-04T09:41:55Z</time>
      </trkpt>
      <trkpt lat="45.92418" lon="4.73566">
        <ele>174</ele>
        <time>2018-02-04T09:41:56Z</time>
      </trkpt>
      <trkpt lat="45.92413" lon="4.73568">
        <ele>173</ele>
        <time>2018-02-04T09:41:57Z</time>
      </trkpt>
      <trkpt lat="45.92408" lon="4.73571">
        <ele>173</ele>
        <time>2018-02-04T09:41:58Z</time>
      </trkpt>
      <trkpt lat="45.92404" lon="4.73573">
        <ele>173</ele>
        <time>2018-02-04T09:41:59Z</time>
      </trkpt>
      <trkpt lat="45.92396" lon="4.73578">
        <ele>173</ele>
        <time>2018-02-04T09:42:01Z</time>
      </trkpt>
      <trkpt lat="45.92391" lon="4.7358">
        <ele>173</ele>
        <time>2018-02-04T09:42:02Z</time>
      </trkpt>
      <trkpt lat="45.92383" lon="4.73584">
        <ele>173</ele>
        <time>2018-02-04T09:42:04Z</time>
      </trkpt>
      <trkpt lat="45.92378" lon="4.73587">
        <ele>173</ele>
        <time>2018-02-04T09:42:05Z</time>
      </trkpt>
      <trkpt lat="45.92373" lon="4.73589">
        <ele>173</ele>
        <time>2018-02-04T09:42:06Z</time>
      </trkpt>
      <trkpt lat="45.92368" lon="4.73591">
        <ele>173</ele>
        <time>2018-02-04T09:42:07Z</time>
      </trkpt>
      <trkpt lat="45.92363" lon="4.73593">
        <ele>173</ele>
        <time>2018-02-04T09:42:08Z</time>
      </trkpt>
      <trkpt lat="45.92358" lon="4.73597">
        <ele>173</ele>
        <time>2018-02-04T09:42:09Z</time>
      </trkpt>
      <trkpt lat="45.92354" lon="4.736">
        <ele>173</ele>
        <time>2018-02-04T09:42:10Z</time>
      </trkpt>
      <trkpt lat="45.92349" lon="4.73604">
        <ele>173</ele>
        <time>2018-02-04T09:42:11Z</time>
      </trkpt>
      <trkpt lat="45.92344" lon="4.73607">
        <ele>173</ele>
        <time>2018-02-04T09:42:12Z</time>
      </trkpt>
      <trkpt lat="45.92339" lon="4.7361">
        <ele>173</ele>
        <time>2018-02-04T09:42:13Z</time>
      </trkpt>
      <trkpt lat="45.92335" lon="4.73613">
        <ele>173</ele>
        <time>2018-02-04T09:42:14Z</time>
      </trkpt>
      <trkpt lat="45.9233" lon="4.73615">
        <ele>172</ele>
        <time>2018-02-04T09:42:15Z</time>
      </trkpt>
      <trkpt lat="45.92325" lon="4.73617">
        <ele>172</ele>
        <time>2018-02-04T09:42:16Z</time>
      </trkpt>
      <trkpt lat="45.9232" lon="4.73619">
        <ele>172</ele>
        <time>2018-02-04T09:42:17Z</time>
      </trkpt>
      <trkpt lat="45.92315" lon="4.73623">
        <ele>172</ele>
        <time>2018-02-04T09:42:18Z</time>
      </trkpt>
      <trkpt lat="45.9231" lon="4.73626">
        <ele>172</ele>
        <time>2018-02-04T09:42:19Z</time>
      </trkpt>
      <trkpt lat="45.92305" lon="4.73628">
        <ele>172</ele>
        <time>2018-02-04T09:42:20Z</time>
      </trkpt>
      <trkpt lat="45.923" lon="4.73631">
        <ele>172</ele>
        <time>2018-02-04T09:42:21Z</time>
      </trkpt>
      <trkpt lat="45.92295" lon="4.73634">
        <ele>172</ele>
        <time>2018-02-04T09:42:22Z</time>
      </trkpt>
      <trkpt lat="45.9229" lon="4.73637">
        <ele>172</ele>
        <time>2018-02-04T09:42:23Z</time>
      </trkpt>
      <trkpt lat="45.92285" lon="4.7364">
        <ele>172</ele>
        <time>2018-02-04T09:42:24Z</time>
      </trkpt>
      <trkpt lat="45.92279" lon="4.73642">
        <ele>172</ele>
        <time>2018-02-04T09:42:25Z</time>
      </trkpt>
      <trkpt lat="45.92274" lon="4.73643">
        <ele>172</ele>
        <time>2018-02-04T09:42:26Z</time>
      </trkpt>
      <trkpt lat="45.92269" lon="4.73646">
        <ele>172</ele>
        <time>2018-02-04T09:42:27Z</time>
      </trkpt>
      <trkpt lat="45.92265" lon="4.7365">
        <ele>171</ele>
        <time>2018-02-04T09:42:28Z</time>
      </trkpt>
      <trkpt lat="45.92259" lon="4.73653">
        <ele>171</ele>
        <time>2018-02-04T09:42:29Z</time>
      </trkpt>
      <trkpt lat="45.92254" lon="4.73658">
        <ele>171</ele>
        <time>2018-02-04T09:42:30Z</time>
      </trkpt>
      <trkpt lat="45.92248" lon="4.73661">
        <ele>171</ele>
        <time>2018-02-04T09:42:31Z</time>
      </trkpt>
      <trkpt lat="45.92243" lon="4.73664">
        <ele>171</ele>
        <time>2018-02-04T09:42:32Z</time>
      </trkpt>
      <trkpt lat="45.92237" lon="4.73668">
        <ele>171</ele>
        <time>2018-02-04T09:42:33Z</time>
      </trkpt>
      <trkpt lat="45.92232" lon="4.73671">
        <ele>171</ele>
        <time>2018-02-04T09:42:34Z</time>
      </trkpt>
      <trkpt lat="45.92227" lon="4.73674">
        <ele>171</ele>
        <time>2018-02-04T09:42:35Z</time>
      </trkpt>
      <trkpt lat="45.92222" lon="4.73676">
        <ele>171</ele>
        <time>2018-02-04T09:42:36Z</time>
      </trkpt>
      <trkpt lat="45.92216" lon="4.73678">
        <ele>171</ele>
        <time>2018-02-04T09:42:37Z</time>
      </trkpt>
      <trkpt lat="45.92211" lon="4.73681">
        <ele>171</ele>
        <time>2018-02-04T09:42:38Z</time>
      </trkpt>
      <trkpt lat="45.92206" lon="4.73684">
        <ele>171</ele>
        <time>2018-02-04T09:42:39Z</time>
      </trkpt>
      <trkpt lat="45.922" lon="4.73687">
        <ele>171</ele>
        <time>2018-02-04T09:42:40Z</time>
      </trkpt>
      <trkpt lat="45.92194" lon="4.73689">
        <ele>171</ele>
        <time>2018-02-04T09:42:41Z</time>
      </trkpt>
      <trkpt lat="45.92188" lon="4.73693">
        <ele>171</ele>
        <time>2018-02-04T09:42:42Z</time>
      </trkpt>
      <trkpt lat="45.92182" lon="4.73696">
        <ele>171</ele>
        <time>2018-02-04T09:42:43Z</time>
      </trkpt>
      <trkpt lat="45.92176" lon="4.73699">
        <ele>171</ele>
        <time>2018-02-04T09:42:44Z</time>
      </trkpt>
      <trkpt lat="45.92171" lon="4.73702">
        <ele>171</ele>
        <time>2018-02-04T09:42:45Z</time>
      </trkpt>
      <trkpt lat="45.92165" lon="4.73705">
        <ele>171</ele>
        <time>2018-02-04T09:42:46Z</time>
      </trkpt>
      <trkpt lat="45.9216" lon="4.73707">
        <ele>171</ele>
        <time>2018-02-04T09:42:47Z</time>
      </trkpt>
      <trkpt lat="45.92154" lon="4.7371">
        <ele>171</ele>
        <time>2018-02-04T09:42:48Z</time>
      </trkpt>
      <trkpt lat="45.92149" lon="4.73712">
        <ele>171</ele>
        <time>2018-02-04T09:42:49Z</time>
      </trkpt>
      <trkpt lat="45.92143" lon="4.73715">
        <ele>171</ele>
        <time>2018-02-04T09:42:50Z</time>
      </trkpt>
      <trkpt lat="45.92136" lon="4.73716">
        <ele>171</ele>
        <time>2018-02-04T09:42:51Z</time>
      </trkpt>
      <trkpt lat="45.9213" lon="4.73718">
        <ele>171</ele>
        <time>2018-02-04T09:42:52Z</time>
      </trkpt>
      <trkpt lat="45.92125" lon="4.7372">
        <ele>171</ele>
        <time>2018-02-04T09:42:53Z</time>
      </trkpt>
      <trkpt lat="45.92119" lon="4.73722">
        <ele>171</ele>
        <time>2018-02-04T09:42:54Z</time>
      </trkpt>
      <trkpt lat="45.92113" lon="4.73723">
        <ele>171</ele>
        <time>2018-02-04T09:42:55Z</time>
      </trkpt>
      <trkpt lat="45.92107" lon="4.73724">
        <ele>171</ele>
        <time>2018-02-04T09:42:56Z</time>
      </trkpt>
      <trkpt lat="45.92101" lon="4.73726">
        <ele>171</ele>
        <time>2018-02-04T09:42:57Z</time>
      </trkpt>
      <trkpt lat="45.92096" lon="4.73728">
        <ele>171</ele>
        <time>2018-02-04T09:42:58Z</time>
      </trkpt>
      <trkpt lat="45.92089" lon="4.73729">
        <ele>171</ele>
        <time>2018-02-04T09:42:59Z</time>
      </trkpt>
      <trkpt lat="45.92084" lon="4.73729">
        <ele>171</ele>
        <time>2018-02-04T09:43:00Z</time>
      </trkpt>
      <trkpt lat="45.92078" lon="4.73729">
        <ele>171</ele>
        <time>2018-02-04T09:43:01Z</time>
      </trkpt>
      <trkpt lat="45.92072" lon="4.73729">
        <ele>171</ele>
        <time>2018-02-04T09:43:02Z</time>
      </trkpt>
      <trkpt lat="45.92066" lon="4.7373">
        <ele>171</ele>
        <time>2018-02-04T09:43:03Z</time>
      </trkpt>
      <trkpt lat="45.9206" lon="4.7373">
        <ele>171</ele>
        <time>2018-02-04T09:43:04Z</time>
      </trkpt>
      <trkpt lat="45.92053" lon="4.73732">
        <ele>171</ele>
        <time>2018-02-04T09:43:05Z</time>
      </trkpt>
      <trkpt lat="45.92047" lon="4.73731">
        <ele>171</ele>
        <time>2018-02-04T09:43:06Z</time>
      </trkpt>
      <trkpt lat="45.9204" lon="4.73731">
        <ele>171</ele>
        <time>2018-02-04T09:43:07Z</time>
      </trkpt>
      <trkpt lat="45.92035" lon="4.73731">
        <ele>171</ele>
        <time>2018-02-04T09:43:08Z</time>
      </trkpt>
      <trkpt lat="45.9203" lon="4.7373">
        <ele>171</ele>
        <time>2018-02-04T09:43:09Z</time>
      </trkpt>
      <trkpt lat="45.92024" lon="4.7373">
        <ele>171</ele>
        <time>2018-02-04T09:43:10Z</time>
      </trkpt>
      <trkpt lat="45.92018" lon="4.7373">
        <ele>171</ele>
        <time>2018-02-04T09:43:11Z</time>
      </trkpt>
      <trkpt lat="45.92012" lon="4.73729">
        <ele>171</ele>
        <time>2018-02-04T09:43:12Z</time>
      </trkpt>
      <trkpt lat="45.92006" lon="4.73729">
        <ele>171</ele>
        <time>2018-02-04T09:43:13Z</time>
      </trkpt>
      <trkpt lat="45.91999" lon="4.73729">
        <ele>171</ele>
        <time>2018-02-04T09:43:14Z</time>
      </trkpt>
      <trkpt lat="45.91994" lon="4.73729">
        <ele>171</ele>
        <time>2018-02-04T09:43:15Z</time>
      </trkpt>
      <trkpt lat="45.91988" lon="4.73729">
        <ele>171</ele>
        <time>2018-02-04T09:43:16Z</time>
      </trkpt>
      <trkpt lat="45.91982" lon="4.73729">
        <ele>171</ele>
        <time>2018-02-04T09:43:17Z</time>
      </trkpt>
      <trkpt lat="45.91976" lon="4.73729">
        <ele>171</ele>
        <time>2018-02-04T09:43:18Z</time>
      </trkpt>
      <trkpt lat="45.9197" lon="4.7373">
        <ele>171</ele>
        <time>2018-02-04T09:43:19Z</time>
      </trkpt>
      <trkpt lat="45.91963" lon="4.7373">
        <ele>171</ele>
        <time>2018-02-04T09:43:20Z</time>
      </trkpt>
      <trkpt lat="45.91957" lon="4.7373">
        <ele>170</ele>
        <time>2018-02-04T09:43:21Z</time>
      </trkpt>
      <trkpt lat="45.91951" lon="4.7373">
        <ele>170</ele>
        <time>2018-02-04T09:43:22Z</time>
      </trkpt>
      <trkpt lat="45.91945" lon="4.7373">
        <ele>170</ele>
        <time>2018-02-04T09:43:23Z</time>
      </trkpt>
      <trkpt lat="45.91938" lon="4.7373">
        <ele>170</ele>
        <time>2018-02-04T09:43:24Z</time>
      </trkpt>
      <trkpt lat="45.91932" lon="4.7373">
        <ele>170</ele>
        <time>2018-02-04T09:43:25Z</time>
      </trkpt>
      <trkpt lat="45.91926" lon="4.73731">
        <ele>170</ele>
        <time>2018-02-04T09:43:26Z</time>
      </trkpt>
      <trkpt lat="45.9192" lon="4.73732">
        <ele>170</ele>
        <time>2018-02-04T09:43:27Z</time>
      </trkpt>
      <trkpt lat="45.91914" lon="4.73732">
        <ele>171</ele>
        <time>2018-02-04T09:43:28Z</time>
      </trkpt>
      <trkpt lat="45.91907" lon="4.73732">
        <ele>171</ele>
        <time>2018-02-04T09:43:29Z</time>
      </trkpt>
      <trkpt lat="45.91901" lon="4.73732">
        <ele>171</ele>
        <time>2018-02-04T09:43:30Z</time>
      </trkpt>
      <trkpt lat="45.91895" lon="4.73732">
        <ele>171</ele>
        <time>2018-02-04T09:43:31Z</time>
      </trkpt>
      <trkpt lat="45.91889" lon="4.73732">
        <ele>171</ele>
        <time>2018-02-04T09:43:32Z</time>
      </trkpt>
      <trkpt lat="45.91883" lon="4.73732">
        <ele>171</ele>
        <time>2018-02-04T09:43:33Z</time>
      </trkpt>
      <trkpt lat="45.91877" lon="4.73732">
        <ele>171</ele>
        <time>2018-02-04T09:43:34Z</time>
      </trkpt>
      <trkpt lat="45.91871" lon="4.73733">
        <ele>171</ele>
        <time>2018-02-04T09:43:35Z</time>
      </trkpt>
      <trkpt lat="45.91866" lon="4.73732">
        <ele>171</ele>
        <time>2018-02-04T09:43:36Z</time>
      </trkpt>
      <trkpt lat="45.9186" lon="4.73732">
        <ele>171</ele>
        <time>2018-02-04T09:43:37Z</time>
      </trkpt>
      <trkpt lat="45.91855" lon="4.73732">
        <ele>171</ele>
        <time>2018-02-04T09:43:38Z</time>
      </trkpt>
      <trkpt lat="45.91849" lon="4.73733">
        <ele>172</ele>
        <time>2018-02-04T09:43:39Z</time>
      </trkpt>
      <trkpt lat="45.91842" lon="4.73736">
        <ele>172</ele>
        <time>2018-02-04T09:43:40Z</time>
      </trkpt>
      <trkpt lat="45.91837" lon="4.73736">
        <ele>172</ele>
        <time>2018-02-04T09:43:41Z</time>
      </trkpt>
      <trkpt lat="45.9183" lon="4.73732">
        <ele>172</ele>
        <time>2018-02-04T09:43:42Z</time>
      </trkpt>
      <trkpt lat="45.91824" lon="4.73732">
        <ele>172</ele>
        <time>2018-02-04T09:43:43Z</time>
      </trkpt>
      <trkpt lat="45.91818" lon="4.73733">
        <ele>172</ele>
        <time>2018-02-04T09:43:44Z</time>
      </trkpt>
      <trkpt lat="45.91813" lon="4.73733">
        <ele>172</ele>
        <time>2018-02-04T09:43:45Z</time>
      </trkpt>
      <trkpt lat="45.91808" lon="4.73734">
        <ele>172</ele>
        <time>2018-02-04T09:43:46Z</time>
      </trkpt>
      <trkpt lat="45.91803" lon="4.73734">
        <ele>172</ele>
        <time>2018-02-04T09:43:47Z</time>
      </trkpt>
      <trkpt lat="45.91798" lon="4.73734">
        <ele>172</ele>
        <time>2018-02-04T09:43:48Z</time>
      </trkpt>
      <trkpt lat="45.91793" lon="4.73734">
        <ele>172</ele>
        <time>2018-02-04T09:43:49Z</time>
      </trkpt>
      <trkpt lat="45.91788" lon="4.73734">
        <ele>173</ele>
        <time>2018-02-04T09:43:50Z</time>
      </trkpt>
      <trkpt lat="45.91783" lon="4.73734">
        <ele>173</ele>
        <time>2018-02-04T09:43:51Z</time>
      </trkpt>
      <trkpt lat="45.91777" lon="4.73735">
        <ele>173</ele>
        <time>2018-02-04T09:43:52Z</time>
      </trkpt>
      <trkpt lat="45.9177" lon="4.73736">
        <ele>173</ele>
        <time>2018-02-04T09:43:53Z</time>
      </trkpt>
      <trkpt lat="45.91764" lon="4.73737">
        <ele>173</ele>
        <time>2018-02-04T09:43:54Z</time>
      </trkpt>
      <trkpt lat="45.91758" lon="4.73737">
        <ele>173</ele>
        <time>2018-02-04T09:43:55Z</time>
      </trkpt>
      <trkpt lat="45.91753" lon="4.73738">
        <ele>173</ele>
        <time>2018-02-04T09:43:56Z</time>
      </trkpt>
      <trkpt lat="45.91746" lon="4.73738">
        <ele>173</ele>
        <time>2018-02-04T09:43:57Z</time>
      </trkpt>
      <trkpt lat="45.91739" lon="4.73736">
        <ele>173</ele>
        <time>2018-02-04T09:43:58Z</time>
      </trkpt>
      <trkpt lat="45.91734" lon="4.73736">
        <ele>173</ele>
        <time>2018-02-04T09:43:59Z</time>
      </trkpt>
      <trkpt lat="45.91728" lon="4.73735">
        <ele>173</ele>
        <time>2018-02-04T09:44:00Z</time>
      </trkpt>
      <trkpt lat="45.91722" lon="4.73736">
        <ele>173</ele>
        <time>2018-02-04T09:44:01Z</time>
      </trkpt>
      <trkpt lat="45.91717" lon="4.73736">
        <ele>173</ele>
        <time>2018-02-04T09:44:02Z</time>
      </trkpt>
      <trkpt lat="45.91711" lon="4.73737">
        <ele>173</ele>
        <time>2018-02-04T09:44:03Z</time>
      </trkpt>
      <trkpt lat="45.91706" lon="4.73738">
        <ele>172</ele>
        <time>2018-02-04T09:44:04Z</time>
      </trkpt>
      <trkpt lat="45.917" lon="4.73738">
        <ele>172</ele>
        <time>2018-02-04T09:44:05Z</time>
      </trkpt>
      <trkpt lat="45.91694" lon="4.73738">
        <ele>172</ele>
        <time>2018-02-04T09:44:06Z</time>
      </trkpt>
      <trkpt lat="45.91688" lon="4.73737">
        <ele>172</ele>
        <time>2018-02-04T09:44:07Z</time>
      </trkpt>
      <trkpt lat="45.91683" lon="4.73736">
        <ele>172</ele>
        <time>2018-02-04T09:44:08Z</time>
      </trkpt>
      <trkpt lat="45.91677" lon="4.73736">
        <ele>172</ele>
        <time>2018-02-04T09:44:09Z</time>
      </trkpt>
      <trkpt lat="45.91672" lon="4.73736">
        <ele>172</ele>
        <time>2018-02-04T09:44:10Z</time>
      </trkpt>
      <trkpt lat="45.91666" lon="4.73736">
        <ele>172</ele>
        <time>2018-02-04T09:44:11Z</time>
      </trkpt>
      <trkpt lat="45.9166" lon="4.73736">
        <ele>172</ele>
        <time>2018-02-04T09:44:12Z</time>
      </trkpt>
      <trkpt lat="45.91654" lon="4.73736">
        <ele>172</ele>
        <time>2018-02-04T09:44:13Z</time>
      </trkpt>
      <trkpt lat="45.91648" lon="4.73737">
        <ele>172</ele>
        <time>2018-02-04T09:44:14Z</time>
      </trkpt>
      <trkpt lat="45.91643" lon="4.73737">
        <ele>172</ele>
        <time>2018-02-04T09:44:15Z</time>
      </trkpt>
      <trkpt lat="45.91637" lon="4.73735">
        <ele>172</ele>
        <time>2018-02-04T09:44:16Z</time>
      </trkpt>
      <trkpt lat="45.91631" lon="4.73735">
        <ele>172</ele>
        <time>2018-02-04T09:44:17Z</time>
      </trkpt>
      <trkpt lat="45.91626" lon="4.73735">
        <ele>172</ele>
        <time>2018-02-04T09:44:18Z</time>
      </trkpt>
      <trkpt lat="45.91621" lon="4.73735">
        <ele>173</ele>
        <time>2018-02-04T09:44:19Z</time>
      </trkpt>
      <trkpt lat="45.91614" lon="4.73735">
        <ele>173</ele>
        <time>2018-02-04T09:44:20Z</time>
      </trkpt>
      <trkpt lat="45.91608" lon="4.73734">
        <ele>173</ele>
        <time>2018-02-04T09:44:21Z</time>
      </trkpt>
      <trkpt lat="45.91602" lon="4.73735">
        <ele>173</ele>
        <time>2018-02-04T09:44:22Z</time>
      </trkpt>
      <trkpt lat="45.91596" lon="4.73734">
        <ele>173</ele>
        <time>2018-02-04T09:44:23Z</time>
      </trkpt>
      <trkpt lat="45.9159" lon="4.73735">
        <ele>173</ele>
        <time>2018-02-04T09:44:24Z</time>
      </trkpt>
      <trkpt lat="45.91585" lon="4.73735">
        <ele>173</ele>
        <time>2018-02-04T09:44:25Z</time>
      </trkpt>
      <trkpt lat="45.91579" lon="4.73735">
        <ele>173</ele>
        <time>2018-02-04T09:44:26Z</time>
      </trkpt>
      <trkpt lat="45.91573" lon="4.73736">
        <ele>173</ele>
        <time>2018-02-04T09:44:27Z</time>
      </trkpt>
      <trkpt lat="45.91567" lon="4.73736">
        <ele>173</ele>
        <time>2018-02-04T09:44:28Z</time>
      </trkpt>
      <trkpt lat="45.91561" lon="4.73737">
        <ele>173</ele>
        <time>2018-02-04T09:44:29Z</time>
      </trkpt>
      <trkpt lat="45.91555" lon="4.73738">
        <ele>174</ele>
        <time>2018-02-04T09:44:30Z</time>
      </trkpt>
      <trkpt lat="45.91549" lon="4.73737">
        <ele>174</ele>
        <time>2018-02-04T09:44:31Z</time>
      </trkpt>
      <trkpt lat="45.91543" lon="4.73738">
        <ele>174</ele>
        <time>2018-02-04T09:44:32Z</time>
      </trkpt>
      <trkpt lat="45.91536" lon="4.73738">
        <ele>174</ele>
        <time>2018-02-04T09:44:33Z</time>
      </trkpt>
      <trkpt lat="45.91531" lon="4.73738">
        <ele>174</ele>
        <time>2018-02-04T09:44:34Z</time>
      </trkpt>
      <trkpt lat="45.91525" lon="4.73738">
        <ele>174</ele>
        <time>2018-02-04T09:44:35Z</time>
      </trkpt>
      <trkpt lat="45.9152" lon="4.73738">
        <ele>174</ele>
        <time>2018-02-04T09:44:36Z</time>
      </trkpt>
      <trkpt lat="45.91514" lon="4.73738">
        <ele>174</ele>
        <time>2018-02-04T09:44:37Z</time>
      </trkpt>
      <trkpt lat="45.91508" lon="4.73738">
        <ele>174</ele>
        <time>2018-02-04T09:44:38Z</time>
      </trkpt>
      <trkpt lat="45.91502" lon="4.73739">
        <ele>174</ele>
        <time>2018-02-04T09:44:39Z</time>
      </trkpt>
      <trkpt lat="45.91495" lon="4.73739">
        <ele>174</ele>
        <time>2018-02-04T09:44:40Z</time>
      </trkpt>
      <trkpt lat="45.91489" lon="4.73739">
        <ele>174</ele>
        <time>2018-02-04T09:44:41Z</time>
      </trkpt>
      <trkpt lat="45.91483" lon="4.73739">
        <ele>174</ele>
        <time>2018-02-04T09:44:42Z</time>
      </trkpt>
      <trkpt lat="45.91477" lon="4.73738">
        <ele>174</ele>
        <time>2018-02-04T09:44:43Z</time>
      </trkpt>
      <trkpt lat="45.91471" lon="4.73739">
        <ele>174</ele>
        <time>2018-02-04T09:44:44Z</time>
      </trkpt>
      <trkpt lat="45.91465" lon="4.73739">
        <ele>174</ele>
        <time>2018-02-04T09:44:45Z</time>
      </trkpt>
      <trkpt lat="45.91459" lon="4.73739">
        <ele>174</ele>
        <time>2018-02-04T09:44:46Z</time>
      </trkpt>
      <trkpt lat="45.91454" lon="4.73739">
        <ele>173</ele>
        <time>2018-02-04T09:44:47Z</time>
      </trkpt>
      <trkpt lat="45.91447" lon="4.73739">
        <ele>173</ele>
        <time>2018-02-04T09:44:48Z</time>
      </trkpt>
      <trkpt lat="45.9144" lon="4.7374">
        <ele>173</ele>
        <time>2018-02-04T09:44:49Z</time>
      </trkpt>
      <trkpt lat="45.91434" lon="4.7374">
        <ele>173</ele>
        <time>2018-02-04T09:44:50Z</time>
      </trkpt>
      <trkpt lat="45.91428" lon="4.7374">
        <ele>173</ele>
        <time>2018-02-04T09:44:51Z</time>
      </trkpt>
      <trkpt lat="45.91422" lon="4.73741">
        <ele>173</ele>
        <time>2018-02-04T09:44:52Z</time>
      </trkpt>
      <trkpt lat="45.91416" lon="4.7374">
        <ele>172</ele>
        <time>2018-02-04T09:44:53Z</time>
      </trkpt>
      <trkpt lat="45.91411" lon="4.73741">
        <ele>172</ele>
        <time>2018-02-04T09:44:54Z</time>
      </trkpt>
      <trkpt lat="45.91406" lon="4.73743">
        <ele>173</ele>
        <time>2018-02-04T09:44:55Z</time>
      </trkpt>
      <trkpt lat="45.914" lon="4.73742">
        <ele>173</ele>
        <time>2018-02-04T09:44:56Z</time>
      </trkpt>
      <trkpt lat="45.91395" lon="4.73741">
        <ele>173</ele>
        <time>2018-02-04T09:44:57Z</time>
      </trkpt>
      <trkpt lat="45.91389" lon="4.73742">
        <ele>173</ele>
        <time>2018-02-04T09:44:58Z</time>
      </trkpt>
      <trkpt lat="45.91384" lon="4.73742">
        <ele>173</ele>
        <time>2018-02-04T09:44:59Z</time>
      </trkpt>
      <trkpt lat="45.91378" lon="4.73743">
        <ele>173</ele>
        <time>2018-02-04T09:45:00Z</time>
      </trkpt>
      <trkpt lat="45.91372" lon="4.73743">
        <ele>173</ele>
        <time>2018-02-04T09:45:01Z</time>
      </trkpt>
      <trkpt lat="45.91366" lon="4.73743">
        <ele>173</ele>
        <time>2018-02-04T09:45:02Z</time>
      </trkpt>
      <trkpt lat="45.9136" lon="4.73739">
        <ele>173</ele>
        <time>2018-02-04T09:45:03Z</time>
      </trkpt>
      <trkpt lat="45.91355" lon="4.73738">
        <ele>173</ele>
        <time>2018-02-04T09:45:04Z</time>
      </trkpt>
      <trkpt lat="45.91349" lon="4.73739">
        <ele>173</ele>
        <time>2018-02-04T09:45:05Z</time>
      </trkpt>
      <trkpt lat="45.91343" lon="4.73739">
        <ele>173</ele>
        <time>2018-02-04T09:45:06Z</time>
      </trkpt>
      <trkpt lat="45.91338" lon="4.7374">
        <ele>173</ele>
        <time>2018-02-04T09:45:07Z</time>
      </trkpt>
      <trkpt lat="45.91333" lon="4.73741">
        <ele>173</ele>
        <time>2018-02-04T09:45:08Z</time>
      </trkpt>
      <trkpt lat="45.91327" lon="4.73741">
        <ele>173</ele>
        <time>2018-02-04T09:45:09Z</time>
      </trkpt>
      <trkpt lat="45.91321" lon="4.73742">
        <ele>173</ele>
        <time>2018-02-04T09:45:10Z</time>
      </trkpt>
      <trkpt lat="45.91316" lon="4.73742">
        <ele>174</ele>
        <time>2018-02-04T09:45:11Z</time>
      </trkpt>
      <trkpt lat="45.9131" lon="4.73742">
        <ele>174</ele>
        <time>2018-02-04T09:45:12Z</time>
      </trkpt>
      <trkpt lat="45.91304" lon="4.73742">
        <ele>174</ele>
        <time>2018-02-04T09:45:13Z</time>
      </trkpt>
      <trkpt lat="45.91298" lon="4.73741">
        <ele>174</ele>
        <time>2018-02-04T09:45:14Z</time>
      </trkpt>
      <trkpt lat="45.91292" lon="4.7374">
        <ele>174</ele>
        <time>2018-02-04T09:45:15Z</time>
      </trkpt>
      <trkpt lat="45.91286" lon="4.73741">
        <ele>174</ele>
        <time>2018-02-04T09:45:16Z</time>
      </trkpt>
      <trkpt lat="45.9128" lon="4.73741">
        <ele>174</ele>
        <time>2018-02-04T09:45:17Z</time>
      </trkpt>
      <trkpt lat="45.91275" lon="4.73741">
        <ele>174</ele>
        <time>2018-02-04T09:45:18Z</time>
      </trkpt>
      <trkpt lat="45.91269" lon="4.73742">
        <ele>174</ele>
        <time>2018-02-04T09:45:19Z</time>
      </trkpt>
      <trkpt lat="45.91264" lon="4.73742">
        <ele>174</ele>
        <time>2018-02-04T09:45:20Z</time>
      </trkpt>
      <trkpt lat="45.91259" lon="4.73743">
        <ele>175</ele>
        <time>2018-02-04T09:45:21Z</time>
      </trkpt>
      <trkpt lat="45.91254" lon="4.73743">
        <ele>175</ele>
        <time>2018-02-04T09:45:22Z</time>
      </trkpt>
      <trkpt lat="45.91249" lon="4.73744">
        <ele>175</ele>
        <time>2018-02-04T09:45:23Z</time>
      </trkpt>
      <trkpt lat="45.91243" lon="4.73745">
        <ele>175</ele>
        <time>2018-02-04T09:45:24Z</time>
      </trkpt>
      <trkpt lat="45.91237" lon="4.73745">
        <ele>175</ele>
        <time>2018-02-04T09:45:25Z</time>
      </trkpt>
      <trkpt lat="45.91231" lon="4.73744">
        <ele>175</ele>
        <time>2018-02-04T09:45:26Z</time>
      </trkpt>
      <trkpt lat="45.91225" lon="4.73743">
        <ele>175</ele>
        <time>2018-02-04T09:45:27Z</time>
      </trkpt>
      <trkpt lat="45.91219" lon="4.73743">
        <ele>175</ele>
        <time>2018-02-04T09:45:28Z</time>
      </trkpt>
      <trkpt lat="45.91213" lon="4.73744">
        <ele>175</ele>
        <time>2018-02-04T09:45:29Z</time>
      </trkpt>
      <trkpt lat="45.91208" lon="4.73745">
        <ele>175</ele>
        <time>2018-02-04T09:45:30Z</time>
      </trkpt>
      <trkpt lat="45.91202" lon="4.73745">
        <ele>175</ele>
        <time>2018-02-04T09:45:31Z</time>
      </trkpt>
      <trkpt lat="45.91197" lon="4.73746">
        <ele>175</ele>
        <time>2018-02-04T09:45:32Z</time>
      </trkpt>
      <trkpt lat="45.91191" lon="4.73746">
        <ele>175</ele>
        <time>2018-02-04T09:45:33Z</time>
      </trkpt>
      <trkpt lat="45.91186" lon="4.73744">
        <ele>175</ele>
        <time>2018-02-04T09:45:34Z</time>
      </trkpt>
      <trkpt lat="45.91181" lon="4.73741">
        <ele>175</ele>
        <time>2018-02-04T09:45:35Z</time>
      </trkpt>
      <trkpt lat="45.91176" lon="4.73739">
        <ele>175</ele>
        <time>2018-02-04T09:45:36Z</time>
      </trkpt>
      <trkpt lat="45.91171" lon="4.73736">
        <ele>175</ele>
        <time>2018-02-04T09:45:37Z</time>
      </trkpt>
      <trkpt lat="45.91165" lon="4.73736">
        <ele>175</ele>
        <time>2018-02-04T09:45:38Z</time>
      </trkpt>
      <trkpt lat="45.91159" lon="4.73733">
        <ele>175</ele>
        <time>2018-02-04T09:45:39Z</time>
      </trkpt>
      <trkpt lat="45.91154" lon="4.73729">
        <ele>175</ele>
        <time>2018-02-04T09:45:40Z</time>
      </trkpt>
      <trkpt lat="45.91149" lon="4.73725">
        <ele>175</ele>
        <time>2018-02-04T09:45:41Z</time>
      </trkpt>
      <trkpt lat="45.91145" lon="4.73719">
        <ele>174</ele>
        <time>2018-02-04T09:45:42Z</time>
      </trkpt>
      <trkpt lat="45.91141" lon="4.73714">
        <ele>174</ele>
        <time>2018-02-04T09:45:43Z</time>
      </trkpt>
      <trkpt lat="45.91139" lon="4.73706">
        <ele>174</ele>
        <time>2018-02-04T09:45:44Z</time>
      </trkpt>
      <trkpt lat="45.91136" lon="4.73699">
        <ele>174</ele>
        <time>2018-02-04T09:45:45Z</time>
      </trkpt>
      <trkpt lat="45.91132" lon="4.73693">
        <ele>174</ele>
        <time>2018-02-04T09:45:46Z</time>
      </trkpt>
      <trkpt lat="45.91129" lon="4.73685">
        <ele>174</ele>
        <time>2018-02-04T09:45:47Z</time>
      </trkpt>
      <trkpt lat="45.91126" lon="4.73679">
        <ele>174</ele>
        <time>2018-02-04T09:45:48Z</time>
      </trkpt>
      <trkpt lat="45.91123" lon="4.73671">
        <ele>174</ele>
        <time>2018-02-04T09:45:49Z</time>
      </trkpt>
      <trkpt lat="45.9112" lon="4.73664">
        <ele>174</ele>
        <time>2018-02-04T09:45:50Z</time>
      </trkpt>
      <trkpt lat="45.91117" lon="4.73656">
        <ele>174</ele>
        <time>2018-02-04T09:45:51Z</time>
      </trkpt>
      <trkpt lat="45.91114" lon="4.73649">
        <ele>174</ele>
        <time>2018-02-04T09:45:52Z</time>
      </trkpt>
      <trkpt lat="45.91111" lon="4.73641">
        <ele>174</ele>
        <time>2018-02-04T09:45:53Z</time>
      </trkpt>
      <trkpt lat="45.91107" lon="4.73634">
        <ele>174</ele>
        <time>2018-02-04T09:45:54Z</time>
      </trkpt>
      <trkpt lat="45.91104" lon="4.73628">
        <ele>174</ele>
        <time>2018-02-04T09:45:55Z</time>
      </trkpt>
      <trkpt lat="45.91102" lon="4.7362">
        <ele>174</ele>
        <time>2018-02-04T09:45:56Z</time>
      </trkpt>
      <trkpt lat="45.91099" lon="4.73612">
        <ele>174</ele>
        <time>2018-02-04T09:45:57Z</time>
      </trkpt>
      <trkpt lat="45.91096" lon="4.73605">
        <ele>174</ele>
        <time>2018-02-04T09:45:58Z</time>
      </trkpt>
      <trkpt lat="45.91093" lon="4.73598">
        <ele>174</ele>
        <time>2018-02-04T09:45:59Z</time>
      </trkpt>
      <trkpt lat="45.9109" lon="4.73592">
        <ele>174</ele>
        <time>2018-02-04T09:46:00Z</time>
      </trkpt>
      <trkpt lat="45.91086" lon="4.73584">
        <ele>174</ele>
        <time>2018-02-04T09:46:01Z</time>
      </trkpt>
      <trkpt lat="45.91083" lon="4.73577">
        <ele>174</ele>
        <time>2018-02-04T09:46:02Z</time>
      </trkpt>
      <trkpt lat="45.9108" lon="4.73571">
        <ele>174</ele>
        <time>2018-02-04T09:46:03Z</time>
      </trkpt>
      <trkpt lat="45.91076" lon="4.73564">
        <ele>174</ele>
        <time>2018-02-04T09:46:04Z</time>
      </trkpt>
      <trkpt lat="45.91073" lon="4.73558">
        <ele>174</ele>
        <time>2018-02-04T09:46:05Z</time>
      </trkpt>
      <trkpt lat="45.91069" lon="4.73551">
        <ele>174</ele>
        <time>2018-02-04T09:46:06Z</time>
      </trkpt>
      <trkpt lat="45.91067" lon="4.73545">
        <ele>174</ele>
        <time>2018-02-04T09:46:07Z</time>
      </trkpt>
      <trkpt lat="45.91063" lon="4.7354">
        <ele>175</ele>
        <time>2018-02-04T09:46:08Z</time>
      </trkpt>
      <trkpt lat="45.9106" lon="4.73534">
        <ele>175</ele>
        <time>2018-02-04T09:46:09Z</time>
      </trkpt>
      <trkpt lat="45.91057" lon="4.73529">
        <ele>175</ele>
        <time>2018-02-04T09:46:10Z</time>
      </trkpt>
      <trkpt lat="45.91054" lon="4.73522">
        <ele>175</ele>
        <time>2018-02-04T09:46:11Z</time>
      </trkpt>
      <trkpt lat="45.91051" lon="4.73516">
        <ele>175</ele>
        <time>2018-02-04T09:46:12Z</time>
      </trkpt>
      <trkpt lat="45.91049" lon="4.73508">
        <ele>175</ele>
        <time>2018-02-04T09:46:13Z</time>
      </trkpt>
      <trkpt lat="45.91046" lon="4.73501">
        <ele>175</ele>
        <time>2018-02-04T09:46:14Z</time>
      </trkpt>
      <trkpt lat="45.91044" lon="4.73496">
        <ele>175</ele>
        <time>2018-02-04T09:46:15Z</time>
      </trkpt>
      <trkpt lat="45.9104" lon="4.7349">
        <ele>175</ele>
        <time>2018-02-04T09:46:16Z</time>
      </trkpt>
      <trkpt lat="45.91037" lon="4.73483">
        <ele>175</ele>
        <time>2018-02-04T09:46:17Z</time>
      </trkpt>
      <trkpt lat="45.91036" lon="4.73476">
        <ele>175</ele>
        <time>2018-02-04T09:46:18Z</time>
      </trkpt>
      <trkpt lat="45.91034" lon="4.73471">
        <ele>175</ele>
        <time>2018-02-04T09:46:19Z</time>
      </trkpt>
      <trkpt lat="45.91033" lon="4.73461">
        <ele>175</ele>
        <time>2018-02-04T09:46:21Z</time>
      </trkpt>
      <trkpt lat="45.91033" lon="4.73456">
        <ele>175</ele>
        <time>2018-02-04T09:46:22Z</time>
      </trkpt>
      <trkpt lat="45.91034" lon="4.73444">
        <ele>175</ele>
        <time>2018-02-04T09:46:24Z</time>
      </trkpt>
      <trkpt lat="45.91034" lon="4.73438">
        <ele>175</ele>
        <time>2018-02-04T09:46:25Z</time>
      </trkpt>
      <trkpt lat="45.91032" lon="4.73432">
        <ele>175</ele>
        <time>2018-02-04T09:46:26Z</time>
      </trkpt>
      <trkpt lat="45.91029" lon="4.73426">
        <ele>175</ele>
        <time>2018-02-04T09:46:27Z</time>
      </trkpt>
      <trkpt lat="45.91025" lon="4.73422">
        <ele>175</ele>
        <time>2018-02-04T09:46:28Z</time>
      </trkpt>
      <trkpt lat="45.9102" lon="4.7342">
        <ele>175</ele>
        <time>2018-02-04T09:46:29Z</time>
      </trkpt>
      <trkpt lat="45.91015" lon="4.7342">
        <ele>175</ele>
        <time>2018-02-04T09:46:30Z</time>
      </trkpt>
      <trkpt lat="45.9101" lon="4.73422">
        <ele>175</ele>
        <time>2018-02-04T09:46:31Z</time>
      </trkpt>
      <trkpt lat="45.91007" lon="4.73425">
        <ele>175</ele>
        <time>2018-02-04T09:46:32Z</time>
      </trkpt>
      <trkpt lat="45.91002" lon="4.7343">
        <ele>175</ele>
        <time>2018-02-04T09:46:33Z</time>
      </trkpt>
      <trkpt lat="45.90998" lon="4.73433">
        <ele>175</ele>
        <time>2018-02-04T09:46:34Z</time>
      </trkpt>
      <trkpt lat="45.90993" lon="4.73437">
        <ele>175</ele>
        <time>2018-02-04T09:46:35Z</time>
      </trkpt>
      <trkpt lat="45.90988" lon="4.73441">
        <ele>175</ele>
        <time>2018-02-04T09:46:36Z</time>
      </trkpt>
      <trkpt lat="45.90983" lon="4.73444">
        <ele>175</ele>
        <time>2018-02-04T09:46:37Z</time>
      </trkpt>
      <trkpt lat="45.90976" lon="4.73447">
        <ele>175</ele>
        <time>2018-02-04T09:46:38Z</time>
      </trkpt>
      <trkpt lat="45.90971" lon="4.7345">
        <ele>175</ele>
        <time>2018-02-04T09:46:39Z</time>
      </trkpt>
      <trkpt lat="45.90967" lon="4.73454">
        <ele>175</ele>
        <time>2018-02-04T09:46:40Z</time>
      </trkpt>
      <trkpt lat="45.90962" lon="4.73456">
        <ele>175</ele>
        <time>2018-02-04T09:46:41Z</time>
      </trkpt>
      <trkpt lat="45.90956" lon="4.73459">
        <ele>175</ele>
        <time>2018-02-04T09:46:42Z</time>
      </trkpt>
      <trkpt lat="45.9095" lon="4.73461">
        <ele>175</ele>
        <time>2018-02-04T09:46:43Z</time>
      </trkpt>
      <trkpt lat="45.90945" lon="4.73464">
        <ele>175</ele>
        <time>2018-02-04T09:46:44Z</time>
      </trkpt>
      <trkpt lat="45.9094" lon="4.73466">
        <ele>175</ele>
        <time>2018-02-04T09:46:45Z</time>
      </trkpt>
      <trkpt lat="45.90934" lon="4.73468">
        <ele>175</ele>
        <time>2018-02-04T09:46:46Z</time>
      </trkpt>
      <trkpt lat="45.90929" lon="4.73469">
        <ele>175</ele>
        <time>2018-02-04T09:46:47Z</time>
      </trkpt>
      <trkpt lat="45.90924" lon="4.73472">
        <ele>175</ele>
        <time>2018-02-04T09:46:48Z</time>
      </trkpt>
      <trkpt lat="45.90918" lon="4.73475">
        <ele>175</ele>
        <time>2018-02-04T09:46:49Z</time>
      </trkpt>
      <trkpt lat="45.90913" lon="4.73478">
        <ele>175</ele>
        <time>2018-02-04T09:46:50Z</time>
      </trkpt>
      <trkpt lat="45.90907" lon="4.7348">
        <ele>175</ele>
        <time>2018-02-04T09:46:51Z</time>
      </trkpt>
      <trkpt lat="45.90902" lon="4.73482">
        <ele>175</ele>
        <time>2018-02-04T09:46:52Z</time>
      </trkpt>
      <trkpt lat="45.90896" lon="4.73485">
        <ele>175</ele>
        <time>2018-02-04T09:46:53Z</time>
      </trkpt>
      <trkpt lat="45.9089" lon="4.73488">
        <ele>175</ele>
        <time>2018-02-04T09:46:54Z</time>
      </trkpt>
      <trkpt lat="45.90884" lon="4.7349">
        <ele>175</ele>
        <time>2018-02-04T09:46:55Z</time>
      </trkpt>
      <trkpt lat="45.90878" lon="4.73493">
        <ele>175</ele>
        <time>2018-02-04T09:46:56Z</time>
      </trkpt>
      <trkpt lat="45.90872" lon="4.73495">
        <ele>175</ele>
        <time>2018-02-04T09:46:57Z</time>
      </trkpt>
      <trkpt lat="45.90866" lon="4.73497">
        <ele>175</ele>
        <time>2018-02-04T09:46:58Z</time>
      </trkpt>
      <trkpt lat="45.90861" lon="4.735">
        <ele>175</ele>
        <time>2018-02-04T09:46:59Z</time>
      </trkpt>
      <trkpt lat="45.90855" lon="4.73502">
        <ele>174</ele>
        <time>2018-02-04T09:47:00Z</time>
      </trkpt>
      <trkpt lat="45.9085" lon="4.73505">
        <ele>174</ele>
        <time>2018-02-04T09:47:01Z</time>
      </trkpt>
      <trkpt lat="45.90845" lon="4.73507">
        <ele>174</ele>
        <time>2018-02-04T09:47:02Z</time>
      </trkpt>
      <trkpt lat="45.9084" lon="4.73509">
        <ele>174</ele>
        <time>2018-02-04T09:47:03Z</time>
      </trkpt>
      <trkpt lat="45.90833" lon="4.73511">
        <ele>175</ele>
        <time>2018-02-04T09:47:04Z</time>
      </trkpt>
      <trkpt lat="45.90827" lon="4.73513">
        <ele>175</ele>
        <time>2018-02-04T09:47:05Z</time>
      </trkpt>
      <trkpt lat="45.90821" lon="4.73514">
        <ele>175</ele>
        <time>2018-02-04T09:47:06Z</time>
      </trkpt>
      <trkpt lat="45.90815" lon="4.73516">
        <ele>175</ele>
        <time>2018-02-04T09:47:07Z</time>
      </trkpt>
      <trkpt lat="45.9081" lon="4.73518">
        <ele>175</ele>
        <time>2018-02-04T09:47:08Z</time>
      </trkpt>
      <trkpt lat="45.90804" lon="4.73521">
        <ele>175</ele>
        <time>2018-02-04T09:47:09Z</time>
      </trkpt>
      <trkpt lat="45.90798" lon="4.73523">
        <ele>175</ele>
        <time>2018-02-04T09:47:10Z</time>
      </trkpt>
      <trkpt lat="45.90791" lon="4.73525">
        <ele>176</ele>
        <time>2018-02-04T09:47:11Z</time>
      </trkpt>
      <trkpt lat="45.90786" lon="4.73528">
        <ele>176</ele>
        <time>2018-02-04T09:47:12Z</time>
      </trkpt>
      <trkpt lat="45.9078" lon="4.73531">
        <ele>176</ele>
        <time>2018-02-04T09:47:13Z</time>
      </trkpt>
      <trkpt lat="45.90775" lon="4.73534">
        <ele>176</ele>
        <time>2018-02-04T09:47:14Z</time>
      </trkpt>
      <trkpt lat="45.90769" lon="4.73537">
        <ele>176</ele>
        <time>2018-02-04T09:47:15Z</time>
      </trkpt>
      <trkpt lat="45.90763" lon="4.7354">
        <ele>176</ele>
        <time>2018-02-04T09:47:16Z</time>
      </trkpt>
      <trkpt lat="45.90758" lon="4.73543">
        <ele>176</ele>
        <time>2018-02-04T09:47:17Z</time>
      </trkpt>
      <trkpt lat="45.90752" lon="4.73546">
        <ele>176</ele>
        <time>2018-02-04T09:47:18Z</time>
      </trkpt>
      <trkpt lat="45.90746" lon="4.73549">
        <ele>178</ele>
        <time>2018-02-04T09:47:19Z</time>
      </trkpt>
      <trkpt lat="45.90741" lon="4.7355">
        <ele>178</ele>
        <time>2018-02-04T09:47:20Z</time>
      </trkpt>
      <trkpt lat="45.90736" lon="4.73553">
        <ele>178</ele>
        <time>2018-02-04T09:47:21Z</time>
      </trkpt>
      <trkpt lat="45.9073" lon="4.73555">
        <ele>178</ele>
        <time>2018-02-04T09:47:22Z</time>
      </trkpt>
      <trkpt lat="45.90725" lon="4.73557">
        <ele>178</ele>
        <time>2018-02-04T09:47:23Z</time>
      </trkpt>
      <trkpt lat="45.90719" lon="4.73558">
        <ele>178</ele>
        <time>2018-02-04T09:47:24Z</time>
      </trkpt>
      <trkpt lat="45.90715" lon="4.7356">
        <ele>178</ele>
        <time>2018-02-04T09:47:25Z</time>
      </trkpt>
      <trkpt lat="45.9071" lon="4.73562">
        <ele>178</ele>
        <time>2018-02-04T09:47:26Z</time>
      </trkpt>
      <trkpt lat="45.90704" lon="4.73563">
        <ele>178</ele>
        <time>2018-02-04T09:47:27Z</time>
      </trkpt>
      <trkpt lat="45.907" lon="4.73566">
        <ele>178</ele>
        <time>2018-02-04T09:47:28Z</time>
      </trkpt>
      <trkpt lat="45.90694" lon="4.73568">
        <ele>178</ele>
        <time>2018-02-04T09:47:29Z</time>
      </trkpt>
      <trkpt lat="45.90689" lon="4.73571">
        <ele>178</ele>
        <time>2018-02-04T09:47:30Z</time>
      </trkpt>
      <trkpt lat="45.90686" lon="4.73573">
        <ele>179</ele>
        <time>2018-02-04T09:47:31Z</time>
      </trkpt>
      <trkpt lat="45.90678" lon="4.73577">
        <ele>179</ele>
        <time>2018-02-04T09:47:33Z</time>
      </trkpt>
      <trkpt lat="45.90674" lon="4.73577">
        <ele>179</ele>
        <time>2018-02-04T09:47:34Z</time>
      </trkpt>
      <trkpt lat="45.90665" lon="4.73581">
        <ele>180</ele>
        <time>2018-02-04T09:47:36Z</time>
      </trkpt>
      <trkpt lat="45.90661" lon="4.73583">
        <ele>180</ele>
        <time>2018-02-04T09:47:37Z</time>
      </trkpt>
      <trkpt lat="45.90653" lon="4.73586">
        <ele>181</ele>
        <time>2018-02-04T09:47:39Z</time>
      </trkpt>
      <trkpt lat="45.90649" lon="4.73587">
        <ele>181</ele>
        <time>2018-02-04T09:47:40Z</time>
      </trkpt>
      <trkpt lat="45.90642" lon="4.7359">
        <ele>181</ele>
        <time>2018-02-04T09:47:42Z</time>
      </trkpt>
      <trkpt lat="45.90638" lon="4.73592">
        <ele>181</ele>
        <time>2018-02-04T09:47:43Z</time>
      </trkpt>
      <trkpt lat="45.90631" lon="4.73595">
        <ele>181</ele>
        <time>2018-02-04T09:47:45Z</time>
      </trkpt>
      <trkpt lat="45.90628" lon="4.73596">
        <ele>181</ele>
        <time>2018-02-04T09:47:46Z</time>
      </trkpt>
      <trkpt lat="45.90621" lon="4.736">
        <ele>181</ele>
        <time>2018-02-04T09:47:48Z</time>
      </trkpt>
      <trkpt lat="45.90618" lon="4.73601">
        <ele>181</ele>
        <time>2018-02-04T09:47:49Z</time>
      </trkpt>
      <trkpt lat="45.90611" lon="4.73605">
        <ele>180</ele>
        <time>2018-02-04T09:47:51Z</time>
      </trkpt>
      <trkpt lat="45.90607" lon="4.73606">
        <ele>180</ele>
        <time>2018-02-04T09:47:52Z</time>
      </trkpt>
      <trkpt lat="45.906" lon="4.73608">
        <ele>180</ele>
        <time>2018-02-04T09:47:54Z</time>
      </trkpt>
      <trkpt lat="45.90596" lon="4.7361">
        <ele>180</ele>
        <time>2018-02-04T09:47:55Z</time>
      </trkpt>
      <trkpt lat="45.90588" lon="4.73614">
        <ele>180</ele>
        <time>2018-02-04T09:47:57Z</time>
      </trkpt>
      <trkpt lat="45.90584" lon="4.73615">
        <ele>180</ele>
        <time>2018-02-04T09:47:58Z</time>
      </trkpt>
      <trkpt lat="45.90576" lon="4.73619">
        <ele>179</ele>
        <time>2018-02-04T09:48:00Z</time>
      </trkpt>
      <trkpt lat="45.90573" lon="4.7362">
        <ele>179</ele>
        <time>2018-02-04T09:48:01Z</time>
      </trkpt>
      <trkpt lat="45.90565" lon="4.73623">
        <ele>179</ele>
        <time>2018-02-04T09:48:03Z</time>
      </trkpt>
      <trkpt lat="45.90561" lon="4.73625">
        <ele>179</ele>
        <time>2018-02-04T09:48:04Z</time>
      </trkpt>
      <trkpt lat="45.90553" lon="4.73628">
        <ele>178</ele>
        <time>2018-02-04T09:48:06Z</time>
      </trkpt>
      <trkpt lat="45.9055" lon="4.7363">
        <ele>178</ele>
        <time>2018-02-04T09:48:07Z</time>
      </trkpt>
      <trkpt lat="45.90542" lon="4.73633">
        <ele>178</ele>
        <time>2018-02-04T09:48:09Z</time>
      </trkpt>
      <trkpt lat="45.90539" lon="4.73635">
        <ele>178</ele>
        <time>2018-02-04T09:48:10Z</time>
      </trkpt>
      <trkpt lat="45.90531" lon="4.73638">
        <ele>178</ele>
        <time>2018-02-04T09:48:12Z</time>
      </trkpt>
      <trkpt lat="45.90527" lon="4.73639">
        <ele>178</ele>
        <time>2018-02-04T09:48:13Z</time>
      </trkpt>
      <trkpt lat="45.90522" lon="4.73641">
        <ele>178</ele>
        <time>2018-02-04T09:48:14Z</time>
      </trkpt>
      <trkpt lat="45.90518" lon="4.73642">
        <ele>178</ele>
        <time>2018-02-04T09:48:15Z</time>
      </trkpt>
      <trkpt lat="45.90513" lon="4.73644">
        <ele>178</ele>
        <time>2018-02-04T09:48:16Z</time>
      </trkpt>
      <trkpt lat="45.90508" lon="4.73646">
        <ele>178</ele>
        <time>2018-02-04T09:48:17Z</time>
      </trkpt>
      <trkpt lat="45.90504" lon="4.73649">
        <ele>178</ele>
        <time>2018-02-04T09:48:18Z</time>
      </trkpt>
      <trkpt lat="45.905" lon="4.73652">
        <ele>177</ele>
        <time>2018-02-04T09:48:19Z</time>
      </trkpt>
      <trkpt lat="45.90495" lon="4.73653">
        <ele>177</ele>
        <time>2018-02-04T09:48:20Z</time>
      </trkpt>
      <trkpt lat="45.90491" lon="4.73654">
        <ele>177</ele>
        <time>2018-02-04T09:48:21Z</time>
      </trkpt>
      <trkpt lat="45.90483" lon="4.73658">
        <ele>177</ele>
        <time>2018-02-04T09:48:23Z</time>
      </trkpt>
      <trkpt lat="45.90479" lon="4.73659">
        <ele>177</ele>
        <time>2018-02-04T09:48:24Z</time>
      </trkpt>
      <trkpt lat="45.90471" lon="4.73664">
        <ele>177</ele>
        <time>2018-02-04T09:48:26Z</time>
      </trkpt>
      <trkpt lat="45.90467" lon="4.73667">
        <ele>176</ele>
        <time>2018-02-04T09:48:27Z</time>
      </trkpt>
      <trkpt lat="45.90462" lon="4.7367">
        <ele>176</ele>
        <time>2018-02-04T09:48:28Z</time>
      </trkpt>
      <trkpt lat="45.90457" lon="4.73672">
        <ele>176</ele>
        <time>2018-02-04T09:48:29Z</time>
      </trkpt>
      <trkpt lat="45.90451" lon="4.73675">
        <ele>176</ele>
        <time>2018-02-04T09:48:30Z</time>
      </trkpt>
      <trkpt lat="45.90446" lon="4.73678">
        <ele>176</ele>
        <time>2018-02-04T09:48:31Z</time>
      </trkpt>
      <trkpt lat="45.90441" lon="4.7368">
        <ele>176</ele>
        <time>2018-02-04T09:48:32Z</time>
      </trkpt>
      <trkpt lat="45.90435" lon="4.73683">
        <ele>176</ele>
        <time>2018-02-04T09:48:33Z</time>
      </trkpt>
      <trkpt lat="45.90429" lon="4.73686">
        <ele>176</ele>
        <time>2018-02-04T09:48:34Z</time>
      </trkpt>
      <trkpt lat="45.90423" lon="4.73688">
        <ele>176</ele>
        <time>2018-02-04T09:48:35Z</time>
      </trkpt>
      <trkpt lat="45.90417" lon="4.73691">
        <ele>176</ele>
        <time>2018-02-04T09:48:36Z</time>
      </trkpt>
      <trkpt lat="45.90411" lon="4.73693">
        <ele>177</ele>
        <time>2018-02-04T09:48:37Z</time>
      </trkpt>
      <trkpt lat="45.90405" lon="4.73695">
        <ele>177</ele>
        <time>2018-02-04T09:48:38Z</time>
      </trkpt>
      <trkpt lat="45.90398" lon="4.73698">
        <ele>177</ele>
        <time>2018-02-04T09:48:39Z</time>
      </trkpt>
      <trkpt lat="45.90392" lon="4.737">
        <ele>177</ele>
        <time>2018-02-04T09:48:40Z</time>
      </trkpt>
      <trkpt lat="45.90386" lon="4.73703">
        <ele>177</ele>
        <time>2018-02-04T09:48:41Z</time>
      </trkpt>
      <trkpt lat="45.90379" lon="4.73705">
        <ele>177</ele>
        <time>2018-02-04T09:48:42Z</time>
      </trkpt>
      <trkpt lat="45.90373" lon="4.73709">
        <ele>177</ele>
        <time>2018-02-04T09:48:43Z</time>
      </trkpt>
      <trkpt lat="45.90366" lon="4.73711">
        <ele>177</ele>
        <time>2018-02-04T09:48:44Z</time>
      </trkpt>
      <trkpt lat="45.90359" lon="4.73714">
        <ele>177</ele>
        <time>2018-02-04T09:48:45Z</time>
      </trkpt>
      <trkpt lat="45.90352" lon="4.73718">
        <ele>177</ele>
        <time>2018-02-04T09:48:46Z</time>
      </trkpt>
      <trkpt lat="45.90344" lon="4.73721">
        <ele>177</ele>
        <time>2018-02-04T09:48:47Z</time>
      </trkpt>
      <trkpt lat="45.90338" lon="4.73723">
        <ele>177</ele>
        <time>2018-02-04T09:48:48Z</time>
      </trkpt>
      <trkpt lat="45.9033" lon="4.73726">
        <ele>177</ele>
        <time>2018-02-04T09:48:49Z</time>
      </trkpt>
      <trkpt lat="45.90323" lon="4.73728">
        <ele>177</ele>
        <time>2018-02-04T09:48:50Z</time>
      </trkpt>
      <trkpt lat="45.90315" lon="4.73731">
        <ele>177</ele>
        <time>2018-02-04T09:48:51Z</time>
      </trkpt>
      <trkpt lat="45.90308" lon="4.73733">
        <ele>177</ele>
        <time>2018-02-04T09:48:52Z</time>
      </trkpt>
      <trkpt lat="45.90301" lon="4.73736">
        <ele>177</ele>
        <time>2018-02-04T09:48:53Z</time>
      </trkpt>
      <trkpt lat="45.90294" lon="4.73739">
        <ele>177</ele>
        <time>2018-02-04T09:48:54Z</time>
      </trkpt>
      <trkpt lat="45.90287" lon="4.73742">
        <ele>177</ele>
        <time>2018-02-04T09:48:55Z</time>
      </trkpt>
      <trkpt lat="45.9028" lon="4.73744">
        <ele>177</ele>
        <time>2018-02-04T09:48:56Z</time>
      </trkpt>
      <trkpt lat="45.90272" lon="4.73746">
        <ele>177</ele>
        <time>2018-02-04T09:48:57Z</time>
      </trkpt>
      <trkpt lat="45.90266" lon="4.73748">
        <ele>178</ele>
        <time>2018-02-04T09:48:58Z</time>
      </trkpt>
      <trkpt lat="45.90261" lon="4.73751">
        <ele>178</ele>
        <time>2018-02-04T09:48:59Z</time>
      </trkpt>
      <trkpt lat="45.90254" lon="4.73751">
        <ele>178</ele>
        <time>2018-02-04T09:49:00Z</time>
      </trkpt>
      <trkpt lat="45.90248" lon="4.73753">
        <ele>178</ele>
        <time>2018-02-04T09:49:01Z</time>
      </trkpt>
      <trkpt lat="45.90242" lon="4.73755">
        <ele>178</ele>
        <time>2018-02-04T09:49:02Z</time>
      </trkpt>
      <trkpt lat="45.90236" lon="4.73758">
        <ele>178</ele>
        <time>2018-02-04T09:49:03Z</time>
      </trkpt>
      <trkpt lat="45.90231" lon="4.73761">
        <ele>177</ele>
        <time>2018-02-04T09:49:04Z</time>
      </trkpt>
      <trkpt lat="45.90225" lon="4.73764">
        <ele>177</ele>
        <time>2018-02-04T09:49:05Z</time>
      </trkpt>
      <trkpt lat="45.90219" lon="4.73767">
        <ele>177</ele>
        <time>2018-02-04T09:49:06Z</time>
      </trkpt>
      <trkpt lat="45.90213" lon="4.7377">
        <ele>177</ele>
        <time>2018-02-04T09:49:07Z</time>
      </trkpt>
      <trkpt lat="45.90206" lon="4.73774">
        <ele>177</ele>
        <time>2018-02-04T09:49:08Z</time>
      </trkpt>
      <trkpt lat="45.90201" lon="4.73777">
        <ele>177</ele>
        <time>2018-02-04T09:49:09Z</time>
      </trkpt>
      <trkpt lat="45.90195" lon="4.7378">
        <ele>177</ele>
        <time>2018-02-04T09:49:10Z</time>
      </trkpt>
      <trkpt lat="45.90189" lon="4.73783">
        <ele>177</ele>
        <time>2018-02-04T09:49:11Z</time>
      </trkpt>
      <trkpt lat="45.90183" lon="4.73785">
        <ele>177</ele>
        <time>2018-02-04T09:49:12Z</time>
      </trkpt>
      <trkpt lat="45.90176" lon="4.73789">
        <ele>177</ele>
        <time>2018-02-04T09:49:13Z</time>
      </trkpt>
      <trkpt lat="45.9017" lon="4.73792">
        <ele>177</ele>
        <time>2018-02-04T09:49:14Z</time>
      </trkpt>
      <trkpt lat="45.90164" lon="4.73795">
        <ele>176</ele>
        <time>2018-02-04T09:49:15Z</time>
      </trkpt>
      <trkpt lat="45.90158" lon="4.73797">
        <ele>176</ele>
        <time>2018-02-04T09:49:16Z</time>
      </trkpt>
      <trkpt lat="45.90152" lon="4.738">
        <ele>177</ele>
        <time>2018-02-04T09:49:17Z</time>
      </trkpt>
      <trkpt lat="45.90146" lon="4.73801">
        <ele>177</ele>
        <time>2018-02-04T09:49:18Z</time>
      </trkpt>
      <trkpt lat="45.90141" lon="4.73803">
        <ele>177</ele>
        <time>2018-02-04T09:49:19Z</time>
      </trkpt>
      <trkpt lat="45.90136" lon="4.73805">
        <ele>177</ele>
        <time>2018-02-04T09:49:20Z</time>
      </trkpt>
      <trkpt lat="45.9013" lon="4.73808">
        <ele>177</ele>
        <time>2018-02-04T09:49:21Z</time>
      </trkpt>
      <trkpt lat="45.90125" lon="4.7381">
        <ele>177</ele>
        <time>2018-02-04T09:49:22Z</time>
      </trkpt>
      <trkpt lat="45.9012" lon="4.73813">
        <ele>177</ele>
        <time>2018-02-04T09:49:23Z</time>
      </trkpt>
      <trkpt lat="45.90115" lon="4.73814">
        <ele>177</ele>
        <time>2018-02-04T09:49:24Z</time>
      </trkpt>
      <trkpt lat="45.90109" lon="4.73816">
        <ele>177</ele>
        <time>2018-02-04T09:49:25Z</time>
      </trkpt>
      <trkpt lat="45.90103" lon="4.73817">
        <ele>177</ele>
        <time>2018-02-04T09:49:26Z</time>
      </trkpt>
      <trkpt lat="45.90098" lon="4.7382">
        <ele>177</ele>
        <time>2018-02-04T09:49:27Z</time>
      </trkpt>
      <trkpt lat="45.90092" lon="4.73822">
        <ele>177</ele>
        <time>2018-02-04T09:49:28Z</time>
      </trkpt>
      <trkpt lat="45.90086" lon="4.73826">
        <ele>178</ele>
        <time>2018-02-04T09:49:29Z</time>
      </trkpt>
      <trkpt lat="45.9008" lon="4.73829">
        <ele>178</ele>
        <time>2018-02-04T09:49:30Z</time>
      </trkpt>
      <trkpt lat="45.90075" lon="4.73832">
        <ele>178</ele>
        <time>2018-02-04T09:49:31Z</time>
      </trkpt>
      <trkpt lat="45.90068" lon="4.73834">
        <ele>178</ele>
        <time>2018-02-04T09:49:32Z</time>
      </trkpt>
      <trkpt lat="45.90063" lon="4.73838">
        <ele>178</ele>
        <time>2018-02-04T09:49:33Z</time>
      </trkpt>
      <trkpt lat="45.90058" lon="4.7384">
        <ele>178</ele>
        <time>2018-02-04T09:49:34Z</time>
      </trkpt>
      <trkpt lat="45.90051" lon="4.73843">
        <ele>178</ele>
        <time>2018-02-04T09:49:35Z</time>
      </trkpt>
      <trkpt lat="45.90046" lon="4.73846">
        <ele>178</ele>
        <time>2018-02-04T09:49:36Z</time>
      </trkpt>
      <trkpt lat="45.9004" lon="4.73849">
        <ele>178</ele>
        <time>2018-02-04T09:49:37Z</time>
      </trkpt>
      <trkpt lat="45.90034" lon="4.73851">
        <ele>178</ele>
        <time>2018-02-04T09:49:38Z</time>
      </trkpt>
      <trkpt lat="45.90029" lon="4.73854">
        <ele>178</ele>
        <time>2018-02-04T09:49:39Z</time>
      </trkpt>
      <trkpt lat="45.90022" lon="4.73855">
        <ele>178</ele>
        <time>2018-02-04T09:49:40Z</time>
      </trkpt>
      <trkpt lat="45.90017" lon="4.73856">
        <ele>178</ele>
        <time>2018-02-04T09:49:41Z</time>
      </trkpt>
      <trkpt lat="45.90012" lon="4.73858">
        <ele>178</ele>
        <time>2018-02-04T09:49:42Z</time>
      </trkpt>
      <trkpt lat="45.90007" lon="4.73859">
        <ele>178</ele>
        <time>2018-02-04T09:49:43Z</time>
      </trkpt>
      <trkpt lat="45.90002" lon="4.73862">
        <ele>178</ele>
        <time>2018-02-04T09:49:44Z</time>
      </trkpt>
      <trkpt lat="45.89996" lon="4.73864">
        <ele>178</ele>
        <time>2018-02-04T09:49:45Z</time>
      </trkpt>
      <trkpt lat="45.8999" lon="4.73867">
        <ele>178</ele>
        <time>2018-02-04T09:49:46Z</time>
      </trkpt>
      <trkpt lat="45.89984" lon="4.7387">
        <ele>178</ele>
        <time>2018-02-04T09:49:47Z</time>
      </trkpt>
      <trkpt lat="45.89978" lon="4.73872">
        <ele>178</ele>
        <time>2018-02-04T09:49:48Z</time>
      </trkpt>
      <trkpt lat="45.89972" lon="4.73874">
        <ele>178</ele>
        <time>2018-02-04T09:49:49Z</time>
      </trkpt>
      <trkpt lat="45.89967" lon="4.73876">
        <ele>178</ele>
        <time>2018-02-04T09:49:50Z</time>
      </trkpt>
      <trkpt lat="45.89961" lon="4.73878">
        <ele>178</ele>
        <time>2018-02-04T09:49:51Z</time>
      </trkpt>
      <trkpt lat="45.89955" lon="4.73881">
        <ele>178</ele>
        <time>2018-02-04T09:49:52Z</time>
      </trkpt>
      <trkpt lat="45.89949" lon="4.73884">
        <ele>178</ele>
        <time>2018-02-04T09:49:53Z</time>
      </trkpt>
      <trkpt lat="45.89943" lon="4.73886">
        <ele>178</ele>
        <time>2018-02-04T09:49:54Z</time>
      </trkpt>
      <trkpt lat="45.89937" lon="4.73889">
        <ele>178</ele>
        <time>2018-02-04T09:49:55Z</time>
      </trkpt>
      <trkpt lat="45.89932" lon="4.73891">
        <ele>178</ele>
        <time>2018-02-04T09:49:56Z</time>
      </trkpt>
      <trkpt lat="45.89926" lon="4.73894">
        <ele>178</ele>
        <time>2018-02-04T09:49:57Z</time>
      </trkpt>
      <trkpt lat="45.89921" lon="4.73896">
        <ele>178</ele>
        <time>2018-02-04T09:49:58Z</time>
      </trkpt>
      <trkpt lat="45.89914" lon="4.73899">
        <ele>178</ele>
        <time>2018-02-04T09:49:59Z</time>
      </trkpt>
      <trkpt lat="45.89908" lon="4.73901">
        <ele>178</ele>
        <time>2018-02-04T09:50:00Z</time>
      </trkpt>
      <trkpt lat="45.89903" lon="4.73904">
        <ele>178</ele>
        <time>2018-02-04T09:50:01Z</time>
      </trkpt>
      <trkpt lat="45.89897" lon="4.73906">
        <ele>178</ele>
        <time>2018-02-04T09:50:02Z</time>
      </trkpt>
      <trkpt lat="45.89892" lon="4.73909">
        <ele>179</ele>
        <time>2018-02-04T09:50:03Z</time>
      </trkpt>
      <trkpt lat="45.89886" lon="4.73911">
        <ele>179</ele>
        <time>2018-02-04T09:50:04Z</time>
      </trkpt>
      <trkpt lat="45.89881" lon="4.73914">
        <ele>179</ele>
        <time>2018-02-04T09:50:05Z</time>
      </trkpt>
      <trkpt lat="45.89875" lon="4.73917">
        <ele>179</ele>
        <time>2018-02-04T09:50:06Z</time>
      </trkpt>
      <trkpt lat="45.8987" lon="4.73919">
        <ele>179</ele>
        <time>2018-02-04T09:50:07Z</time>
      </trkpt>
      <trkpt lat="45.89865" lon="4.73923">
        <ele>179</ele>
        <time>2018-02-04T09:50:08Z</time>
      </trkpt>
      <trkpt lat="45.89861" lon="4.73924">
        <ele>179</ele>
        <time>2018-02-04T09:50:09Z</time>
      </trkpt>
      <trkpt lat="45.89856" lon="4.73925">
        <ele>179</ele>
        <time>2018-02-04T09:50:10Z</time>
      </trkpt>
      <trkpt lat="45.89852" lon="4.73928">
        <ele>179</ele>
        <time>2018-02-04T09:50:11Z</time>
      </trkpt>
      <trkpt lat="45.89847" lon="4.7393">
        <ele>179</ele>
        <time>2018-02-04T09:50:12Z</time>
      </trkpt>
      <trkpt lat="45.89842" lon="4.73931">
        <ele>179</ele>
        <time>2018-02-04T09:50:13Z</time>
      </trkpt>
      <trkpt lat="45.89837" lon="4.73933">
        <ele>179</ele>
        <time>2018-02-04T09:50:14Z</time>
      </trkpt>
      <trkpt lat="45.89831" lon="4.73935">
        <ele>179</ele>
        <time>2018-02-04T09:50:15Z</time>
      </trkpt>
      <trkpt lat="45.89826" lon="4.73938">
        <ele>179</ele>
        <time>2018-02-04T09:50:16Z</time>
      </trkpt>
      <trkpt lat="45.89822" lon="4.7394">
        <ele>179</ele>
        <time>2018-02-04T09:50:17Z</time>
      </trkpt>
      <trkpt lat="45.89816" lon="4.73942">
        <ele>179</ele>
        <time>2018-02-04T09:50:18Z</time>
      </trkpt>
      <trkpt lat="45.89811" lon="4.73944">
        <ele>179</ele>
        <time>2018-02-04T09:50:19Z</time>
      </trkpt>
      <trkpt lat="45.89806" lon="4.73947">
        <ele>179</ele>
        <time>2018-02-04T09:50:20Z</time>
      </trkpt>
      <trkpt lat="45.898" lon="4.73949">
        <ele>179</ele>
        <time>2018-02-04T09:50:21Z</time>
      </trkpt>
      <trkpt lat="45.89795" lon="4.73949">
        <ele>179</ele>
        <time>2018-02-04T09:50:22Z</time>
      </trkpt>
      <trkpt lat="45.89789" lon="4.73951">
        <ele>179</ele>
        <time>2018-02-04T09:50:23Z</time>
      </trkpt>
      <trkpt lat="45.89784" lon="4.73954">
        <ele>179</ele>
        <time>2018-02-04T09:50:24Z</time>
      </trkpt>
      <trkpt lat="45.89777" lon="4.73956">
        <ele>179</ele>
        <time>2018-02-04T09:50:25Z</time>
      </trkpt>
      <trkpt lat="45.89771" lon="4.73959">
        <ele>179</ele>
        <time>2018-02-04T09:50:26Z</time>
      </trkpt>
      <trkpt lat="45.89764" lon="4.73964">
        <ele>179</ele>
        <time>2018-02-04T09:50:27Z</time>
      </trkpt>
      <trkpt lat="45.89759" lon="4.73966">
        <ele>178</ele>
        <time>2018-02-04T09:50:28Z</time>
      </trkpt>
      <trkpt lat="45.89753" lon="4.73967">
        <ele>178</ele>
        <time>2018-02-04T09:50:29Z</time>
      </trkpt>
      <trkpt lat="45.89748" lon="4.73969">
        <ele>178</ele>
        <time>2018-02-04T09:50:30Z</time>
      </trkpt>
      <trkpt lat="45.89743" lon="4.73972">
        <ele>178</ele>
        <time>2018-02-04T09:50:31Z</time>
      </trkpt>
      <trkpt lat="45.89738" lon="4.73974">
        <ele>178</ele>
        <time>2018-02-04T09:50:32Z</time>
      </trkpt>
      <trkpt lat="45.89732" lon="4.73977">
        <ele>178</ele>
        <time>2018-02-04T09:50:33Z</time>
      </trkpt>
      <trkpt lat="45.89727" lon="4.7398">
        <ele>178</ele>
        <time>2018-02-04T09:50:34Z</time>
      </trkpt>
      <trkpt lat="45.89721" lon="4.73982">
        <ele>178</ele>
        <time>2018-02-04T09:50:35Z</time>
      </trkpt>
      <trkpt lat="45.89716" lon="4.73984">
        <ele>178</ele>
        <time>2018-02-04T09:50:36Z</time>
      </trkpt>
      <trkpt lat="45.8971" lon="4.73986">
        <ele>178</ele>
        <time>2018-02-04T09:50:37Z</time>
      </trkpt>
      <trkpt lat="45.89705" lon="4.73989">
        <ele>178</ele>
        <time>2018-02-04T09:50:38Z</time>
      </trkpt>
      <trkpt lat="45.89699" lon="4.73993">
        <ele>178</ele>
        <time>2018-02-04T09:50:39Z</time>
      </trkpt>
      <trkpt lat="45.89694" lon="4.73995">
        <ele>178</ele>
        <time>2018-02-04T09:50:40Z</time>
      </trkpt>
      <trkpt lat="45.89688" lon="4.73998">
        <ele>179</ele>
        <time>2018-02-04T09:50:41Z</time>
      </trkpt>
      <trkpt lat="45.89683" lon="4.74">
        <ele>179</ele>
        <time>2018-02-04T09:50:42Z</time>
      </trkpt>
      <trkpt lat="45.89678" lon="4.74001">
        <ele>179</ele>
        <time>2018-02-04T09:50:43Z</time>
      </trkpt>
      <trkpt lat="45.89672" lon="4.74003">
        <ele>179</ele>
        <time>2018-02-04T09:50:44Z</time>
      </trkpt>
      <trkpt lat="45.89666" lon="4.74005">
        <ele>179</ele>
        <time>2018-02-04T09:50:45Z</time>
      </trkpt>
      <trkpt lat="45.89661" lon="4.74007">
        <ele>179</ele>
        <time>2018-02-04T09:50:46Z</time>
      </trkpt>
      <trkpt lat="45.89655" lon="4.74009">
        <ele>179</ele>
        <time>2018-02-04T09:50:47Z</time>
      </trkpt>
      <trkpt lat="45.8965" lon="4.74012">
        <ele>180</ele>
        <time>2018-02-04T09:50:48Z</time>
      </trkpt>
      <trkpt lat="45.89645" lon="4.74014">
        <ele>180</ele>
        <time>2018-02-04T09:50:49Z</time>
      </trkpt>
      <trkpt lat="45.8964" lon="4.74017">
        <ele>180</ele>
        <time>2018-02-04T09:50:50Z</time>
      </trkpt>
      <trkpt lat="45.89635" lon="4.74019">
        <ele>180</ele>
        <time>2018-02-04T09:50:51Z</time>
      </trkpt>
      <trkpt lat="45.89629" lon="4.74021">
        <ele>180</ele>
        <time>2018-02-04T09:50:52Z</time>
      </trkpt>
      <trkpt lat="45.89624" lon="4.74023">
        <ele>180</ele>
        <time>2018-02-04T09:50:53Z</time>
      </trkpt>
      <trkpt lat="45.8962" lon="4.74026">
        <ele>180</ele>
        <time>2018-02-04T09:50:54Z</time>
      </trkpt>
      <trkpt lat="45.89614" lon="4.74031">
        <ele>180</ele>
        <time>2018-02-04T09:50:55Z</time>
      </trkpt>
      <trkpt lat="45.89609" lon="4.74033">
        <ele>180</ele>
        <time>2018-02-04T09:50:56Z</time>
      </trkpt>
      <trkpt lat="45.89604" lon="4.74035">
        <ele>180</ele>
        <time>2018-02-04T09:50:57Z</time>
      </trkpt>
      <trkpt lat="45.89599" lon="4.74035">
        <ele>180</ele>
        <time>2018-02-04T09:50:58Z</time>
      </trkpt>
      <trkpt lat="45.89595" lon="4.74036">
        <ele>180</ele>
        <time>2018-02-04T09:50:59Z</time>
      </trkpt>
      <trkpt lat="45.8959" lon="4.74038">
        <ele>180</ele>
        <time>2018-02-04T09:51:00Z</time>
      </trkpt>
      <trkpt lat="45.89586" lon="4.74041">
        <ele>180</ele>
        <time>2018-02-04T09:51:01Z</time>
      </trkpt>
      <trkpt lat="45.89581" lon="4.74042">
        <ele>181</ele>
        <time>2018-02-04T09:51:02Z</time>
      </trkpt>
      <trkpt lat="45.89576" lon="4.74044">
        <ele>181</ele>
        <time>2018-02-04T09:51:03Z</time>
      </trkpt>
      <trkpt lat="45.89571" lon="4.74047">
        <ele>181</ele>
        <time>2018-02-04T09:51:04Z</time>
      </trkpt>
      <trkpt lat="45.89566" lon="4.74049">
        <ele>181</ele>
        <time>2018-02-04T09:51:05Z</time>
      </trkpt>
      <trkpt lat="45.89561" lon="4.74051">
        <ele>181</ele>
        <time>2018-02-04T09:51:06Z</time>
      </trkpt>
      <trkpt lat="45.89555" lon="4.74054">
        <ele>181</ele>
        <time>2018-02-04T09:51:07Z</time>
      </trkpt>
      <trkpt lat="45.89551" lon="4.74056">
        <ele>181</ele>
        <time>2018-02-04T09:51:08Z</time>
      </trkpt>
      <trkpt lat="45.89546" lon="4.74057">
        <ele>181</ele>
        <time>2018-02-04T09:51:09Z</time>
      </trkpt>
      <trkpt lat="45.89541" lon="4.7406">
        <ele>181</ele>
        <time>2018-02-04T09:51:10Z</time>
      </trkpt>
      <trkpt lat="45.89536" lon="4.74062">
        <ele>181</ele>
        <time>2018-02-04T09:51:11Z</time>
      </trkpt>
      <trkpt lat="45.8953" lon="4.74064">
        <ele>181</ele>
        <time>2018-02-04T09:51:12Z</time>
      </trkpt>
      <trkpt lat="45.89525" lon="4.74066">
        <ele>181</ele>
        <time>2018-02-04T09:51:13Z</time>
      </trkpt>
      <trkpt lat="45.89519" lon="4.74068">
        <ele>181</ele>
        <time>2018-02-04T09:51:14Z</time>
      </trkpt>
      <trkpt lat="45.89514" lon="4.74071">
        <ele>181</ele>
        <time>2018-02-04T09:51:15Z</time>
      </trkpt>
      <trkpt lat="45.89508" lon="4.74073">
        <ele>181</ele>
        <time>2018-02-04T09:51:16Z</time>
      </trkpt>
      <trkpt lat="45.89503" lon="4.74075">
        <ele>181</ele>
        <time>2018-02-04T09:51:17Z</time>
      </trkpt>
      <trkpt lat="45.89498" lon="4.74077">
        <ele>181</ele>
        <time>2018-02-04T09:51:18Z</time>
      </trkpt>
      <trkpt lat="45.89493" lon="4.7408">
        <ele>181</ele>
        <time>2018-02-04T09:51:19Z</time>
      </trkpt>
      <trkpt lat="45.89488" lon="4.74081">
        <ele>181</ele>
        <time>2018-02-04T09:51:20Z</time>
      </trkpt>
      <trkpt lat="45.89483" lon="4.74084">
        <ele>182</ele>
        <time>2018-02-04T09:51:21Z</time>
      </trkpt>
      <trkpt lat="45.89477" lon="4.74087">
        <ele>182</ele>
        <time>2018-02-04T09:51:22Z</time>
      </trkpt>
      <trkpt lat="45.89471" lon="4.74089">
        <ele>182</ele>
        <time>2018-02-04T09:51:23Z</time>
      </trkpt>
      <trkpt lat="45.89466" lon="4.74091">
        <ele>182</ele>
        <time>2018-02-04T09:51:24Z</time>
      </trkpt>
      <trkpt lat="45.89461" lon="4.74093">
        <ele>182</ele>
        <time>2018-02-04T09:51:25Z</time>
      </trkpt>
      <trkpt lat="45.89455" lon="4.74095">
        <ele>182</ele>
        <time>2018-02-04T09:51:26Z</time>
      </trkpt>
      <trkpt lat="45.8945" lon="4.74097">
        <ele>182</ele>
        <time>2018-02-04T09:51:27Z</time>
      </trkpt>
      <trkpt lat="45.89444" lon="4.741">
        <ele>182</ele>
        <time>2018-02-04T09:51:28Z</time>
      </trkpt>
      <trkpt lat="45.89439" lon="4.74103">
        <ele>182</ele>
        <time>2018-02-04T09:51:29Z</time>
      </trkpt>
      <trkpt lat="45.89434" lon="4.74106">
        <ele>183</ele>
        <time>2018-02-04T09:51:30Z</time>
      </trkpt>
      <trkpt lat="45.89427" lon="4.74108">
        <ele>183</ele>
        <time>2018-02-04T09:51:31Z</time>
      </trkpt>
      <trkpt lat="45.89421" lon="4.74111">
        <ele>183</ele>
        <time>2018-02-04T09:51:32Z</time>
      </trkpt>
      <trkpt lat="45.89416" lon="4.74113">
        <ele>183</ele>
        <time>2018-02-04T09:51:33Z</time>
      </trkpt>
      <trkpt lat="45.8941" lon="4.74116">
        <ele>183</ele>
        <time>2018-02-04T09:51:34Z</time>
      </trkpt>
      <trkpt lat="45.89405" lon="4.74118">
        <ele>184</ele>
        <time>2018-02-04T09:51:35Z</time>
      </trkpt>
      <trkpt lat="45.89399" lon="4.74122">
        <ele>184</ele>
        <time>2018-02-04T09:51:36Z</time>
      </trkpt>
      <trkpt lat="45.89394" lon="4.74124">
        <ele>184</ele>
        <time>2018-02-04T09:51:37Z</time>
      </trkpt>
      <trkpt lat="45.89388" lon="4.74126">
        <ele>184</ele>
        <time>2018-02-04T09:51:38Z</time>
      </trkpt>
      <trkpt lat="45.89383" lon="4.74128">
        <ele>184</ele>
        <time>2018-02-04T09:51:39Z</time>
      </trkpt>
      <trkpt lat="45.89378" lon="4.74131">
        <ele>184</ele>
        <time>2018-02-04T09:51:40Z</time>
      </trkpt>
      <trkpt lat="45.89372" lon="4.74133">
        <ele>184</ele>
        <time>2018-02-04T09:51:41Z</time>
      </trkpt>
      <trkpt lat="45.89366" lon="4.74135">
        <ele>184</ele>
        <time>2018-02-04T09:51:42Z</time>
      </trkpt>
      <trkpt lat="45.89361" lon="4.74137">
        <ele>184</ele>
        <time>2018-02-04T09:51:43Z</time>
      </trkpt>
      <trkpt lat="45.89355" lon="4.7414">
        <ele>184</ele>
        <time>2018-02-04T09:51:44Z</time>
      </trkpt>
      <trkpt lat="45.8935" lon="4.74142">
        <ele>185</ele>
        <time>2018-02-04T09:51:45Z</time>
      </trkpt>
      <trkpt lat="45.89345" lon="4.74144">
        <ele>185</ele>
        <time>2018-02-04T09:51:46Z</time>
      </trkpt>
      <trkpt lat="45.8934" lon="4.74146">
        <ele>185</ele>
        <time>2018-02-04T09:51:47Z</time>
      </trkpt>
      <trkpt lat="45.89334" lon="4.74147">
        <ele>185</ele>
        <time>2018-02-04T09:51:48Z</time>
      </trkpt>
      <trkpt lat="45.89329" lon="4.74149">
        <ele>185</ele>
        <time>2018-02-04T09:51:49Z</time>
      </trkpt>
      <trkpt lat="45.89324" lon="4.74153">
        <ele>185</ele>
        <time>2018-02-04T09:51:50Z</time>
      </trkpt>
      <trkpt lat="45.89319" lon="4.74154">
        <ele>185</ele>
        <time>2018-02-04T09:51:51Z</time>
      </trkpt>
      <trkpt lat="45.89314" lon="4.74155">
        <ele>185</ele>
        <time>2018-02-04T09:51:52Z</time>
      </trkpt>
      <trkpt lat="45.89309" lon="4.74157">
        <ele>185</ele>
        <time>2018-02-04T09:51:53Z</time>
      </trkpt>
      <trkpt lat="45.89304" lon="4.7416">
        <ele>185</ele>
        <time>2018-02-04T09:51:54Z</time>
      </trkpt>
      <trkpt lat="45.893" lon="4.74163">
        <ele>185</ele>
        <time>2018-02-04T09:51:55Z</time>
      </trkpt>
      <trkpt lat="45.89294" lon="4.74165">
        <ele>185</ele>
        <time>2018-02-04T09:51:56Z</time>
      </trkpt>
      <trkpt lat="45.89288" lon="4.74168">
        <ele>186</ele>
        <time>2018-02-04T09:51:57Z</time>
      </trkpt>
      <trkpt lat="45.89283" lon="4.7417">
        <ele>186</ele>
        <time>2018-02-04T09:51:58Z</time>
      </trkpt>
      <trkpt lat="45.89278" lon="4.74173">
        <ele>186</ele>
        <time>2018-02-04T09:51:59Z</time>
      </trkpt>
      <trkpt lat="45.89273" lon="4.74176">
        <ele>186</ele>
        <time>2018-02-04T09:52:00Z</time>
      </trkpt>
      <trkpt lat="45.89267" lon="4.74178">
        <ele>186</ele>
        <time>2018-02-04T09:52:01Z</time>
      </trkpt>
      <trkpt lat="45.89261" lon="4.7418">
        <ele>186</ele>
        <time>2018-02-04T09:52:02Z</time>
      </trkpt>
      <trkpt lat="45.89255" lon="4.74182">
        <ele>186</ele>
        <time>2018-02-04T09:52:03Z</time>
      </trkpt>
      <trkpt lat="45.8925" lon="4.74184">
        <ele>186</ele>
        <time>2018-02-04T09:52:04Z</time>
      </trkpt>
      <trkpt lat="45.89244" lon="4.74187">
        <ele>186</ele>
        <time>2018-02-04T09:52:05Z</time>
      </trkpt>
      <trkpt lat="45.89238" lon="4.7419">
        <ele>186</ele>
        <time>2018-02-04T09:52:06Z</time>
      </trkpt>
      <trkpt lat="45.89233" lon="4.74191">
        <ele>186</ele>
        <time>2018-02-04T09:52:07Z</time>
      </trkpt>
      <trkpt lat="45.89228" lon="4.74193">
        <ele>186</ele>
        <time>2018-02-04T09:52:08Z</time>
      </trkpt>
      <trkpt lat="45.89222" lon="4.74195">
        <ele>186</ele>
        <time>2018-02-04T09:52:09Z</time>
      </trkpt>
      <trkpt lat="45.89218" lon="4.74196">
        <ele>186</ele>
        <time>2018-02-04T09:52:10Z</time>
      </trkpt>
      <trkpt lat="45.89213" lon="4.74198">
        <ele>186</ele>
        <time>2018-02-04T09:52:11Z</time>
      </trkpt>
      <trkpt lat="45.89208" lon="4.742">
        <ele>186</ele>
        <time>2018-02-04T09:52:12Z</time>
      </trkpt>
      <trkpt lat="45.89204" lon="4.74202">
        <ele>186</ele>
        <time>2018-02-04T09:52:13Z</time>
      </trkpt>
      <trkpt lat="45.89198" lon="4.74203">
        <ele>186</ele>
        <time>2018-02-04T09:52:14Z</time>
      </trkpt>
      <trkpt lat="45.89193" lon="4.74207">
        <ele>186</ele>
        <time>2018-02-04T09:52:15Z</time>
      </trkpt>
      <trkpt lat="45.89187" lon="4.74211">
        <ele>186</ele>
        <time>2018-02-04T09:52:16Z</time>
      </trkpt>
      <trkpt lat="45.89181" lon="4.74213">
        <ele>186</ele>
        <time>2018-02-04T09:52:17Z</time>
      </trkpt>
      <trkpt lat="45.89176" lon="4.74215">
        <ele>186</ele>
        <time>2018-02-04T09:52:18Z</time>
      </trkpt>
      <trkpt lat="45.89171" lon="4.74217">
        <ele>186</ele>
        <time>2018-02-04T09:52:19Z</time>
      </trkpt>
      <trkpt lat="45.89165" lon="4.74219">
        <ele>186</ele>
        <time>2018-02-04T09:52:20Z</time>
      </trkpt>
      <trkpt lat="45.8916" lon="4.74223">
        <ele>186</ele>
        <time>2018-02-04T09:52:21Z</time>
      </trkpt>
      <trkpt lat="45.89156" lon="4.74224">
        <ele>186</ele>
        <time>2018-02-04T09:52:22Z</time>
      </trkpt>
      <trkpt lat="45.89151" lon="4.74226">
        <ele>186</ele>
        <time>2018-02-04T09:52:23Z</time>
      </trkpt>
      <trkpt lat="45.89146" lon="4.74228">
        <ele>186</ele>
        <time>2018-02-04T09:52:24Z</time>
      </trkpt>
      <trkpt lat="45.8914" lon="4.74231">
        <ele>186</ele>
        <time>2018-02-04T09:52:25Z</time>
      </trkpt>
      <trkpt lat="45.89135" lon="4.74234">
        <ele>186</ele>
        <time>2018-02-04T09:52:26Z</time>
      </trkpt>
      <trkpt lat="45.8913" lon="4.74236">
        <ele>186</ele>
        <time>2018-02-04T09:52:27Z</time>
      </trkpt>
      <trkpt lat="45.89126" lon="4.74237">
        <ele>186</ele>
        <time>2018-02-04T09:52:28Z</time>
      </trkpt>
      <trkpt lat="45.8912" lon="4.74239">
        <ele>186</ele>
        <time>2018-02-04T09:52:29Z</time>
      </trkpt>
      <trkpt lat="45.89114" lon="4.74241">
        <ele>186</ele>
        <time>2018-02-04T09:52:30Z</time>
      </trkpt>
      <trkpt lat="45.89109" lon="4.74242">
        <ele>186</ele>
        <time>2018-02-04T09:52:31Z</time>
      </trkpt>
      <trkpt lat="45.89104" lon="4.74243">
        <ele>186</ele>
        <time>2018-02-04T09:52:32Z</time>
      </trkpt>
      <trkpt lat="45.89099" lon="4.74246">
        <ele>186</ele>
        <time>2018-02-04T09:52:33Z</time>
      </trkpt>
      <trkpt lat="45.89093" lon="4.74248">
        <ele>186</ele>
        <time>2018-02-04T09:52:34Z</time>
      </trkpt>
      <trkpt lat="45.89089" lon="4.74249">
        <ele>186</ele>
        <time>2018-02-04T09:52:35Z</time>
      </trkpt>
      <trkpt lat="45.89082" lon="4.74251">
        <ele>186</ele>
        <time>2018-02-04T09:52:36Z</time>
      </trkpt>
      <trkpt lat="45.89076" lon="4.74252">
        <ele>186</ele>
        <time>2018-02-04T09:52:37Z</time>
      </trkpt>
      <trkpt lat="45.89071" lon="4.74255">
        <ele>186</ele>
        <time>2018-02-04T09:52:38Z</time>
      </trkpt>
      <trkpt lat="45.89064" lon="4.74259">
        <ele>186</ele>
        <time>2018-02-04T09:52:39Z</time>
      </trkpt>
      <trkpt lat="45.89059" lon="4.74262">
        <ele>187</ele>
        <time>2018-02-04T09:52:40Z</time>
      </trkpt>
      <trkpt lat="45.89053" lon="4.74265">
        <ele>187</ele>
        <time>2018-02-04T09:52:41Z</time>
      </trkpt>
      <trkpt lat="45.89047" lon="4.74267">
        <ele>187</ele>
        <time>2018-02-04T09:52:42Z</time>
      </trkpt>
      <trkpt lat="45.89041" lon="4.7427">
        <ele>187</ele>
        <time>2018-02-04T09:52:43Z</time>
      </trkpt>
      <trkpt lat="45.89036" lon="4.74271">
        <ele>187</ele>
        <time>2018-02-04T09:52:44Z</time>
      </trkpt>
      <trkpt lat="45.8903" lon="4.74274">
        <ele>187</ele>
        <time>2018-02-04T09:52:45Z</time>
      </trkpt>
      <trkpt lat="45.89025" lon="4.74276">
        <ele>187</ele>
        <time>2018-02-04T09:52:46Z</time>
      </trkpt>
      <trkpt lat="45.89019" lon="4.74278">
        <ele>187</ele>
        <time>2018-02-04T09:52:47Z</time>
      </trkpt>
      <trkpt lat="45.89014" lon="4.74279">
        <ele>187</ele>
        <time>2018-02-04T09:52:48Z</time>
      </trkpt>
      <trkpt lat="45.89008" lon="4.74281">
        <ele>187</ele>
        <time>2018-02-04T09:52:49Z</time>
      </trkpt>
      <trkpt lat="45.89001" lon="4.74283">
        <ele>187</ele>
        <time>2018-02-04T09:52:50Z</time>
      </trkpt>
      <trkpt lat="45.88995" lon="4.74284">
        <ele>187</ele>
        <time>2018-02-04T09:52:51Z</time>
      </trkpt>
      <trkpt lat="45.8899" lon="4.74284">
        <ele>187</ele>
        <time>2018-02-04T09:52:52Z</time>
      </trkpt>
      <trkpt lat="45.88984" lon="4.74284">
        <ele>187</ele>
        <time>2018-02-04T09:52:53Z</time>
      </trkpt>
      <trkpt lat="45.88976" lon="4.74287">
        <ele>187</ele>
        <time>2018-02-04T09:52:55Z</time>
      </trkpt>
      <trkpt lat="45.88971" lon="4.74287">
        <ele>187</ele>
        <time>2018-02-04T09:52:56Z</time>
      </trkpt>
      <trkpt lat="45.88962" lon="4.74287">
        <ele>187</ele>
        <time>2018-02-04T09:52:58Z</time>
      </trkpt>
      <trkpt lat="45.88957" lon="4.74285">
        <ele>187</ele>
        <time>2018-02-04T09:52:59Z</time>
      </trkpt>
      <trkpt lat="45.8895" lon="4.74283">
        <ele>187</ele>
        <time>2018-02-04T09:53:01Z</time>
      </trkpt>
      <trkpt lat="45.88947" lon="4.74281">
        <ele>187</ele>
        <time>2018-02-04T09:53:02Z</time>
      </trkpt>
      <trkpt lat="45.8894" lon="4.7428">
        <ele>187</ele>
        <time>2018-02-04T09:53:04Z</time>
      </trkpt>
      <trkpt lat="45.88935" lon="4.74279">
        <ele>187</ele>
        <time>2018-02-04T09:53:05Z</time>
      </trkpt>
      <trkpt lat="45.88929" lon="4.74273">
        <ele>187</ele>
        <time>2018-02-04T09:53:07Z</time>
      </trkpt>
      <trkpt lat="45.88927" lon="4.7427">
        <ele>187</ele>
        <time>2018-02-04T09:53:08Z</time>
      </trkpt>
      <trkpt lat="45.88923" lon="4.74265">
        <ele>187</ele>
        <time>2018-02-04T09:53:10Z</time>
      </trkpt>
      <trkpt lat="45.88918" lon="4.74263">
        <ele>187</ele>
        <time>2018-02-04T09:53:11Z</time>
      </trkpt>
      <trkpt lat="45.88911" lon="4.74262">
        <ele>187</ele>
        <time>2018-02-04T09:53:12Z</time>
      </trkpt>
      <trkpt lat="45.88908" lon="4.74258">
        <ele>187</ele>
        <time>2018-02-04T09:53:13Z</time>
      </trkpt>
      <trkpt lat="45.88904" lon="4.74253">
        <ele>187</ele>
        <time>2018-02-04T09:53:14Z</time>
      </trkpt>
      <trkpt lat="45.889" lon="4.74249">
        <ele>187</ele>
        <time>2018-02-04T09:53:15Z</time>
      </trkpt>
      <trkpt lat="45.88895" lon="4.74248">
        <ele>187</ele>
        <time>2018-02-04T09:53:16Z</time>
      </trkpt>
      <trkpt lat="45.88891" lon="4.74245">
        <ele>187</ele>
        <time>2018-02-04T09:53:17Z</time>
      </trkpt>
      <trkpt lat="45.88886" lon="4.74242">
        <ele>187</ele>
        <time>2018-02-04T09:53:18Z</time>
      </trkpt>
      <trkpt lat="45.88881" lon="4.74238">
        <ele>187</ele>
        <time>2018-02-04T09:53:19Z</time>
      </trkpt>
      <trkpt lat="45.88876" lon="4.74235">
        <ele>187</ele>
        <time>2018-02-04T09:53:20Z</time>
      </trkpt>
      <trkpt lat="45.88872" lon="4.74231">
        <ele>187</ele>
        <time>2018-02-04T09:53:21Z</time>
      </trkpt>
      <trkpt lat="45.88866" lon="4.7423">
        <ele>187</ele>
        <time>2018-02-04T09:53:22Z</time>
      </trkpt>
      <trkpt lat="45.88861" lon="4.74227">
        <ele>187</ele>
        <time>2018-02-04T09:53:23Z</time>
      </trkpt>
      <trkpt lat="45.88856" lon="4.74223">
        <ele>187</ele>
        <time>2018-02-04T09:53:24Z</time>
      </trkpt>
      <trkpt lat="45.88851" lon="4.7422">
        <ele>187</ele>
        <time>2018-02-04T09:53:25Z</time>
      </trkpt>
      <trkpt lat="45.88847" lon="4.74217">
        <ele>187</ele>
        <time>2018-02-04T09:53:26Z</time>
      </trkpt>
      <trkpt lat="45.88842" lon="4.74214">
        <ele>187</ele>
        <time>2018-02-04T09:53:27Z</time>
      </trkpt>
      <trkpt lat="45.88837" lon="4.7421">
        <ele>187</ele>
        <time>2018-02-04T09:53:28Z</time>
      </trkpt>
      <trkpt lat="45.88832" lon="4.74207">
        <ele>187</ele>
        <time>2018-02-04T09:53:29Z</time>
      </trkpt>
      <trkpt lat="45.88828" lon="4.74203">
        <ele>187</ele>
        <time>2018-02-04T09:53:30Z</time>
      </trkpt>
      <trkpt lat="45.88823" lon="4.742">
        <ele>187</ele>
        <time>2018-02-04T09:53:31Z</time>
      </trkpt>
      <trkpt lat="45.88817" lon="4.74197">
        <ele>187</ele>
        <time>2018-02-04T09:53:32Z</time>
      </trkpt>
      <trkpt lat="45.88812" lon="4.74194">
        <ele>187</ele>
        <time>2018-02-04T09:53:33Z</time>
      </trkpt>
      <trkpt lat="45.88807" lon="4.74192">
        <ele>187</ele>
        <time>2018-02-04T09:53:34Z</time>
      </trkpt>
      <trkpt lat="45.88801" lon="4.7419">
        <ele>187</ele>
        <time>2018-02-04T09:53:35Z</time>
      </trkpt>
      <trkpt lat="45.88796" lon="4.74188">
        <ele>188</ele>
        <time>2018-02-04T09:53:36Z</time>
      </trkpt>
      <trkpt lat="45.88791" lon="4.74186">
        <ele>188</ele>
        <time>2018-02-04T09:53:37Z</time>
      </trkpt>
      <trkpt lat="45.88786" lon="4.74183">
        <ele>188</ele>
        <time>2018-02-04T09:53:38Z</time>
      </trkpt>
      <trkpt lat="45.88781" lon="4.74181">
        <ele>188</ele>
        <time>2018-02-04T09:53:39Z</time>
      </trkpt>
      <trkpt lat="45.88775" lon="4.7418">
        <ele>188</ele>
        <time>2018-02-04T09:53:40Z</time>
      </trkpt>
      <trkpt lat="45.8877" lon="4.74177">
        <ele>188</ele>
        <time>2018-02-04T09:53:41Z</time>
      </trkpt>
      <trkpt lat="45.88762" lon="4.74172">
        <ele>188</ele>
        <time>2018-02-04T09:53:43Z</time>
      </trkpt>
      <trkpt lat="45.88757" lon="4.74168">
        <ele>188</ele>
        <time>2018-02-04T09:53:44Z</time>
      </trkpt>
      <trkpt lat="45.88753" lon="4.74164">
        <ele>188</ele>
        <time>2018-02-04T09:53:45Z</time>
      </trkpt>
      <trkpt lat="45.88749" lon="4.74162">
        <ele>188</ele>
        <time>2018-02-04T09:53:46Z</time>
      </trkpt>
      <trkpt lat="45.88744" lon="4.7416">
        <ele>188</ele>
        <time>2018-02-04T09:53:47Z</time>
      </trkpt>
      <trkpt lat="45.88741" lon="4.74157">
        <ele>188</ele>
        <time>2018-02-04T09:53:48Z</time>
      </trkpt>
      <trkpt lat="45.88737" lon="4.74153">
        <ele>188</ele>
        <time>2018-02-04T09:53:49Z</time>
      </trkpt>
      <trkpt lat="45.88733" lon="4.74149">
        <ele>188</ele>
        <time>2018-02-04T09:53:50Z</time>
      </trkpt>
      <trkpt lat="45.88729" lon="4.74146">
        <ele>188</ele>
        <time>2018-02-04T09:53:51Z</time>
      </trkpt>
      <trkpt lat="45.88724" lon="4.74141">
        <ele>188</ele>
        <time>2018-02-04T09:53:52Z</time>
      </trkpt>
      <trkpt lat="45.88721" lon="4.74137">
        <ele>188</ele>
        <time>2018-02-04T09:53:53Z</time>
      </trkpt>
      <trkpt lat="45.88717" lon="4.74132">
        <ele>188</ele>
        <time>2018-02-04T09:53:54Z</time>
      </trkpt>
      <trkpt lat="45.88711" lon="4.74124">
        <ele>188</ele>
        <time>2018-02-04T09:53:56Z</time>
      </trkpt>
      <trkpt lat="45.88707" lon="4.74117">
        <ele>188</ele>
        <time>2018-02-04T09:53:57Z</time>
      </trkpt>
      <trkpt lat="45.88699" lon="4.74114">
        <ele>188</ele>
        <time>2018-02-04T09:53:59Z</time>
      </trkpt>
      <trkpt lat="45.88694" lon="4.74114">
        <ele>188</ele>
        <time>2018-02-04T09:54:00Z</time>
      </trkpt>
      <trkpt lat="45.88689" lon="4.74115">
        <ele>188</ele>
        <time>2018-02-04T09:54:01Z</time>
      </trkpt>
      <trkpt lat="45.88685" lon="4.74115">
        <ele>188</ele>
        <time>2018-02-04T09:54:02Z</time>
      </trkpt>
      <trkpt lat="45.88677" lon="4.74111">
        <ele>188</ele>
        <time>2018-02-04T09:54:04Z</time>
      </trkpt>
      <trkpt lat="45.88675" lon="4.74106">
        <ele>188</ele>
        <time>2018-02-04T09:54:05Z</time>
      </trkpt>
      <trkpt lat="45.88671" lon="4.74095">
        <ele>188</ele>
        <time>2018-02-04T09:54:07Z</time>
      </trkpt>
      <trkpt lat="45.88668" lon="4.7409">
        <ele>188</ele>
        <time>2018-02-04T09:54:08Z</time>
      </trkpt>
      <trkpt lat="45.88667" lon="4.74084">
        <ele>188</ele>
        <time>2018-02-04T09:54:09Z</time>
      </trkpt>
      <trkpt lat="45.88665" lon="4.74077">
        <ele>188</ele>
        <time>2018-02-04T09:54:10Z</time>
      </trkpt>
      <trkpt lat="45.88662" lon="4.7407">
        <ele>188</ele>
        <time>2018-02-04T09:54:11Z</time>
      </trkpt>
      <trkpt lat="45.88661" lon="4.74063">
        <ele>188</ele>
        <time>2018-02-04T09:54:12Z</time>
      </trkpt>
      <trkpt lat="45.88659" lon="4.74055">
        <ele>187</ele>
        <time>2018-02-04T09:54:13Z</time>
      </trkpt>
      <trkpt lat="45.88657" lon="4.74047">
        <ele>187</ele>
        <time>2018-02-04T09:54:14Z</time>
      </trkpt>
      <trkpt lat="45.88655" lon="4.7404">
        <ele>187</ele>
        <time>2018-02-04T09:54:15Z</time>
      </trkpt>
      <trkpt lat="45.88654" lon="4.74032">
        <ele>187</ele>
        <time>2018-02-04T09:54:16Z</time>
      </trkpt>
      <trkpt lat="45.88652" lon="4.74025">
        <ele>187</ele>
        <time>2018-02-04T09:54:17Z</time>
      </trkpt>
      <trkpt lat="45.88652" lon="4.74017">
        <ele>187</ele>
        <time>2018-02-04T09:54:18Z</time>
      </trkpt>
      <trkpt lat="45.88651" lon="4.74009">
        <ele>187</ele>
        <time>2018-02-04T09:54:19Z</time>
      </trkpt>
      <trkpt lat="45.8865" lon="4.74001">
        <ele>187</ele>
        <time>2018-02-04T09:54:20Z</time>
      </trkpt>
      <trkpt lat="45.88649" lon="4.73994">
        <ele>186</ele>
        <time>2018-02-04T09:54:21Z</time>
      </trkpt>
      <trkpt lat="45.88649" lon="4.73987">
        <ele>187</ele>
        <time>2018-02-04T09:54:22Z</time>
      </trkpt>
      <trkpt lat="45.88648" lon="4.73979">
        <ele>187</ele>
        <time>2018-02-04T09:54:23Z</time>
      </trkpt>
      <trkpt lat="45.88647" lon="4.73971">
        <ele>187</ele>
        <time>2018-02-04T09:54:24Z</time>
      </trkpt>
      <trkpt lat="45.88647" lon="4.73963">
        <ele>187</ele>
        <time>2018-02-04T09:54:25Z</time>
      </trkpt>
      <trkpt lat="45.88646" lon="4.73955">
        <ele>187</ele>
        <time>2018-02-04T09:54:26Z</time>
      </trkpt>
      <trkpt lat="45.88646" lon="4.73947">
        <ele>187</ele>
        <time>2018-02-04T09:54:27Z</time>
      </trkpt>
      <trkpt lat="45.88645" lon="4.73938">
        <ele>187</ele>
        <time>2018-02-04T09:54:28Z</time>
      </trkpt>
      <trkpt lat="45.88644" lon="4.7393">
        <ele>187</ele>
        <time>2018-02-04T09:54:29Z</time>
      </trkpt>
      <trkpt lat="45.88645" lon="4.73921">
        <ele>187</ele>
        <time>2018-02-04T09:54:30Z</time>
      </trkpt>
      <trkpt lat="45.88645" lon="4.73912">
        <ele>187</ele>
        <time>2018-02-04T09:54:31Z</time>
      </trkpt>
      <trkpt lat="45.88644" lon="4.73903">
        <ele>187</ele>
        <time>2018-02-04T09:54:32Z</time>
      </trkpt>
      <trkpt lat="45.88644" lon="4.73895">
        <ele>187</ele>
        <time>2018-02-04T09:54:33Z</time>
      </trkpt>
      <trkpt lat="45.88644" lon="4.73886">
        <ele>187</ele>
        <time>2018-02-04T09:54:34Z</time>
      </trkpt>
      <trkpt lat="45.88644" lon="4.73879">
        <ele>187</ele>
        <time>2018-02-04T09:54:35Z</time>
      </trkpt>
      <trkpt lat="45.88645" lon="4.73871">
        <ele>187</ele>
        <time>2018-02-04T09:54:36Z</time>
      </trkpt>
      <trkpt lat="45.88645" lon="4.73862">
        <ele>187</ele>
        <time>2018-02-04T09:54:37Z</time>
      </trkpt>
      <trkpt lat="45.88645" lon="4.73854">
        <ele>187</ele>
        <time>2018-02-04T09:54:38Z</time>
      </trkpt>
      <trkpt lat="45.88645" lon="4.73847">
        <ele>187</ele>
        <time>2018-02-04T09:54:39Z</time>
      </trkpt>
      <trkpt lat="45.88645" lon="4.7384">
        <ele>187</ele>
        <time>2018-02-04T09:54:40Z</time>
      </trkpt>
      <trkpt lat="45.88645" lon="4.73833">
        <ele>187</ele>
        <time>2018-02-04T09:54:41Z</time>
      </trkpt>
      <trkpt lat="45.88645" lon="4.73826">
        <ele>187</ele>
        <time>2018-02-04T09:54:42Z</time>
      </trkpt>
      <trkpt lat="45.88645" lon="4.73819">
        <ele>187</ele>
        <time>2018-02-04T09:54:43Z</time>
      </trkpt>
      <trkpt lat="45.88645" lon="4.73811">
        <ele>187</ele>
        <time>2018-02-04T09:54:44Z</time>
      </trkpt>
      <trkpt lat="45.88644" lon="4.73798">
        <ele>187</ele>
        <time>2018-02-04T09:54:46Z</time>
      </trkpt>
      <trkpt lat="45.88645" lon="4.7379">
        <ele>187</ele>
        <time>2018-02-04T09:54:47Z</time>
      </trkpt>
      <trkpt lat="45.88645" lon="4.73777">
        <ele>187</ele>
        <time>2018-02-04T09:54:49Z</time>
      </trkpt>
      <trkpt lat="45.88645" lon="4.7377">
        <ele>187</ele>
        <time>2018-02-04T09:54:50Z</time>
      </trkpt>
      <trkpt lat="45.88644" lon="4.73758">
        <ele>187</ele>
        <time>2018-02-04T09:54:52Z</time>
      </trkpt>
      <trkpt lat="45.88644" lon="4.73752">
        <ele>187</ele>
        <time>2018-02-04T09:54:53Z</time>
      </trkpt>
      <trkpt lat="45.88644" lon="4.7374">
        <ele>187</ele>
        <time>2018-02-04T09:54:55Z</time>
      </trkpt>
      <trkpt lat="45.88645" lon="4.73735">
        <ele>186</ele>
        <time>2018-02-04T09:54:56Z</time>
      </trkpt>
      <trkpt lat="45.88646" lon="4.73728">
        <ele>186</ele>
        <time>2018-02-04T09:54:57Z</time>
      </trkpt>
      <trkpt lat="45.88646" lon="4.73721">
        <ele>186</ele>
        <time>2018-02-04T09:54:58Z</time>
      </trkpt>
      <trkpt lat="45.88646" lon="4.73709">
        <ele>186</ele>
        <time>2018-02-04T09:55:00Z</time>
      </trkpt>
      <trkpt lat="45.88647" lon="4.73702">
        <ele>186</ele>
        <time>2018-02-04T09:55:01Z</time>
      </trkpt>
      <trkpt lat="45.88647" lon="4.73692">
        <ele>186</ele>
        <time>2018-02-04T09:55:03Z</time>
      </trkpt>
      <trkpt lat="45.88647" lon="4.73687">
        <ele>186</ele>
        <time>2018-02-04T09:55:04Z</time>
      </trkpt>
      <trkpt lat="45.88648" lon="4.73674">
        <ele>186</ele>
        <time>2018-02-04T09:55:06Z</time>
      </trkpt>
      <trkpt lat="45.88648" lon="4.73668">
        <ele>186</ele>
        <time>2018-02-04T09:55:07Z</time>
      </trkpt>
      <trkpt lat="45.88648" lon="4.73657">
        <ele>186</ele>
        <time>2018-02-04T09:55:09Z</time>
      </trkpt>
      <trkpt lat="45.88647" lon="4.73651">
        <ele>186</ele>
        <time>2018-02-04T09:55:10Z</time>
      </trkpt>
      <trkpt lat="45.88647" lon="4.73638">
        <ele>186</ele>
        <time>2018-02-04T09:55:12Z</time>
      </trkpt>
      <trkpt lat="45.88648" lon="4.73632">
        <ele>186</ele>
        <time>2018-02-04T09:55:13Z</time>
      </trkpt>
      <trkpt lat="45.88647" lon="4.73624">
        <ele>186</ele>
        <time>2018-02-04T09:55:14Z</time>
      </trkpt>
      <trkpt lat="45.88648" lon="4.73616">
        <ele>186</ele>
        <time>2018-02-04T09:55:15Z</time>
      </trkpt>
      <trkpt lat="45.88649" lon="4.73609">
        <ele>186</ele>
        <time>2018-02-04T09:55:16Z</time>
      </trkpt>
      <trkpt lat="45.88647" lon="4.73601">
        <ele>186</ele>
        <time>2018-02-04T09:55:17Z</time>
      </trkpt>
      <trkpt lat="45.88648" lon="4.73592">
        <ele>185</ele>
        <time>2018-02-04T09:55:18Z</time>
      </trkpt>
      <trkpt lat="45.88647" lon="4.73584">
        <ele>185</ele>
        <time>2018-02-04T09:55:19Z</time>
      </trkpt>
      <trkpt lat="45.88648" lon="4.73574">
        <ele>185</ele>
        <time>2018-02-04T09:55:20Z</time>
      </trkpt>
      <trkpt lat="45.88647" lon="4.73566">
        <ele>185</ele>
        <time>2018-02-04T09:55:21Z</time>
      </trkpt>
      <trkpt lat="45.88646" lon="4.73557">
        <ele>185</ele>
        <time>2018-02-04T09:55:22Z</time>
      </trkpt>
      <trkpt lat="45.88646" lon="4.73549">
        <ele>185</ele>
        <time>2018-02-04T09:55:23Z</time>
      </trkpt>
      <trkpt lat="45.88647" lon="4.73536">
        <ele>185</ele>
        <time>2018-02-04T09:55:24Z</time>
      </trkpt>
      <trkpt lat="45.8865" lon="4.73524">
        <ele>185</ele>
        <time>2018-02-04T09:55:25Z</time>
      </trkpt>
      <trkpt lat="45.88653" lon="4.73514">
        <ele>185</ele>
        <time>2018-02-04T09:55:26Z</time>
      </trkpt>
      <trkpt lat="45.88654" lon="4.73506">
        <ele>184</ele>
        <time>2018-02-04T09:55:27Z</time>
      </trkpt>
      <trkpt lat="45.88656" lon="4.73497">
        <ele>184</ele>
        <time>2018-02-04T09:55:28Z</time>
      </trkpt>
      <trkpt lat="45.88657" lon="4.73488">
        <ele>184</ele>
        <time>2018-02-04T09:55:29Z</time>
      </trkpt>
      <trkpt lat="45.88655" lon="4.73481">
        <ele>184</ele>
        <time>2018-02-04T09:55:30Z</time>
      </trkpt>
      <trkpt lat="45.88651" lon="4.73476">
        <ele>184</ele>
        <time>2018-02-04T09:55:31Z</time>
      </trkpt>
      <trkpt lat="45.88646" lon="4.73473">
        <ele>184</ele>
        <time>2018-02-04T09:55:32Z</time>
      </trkpt>
      <trkpt lat="45.88641" lon="4.73471">
        <ele>184</ele>
        <time>2018-02-04T09:55:33Z</time>
      </trkpt>
      <trkpt lat="45.88636" lon="4.73469">
        <ele>184</ele>
        <time>2018-02-04T09:55:34Z</time>
      </trkpt>
      <trkpt lat="45.88635" lon="4.73462">
        <ele>184</ele>
        <time>2018-02-04T09:55:35Z</time>
      </trkpt>
      <trkpt lat="45.88633" lon="4.73456">
        <ele>184</ele>
        <time>2018-02-04T09:55:36Z</time>
      </trkpt>
      <trkpt lat="45.88632" lon="4.73448">
        <ele>184</ele>
        <time>2018-02-04T09:55:37Z</time>
      </trkpt>
      <trkpt lat="45.88633" lon="4.73441">
        <ele>184</ele>
        <time>2018-02-04T09:55:38Z</time>
      </trkpt>
      <trkpt lat="45.88634" lon="4.73435">
        <ele>184</ele>
        <time>2018-02-04T09:55:39Z</time>
      </trkpt>
      <trkpt lat="45.88634" lon="4.73428">
        <ele>184</ele>
        <time>2018-02-04T09:55:40Z</time>
      </trkpt>
      <trkpt lat="45.88634" lon="4.7342">
        <ele>184</ele>
        <time>2018-02-04T09:55:41Z</time>
      </trkpt>
      <trkpt lat="45.88634" lon="4.73412">
        <ele>183</ele>
        <time>2018-02-04T09:55:42Z</time>
      </trkpt>
      <trkpt lat="45.88633" lon="4.73404">
        <ele>183</ele>
        <time>2018-02-04T09:55:43Z</time>
      </trkpt>
      <trkpt lat="45.88632" lon="4.73393">
        <ele>183</ele>
        <time>2018-02-04T09:55:44Z</time>
      </trkpt>
      <trkpt lat="45.88624" lon="4.73389">
        <ele>183</ele>
        <time>2018-02-04T09:55:45Z</time>
      </trkpt>
      <trkpt lat="45.88618" lon="4.73385">
        <ele>183</ele>
        <time>2018-02-04T09:55:46Z</time>
      </trkpt>
      <trkpt lat="45.88612" lon="4.73385">
        <ele>183</ele>
        <time>2018-02-04T09:55:47Z</time>
      </trkpt>
      <trkpt lat="45.88606" lon="4.73386">
        <ele>183</ele>
        <time>2018-02-04T09:55:48Z</time>
      </trkpt>
      <trkpt lat="45.88601" lon="4.73388">
        <ele>183</ele>
        <time>2018-02-04T09:55:49Z</time>
      </trkpt>
      <trkpt lat="45.88595" lon="4.73389">
        <ele>183</ele>
        <time>2018-02-04T09:55:50Z</time>
      </trkpt>
      <trkpt lat="45.8859" lon="4.73392">
        <ele>183</ele>
        <time>2018-02-04T09:55:51Z</time>
      </trkpt>
      <trkpt lat="45.88585" lon="4.73393">
        <ele>183</ele>
        <time>2018-02-04T09:55:52Z</time>
      </trkpt>
      <trkpt lat="45.88579" lon="4.73394">
        <ele>183</ele>
        <time>2018-02-04T09:55:53Z</time>
      </trkpt>
      <trkpt lat="45.88574" lon="4.73396">
        <ele>183</ele>
        <time>2018-02-04T09:55:54Z</time>
      </trkpt>
      <trkpt lat="45.88569" lon="4.73397">
        <ele>183</ele>
        <time>2018-02-04T09:55:55Z</time>
      </trkpt>
      <trkpt lat="45.88565" lon="4.73399">
        <ele>183</ele>
        <time>2018-02-04T09:55:56Z</time>
      </trkpt>
      <trkpt lat="45.88559" lon="4.734">
        <ele>183</ele>
        <time>2018-02-04T09:55:57Z</time>
      </trkpt>
      <trkpt lat="45.88554" lon="4.73402">
        <ele>183</ele>
        <time>2018-02-04T09:55:58Z</time>
      </trkpt>
      <trkpt lat="45.88548" lon="4.73404">
        <ele>183</ele>
        <time>2018-02-04T09:55:59Z</time>
      </trkpt>
      <trkpt lat="45.88542" lon="4.73406">
        <ele>183</ele>
        <time>2018-02-04T09:56:00Z</time>
      </trkpt>
      <trkpt lat="45.88537" lon="4.73408">
        <ele>183</ele>
        <time>2018-02-04T09:56:01Z</time>
      </trkpt>
      <trkpt lat="45.88531" lon="4.73409">
        <ele>183</ele>
        <time>2018-02-04T09:56:02Z</time>
      </trkpt>
      <trkpt lat="45.88526" lon="4.7341">
        <ele>183</ele>
        <time>2018-02-04T09:56:03Z</time>
      </trkpt>
      <trkpt lat="45.88521" lon="4.73413">
        <ele>184</ele>
        <time>2018-02-04T09:56:04Z</time>
      </trkpt>
      <trkpt lat="45.88516" lon="4.73415">
        <ele>184</ele>
        <time>2018-02-04T09:56:05Z</time>
      </trkpt>
      <trkpt lat="45.8851" lon="4.73416">
        <ele>184</ele>
        <time>2018-02-04T09:56:06Z</time>
      </trkpt>
      <trkpt lat="45.88505" lon="4.73417">
        <ele>184</ele>
        <time>2018-02-04T09:56:07Z</time>
      </trkpt>
      <trkpt lat="45.88499" lon="4.73419">
        <ele>184</ele>
        <time>2018-02-04T09:56:08Z</time>
      </trkpt>
      <trkpt lat="45.88493" lon="4.7342">
        <ele>184</ele>
        <time>2018-02-04T09:56:09Z</time>
      </trkpt>
      <trkpt lat="45.88487" lon="4.73422">
        <ele>184</ele>
        <time>2018-02-04T09:56:10Z</time>
      </trkpt>
      <trkpt lat="45.88482" lon="4.73423">
        <ele>184</ele>
        <time>2018-02-04T09:56:11Z</time>
      </trkpt>
      <trkpt lat="45.88477" lon="4.73426">
        <ele>184</ele>
        <time>2018-02-04T09:56:12Z</time>
      </trkpt>
      <trkpt lat="45.88471" lon="4.73428">
        <ele>184</ele>
        <time>2018-02-04T09:56:13Z</time>
      </trkpt>
      <trkpt lat="45.88466" lon="4.73429">
        <ele>184</ele>
        <time>2018-02-04T09:56:14Z</time>
      </trkpt>
      <trkpt lat="45.88461" lon="4.73431">
        <ele>184</ele>
        <time>2018-02-04T09:56:15Z</time>
      </trkpt>
      <trkpt lat="45.88456" lon="4.73433">
        <ele>184</ele>
        <time>2018-02-04T09:56:16Z</time>
      </trkpt>
      <trkpt lat="45.88451" lon="4.73434">
        <ele>184</ele>
        <time>2018-02-04T09:56:17Z</time>
      </trkpt>
      <trkpt lat="45.88447" lon="4.73436">
        <ele>184</ele>
        <time>2018-02-04T09:56:18Z</time>
      </trkpt>
      <trkpt lat="45.88442" lon="4.73437">
        <ele>184</ele>
        <time>2018-02-04T09:56:19Z</time>
      </trkpt>
      <trkpt lat="45.88438" lon="4.73439">
        <ele>184</ele>
        <time>2018-02-04T09:56:20Z</time>
      </trkpt>
      <trkpt lat="45.88433" lon="4.7344">
        <ele>184</ele>
        <time>2018-02-04T09:56:21Z</time>
      </trkpt>
      <trkpt lat="45.88427" lon="4.73442">
        <ele>184</ele>
        <time>2018-02-04T09:56:22Z</time>
      </trkpt>
      <trkpt lat="45.88422" lon="4.73443">
        <ele>184</ele>
        <time>2018-02-04T09:56:23Z</time>
      </trkpt>
      <trkpt lat="45.88417" lon="4.73444">
        <ele>184</ele>
        <time>2018-02-04T09:56:24Z</time>
      </trkpt>
      <trkpt lat="45.88408" lon="4.73446">
        <ele>184</ele>
        <time>2018-02-04T09:56:26Z</time>
      </trkpt>
      <trkpt lat="45.88403" lon="4.73447">
        <ele>184</ele>
        <time>2018-02-04T09:56:27Z</time>
      </trkpt>
      <trkpt lat="45.88397" lon="4.73448">
        <ele>184</ele>
        <time>2018-02-04T09:56:28Z</time>
      </trkpt>
      <trkpt lat="45.88392" lon="4.73449">
        <ele>184</ele>
        <time>2018-02-04T09:56:29Z</time>
      </trkpt>
      <trkpt lat="45.88387" lon="4.73449">
        <ele>184</ele>
        <time>2018-02-04T09:56:30Z</time>
      </trkpt>
      <trkpt lat="45.88381" lon="4.73451">
        <ele>184</ele>
        <time>2018-02-04T09:56:31Z</time>
      </trkpt>
      <trkpt lat="45.88376" lon="4.73454">
        <ele>184</ele>
        <time>2018-02-04T09:56:32Z</time>
      </trkpt>
      <trkpt lat="45.8837" lon="4.73456">
        <ele>184</ele>
        <time>2018-02-04T09:56:33Z</time>
      </trkpt>
      <trkpt lat="45.88365" lon="4.73457">
        <ele>184</ele>
        <time>2018-02-04T09:56:34Z</time>
      </trkpt>
      <trkpt lat="45.88359" lon="4.7346">
        <ele>184</ele>
        <time>2018-02-04T09:56:35Z</time>
      </trkpt>
      <trkpt lat="45.88354" lon="4.73462">
        <ele>184</ele>
        <time>2018-02-04T09:56:36Z</time>
      </trkpt>
      <trkpt lat="45.88349" lon="4.73463">
        <ele>184</ele>
        <time>2018-02-04T09:56:37Z</time>
      </trkpt>
      <trkpt lat="45.88344" lon="4.73464">
        <ele>184</ele>
        <time>2018-02-04T09:56:38Z</time>
      </trkpt>
      <trkpt lat="45.88339" lon="4.73465">
        <ele>184</ele>
        <time>2018-02-04T09:56:39Z</time>
      </trkpt>
      <trkpt lat="45.88334" lon="4.73466">
        <ele>184</ele>
        <time>2018-02-04T09:56:40Z</time>
      </trkpt>
      <trkpt lat="45.8833" lon="4.73467">
        <ele>184</ele>
        <time>2018-02-04T09:56:41Z</time>
      </trkpt>
      <trkpt lat="45.88324" lon="4.7347">
        <ele>184</ele>
        <time>2018-02-04T09:56:42Z</time>
      </trkpt>
      <trkpt lat="45.8832" lon="4.73473">
        <ele>184</ele>
        <time>2018-02-04T09:56:43Z</time>
      </trkpt>
      <trkpt lat="45.88314" lon="4.73474">
        <ele>184</ele>
        <time>2018-02-04T09:56:44Z</time>
      </trkpt>
      <trkpt lat="45.8831" lon="4.73476">
        <ele>184</ele>
        <time>2018-02-04T09:56:45Z</time>
      </trkpt>
      <trkpt lat="45.88305" lon="4.73477">
        <ele>184</ele>
        <time>2018-02-04T09:56:46Z</time>
      </trkpt>
      <trkpt lat="45.883" lon="4.73477">
        <ele>184</ele>
        <time>2018-02-04T09:56:47Z</time>
      </trkpt>
      <trkpt lat="45.88295" lon="4.73479">
        <ele>184</ele>
        <time>2018-02-04T09:56:48Z</time>
      </trkpt>
      <trkpt lat="45.88291" lon="4.73482">
        <ele>184</ele>
        <time>2018-02-04T09:56:49Z</time>
      </trkpt>
      <trkpt lat="45.88286" lon="4.73485">
        <ele>184</ele>
        <time>2018-02-04T09:56:50Z</time>
      </trkpt>
      <trkpt lat="45.88282" lon="4.73487">
        <ele>184</ele>
        <time>2018-02-04T09:56:51Z</time>
      </trkpt>
      <trkpt lat="45.88277" lon="4.73491">
        <ele>184</ele>
        <time>2018-02-04T09:56:52Z</time>
      </trkpt>
      <trkpt lat="45.88272" lon="4.73494">
        <ele>184</ele>
        <time>2018-02-04T09:56:53Z</time>
      </trkpt>
      <trkpt lat="45.88267" lon="4.73497">
        <ele>184</ele>
        <time>2018-02-04T09:56:54Z</time>
      </trkpt>
      <trkpt lat="45.88263" lon="4.735">
        <ele>185</ele>
        <time>2018-02-04T09:56:55Z</time>
      </trkpt>
      <trkpt lat="45.88258" lon="4.73502">
        <ele>185</ele>
        <time>2018-02-04T09:56:56Z</time>
      </trkpt>
      <trkpt lat="45.88254" lon="4.73506">
        <ele>185</ele>
        <time>2018-02-04T09:56:57Z</time>
      </trkpt>
      <trkpt lat="45.88249" lon="4.7351">
        <ele>185</ele>
        <time>2018-02-04T09:56:58Z</time>
      </trkpt>
      <trkpt lat="45.88244" lon="4.73513">
        <ele>185</ele>
        <time>2018-02-04T09:56:59Z</time>
      </trkpt>
      <trkpt lat="45.88239" lon="4.73517">
        <ele>185</ele>
        <time>2018-02-04T09:57:00Z</time>
      </trkpt>
      <trkpt lat="45.88234" lon="4.7352">
        <ele>185</ele>
        <time>2018-02-04T09:57:01Z</time>
      </trkpt>
      <trkpt lat="45.8823" lon="4.73523">
        <ele>185</ele>
        <time>2018-02-04T09:57:02Z</time>
      </trkpt>
      <trkpt lat="45.88225" lon="4.73525">
        <ele>185</ele>
        <time>2018-02-04T09:57:03Z</time>
      </trkpt>
      <trkpt lat="45.8822" lon="4.73529">
        <ele>185</ele>
        <time>2018-02-04T09:57:04Z</time>
      </trkpt>
      <trkpt lat="45.88215" lon="4.73531">
        <ele>185</ele>
        <time>2018-02-04T09:57:05Z</time>
      </trkpt>
      <trkpt lat="45.8821" lon="4.73534">
        <ele>185</ele>
        <time>2018-02-04T09:57:06Z</time>
      </trkpt>
      <trkpt lat="45.88206" lon="4.73537">
        <ele>186</ele>
        <time>2018-02-04T09:57:07Z</time>
      </trkpt>
      <trkpt lat="45.88201" lon="4.73541">
        <ele>186</ele>
        <time>2018-02-04T09:57:08Z</time>
      </trkpt>
      <trkpt lat="45.88197" lon="4.73545">
        <ele>186</ele>
        <time>2018-02-04T09:57:09Z</time>
      </trkpt>
      <trkpt lat="45.88193" lon="4.73548">
        <ele>186</ele>
        <time>2018-02-04T09:57:10Z</time>
      </trkpt>
      <trkpt lat="45.88188" lon="4.73551">
        <ele>186</ele>
        <time>2018-02-04T09:57:11Z</time>
      </trkpt>
      <trkpt lat="45.88184" lon="4.73554">
        <ele>186</ele>
        <time>2018-02-04T09:57:12Z</time>
      </trkpt>
      <trkpt lat="45.88179" lon="4.73557">
        <ele>186</ele>
        <time>2018-02-04T09:57:13Z</time>
      </trkpt>
      <trkpt lat="45.88175" lon="4.7356">
        <ele>186</ele>
        <time>2018-02-04T09:57:14Z</time>
      </trkpt>
      <trkpt lat="45.8817" lon="4.73564">
        <ele>186</ele>
        <time>2018-02-04T09:57:15Z</time>
      </trkpt>
      <trkpt lat="45.88165" lon="4.73566">
        <ele>186</ele>
        <time>2018-02-04T09:57:16Z</time>
      </trkpt>
      <trkpt lat="45.8816" lon="4.7357">
        <ele>186</ele>
        <time>2018-02-04T09:57:17Z</time>
      </trkpt>
      <trkpt lat="45.88154" lon="4.73572">
        <ele>186</ele>
        <time>2018-02-04T09:57:18Z</time>
      </trkpt>
      <trkpt lat="45.88151" lon="4.73576">
        <ele>186</ele>
        <time>2018-02-04T09:57:19Z</time>
      </trkpt>
      <trkpt lat="45.88146" lon="4.73579">
        <ele>186</ele>
        <time>2018-02-04T09:57:20Z</time>
      </trkpt>
      <trkpt lat="45.88141" lon="4.73582">
        <ele>186</ele>
        <time>2018-02-04T09:57:21Z</time>
      </trkpt>
      <trkpt lat="45.88137" lon="4.73585">
        <ele>187</ele>
        <time>2018-02-04T09:57:22Z</time>
      </trkpt>
      <trkpt lat="45.88132" lon="4.73588">
        <ele>187</ele>
        <time>2018-02-04T09:57:23Z</time>
      </trkpt>
      <trkpt lat="45.88128" lon="4.73591">
        <ele>187</ele>
        <time>2018-02-04T09:57:24Z</time>
      </trkpt>
      <trkpt lat="45.88123" lon="4.73594">
        <ele>187</ele>
        <time>2018-02-04T09:57:25Z</time>
      </trkpt>
      <trkpt lat="45.88118" lon="4.73598">
        <ele>187</ele>
        <time>2018-02-04T09:57:26Z</time>
      </trkpt>
      <trkpt lat="45.88114" lon="4.736">
        <ele>187</ele>
        <time>2018-02-04T09:57:27Z</time>
      </trkpt>
      <trkpt lat="45.8811" lon="4.73603">
        <ele>188</ele>
        <time>2018-02-04T09:57:28Z</time>
      </trkpt>
      <trkpt lat="45.88106" lon="4.73606">
        <ele>188</ele>
        <time>2018-02-04T09:57:29Z</time>
      </trkpt>
      <trkpt lat="45.881" lon="4.73611">
        <ele>188</ele>
        <time>2018-02-04T09:57:30Z</time>
      </trkpt>
      <trkpt lat="45.88095" lon="4.73614">
        <ele>188</ele>
        <time>2018-02-04T09:57:31Z</time>
      </trkpt>
      <trkpt lat="45.88091" lon="4.73616">
        <ele>188</ele>
        <time>2018-02-04T09:57:32Z</time>
      </trkpt>
      <trkpt lat="45.88086" lon="4.73619">
        <ele>188</ele>
        <time>2018-02-04T09:57:33Z</time>
      </trkpt>
      <trkpt lat="45.88082" lon="4.73623">
        <ele>189</ele>
        <time>2018-02-04T09:57:34Z</time>
      </trkpt>
      <trkpt lat="45.88076" lon="4.73625">
        <ele>189</ele>
        <time>2018-02-04T09:57:35Z</time>
      </trkpt>
      <trkpt lat="45.88068" lon="4.73631">
        <ele>189</ele>
        <time>2018-02-04T09:57:37Z</time>
      </trkpt>
      <trkpt lat="45.88064" lon="4.73634">
        <ele>189</ele>
        <time>2018-02-04T09:57:38Z</time>
      </trkpt>
      <trkpt lat="45.8806" lon="4.73637">
        <ele>189</ele>
        <time>2018-02-04T09:57:39Z</time>
      </trkpt>
      <trkpt lat="45.88056" lon="4.7364">
        <ele>189</ele>
        <time>2018-02-04T09:57:40Z</time>
      </trkpt>
      <trkpt lat="45.88051" lon="4.73641">
        <ele>189</ele>
        <time>2018-02-04T09:57:41Z</time>
      </trkpt>
      <trkpt lat="45.88046" lon="4.73644">
        <ele>189</ele>
        <time>2018-02-04T09:57:42Z</time>
      </trkpt>
      <trkpt lat="45.88042" lon="4.73647">
        <ele>189</ele>
        <time>2018-02-04T09:57:43Z</time>
      </trkpt>
      <trkpt lat="45.88037" lon="4.7365">
        <ele>189</ele>
        <time>2018-02-04T09:57:44Z</time>
      </trkpt>
      <trkpt lat="45.88033" lon="4.73652">
        <ele>189</ele>
        <time>2018-02-04T09:57:45Z</time>
      </trkpt>
      <trkpt lat="45.88027" lon="4.73653">
        <ele>189</ele>
        <time>2018-02-04T09:57:46Z</time>
      </trkpt>
      <trkpt lat="45.88022" lon="4.73655">
        <ele>189</ele>
        <time>2018-02-04T09:57:47Z</time>
      </trkpt>
      <trkpt lat="45.88017" lon="4.73655">
        <ele>189</ele>
        <time>2018-02-04T09:57:48Z</time>
      </trkpt>
      <trkpt lat="45.88012" lon="4.73656">
        <ele>189</ele>
        <time>2018-02-04T09:57:49Z</time>
      </trkpt>
      <trkpt lat="45.88006" lon="4.73655">
        <ele>190</ele>
        <time>2018-02-04T09:57:50Z</time>
      </trkpt>
      <trkpt lat="45.88" lon="4.73654">
        <ele>189</ele>
        <time>2018-02-04T09:57:51Z</time>
      </trkpt>
      <trkpt lat="45.87995" lon="4.73652">
        <ele>190</ele>
        <time>2018-02-04T09:57:52Z</time>
      </trkpt>
      <trkpt lat="45.8799" lon="4.7365">
        <ele>190</ele>
        <time>2018-02-04T09:57:53Z</time>
      </trkpt>
      <trkpt lat="45.87985" lon="4.73648">
        <ele>190</ele>
        <time>2018-02-04T09:57:54Z</time>
      </trkpt>
      <trkpt lat="45.8798" lon="4.73647">
        <ele>190</ele>
        <time>2018-02-04T09:57:55Z</time>
      </trkpt>
      <trkpt lat="45.87975" lon="4.73646">
        <ele>189</ele>
        <time>2018-02-04T09:57:56Z</time>
      </trkpt>
      <trkpt lat="45.8797" lon="4.73644">
        <ele>189</ele>
        <time>2018-02-04T09:57:57Z</time>
      </trkpt>
      <trkpt lat="45.87966" lon="4.73642">
        <ele>189</ele>
        <time>2018-02-04T09:57:58Z</time>
      </trkpt>
      <trkpt lat="45.8796" lon="4.73641">
        <ele>189</ele>
        <time>2018-02-04T09:57:59Z</time>
      </trkpt>
      <trkpt lat="45.87955" lon="4.73638">
        <ele>189</ele>
        <time>2018-02-04T09:58:00Z</time>
      </trkpt>
      <trkpt lat="45.87949" lon="4.73637">
        <ele>189</ele>
        <time>2018-02-04T09:58:01Z</time>
      </trkpt>
      <trkpt lat="45.87944" lon="4.73635">
        <ele>189</ele>
        <time>2018-02-04T09:58:02Z</time>
      </trkpt>
      <trkpt lat="45.87939" lon="4.73634">
        <ele>189</ele>
        <time>2018-02-04T09:58:03Z</time>
      </trkpt>
      <trkpt lat="45.87933" lon="4.73633">
        <ele>189</ele>
        <time>2018-02-04T09:58:04Z</time>
      </trkpt>
      <trkpt lat="45.87928" lon="4.73632">
        <ele>189</ele>
        <time>2018-02-04T09:58:05Z</time>
      </trkpt>
      <trkpt lat="45.87922" lon="4.7363">
        <ele>189</ele>
        <time>2018-02-04T09:58:06Z</time>
      </trkpt>
      <trkpt lat="45.87916" lon="4.73628">
        <ele>190</ele>
        <time>2018-02-04T09:58:07Z</time>
      </trkpt>
      <trkpt lat="45.8791" lon="4.73626">
        <ele>190</ele>
        <time>2018-02-04T09:58:08Z</time>
      </trkpt>
      <trkpt lat="45.87904" lon="4.73625">
        <ele>190</ele>
        <time>2018-02-04T09:58:09Z</time>
      </trkpt>
      <trkpt lat="45.87899" lon="4.73623">
        <ele>190</ele>
        <time>2018-02-04T09:58:10Z</time>
      </trkpt>
      <trkpt lat="45.87893" lon="4.73622">
        <ele>190</ele>
        <time>2018-02-04T09:58:11Z</time>
      </trkpt>
      <trkpt lat="45.87888" lon="4.73619">
        <ele>190</ele>
        <time>2018-02-04T09:58:12Z</time>
      </trkpt>
      <trkpt lat="45.87882" lon="4.73617">
        <ele>190</ele>
        <time>2018-02-04T09:58:13Z</time>
      </trkpt>
      <trkpt lat="45.87877" lon="4.73616">
        <ele>190</ele>
        <time>2018-02-04T09:58:14Z</time>
      </trkpt>
      <trkpt lat="45.87872" lon="4.73616">
        <ele>190</ele>
        <time>2018-02-04T09:58:15Z</time>
      </trkpt>
      <trkpt lat="45.87867" lon="4.73616">
        <ele>190</ele>
        <time>2018-02-04T09:58:16Z</time>
      </trkpt>
      <trkpt lat="45.8786" lon="4.7362">
        <ele>190</ele>
        <time>2018-02-04T09:58:18Z</time>
      </trkpt>
      <trkpt lat="45.87856" lon="4.73624">
        <ele>190</ele>
        <time>2018-02-04T09:58:19Z</time>
      </trkpt>
      <trkpt lat="45.87852" lon="4.73629">
        <ele>191</ele>
        <time>2018-02-04T09:58:20Z</time>
      </trkpt>
      <trkpt lat="45.87848" lon="4.73633">
        <ele>191</ele>
        <time>2018-02-04T09:58:21Z</time>
      </trkpt>
      <trkpt lat="45.87841" lon="4.73639">
        <ele>191</ele>
        <time>2018-02-04T09:58:23Z</time>
      </trkpt>
      <trkpt lat="45.87836" lon="4.73635">
        <ele>191</ele>
        <time>2018-02-04T09:58:24Z</time>
      </trkpt>
      <trkpt lat="45.87832" lon="4.73632">
        <ele>191</ele>
        <time>2018-02-04T09:58:25Z</time>
      </trkpt>
      <trkpt lat="45.87829" lon="4.73625">
        <ele>190</ele>
        <time>2018-02-04T09:58:26Z</time>
      </trkpt>
      <trkpt lat="45.87826" lon="4.73614">
        <ele>190</ele>
        <time>2018-02-04T09:58:28Z</time>
      </trkpt>
      <trkpt lat="45.87823" lon="4.73608">
        <ele>190</ele>
        <time>2018-02-04T09:58:29Z</time>
      </trkpt>
      <trkpt lat="45.8782" lon="4.73601">
        <ele>190</ele>
        <time>2018-02-04T09:58:30Z</time>
      </trkpt>
      <trkpt lat="45.87817" lon="4.73595">
        <ele>190</ele>
        <time>2018-02-04T09:58:31Z</time>
      </trkpt>
      <trkpt lat="45.87814" lon="4.73589">
        <ele>190</ele>
        <time>2018-02-04T09:58:32Z</time>
      </trkpt>
      <trkpt lat="45.87811" lon="4.73582">
        <ele>189</ele>
        <time>2018-02-04T09:58:33Z</time>
      </trkpt>
      <trkpt lat="45.87808" lon="4.73575">
        <ele>189</ele>
        <time>2018-02-04T09:58:34Z</time>
      </trkpt>
      <trkpt lat="45.87804" lon="4.73569">
        <ele>189</ele>
        <time>2018-02-04T09:58:35Z</time>
      </trkpt>
      <trkpt lat="45.878" lon="4.73561">
        <ele>189</ele>
        <time>2018-02-04T09:58:36Z</time>
      </trkpt>
      <trkpt lat="45.87795" lon="4.73553">
        <ele>189</ele>
        <time>2018-02-04T09:58:37Z</time>
      </trkpt>
      <trkpt lat="45.87792" lon="4.73547">
        <ele>189</ele>
        <time>2018-02-04T09:58:38Z</time>
      </trkpt>
      <trkpt lat="45.87788" lon="4.7354">
        <ele>189</ele>
        <time>2018-02-04T09:58:39Z</time>
      </trkpt>
      <trkpt lat="45.87785" lon="4.73533">
        <ele>189</ele>
        <time>2018-02-04T09:58:40Z</time>
      </trkpt>
      <trkpt lat="45.87782" lon="4.73527">
        <ele>189</ele>
        <time>2018-02-04T09:58:41Z</time>
      </trkpt>
      <trkpt lat="45.87778" lon="4.73521">
        <ele>189</ele>
        <time>2018-02-04T09:58:42Z</time>
      </trkpt>
      <trkpt lat="45.87775" lon="4.73515">
        <ele>189</ele>
        <time>2018-02-04T09:58:43Z</time>
      </trkpt>
      <trkpt lat="45.87772" lon="4.73509">
        <ele>189</ele>
        <time>2018-02-04T09:58:44Z</time>
      </trkpt>
      <trkpt lat="45.87769" lon="4.73502">
        <ele>189</ele>
        <time>2018-02-04T09:58:45Z</time>
      </trkpt>
      <trkpt lat="45.87766" lon="4.73495">
        <ele>189</ele>
        <time>2018-02-04T09:58:46Z</time>
      </trkpt>
      <trkpt lat="45.87762" lon="4.73489">
        <ele>189</ele>
        <time>2018-02-04T09:58:47Z</time>
      </trkpt>
      <trkpt lat="45.87759" lon="4.73483">
        <ele>189</ele>
        <time>2018-02-04T09:58:48Z</time>
      </trkpt>
      <trkpt lat="45.87755" lon="4.73477">
        <ele>189</ele>
        <time>2018-02-04T09:58:49Z</time>
      </trkpt>
      <trkpt lat="45.87753" lon="4.73471">
        <ele>188</ele>
        <time>2018-02-04T09:58:50Z</time>
      </trkpt>
      <trkpt lat="45.87751" lon="4.73465">
        <ele>188</ele>
        <time>2018-02-04T09:58:51Z</time>
      </trkpt>
      <trkpt lat="45.87748" lon="4.7346">
        <ele>189</ele>
        <time>2018-02-04T09:58:52Z</time>
      </trkpt>
      <trkpt lat="45.87745" lon="4.73454">
        <ele>189</ele>
        <time>2018-02-04T09:58:53Z</time>
      </trkpt>
      <trkpt lat="45.87742" lon="4.73448">
        <ele>189</ele>
        <time>2018-02-04T09:58:54Z</time>
      </trkpt>
      <trkpt lat="45.8774" lon="4.73442">
        <ele>189</ele>
        <time>2018-02-04T09:58:55Z</time>
      </trkpt>
      <trkpt lat="45.87737" lon="4.73435">
        <ele>188</ele>
        <time>2018-02-04T09:58:56Z</time>
      </trkpt>
      <trkpt lat="45.87732" lon="4.73428">
        <ele>188</ele>
        <time>2018-02-04T09:58:57Z</time>
      </trkpt>
      <trkpt lat="45.87729" lon="4.73422">
        <ele>188</ele>
        <time>2018-02-04T09:58:58Z</time>
      </trkpt>
      <trkpt lat="45.87726" lon="4.73416">
        <ele>188</ele>
        <time>2018-02-04T09:58:59Z</time>
      </trkpt>
      <trkpt lat="45.87723" lon="4.73409">
        <ele>188</ele>
        <time>2018-02-04T09:59:00Z</time>
      </trkpt>
      <trkpt lat="45.8772" lon="4.73403">
        <ele>188</ele>
        <time>2018-02-04T09:59:01Z</time>
      </trkpt>
      <trkpt lat="45.87717" lon="4.73396">
        <ele>188</ele>
        <time>2018-02-04T09:59:02Z</time>
      </trkpt>
      <trkpt lat="45.87714" lon="4.7339">
        <ele>188</ele>
        <time>2018-02-04T09:59:03Z</time>
      </trkpt>
      <trkpt lat="45.87711" lon="4.73383">
        <ele>188</ele>
        <time>2018-02-04T09:59:04Z</time>
      </trkpt>
      <trkpt lat="45.87706" lon="4.73376">
        <ele>188</ele>
        <time>2018-02-04T09:59:05Z</time>
      </trkpt>
      <trkpt lat="45.87702" lon="4.7337">
        <ele>188</ele>
        <time>2018-02-04T09:59:06Z</time>
      </trkpt>
      <trkpt lat="45.87699" lon="4.73362">
        <ele>188</ele>
        <time>2018-02-04T09:59:07Z</time>
      </trkpt>
      <trkpt lat="45.87695" lon="4.73355">
        <ele>188</ele>
        <time>2018-02-04T09:59:08Z</time>
      </trkpt>
      <trkpt lat="45.87692" lon="4.73349">
        <ele>188</ele>
        <time>2018-02-04T09:59:09Z</time>
      </trkpt>
      <trkpt lat="45.87689" lon="4.73343">
        <ele>188</ele>
        <time>2018-02-04T09:59:10Z</time>
      </trkpt>
      <trkpt lat="45.87687" lon="4.73336">
        <ele>188</ele>
        <time>2018-02-04T09:59:11Z</time>
      </trkpt>
      <trkpt lat="45.87684" lon="4.7333">
        <ele>188</ele>
        <time>2018-02-04T09:59:12Z</time>
      </trkpt>
      <trkpt lat="45.87681" lon="4.73324">
        <ele>188</ele>
        <time>2018-02-04T09:59:13Z</time>
      </trkpt>
      <trkpt lat="45.87678" lon="4.73318">
        <ele>188</ele>
        <time>2018-02-04T09:59:14Z</time>
      </trkpt>
      <trkpt lat="45.87676" lon="4.73312">
        <ele>188</ele>
        <time>2018-02-04T09:59:15Z</time>
      </trkpt>
      <trkpt lat="45.87673" lon="4.73305">
        <ele>188</ele>
        <time>2018-02-04T09:59:16Z</time>
      </trkpt>
      <trkpt lat="45.87669" lon="4.73298">
        <ele>188</ele>
        <time>2018-02-04T09:59:17Z</time>
      </trkpt>
      <trkpt lat="45.87666" lon="4.73293">
        <ele>188</ele>
        <time>2018-02-04T09:59:18Z</time>
      </trkpt>
      <trkpt lat="45.87664" lon="4.73287">
        <ele>189</ele>
        <time>2018-02-04T09:59:19Z</time>
      </trkpt>
      <trkpt lat="45.87661" lon="4.73281">
        <ele>189</ele>
        <time>2018-02-04T09:59:20Z</time>
      </trkpt>
      <trkpt lat="45.87658" lon="4.73275">
        <ele>189</ele>
        <time>2018-02-04T09:59:21Z</time>
      </trkpt>
      <trkpt lat="45.87655" lon="4.73269">
        <ele>189</ele>
        <time>2018-02-04T09:59:22Z</time>
      </trkpt>
      <trkpt lat="45.87652" lon="4.73263">
        <ele>189</ele>
        <time>2018-02-04T09:59:23Z</time>
      </trkpt>
      <trkpt lat="45.87649" lon="4.73256">
        <ele>189</ele>
        <time>2018-02-04T09:59:24Z</time>
      </trkpt>
      <trkpt lat="45.87646" lon="4.7325">
        <ele>188</ele>
        <time>2018-02-04T09:59:25Z</time>
      </trkpt>
      <trkpt lat="45.87644" lon="4.73244">
        <ele>188</ele>
        <time>2018-02-04T09:59:26Z</time>
      </trkpt>
      <trkpt lat="45.87641" lon="4.73236">
        <ele>188</ele>
        <time>2018-02-04T09:59:27Z</time>
      </trkpt>
      <trkpt lat="45.87636" lon="4.73228">
        <ele>188</ele>
        <time>2018-02-04T09:59:28Z</time>
      </trkpt>
      <trkpt lat="45.87634" lon="4.73222">
        <ele>188</ele>
        <time>2018-02-04T09:59:29Z</time>
      </trkpt>
      <trkpt lat="45.87632" lon="4.73216">
        <ele>188</ele>
        <time>2018-02-04T09:59:30Z</time>
      </trkpt>
      <trkpt lat="45.87629" lon="4.73209">
        <ele>188</ele>
        <time>2018-02-04T09:59:31Z</time>
      </trkpt>
      <trkpt lat="45.87626" lon="4.73202">
        <ele>188</ele>
        <time>2018-02-04T09:59:32Z</time>
      </trkpt>
      <trkpt lat="45.87623" lon="4.73196">
        <ele>188</ele>
        <time>2018-02-04T09:59:33Z</time>
      </trkpt>
      <trkpt lat="45.87618" lon="4.73191">
        <ele>188</ele>
        <time>2018-02-04T09:59:34Z</time>
      </trkpt>
      <trkpt lat="45.87615" lon="4.73185">
        <ele>188</ele>
        <time>2018-02-04T09:59:35Z</time>
      </trkpt>
      <trkpt lat="45.87613" lon="4.73179">
        <ele>187</ele>
        <time>2018-02-04T09:59:36Z</time>
      </trkpt>
      <trkpt lat="45.8761" lon="4.73172">
        <ele>187</ele>
        <time>2018-02-04T09:59:37Z</time>
      </trkpt>
      <trkpt lat="45.87607" lon="4.73166">
        <ele>187</ele>
        <time>2018-02-04T09:59:38Z</time>
      </trkpt>
      <trkpt lat="45.87604" lon="4.73161">
        <ele>187</ele>
        <time>2018-02-04T09:59:39Z</time>
      </trkpt>
      <trkpt lat="45.87601" lon="4.73154">
        <ele>187</ele>
        <time>2018-02-04T09:59:40Z</time>
      </trkpt>
      <trkpt lat="45.87598" lon="4.73147">
        <ele>187</ele>
        <time>2018-02-04T09:59:41Z</time>
      </trkpt>
      <trkpt lat="45.87594" lon="4.7314">
        <ele>187</ele>
        <time>2018-02-04T09:59:42Z</time>
      </trkpt>
      <trkpt lat="45.87591" lon="4.73132">
        <ele>187</ele>
        <time>2018-02-04T09:59:43Z</time>
      </trkpt>
      <trkpt lat="45.87587" lon="4.73125">
        <ele>188</ele>
        <time>2018-02-04T09:59:44Z</time>
      </trkpt>
      <trkpt lat="45.87583" lon="4.73117">
        <ele>187</ele>
        <time>2018-02-04T09:59:45Z</time>
      </trkpt>
      <trkpt lat="45.8758" lon="4.7311">
        <ele>187</ele>
        <time>2018-02-04T09:59:46Z</time>
      </trkpt>
      <trkpt lat="45.87576" lon="4.73103">
        <ele>188</ele>
        <time>2018-02-04T09:59:47Z</time>
      </trkpt>
      <trkpt lat="45.87572" lon="4.73096">
        <ele>188</ele>
        <time>2018-02-04T09:59:48Z</time>
      </trkpt>
      <trkpt lat="45.87567" lon="4.73092">
        <ele>188</ele>
        <time>2018-02-04T09:59:49Z</time>
      </trkpt>
      <trkpt lat="45.87564" lon="4.73085">
        <ele>188</ele>
        <time>2018-02-04T09:59:50Z</time>
      </trkpt>
      <trkpt lat="45.87561" lon="4.73078">
        <ele>188</ele>
        <time>2018-02-04T09:59:51Z</time>
      </trkpt>
      <trkpt lat="45.87559" lon="4.73071">
        <ele>188</ele>
        <time>2018-02-04T09:59:52Z</time>
      </trkpt>
      <trkpt lat="45.87556" lon="4.73064">
        <ele>188</ele>
        <time>2018-02-04T09:59:53Z</time>
      </trkpt>
      <trkpt lat="45.87551" lon="4.73055">
        <ele>188</ele>
        <time>2018-02-04T09:59:55Z</time>
      </trkpt>
      <trkpt lat="45.87548" lon="4.7305">
        <ele>188</ele>
        <time>2018-02-04T09:59:56Z</time>
      </trkpt>
      <trkpt lat="45.87544" lon="4.73045">
        <ele>188</ele>
        <time>2018-02-04T09:59:57Z</time>
      </trkpt>
      <trkpt lat="45.87541" lon="4.73038">
        <ele>187</ele>
        <time>2018-02-04T09:59:58Z</time>
      </trkpt>
      <trkpt lat="45.87538" lon="4.73032">
        <ele>187</ele>
        <time>2018-02-04T09:59:59Z</time>
      </trkpt>
      <trkpt lat="45.87535" lon="4.73025">
        <ele>187</ele>
        <time>2018-02-04T10:00:00Z</time>
      </trkpt>
      <trkpt lat="45.87533" lon="4.73018">
        <ele>187</ele>
        <time>2018-02-04T10:00:01Z</time>
      </trkpt>
      <trkpt lat="45.87529" lon="4.73012">
        <ele>187</ele>
        <time>2018-02-04T10:00:02Z</time>
      </trkpt>
      <trkpt lat="45.87526" lon="4.73005">
        <ele>187</ele>
        <time>2018-02-04T10:00:03Z</time>
      </trkpt>
      <trkpt lat="45.87523" lon="4.72998">
        <ele>187</ele>
        <time>2018-02-04T10:00:04Z</time>
      </trkpt>
      <trkpt lat="45.8752" lon="4.7299">
        <ele>187</ele>
        <time>2018-02-04T10:00:05Z</time>
      </trkpt>
      <trkpt lat="45.87517" lon="4.72984">
        <ele>187</ele>
        <time>2018-02-04T10:00:06Z</time>
      </trkpt>
      <trkpt lat="45.87514" lon="4.72977">
        <ele>187</ele>
        <time>2018-02-04T10:00:07Z</time>
      </trkpt>
      <trkpt lat="45.8751" lon="4.72971">
        <ele>187</ele>
        <time>2018-02-04T10:00:08Z</time>
      </trkpt>
      <trkpt lat="45.87507" lon="4.72965">
        <ele>187</ele>
        <time>2018-02-04T10:00:09Z</time>
      </trkpt>
      <trkpt lat="45.87503" lon="4.72959">
        <ele>187</ele>
        <time>2018-02-04T10:00:10Z</time>
      </trkpt>
      <trkpt lat="45.87499" lon="4.72954">
        <ele>188</ele>
        <time>2018-02-04T10:00:11Z</time>
      </trkpt>
      <trkpt lat="45.87496" lon="4.7295">
        <ele>188</ele>
        <time>2018-02-04T10:00:12Z</time>
      </trkpt>
      <trkpt lat="45.87488" lon="4.72944">
        <ele>188</ele>
        <time>2018-02-04T10:00:14Z</time>
      </trkpt>
      <trkpt lat="45.87484" lon="4.72941">
        <ele>188</ele>
        <time>2018-02-04T10:00:15Z</time>
      </trkpt>
      <trkpt lat="45.87477" lon="4.72936">
        <ele>188</ele>
        <time>2018-02-04T10:00:17Z</time>
      </trkpt>
      <trkpt lat="45.87473" lon="4.72931">
        <ele>188</ele>
        <time>2018-02-04T10:00:18Z</time>
      </trkpt>
      <trkpt lat="45.87468" lon="4.72921">
        <ele>188</ele>
        <time>2018-02-04T10:00:20Z</time>
      </trkpt>
      <trkpt lat="45.87466" lon="4.72915">
        <ele>188</ele>
        <time>2018-02-04T10:00:21Z</time>
      </trkpt>
      <trkpt lat="45.87461" lon="4.72909">
        <ele>188</ele>
        <time>2018-02-04T10:00:22Z</time>
      </trkpt>
      <trkpt lat="45.87459" lon="4.72904">
        <ele>188</ele>
        <time>2018-02-04T10:00:23Z</time>
      </trkpt>
      <trkpt lat="45.87457" lon="4.72893">
        <ele>188</ele>
        <time>2018-02-04T10:00:25Z</time>
      </trkpt>
      <trkpt lat="45.87456" lon="4.72888">
        <ele>188</ele>
        <time>2018-02-04T10:00:26Z</time>
      </trkpt>
      <trkpt lat="45.87454" lon="4.72883">
        <ele>188</ele>
        <time>2018-02-04T10:00:27Z</time>
      </trkpt>
      <trkpt lat="45.87451" lon="4.72875">
        <ele>188</ele>
        <time>2018-02-04T10:00:28Z</time>
      </trkpt>
      <trkpt lat="45.87448" lon="4.72867">
        <ele>188</ele>
        <time>2018-02-04T10:00:29Z</time>
      </trkpt>
      <trkpt lat="45.87445" lon="4.72859">
        <ele>188</ele>
        <time>2018-02-04T10:00:30Z</time>
      </trkpt>
      <trkpt lat="45.87442" lon="4.72852">
        <ele>188</ele>
        <time>2018-02-04T10:00:31Z</time>
      </trkpt>
      <trkpt lat="45.87439" lon="4.72844">
        <ele>188</ele>
        <time>2018-02-04T10:00:32Z</time>
      </trkpt>
      <trkpt lat="45.87435" lon="4.72837">
        <ele>188</ele>
        <time>2018-02-04T10:00:33Z</time>
      </trkpt>
      <trkpt lat="45.87432" lon="4.7283">
        <ele>189</ele>
        <time>2018-02-04T10:00:34Z</time>
      </trkpt>
      <trkpt lat="45.87429" lon="4.72823">
        <ele>189</ele>
        <time>2018-02-04T10:00:35Z</time>
      </trkpt>
      <trkpt lat="45.87427" lon="4.72817">
        <ele>189</ele>
        <time>2018-02-04T10:00:36Z</time>
      </trkpt>
      <trkpt lat="45.87424" lon="4.72811">
        <ele>189</ele>
        <time>2018-02-04T10:00:37Z</time>
      </trkpt>
      <trkpt lat="45.87422" lon="4.72804">
        <ele>189</ele>
        <time>2018-02-04T10:00:38Z</time>
      </trkpt>
      <trkpt lat="45.87419" lon="4.72797">
        <ele>189</ele>
        <time>2018-02-04T10:00:39Z</time>
      </trkpt>
      <trkpt lat="45.87417" lon="4.72792">
        <ele>189</ele>
        <time>2018-02-04T10:00:40Z</time>
      </trkpt>
      <trkpt lat="45.87413" lon="4.72786">
        <ele>189</ele>
        <time>2018-02-04T10:00:41Z</time>
      </trkpt>
      <trkpt lat="45.87411" lon="4.72779">
        <ele>189</ele>
        <time>2018-02-04T10:00:42Z</time>
      </trkpt>
      <trkpt lat="45.87408" lon="4.72773">
        <ele>189</ele>
        <time>2018-02-04T10:00:43Z</time>
      </trkpt>
      <trkpt lat="45.87406" lon="4.72767">
        <ele>189</ele>
        <time>2018-02-04T10:00:44Z</time>
      </trkpt>
      <trkpt lat="45.87402" lon="4.7276">
        <ele>189</ele>
        <time>2018-02-04T10:00:45Z</time>
      </trkpt>
      <trkpt lat="45.87399" lon="4.72755">
        <ele>189</ele>
        <time>2018-02-04T10:00:46Z</time>
      </trkpt>
      <trkpt lat="45.87396" lon="4.72749">
        <ele>189</ele>
        <time>2018-02-04T10:00:47Z</time>
      </trkpt>
      <trkpt lat="45.87392" lon="4.72745">
        <ele>189</ele>
        <time>2018-02-04T10:00:48Z</time>
      </trkpt>
      <trkpt lat="45.87388" lon="4.72741">
        <ele>190</ele>
        <time>2018-02-04T10:00:49Z</time>
      </trkpt>
      <trkpt lat="45.87385" lon="4.72737">
        <ele>190</ele>
        <time>2018-02-04T10:00:50Z</time>
      </trkpt>
      <trkpt lat="45.87382" lon="4.72732">
        <ele>190</ele>
        <time>2018-02-04T10:00:51Z</time>
      </trkpt>
      <trkpt lat="45.8738" lon="4.72726">
        <ele>190</ele>
        <time>2018-02-04T10:00:52Z</time>
      </trkpt>
      <trkpt lat="45.87377" lon="4.72713">
        <ele>190</ele>
        <time>2018-02-04T10:00:54Z</time>
      </trkpt>
      <trkpt lat="45.87375" lon="4.72708">
        <ele>190</ele>
        <time>2018-02-04T10:00:55Z</time>
      </trkpt>
      <trkpt lat="45.87372" lon="4.72702">
        <ele>190</ele>
        <time>2018-02-04T10:00:56Z</time>
      </trkpt>
      <trkpt lat="45.8737" lon="4.72697">
        <ele>190</ele>
        <time>2018-02-04T10:00:57Z</time>
      </trkpt>
      <trkpt lat="45.87364" lon="4.72696">
        <ele>190</ele>
        <time>2018-02-04T10:00:58Z</time>
      </trkpt>
      <trkpt lat="45.87361" lon="4.7269">
        <ele>190</ele>
        <time>2018-02-04T10:00:59Z</time>
      </trkpt>
      <trkpt lat="45.87358" lon="4.72684">
        <ele>190</ele>
        <time>2018-02-04T10:01:00Z</time>
      </trkpt>
      <trkpt lat="45.87353" lon="4.72681">
        <ele>190</ele>
        <time>2018-02-04T10:01:01Z</time>
      </trkpt>
      <trkpt lat="45.87348" lon="4.72677">
        <ele>190</ele>
        <time>2018-02-04T10:01:02Z</time>
      </trkpt>
      <trkpt lat="45.87343" lon="4.72672">
        <ele>190</ele>
        <time>2018-02-04T10:01:03Z</time>
      </trkpt>
      <trkpt lat="45.87339" lon="4.72669">
        <ele>190</ele>
        <time>2018-02-04T10:01:04Z</time>
      </trkpt>
      <trkpt lat="45.87336" lon="4.72664">
        <ele>190</ele>
        <time>2018-02-04T10:01:05Z</time>
      </trkpt>
      <trkpt lat="45.87329" lon="4.72656">
        <ele>191</ele>
        <time>2018-02-04T10:01:07Z</time>
      </trkpt>
      <trkpt lat="45.87326" lon="4.72651">
        <ele>192</ele>
        <time>2018-02-04T10:01:08Z</time>
      </trkpt>
      <trkpt lat="45.87322" lon="4.72648">
        <ele>192</ele>
        <time>2018-02-04T10:01:09Z</time>
      </trkpt>
      <trkpt lat="45.87317" lon="4.72645">
        <ele>193</ele>
        <time>2018-02-04T10:01:10Z</time>
      </trkpt>
      <trkpt lat="45.87313" lon="4.7264">
        <ele>193</ele>
        <time>2018-02-04T10:01:11Z</time>
      </trkpt>
      <trkpt lat="45.8731" lon="4.72636">
        <ele>193</ele>
        <time>2018-02-04T10:01:12Z</time>
      </trkpt>
      <trkpt lat="45.87307" lon="4.7263">
        <ele>193</ele>
        <time>2018-02-04T10:01:13Z</time>
      </trkpt>
      <trkpt lat="45.87304" lon="4.72625">
        <ele>193</ele>
        <time>2018-02-04T10:01:14Z</time>
      </trkpt>
      <trkpt lat="45.87299" lon="4.72621">
        <ele>194</ele>
        <time>2018-02-04T10:01:15Z</time>
      </trkpt>
      <trkpt lat="45.87296" lon="4.72616">
        <ele>194</ele>
        <time>2018-02-04T10:01:16Z</time>
      </trkpt>
      <trkpt lat="45.87291" lon="4.7261">
        <ele>194</ele>
        <time>2018-02-04T10:01:17Z</time>
      </trkpt>
      <trkpt lat="45.87289" lon="4.72606">
        <ele>194</ele>
        <time>2018-02-04T10:01:18Z</time>
      </trkpt>
      <trkpt lat="45.87283" lon="4.72597">
        <ele>194</ele>
        <time>2018-02-04T10:01:20Z</time>
      </trkpt>
      <trkpt lat="45.87279" lon="4.72592">
        <ele>195</ele>
        <time>2018-02-04T10:01:21Z</time>
      </trkpt>
      <trkpt lat="45.87274" lon="4.72583">
        <ele>195</ele>
        <time>2018-02-04T10:01:23Z</time>
      </trkpt>
      <trkpt lat="45.8727" lon="4.72578">
        <ele>195</ele>
        <time>2018-02-04T10:01:24Z</time>
      </trkpt>
      <trkpt lat="45.87267" lon="4.72569">
        <ele>195</ele>
        <time>2018-02-04T10:01:26Z</time>
      </trkpt>
      <trkpt lat="45.87263" lon="4.72564">
        <ele>195</ele>
        <time>2018-02-04T10:01:27Z</time>
      </trkpt>
      <trkpt lat="45.87257" lon="4.72555">
        <ele>194</ele>
        <time>2018-02-04T10:01:30Z</time>
      </trkpt>
      <trkpt lat="45.87254" lon="4.72552">
        <ele>194</ele>
        <time>2018-02-04T10:01:31Z</time>
      </trkpt>
      <trkpt lat="45.87251" lon="4.72542">
        <ele>194</ele>
        <time>2018-02-04T10:01:34Z</time>
      </trkpt>
      <trkpt lat="45.87247" lon="4.72538">
        <ele>197</ele>
        <time>2018-02-04T10:01:35Z</time>
      </trkpt>
      <trkpt lat="45.87241" lon="4.72529">
        <ele>197</ele>
        <time>2018-02-04T10:01:37Z</time>
      </trkpt>
      <trkpt lat="45.87239" lon="4.72525">
        <ele>196</ele>
        <time>2018-02-04T10:01:38Z</time>
      </trkpt>
      <trkpt lat="45.87234" lon="4.72515">
        <ele>196</ele>
        <time>2018-02-04T10:01:40Z</time>
      </trkpt>
      <trkpt lat="45.87231" lon="4.72511">
        <ele>196</ele>
        <time>2018-02-04T10:01:41Z</time>
      </trkpt>
      <trkpt lat="45.87226" lon="4.72501">
        <ele>196</ele>
        <time>2018-02-04T10:01:43Z</time>
      </trkpt>
      <trkpt lat="45.87223" lon="4.72496">
        <ele>194</ele>
        <time>2018-02-04T10:01:44Z</time>
      </trkpt>
      <trkpt lat="45.87217" lon="4.72487">
        <ele>194</ele>
        <time>2018-02-04T10:01:46Z</time>
      </trkpt>
      <trkpt lat="45.87214" lon="4.72483">
        <ele>194</ele>
        <time>2018-02-04T10:01:47Z</time>
      </trkpt>
      <trkpt lat="45.87208" lon="4.72474">
        <ele>195</ele>
        <time>2018-02-04T10:01:49Z</time>
      </trkpt>
      <trkpt lat="45.87205" lon="4.72469">
        <ele>195</ele>
        <time>2018-02-04T10:01:50Z</time>
      </trkpt>
      <trkpt lat="45.87202" lon="4.72464">
        <ele>195</ele>
        <time>2018-02-04T10:01:51Z</time>
      </trkpt>
      <trkpt lat="45.87199" lon="4.7246">
        <ele>194</ele>
        <time>2018-02-04T10:01:52Z</time>
      </trkpt>
      <trkpt lat="45.87196" lon="4.72454">
        <ele>194</ele>
        <time>2018-02-04T10:01:53Z</time>
      </trkpt>
      <trkpt lat="45.87191" lon="4.72449">
        <ele>194</ele>
        <time>2018-02-04T10:01:54Z</time>
      </trkpt>
      <trkpt lat="45.87185" lon="4.7244">
        <ele>194</ele>
        <time>2018-02-04T10:01:56Z</time>
      </trkpt>
      <trkpt lat="45.87182" lon="4.72435">
        <ele>194</ele>
        <time>2018-02-04T10:01:57Z</time>
      </trkpt>
      <trkpt lat="45.87177" lon="4.72429">
        <ele>194</ele>
        <time>2018-02-04T10:01:59Z</time>
      </trkpt>
      <trkpt lat="45.87174" lon="4.72425">
        <ele>194</ele>
        <time>2018-02-04T10:02:00Z</time>
      </trkpt>
      <trkpt lat="45.87171" lon="4.72417">
        <ele>194</ele>
        <time>2018-02-04T10:02:02Z</time>
      </trkpt>
      <trkpt lat="45.87169" lon="4.72413">
        <ele>193</ele>
        <time>2018-02-04T10:02:03Z</time>
      </trkpt>
      <trkpt lat="45.87164" lon="4.72403">
        <ele>196</ele>
        <time>2018-02-04T10:02:05Z</time>
      </trkpt>
      <trkpt lat="45.87162" lon="4.72397">
        <ele>197</ele>
        <time>2018-02-04T10:02:06Z</time>
      </trkpt>
      <trkpt lat="45.87159" lon="4.72386">
        <ele>197</ele>
        <time>2018-02-04T10:02:08Z</time>
      </trkpt>
      <trkpt lat="45.87157" lon="4.7238">
        <ele>197</ele>
        <time>2018-02-04T10:02:09Z</time>
      </trkpt>
      <trkpt lat="45.87154" lon="4.72374">
        <ele>197</ele>
        <time>2018-02-04T10:02:10Z</time>
      </trkpt>
      <trkpt lat="45.87152" lon="4.72367">
        <ele>197</ele>
        <time>2018-02-04T10:02:11Z</time>
      </trkpt>
      <trkpt lat="45.87149" lon="4.72361">
        <ele>197</ele>
        <time>2018-02-04T10:02:12Z</time>
      </trkpt>
      <trkpt lat="45.87146" lon="4.72356">
        <ele>197</ele>
        <time>2018-02-04T10:02:13Z</time>
      </trkpt>
      <trkpt lat="45.87144" lon="4.7235">
        <ele>196</ele>
        <time>2018-02-04T10:02:14Z</time>
      </trkpt>
      <trkpt lat="45.87141" lon="4.72343">
        <ele>196</ele>
        <time>2018-02-04T10:02:15Z</time>
      </trkpt>
      <trkpt lat="45.87138" lon="4.72337">
        <ele>197</ele>
        <time>2018-02-04T10:02:16Z</time>
      </trkpt>
      <trkpt lat="45.87135" lon="4.72331">
        <ele>195</ele>
        <time>2018-02-04T10:02:17Z</time>
      </trkpt>
      <trkpt lat="45.87131" lon="4.72325">
        <ele>196</ele>
        <time>2018-02-04T10:02:18Z</time>
      </trkpt>
      <trkpt lat="45.87129" lon="4.72318">
        <ele>196</ele>
        <time>2018-02-04T10:02:19Z</time>
      </trkpt>
      <trkpt lat="45.87124" lon="4.72308">
        <ele>197</ele>
        <time>2018-02-04T10:02:21Z</time>
      </trkpt>
      <trkpt lat="45.87121" lon="4.72303">
        <ele>197</ele>
        <time>2018-02-04T10:02:22Z</time>
      </trkpt>
      <trkpt lat="45.87118" lon="4.72297">
        <ele>197</ele>
        <time>2018-02-04T10:02:23Z</time>
      </trkpt>
      <trkpt lat="45.87115" lon="4.72292">
        <ele>197</ele>
        <time>2018-02-04T10:02:24Z</time>
      </trkpt>
      <trkpt lat="45.87111" lon="4.72287">
        <ele>197</ele>
        <time>2018-02-04T10:02:25Z</time>
      </trkpt>
      <trkpt lat="45.87106" lon="4.72281">
        <ele>197</ele>
        <time>2018-02-04T10:02:26Z</time>
      </trkpt>
      <trkpt lat="45.87103" lon="4.72275">
        <ele>197</ele>
        <time>2018-02-04T10:02:27Z</time>
      </trkpt>
      <trkpt lat="45.87099" lon="4.7227">
        <ele>197</ele>
        <time>2018-02-04T10:02:28Z</time>
      </trkpt>
      <trkpt lat="45.87094" lon="4.72264">
        <ele>198</ele>
        <time>2018-02-04T10:02:29Z</time>
      </trkpt>
      <trkpt lat="45.87089" lon="4.72258">
        <ele>198</ele>
        <time>2018-02-04T10:02:30Z</time>
      </trkpt>
      <trkpt lat="45.87085" lon="4.72252">
        <ele>199</ele>
        <time>2018-02-04T10:02:31Z</time>
      </trkpt>
      <trkpt lat="45.8708" lon="4.72246">
        <ele>199</ele>
        <time>2018-02-04T10:02:32Z</time>
      </trkpt>
      <trkpt lat="45.87076" lon="4.7224">
        <ele>200</ele>
        <time>2018-02-04T10:02:33Z</time>
      </trkpt>
      <trkpt lat="45.87071" lon="4.72236">
        <ele>200</ele>
        <time>2018-02-04T10:02:34Z</time>
      </trkpt>
      <trkpt lat="45.87066" lon="4.72231">
        <ele>200</ele>
        <time>2018-02-04T10:02:35Z</time>
      </trkpt>
      <trkpt lat="45.87061" lon="4.72227">
        <ele>200</ele>
        <time>2018-02-04T10:02:36Z</time>
      </trkpt>
      <trkpt lat="45.87056" lon="4.72222">
        <ele>200</ele>
        <time>2018-02-04T10:02:37Z</time>
      </trkpt>
      <trkpt lat="45.87052" lon="4.72217">
        <ele>201</ele>
        <time>2018-02-04T10:02:38Z</time>
      </trkpt>
      <trkpt lat="45.87047" lon="4.72212">
        <ele>201</ele>
        <time>2018-02-04T10:02:39Z</time>
      </trkpt>
      <trkpt lat="45.87042" lon="4.72209">
        <ele>201</ele>
        <time>2018-02-04T10:02:40Z</time>
      </trkpt>
      <trkpt lat="45.87037" lon="4.72205">
        <ele>201</ele>
        <time>2018-02-04T10:02:41Z</time>
      </trkpt>
      <trkpt lat="45.87031" lon="4.72202">
        <ele>201</ele>
        <time>2018-02-04T10:02:42Z</time>
      </trkpt>
      <trkpt lat="45.87026" lon="4.72198">
        <ele>201</ele>
        <time>2018-02-04T10:02:43Z</time>
      </trkpt>
      <trkpt lat="45.8702" lon="4.72195">
        <ele>201</ele>
        <time>2018-02-04T10:02:44Z</time>
      </trkpt>
      <trkpt lat="45.87014" lon="4.72192">
        <ele>201</ele>
        <time>2018-02-04T10:02:45Z</time>
      </trkpt>
      <trkpt lat="45.87009" lon="4.72188">
        <ele>201</ele>
        <time>2018-02-04T10:02:46Z</time>
      </trkpt>
      <trkpt lat="45.87004" lon="4.72184">
        <ele>201</ele>
        <time>2018-02-04T10:02:47Z</time>
      </trkpt>
      <trkpt lat="45.86998" lon="4.72181">
        <ele>206</ele>
        <time>2018-02-04T10:02:48Z</time>
      </trkpt>
      <trkpt lat="45.86993" lon="4.72178">
        <ele>206</ele>
        <time>2018-02-04T10:02:49Z</time>
      </trkpt>
      <trkpt lat="45.86988" lon="4.72175">
        <ele>206</ele>
        <time>2018-02-04T10:02:50Z</time>
      </trkpt>
      <trkpt lat="45.86983" lon="4.72173">
        <ele>207</ele>
        <time>2018-02-04T10:02:51Z</time>
      </trkpt>
      <trkpt lat="45.86977" lon="4.7217">
        <ele>208</ele>
        <time>2018-02-04T10:02:52Z</time>
      </trkpt>
      <trkpt lat="45.86972" lon="4.72166">
        <ele>201</ele>
        <time>2018-02-04T10:02:53Z</time>
      </trkpt>
      <trkpt lat="45.86966" lon="4.72162">
        <ele>201</ele>
        <time>2018-02-04T10:02:54Z</time>
      </trkpt>
      <trkpt lat="45.86959" lon="4.72159">
        <ele>201</ele>
        <time>2018-02-04T10:02:55Z</time>
      </trkpt>
      <trkpt lat="45.86955" lon="4.72156">
        <ele>202</ele>
        <time>2018-02-04T10:02:56Z</time>
      </trkpt>
      <trkpt lat="45.8695" lon="4.72153">
        <ele>202</ele>
        <time>2018-02-04T10:02:57Z</time>
      </trkpt>
      <trkpt lat="45.86944" lon="4.72149">
        <ele>202</ele>
        <time>2018-02-04T10:02:58Z</time>
      </trkpt>
      <trkpt lat="45.86938" lon="4.72146">
        <ele>203</ele>
        <time>2018-02-04T10:02:59Z</time>
      </trkpt>
      <trkpt lat="45.86932" lon="4.72143">
        <ele>203</ele>
        <time>2018-02-04T10:03:00Z</time>
      </trkpt>
      <trkpt lat="45.86927" lon="4.72139">
        <ele>202</ele>
        <time>2018-02-04T10:03:01Z</time>
      </trkpt>
      <trkpt lat="45.86921" lon="4.72135">
        <ele>202</ele>
        <time>2018-02-04T10:03:02Z</time>
      </trkpt>
      <trkpt lat="45.86915" lon="4.72132">
        <ele>204</ele>
        <time>2018-02-04T10:03:03Z</time>
      </trkpt>
      <trkpt lat="45.86909" lon="4.72129">
        <ele>203</ele>
        <time>2018-02-04T10:03:04Z</time>
      </trkpt>
      <trkpt lat="45.86902" lon="4.72126">
        <ele>203</ele>
        <time>2018-02-04T10:03:05Z</time>
      </trkpt>
      <trkpt lat="45.86896" lon="4.72123">
        <ele>202</ele>
        <time>2018-02-04T10:03:06Z</time>
      </trkpt>
      <trkpt lat="45.86891" lon="4.7212">
        <ele>202</ele>
        <time>2018-02-04T10:03:07Z</time>
      </trkpt>
      <trkpt lat="45.86884" lon="4.72118">
        <ele>202</ele>
        <time>2018-02-04T10:03:08Z</time>
      </trkpt>
      <trkpt lat="45.86879" lon="4.72115">
        <ele>201</ele>
        <time>2018-02-04T10:03:09Z</time>
      </trkpt>
      <trkpt lat="45.86873" lon="4.72113">
        <ele>201</ele>
        <time>2018-02-04T10:03:10Z</time>
      </trkpt>
      <trkpt lat="45.86868" lon="4.7211">
        <ele>201</ele>
        <time>2018-02-04T10:03:11Z</time>
      </trkpt>
      <trkpt lat="45.86861" lon="4.72109">
        <ele>201</ele>
        <time>2018-02-04T10:03:12Z</time>
      </trkpt>
      <trkpt lat="45.86856" lon="4.72106">
        <ele>200</ele>
        <time>2018-02-04T10:03:13Z</time>
      </trkpt>
      <trkpt lat="45.86851" lon="4.72104">
        <ele>200</ele>
        <time>2018-02-04T10:03:14Z</time>
      </trkpt>
      <trkpt lat="45.86845" lon="4.72101">
        <ele>199</ele>
        <time>2018-02-04T10:03:15Z</time>
      </trkpt>
      <trkpt lat="45.8684" lon="4.72099">
        <ele>198</ele>
        <time>2018-02-04T10:03:16Z</time>
      </trkpt>
      <trkpt lat="45.86835" lon="4.72097">
        <ele>197</ele>
        <time>2018-02-04T10:03:17Z</time>
      </trkpt>
      <trkpt lat="45.86829" lon="4.72094">
        <ele>198</ele>
        <time>2018-02-04T10:03:18Z</time>
      </trkpt>
      <trkpt lat="45.86824" lon="4.72091">
        <ele>198</ele>
        <time>2018-02-04T10:03:19Z</time>
      </trkpt>
      <trkpt lat="45.86819" lon="4.72089">
        <ele>198</ele>
        <time>2018-02-04T10:03:20Z</time>
      </trkpt>
      <trkpt lat="45.86813" lon="4.72087">
        <ele>199</ele>
        <time>2018-02-04T10:03:21Z</time>
      </trkpt>
      <trkpt lat="45.86807" lon="4.72085">
        <ele>200</ele>
        <time>2018-02-04T10:03:22Z</time>
      </trkpt>
      <trkpt lat="45.86801" lon="4.72082">
        <ele>194</ele>
        <time>2018-02-04T10:03:23Z</time>
      </trkpt>
      <trkpt lat="45.86795" lon="4.7208">
        <ele>194</ele>
        <time>2018-02-04T10:03:24Z</time>
      </trkpt>
      <trkpt lat="45.86789" lon="4.72077">
        <ele>194</ele>
        <time>2018-02-04T10:03:25Z</time>
      </trkpt>
      <trkpt lat="45.86783" lon="4.72074">
        <ele>194</ele>
        <time>2018-02-04T10:03:26Z</time>
      </trkpt>
      <trkpt lat="45.86777" lon="4.72071">
        <ele>195</ele>
        <time>2018-02-04T10:03:27Z</time>
      </trkpt>
      <trkpt lat="45.86772" lon="4.72069">
        <ele>195</ele>
        <time>2018-02-04T10:03:28Z</time>
      </trkpt>
      <trkpt lat="45.86765" lon="4.72067">
        <ele>195</ele>
        <time>2018-02-04T10:03:29Z</time>
      </trkpt>
      <trkpt lat="45.86761" lon="4.72064">
        <ele>195</ele>
        <time>2018-02-04T10:03:30Z</time>
      </trkpt>
      <trkpt lat="45.86754" lon="4.72061">
        <ele>195</ele>
        <time>2018-02-04T10:03:31Z</time>
      </trkpt>
      <trkpt lat="45.86748" lon="4.72058">
        <ele>197</ele>
        <time>2018-02-04T10:03:32Z</time>
      </trkpt>
      <trkpt lat="45.86742" lon="4.72055">
        <ele>197</ele>
        <time>2018-02-04T10:03:33Z</time>
      </trkpt>
      <trkpt lat="45.86736" lon="4.72053">
        <ele>197</ele>
        <time>2018-02-04T10:03:34Z</time>
      </trkpt>
      <trkpt lat="45.8673" lon="4.7205">
        <ele>197</ele>
        <time>2018-02-04T10:03:35Z</time>
      </trkpt>
      <trkpt lat="45.86724" lon="4.72048">
        <ele>197</ele>
        <time>2018-02-04T10:03:36Z</time>
      </trkpt>
      <trkpt lat="45.86718" lon="4.72044">
        <ele>197</ele>
        <time>2018-02-04T10:03:37Z</time>
      </trkpt>
      <trkpt lat="45.86713" lon="4.72041">
        <ele>197</ele>
        <time>2018-02-04T10:03:38Z</time>
      </trkpt>
      <trkpt lat="45.86707" lon="4.72037">
        <ele>197</ele>
        <time>2018-02-04T10:03:39Z</time>
      </trkpt>
      <trkpt lat="45.86702" lon="4.72032">
        <ele>197</ele>
        <time>2018-02-04T10:03:40Z</time>
      </trkpt>
      <trkpt lat="45.86696" lon="4.72029">
        <ele>197</ele>
        <time>2018-02-04T10:03:41Z</time>
      </trkpt>
      <trkpt lat="45.86691" lon="4.72026">
        <ele>197</ele>
        <time>2018-02-04T10:03:42Z</time>
      </trkpt>
      <trkpt lat="45.86687" lon="4.72022">
        <ele>197</ele>
        <time>2018-02-04T10:03:43Z</time>
      </trkpt>
      <trkpt lat="45.86679" lon="4.72019">
        <ele>196</ele>
        <time>2018-02-04T10:03:44Z</time>
      </trkpt>
      <trkpt lat="45.86675" lon="4.72015">
        <ele>196</ele>
        <time>2018-02-04T10:03:45Z</time>
      </trkpt>
      <trkpt lat="45.86669" lon="4.7201">
        <ele>196</ele>
        <time>2018-02-04T10:03:46Z</time>
      </trkpt>
      <trkpt lat="45.86664" lon="4.72005">
        <ele>196</ele>
        <time>2018-02-04T10:03:47Z</time>
      </trkpt>
      <trkpt lat="45.86659" lon="4.72002">
        <ele>196</ele>
        <time>2018-02-04T10:03:48Z</time>
      </trkpt>
      <trkpt lat="45.86655" lon="4.71998">
        <ele>195</ele>
        <time>2018-02-04T10:03:49Z</time>
      </trkpt>
      <trkpt lat="45.8665" lon="4.71995">
        <ele>195</ele>
        <time>2018-02-04T10:03:50Z</time>
      </trkpt>
      <trkpt lat="45.86645" lon="4.71991">
        <ele>195</ele>
        <time>2018-02-04T10:03:51Z</time>
      </trkpt>
      <trkpt lat="45.86641" lon="4.71986">
        <ele>195</ele>
        <time>2018-02-04T10:03:52Z</time>
      </trkpt>
      <trkpt lat="45.86635" lon="4.71983">
        <ele>195</ele>
        <time>2018-02-04T10:03:53Z</time>
      </trkpt>
      <trkpt lat="45.86632" lon="4.7198">
        <ele>195</ele>
        <time>2018-02-04T10:03:54Z</time>
      </trkpt>
      <trkpt lat="45.86627" lon="4.71976">
        <ele>195</ele>
        <time>2018-02-04T10:03:55Z</time>
      </trkpt>
      <trkpt lat="45.86623" lon="4.71971">
        <ele>195</ele>
        <time>2018-02-04T10:03:56Z</time>
      </trkpt>
      <trkpt lat="45.86618" lon="4.71967">
        <ele>195</ele>
        <time>2018-02-04T10:03:57Z</time>
      </trkpt>
      <trkpt lat="45.86613" lon="4.71963">
        <ele>195</ele>
        <time>2018-02-04T10:03:58Z</time>
      </trkpt>
      <trkpt lat="45.86607" lon="4.7196">
        <ele>195</ele>
        <time>2018-02-04T10:03:59Z</time>
      </trkpt>
      <trkpt lat="45.86602" lon="4.71956">
        <ele>194</ele>
        <time>2018-02-04T10:04:00Z</time>
      </trkpt>
      <trkpt lat="45.86598" lon="4.71951">
        <ele>194</ele>
        <time>2018-02-04T10:04:01Z</time>
      </trkpt>
      <trkpt lat="45.86594" lon="4.71947">
        <ele>194</ele>
        <time>2018-02-04T10:04:02Z</time>
      </trkpt>
      <trkpt lat="45.86589" lon="4.71945">
        <ele>194</ele>
        <time>2018-02-04T10:04:03Z</time>
      </trkpt>
      <trkpt lat="45.86583" lon="4.7194">
        <ele>195</ele>
        <time>2018-02-04T10:04:04Z</time>
      </trkpt>
      <trkpt lat="45.86579" lon="4.71935">
        <ele>195</ele>
        <time>2018-02-04T10:04:05Z</time>
      </trkpt>
      <trkpt lat="45.86573" lon="4.71931">
        <ele>195</ele>
        <time>2018-02-04T10:04:06Z</time>
      </trkpt>
      <trkpt lat="45.86568" lon="4.71926">
        <ele>195</ele>
        <time>2018-02-04T10:04:07Z</time>
      </trkpt>
      <trkpt lat="45.86563" lon="4.71922">
        <ele>195</ele>
        <time>2018-02-04T10:04:08Z</time>
      </trkpt>
      <trkpt lat="45.86558" lon="4.71919">
        <ele>196</ele>
        <time>2018-02-04T10:04:09Z</time>
      </trkpt>
      <trkpt lat="45.86553" lon="4.71914">
        <ele>195</ele>
        <time>2018-02-04T10:04:10Z</time>
      </trkpt>
      <trkpt lat="45.86548" lon="4.7191">
        <ele>195</ele>
        <time>2018-02-04T10:04:11Z</time>
      </trkpt>
      <trkpt lat="45.86543" lon="4.71907">
        <ele>195</ele>
        <time>2018-02-04T10:04:12Z</time>
      </trkpt>
      <trkpt lat="45.86539" lon="4.71903">
        <ele>195</ele>
        <time>2018-02-04T10:04:13Z</time>
      </trkpt>
      <trkpt lat="45.86535" lon="4.719">
        <ele>195</ele>
        <time>2018-02-04T10:04:14Z</time>
      </trkpt>
      <trkpt lat="45.86531" lon="4.71897">
        <ele>195</ele>
        <time>2018-02-04T10:04:15Z</time>
      </trkpt>
      <trkpt lat="45.86526" lon="4.71894">
        <ele>195</ele>
        <time>2018-02-04T10:04:16Z</time>
      </trkpt>
      <trkpt lat="45.86521" lon="4.71891">
        <ele>195</ele>
        <time>2018-02-04T10:04:17Z</time>
      </trkpt>
      <trkpt lat="45.86517" lon="4.71887">
        <ele>195</ele>
        <time>2018-02-04T10:04:18Z</time>
      </trkpt>
      <trkpt lat="45.86512" lon="4.71882">
        <ele>195</ele>
        <time>2018-02-04T10:04:19Z</time>
      </trkpt>
      <trkpt lat="45.86508" lon="4.71879">
        <ele>195</ele>
        <time>2018-02-04T10:04:20Z</time>
      </trkpt>
      <trkpt lat="45.86501" lon="4.71876">
        <ele>195</ele>
        <time>2018-02-04T10:04:22Z</time>
      </trkpt>
      <trkpt lat="45.86497" lon="4.7187">
        <ele>198</ele>
        <time>2018-02-04T10:04:23Z</time>
      </trkpt>
      <trkpt lat="45.86493" lon="4.71866">
        <ele>198</ele>
        <time>2018-02-04T10:04:24Z</time>
      </trkpt>
      <trkpt lat="45.86489" lon="4.71864">
        <ele>198</ele>
        <time>2018-02-04T10:04:25Z</time>
      </trkpt>
      <trkpt lat="45.86486" lon="4.7186">
        <ele>198</ele>
        <time>2018-02-04T10:04:26Z</time>
      </trkpt>
      <trkpt lat="45.86481" lon="4.71857">
        <ele>198</ele>
        <time>2018-02-04T10:04:27Z</time>
      </trkpt>
      <trkpt lat="45.86476" lon="4.71852">
        <ele>199</ele>
        <time>2018-02-04T10:04:28Z</time>
      </trkpt>
      <trkpt lat="45.86471" lon="4.71849">
        <ele>199</ele>
        <time>2018-02-04T10:04:29Z</time>
      </trkpt>
      <trkpt lat="45.86463" lon="4.71845">
        <ele>199</ele>
        <time>2018-02-04T10:04:31Z</time>
      </trkpt>
      <trkpt lat="45.86459" lon="4.71842">
        <ele>200</ele>
        <time>2018-02-04T10:04:32Z</time>
      </trkpt>
      <trkpt lat="45.86454" lon="4.71839">
        <ele>200</ele>
        <time>2018-02-04T10:04:33Z</time>
      </trkpt>
      <trkpt lat="45.8645" lon="4.71836">
        <ele>200</ele>
        <time>2018-02-04T10:04:34Z</time>
      </trkpt>
      <trkpt lat="45.86445" lon="4.71831">
        <ele>197</ele>
        <time>2018-02-04T10:04:35Z</time>
      </trkpt>
      <trkpt lat="45.86439" lon="4.71825">
        <ele>198</ele>
        <time>2018-02-04T10:04:36Z</time>
      </trkpt>
      <trkpt lat="45.86435" lon="4.71822">
        <ele>198</ele>
        <time>2018-02-04T10:04:37Z</time>
      </trkpt>
      <trkpt lat="45.8643" lon="4.71819">
        <ele>198</ele>
        <time>2018-02-04T10:04:38Z</time>
      </trkpt>
      <trkpt lat="45.86422" lon="4.71812">
        <ele>198</ele>
        <time>2018-02-04T10:04:40Z</time>
      </trkpt>
      <trkpt lat="45.86418" lon="4.71809">
        <ele>198</ele>
        <time>2018-02-04T10:04:41Z</time>
      </trkpt>
      <trkpt lat="45.86413" lon="4.71806">
        <ele>200</ele>
        <time>2018-02-04T10:04:42Z</time>
      </trkpt>
      <trkpt lat="45.86409" lon="4.71802">
        <ele>199</ele>
        <time>2018-02-04T10:04:43Z</time>
      </trkpt>
      <trkpt lat="45.86405" lon="4.71799">
        <ele>199</ele>
        <time>2018-02-04T10:04:44Z</time>
      </trkpt>
      <trkpt lat="45.86401" lon="4.71796">
        <ele>199</ele>
        <time>2018-02-04T10:04:45Z</time>
      </trkpt>
      <trkpt lat="45.86396" lon="4.71793">
        <ele>199</ele>
        <time>2018-02-04T10:04:46Z</time>
      </trkpt>
      <trkpt lat="45.8639" lon="4.7179">
        <ele>199</ele>
        <time>2018-02-04T10:04:47Z</time>
      </trkpt>
      <trkpt lat="45.86386" lon="4.71785">
        <ele>198</ele>
        <time>2018-02-04T10:04:48Z</time>
      </trkpt>
      <trkpt lat="45.86382" lon="4.71781">
        <ele>198</ele>
        <time>2018-02-04T10:04:49Z</time>
      </trkpt>
      <trkpt lat="45.86378" lon="4.71777">
        <ele>198</ele>
        <time>2018-02-04T10:04:50Z</time>
      </trkpt>
      <trkpt lat="45.86373" lon="4.71773">
        <ele>198</ele>
        <time>2018-02-04T10:04:51Z</time>
      </trkpt>
      <trkpt lat="45.86368" lon="4.71769">
        <ele>198</ele>
        <time>2018-02-04T10:04:52Z</time>
      </trkpt>
      <trkpt lat="45.86364" lon="4.71766">
        <ele>198</ele>
        <time>2018-02-04T10:04:53Z</time>
      </trkpt>
      <trkpt lat="45.86359" lon="4.71762">
        <ele>198</ele>
        <time>2018-02-04T10:04:54Z</time>
      </trkpt>
      <trkpt lat="45.86354" lon="4.71759">
        <ele>198</ele>
        <time>2018-02-04T10:04:55Z</time>
      </trkpt>
      <trkpt lat="45.86349" lon="4.71755">
        <ele>197</ele>
        <time>2018-02-04T10:04:56Z</time>
      </trkpt>
      <trkpt lat="45.86345" lon="4.71751">
        <ele>197</ele>
        <time>2018-02-04T10:04:57Z</time>
      </trkpt>
      <trkpt lat="45.86341" lon="4.71747">
        <ele>195</ele>
        <time>2018-02-04T10:04:58Z</time>
      </trkpt>
      <trkpt lat="45.86336" lon="4.71744">
        <ele>195</ele>
        <time>2018-02-04T10:04:59Z</time>
      </trkpt>
      <trkpt lat="45.8633" lon="4.7174">
        <ele>196</ele>
        <time>2018-02-04T10:05:00Z</time>
      </trkpt>
      <trkpt lat="45.86326" lon="4.71737">
        <ele>196</ele>
        <time>2018-02-04T10:05:01Z</time>
      </trkpt>
      <trkpt lat="45.86321" lon="4.71734">
        <ele>196</ele>
        <time>2018-02-04T10:05:02Z</time>
      </trkpt>
      <trkpt lat="45.86317" lon="4.7173">
        <ele>196</ele>
        <time>2018-02-04T10:05:03Z</time>
      </trkpt>
      <trkpt lat="45.86311" lon="4.71724">
        <ele>196</ele>
        <time>2018-02-04T10:05:05Z</time>
      </trkpt>
      <trkpt lat="45.86307" lon="4.7172">
        <ele>196</ele>
        <time>2018-02-04T10:05:06Z</time>
      </trkpt>
      <trkpt lat="45.86303" lon="4.71716">
        <ele>196</ele>
        <time>2018-02-04T10:05:07Z</time>
      </trkpt>
      <trkpt lat="45.86299" lon="4.71712">
        <ele>196</ele>
        <time>2018-02-04T10:05:08Z</time>
      </trkpt>
      <trkpt lat="45.86294" lon="4.71708">
        <ele>195</ele>
        <time>2018-02-04T10:05:09Z</time>
      </trkpt>
      <trkpt lat="45.8629" lon="4.71705">
        <ele>195</ele>
        <time>2018-02-04T10:05:10Z</time>
      </trkpt>
      <trkpt lat="45.86285" lon="4.71701">
        <ele>195</ele>
        <time>2018-02-04T10:05:11Z</time>
      </trkpt>
      <trkpt lat="45.8628" lon="4.71698">
        <ele>195</ele>
        <time>2018-02-04T10:05:12Z</time>
      </trkpt>
      <trkpt lat="45.86274" lon="4.71696">
        <ele>195</ele>
        <time>2018-02-04T10:05:13Z</time>
      </trkpt>
      <trkpt lat="45.8627" lon="4.71692">
        <ele>195</ele>
        <time>2018-02-04T10:05:14Z</time>
      </trkpt>
      <trkpt lat="45.86262" lon="4.71689">
        <ele>195</ele>
        <time>2018-02-04T10:05:15Z</time>
      </trkpt>
      <trkpt lat="45.86258" lon="4.71685">
        <ele>195</ele>
        <time>2018-02-04T10:05:16Z</time>
      </trkpt>
      <trkpt lat="45.86253" lon="4.7168">
        <ele>195</ele>
        <time>2018-02-04T10:05:17Z</time>
      </trkpt>
      <trkpt lat="45.86249" lon="4.71676">
        <ele>196</ele>
        <time>2018-02-04T10:05:18Z</time>
      </trkpt>
      <trkpt lat="45.86245" lon="4.71671">
        <ele>195</ele>
        <time>2018-02-04T10:05:19Z</time>
      </trkpt>
      <trkpt lat="45.8624" lon="4.71666">
        <ele>195</ele>
        <time>2018-02-04T10:05:20Z</time>
      </trkpt>
      <trkpt lat="45.86236" lon="4.71662">
        <ele>195</ele>
        <time>2018-02-04T10:05:21Z</time>
      </trkpt>
      <trkpt lat="45.86232" lon="4.71659">
        <ele>195</ele>
        <time>2018-02-04T10:05:22Z</time>
      </trkpt>
      <trkpt lat="45.86227" lon="4.71655">
        <ele>195</ele>
        <time>2018-02-04T10:05:23Z</time>
      </trkpt>
      <trkpt lat="45.86223" lon="4.71652">
        <ele>195</ele>
        <time>2018-02-04T10:05:24Z</time>
      </trkpt>
      <trkpt lat="45.86219" lon="4.71648">
        <ele>195</ele>
        <time>2018-02-04T10:05:25Z</time>
      </trkpt>
      <trkpt lat="45.86214" lon="4.71646">
        <ele>195</ele>
        <time>2018-02-04T10:05:26Z</time>
      </trkpt>
      <trkpt lat="45.86211" lon="4.71641">
        <ele>195</ele>
        <time>2018-02-04T10:05:27Z</time>
      </trkpt>
      <trkpt lat="45.86208" lon="4.71633">
        <ele>195</ele>
        <time>2018-02-04T10:05:28Z</time>
      </trkpt>
      <trkpt lat="45.86206" lon="4.71625">
        <ele>195</ele>
        <time>2018-02-04T10:05:29Z</time>
      </trkpt>
      <trkpt lat="45.86206" lon="4.71618">
        <ele>195</ele>
        <time>2018-02-04T10:05:30Z</time>
      </trkpt>
      <trkpt lat="45.86203" lon="4.71612">
        <ele>195</ele>
        <time>2018-02-04T10:05:31Z</time>
      </trkpt>
      <trkpt lat="45.86201" lon="4.71605">
        <ele>195</ele>
        <time>2018-02-04T10:05:32Z</time>
      </trkpt>
      <trkpt lat="45.86196" lon="4.716">
        <ele>195</ele>
        <time>2018-02-04T10:05:33Z</time>
      </trkpt>
      <trkpt lat="45.86192" lon="4.71595">
        <ele>195</ele>
        <time>2018-02-04T10:05:34Z</time>
      </trkpt>
      <trkpt lat="45.86187" lon="4.71591">
        <ele>196</ele>
        <time>2018-02-04T10:05:35Z</time>
      </trkpt>
      <trkpt lat="45.86184" lon="4.71585">
        <ele>196</ele>
        <time>2018-02-04T10:05:36Z</time>
      </trkpt>
      <trkpt lat="45.8618" lon="4.71579">
        <ele>196</ele>
        <time>2018-02-04T10:05:37Z</time>
      </trkpt>
      <trkpt lat="45.86177" lon="4.71574">
        <ele>196</ele>
        <time>2018-02-04T10:05:38Z</time>
      </trkpt>
      <trkpt lat="45.86171" lon="4.71564">
        <ele>195</ele>
        <time>2018-02-04T10:05:40Z</time>
      </trkpt>
      <trkpt lat="45.86168" lon="4.71559">
        <ele>195</ele>
        <time>2018-02-04T10:05:41Z</time>
      </trkpt>
      <trkpt lat="45.86165" lon="4.71554">
        <ele>196</ele>
        <time>2018-02-04T10:05:42Z</time>
      </trkpt>
      <trkpt lat="45.86163" lon="4.71548">
        <ele>196</ele>
        <time>2018-02-04T10:05:43Z</time>
      </trkpt>
      <trkpt lat="45.86158" lon="4.71543">
        <ele>196</ele>
        <time>2018-02-04T10:05:44Z</time>
      </trkpt>
      <trkpt lat="45.86154" lon="4.71538">
        <ele>195</ele>
        <time>2018-02-04T10:05:45Z</time>
      </trkpt>
      <trkpt lat="45.8615" lon="4.71532">
        <ele>195</ele>
        <time>2018-02-04T10:05:46Z</time>
      </trkpt>
      <trkpt lat="45.86147" lon="4.71527">
        <ele>195</ele>
        <time>2018-02-04T10:05:47Z</time>
      </trkpt>
      <trkpt lat="45.86144" lon="4.7152">
        <ele>195</ele>
        <time>2018-02-04T10:05:48Z</time>
      </trkpt>
      <trkpt lat="45.8614" lon="4.71514">
        <ele>195</ele>
        <time>2018-02-04T10:05:49Z</time>
      </trkpt>
      <trkpt lat="45.86138" lon="4.71508">
        <ele>195</ele>
        <time>2018-02-04T10:05:50Z</time>
      </trkpt>
      <trkpt lat="45.86135" lon="4.71502">
        <ele>195</ele>
        <time>2018-02-04T10:05:51Z</time>
      </trkpt>
      <trkpt lat="45.86133" lon="4.71494">
        <ele>195</ele>
        <time>2018-02-04T10:05:52Z</time>
      </trkpt>
      <trkpt lat="45.86129" lon="4.71489">
        <ele>195</ele>
        <time>2018-02-04T10:05:53Z</time>
      </trkpt>
      <trkpt lat="45.86129" lon="4.71482">
        <ele>195</ele>
        <time>2018-02-04T10:05:54Z</time>
      </trkpt>
      <trkpt lat="45.86126" lon="4.71476">
        <ele>195</ele>
        <time>2018-02-04T10:05:55Z</time>
      </trkpt>
      <trkpt lat="45.86124" lon="4.71469">
        <ele>195</ele>
        <time>2018-02-04T10:05:56Z</time>
      </trkpt>
      <trkpt lat="45.86121" lon="4.71464">
        <ele>195</ele>
        <time>2018-02-04T10:05:57Z</time>
      </trkpt>
      <trkpt lat="45.86119" lon="4.71458">
        <ele>195</ele>
        <time>2018-02-04T10:05:58Z</time>
      </trkpt>
      <trkpt lat="45.86118" lon="4.71452">
        <ele>195</ele>
        <time>2018-02-04T10:05:59Z</time>
      </trkpt>
      <trkpt lat="45.86117" lon="4.7144">
        <ele>195</ele>
        <time>2018-02-04T10:06:01Z</time>
      </trkpt>
      <trkpt lat="45.86116" lon="4.71433">
        <ele>195</ele>
        <time>2018-02-04T10:06:02Z</time>
      </trkpt>
      <trkpt lat="45.86115" lon="4.71427">
        <ele>195</ele>
        <time>2018-02-04T10:06:03Z</time>
      </trkpt>
      <trkpt lat="45.86114" lon="4.7142">
        <ele>195</ele>
        <time>2018-02-04T10:06:04Z</time>
      </trkpt>
      <trkpt lat="45.86113" lon="4.71414">
        <ele>196</ele>
        <time>2018-02-04T10:06:05Z</time>
      </trkpt>
      <trkpt lat="45.86113" lon="4.71407">
        <ele>196</ele>
        <time>2018-02-04T10:06:06Z</time>
      </trkpt>
      <trkpt lat="45.86112" lon="4.714">
        <ele>196</ele>
        <time>2018-02-04T10:06:07Z</time>
      </trkpt>
      <trkpt lat="45.86111" lon="4.71393">
        <ele>196</ele>
        <time>2018-02-04T10:06:08Z</time>
      </trkpt>
      <trkpt lat="45.8611" lon="4.7138">
        <ele>196</ele>
        <time>2018-02-04T10:06:10Z</time>
      </trkpt>
      <trkpt lat="45.86109" lon="4.71372">
        <ele>196</ele>
        <time>2018-02-04T10:06:11Z</time>
      </trkpt>
      <trkpt lat="45.86107" lon="4.7136">
        <ele>196</ele>
        <time>2018-02-04T10:06:13Z</time>
      </trkpt>
      <trkpt lat="45.86106" lon="4.71352">
        <ele>196</ele>
        <time>2018-02-04T10:06:14Z</time>
      </trkpt>
      <trkpt lat="45.86105" lon="4.71345">
        <ele>196</ele>
        <time>2018-02-04T10:06:15Z</time>
      </trkpt>
      <trkpt lat="45.86104" lon="4.71337">
        <ele>196</ele>
        <time>2018-02-04T10:06:16Z</time>
      </trkpt>
      <trkpt lat="45.86102" lon="4.71329">
        <ele>197</ele>
        <time>2018-02-04T10:06:17Z</time>
      </trkpt>
      <trkpt lat="45.86101" lon="4.71322">
        <ele>197</ele>
        <time>2018-02-04T10:06:18Z</time>
      </trkpt>
      <trkpt lat="45.861" lon="4.71315">
        <ele>197</ele>
        <time>2018-02-04T10:06:19Z</time>
      </trkpt>
      <trkpt lat="45.86099" lon="4.71308">
        <ele>197</ele>
        <time>2018-02-04T10:06:20Z</time>
      </trkpt>
      <trkpt lat="45.86098" lon="4.71302">
        <ele>197</ele>
        <time>2018-02-04T10:06:21Z</time>
      </trkpt>
      <trkpt lat="45.86098" lon="4.71295">
        <ele>197</ele>
        <time>2018-02-04T10:06:22Z</time>
      </trkpt>
      <trkpt lat="45.86095" lon="4.71284">
        <ele>197</ele>
        <time>2018-02-04T10:06:24Z</time>
      </trkpt>
      <trkpt lat="45.86093" lon="4.71278">
        <ele>197</ele>
        <time>2018-02-04T10:06:25Z</time>
      </trkpt>
      <trkpt lat="45.86092" lon="4.71272">
        <ele>197</ele>
        <time>2018-02-04T10:06:26Z</time>
      </trkpt>
      <trkpt lat="45.86089" lon="4.71266">
        <ele>197</ele>
        <time>2018-02-04T10:06:27Z</time>
      </trkpt>
      <trkpt lat="45.86084" lon="4.71256">
        <ele>198</ele>
        <time>2018-02-04T10:06:29Z</time>
      </trkpt>
      <trkpt lat="45.86082" lon="4.71251">
        <ele>198</ele>
        <time>2018-02-04T10:06:30Z</time>
      </trkpt>
      <trkpt lat="45.86081" lon="4.71244">
        <ele>198</ele>
        <time>2018-02-04T10:06:31Z</time>
      </trkpt>
      <trkpt lat="45.8608" lon="4.71237">
        <ele>198</ele>
        <time>2018-02-04T10:06:32Z</time>
      </trkpt>
      <trkpt lat="45.8608" lon="4.7123">
        <ele>198</ele>
        <time>2018-02-04T10:06:33Z</time>
      </trkpt>
      <trkpt lat="45.86081" lon="4.71222">
        <ele>198</ele>
        <time>2018-02-04T10:06:34Z</time>
      </trkpt>
      <trkpt lat="45.86082" lon="4.71211">
        <ele>198</ele>
        <time>2018-02-04T10:06:36Z</time>
      </trkpt>
      <trkpt lat="45.86082" lon="4.71206">
        <ele>198</ele>
        <time>2018-02-04T10:06:37Z</time>
      </trkpt>
      <trkpt lat="45.8608" lon="4.71196">
        <ele>198</ele>
        <time>2018-02-04T10:06:39Z</time>
      </trkpt>
      <trkpt lat="45.86081" lon="4.71188">
        <ele>198</ele>
        <time>2018-02-04T10:06:40Z</time>
      </trkpt>
      <trkpt lat="45.86083" lon="4.71176">
        <ele>198</ele>
        <time>2018-02-04T10:06:42Z</time>
      </trkpt>
      <trkpt lat="45.86085" lon="4.71168">
        <ele>198</ele>
        <time>2018-02-04T10:06:43Z</time>
      </trkpt>
      <trkpt lat="45.86087" lon="4.71162">
        <ele>198</ele>
        <time>2018-02-04T10:06:44Z</time>
      </trkpt>
      <trkpt lat="45.86085" lon="4.71153">
        <ele>197</ele>
        <time>2018-02-04T10:06:45Z</time>
      </trkpt>
      <trkpt lat="45.86082" lon="4.71147">
        <ele>197</ele>
        <time>2018-02-04T10:06:46Z</time>
      </trkpt>
      <trkpt lat="45.86079" lon="4.71142">
        <ele>197</ele>
        <time>2018-02-04T10:06:47Z</time>
      </trkpt>
      <trkpt lat="45.86071" lon="4.71139">
        <ele>197</ele>
        <time>2018-02-04T10:06:49Z</time>
      </trkpt>
      <trkpt lat="45.86067" lon="4.71135">
        <ele>197</ele>
        <time>2018-02-04T10:06:50Z</time>
      </trkpt>
      <trkpt lat="45.86063" lon="4.71131">
        <ele>197</ele>
        <time>2018-02-04T10:06:51Z</time>
      </trkpt>
      <trkpt lat="45.86058" lon="4.71124">
        <ele>197</ele>
        <time>2018-02-04T10:06:52Z</time>
      </trkpt>
      <trkpt lat="45.86054" lon="4.71119">
        <ele>197</ele>
        <time>2018-02-04T10:06:53Z</time>
      </trkpt>
      <trkpt lat="45.8605" lon="4.71115">
        <ele>197</ele>
        <time>2018-02-04T10:06:54Z</time>
      </trkpt>
      <trkpt lat="45.86047" lon="4.7111">
        <ele>197</ele>
        <time>2018-02-04T10:06:55Z</time>
      </trkpt>
      <trkpt lat="45.8604" lon="4.71104">
        <ele>197</ele>
        <time>2018-02-04T10:06:56Z</time>
      </trkpt>
      <trkpt lat="45.86038" lon="4.71098">
        <ele>197</ele>
        <time>2018-02-04T10:06:57Z</time>
      </trkpt>
      <trkpt lat="45.86035" lon="4.71092">
        <ele>197</ele>
        <time>2018-02-04T10:06:58Z</time>
      </trkpt>
      <trkpt lat="45.86033" lon="4.71086">
        <ele>197</ele>
        <time>2018-02-04T10:06:59Z</time>
      </trkpt>
      <trkpt lat="45.86032" lon="4.71078">
        <ele>197</ele>
        <time>2018-02-04T10:07:00Z</time>
      </trkpt>
      <trkpt lat="45.86031" lon="4.71066">
        <ele>197</ele>
        <time>2018-02-04T10:07:01Z</time>
      </trkpt>
      <trkpt lat="45.8603" lon="4.71059">
        <ele>197</ele>
        <time>2018-02-04T10:07:02Z</time>
      </trkpt>
      <trkpt lat="45.8603" lon="4.71047">
        <ele>197</ele>
        <time>2018-02-04T10:07:04Z</time>
      </trkpt>
      <trkpt lat="45.86029" lon="4.71039">
        <ele>197</ele>
        <time>2018-02-04T10:07:05Z</time>
      </trkpt>
      <trkpt lat="45.86026" lon="4.71027">
        <ele>197</ele>
        <time>2018-02-04T10:07:07Z</time>
      </trkpt>
      <trkpt lat="45.86024" lon="4.71024">
        <ele>197</ele>
        <time>2018-02-04T10:07:08Z</time>
      </trkpt>
      <trkpt lat="45.86019" lon="4.71014">
        <ele>197</ele>
        <time>2018-02-04T10:07:10Z</time>
      </trkpt>
      <trkpt lat="45.86014" lon="4.7101">
        <ele>197</ele>
        <time>2018-02-04T10:07:11Z</time>
      </trkpt>
      <trkpt lat="45.86009" lon="4.71005">
        <ele>197</ele>
        <time>2018-02-04T10:07:12Z</time>
      </trkpt>
      <trkpt lat="45.86006" lon="4.71">
        <ele>197</ele>
        <time>2018-02-04T10:07:13Z</time>
      </trkpt>
      <trkpt lat="45.86002" lon="4.70995">
        <ele>197</ele>
        <time>2018-02-04T10:07:14Z</time>
      </trkpt>
      <trkpt lat="45.85998" lon="4.7099">
        <ele>197</ele>
        <time>2018-02-04T10:07:15Z</time>
      </trkpt>
      <trkpt lat="45.85994" lon="4.70986">
        <ele>197</ele>
        <time>2018-02-04T10:07:16Z</time>
      </trkpt>
      <trkpt lat="45.85988" lon="4.70982">
        <ele>197</ele>
        <time>2018-02-04T10:07:17Z</time>
      </trkpt>
      <trkpt lat="45.85984" lon="4.70978">
        <ele>197</ele>
        <time>2018-02-04T10:07:18Z</time>
      </trkpt>
      <trkpt lat="45.85979" lon="4.70975">
        <ele>197</ele>
        <time>2018-02-04T10:07:19Z</time>
      </trkpt>
      <trkpt lat="45.85974" lon="4.70973">
        <ele>197</ele>
        <time>2018-02-04T10:07:20Z</time>
      </trkpt>
      <trkpt lat="45.85968" lon="4.70972">
        <ele>197</ele>
        <time>2018-02-04T10:07:21Z</time>
      </trkpt>
      <trkpt lat="45.85963" lon="4.70972">
        <ele>197</ele>
        <time>2018-02-04T10:07:22Z</time>
      </trkpt>
      <trkpt lat="45.85958" lon="4.70971">
        <ele>197</ele>
        <time>2018-02-04T10:07:23Z</time>
      </trkpt>
      <trkpt lat="45.85953" lon="4.70971">
        <ele>197</ele>
        <time>2018-02-04T10:07:24Z</time>
      </trkpt>
      <trkpt lat="45.85948" lon="4.70971">
        <ele>197</ele>
        <time>2018-02-04T10:07:25Z</time>
      </trkpt>
      <trkpt lat="45.85941" lon="4.70966">
        <ele>197</ele>
        <time>2018-02-04T10:07:27Z</time>
      </trkpt>
      <trkpt lat="45.85939" lon="4.70961">
        <ele>197</ele>
        <time>2018-02-04T10:07:28Z</time>
      </trkpt>
      <trkpt lat="45.85938" lon="4.7095">
        <ele>197</ele>
        <time>2018-02-04T10:07:30Z</time>
      </trkpt>
      <trkpt lat="45.85939" lon="4.70946">
        <ele>197</ele>
        <time>2018-02-04T10:07:31Z</time>
      </trkpt>
      <trkpt lat="45.8594" lon="4.70939">
        <ele>197</ele>
        <time>2018-02-04T10:07:32Z</time>
      </trkpt>
      <trkpt lat="45.85942" lon="4.70933">
        <ele>197</ele>
        <time>2018-02-04T10:07:33Z</time>
      </trkpt>
      <trkpt lat="45.85944" lon="4.70926">
        <ele>197</ele>
        <time>2018-02-04T10:07:34Z</time>
      </trkpt>
      <trkpt lat="45.85946" lon="4.7092">
        <ele>197</ele>
        <time>2018-02-04T10:07:35Z</time>
      </trkpt>
      <trkpt lat="45.85948" lon="4.70912">
        <ele>197</ele>
        <time>2018-02-04T10:07:36Z</time>
      </trkpt>
      <trkpt lat="45.8595" lon="4.70906">
        <ele>197</ele>
        <time>2018-02-04T10:07:37Z</time>
      </trkpt>
      <trkpt lat="45.85952" lon="4.70898">
        <ele>197</ele>
        <time>2018-02-04T10:07:38Z</time>
      </trkpt>
      <trkpt lat="45.85954" lon="4.70891">
        <ele>197</ele>
        <time>2018-02-04T10:07:39Z</time>
      </trkpt>
      <trkpt lat="45.85956" lon="4.70884">
        <ele>197</ele>
        <time>2018-02-04T10:07:40Z</time>
      </trkpt>
      <trkpt lat="45.85958" lon="4.70877">
        <ele>197</ele>
        <time>2018-02-04T10:07:41Z</time>
      </trkpt>
      <trkpt lat="45.85959" lon="4.7087">
        <ele>196</ele>
        <time>2018-02-04T10:07:42Z</time>
      </trkpt>
      <trkpt lat="45.85959" lon="4.70863">
        <ele>196</ele>
        <time>2018-02-04T10:07:43Z</time>
      </trkpt>
      <trkpt lat="45.8596" lon="4.70855">
        <ele>196</ele>
        <time>2018-02-04T10:07:44Z</time>
      </trkpt>
      <trkpt lat="45.8596" lon="4.70848">
        <ele>196</ele>
        <time>2018-02-04T10:07:45Z</time>
      </trkpt>
      <trkpt lat="45.85958" lon="4.70837">
        <ele>196</ele>
        <time>2018-02-04T10:07:47Z</time>
      </trkpt>
      <trkpt lat="45.85958" lon="4.7083">
        <ele>196</ele>
        <time>2018-02-04T10:07:48Z</time>
      </trkpt>
      <trkpt lat="45.85959" lon="4.70822">
        <ele>195</ele>
        <time>2018-02-04T10:07:49Z</time>
      </trkpt>
      <trkpt lat="45.85958" lon="4.70816">
        <ele>195</ele>
        <time>2018-02-04T10:07:50Z</time>
      </trkpt>
      <trkpt lat="45.85957" lon="4.70809">
        <ele>195</ele>
        <time>2018-02-04T10:07:51Z</time>
      </trkpt>
      <trkpt lat="45.85956" lon="4.70803">
        <ele>195</ele>
        <time>2018-02-04T10:07:52Z</time>
      </trkpt>
      <trkpt lat="45.85955" lon="4.7079">
        <ele>195</ele>
        <time>2018-02-04T10:07:54Z</time>
      </trkpt>
      <trkpt lat="45.85956" lon="4.70781">
        <ele>195</ele>
        <time>2018-02-04T10:07:55Z</time>
      </trkpt>
      <trkpt lat="45.85956" lon="4.70774">
        <ele>195</ele>
        <time>2018-02-04T10:07:56Z</time>
      </trkpt>
      <trkpt lat="45.85956" lon="4.70767">
        <ele>195</ele>
        <time>2018-02-04T10:07:57Z</time>
      </trkpt>
      <trkpt lat="45.85956" lon="4.70761">
        <ele>195</ele>
        <time>2018-02-04T10:07:58Z</time>
      </trkpt>
      <trkpt lat="45.85956" lon="4.70753">
        <ele>195</ele>
        <time>2018-02-04T10:07:59Z</time>
      </trkpt>
      <trkpt lat="45.85956" lon="4.70746">
        <ele>194</ele>
        <time>2018-02-04T10:08:00Z</time>
      </trkpt>
      <trkpt lat="45.85957" lon="4.70739">
        <ele>194</ele>
        <time>2018-02-04T10:08:01Z</time>
      </trkpt>
      <trkpt lat="45.85957" lon="4.70727">
        <ele>194</ele>
        <time>2018-02-04T10:08:03Z</time>
      </trkpt>
      <trkpt lat="45.85958" lon="4.7072">
        <ele>194</ele>
        <time>2018-02-04T10:08:04Z</time>
      </trkpt>
      <trkpt lat="45.85958" lon="4.70714">
        <ele>194</ele>
        <time>2018-02-04T10:08:05Z</time>
      </trkpt>
      <trkpt lat="45.85958" lon="4.70705">
        <ele>194</ele>
        <time>2018-02-04T10:08:06Z</time>
      </trkpt>
      <trkpt lat="45.85958" lon="4.70699">
        <ele>194</ele>
        <time>2018-02-04T10:08:07Z</time>
      </trkpt>
      <trkpt lat="45.85957" lon="4.70692">
        <ele>194</ele>
        <time>2018-02-04T10:08:08Z</time>
      </trkpt>
      <trkpt lat="45.85956" lon="4.70684">
        <ele>194</ele>
        <time>2018-02-04T10:08:09Z</time>
      </trkpt>
      <trkpt lat="45.85952" lon="4.70677">
        <ele>194</ele>
        <time>2018-02-04T10:08:10Z</time>
      </trkpt>
      <trkpt lat="45.8595" lon="4.7067">
        <ele>194</ele>
        <time>2018-02-04T10:08:11Z</time>
      </trkpt>
      <trkpt lat="45.85947" lon="4.70663">
        <ele>194</ele>
        <time>2018-02-04T10:08:12Z</time>
      </trkpt>
      <trkpt lat="45.85943" lon="4.70656">
        <ele>194</ele>
        <time>2018-02-04T10:08:13Z</time>
      </trkpt>
      <trkpt lat="45.8594" lon="4.70649">
        <ele>194</ele>
        <time>2018-02-04T10:08:14Z</time>
      </trkpt>
      <trkpt lat="45.85936" lon="4.70642">
        <ele>194</ele>
        <time>2018-02-04T10:08:15Z</time>
      </trkpt>
      <trkpt lat="45.85932" lon="4.70637">
        <ele>194</ele>
        <time>2018-02-04T10:08:16Z</time>
      </trkpt>
      <trkpt lat="45.85927" lon="4.70627">
        <ele>194</ele>
        <time>2018-02-04T10:08:18Z</time>
      </trkpt>
      <trkpt lat="45.85924" lon="4.70622">
        <ele>194</ele>
        <time>2018-02-04T10:08:19Z</time>
      </trkpt>
      <trkpt lat="45.85918" lon="4.70613">
        <ele>194</ele>
        <time>2018-02-04T10:08:21Z</time>
      </trkpt>
      <trkpt lat="45.85916" lon="4.70608">
        <ele>195</ele>
        <time>2018-02-04T10:08:22Z</time>
      </trkpt>
      <trkpt lat="45.85912" lon="4.70603">
        <ele>195</ele>
        <time>2018-02-04T10:08:23Z</time>
      </trkpt>
      <trkpt lat="45.85908" lon="4.70598">
        <ele>195</ele>
        <time>2018-02-04T10:08:24Z</time>
      </trkpt>
      <trkpt lat="45.85904" lon="4.70593">
        <ele>195</ele>
        <time>2018-02-04T10:08:25Z</time>
      </trkpt>
      <trkpt lat="45.859" lon="4.70588">
        <ele>195</ele>
        <time>2018-02-04T10:08:26Z</time>
      </trkpt>
      <trkpt lat="45.85896" lon="4.70585">
        <ele>195</ele>
        <time>2018-02-04T10:08:27Z</time>
      </trkpt>
      <trkpt lat="45.85891" lon="4.70581">
        <ele>195</ele>
        <time>2018-02-04T10:08:28Z</time>
      </trkpt>
      <trkpt lat="45.85886" lon="4.7058">
        <ele>195</ele>
        <time>2018-02-04T10:08:29Z</time>
      </trkpt>
      <trkpt lat="45.85882" lon="4.70578">
        <ele>195</ele>
        <time>2018-02-04T10:08:30Z</time>
      </trkpt>
      <trkpt lat="45.85877" lon="4.70576">
        <ele>195</ele>
        <time>2018-02-04T10:08:31Z</time>
      </trkpt>
      <trkpt lat="45.85871" lon="4.70575">
        <ele>195</ele>
        <time>2018-02-04T10:08:32Z</time>
      </trkpt>
      <trkpt lat="45.85866" lon="4.70573">
        <ele>195</ele>
        <time>2018-02-04T10:08:33Z</time>
      </trkpt>
      <trkpt lat="45.85861" lon="4.70571">
        <ele>195</ele>
        <time>2018-02-04T10:08:34Z</time>
      </trkpt>
      <trkpt lat="45.85856" lon="4.7057">
        <ele>195</ele>
        <time>2018-02-04T10:08:35Z</time>
      </trkpt>
      <trkpt lat="45.85851" lon="4.70568">
        <ele>195</ele>
        <time>2018-02-04T10:08:36Z</time>
      </trkpt>
      <trkpt lat="45.85846" lon="4.70566">
        <ele>195</ele>
        <time>2018-02-04T10:08:37Z</time>
      </trkpt>
      <trkpt lat="45.85842" lon="4.70564">
        <ele>195</ele>
        <time>2018-02-04T10:08:38Z</time>
      </trkpt>
      <trkpt lat="45.85837" lon="4.70563">
        <ele>195</ele>
        <time>2018-02-04T10:08:39Z</time>
      </trkpt>
      <trkpt lat="45.85831" lon="4.70561">
        <ele>195</ele>
        <time>2018-02-04T10:08:40Z</time>
      </trkpt>
      <trkpt lat="45.85827" lon="4.70557">
        <ele>195</ele>
        <time>2018-02-04T10:08:41Z</time>
      </trkpt>
      <trkpt lat="45.85823" lon="4.70555">
        <ele>195</ele>
        <time>2018-02-04T10:08:42Z</time>
      </trkpt>
      <trkpt lat="45.85817" lon="4.70553">
        <ele>195</ele>
        <time>2018-02-04T10:08:43Z</time>
      </trkpt>
      <trkpt lat="45.85813" lon="4.70551">
        <ele>195</ele>
        <time>2018-02-04T10:08:44Z</time>
      </trkpt>
      <trkpt lat="45.85808" lon="4.70549">
        <ele>195</ele>
        <time>2018-02-04T10:08:45Z</time>
      </trkpt>
      <trkpt lat="45.85803" lon="4.70548">
        <ele>195</ele>
        <time>2018-02-04T10:08:46Z</time>
      </trkpt>
      <trkpt lat="45.85794" lon="4.70543">
        <ele>195</ele>
        <time>2018-02-04T10:08:48Z</time>
      </trkpt>
      <trkpt lat="45.8579" lon="4.70539">
        <ele>196</ele>
        <time>2018-02-04T10:08:49Z</time>
      </trkpt>
      <trkpt lat="45.85785" lon="4.70537">
        <ele>196</ele>
        <time>2018-02-04T10:08:50Z</time>
      </trkpt>
      <trkpt lat="45.8578" lon="4.70534">
        <ele>196</ele>
        <time>2018-02-04T10:08:51Z</time>
      </trkpt>
      <trkpt lat="45.85775" lon="4.70531">
        <ele>196</ele>
        <time>2018-02-04T10:08:52Z</time>
      </trkpt>
      <trkpt lat="45.85772" lon="4.70528">
        <ele>196</ele>
        <time>2018-02-04T10:08:53Z</time>
      </trkpt>
      <trkpt lat="45.85768" lon="4.70525">
        <ele>196</ele>
        <time>2018-02-04T10:08:54Z</time>
      </trkpt>
      <trkpt lat="45.85764" lon="4.70522">
        <ele>196</ele>
        <time>2018-02-04T10:08:55Z</time>
      </trkpt>
      <trkpt lat="45.85759" lon="4.70518">
        <ele>196</ele>
        <time>2018-02-04T10:08:56Z</time>
      </trkpt>
      <trkpt lat="45.85755" lon="4.70513">
        <ele>196</ele>
        <time>2018-02-04T10:08:57Z</time>
      </trkpt>
      <trkpt lat="45.85751" lon="4.70509">
        <ele>196</ele>
        <time>2018-02-04T10:08:58Z</time>
      </trkpt>
      <trkpt lat="45.85746" lon="4.70506">
        <ele>196</ele>
        <time>2018-02-04T10:08:59Z</time>
      </trkpt>
      <trkpt lat="45.85742" lon="4.70502">
        <ele>196</ele>
        <time>2018-02-04T10:09:00Z</time>
      </trkpt>
      <trkpt lat="45.85738" lon="4.70497">
        <ele>196</ele>
        <time>2018-02-04T10:09:01Z</time>
      </trkpt>
      <trkpt lat="45.85733" lon="4.70493">
        <ele>196</ele>
        <time>2018-02-04T10:09:02Z</time>
      </trkpt>
      <trkpt lat="45.8573" lon="4.70488">
        <ele>196</ele>
        <time>2018-02-04T10:09:03Z</time>
      </trkpt>
      <trkpt lat="45.85727" lon="4.70482">
        <ele>196</ele>
        <time>2018-02-04T10:09:04Z</time>
      </trkpt>
      <trkpt lat="45.85725" lon="4.70475">
        <ele>196</ele>
        <time>2018-02-04T10:09:05Z</time>
      </trkpt>
      <trkpt lat="45.85723" lon="4.70469">
        <ele>196</ele>
        <time>2018-02-04T10:09:06Z</time>
      </trkpt>
      <trkpt lat="45.85722" lon="4.70462">
        <ele>196</ele>
        <time>2018-02-04T10:09:07Z</time>
      </trkpt>
      <trkpt lat="45.85722" lon="4.70455">
        <ele>196</ele>
        <time>2018-02-04T10:09:08Z</time>
      </trkpt>
      <trkpt lat="45.85721" lon="4.70448">
        <ele>196</ele>
        <time>2018-02-04T10:09:09Z</time>
      </trkpt>
      <trkpt lat="45.8572" lon="4.7044">
        <ele>196</ele>
        <time>2018-02-04T10:09:10Z</time>
      </trkpt>
      <trkpt lat="45.85718" lon="4.70433">
        <ele>196</ele>
        <time>2018-02-04T10:09:11Z</time>
      </trkpt>
      <trkpt lat="45.85718" lon="4.70425">
        <ele>196</ele>
        <time>2018-02-04T10:09:12Z</time>
      </trkpt>
      <trkpt lat="45.85716" lon="4.7042">
        <ele>196</ele>
        <time>2018-02-04T10:09:13Z</time>
      </trkpt>
      <trkpt lat="45.85715" lon="4.70412">
        <ele>196</ele>
        <time>2018-02-04T10:09:14Z</time>
      </trkpt>
      <trkpt lat="45.85714" lon="4.70405">
        <ele>196</ele>
        <time>2018-02-04T10:09:15Z</time>
      </trkpt>
      <trkpt lat="45.85713" lon="4.70397">
        <ele>196</ele>
        <time>2018-02-04T10:09:16Z</time>
      </trkpt>
      <trkpt lat="45.85711" lon="4.70391">
        <ele>196</ele>
        <time>2018-02-04T10:09:17Z</time>
      </trkpt>
      <trkpt lat="45.8571" lon="4.70382">
        <ele>196</ele>
        <time>2018-02-04T10:09:18Z</time>
      </trkpt>
      <trkpt lat="45.85708" lon="4.70375">
        <ele>196</ele>
        <time>2018-02-04T10:09:19Z</time>
      </trkpt>
      <trkpt lat="45.85708" lon="4.70368">
        <ele>196</ele>
        <time>2018-02-04T10:09:20Z</time>
      </trkpt>
      <trkpt lat="45.85707" lon="4.7036">
        <ele>196</ele>
        <time>2018-02-04T10:09:21Z</time>
      </trkpt>
      <trkpt lat="45.85706" lon="4.70352">
        <ele>196</ele>
        <time>2018-02-04T10:09:22Z</time>
      </trkpt>
      <trkpt lat="45.85706" lon="4.70344">
        <ele>196</ele>
        <time>2018-02-04T10:09:23Z</time>
      </trkpt>
      <trkpt lat="45.85704" lon="4.70335">
        <ele>196</ele>
        <time>2018-02-04T10:09:24Z</time>
      </trkpt>
      <trkpt lat="45.85703" lon="4.70327">
        <ele>197</ele>
        <time>2018-02-04T10:09:25Z</time>
      </trkpt>
      <trkpt lat="45.85703" lon="4.7032">
        <ele>197</ele>
        <time>2018-02-04T10:09:26Z</time>
      </trkpt>
      <trkpt lat="45.85702" lon="4.70313">
        <ele>197</ele>
        <time>2018-02-04T10:09:27Z</time>
      </trkpt>
      <trkpt lat="45.857" lon="4.70305">
        <ele>197</ele>
        <time>2018-02-04T10:09:28Z</time>
      </trkpt>
      <trkpt lat="45.857" lon="4.70297">
        <ele>197</ele>
        <time>2018-02-04T10:09:29Z</time>
      </trkpt>
      <trkpt lat="45.85698" lon="4.7029">
        <ele>197</ele>
        <time>2018-02-04T10:09:30Z</time>
      </trkpt>
      <trkpt lat="45.85698" lon="4.70283">
        <ele>197</ele>
        <time>2018-02-04T10:09:31Z</time>
      </trkpt>
      <trkpt lat="45.85698" lon="4.70276">
        <ele>197</ele>
        <time>2018-02-04T10:09:32Z</time>
      </trkpt>
      <trkpt lat="45.85697" lon="4.70268">
        <ele>197</ele>
        <time>2018-02-04T10:09:33Z</time>
      </trkpt>
      <trkpt lat="45.85696" lon="4.70261">
        <ele>197</ele>
        <time>2018-02-04T10:09:34Z</time>
      </trkpt>
      <trkpt lat="45.85692" lon="4.70256">
        <ele>197</ele>
        <time>2018-02-04T10:09:35Z</time>
      </trkpt>
      <trkpt lat="45.85689" lon="4.70244">
        <ele>197</ele>
        <time>2018-02-04T10:09:37Z</time>
      </trkpt>
      <trkpt lat="45.85689" lon="4.70236">
        <ele>197</ele>
        <time>2018-02-04T10:09:38Z</time>
      </trkpt>
      <trkpt lat="45.85688" lon="4.70228">
        <ele>197</ele>
        <time>2018-02-04T10:09:39Z</time>
      </trkpt>
      <trkpt lat="45.85687" lon="4.7022">
        <ele>197</ele>
        <time>2018-02-04T10:09:40Z</time>
      </trkpt>
      <trkpt lat="45.85686" lon="4.70213">
        <ele>197</ele>
        <time>2018-02-04T10:09:41Z</time>
      </trkpt>
      <trkpt lat="45.85684" lon="4.70206">
        <ele>197</ele>
        <time>2018-02-04T10:09:42Z</time>
      </trkpt>
      <trkpt lat="45.85682" lon="4.70199">
        <ele>197</ele>
        <time>2018-02-04T10:09:43Z</time>
      </trkpt>
      <trkpt lat="45.85681" lon="4.70193">
        <ele>197</ele>
        <time>2018-02-04T10:09:44Z</time>
      </trkpt>
      <trkpt lat="45.8568" lon="4.70185">
        <ele>197</ele>
        <time>2018-02-04T10:09:45Z</time>
      </trkpt>
      <trkpt lat="45.85678" lon="4.70177">
        <ele>197</ele>
        <time>2018-02-04T10:09:46Z</time>
      </trkpt>
      <trkpt lat="45.85677" lon="4.70169">
        <ele>197</ele>
        <time>2018-02-04T10:09:47Z</time>
      </trkpt>
      <trkpt lat="45.85676" lon="4.70162">
        <ele>197</ele>
        <time>2018-02-04T10:09:48Z</time>
      </trkpt>
      <trkpt lat="45.85674" lon="4.70154">
        <ele>197</ele>
        <time>2018-02-04T10:09:49Z</time>
      </trkpt>
      <trkpt lat="45.85674" lon="4.70148">
        <ele>197</ele>
        <time>2018-02-04T10:09:50Z</time>
      </trkpt>
      <trkpt lat="45.85673" lon="4.70137">
        <ele>197</ele>
        <time>2018-02-04T10:09:51Z</time>
      </trkpt>
      <trkpt lat="45.85671" lon="4.70128">
        <ele>197</ele>
        <time>2018-02-04T10:09:52Z</time>
      </trkpt>
      <trkpt lat="45.85671" lon="4.70122">
        <ele>197</ele>
        <time>2018-02-04T10:09:53Z</time>
      </trkpt>
      <trkpt lat="45.85672" lon="4.70113">
        <ele>197</ele>
        <time>2018-02-04T10:09:54Z</time>
      </trkpt>
      <trkpt lat="45.85673" lon="4.70104">
        <ele>196</ele>
        <time>2018-02-04T10:09:55Z</time>
      </trkpt>
      <trkpt lat="45.85673" lon="4.70097">
        <ele>196</ele>
        <time>2018-02-04T10:09:56Z</time>
      </trkpt>
      <trkpt lat="45.85675" lon="4.70084">
        <ele>196</ele>
        <time>2018-02-04T10:09:58Z</time>
      </trkpt>
      <trkpt lat="45.85676" lon="4.70079">
        <ele>196</ele>
        <time>2018-02-04T10:09:59Z</time>
      </trkpt>
      <trkpt lat="45.85677" lon="4.7007">
        <ele>196</ele>
        <time>2018-02-04T10:10:01Z</time>
      </trkpt>
      <trkpt lat="45.85678" lon="4.70065">
        <ele>196</ele>
        <time>2018-02-04T10:10:02Z</time>
      </trkpt>
      <trkpt lat="45.8568" lon="4.70055">
        <ele>195</ele>
        <time>2018-02-04T10:10:04Z</time>
      </trkpt>
      <trkpt lat="45.85681" lon="4.70051">
        <ele>195</ele>
        <time>2018-02-04T10:10:05Z</time>
      </trkpt>
      <trkpt lat="45.85683" lon="4.7004">
        <ele>195</ele>
        <time>2018-02-04T10:10:07Z</time>
      </trkpt>
      <trkpt lat="45.85685" lon="4.70031">
        <ele>195</ele>
        <time>2018-02-04T10:10:08Z</time>
      </trkpt>
      <trkpt lat="45.85686" lon="4.70026">
        <ele>195</ele>
        <time>2018-02-04T10:10:09Z</time>
      </trkpt>
      <trkpt lat="45.85686" lon="4.70018">
        <ele>195</ele>
        <time>2018-02-04T10:10:10Z</time>
      </trkpt>
      <trkpt lat="45.85687" lon="4.7001">
        <ele>195</ele>
        <time>2018-02-04T10:10:11Z</time>
      </trkpt>
      <trkpt lat="45.85688" lon="4.70002">
        <ele>195</ele>
        <time>2018-02-04T10:10:12Z</time>
      </trkpt>
      <trkpt lat="45.85687" lon="4.69995">
        <ele>195</ele>
        <time>2018-02-04T10:10:13Z</time>
      </trkpt>
      <trkpt lat="45.85686" lon="4.69987">
        <ele>195</ele>
        <time>2018-02-04T10:10:14Z</time>
      </trkpt>
      <trkpt lat="45.85684" lon="4.6998">
        <ele>195</ele>
        <time>2018-02-04T10:10:15Z</time>
      </trkpt>
      <trkpt lat="45.85683" lon="4.69972">
        <ele>195</ele>
        <time>2018-02-04T10:10:16Z</time>
      </trkpt>
      <trkpt lat="45.85681" lon="4.69965">
        <ele>195</ele>
        <time>2018-02-04T10:10:17Z</time>
      </trkpt>
      <trkpt lat="45.85679" lon="4.69957">
        <ele>195</ele>
        <time>2018-02-04T10:10:18Z</time>
      </trkpt>
      <trkpt lat="45.85677" lon="4.69949">
        <ele>195</ele>
        <time>2018-02-04T10:10:19Z</time>
      </trkpt>
      <trkpt lat="45.85675" lon="4.69942">
        <ele>195</ele>
        <time>2018-02-04T10:10:20Z</time>
      </trkpt>
      <trkpt lat="45.85673" lon="4.69934">
        <ele>195</ele>
        <time>2018-02-04T10:10:21Z</time>
      </trkpt>
      <trkpt lat="45.85671" lon="4.69927">
        <ele>195</ele>
        <time>2018-02-04T10:10:22Z</time>
      </trkpt>
      <trkpt lat="45.85669" lon="4.6992">
        <ele>195</ele>
        <time>2018-02-04T10:10:23Z</time>
      </trkpt>
      <trkpt lat="45.85668" lon="4.69913">
        <ele>195</ele>
        <time>2018-02-04T10:10:24Z</time>
      </trkpt>
      <trkpt lat="45.85667" lon="4.69906">
        <ele>195</ele>
        <time>2018-02-04T10:10:25Z</time>
      </trkpt>
      <trkpt lat="45.85666" lon="4.699">
        <ele>195</ele>
        <time>2018-02-04T10:10:26Z</time>
      </trkpt>
      <trkpt lat="45.85665" lon="4.69893">
        <ele>195</ele>
        <time>2018-02-04T10:10:27Z</time>
      </trkpt>
      <trkpt lat="45.85664" lon="4.69886">
        <ele>195</ele>
        <time>2018-02-04T10:10:28Z</time>
      </trkpt>
      <trkpt lat="45.85663" lon="4.6988">
        <ele>195</ele>
        <time>2018-02-04T10:10:29Z</time>
      </trkpt>
      <trkpt lat="45.85662" lon="4.69873">
        <ele>195</ele>
        <time>2018-02-04T10:10:30Z</time>
      </trkpt>
      <trkpt lat="45.85661" lon="4.69866">
        <ele>195</ele>
        <time>2018-02-04T10:10:31Z</time>
      </trkpt>
      <trkpt lat="45.85661" lon="4.69858">
        <ele>195</ele>
        <time>2018-02-04T10:10:32Z</time>
      </trkpt>
      <trkpt lat="45.8566" lon="4.6985">
        <ele>195</ele>
        <time>2018-02-04T10:10:33Z</time>
      </trkpt>
      <trkpt lat="45.85659" lon="4.69842">
        <ele>195</ele>
        <time>2018-02-04T10:10:34Z</time>
      </trkpt>
      <trkpt lat="45.85659" lon="4.69835">
        <ele>195</ele>
        <time>2018-02-04T10:10:35Z</time>
      </trkpt>
      <trkpt lat="45.85658" lon="4.69826">
        <ele>195</ele>
        <time>2018-02-04T10:10:36Z</time>
      </trkpt>
      <trkpt lat="45.85658" lon="4.69818">
        <ele>195</ele>
        <time>2018-02-04T10:10:37Z</time>
      </trkpt>
      <trkpt lat="45.85657" lon="4.69812">
        <ele>195</ele>
        <time>2018-02-04T10:10:38Z</time>
      </trkpt>
      <trkpt lat="45.85656" lon="4.69804">
        <ele>195</ele>
        <time>2018-02-04T10:10:39Z</time>
      </trkpt>
      <trkpt lat="45.85656" lon="4.69796">
        <ele>195</ele>
        <time>2018-02-04T10:10:40Z</time>
      </trkpt>
      <trkpt lat="45.85655" lon="4.69788">
        <ele>195</ele>
        <time>2018-02-04T10:10:41Z</time>
      </trkpt>
      <trkpt lat="45.85654" lon="4.6978">
        <ele>195</ele>
        <time>2018-02-04T10:10:42Z</time>
      </trkpt>
      <trkpt lat="45.85654" lon="4.69772">
        <ele>195</ele>
        <time>2018-02-04T10:10:43Z</time>
      </trkpt>
      <trkpt lat="45.85653" lon="4.69764">
        <ele>195</ele>
        <time>2018-02-04T10:10:44Z</time>
      </trkpt>
      <trkpt lat="45.85653" lon="4.69756">
        <ele>195</ele>
        <time>2018-02-04T10:10:45Z</time>
      </trkpt>
      <trkpt lat="45.85652" lon="4.69748">
        <ele>195</ele>
        <time>2018-02-04T10:10:46Z</time>
      </trkpt>
      <trkpt lat="45.85651" lon="4.6974">
        <ele>195</ele>
        <time>2018-02-04T10:10:47Z</time>
      </trkpt>
      <trkpt lat="45.8565" lon="4.69732">
        <ele>195</ele>
        <time>2018-02-04T10:10:48Z</time>
      </trkpt>
      <trkpt lat="45.8565" lon="4.69725">
        <ele>195</ele>
        <time>2018-02-04T10:10:49Z</time>
      </trkpt>
      <trkpt lat="45.85648" lon="4.69717">
        <ele>196</ele>
        <time>2018-02-04T10:10:50Z</time>
      </trkpt>
      <trkpt lat="45.85647" lon="4.69711">
        <ele>196</ele>
        <time>2018-02-04T10:10:51Z</time>
      </trkpt>
      <trkpt lat="45.85646" lon="4.69703">
        <ele>196</ele>
        <time>2018-02-04T10:10:52Z</time>
      </trkpt>
      <trkpt lat="45.85645" lon="4.69696">
        <ele>196</ele>
        <time>2018-02-04T10:10:53Z</time>
      </trkpt>
      <trkpt lat="45.85645" lon="4.69688">
        <ele>196</ele>
        <time>2018-02-04T10:10:54Z</time>
      </trkpt>
      <trkpt lat="45.85644" lon="4.6968">
        <ele>196</ele>
        <time>2018-02-04T10:10:55Z</time>
      </trkpt>
      <trkpt lat="45.85644" lon="4.69673">
        <ele>196</ele>
        <time>2018-02-04T10:10:56Z</time>
      </trkpt>
      <trkpt lat="45.85643" lon="4.69665">
        <ele>197</ele>
        <time>2018-02-04T10:10:57Z</time>
      </trkpt>
      <trkpt lat="45.85643" lon="4.69657">
        <ele>197</ele>
        <time>2018-02-04T10:10:58Z</time>
      </trkpt>
      <trkpt lat="45.85642" lon="4.6965">
        <ele>197</ele>
        <time>2018-02-04T10:10:59Z</time>
      </trkpt>
      <trkpt lat="45.85641" lon="4.69642">
        <ele>197</ele>
        <time>2018-02-04T10:11:00Z</time>
      </trkpt>
      <trkpt lat="45.85641" lon="4.69635">
        <ele>197</ele>
        <time>2018-02-04T10:11:01Z</time>
      </trkpt>
      <trkpt lat="45.8564" lon="4.69627">
        <ele>197</ele>
        <time>2018-02-04T10:11:02Z</time>
      </trkpt>
      <trkpt lat="45.85639" lon="4.69621">
        <ele>197</ele>
        <time>2018-02-04T10:11:03Z</time>
      </trkpt>
      <trkpt lat="45.85638" lon="4.69613">
        <ele>197</ele>
        <time>2018-02-04T10:11:04Z</time>
      </trkpt>
      <trkpt lat="45.85637" lon="4.69605">
        <ele>197</ele>
        <time>2018-02-04T10:11:05Z</time>
      </trkpt>
      <trkpt lat="45.85636" lon="4.69597">
        <ele>197</ele>
        <time>2018-02-04T10:11:06Z</time>
      </trkpt>
      <trkpt lat="45.85635" lon="4.6959">
        <ele>197</ele>
        <time>2018-02-04T10:11:07Z</time>
      </trkpt>
      <trkpt lat="45.85635" lon="4.69583">
        <ele>198</ele>
        <time>2018-02-04T10:11:08Z</time>
      </trkpt>
      <trkpt lat="45.85634" lon="4.69576">
        <ele>198</ele>
        <time>2018-02-04T10:11:09Z</time>
      </trkpt>
      <trkpt lat="45.85633" lon="4.69569">
        <ele>198</ele>
        <time>2018-02-04T10:11:10Z</time>
      </trkpt>
      <trkpt lat="45.85633" lon="4.69561">
        <ele>198</ele>
        <time>2018-02-04T10:11:11Z</time>
      </trkpt>
      <trkpt lat="45.85632" lon="4.69554">
        <ele>198</ele>
        <time>2018-02-04T10:11:12Z</time>
      </trkpt>
      <trkpt lat="45.85632" lon="4.69546">
        <ele>198</ele>
        <time>2018-02-04T10:11:13Z</time>
      </trkpt>
      <trkpt lat="45.85632" lon="4.69539">
        <ele>198</ele>
        <time>2018-02-04T10:11:14Z</time>
      </trkpt>
      <trkpt lat="45.85631" lon="4.69532">
        <ele>198</ele>
        <time>2018-02-04T10:11:15Z</time>
      </trkpt>
      <trkpt lat="45.8563" lon="4.69524">
        <ele>198</ele>
        <time>2018-02-04T10:11:16Z</time>
      </trkpt>
      <trkpt lat="45.8563" lon="4.69517">
        <ele>198</ele>
        <time>2018-02-04T10:11:17Z</time>
      </trkpt>
      <trkpt lat="45.8563" lon="4.69509">
        <ele>198</ele>
        <time>2018-02-04T10:11:18Z</time>
      </trkpt>
      <trkpt lat="45.85629" lon="4.69503">
        <ele>198</ele>
        <time>2018-02-04T10:11:19Z</time>
      </trkpt>
      <trkpt lat="45.85628" lon="4.69496">
        <ele>198</ele>
        <time>2018-02-04T10:11:20Z</time>
      </trkpt>
      <trkpt lat="45.85628" lon="4.69489">
        <ele>198</ele>
        <time>2018-02-04T10:11:21Z</time>
      </trkpt>
      <trkpt lat="45.85627" lon="4.69482">
        <ele>198</ele>
        <time>2018-02-04T10:11:22Z</time>
      </trkpt>
      <trkpt lat="45.85625" lon="4.69475">
        <ele>198</ele>
        <time>2018-02-04T10:11:23Z</time>
      </trkpt>
      <trkpt lat="45.85624" lon="4.69468">
        <ele>198</ele>
        <time>2018-02-04T10:11:24Z</time>
      </trkpt>
      <trkpt lat="45.85623" lon="4.6946">
        <ele>198</ele>
        <time>2018-02-04T10:11:25Z</time>
      </trkpt>
      <trkpt lat="45.85623" lon="4.69453">
        <ele>198</ele>
        <time>2018-02-04T10:11:26Z</time>
      </trkpt>
      <trkpt lat="45.85622" lon="4.69446">
        <ele>198</ele>
        <time>2018-02-04T10:11:27Z</time>
      </trkpt>
      <trkpt lat="45.85622" lon="4.69438">
        <ele>198</ele>
        <time>2018-02-04T10:11:28Z</time>
      </trkpt>
      <trkpt lat="45.85621" lon="4.69431">
        <ele>198</ele>
        <time>2018-02-04T10:11:29Z</time>
      </trkpt>
      <trkpt lat="45.8562" lon="4.69424">
        <ele>198</ele>
        <time>2018-02-04T10:11:30Z</time>
      </trkpt>
      <trkpt lat="45.85619" lon="4.69416">
        <ele>198</ele>
        <time>2018-02-04T10:11:31Z</time>
      </trkpt>
      <trkpt lat="45.85619" lon="4.69408">
        <ele>198</ele>
        <time>2018-02-04T10:11:32Z</time>
      </trkpt>
      <trkpt lat="45.85618" lon="4.694">
        <ele>198</ele>
        <time>2018-02-04T10:11:33Z</time>
      </trkpt>
      <trkpt lat="45.85617" lon="4.69392">
        <ele>198</ele>
        <time>2018-02-04T10:11:34Z</time>
      </trkpt>
      <trkpt lat="45.85616" lon="4.69385">
        <ele>198</ele>
        <time>2018-02-04T10:11:35Z</time>
      </trkpt>
      <trkpt lat="45.85615" lon="4.69377">
        <ele>198</ele>
        <time>2018-02-04T10:11:36Z</time>
      </trkpt>
      <trkpt lat="45.85615" lon="4.69369">
        <ele>198</ele>
        <time>2018-02-04T10:11:37Z</time>
      </trkpt>
      <trkpt lat="45.85614" lon="4.69362">
        <ele>198</ele>
        <time>2018-02-04T10:11:38Z</time>
      </trkpt>
      <trkpt lat="45.85613" lon="4.69355">
        <ele>198</ele>
        <time>2018-02-04T10:11:39Z</time>
      </trkpt>
      <trkpt lat="45.85613" lon="4.69348">
        <ele>198</ele>
        <time>2018-02-04T10:11:40Z</time>
      </trkpt>
      <trkpt lat="45.85612" lon="4.6934">
        <ele>198</ele>
        <time>2018-02-04T10:11:41Z</time>
      </trkpt>
      <trkpt lat="45.85612" lon="4.69333">
        <ele>198</ele>
        <time>2018-02-04T10:11:42Z</time>
      </trkpt>
      <trkpt lat="45.85612" lon="4.69326">
        <ele>198</ele>
        <time>2018-02-04T10:11:43Z</time>
      </trkpt>
      <trkpt lat="45.8561" lon="4.69318">
        <ele>198</ele>
        <time>2018-02-04T10:11:44Z</time>
      </trkpt>
      <trkpt lat="45.85609" lon="4.69311">
        <ele>198</ele>
        <time>2018-02-04T10:11:45Z</time>
      </trkpt>
      <trkpt lat="45.85608" lon="4.69304">
        <ele>198</ele>
        <time>2018-02-04T10:11:46Z</time>
      </trkpt>
      <trkpt lat="45.85608" lon="4.69297">
        <ele>198</ele>
        <time>2018-02-04T10:11:47Z</time>
      </trkpt>
      <trkpt lat="45.85608" lon="4.6929">
        <ele>198</ele>
        <time>2018-02-04T10:11:48Z</time>
      </trkpt>
      <trkpt lat="45.85609" lon="4.69283">
        <ele>198</ele>
        <time>2018-02-04T10:11:49Z</time>
      </trkpt>
      <trkpt lat="45.8561" lon="4.69276">
        <ele>198</ele>
        <time>2018-02-04T10:11:50Z</time>
      </trkpt>
      <trkpt lat="45.85611" lon="4.69269">
        <ele>198</ele>
        <time>2018-02-04T10:11:51Z</time>
      </trkpt>
      <trkpt lat="45.85611" lon="4.6926">
        <ele>198</ele>
        <time>2018-02-04T10:11:52Z</time>
      </trkpt>
      <trkpt lat="45.8561" lon="4.69254">
        <ele>198</ele>
        <time>2018-02-04T10:11:53Z</time>
      </trkpt>
      <trkpt lat="45.85608" lon="4.69247">
        <ele>199</ele>
        <time>2018-02-04T10:11:54Z</time>
      </trkpt>
      <trkpt lat="45.85605" lon="4.69241">
        <ele>199</ele>
        <time>2018-02-04T10:11:55Z</time>
      </trkpt>
      <trkpt lat="45.85603" lon="4.69233">
        <ele>199</ele>
        <time>2018-02-04T10:11:56Z</time>
      </trkpt>
      <trkpt lat="45.85602" lon="4.69226">
        <ele>199</ele>
        <time>2018-02-04T10:11:57Z</time>
      </trkpt>
      <trkpt lat="45.85602" lon="4.69219">
        <ele>199</ele>
        <time>2018-02-04T10:11:58Z</time>
      </trkpt>
      <trkpt lat="45.85601" lon="4.69211">
        <ele>199</ele>
        <time>2018-02-04T10:11:59Z</time>
      </trkpt>
      <trkpt lat="45.856" lon="4.69205">
        <ele>199</ele>
        <time>2018-02-04T10:12:00Z</time>
      </trkpt>
      <trkpt lat="45.856" lon="4.69198">
        <ele>199</ele>
        <time>2018-02-04T10:12:01Z</time>
      </trkpt>
      <trkpt lat="45.856" lon="4.69191">
        <ele>199</ele>
        <time>2018-02-04T10:12:02Z</time>
      </trkpt>
      <trkpt lat="45.85598" lon="4.69184">
        <ele>199</ele>
        <time>2018-02-04T10:12:03Z</time>
      </trkpt>
      <trkpt lat="45.85598" lon="4.69177">
        <ele>199</ele>
        <time>2018-02-04T10:12:04Z</time>
      </trkpt>
      <trkpt lat="45.85597" lon="4.6917">
        <ele>199</ele>
        <time>2018-02-04T10:12:05Z</time>
      </trkpt>
      <trkpt lat="45.85596" lon="4.69162">
        <ele>199</ele>
        <time>2018-02-04T10:12:06Z</time>
      </trkpt>
      <trkpt lat="45.85595" lon="4.69154">
        <ele>199</ele>
        <time>2018-02-04T10:12:07Z</time>
      </trkpt>
      <trkpt lat="45.85595" lon="4.69147">
        <ele>199</ele>
        <time>2018-02-04T10:12:08Z</time>
      </trkpt>
      <trkpt lat="45.85594" lon="4.69139">
        <ele>199</ele>
        <time>2018-02-04T10:12:09Z</time>
      </trkpt>
      <trkpt lat="45.85594" lon="4.69131">
        <ele>199</ele>
        <time>2018-02-04T10:12:10Z</time>
      </trkpt>
      <trkpt lat="45.85594" lon="4.69122">
        <ele>198</ele>
        <time>2018-02-04T10:12:11Z</time>
      </trkpt>
      <trkpt lat="45.85594" lon="4.69113">
        <ele>199</ele>
        <time>2018-02-04T10:12:12Z</time>
      </trkpt>
      <trkpt lat="45.85593" lon="4.69106">
        <ele>199</ele>
        <time>2018-02-04T10:12:13Z</time>
      </trkpt>
      <trkpt lat="45.85592" lon="4.69098">
        <ele>199</ele>
        <time>2018-02-04T10:12:14Z</time>
      </trkpt>
      <trkpt lat="45.85591" lon="4.6909">
        <ele>199</ele>
        <time>2018-02-04T10:12:15Z</time>
      </trkpt>
      <trkpt lat="45.85591" lon="4.69083">
        <ele>199</ele>
        <time>2018-02-04T10:12:16Z</time>
      </trkpt>
      <trkpt lat="45.8559" lon="4.69076">
        <ele>199</ele>
        <time>2018-02-04T10:12:17Z</time>
      </trkpt>
      <trkpt lat="45.85589" lon="4.69068">
        <ele>199</ele>
        <time>2018-02-04T10:12:18Z</time>
      </trkpt>
      <trkpt lat="45.85588" lon="4.6906">
        <ele>199</ele>
        <time>2018-02-04T10:12:19Z</time>
      </trkpt>
      <trkpt lat="45.85587" lon="4.69052">
        <ele>199</ele>
        <time>2018-02-04T10:12:20Z</time>
      </trkpt>
      <trkpt lat="45.85586" lon="4.69044">
        <ele>199</ele>
        <time>2018-02-04T10:12:21Z</time>
      </trkpt>
      <trkpt lat="45.85586" lon="4.69037">
        <ele>199</ele>
        <time>2018-02-04T10:12:22Z</time>
      </trkpt>
      <trkpt lat="45.85585" lon="4.6903">
        <ele>199</ele>
        <time>2018-02-04T10:12:23Z</time>
      </trkpt>
      <trkpt lat="45.85584" lon="4.69022">
        <ele>199</ele>
        <time>2018-02-04T10:12:24Z</time>
      </trkpt>
      <trkpt lat="45.85584" lon="4.69015">
        <ele>199</ele>
        <time>2018-02-04T10:12:25Z</time>
      </trkpt>
      <trkpt lat="45.85583" lon="4.69008">
        <ele>200</ele>
        <time>2018-02-04T10:12:26Z</time>
      </trkpt>
      <trkpt lat="45.85583" lon="4.68999">
        <ele>200</ele>
        <time>2018-02-04T10:12:27Z</time>
      </trkpt>
      <trkpt lat="45.85582" lon="4.68991">
        <ele>200</ele>
        <time>2018-02-04T10:12:28Z</time>
      </trkpt>
      <trkpt lat="45.85581" lon="4.68985">
        <ele>200</ele>
        <time>2018-02-04T10:12:29Z</time>
      </trkpt>
      <trkpt lat="45.85581" lon="4.68978">
        <ele>200</ele>
        <time>2018-02-04T10:12:30Z</time>
      </trkpt>
      <trkpt lat="45.8558" lon="4.6897">
        <ele>200</ele>
        <time>2018-02-04T10:12:31Z</time>
      </trkpt>
      <trkpt lat="45.85578" lon="4.68962">
        <ele>200</ele>
        <time>2018-02-04T10:12:32Z</time>
      </trkpt>
      <trkpt lat="45.85578" lon="4.68954">
        <ele>200</ele>
        <time>2018-02-04T10:12:33Z</time>
      </trkpt>
      <trkpt lat="45.85577" lon="4.68947">
        <ele>200</ele>
        <time>2018-02-04T10:12:34Z</time>
      </trkpt>
      <trkpt lat="45.85576" lon="4.68939">
        <ele>200</ele>
        <time>2018-02-04T10:12:35Z</time>
      </trkpt>
      <trkpt lat="45.85575" lon="4.68931">
        <ele>200</ele>
        <time>2018-02-04T10:12:36Z</time>
      </trkpt>
      <trkpt lat="45.85574" lon="4.68923">
        <ele>200</ele>
        <time>2018-02-04T10:12:37Z</time>
      </trkpt>
      <trkpt lat="45.85574" lon="4.68916">
        <ele>200</ele>
        <time>2018-02-04T10:12:38Z</time>
      </trkpt>
      <trkpt lat="45.85573" lon="4.68908">
        <ele>200</ele>
        <time>2018-02-04T10:12:39Z</time>
      </trkpt>
      <trkpt lat="45.85572" lon="4.68899">
        <ele>200</ele>
        <time>2018-02-04T10:12:40Z</time>
      </trkpt>
      <trkpt lat="45.85571" lon="4.68892">
        <ele>200</ele>
        <time>2018-02-04T10:12:41Z</time>
      </trkpt>
      <trkpt lat="45.8557" lon="4.68885">
        <ele>200</ele>
        <time>2018-02-04T10:12:42Z</time>
      </trkpt>
      <trkpt lat="45.85569" lon="4.68877">
        <ele>200</ele>
        <time>2018-02-04T10:12:43Z</time>
      </trkpt>
      <trkpt lat="45.85569" lon="4.68869">
        <ele>200</ele>
        <time>2018-02-04T10:12:44Z</time>
      </trkpt>
      <trkpt lat="45.85568" lon="4.68862">
        <ele>200</ele>
        <time>2018-02-04T10:12:45Z</time>
      </trkpt>
      <trkpt lat="45.85567" lon="4.68854">
        <ele>200</ele>
        <time>2018-02-04T10:12:46Z</time>
      </trkpt>
      <trkpt lat="45.85567" lon="4.68845">
        <ele>200</ele>
        <time>2018-02-04T10:12:47Z</time>
      </trkpt>
      <trkpt lat="45.85566" lon="4.68838">
        <ele>200</ele>
        <time>2018-02-04T10:12:48Z</time>
      </trkpt>
      <trkpt lat="45.85566" lon="4.68831">
        <ele>200</ele>
        <time>2018-02-04T10:12:49Z</time>
      </trkpt>
      <trkpt lat="45.85565" lon="4.68823">
        <ele>200</ele>
        <time>2018-02-04T10:12:50Z</time>
      </trkpt>
      <trkpt lat="45.85565" lon="4.68816">
        <ele>200</ele>
        <time>2018-02-04T10:12:51Z</time>
      </trkpt>
      <trkpt lat="45.85564" lon="4.68808">
        <ele>200</ele>
        <time>2018-02-04T10:12:52Z</time>
      </trkpt>
      <trkpt lat="45.85563" lon="4.688">
        <ele>200</ele>
        <time>2018-02-04T10:12:53Z</time>
      </trkpt>
      <trkpt lat="45.85563" lon="4.68792">
        <ele>200</ele>
        <time>2018-02-04T10:12:54Z</time>
      </trkpt>
      <trkpt lat="45.85561" lon="4.68784">
        <ele>200</ele>
        <time>2018-02-04T10:12:55Z</time>
      </trkpt>
      <trkpt lat="45.8556" lon="4.68776">
        <ele>200</ele>
        <time>2018-02-04T10:12:56Z</time>
      </trkpt>
      <trkpt lat="45.8556" lon="4.68769">
        <ele>200</ele>
        <time>2018-02-04T10:12:57Z</time>
      </trkpt>
      <trkpt lat="45.85561" lon="4.68761">
        <ele>200</ele>
        <time>2018-02-04T10:12:58Z</time>
      </trkpt>
      <trkpt lat="45.8556" lon="4.68753">
        <ele>200</ele>
        <time>2018-02-04T10:12:59Z</time>
      </trkpt>
      <trkpt lat="45.85559" lon="4.68746">
        <ele>200</ele>
        <time>2018-02-04T10:13:00Z</time>
      </trkpt>
      <trkpt lat="45.85559" lon="4.68739">
        <ele>200</ele>
        <time>2018-02-04T10:13:01Z</time>
      </trkpt>
      <trkpt lat="45.85558" lon="4.68733">
        <ele>200</ele>
        <time>2018-02-04T10:13:02Z</time>
      </trkpt>
      <trkpt lat="45.85557" lon="4.68725">
        <ele>200</ele>
        <time>2018-02-04T10:13:03Z</time>
      </trkpt>
      <trkpt lat="45.85556" lon="4.68718">
        <ele>200</ele>
        <time>2018-02-04T10:13:04Z</time>
      </trkpt>
      <trkpt lat="45.85556" lon="4.68711">
        <ele>200</ele>
        <time>2018-02-04T10:13:05Z</time>
      </trkpt>
      <trkpt lat="45.85555" lon="4.68703">
        <ele>200</ele>
        <time>2018-02-04T10:13:06Z</time>
      </trkpt>
      <trkpt lat="45.85554" lon="4.68697">
        <ele>200</ele>
        <time>2018-02-04T10:13:07Z</time>
      </trkpt>
      <trkpt lat="45.85553" lon="4.68689">
        <ele>200</ele>
        <time>2018-02-04T10:13:08Z</time>
      </trkpt>
      <trkpt lat="45.85551" lon="4.68682">
        <ele>200</ele>
        <time>2018-02-04T10:13:09Z</time>
      </trkpt>
      <trkpt lat="45.8555" lon="4.68674">
        <ele>200</ele>
        <time>2018-02-04T10:13:10Z</time>
      </trkpt>
      <trkpt lat="45.85551" lon="4.68666">
        <ele>200</ele>
        <time>2018-02-04T10:13:11Z</time>
      </trkpt>
      <trkpt lat="45.8555" lon="4.68657">
        <ele>200</ele>
        <time>2018-02-04T10:13:12Z</time>
      </trkpt>
      <trkpt lat="45.8555" lon="4.6865">
        <ele>201</ele>
        <time>2018-02-04T10:13:13Z</time>
      </trkpt>
      <trkpt lat="45.85548" lon="4.68643">
        <ele>201</ele>
        <time>2018-02-04T10:13:14Z</time>
      </trkpt>
      <trkpt lat="45.85547" lon="4.68637">
        <ele>201</ele>
        <time>2018-02-04T10:13:15Z</time>
      </trkpt>
      <trkpt lat="45.85546" lon="4.68629">
        <ele>201</ele>
        <time>2018-02-04T10:13:16Z</time>
      </trkpt>
      <trkpt lat="45.85545" lon="4.68621">
        <ele>201</ele>
        <time>2018-02-04T10:13:17Z</time>
      </trkpt>
      <trkpt lat="45.85545" lon="4.68614">
        <ele>201</ele>
        <time>2018-02-04T10:13:18Z</time>
      </trkpt>
      <trkpt lat="45.85542" lon="4.68602">
        <ele>201</ele>
        <time>2018-02-04T10:13:20Z</time>
      </trkpt>
      <trkpt lat="45.85542" lon="4.68594">
        <ele>201</ele>
        <time>2018-02-04T10:13:21Z</time>
      </trkpt>
      <trkpt lat="45.85542" lon="4.68587">
        <ele>201</ele>
        <time>2018-02-04T10:13:22Z</time>
      </trkpt>
      <trkpt lat="45.8554" lon="4.6858">
        <ele>201</ele>
        <time>2018-02-04T10:13:23Z</time>
      </trkpt>
      <trkpt lat="45.8554" lon="4.68572">
        <ele>201</ele>
        <time>2018-02-04T10:13:24Z</time>
      </trkpt>
      <trkpt lat="45.85539" lon="4.68565">
        <ele>201</ele>
        <time>2018-02-04T10:13:25Z</time>
      </trkpt>
      <trkpt lat="45.85536" lon="4.68558">
        <ele>201</ele>
        <time>2018-02-04T10:13:26Z</time>
      </trkpt>
      <trkpt lat="45.85536" lon="4.6855">
        <ele>201</ele>
        <time>2018-02-04T10:13:27Z</time>
      </trkpt>
      <trkpt lat="45.85536" lon="4.68541">
        <ele>201</ele>
        <time>2018-02-04T10:13:28Z</time>
      </trkpt>
      <trkpt lat="45.85536" lon="4.68533">
        <ele>201</ele>
        <time>2018-02-04T10:13:29Z</time>
      </trkpt>
      <trkpt lat="45.85537" lon="4.68524">
        <ele>201</ele>
        <time>2018-02-04T10:13:30Z</time>
      </trkpt>
      <trkpt lat="45.85537" lon="4.68515">
        <ele>201</ele>
        <time>2018-02-04T10:13:31Z</time>
      </trkpt>
      <trkpt lat="45.85536" lon="4.68507">
        <ele>201</ele>
        <time>2018-02-04T10:13:32Z</time>
      </trkpt>
      <trkpt lat="45.85535" lon="4.68498">
        <ele>200</ele>
        <time>2018-02-04T10:13:33Z</time>
      </trkpt>
      <trkpt lat="45.85535" lon="4.68489">
        <ele>200</ele>
        <time>2018-02-04T10:13:34Z</time>
      </trkpt>
      <trkpt lat="45.85534" lon="4.68481">
        <ele>200</ele>
        <time>2018-02-04T10:13:35Z</time>
      </trkpt>
      <trkpt lat="45.85533" lon="4.68473">
        <ele>200</ele>
        <time>2018-02-04T10:13:36Z</time>
      </trkpt>
      <trkpt lat="45.85532" lon="4.68464">
        <ele>200</ele>
        <time>2018-02-04T10:13:37Z</time>
      </trkpt>
      <trkpt lat="45.85532" lon="4.68454">
        <ele>200</ele>
        <time>2018-02-04T10:13:38Z</time>
      </trkpt>
      <trkpt lat="45.85531" lon="4.68446">
        <ele>200</ele>
        <time>2018-02-04T10:13:39Z</time>
      </trkpt>
      <trkpt lat="45.8553" lon="4.68438">
        <ele>200</ele>
        <time>2018-02-04T10:13:40Z</time>
      </trkpt>
      <trkpt lat="45.8553" lon="4.68428">
        <ele>200</ele>
        <time>2018-02-04T10:13:41Z</time>
      </trkpt>
      <trkpt lat="45.85529" lon="4.68419">
        <ele>200</ele>
        <time>2018-02-04T10:13:42Z</time>
      </trkpt>
      <trkpt lat="45.85527" lon="4.68411">
        <ele>200</ele>
        <time>2018-02-04T10:13:43Z</time>
      </trkpt>
      <trkpt lat="45.85527" lon="4.68403">
        <ele>200</ele>
        <time>2018-02-04T10:13:44Z</time>
      </trkpt>
      <trkpt lat="45.85525" lon="4.68396">
        <ele>200</ele>
        <time>2018-02-04T10:13:45Z</time>
      </trkpt>
      <trkpt lat="45.85525" lon="4.68388">
        <ele>200</ele>
        <time>2018-02-04T10:13:46Z</time>
      </trkpt>
      <trkpt lat="45.85523" lon="4.68381">
        <ele>201</ele>
        <time>2018-02-04T10:13:47Z</time>
      </trkpt>
      <trkpt lat="45.85523" lon="4.68373">
        <ele>201</ele>
        <time>2018-02-04T10:13:48Z</time>
      </trkpt>
      <trkpt lat="45.85522" lon="4.68366">
        <ele>201</ele>
        <time>2018-02-04T10:13:49Z</time>
      </trkpt>
      <trkpt lat="45.85521" lon="4.68358">
        <ele>201</ele>
        <time>2018-02-04T10:13:50Z</time>
      </trkpt>
      <trkpt lat="45.85521" lon="4.6835">
        <ele>201</ele>
        <time>2018-02-04T10:13:51Z</time>
      </trkpt>
      <trkpt lat="45.8552" lon="4.68342">
        <ele>201</ele>
        <time>2018-02-04T10:13:52Z</time>
      </trkpt>
      <trkpt lat="45.85519" lon="4.68334">
        <ele>201</ele>
        <time>2018-02-04T10:13:53Z</time>
      </trkpt>
      <trkpt lat="45.85517" lon="4.68327">
        <ele>202</ele>
        <time>2018-02-04T10:13:54Z</time>
      </trkpt>
      <trkpt lat="45.85517" lon="4.6832">
        <ele>202</ele>
        <time>2018-02-04T10:13:55Z</time>
      </trkpt>
      <trkpt lat="45.85517" lon="4.68312">
        <ele>202</ele>
        <time>2018-02-04T10:13:56Z</time>
      </trkpt>
      <trkpt lat="45.85516" lon="4.68304">
        <ele>202</ele>
        <time>2018-02-04T10:13:57Z</time>
      </trkpt>
      <trkpt lat="45.85515" lon="4.68297">
        <ele>202</ele>
        <time>2018-02-04T10:13:58Z</time>
      </trkpt>
      <trkpt lat="45.85514" lon="4.6829">
        <ele>202</ele>
        <time>2018-02-04T10:13:59Z</time>
      </trkpt>
      <trkpt lat="45.85513" lon="4.68284">
        <ele>202</ele>
        <time>2018-02-04T10:14:00Z</time>
      </trkpt>
      <trkpt lat="45.85513" lon="4.68276">
        <ele>202</ele>
        <time>2018-02-04T10:14:01Z</time>
      </trkpt>
      <trkpt lat="45.85512" lon="4.68268">
        <ele>202</ele>
        <time>2018-02-04T10:14:02Z</time>
      </trkpt>
      <trkpt lat="45.85511" lon="4.68259">
        <ele>203</ele>
        <time>2018-02-04T10:14:03Z</time>
      </trkpt>
      <trkpt lat="45.85511" lon="4.68253">
        <ele>203</ele>
        <time>2018-02-04T10:14:04Z</time>
      </trkpt>
      <trkpt lat="45.85508" lon="4.6824">
        <ele>203</ele>
        <time>2018-02-04T10:14:05Z</time>
      </trkpt>
      <trkpt lat="45.85506" lon="4.68232">
        <ele>203</ele>
        <time>2018-02-04T10:14:07Z</time>
      </trkpt>
      <trkpt lat="45.85507" lon="4.68221">
        <ele>203</ele>
        <time>2018-02-04T10:14:08Z</time>
      </trkpt>
      <trkpt lat="45.85506" lon="4.68212">
        <ele>203</ele>
        <time>2018-02-04T10:14:09Z</time>
      </trkpt>
      <trkpt lat="45.85505" lon="4.68205">
        <ele>203</ele>
        <time>2018-02-04T10:14:10Z</time>
      </trkpt>
      <trkpt lat="45.85504" lon="4.68197">
        <ele>203</ele>
        <time>2018-02-04T10:14:11Z</time>
      </trkpt>
      <trkpt lat="45.85504" lon="4.68188">
        <ele>203</ele>
        <time>2018-02-04T10:14:12Z</time>
      </trkpt>
      <trkpt lat="45.85502" lon="4.68178">
        <ele>204</ele>
        <time>2018-02-04T10:14:13Z</time>
      </trkpt>
      <trkpt lat="45.855" lon="4.68169">
        <ele>204</ele>
        <time>2018-02-04T10:14:14Z</time>
      </trkpt>
      <trkpt lat="45.855" lon="4.68161">
        <ele>204</ele>
        <time>2018-02-04T10:14:15Z</time>
      </trkpt>
      <trkpt lat="45.85499" lon="4.68154">
        <ele>204</ele>
        <time>2018-02-04T10:14:16Z</time>
      </trkpt>
      <trkpt lat="45.85499" lon="4.68147">
        <ele>204</ele>
        <time>2018-02-04T10:14:17Z</time>
      </trkpt>
      <trkpt lat="45.85499" lon="4.68139">
        <ele>204</ele>
        <time>2018-02-04T10:14:18Z</time>
      </trkpt>
      <trkpt lat="45.855" lon="4.68131">
        <ele>204</ele>
        <time>2018-02-04T10:14:19Z</time>
      </trkpt>
      <trkpt lat="45.85499" lon="4.68124">
        <ele>204</ele>
        <time>2018-02-04T10:14:20Z</time>
      </trkpt>
      <trkpt lat="45.85499" lon="4.68117">
        <ele>204</ele>
        <time>2018-02-04T10:14:21Z</time>
      </trkpt>
      <trkpt lat="45.85499" lon="4.68108">
        <ele>204</ele>
        <time>2018-02-04T10:14:22Z</time>
      </trkpt>
      <trkpt lat="45.85496" lon="4.68102">
        <ele>204</ele>
        <time>2018-02-04T10:14:23Z</time>
      </trkpt>
      <trkpt lat="45.85494" lon="4.68094">
        <ele>204</ele>
        <time>2018-02-04T10:14:24Z</time>
      </trkpt>
      <trkpt lat="45.85493" lon="4.68086">
        <ele>204</ele>
        <time>2018-02-04T10:14:25Z</time>
      </trkpt>
      <trkpt lat="45.85494" lon="4.68076">
        <ele>205</ele>
        <time>2018-02-04T10:14:26Z</time>
      </trkpt>
      <trkpt lat="45.85493" lon="4.68068">
        <ele>206</ele>
        <time>2018-02-04T10:14:27Z</time>
      </trkpt>
      <trkpt lat="45.85493" lon="4.6806">
        <ele>206</ele>
        <time>2018-02-04T10:14:28Z</time>
      </trkpt>
      <trkpt lat="45.85492" lon="4.68053">
        <ele>206</ele>
        <time>2018-02-04T10:14:29Z</time>
      </trkpt>
      <trkpt lat="45.85491" lon="4.68047">
        <ele>206</ele>
        <time>2018-02-04T10:14:30Z</time>
      </trkpt>
      <trkpt lat="45.85491" lon="4.68039">
        <ele>207</ele>
        <time>2018-02-04T10:14:31Z</time>
      </trkpt>
      <trkpt lat="45.85491" lon="4.68032">
        <ele>207</ele>
        <time>2018-02-04T10:14:32Z</time>
      </trkpt>
      <trkpt lat="45.8549" lon="4.68026">
        <ele>207</ele>
        <time>2018-02-04T10:14:33Z</time>
      </trkpt>
      <trkpt lat="45.85491" lon="4.68019">
        <ele>207</ele>
        <time>2018-02-04T10:14:34Z</time>
      </trkpt>
      <trkpt lat="45.85493" lon="4.68014">
        <ele>207</ele>
        <time>2018-02-04T10:14:35Z</time>
      </trkpt>
      <trkpt lat="45.85496" lon="4.68007">
        <ele>206</ele>
        <time>2018-02-04T10:14:36Z</time>
      </trkpt>
      <trkpt lat="45.855" lon="4.67999">
        <ele>206</ele>
        <time>2018-02-04T10:14:37Z</time>
      </trkpt>
      <trkpt lat="45.85506" lon="4.67991">
        <ele>206</ele>
        <time>2018-02-04T10:14:38Z</time>
      </trkpt>
      <trkpt lat="45.85512" lon="4.67984">
        <ele>206</ele>
        <time>2018-02-04T10:14:39Z</time>
      </trkpt>
      <trkpt lat="45.85517" lon="4.67979">
        <ele>206</ele>
        <time>2018-02-04T10:14:40Z</time>
      </trkpt>
      <trkpt lat="45.85522" lon="4.67974">
        <ele>206</ele>
        <time>2018-02-04T10:14:41Z</time>
      </trkpt>
      <trkpt lat="45.85527" lon="4.67971">
        <ele>205</ele>
        <time>2018-02-04T10:14:42Z</time>
      </trkpt>
      <trkpt lat="45.85532" lon="4.67964">
        <ele>205</ele>
        <time>2018-02-04T10:14:43Z</time>
      </trkpt>
      <trkpt lat="45.85537" lon="4.67957">
        <ele>205</ele>
        <time>2018-02-04T10:14:44Z</time>
      </trkpt>
      <trkpt lat="45.85541" lon="4.67952">
        <ele>205</ele>
        <time>2018-02-04T10:14:45Z</time>
      </trkpt>
      <trkpt lat="45.85547" lon="4.67947">
        <ele>205</ele>
        <time>2018-02-04T10:14:46Z</time>
      </trkpt>
      <trkpt lat="45.85552" lon="4.67941">
        <ele>205</ele>
        <time>2018-02-04T10:14:47Z</time>
      </trkpt>
      <trkpt lat="45.85557" lon="4.67936">
        <ele>205</ele>
        <time>2018-02-04T10:14:48Z</time>
      </trkpt>
      <trkpt lat="45.85563" lon="4.67929">
        <ele>205</ele>
        <time>2018-02-04T10:14:50Z</time>
      </trkpt>
      <trkpt lat="45.85568" lon="4.67926">
        <ele>205</ele>
        <time>2018-02-04T10:14:51Z</time>
      </trkpt>
      <trkpt lat="45.85573" lon="4.67924">
        <ele>205</ele>
        <time>2018-02-04T10:14:52Z</time>
      </trkpt>
      <trkpt lat="45.85577" lon="4.6792">
        <ele>204</ele>
        <time>2018-02-04T10:14:53Z</time>
      </trkpt>
      <trkpt lat="45.85576" lon="4.67908">
        <ele>205</ele>
        <time>2018-02-04T10:14:55Z</time>
      </trkpt>
      <trkpt lat="45.85575" lon="4.67901">
        <ele>206</ele>
        <time>2018-02-04T10:14:56Z</time>
      </trkpt>
      <trkpt lat="45.85575" lon="4.67894">
        <ele>206</ele>
        <time>2018-02-04T10:14:57Z</time>
      </trkpt>
      <trkpt lat="45.85574" lon="4.67887">
        <ele>206</ele>
        <time>2018-02-04T10:14:58Z</time>
      </trkpt>
      <trkpt lat="45.85574" lon="4.67879">
        <ele>206</ele>
        <time>2018-02-04T10:14:59Z</time>
      </trkpt>
      <trkpt lat="45.85572" lon="4.67871">
        <ele>207</ele>
        <time>2018-02-04T10:15:00Z</time>
      </trkpt>
      <trkpt lat="45.85574" lon="4.67863">
        <ele>207</ele>
        <time>2018-02-04T10:15:01Z</time>
      </trkpt>
      <trkpt lat="45.85574" lon="4.67857">
        <ele>206</ele>
        <time>2018-02-04T10:15:02Z</time>
      </trkpt>
      <trkpt lat="45.85574" lon="4.67847">
        <ele>206</ele>
        <time>2018-02-04T10:15:03Z</time>
      </trkpt>
      <trkpt lat="45.85576" lon="4.67844">
        <ele>206</ele>
        <time>2018-02-04T10:15:04Z</time>
      </trkpt>
      <trkpt lat="45.85573" lon="4.67836">
        <ele>206</ele>
        <time>2018-02-04T10:15:06Z</time>
      </trkpt>
      <trkpt lat="45.85574" lon="4.67829">
        <ele>206</ele>
        <time>2018-02-04T10:15:07Z</time>
      </trkpt>
      <trkpt lat="45.85579" lon="4.67816">
        <ele>206</ele>
        <time>2018-02-04T10:15:08Z</time>
      </trkpt>
      <trkpt lat="45.85582" lon="4.67807">
        <ele>206</ele>
        <time>2018-02-04T10:15:09Z</time>
      </trkpt>
      <trkpt lat="45.85583" lon="4.67799">
        <ele>206</ele>
        <time>2018-02-04T10:15:10Z</time>
      </trkpt>
      <trkpt lat="45.85587" lon="4.67787">
        <ele>209</ele>
        <time>2018-02-04T10:15:11Z</time>
      </trkpt>
      <trkpt lat="45.85591" lon="4.67779">
        <ele>209</ele>
        <time>2018-02-04T10:15:12Z</time>
      </trkpt>
      <trkpt lat="45.85595" lon="4.6777">
        <ele>209</ele>
        <time>2018-02-04T10:15:13Z</time>
      </trkpt>
      <trkpt lat="45.85598" lon="4.67763">
        <ele>208</ele>
        <time>2018-02-04T10:15:14Z</time>
      </trkpt>
      <trkpt lat="45.856" lon="4.67757">
        <ele>208</ele>
        <time>2018-02-04T10:15:15Z</time>
      </trkpt>
      <trkpt lat="45.85604" lon="4.6775">
        <ele>207</ele>
        <time>2018-02-04T10:15:16Z</time>
      </trkpt>
      <trkpt lat="45.85608" lon="4.67742">
        <ele>208</ele>
        <time>2018-02-04T10:15:17Z</time>
      </trkpt>
      <trkpt lat="45.85612" lon="4.67735">
        <ele>208</ele>
        <time>2018-02-04T10:15:18Z</time>
      </trkpt>
      <trkpt lat="45.85616" lon="4.67729">
        <ele>209</ele>
        <time>2018-02-04T10:15:19Z</time>
      </trkpt>
      <trkpt lat="45.85619" lon="4.67722">
        <ele>209</ele>
        <time>2018-02-04T10:15:20Z</time>
      </trkpt>
      <trkpt lat="45.85624" lon="4.67716">
        <ele>209</ele>
        <time>2018-02-04T10:15:21Z</time>
      </trkpt>
      <trkpt lat="45.85628" lon="4.6771">
        <ele>209</ele>
        <time>2018-02-04T10:15:22Z</time>
      </trkpt>
      <trkpt lat="45.85633" lon="4.67704">
        <ele>209</ele>
        <time>2018-02-04T10:15:23Z</time>
      </trkpt>
      <trkpt lat="45.85637" lon="4.67699">
        <ele>209</ele>
        <time>2018-02-04T10:15:24Z</time>
      </trkpt>
      <trkpt lat="45.85643" lon="4.67694">
        <ele>209</ele>
        <time>2018-02-04T10:15:25Z</time>
      </trkpt>
      <trkpt lat="45.85648" lon="4.67689">
        <ele>209</ele>
        <time>2018-02-04T10:15:26Z</time>
      </trkpt>
      <trkpt lat="45.85653" lon="4.67684">
        <ele>209</ele>
        <time>2018-02-04T10:15:27Z</time>
      </trkpt>
      <trkpt lat="45.85659" lon="4.6768">
        <ele>209</ele>
        <time>2018-02-04T10:15:28Z</time>
      </trkpt>
      <trkpt lat="45.85665" lon="4.67675">
        <ele>209</ele>
        <time>2018-02-04T10:15:29Z</time>
      </trkpt>
      <trkpt lat="45.85671" lon="4.67671">
        <ele>212</ele>
        <time>2018-02-04T10:15:30Z</time>
      </trkpt>
      <trkpt lat="45.85676" lon="4.67667">
        <ele>210</ele>
        <time>2018-02-04T10:15:31Z</time>
      </trkpt>
      <trkpt lat="45.85682" lon="4.67662">
        <ele>210</ele>
        <time>2018-02-04T10:15:32Z</time>
      </trkpt>
      <trkpt lat="45.85687" lon="4.67658">
        <ele>210</ele>
        <time>2018-02-04T10:15:33Z</time>
      </trkpt>
      <trkpt lat="45.85693" lon="4.67655">
        <ele>211</ele>
        <time>2018-02-04T10:15:34Z</time>
      </trkpt>
      <trkpt lat="45.85698" lon="4.67651">
        <ele>211</ele>
        <time>2018-02-04T10:15:35Z</time>
      </trkpt>
      <trkpt lat="45.85703" lon="4.67647">
        <ele>211</ele>
        <time>2018-02-04T10:15:36Z</time>
      </trkpt>
      <trkpt lat="45.85708" lon="4.67644">
        <ele>211</ele>
        <time>2018-02-04T10:15:37Z</time>
      </trkpt>
      <trkpt lat="45.85714" lon="4.6764">
        <ele>212</ele>
        <time>2018-02-04T10:15:38Z</time>
      </trkpt>
      <trkpt lat="45.85719" lon="4.67636">
        <ele>212</ele>
        <time>2018-02-04T10:15:39Z</time>
      </trkpt>
      <trkpt lat="45.85725" lon="4.67633">
        <ele>212</ele>
        <time>2018-02-04T10:15:40Z</time>
      </trkpt>
      <trkpt lat="45.8573" lon="4.6763">
        <ele>212</ele>
        <time>2018-02-04T10:15:41Z</time>
      </trkpt>
      <trkpt lat="45.85736" lon="4.67627">
        <ele>212</ele>
        <time>2018-02-04T10:15:42Z</time>
      </trkpt>
      <trkpt lat="45.85741" lon="4.67624">
        <ele>211</ele>
        <time>2018-02-04T10:15:43Z</time>
      </trkpt>
      <trkpt lat="45.85747" lon="4.67621">
        <ele>211</ele>
        <time>2018-02-04T10:15:44Z</time>
      </trkpt>
      <trkpt lat="45.85754" lon="4.67617">
        <ele>218</ele>
        <time>2018-02-04T10:15:45Z</time>
      </trkpt>
      <trkpt lat="45.85759" lon="4.67612">
        <ele>218</ele>
        <time>2018-02-04T10:15:46Z</time>
      </trkpt>
      <trkpt lat="45.85765" lon="4.67607">
        <ele>217</ele>
        <time>2018-02-04T10:15:47Z</time>
      </trkpt>
      <trkpt lat="45.85771" lon="4.67604">
        <ele>217</ele>
        <time>2018-02-04T10:15:48Z</time>
      </trkpt>
      <trkpt lat="45.85776" lon="4.67599">
        <ele>218</ele>
        <time>2018-02-04T10:15:49Z</time>
      </trkpt>
      <trkpt lat="45.85781" lon="4.67594">
        <ele>218</ele>
        <time>2018-02-04T10:15:50Z</time>
      </trkpt>
      <trkpt lat="45.85785" lon="4.67591">
        <ele>219</ele>
        <time>2018-02-04T10:15:51Z</time>
      </trkpt>
      <trkpt lat="45.85791" lon="4.67586">
        <ele>219</ele>
        <time>2018-02-04T10:15:52Z</time>
      </trkpt>
      <trkpt lat="45.85795" lon="4.67582">
        <ele>211</ele>
        <time>2018-02-04T10:15:53Z</time>
      </trkpt>
      <trkpt lat="45.858" lon="4.67577">
        <ele>212</ele>
        <time>2018-02-04T10:15:54Z</time>
      </trkpt>
      <trkpt lat="45.85805" lon="4.67571">
        <ele>213</ele>
        <time>2018-02-04T10:15:55Z</time>
      </trkpt>
      <trkpt lat="45.8581" lon="4.67565">
        <ele>213</ele>
        <time>2018-02-04T10:15:56Z</time>
      </trkpt>
      <trkpt lat="45.85815" lon="4.67559">
        <ele>213</ele>
        <time>2018-02-04T10:15:57Z</time>
      </trkpt>
      <trkpt lat="45.85819" lon="4.67552">
        <ele>212</ele>
        <time>2018-02-04T10:15:58Z</time>
      </trkpt>
      <trkpt lat="45.85823" lon="4.67545">
        <ele>211</ele>
        <time>2018-02-04T10:15:59Z</time>
      </trkpt>
      <trkpt lat="45.85828" lon="4.67537">
        <ele>210</ele>
        <time>2018-02-04T10:16:00Z</time>
      </trkpt>
      <trkpt lat="45.85832" lon="4.6753">
        <ele>210</ele>
        <time>2018-02-04T10:16:01Z</time>
      </trkpt>
      <trkpt lat="45.85836" lon="4.67523">
        <ele>218</ele>
        <time>2018-02-04T10:16:02Z</time>
      </trkpt>
      <trkpt lat="45.8584" lon="4.67515">
        <ele>216</ele>
        <time>2018-02-04T10:16:03Z</time>
      </trkpt>
      <trkpt lat="45.85844" lon="4.67508">
        <ele>214</ele>
        <time>2018-02-04T10:16:04Z</time>
      </trkpt>
      <trkpt lat="45.85847" lon="4.67501">
        <ele>215</ele>
        <time>2018-02-04T10:16:05Z</time>
      </trkpt>
      <trkpt lat="45.8585" lon="4.67492">
        <ele>211</ele>
        <time>2018-02-04T10:16:06Z</time>
      </trkpt>
      <trkpt lat="45.85852" lon="4.67482">
        <ele>212</ele>
        <time>2018-02-04T10:16:07Z</time>
      </trkpt>
      <trkpt lat="45.85854" lon="4.67475">
        <ele>213</ele>
        <time>2018-02-04T10:16:08Z</time>
      </trkpt>
      <trkpt lat="45.85856" lon="4.67468">
        <ele>213</ele>
        <time>2018-02-04T10:16:09Z</time>
      </trkpt>
      <trkpt lat="45.85858" lon="4.67459">
        <ele>213</ele>
        <time>2018-02-04T10:16:10Z</time>
      </trkpt>
      <trkpt lat="45.85858" lon="4.67452">
        <ele>213</ele>
        <time>2018-02-04T10:16:11Z</time>
      </trkpt>
      <trkpt lat="45.85859" lon="4.67443">
        <ele>212</ele>
        <time>2018-02-04T10:16:12Z</time>
      </trkpt>
      <trkpt lat="45.85861" lon="4.67436">
        <ele>212</ele>
        <time>2018-02-04T10:16:13Z</time>
      </trkpt>
      <trkpt lat="45.85863" lon="4.67428">
        <ele>212</ele>
        <time>2018-02-04T10:16:14Z</time>
      </trkpt>
      <trkpt lat="45.85864" lon="4.67418">
        <ele>212</ele>
        <time>2018-02-04T10:16:15Z</time>
      </trkpt>
      <trkpt lat="45.85863" lon="4.67412">
        <ele>208</ele>
        <time>2018-02-04T10:16:16Z</time>
      </trkpt>
      <trkpt lat="45.85864" lon="4.674">
        <ele>209</ele>
        <time>2018-02-04T10:16:17Z</time>
      </trkpt>
      <trkpt lat="45.85865" lon="4.67391">
        <ele>209</ele>
        <time>2018-02-04T10:16:18Z</time>
      </trkpt>
      <trkpt lat="45.85866" lon="4.67382">
        <ele>209</ele>
        <time>2018-02-04T10:16:19Z</time>
      </trkpt>
      <trkpt lat="45.85868" lon="4.67371">
        <ele>209</ele>
        <time>2018-02-04T10:16:20Z</time>
      </trkpt>
      <trkpt lat="45.85869" lon="4.67363">
        <ele>208</ele>
        <time>2018-02-04T10:16:21Z</time>
      </trkpt>
      <trkpt lat="45.8587" lon="4.67353">
        <ele>208</ele>
        <time>2018-02-04T10:16:22Z</time>
      </trkpt>
      <trkpt lat="45.85869" lon="4.67344">
        <ele>208</ele>
        <time>2018-02-04T10:16:23Z</time>
      </trkpt>
      <trkpt lat="45.85868" lon="4.67335">
        <ele>208</ele>
        <time>2018-02-04T10:16:24Z</time>
      </trkpt>
      <trkpt lat="45.85872" lon="4.67324">
        <ele>205</ele>
        <time>2018-02-04T10:16:25Z</time>
      </trkpt>
      <trkpt lat="45.85873" lon="4.67314">
        <ele>205</ele>
        <time>2018-02-04T10:16:26Z</time>
      </trkpt>
      <trkpt lat="45.85873" lon="4.67304">
        <ele>205</ele>
        <time>2018-02-04T10:16:27Z</time>
      </trkpt>
      <trkpt lat="45.85874" lon="4.67294">
        <ele>205</ele>
        <time>2018-02-04T10:16:28Z</time>
      </trkpt>
      <trkpt lat="45.85875" lon="4.67285">
        <ele>205</ele>
        <time>2018-02-04T10:16:29Z</time>
      </trkpt>
      <trkpt lat="45.85875" lon="4.67276">
        <ele>205</ele>
        <time>2018-02-04T10:16:30Z</time>
      </trkpt>
      <trkpt lat="45.85877" lon="4.67267">
        <ele>205</ele>
        <time>2018-02-04T10:16:31Z</time>
      </trkpt>
      <trkpt lat="45.85879" lon="4.67258">
        <ele>205</ele>
        <time>2018-02-04T10:16:32Z</time>
      </trkpt>
      <trkpt lat="45.85879" lon="4.67249">
        <ele>204</ele>
        <time>2018-02-04T10:16:33Z</time>
      </trkpt>
      <trkpt lat="45.8588" lon="4.67241">
        <ele>204</ele>
        <time>2018-02-04T10:16:34Z</time>
      </trkpt>
      <trkpt lat="45.85881" lon="4.67233">
        <ele>204</ele>
        <time>2018-02-04T10:16:35Z</time>
      </trkpt>
      <trkpt lat="45.85882" lon="4.67225">
        <ele>204</ele>
        <time>2018-02-04T10:16:36Z</time>
      </trkpt>
      <trkpt lat="45.85883" lon="4.67216">
        <ele>204</ele>
        <time>2018-02-04T10:16:37Z</time>
      </trkpt>
      <trkpt lat="45.85882" lon="4.67209">
        <ele>204</ele>
        <time>2018-02-04T10:16:38Z</time>
      </trkpt>
      <trkpt lat="45.85883" lon="4.67201">
        <ele>204</ele>
        <time>2018-02-04T10:16:39Z</time>
      </trkpt>
      <trkpt lat="45.85884" lon="4.67193">
        <ele>204</ele>
        <time>2018-02-04T10:16:40Z</time>
      </trkpt>
      <trkpt lat="45.85885" lon="4.67185">
        <ele>204</ele>
        <time>2018-02-04T10:16:41Z</time>
      </trkpt>
      <trkpt lat="45.85886" lon="4.67178">
        <ele>204</ele>
        <time>2018-02-04T10:16:42Z</time>
      </trkpt>
      <trkpt lat="45.85886" lon="4.67169">
        <ele>204</ele>
        <time>2018-02-04T10:16:43Z</time>
      </trkpt>
      <trkpt lat="45.85886" lon="4.67161">
        <ele>204</ele>
        <time>2018-02-04T10:16:44Z</time>
      </trkpt>
      <trkpt lat="45.85887" lon="4.67152">
        <ele>204</ele>
        <time>2018-02-04T10:16:45Z</time>
      </trkpt>
      <trkpt lat="45.85889" lon="4.67144">
        <ele>204</ele>
        <time>2018-02-04T10:16:46Z</time>
      </trkpt>
      <trkpt lat="45.85889" lon="4.67137">
        <ele>204</ele>
        <time>2018-02-04T10:16:47Z</time>
      </trkpt>
      <trkpt lat="45.8589" lon="4.67129">
        <ele>204</ele>
        <time>2018-02-04T10:16:48Z</time>
      </trkpt>
      <trkpt lat="45.85892" lon="4.67119">
        <ele>204</ele>
        <time>2018-02-04T10:16:49Z</time>
      </trkpt>
      <trkpt lat="45.85892" lon="4.67111">
        <ele>204</ele>
        <time>2018-02-04T10:16:50Z</time>
      </trkpt>
      <trkpt lat="45.85893" lon="4.67103">
        <ele>204</ele>
        <time>2018-02-04T10:16:51Z</time>
      </trkpt>
      <trkpt lat="45.85893" lon="4.67094">
        <ele>204</ele>
        <time>2018-02-04T10:16:52Z</time>
      </trkpt>
      <trkpt lat="45.85895" lon="4.67086">
        <ele>204</ele>
        <time>2018-02-04T10:16:53Z</time>
      </trkpt>
      <trkpt lat="45.85896" lon="4.67078">
        <ele>205</ele>
        <time>2018-02-04T10:16:54Z</time>
      </trkpt>
      <trkpt lat="45.85897" lon="4.67071">
        <ele>205</ele>
        <time>2018-02-04T10:16:55Z</time>
      </trkpt>
      <trkpt lat="45.85898" lon="4.67063">
        <ele>205</ele>
        <time>2018-02-04T10:16:56Z</time>
      </trkpt>
      <trkpt lat="45.85899" lon="4.67056">
        <ele>205</ele>
        <time>2018-02-04T10:16:57Z</time>
      </trkpt>
      <trkpt lat="45.85901" lon="4.67048">
        <ele>205</ele>
        <time>2018-02-04T10:16:58Z</time>
      </trkpt>
      <trkpt lat="45.85904" lon="4.67039">
        <ele>205</ele>
        <time>2018-02-04T10:16:59Z</time>
      </trkpt>
      <trkpt lat="45.85904" lon="4.67031">
        <ele>205</ele>
        <time>2018-02-04T10:17:00Z</time>
      </trkpt>
      <trkpt lat="45.85906" lon="4.67023">
        <ele>205</ele>
        <time>2018-02-04T10:17:01Z</time>
      </trkpt>
      <trkpt lat="45.85906" lon="4.67016">
        <ele>205</ele>
        <time>2018-02-04T10:17:02Z</time>
      </trkpt>
      <trkpt lat="45.85908" lon="4.6701">
        <ele>206</ele>
        <time>2018-02-04T10:17:03Z</time>
      </trkpt>
      <trkpt lat="45.8591" lon="4.67003">
        <ele>206</ele>
        <time>2018-02-04T10:17:04Z</time>
      </trkpt>
      <trkpt lat="45.85914" lon="4.66998">
        <ele>206</ele>
        <time>2018-02-04T10:17:05Z</time>
      </trkpt>
      <trkpt lat="45.85918" lon="4.66994">
        <ele>207</ele>
        <time>2018-02-04T10:17:06Z</time>
      </trkpt>
      <trkpt lat="45.85922" lon="4.66989">
        <ele>207</ele>
        <time>2018-02-04T10:17:07Z</time>
      </trkpt>
      <trkpt lat="45.85925" lon="4.66983">
        <ele>208</ele>
        <time>2018-02-04T10:17:08Z</time>
      </trkpt>
      <trkpt lat="45.85927" lon="4.66975">
        <ele>208</ele>
        <time>2018-02-04T10:17:09Z</time>
      </trkpt>
      <trkpt lat="45.85927" lon="4.66968">
        <ele>209</ele>
        <time>2018-02-04T10:17:10Z</time>
      </trkpt>
      <trkpt lat="45.85926" lon="4.66959">
        <ele>209</ele>
        <time>2018-02-04T10:17:11Z</time>
      </trkpt>
      <trkpt lat="45.85925" lon="4.66951">
        <ele>209</ele>
        <time>2018-02-04T10:17:12Z</time>
      </trkpt>
      <trkpt lat="45.85924" lon="4.66941">
        <ele>209</ele>
        <time>2018-02-04T10:17:13Z</time>
      </trkpt>
      <trkpt lat="45.85924" lon="4.66934">
        <ele>208</ele>
        <time>2018-02-04T10:17:14Z</time>
      </trkpt>
      <trkpt lat="45.85925" lon="4.66925">
        <ele>208</ele>
        <time>2018-02-04T10:17:15Z</time>
      </trkpt>
      <trkpt lat="45.85927" lon="4.66916">
        <ele>208</ele>
        <time>2018-02-04T10:17:16Z</time>
      </trkpt>
      <trkpt lat="45.85929" lon="4.66909">
        <ele>209</ele>
        <time>2018-02-04T10:17:17Z</time>
      </trkpt>
      <trkpt lat="45.8593" lon="4.669">
        <ele>209</ele>
        <time>2018-02-04T10:17:18Z</time>
      </trkpt>
      <trkpt lat="45.85932" lon="4.66893">
        <ele>210</ele>
        <time>2018-02-04T10:17:19Z</time>
      </trkpt>
      <trkpt lat="45.85934" lon="4.66885">
        <ele>210</ele>
        <time>2018-02-04T10:17:20Z</time>
      </trkpt>
      <trkpt lat="45.85936" lon="4.66876">
        <ele>210</ele>
        <time>2018-02-04T10:17:21Z</time>
      </trkpt>
      <trkpt lat="45.85938" lon="4.66869">
        <ele>210</ele>
        <time>2018-02-04T10:17:22Z</time>
      </trkpt>
      <trkpt lat="45.8594" lon="4.66861">
        <ele>210</ele>
        <time>2018-02-04T10:17:23Z</time>
      </trkpt>
      <trkpt lat="45.85942" lon="4.66853">
        <ele>210</ele>
        <time>2018-02-04T10:17:24Z</time>
      </trkpt>
      <trkpt lat="45.85943" lon="4.66847">
        <ele>210</ele>
        <time>2018-02-04T10:17:25Z</time>
      </trkpt>
      <trkpt lat="45.85945" lon="4.6684">
        <ele>210</ele>
        <time>2018-02-04T10:17:26Z</time>
      </trkpt>
      <trkpt lat="45.85947" lon="4.66834">
        <ele>211</ele>
        <time>2018-02-04T10:17:27Z</time>
      </trkpt>
      <trkpt lat="45.85948" lon="4.66827">
        <ele>212</ele>
        <time>2018-02-04T10:17:28Z</time>
      </trkpt>
      <trkpt lat="45.85949" lon="4.66821">
        <ele>212</ele>
        <time>2018-02-04T10:17:29Z</time>
      </trkpt>
      <trkpt lat="45.85951" lon="4.66815">
        <ele>212</ele>
        <time>2018-02-04T10:17:30Z</time>
      </trkpt>
      <trkpt lat="45.85953" lon="4.66808">
        <ele>213</ele>
        <time>2018-02-04T10:17:31Z</time>
      </trkpt>
      <trkpt lat="45.85954" lon="4.66801">
        <ele>213</ele>
        <time>2018-02-04T10:17:32Z</time>
      </trkpt>
      <trkpt lat="45.85956" lon="4.66793">
        <ele>213</ele>
        <time>2018-02-04T10:17:33Z</time>
      </trkpt>
      <trkpt lat="45.8596" lon="4.66782">
        <ele>213</ele>
        <time>2018-02-04T10:17:35Z</time>
      </trkpt>
      <trkpt lat="45.85963" lon="4.66776">
        <ele>214</ele>
        <time>2018-02-04T10:17:36Z</time>
      </trkpt>
      <trkpt lat="45.85966" lon="4.66767">
        <ele>214</ele>
        <time>2018-02-04T10:17:37Z</time>
      </trkpt>
      <trkpt lat="45.85969" lon="4.66759">
        <ele>214</ele>
        <time>2018-02-04T10:17:38Z</time>
      </trkpt>
      <trkpt lat="45.85972" lon="4.66752">
        <ele>214</ele>
        <time>2018-02-04T10:17:39Z</time>
      </trkpt>
      <trkpt lat="45.85976" lon="4.66743">
        <ele>216</ele>
        <time>2018-02-04T10:17:40Z</time>
      </trkpt>
      <trkpt lat="45.85978" lon="4.66736">
        <ele>216</ele>
        <time>2018-02-04T10:17:41Z</time>
      </trkpt>
      <trkpt lat="45.85981" lon="4.66729">
        <ele>216</ele>
        <time>2018-02-04T10:17:42Z</time>
      </trkpt>
      <trkpt lat="45.85983" lon="4.66723">
        <ele>215</ele>
        <time>2018-02-04T10:17:43Z</time>
      </trkpt>
      <trkpt lat="45.85986" lon="4.66718">
        <ele>215</ele>
        <time>2018-02-04T10:17:44Z</time>
      </trkpt>
      <trkpt lat="45.85989" lon="4.66713">
        <ele>215</ele>
        <time>2018-02-04T10:17:45Z</time>
      </trkpt>
      <trkpt lat="45.85992" lon="4.66706">
        <ele>215</ele>
        <time>2018-02-04T10:17:46Z</time>
      </trkpt>
      <trkpt lat="45.85996" lon="4.667">
        <ele>215</ele>
        <time>2018-02-04T10:17:47Z</time>
      </trkpt>
      <trkpt lat="45.86" lon="4.66694">
        <ele>214</ele>
        <time>2018-02-04T10:17:48Z</time>
      </trkpt>
      <trkpt lat="45.86003" lon="4.6669">
        <ele>217</ele>
        <time>2018-02-04T10:17:49Z</time>
      </trkpt>
      <trkpt lat="45.86007" lon="4.66685">
        <ele>217</ele>
        <time>2018-02-04T10:17:50Z</time>
      </trkpt>
      <trkpt lat="45.8601" lon="4.6668">
        <ele>216</ele>
        <time>2018-02-04T10:17:51Z</time>
      </trkpt>
      <trkpt lat="45.86014" lon="4.66676">
        <ele>216</ele>
        <time>2018-02-04T10:17:52Z</time>
      </trkpt>
      <trkpt lat="45.86019" lon="4.6667">
        <ele>217</ele>
        <time>2018-02-04T10:17:53Z</time>
      </trkpt>
      <trkpt lat="45.86023" lon="4.66667">
        <ele>218</ele>
        <time>2018-02-04T10:17:54Z</time>
      </trkpt>
      <trkpt lat="45.86026" lon="4.66662">
        <ele>213</ele>
        <time>2018-02-04T10:17:55Z</time>
      </trkpt>
      <trkpt lat="45.86031" lon="4.66656">
        <ele>214</ele>
        <time>2018-02-04T10:17:56Z</time>
      </trkpt>
      <trkpt lat="45.86036" lon="4.6665">
        <ele>214</ele>
        <time>2018-02-04T10:17:57Z</time>
      </trkpt>
      <trkpt lat="45.8604" lon="4.66646">
        <ele>214</ele>
        <time>2018-02-04T10:17:58Z</time>
      </trkpt>
      <trkpt lat="45.86044" lon="4.66641">
        <ele>214</ele>
        <time>2018-02-04T10:17:59Z</time>
      </trkpt>
      <trkpt lat="45.86049" lon="4.66635">
        <ele>214</ele>
        <time>2018-02-04T10:18:00Z</time>
      </trkpt>
      <trkpt lat="45.86054" lon="4.66629">
        <ele>214</ele>
        <time>2018-02-04T10:18:01Z</time>
      </trkpt>
      <trkpt lat="45.86059" lon="4.66625">
        <ele>214</ele>
        <time>2018-02-04T10:18:02Z</time>
      </trkpt>
      <trkpt lat="45.86063" lon="4.6662">
        <ele>214</ele>
        <time>2018-02-04T10:18:03Z</time>
      </trkpt>
      <trkpt lat="45.86068" lon="4.66615">
        <ele>213</ele>
        <time>2018-02-04T10:18:04Z</time>
      </trkpt>
      <trkpt lat="45.86075" lon="4.6661">
        <ele>213</ele>
        <time>2018-02-04T10:18:05Z</time>
      </trkpt>
      <trkpt lat="45.8608" lon="4.66606">
        <ele>213</ele>
        <time>2018-02-04T10:18:06Z</time>
      </trkpt>
      <trkpt lat="45.86085" lon="4.66602">
        <ele>217</ele>
        <time>2018-02-04T10:18:07Z</time>
      </trkpt>
      <trkpt lat="45.86091" lon="4.66599">
        <ele>217</ele>
        <time>2018-02-04T10:18:08Z</time>
      </trkpt>
      <trkpt lat="45.86096" lon="4.66596">
        <ele>217</ele>
        <time>2018-02-04T10:18:09Z</time>
      </trkpt>
      <trkpt lat="45.86102" lon="4.66593">
        <ele>218</ele>
        <time>2018-02-04T10:18:10Z</time>
      </trkpt>
      <trkpt lat="45.86107" lon="4.66589">
        <ele>219</ele>
        <time>2018-02-04T10:18:11Z</time>
      </trkpt>
      <trkpt lat="45.86112" lon="4.66587">
        <ele>219</ele>
        <time>2018-02-04T10:18:12Z</time>
      </trkpt>
      <trkpt lat="45.86118" lon="4.66584">
        <ele>220</ele>
        <time>2018-02-04T10:18:13Z</time>
      </trkpt>
      <trkpt lat="45.86123" lon="4.6658">
        <ele>214</ele>
        <time>2018-02-04T10:18:14Z</time>
      </trkpt>
      <trkpt lat="45.86127" lon="4.66576">
        <ele>214</ele>
        <time>2018-02-04T10:18:15Z</time>
      </trkpt>
      <trkpt lat="45.86132" lon="4.66573">
        <ele>214</ele>
        <time>2018-02-04T10:18:16Z</time>
      </trkpt>
      <trkpt lat="45.86137" lon="4.66569">
        <ele>215</ele>
        <time>2018-02-04T10:18:17Z</time>
      </trkpt>
      <trkpt lat="45.86142" lon="4.66564">
        <ele>215</ele>
        <time>2018-02-04T10:18:18Z</time>
      </trkpt>
      <trkpt lat="45.86146" lon="4.66559">
        <ele>215</ele>
        <time>2018-02-04T10:18:19Z</time>
      </trkpt>
      <trkpt lat="45.8615" lon="4.66553">
        <ele>215</ele>
        <time>2018-02-04T10:18:20Z</time>
      </trkpt>
      <trkpt lat="45.86155" lon="4.66548">
        <ele>214</ele>
        <time>2018-02-04T10:18:21Z</time>
      </trkpt>
      <trkpt lat="45.86159" lon="4.66542">
        <ele>214</ele>
        <time>2018-02-04T10:18:22Z</time>
      </trkpt>
      <trkpt lat="45.86165" lon="4.66534">
        <ele>213</ele>
        <time>2018-02-04T10:18:23Z</time>
      </trkpt>
      <trkpt lat="45.86169" lon="4.66527">
        <ele>218</ele>
        <time>2018-02-04T10:18:24Z</time>
      </trkpt>
      <trkpt lat="45.86173" lon="4.6652">
        <ele>217</ele>
        <time>2018-02-04T10:18:25Z</time>
      </trkpt>
      <trkpt lat="45.86178" lon="4.66514">
        <ele>216</ele>
        <time>2018-02-04T10:18:26Z</time>
      </trkpt>
      <trkpt lat="45.86181" lon="4.66508">
        <ele>215</ele>
        <time>2018-02-04T10:18:27Z</time>
      </trkpt>
      <trkpt lat="45.86185" lon="4.66501">
        <ele>216</ele>
        <time>2018-02-04T10:18:28Z</time>
      </trkpt>
      <trkpt lat="45.86189" lon="4.66494">
        <ele>212</ele>
        <time>2018-02-04T10:18:29Z</time>
      </trkpt>
      <trkpt lat="45.86191" lon="4.66487">
        <ele>213</ele>
        <time>2018-02-04T10:18:30Z</time>
      </trkpt>
      <trkpt lat="45.86195" lon="4.6648">
        <ele>213</ele>
        <time>2018-02-04T10:18:31Z</time>
      </trkpt>
      <trkpt lat="45.86198" lon="4.66473">
        <ele>213</ele>
        <time>2018-02-04T10:18:32Z</time>
      </trkpt>
      <trkpt lat="45.86202" lon="4.66465">
        <ele>213</ele>
        <time>2018-02-04T10:18:33Z</time>
      </trkpt>
      <trkpt lat="45.86206" lon="4.66459">
        <ele>213</ele>
        <time>2018-02-04T10:18:34Z</time>
      </trkpt>
      <trkpt lat="45.8621" lon="4.66452">
        <ele>213</ele>
        <time>2018-02-04T10:18:35Z</time>
      </trkpt>
      <trkpt lat="45.86214" lon="4.66445">
        <ele>213</ele>
        <time>2018-02-04T10:18:36Z</time>
      </trkpt>
      <trkpt lat="45.86217" lon="4.66438">
        <ele>213</ele>
        <time>2018-02-04T10:18:37Z</time>
      </trkpt>
      <trkpt lat="45.8622" lon="4.66431">
        <ele>213</ele>
        <time>2018-02-04T10:18:38Z</time>
      </trkpt>
      <trkpt lat="45.86225" lon="4.66423">
        <ele>213</ele>
        <time>2018-02-04T10:18:39Z</time>
      </trkpt>
      <trkpt lat="45.86229" lon="4.66417">
        <ele>212</ele>
        <time>2018-02-04T10:18:40Z</time>
      </trkpt>
      <trkpt lat="45.86232" lon="4.6641">
        <ele>213</ele>
        <time>2018-02-04T10:18:41Z</time>
      </trkpt>
      <trkpt lat="45.86235" lon="4.66404">
        <ele>213</ele>
        <time>2018-02-04T10:18:42Z</time>
      </trkpt>
      <trkpt lat="45.86239" lon="4.66397">
        <ele>212</ele>
        <time>2018-02-04T10:18:43Z</time>
      </trkpt>
      <trkpt lat="45.86243" lon="4.66391">
        <ele>212</ele>
        <time>2018-02-04T10:18:44Z</time>
      </trkpt>
      <trkpt lat="45.86246" lon="4.66384">
        <ele>212</ele>
        <time>2018-02-04T10:18:45Z</time>
      </trkpt>
      <trkpt lat="45.8625" lon="4.66378">
        <ele>212</ele>
        <time>2018-02-04T10:18:46Z</time>
      </trkpt>
      <trkpt lat="45.86254" lon="4.66371">
        <ele>216</ele>
        <time>2018-02-04T10:18:47Z</time>
      </trkpt>
      <trkpt lat="45.86257" lon="4.66366">
        <ele>216</ele>
        <time>2018-02-04T10:18:48Z</time>
      </trkpt>
      <trkpt lat="45.86261" lon="4.66361">
        <ele>216</ele>
        <time>2018-02-04T10:18:49Z</time>
      </trkpt>
      <trkpt lat="45.86264" lon="4.66356">
        <ele>215</ele>
        <time>2018-02-04T10:18:50Z</time>
      </trkpt>
      <trkpt lat="45.86267" lon="4.6635">
        <ele>215</ele>
        <time>2018-02-04T10:18:51Z</time>
      </trkpt>
      <trkpt lat="45.8627" lon="4.66344">
        <ele>215</ele>
        <time>2018-02-04T10:18:52Z</time>
      </trkpt>
      <trkpt lat="45.86274" lon="4.66337">
        <ele>216</ele>
        <time>2018-02-04T10:18:53Z</time>
      </trkpt>
      <trkpt lat="45.86277" lon="4.66331">
        <ele>213</ele>
        <time>2018-02-04T10:18:54Z</time>
      </trkpt>
      <trkpt lat="45.86281" lon="4.66326">
        <ele>214</ele>
        <time>2018-02-04T10:18:55Z</time>
      </trkpt>
      <trkpt lat="45.86286" lon="4.6632">
        <ele>214</ele>
        <time>2018-02-04T10:18:56Z</time>
      </trkpt>
      <trkpt lat="45.86289" lon="4.66316">
        <ele>214</ele>
        <time>2018-02-04T10:18:57Z</time>
      </trkpt>
      <trkpt lat="45.86295" lon="4.6631">
        <ele>214</ele>
        <time>2018-02-04T10:18:58Z</time>
      </trkpt>
      <trkpt lat="45.863" lon="4.66305">
        <ele>214</ele>
        <time>2018-02-04T10:18:59Z</time>
      </trkpt>
      <trkpt lat="45.86304" lon="4.663">
        <ele>214</ele>
        <time>2018-02-04T10:19:00Z</time>
      </trkpt>
      <trkpt lat="45.86308" lon="4.66295">
        <ele>214</ele>
        <time>2018-02-04T10:19:01Z</time>
      </trkpt>
      <trkpt lat="45.86312" lon="4.66289">
        <ele>214</ele>
        <time>2018-02-04T10:19:02Z</time>
      </trkpt>
      <trkpt lat="45.86316" lon="4.66284">
        <ele>214</ele>
        <time>2018-02-04T10:19:03Z</time>
      </trkpt>
      <trkpt lat="45.86321" lon="4.6628">
        <ele>214</ele>
        <time>2018-02-04T10:19:04Z</time>
      </trkpt>
      <trkpt lat="45.86326" lon="4.66277">
        <ele>214</ele>
        <time>2018-02-04T10:19:05Z</time>
      </trkpt>
      <trkpt lat="45.86331" lon="4.66273">
        <ele>214</ele>
        <time>2018-02-04T10:19:06Z</time>
      </trkpt>
      <trkpt lat="45.86336" lon="4.66269">
        <ele>217</ele>
        <time>2018-02-04T10:19:07Z</time>
      </trkpt>
      <trkpt lat="45.8634" lon="4.66265">
        <ele>217</ele>
        <time>2018-02-04T10:19:08Z</time>
      </trkpt>
      <trkpt lat="45.86345" lon="4.66262">
        <ele>217</ele>
        <time>2018-02-04T10:19:09Z</time>
      </trkpt>
      <trkpt lat="45.86349" lon="4.66258">
        <ele>217</ele>
        <time>2018-02-04T10:19:10Z</time>
      </trkpt>
      <trkpt lat="45.86355" lon="4.66256">
        <ele>217</ele>
        <time>2018-02-04T10:19:11Z</time>
      </trkpt>
      <trkpt lat="45.8636" lon="4.66252">
        <ele>218</ele>
        <time>2018-02-04T10:19:12Z</time>
      </trkpt>
      <trkpt lat="45.86368" lon="4.66246">
        <ele>213</ele>
        <time>2018-02-04T10:19:14Z</time>
      </trkpt>
      <trkpt lat="45.86373" lon="4.66243">
        <ele>214</ele>
        <time>2018-02-04T10:19:15Z</time>
      </trkpt>
      <trkpt lat="45.86378" lon="4.66241">
        <ele>214</ele>
        <time>2018-02-04T10:19:16Z</time>
      </trkpt>
      <trkpt lat="45.86384" lon="4.66239">
        <ele>214</ele>
        <time>2018-02-04T10:19:17Z</time>
      </trkpt>
      <trkpt lat="45.86389" lon="4.66236">
        <ele>214</ele>
        <time>2018-02-04T10:19:18Z</time>
      </trkpt>
      <trkpt lat="45.86394" lon="4.66233">
        <ele>215</ele>
        <time>2018-02-04T10:19:19Z</time>
      </trkpt>
      <trkpt lat="45.864" lon="4.66231">
        <ele>215</ele>
        <time>2018-02-04T10:19:20Z</time>
      </trkpt>
      <trkpt lat="45.86405" lon="4.66228">
        <ele>215</ele>
        <time>2018-02-04T10:19:21Z</time>
      </trkpt>
      <trkpt lat="45.86411" lon="4.66226">
        <ele>215</ele>
        <time>2018-02-04T10:19:22Z</time>
      </trkpt>
      <trkpt lat="45.86416" lon="4.66224">
        <ele>215</ele>
        <time>2018-02-04T10:19:23Z</time>
      </trkpt>
      <trkpt lat="45.86422" lon="4.66222">
        <ele>218</ele>
        <time>2018-02-04T10:19:24Z</time>
      </trkpt>
      <trkpt lat="45.86427" lon="4.66221">
        <ele>218</ele>
        <time>2018-02-04T10:19:25Z</time>
      </trkpt>
      <trkpt lat="45.86432" lon="4.66219">
        <ele>218</ele>
        <time>2018-02-04T10:19:26Z</time>
      </trkpt>
      <trkpt lat="45.86437" lon="4.66219">
        <ele>218</ele>
        <time>2018-02-04T10:19:27Z</time>
      </trkpt>
      <trkpt lat="45.86443" lon="4.66217">
        <ele>218</ele>
        <time>2018-02-04T10:19:28Z</time>
      </trkpt>
      <trkpt lat="45.86448" lon="4.66214">
        <ele>218</ele>
        <time>2018-02-04T10:19:29Z</time>
      </trkpt>
      <trkpt lat="45.86453" lon="4.66213">
        <ele>218</ele>
        <time>2018-02-04T10:19:30Z</time>
      </trkpt>
      <trkpt lat="45.86458" lon="4.66212">
        <ele>218</ele>
        <time>2018-02-04T10:19:31Z</time>
      </trkpt>
      <trkpt lat="45.86463" lon="4.66211">
        <ele>218</ele>
        <time>2018-02-04T10:19:32Z</time>
      </trkpt>
      <trkpt lat="45.86468" lon="4.66209">
        <ele>218</ele>
        <time>2018-02-04T10:19:33Z</time>
      </trkpt>
      <trkpt lat="45.86477" lon="4.66208">
        <ele>218</ele>
        <time>2018-02-04T10:19:35Z</time>
      </trkpt>
      <trkpt lat="45.86481" lon="4.66207">
        <ele>218</ele>
        <time>2018-02-04T10:19:36Z</time>
      </trkpt>
      <trkpt lat="45.86486" lon="4.66205">
        <ele>218</ele>
        <time>2018-02-04T10:19:37Z</time>
      </trkpt>
      <trkpt lat="45.8649" lon="4.66203">
        <ele>218</ele>
        <time>2018-02-04T10:19:38Z</time>
      </trkpt>
      <trkpt lat="45.86494" lon="4.662">
        <ele>218</ele>
        <time>2018-02-04T10:19:39Z</time>
      </trkpt>
      <trkpt lat="45.86499" lon="4.66198">
        <ele>218</ele>
        <time>2018-02-04T10:19:40Z</time>
      </trkpt>
      <trkpt lat="45.86504" lon="4.66196">
        <ele>223</ele>
        <time>2018-02-04T10:19:41Z</time>
      </trkpt>
      <trkpt lat="45.86509" lon="4.66192">
        <ele>223</ele>
        <time>2018-02-04T10:19:42Z</time>
      </trkpt>
      <trkpt lat="45.86514" lon="4.6619">
        <ele>223</ele>
        <time>2018-02-04T10:19:43Z</time>
      </trkpt>
      <trkpt lat="45.86519" lon="4.66187">
        <ele>223</ele>
        <time>2018-02-04T10:19:44Z</time>
      </trkpt>
      <trkpt lat="45.86524" lon="4.66184">
        <ele>223</ele>
        <time>2018-02-04T10:19:45Z</time>
      </trkpt>
      <trkpt lat="45.86528" lon="4.66181">
        <ele>224</ele>
        <time>2018-02-04T10:19:46Z</time>
      </trkpt>
      <trkpt lat="45.86533" lon="4.66177">
        <ele>224</ele>
        <time>2018-02-04T10:19:47Z</time>
      </trkpt>
      <trkpt lat="45.86537" lon="4.66173">
        <ele>225</ele>
        <time>2018-02-04T10:19:48Z</time>
      </trkpt>
      <trkpt lat="45.86542" lon="4.6617">
        <ele>225</ele>
        <time>2018-02-04T10:19:49Z</time>
      </trkpt>
      <trkpt lat="45.86547" lon="4.66167">
        <ele>226</ele>
        <time>2018-02-04T10:19:50Z</time>
      </trkpt>
      <trkpt lat="45.86552" lon="4.66164">
        <ele>219</ele>
        <time>2018-02-04T10:19:51Z</time>
      </trkpt>
      <trkpt lat="45.86556" lon="4.66161">
        <ele>219</ele>
        <time>2018-02-04T10:19:52Z</time>
      </trkpt>
      <trkpt lat="45.86561" lon="4.66156">
        <ele>219</ele>
        <time>2018-02-04T10:19:53Z</time>
      </trkpt>
      <trkpt lat="45.86565" lon="4.66153">
        <ele>220</ele>
        <time>2018-02-04T10:19:54Z</time>
      </trkpt>
      <trkpt lat="45.8657" lon="4.66148">
        <ele>220</ele>
        <time>2018-02-04T10:19:55Z</time>
      </trkpt>
      <trkpt lat="45.86574" lon="4.66143">
        <ele>219</ele>
        <time>2018-02-04T10:19:56Z</time>
      </trkpt>
      <trkpt lat="45.86579" lon="4.66139">
        <ele>219</ele>
        <time>2018-02-04T10:19:57Z</time>
      </trkpt>
      <trkpt lat="45.86584" lon="4.66134">
        <ele>225</ele>
        <time>2018-02-04T10:19:58Z</time>
      </trkpt>
      <trkpt lat="45.86589" lon="4.6613">
        <ele>224</ele>
        <time>2018-02-04T10:19:59Z</time>
      </trkpt>
      <trkpt lat="45.86593" lon="4.66126">
        <ele>224</ele>
        <time>2018-02-04T10:20:00Z</time>
      </trkpt>
      <trkpt lat="45.86598" lon="4.66123">
        <ele>224</ele>
        <time>2018-02-04T10:20:01Z</time>
      </trkpt>
      <trkpt lat="45.86604" lon="4.66119">
        <ele>223</ele>
        <time>2018-02-04T10:20:02Z</time>
      </trkpt>
      <trkpt lat="45.86608" lon="4.66117">
        <ele>223</ele>
        <time>2018-02-04T10:20:03Z</time>
      </trkpt>
      <trkpt lat="45.86613" lon="4.66113">
        <ele>223</ele>
        <time>2018-02-04T10:20:04Z</time>
      </trkpt>
      <trkpt lat="45.86618" lon="4.6611">
        <ele>223</ele>
        <time>2018-02-04T10:20:05Z</time>
      </trkpt>
      <trkpt lat="45.86623" lon="4.66107">
        <ele>223</ele>
        <time>2018-02-04T10:20:06Z</time>
      </trkpt>
      <trkpt lat="45.86628" lon="4.66105">
        <ele>224</ele>
        <time>2018-02-04T10:20:07Z</time>
      </trkpt>
      <trkpt lat="45.86632" lon="4.66103">
        <ele>224</ele>
        <time>2018-02-04T10:20:08Z</time>
      </trkpt>
      <trkpt lat="45.8664" lon="4.66098">
        <ele>223</ele>
        <time>2018-02-04T10:20:10Z</time>
      </trkpt>
      <trkpt lat="45.86644" lon="4.66096">
        <ele>223</ele>
        <time>2018-02-04T10:20:11Z</time>
      </trkpt>
      <trkpt lat="45.86648" lon="4.66095">
        <ele>223</ele>
        <time>2018-02-04T10:20:12Z</time>
      </trkpt>
      <trkpt lat="45.86653" lon="4.66093">
        <ele>222</ele>
        <time>2018-02-04T10:20:13Z</time>
      </trkpt>
      <trkpt lat="45.86657" lon="4.66091">
        <ele>222</ele>
        <time>2018-02-04T10:20:14Z</time>
      </trkpt>
      <trkpt lat="45.86662" lon="4.66089">
        <ele>221</ele>
        <time>2018-02-04T10:20:15Z</time>
      </trkpt>
      <trkpt lat="45.86671" lon="4.66086">
        <ele>223</ele>
        <time>2018-02-04T10:20:17Z</time>
      </trkpt>
      <trkpt lat="45.86675" lon="4.66083">
        <ele>226</ele>
        <time>2018-02-04T10:20:18Z</time>
      </trkpt>
      <trkpt lat="45.8668" lon="4.66081">
        <ele>220</ele>
        <time>2018-02-04T10:20:19Z</time>
      </trkpt>
      <trkpt lat="45.86684" lon="4.66079">
        <ele>221</ele>
        <time>2018-02-04T10:20:20Z</time>
      </trkpt>
      <trkpt lat="45.86689" lon="4.66074">
        <ele>221</ele>
        <time>2018-02-04T10:20:21Z</time>
      </trkpt>
      <trkpt lat="45.86694" lon="4.66072">
        <ele>222</ele>
        <time>2018-02-04T10:20:22Z</time>
      </trkpt>
      <trkpt lat="45.86701" lon="4.66066">
        <ele>222</ele>
        <time>2018-02-04T10:20:24Z</time>
      </trkpt>
      <trkpt lat="45.86705" lon="4.66065">
        <ele>223</ele>
        <time>2018-02-04T10:20:25Z</time>
      </trkpt>
      <trkpt lat="45.86711" lon="4.66062">
        <ele>224</ele>
        <time>2018-02-04T10:20:26Z</time>
      </trkpt>
      <trkpt lat="45.86716" lon="4.66059">
        <ele>224</ele>
        <time>2018-02-04T10:20:27Z</time>
      </trkpt>
      <trkpt lat="45.86722" lon="4.66054">
        <ele>224</ele>
        <time>2018-02-04T10:20:29Z</time>
      </trkpt>
      <trkpt lat="45.86729" lon="4.66053">
        <ele>225</ele>
        <time>2018-02-04T10:20:30Z</time>
      </trkpt>
      <trkpt lat="45.86732" lon="4.66049">
        <ele>224</ele>
        <time>2018-02-04T10:20:31Z</time>
      </trkpt>
      <trkpt lat="45.86737" lon="4.66045">
        <ele>224</ele>
        <time>2018-02-04T10:20:32Z</time>
      </trkpt>
      <trkpt lat="45.8674" lon="4.66042">
        <ele>224</ele>
        <time>2018-02-04T10:20:33Z</time>
      </trkpt>
      <trkpt lat="45.86744" lon="4.66038">
        <ele>223</ele>
        <time>2018-02-04T10:20:34Z</time>
      </trkpt>
      <trkpt lat="45.8675" lon="4.66033">
        <ele>222</ele>
        <time>2018-02-04T10:20:35Z</time>
      </trkpt>
      <trkpt lat="45.86755" lon="4.66029">
        <ele>231</ele>
        <time>2018-02-04T10:20:36Z</time>
      </trkpt>
      <trkpt lat="45.86761" lon="4.66021">
        <ele>229</ele>
        <time>2018-02-04T10:20:38Z</time>
      </trkpt>
      <trkpt lat="45.86765" lon="4.66017">
        <ele>229</ele>
        <time>2018-02-04T10:20:39Z</time>
      </trkpt>
      <trkpt lat="45.8677" lon="4.66014">
        <ele>229</ele>
        <time>2018-02-04T10:20:40Z</time>
      </trkpt>
      <trkpt lat="45.86775" lon="4.6601">
        <ele>230</ele>
        <time>2018-02-04T10:20:41Z</time>
      </trkpt>
      <trkpt lat="45.86781" lon="4.66003">
        <ele>231</ele>
        <time>2018-02-04T10:20:43Z</time>
      </trkpt>
      <trkpt lat="45.86785" lon="4.65996">
        <ele>222</ele>
        <time>2018-02-04T10:20:44Z</time>
      </trkpt>
      <trkpt lat="45.86788" lon="4.6599">
        <ele>222</ele>
        <time>2018-02-04T10:20:45Z</time>
      </trkpt>
      <trkpt lat="45.86791" lon="4.65984">
        <ele>222</ele>
        <time>2018-02-04T10:20:46Z</time>
      </trkpt>
      <trkpt lat="45.86794" lon="4.6598">
        <ele>223</ele>
        <time>2018-02-04T10:20:47Z</time>
      </trkpt>
      <trkpt lat="45.86797" lon="4.65974">
        <ele>223</ele>
        <time>2018-02-04T10:20:48Z</time>
      </trkpt>
      <trkpt lat="45.86801" lon="4.6597">
        <ele>223</ele>
        <time>2018-02-04T10:20:49Z</time>
      </trkpt>
      <trkpt lat="45.86805" lon="4.65964">
        <ele>223</ele>
        <time>2018-02-04T10:20:50Z</time>
      </trkpt>
      <trkpt lat="45.86809" lon="4.6596">
        <ele>223</ele>
        <time>2018-02-04T10:20:51Z</time>
      </trkpt>
      <trkpt lat="45.86813" lon="4.65956">
        <ele>223</ele>
        <time>2018-02-04T10:20:52Z</time>
      </trkpt>
      <trkpt lat="45.86816" lon="4.65951">
        <ele>222</ele>
        <time>2018-02-04T10:20:53Z</time>
      </trkpt>
      <trkpt lat="45.86819" lon="4.65945">
        <ele>222</ele>
        <time>2018-02-04T10:20:54Z</time>
      </trkpt>
      <trkpt lat="45.86823" lon="4.65939">
        <ele>222</ele>
        <time>2018-02-04T10:20:55Z</time>
      </trkpt>
      <trkpt lat="45.86825" lon="4.65933">
        <ele>222</ele>
        <time>2018-02-04T10:20:56Z</time>
      </trkpt>
      <trkpt lat="45.86828" lon="4.65927">
        <ele>221</ele>
        <time>2018-02-04T10:20:57Z</time>
      </trkpt>
      <trkpt lat="45.86831" lon="4.6592">
        <ele>221</ele>
        <time>2018-02-04T10:20:58Z</time>
      </trkpt>
      <trkpt lat="45.86834" lon="4.65913">
        <ele>222</ele>
        <time>2018-02-04T10:20:59Z</time>
      </trkpt>
      <trkpt lat="45.86837" lon="4.65906">
        <ele>224</ele>
        <time>2018-02-04T10:21:00Z</time>
      </trkpt>
      <trkpt lat="45.8684" lon="4.65899">
        <ele>225</ele>
        <time>2018-02-04T10:21:01Z</time>
      </trkpt>
      <trkpt lat="45.86842" lon="4.65894">
        <ele>226</ele>
        <time>2018-02-04T10:21:02Z</time>
      </trkpt>
      <trkpt lat="45.86846" lon="4.65887">
        <ele>226</ele>
        <time>2018-02-04T10:21:03Z</time>
      </trkpt>
      <trkpt lat="45.86849" lon="4.65881">
        <ele>226</ele>
        <time>2018-02-04T10:21:04Z</time>
      </trkpt>
      <trkpt lat="45.86852" lon="4.65876">
        <ele>226</ele>
        <time>2018-02-04T10:21:05Z</time>
      </trkpt>
      <trkpt lat="45.86856" lon="4.65869">
        <ele>226</ele>
        <time>2018-02-04T10:21:06Z</time>
      </trkpt>
      <trkpt lat="45.86858" lon="4.65862">
        <ele>226</ele>
        <time>2018-02-04T10:21:07Z</time>
      </trkpt>
      <trkpt lat="45.8686" lon="4.65854">
        <ele>225</ele>
        <time>2018-02-04T10:21:08Z</time>
      </trkpt>
      <trkpt lat="45.86863" lon="4.65847">
        <ele>225</ele>
        <time>2018-02-04T10:21:09Z</time>
      </trkpt>
      <trkpt lat="45.86864" lon="4.6584">
        <ele>225</ele>
        <time>2018-02-04T10:21:10Z</time>
      </trkpt>
      <trkpt lat="45.86867" lon="4.65834">
        <ele>225</ele>
        <time>2018-02-04T10:21:11Z</time>
      </trkpt>
      <trkpt lat="45.86869" lon="4.65826">
        <ele>221</ele>
        <time>2018-02-04T10:21:12Z</time>
      </trkpt>
      <trkpt lat="45.8687" lon="4.6582">
        <ele>222</ele>
        <time>2018-02-04T10:21:13Z</time>
      </trkpt>
      <trkpt lat="45.86872" lon="4.65813">
        <ele>222</ele>
        <time>2018-02-04T10:21:14Z</time>
      </trkpt>
      <trkpt lat="45.86874" lon="4.65806">
        <ele>222</ele>
        <time>2018-02-04T10:21:15Z</time>
      </trkpt>
      <trkpt lat="45.86878" lon="4.65797">
        <ele>222</ele>
        <time>2018-02-04T10:21:16Z</time>
      </trkpt>
      <trkpt lat="45.86879" lon="4.65785">
        <ele>222</ele>
        <time>2018-02-04T10:21:18Z</time>
      </trkpt>
      <trkpt lat="45.8688" lon="4.65778">
        <ele>222</ele>
        <time>2018-02-04T10:21:19Z</time>
      </trkpt>
      <trkpt lat="45.86882" lon="4.65771">
        <ele>223</ele>
        <time>2018-02-04T10:21:20Z</time>
      </trkpt>
      <trkpt lat="45.86884" lon="4.65764">
        <ele>223</ele>
        <time>2018-02-04T10:21:21Z</time>
      </trkpt>
      <trkpt lat="45.86885" lon="4.65757">
        <ele>223</ele>
        <time>2018-02-04T10:21:22Z</time>
      </trkpt>
      <trkpt lat="45.86887" lon="4.65747">
        <ele>223</ele>
        <time>2018-02-04T10:21:23Z</time>
      </trkpt>
      <trkpt lat="45.86887" lon="4.65739">
        <ele>223</ele>
        <time>2018-02-04T10:21:24Z</time>
      </trkpt>
      <trkpt lat="45.86889" lon="4.65729">
        <ele>223</ele>
        <time>2018-02-04T10:21:25Z</time>
      </trkpt>
      <trkpt lat="45.86889" lon="4.65721">
        <ele>223</ele>
        <time>2018-02-04T10:21:26Z</time>
      </trkpt>
      <trkpt lat="45.8689" lon="4.65711">
        <ele>223</ele>
        <time>2018-02-04T10:21:27Z</time>
      </trkpt>
      <trkpt lat="45.86892" lon="4.65703">
        <ele>223</ele>
        <time>2018-02-04T10:21:29Z</time>
      </trkpt>
      <trkpt lat="45.86893" lon="4.65692">
        <ele>223</ele>
        <time>2018-02-04T10:21:30Z</time>
      </trkpt>
      <trkpt lat="45.86894" lon="4.65684">
        <ele>224</ele>
        <time>2018-02-04T10:21:31Z</time>
      </trkpt>
      <trkpt lat="45.86894" lon="4.65676">
        <ele>224</ele>
        <time>2018-02-04T10:21:32Z</time>
      </trkpt>
      <trkpt lat="45.86894" lon="4.65669">
        <ele>225</ele>
        <time>2018-02-04T10:21:33Z</time>
      </trkpt>
      <trkpt lat="45.86895" lon="4.65661">
        <ele>225</ele>
        <time>2018-02-04T10:21:34Z</time>
      </trkpt>
      <trkpt lat="45.86897" lon="4.65652">
        <ele>224</ele>
        <time>2018-02-04T10:21:35Z</time>
      </trkpt>
      <trkpt lat="45.86898" lon="4.65643">
        <ele>224</ele>
        <time>2018-02-04T10:21:36Z</time>
      </trkpt>
      <trkpt lat="45.86898" lon="4.65635">
        <ele>223</ele>
        <time>2018-02-04T10:21:37Z</time>
      </trkpt>
      <trkpt lat="45.86899" lon="4.65625">
        <ele>223</ele>
        <time>2018-02-04T10:21:38Z</time>
      </trkpt>
      <trkpt lat="45.86901" lon="4.65616">
        <ele>223</ele>
        <time>2018-02-04T10:21:39Z</time>
      </trkpt>
      <trkpt lat="45.86903" lon="4.65607">
        <ele>223</ele>
        <time>2018-02-04T10:21:40Z</time>
      </trkpt>
      <trkpt lat="45.86906" lon="4.65598">
        <ele>224</ele>
        <time>2018-02-04T10:21:41Z</time>
      </trkpt>
      <trkpt lat="45.86907" lon="4.65588">
        <ele>224</ele>
        <time>2018-02-04T10:21:42Z</time>
      </trkpt>
      <trkpt lat="45.86909" lon="4.65578">
        <ele>223</ele>
        <time>2018-02-04T10:21:43Z</time>
      </trkpt>
      <trkpt lat="45.86911" lon="4.65568">
        <ele>221</ele>
        <time>2018-02-04T10:21:44Z</time>
      </trkpt>
      <trkpt lat="45.86913" lon="4.65558">
        <ele>220</ele>
        <time>2018-02-04T10:21:45Z</time>
      </trkpt>
      <trkpt lat="45.86917" lon="4.65549">
        <ele>230</ele>
        <time>2018-02-04T10:21:46Z</time>
      </trkpt>
      <trkpt lat="45.86921" lon="4.65539">
        <ele>229</ele>
        <time>2018-02-04T10:21:47Z</time>
      </trkpt>
      <trkpt lat="45.86923" lon="4.65529">
        <ele>228</ele>
        <time>2018-02-04T10:21:48Z</time>
      </trkpt>
      <trkpt lat="45.86927" lon="4.65521">
        <ele>227</ele>
        <time>2018-02-04T10:21:49Z</time>
      </trkpt>
      <trkpt lat="45.86932" lon="4.65513">
        <ele>226</ele>
        <time>2018-02-04T10:21:50Z</time>
      </trkpt>
      <trkpt lat="45.86935" lon="4.65505">
        <ele>226</ele>
        <time>2018-02-04T10:21:51Z</time>
      </trkpt>
      <trkpt lat="45.8694" lon="4.65497">
        <ele>221</ele>
        <time>2018-02-04T10:21:52Z</time>
      </trkpt>
      <trkpt lat="45.86943" lon="4.65488">
        <ele>222</ele>
        <time>2018-02-04T10:21:53Z</time>
      </trkpt>
      <trkpt lat="45.86947" lon="4.65482">
        <ele>222</ele>
        <time>2018-02-04T10:21:54Z</time>
      </trkpt>
      <trkpt lat="45.86951" lon="4.65475">
        <ele>222</ele>
        <time>2018-02-04T10:21:55Z</time>
      </trkpt>
      <trkpt lat="45.86954" lon="4.65468">
        <ele>222</ele>
        <time>2018-02-04T10:21:56Z</time>
      </trkpt>
      <trkpt lat="45.86958" lon="4.65461">
        <ele>222</ele>
        <time>2018-02-04T10:21:57Z</time>
      </trkpt>
      <trkpt lat="45.86964" lon="4.65454">
        <ele>222</ele>
        <time>2018-02-04T10:21:58Z</time>
      </trkpt>
      <trkpt lat="45.86968" lon="4.65448">
        <ele>222</ele>
        <time>2018-02-04T10:21:59Z</time>
      </trkpt>
      <trkpt lat="45.86972" lon="4.65442">
        <ele>222</ele>
        <time>2018-02-04T10:22:00Z</time>
      </trkpt>
      <trkpt lat="45.86977" lon="4.65435">
        <ele>222</ele>
        <time>2018-02-04T10:22:01Z</time>
      </trkpt>
      <trkpt lat="45.86983" lon="4.65429">
        <ele>222</ele>
        <time>2018-02-04T10:22:02Z</time>
      </trkpt>
      <trkpt lat="45.86988" lon="4.65423">
        <ele>221</ele>
        <time>2018-02-04T10:22:03Z</time>
      </trkpt>
      <trkpt lat="45.86992" lon="4.65417">
        <ele>221</ele>
        <time>2018-02-04T10:22:04Z</time>
      </trkpt>
      <trkpt lat="45.86997" lon="4.65411">
        <ele>220</ele>
        <time>2018-02-04T10:22:05Z</time>
      </trkpt>
      <trkpt lat="45.87002" lon="4.65407">
        <ele>222</ele>
        <time>2018-02-04T10:22:06Z</time>
      </trkpt>
      <trkpt lat="45.87009" lon="4.654">
        <ele>223</ele>
        <time>2018-02-04T10:22:07Z</time>
      </trkpt>
      <trkpt lat="45.87011" lon="4.65395">
        <ele>223</ele>
        <time>2018-02-04T10:22:08Z</time>
      </trkpt>
      <trkpt lat="45.87016" lon="4.65388">
        <ele>223</ele>
        <time>2018-02-04T10:22:09Z</time>
      </trkpt>
      <trkpt lat="45.8702" lon="4.65382">
        <ele>223</ele>
        <time>2018-02-04T10:22:10Z</time>
      </trkpt>
      <trkpt lat="45.87026" lon="4.65375">
        <ele>223</ele>
        <time>2018-02-04T10:22:11Z</time>
      </trkpt>
      <trkpt lat="45.87031" lon="4.65369">
        <ele>223</ele>
        <time>2018-02-04T10:22:12Z</time>
      </trkpt>
      <trkpt lat="45.87034" lon="4.65363">
        <ele>223</ele>
        <time>2018-02-04T10:22:13Z</time>
      </trkpt>
      <trkpt lat="45.87038" lon="4.65357">
        <ele>223</ele>
        <time>2018-02-04T10:22:14Z</time>
      </trkpt>
      <trkpt lat="45.87042" lon="4.65352">
        <ele>223</ele>
        <time>2018-02-04T10:22:15Z</time>
      </trkpt>
      <trkpt lat="45.87045" lon="4.65345">
        <ele>223</ele>
        <time>2018-02-04T10:22:16Z</time>
      </trkpt>
      <trkpt lat="45.87049" lon="4.65339">
        <ele>223</ele>
        <time>2018-02-04T10:22:17Z</time>
      </trkpt>
      <trkpt lat="45.87052" lon="4.65332">
        <ele>218</ele>
        <time>2018-02-04T10:22:18Z</time>
      </trkpt>
      <trkpt lat="45.87055" lon="4.65326">
        <ele>218</ele>
        <time>2018-02-04T10:22:19Z</time>
      </trkpt>
      <trkpt lat="45.8706" lon="4.65322">
        <ele>218</ele>
        <time>2018-02-04T10:22:20Z</time>
      </trkpt>
      <trkpt lat="45.87063" lon="4.65314">
        <ele>218</ele>
        <time>2018-02-04T10:22:21Z</time>
      </trkpt>
      <trkpt lat="45.87065" lon="4.65308">
        <ele>217</ele>
        <time>2018-02-04T10:22:22Z</time>
      </trkpt>
      <trkpt lat="45.87069" lon="4.65301">
        <ele>217</ele>
        <time>2018-02-04T10:22:23Z</time>
      </trkpt>
      <trkpt lat="45.87071" lon="4.65295">
        <ele>217</ele>
        <time>2018-02-04T10:22:24Z</time>
      </trkpt>
      <trkpt lat="45.87075" lon="4.65287">
        <ele>216</ele>
        <time>2018-02-04T10:22:25Z</time>
      </trkpt>
      <trkpt lat="45.87078" lon="4.65279">
        <ele>215</ele>
        <time>2018-02-04T10:22:26Z</time>
      </trkpt>
      <trkpt lat="45.87082" lon="4.65272">
        <ele>215</ele>
        <time>2018-02-04T10:22:27Z</time>
      </trkpt>
      <trkpt lat="45.87086" lon="4.65265">
        <ele>221</ele>
        <time>2018-02-04T10:22:28Z</time>
      </trkpt>
      <trkpt lat="45.87089" lon="4.65257">
        <ele>219</ele>
        <time>2018-02-04T10:22:29Z</time>
      </trkpt>
      <trkpt lat="45.87092" lon="4.6525">
        <ele>215</ele>
        <time>2018-02-04T10:22:30Z</time>
      </trkpt>
      <trkpt lat="45.87096" lon="4.65243">
        <ele>217</ele>
        <time>2018-02-04T10:22:31Z</time>
      </trkpt>
      <trkpt lat="45.871" lon="4.65238">
        <ele>217</ele>
        <time>2018-02-04T10:22:32Z</time>
      </trkpt>
      <trkpt lat="45.87103" lon="4.65231">
        <ele>218</ele>
        <time>2018-02-04T10:22:33Z</time>
      </trkpt>
      <trkpt lat="45.87107" lon="4.65226">
        <ele>219</ele>
        <time>2018-02-04T10:22:34Z</time>
      </trkpt>
      <trkpt lat="45.87111" lon="4.6522">
        <ele>219</ele>
        <time>2018-02-04T10:22:35Z</time>
      </trkpt>
      <trkpt lat="45.87115" lon="4.65214">
        <ele>220</ele>
        <time>2018-02-04T10:22:36Z</time>
      </trkpt>
      <trkpt lat="45.87119" lon="4.65208">
        <ele>220</ele>
        <time>2018-02-04T10:22:37Z</time>
      </trkpt>
      <trkpt lat="45.87122" lon="4.65203">
        <ele>220</ele>
        <time>2018-02-04T10:22:38Z</time>
      </trkpt>
      <trkpt lat="45.87127" lon="4.65198">
        <ele>220</ele>
        <time>2018-02-04T10:22:39Z</time>
      </trkpt>
      <trkpt lat="45.8713" lon="4.65192">
        <ele>220</ele>
        <time>2018-02-04T10:22:40Z</time>
      </trkpt>
      <trkpt lat="45.87134" lon="4.65186">
        <ele>220</ele>
        <time>2018-02-04T10:22:41Z</time>
      </trkpt>
      <trkpt lat="45.87139" lon="4.65182">
        <ele>220</ele>
        <time>2018-02-04T10:22:42Z</time>
      </trkpt>
      <trkpt lat="45.87142" lon="4.65177">
        <ele>220</ele>
        <time>2018-02-04T10:22:43Z</time>
      </trkpt>
      <trkpt lat="45.87148" lon="4.65173">
        <ele>220</ele>
        <time>2018-02-04T10:22:44Z</time>
      </trkpt>
      <trkpt lat="45.87153" lon="4.65169">
        <ele>220</ele>
        <time>2018-02-04T10:22:45Z</time>
      </trkpt>
      <trkpt lat="45.87158" lon="4.65164">
        <ele>218</ele>
        <time>2018-02-04T10:22:46Z</time>
      </trkpt>
      <trkpt lat="45.87162" lon="4.65159">
        <ele>218</ele>
        <time>2018-02-04T10:22:47Z</time>
      </trkpt>
      <trkpt lat="45.87167" lon="4.65155">
        <ele>221</ele>
        <time>2018-02-04T10:22:48Z</time>
      </trkpt>
      <trkpt lat="45.87171" lon="4.6515">
        <ele>221</ele>
        <time>2018-02-04T10:22:49Z</time>
      </trkpt>
      <trkpt lat="45.87175" lon="4.65146">
        <ele>221</ele>
        <time>2018-02-04T10:22:50Z</time>
      </trkpt>
      <trkpt lat="45.8718" lon="4.65141">
        <ele>221</ele>
        <time>2018-02-04T10:22:51Z</time>
      </trkpt>
      <trkpt lat="45.87184" lon="4.65138">
        <ele>221</ele>
        <time>2018-02-04T10:22:52Z</time>
      </trkpt>
      <trkpt lat="45.87189" lon="4.65134">
        <ele>221</ele>
        <time>2018-02-04T10:22:53Z</time>
      </trkpt>
      <trkpt lat="45.87194" lon="4.6513">
        <ele>221</ele>
        <time>2018-02-04T10:22:54Z</time>
      </trkpt>
      <trkpt lat="45.87201" lon="4.65124">
        <ele>221</ele>
        <time>2018-02-04T10:22:56Z</time>
      </trkpt>
      <trkpt lat="45.87206" lon="4.65118">
        <ele>221</ele>
        <time>2018-02-04T10:22:57Z</time>
      </trkpt>
      <trkpt lat="45.87212" lon="4.65109">
        <ele>221</ele>
        <time>2018-02-04T10:22:59Z</time>
      </trkpt>
      <trkpt lat="45.87218" lon="4.65105">
        <ele>221</ele>
        <time>2018-02-04T10:23:00Z</time>
      </trkpt>
      <trkpt lat="45.87222" lon="4.65102">
        <ele>221</ele>
        <time>2018-02-04T10:23:01Z</time>
      </trkpt>
      <trkpt lat="45.87226" lon="4.65097">
        <ele>220</ele>
        <time>2018-02-04T10:23:02Z</time>
      </trkpt>
      <trkpt lat="45.8723" lon="4.65094">
        <ele>220</ele>
        <time>2018-02-04T10:23:03Z</time>
      </trkpt>
      <trkpt lat="45.87234" lon="4.6509">
        <ele>220</ele>
        <time>2018-02-04T10:23:04Z</time>
      </trkpt>
      <trkpt lat="45.87239" lon="4.65088">
        <ele>220</ele>
        <time>2018-02-04T10:23:05Z</time>
      </trkpt>
      <trkpt lat="45.87243" lon="4.65084">
        <ele>219</ele>
        <time>2018-02-04T10:23:06Z</time>
      </trkpt>
      <trkpt lat="45.87248" lon="4.65081">
        <ele>217</ele>
        <time>2018-02-04T10:23:07Z</time>
      </trkpt>
      <trkpt lat="45.87251" lon="4.65076">
        <ele>218</ele>
        <time>2018-02-04T10:23:08Z</time>
      </trkpt>
      <trkpt lat="45.87257" lon="4.65074">
        <ele>219</ele>
        <time>2018-02-04T10:23:09Z</time>
      </trkpt>
      <trkpt lat="45.87261" lon="4.6507">
        <ele>219</ele>
        <time>2018-02-04T10:23:10Z</time>
      </trkpt>
      <trkpt lat="45.87265" lon="4.65066">
        <ele>219</ele>
        <time>2018-02-04T10:23:11Z</time>
      </trkpt>
      <trkpt lat="45.87269" lon="4.65061">
        <ele>219</ele>
        <time>2018-02-04T10:23:12Z</time>
      </trkpt>
      <trkpt lat="45.87274" lon="4.65057">
        <ele>219</ele>
        <time>2018-02-04T10:23:13Z</time>
      </trkpt>
      <trkpt lat="45.87278" lon="4.65057">
        <ele>220</ele>
        <time>2018-02-04T10:23:14Z</time>
      </trkpt>
      <trkpt lat="45.87282" lon="4.65053">
        <ele>220</ele>
        <time>2018-02-04T10:23:15Z</time>
      </trkpt>
      <trkpt lat="45.87285" lon="4.65046">
        <ele>220</ele>
        <time>2018-02-04T10:23:16Z</time>
      </trkpt>
      <trkpt lat="45.87289" lon="4.65041">
        <ele>220</ele>
        <time>2018-02-04T10:23:17Z</time>
      </trkpt>
      <trkpt lat="45.87292" lon="4.65036">
        <ele>219</ele>
        <time>2018-02-04T10:23:18Z</time>
      </trkpt>
      <trkpt lat="45.87296" lon="4.65029">
        <ele>219</ele>
        <time>2018-02-04T10:23:19Z</time>
      </trkpt>
      <trkpt lat="45.873" lon="4.65025">
        <ele>219</ele>
        <time>2018-02-04T10:23:20Z</time>
      </trkpt>
      <trkpt lat="45.87304" lon="4.65019">
        <ele>219</ele>
        <time>2018-02-04T10:23:21Z</time>
      </trkpt>
      <trkpt lat="45.87308" lon="4.65013">
        <ele>219</ele>
        <time>2018-02-04T10:23:22Z</time>
      </trkpt>
      <trkpt lat="45.87311" lon="4.65006">
        <ele>219</ele>
        <time>2018-02-04T10:23:23Z</time>
      </trkpt>
      <trkpt lat="45.87315" lon="4.64999">
        <ele>215</ele>
        <time>2018-02-04T10:23:24Z</time>
      </trkpt>
      <trkpt lat="45.87319" lon="4.64994">
        <ele>216</ele>
        <time>2018-02-04T10:23:25Z</time>
      </trkpt>
      <trkpt lat="45.87323" lon="4.64987">
        <ele>215</ele>
        <time>2018-02-04T10:23:26Z</time>
      </trkpt>
      <trkpt lat="45.87325" lon="4.64981">
        <ele>215</ele>
        <time>2018-02-04T10:23:27Z</time>
      </trkpt>
      <trkpt lat="45.87329" lon="4.64974">
        <ele>215</ele>
        <time>2018-02-04T10:23:28Z</time>
      </trkpt>
      <trkpt lat="45.87333" lon="4.64967">
        <ele>214</ele>
        <time>2018-02-04T10:23:29Z</time>
      </trkpt>
      <trkpt lat="45.87336" lon="4.64961">
        <ele>218</ele>
        <time>2018-02-04T10:23:30Z</time>
      </trkpt>
      <trkpt lat="45.87339" lon="4.64954">
        <ele>218</ele>
        <time>2018-02-04T10:23:31Z</time>
      </trkpt>
      <trkpt lat="45.87342" lon="4.64948">
        <ele>218</ele>
        <time>2018-02-04T10:23:32Z</time>
      </trkpt>
      <trkpt lat="45.87345" lon="4.64942">
        <ele>217</ele>
        <time>2018-02-04T10:23:33Z</time>
      </trkpt>
      <trkpt lat="45.87348" lon="4.64936">
        <ele>217</ele>
        <time>2018-02-04T10:23:34Z</time>
      </trkpt>
      <trkpt lat="45.87352" lon="4.64931">
        <ele>217</ele>
        <time>2018-02-04T10:23:35Z</time>
      </trkpt>
      <trkpt lat="45.87356" lon="4.64925">
        <ele>217</ele>
        <time>2018-02-04T10:23:36Z</time>
      </trkpt>
      <trkpt lat="45.8736" lon="4.64919">
        <ele>217</ele>
        <time>2018-02-04T10:23:37Z</time>
      </trkpt>
      <trkpt lat="45.87364" lon="4.64913">
        <ele>214</ele>
        <time>2018-02-04T10:23:38Z</time>
      </trkpt>
      <trkpt lat="45.87367" lon="4.64907">
        <ele>214</ele>
        <time>2018-02-04T10:23:39Z</time>
      </trkpt>
      <trkpt lat="45.87372" lon="4.64902">
        <ele>215</ele>
        <time>2018-02-04T10:23:40Z</time>
      </trkpt>
      <trkpt lat="45.87375" lon="4.64897">
        <ele>215</ele>
        <time>2018-02-04T10:23:41Z</time>
      </trkpt>
      <trkpt lat="45.87379" lon="4.64893">
        <ele>215</ele>
        <time>2018-02-04T10:23:42Z</time>
      </trkpt>
      <trkpt lat="45.87383" lon="4.64889">
        <ele>215</ele>
        <time>2018-02-04T10:23:43Z</time>
      </trkpt>
      <trkpt lat="45.87387" lon="4.64884">
        <ele>215</ele>
        <time>2018-02-04T10:23:44Z</time>
      </trkpt>
      <trkpt lat="45.8739" lon="4.64879">
        <ele>215</ele>
        <time>2018-02-04T10:23:45Z</time>
      </trkpt>
      <trkpt lat="45.87394" lon="4.64873">
        <ele>215</ele>
        <time>2018-02-04T10:23:46Z</time>
      </trkpt>
      <trkpt lat="45.87397" lon="4.64867">
        <ele>215</ele>
        <time>2018-02-04T10:23:47Z</time>
      </trkpt>
      <trkpt lat="45.87402" lon="4.64863">
        <ele>215</ele>
        <time>2018-02-04T10:23:48Z</time>
      </trkpt>
      <trkpt lat="45.87405" lon="4.64857">
        <ele>215</ele>
        <time>2018-02-04T10:23:49Z</time>
      </trkpt>
      <trkpt lat="45.87409" lon="4.64852">
        <ele>215</ele>
        <time>2018-02-04T10:23:50Z</time>
      </trkpt>
      <trkpt lat="45.87414" lon="4.64847">
        <ele>215</ele>
        <time>2018-02-04T10:23:51Z</time>
      </trkpt>
      <trkpt lat="45.87419" lon="4.64843">
        <ele>217</ele>
        <time>2018-02-04T10:23:52Z</time>
      </trkpt>
      <trkpt lat="45.87422" lon="4.64836">
        <ele>216</ele>
        <time>2018-02-04T10:23:53Z</time>
      </trkpt>
      <trkpt lat="45.87427" lon="4.6483">
        <ele>215</ele>
        <time>2018-02-04T10:23:54Z</time>
      </trkpt>
      <trkpt lat="45.87431" lon="4.64824">
        <ele>215</ele>
        <time>2018-02-04T10:23:55Z</time>
      </trkpt>
      <trkpt lat="45.87435" lon="4.64818">
        <ele>215</ele>
        <time>2018-02-04T10:23:56Z</time>
      </trkpt>
      <trkpt lat="45.8744" lon="4.64812">
        <ele>215</ele>
        <time>2018-02-04T10:23:58Z</time>
      </trkpt>
      <trkpt lat="45.87445" lon="4.64805">
        <ele>214</ele>
        <time>2018-02-04T10:23:59Z</time>
      </trkpt>
      <trkpt lat="45.87449" lon="4.64799">
        <ele>214</ele>
        <time>2018-02-04T10:24:00Z</time>
      </trkpt>
      <trkpt lat="45.87453" lon="4.64793">
        <ele>214</ele>
        <time>2018-02-04T10:24:01Z</time>
      </trkpt>
      <trkpt lat="45.87459" lon="4.64788">
        <ele>214</ele>
        <time>2018-02-04T10:24:02Z</time>
      </trkpt>
      <trkpt lat="45.87463" lon="4.64785">
        <ele>214</ele>
        <time>2018-02-04T10:24:03Z</time>
      </trkpt>
      <trkpt lat="45.87467" lon="4.64778">
        <ele>214</ele>
        <time>2018-02-04T10:24:04Z</time>
      </trkpt>
      <trkpt lat="45.8747" lon="4.64768">
        <ele>214</ele>
        <time>2018-02-04T10:24:05Z</time>
      </trkpt>
      <trkpt lat="45.87473" lon="4.64762">
        <ele>214</ele>
        <time>2018-02-04T10:24:06Z</time>
      </trkpt>
      <trkpt lat="45.87478" lon="4.64757">
        <ele>214</ele>
        <time>2018-02-04T10:24:07Z</time>
      </trkpt>
      <trkpt lat="45.87483" lon="4.64751">
        <ele>214</ele>
        <time>2018-02-04T10:24:08Z</time>
      </trkpt>
      <trkpt lat="45.87487" lon="4.64746">
        <ele>213</ele>
        <time>2018-02-04T10:24:09Z</time>
      </trkpt>
      <trkpt lat="45.87492" lon="4.64742">
        <ele>213</ele>
        <time>2018-02-04T10:24:10Z</time>
      </trkpt>
      <trkpt lat="45.87496" lon="4.64737">
        <ele>213</ele>
        <time>2018-02-04T10:24:11Z</time>
      </trkpt>
      <trkpt lat="45.875" lon="4.6473">
        <ele>213</ele>
        <time>2018-02-04T10:24:12Z</time>
      </trkpt>
      <trkpt lat="45.87504" lon="4.64726">
        <ele>213</ele>
        <time>2018-02-04T10:24:13Z</time>
      </trkpt>
      <trkpt lat="45.87509" lon="4.64716">
        <ele>213</ele>
        <time>2018-02-04T10:24:15Z</time>
      </trkpt>
      <trkpt lat="45.87512" lon="4.64712">
        <ele>212</ele>
        <time>2018-02-04T10:24:16Z</time>
      </trkpt>
      <trkpt lat="45.87519" lon="4.64704">
        <ele>212</ele>
        <time>2018-02-04T10:24:18Z</time>
      </trkpt>
      <trkpt lat="45.87522" lon="4.64699">
        <ele>212</ele>
        <time>2018-02-04T10:24:19Z</time>
      </trkpt>
      <trkpt lat="45.87528" lon="4.64693">
        <ele>212</ele>
        <time>2018-02-04T10:24:20Z</time>
      </trkpt>
      <trkpt lat="45.87531" lon="4.64688">
        <ele>212</ele>
        <time>2018-02-04T10:24:21Z</time>
      </trkpt>
      <trkpt lat="45.87535" lon="4.64684">
        <ele>212</ele>
        <time>2018-02-04T10:24:22Z</time>
      </trkpt>
      <trkpt lat="45.87538" lon="4.6468">
        <ele>212</ele>
        <time>2018-02-04T10:24:23Z</time>
      </trkpt>
      <trkpt lat="45.87542" lon="4.64676">
        <ele>212</ele>
        <time>2018-02-04T10:24:24Z</time>
      </trkpt>
      <trkpt lat="45.87546" lon="4.64672">
        <ele>212</ele>
        <time>2018-02-04T10:24:25Z</time>
      </trkpt>
      <trkpt lat="45.87553" lon="4.64664">
        <ele>212</ele>
        <time>2018-02-04T10:24:27Z</time>
      </trkpt>
      <trkpt lat="45.87555" lon="4.64659">
        <ele>212</ele>
        <time>2018-02-04T10:24:28Z</time>
      </trkpt>
      <trkpt lat="45.87562" lon="4.6465">
        <ele>212</ele>
        <time>2018-02-04T10:24:30Z</time>
      </trkpt>
      <trkpt lat="45.87565" lon="4.64645">
        <ele>212</ele>
        <time>2018-02-04T10:24:31Z</time>
      </trkpt>
      <trkpt lat="45.87568" lon="4.64639">
        <ele>212</ele>
        <time>2018-02-04T10:24:32Z</time>
      </trkpt>
      <trkpt lat="45.87572" lon="4.64634">
        <ele>212</ele>
        <time>2018-02-04T10:24:33Z</time>
      </trkpt>
      <trkpt lat="45.87575" lon="4.6463">
        <ele>212</ele>
        <time>2018-02-04T10:24:34Z</time>
      </trkpt>
      <trkpt lat="45.87579" lon="4.64624">
        <ele>212</ele>
        <time>2018-02-04T10:24:35Z</time>
      </trkpt>
      <trkpt lat="45.87583" lon="4.64619">
        <ele>212</ele>
        <time>2018-02-04T10:24:36Z</time>
      </trkpt>
      <trkpt lat="45.87587" lon="4.64614">
        <ele>212</ele>
        <time>2018-02-04T10:24:37Z</time>
      </trkpt>
      <trkpt lat="45.87591" lon="4.6461">
        <ele>212</ele>
        <time>2018-02-04T10:24:38Z</time>
      </trkpt>
      <trkpt lat="45.87595" lon="4.64606">
        <ele>212</ele>
        <time>2018-02-04T10:24:39Z</time>
      </trkpt>
      <trkpt lat="45.87599" lon="4.64601">
        <ele>212</ele>
        <time>2018-02-04T10:24:40Z</time>
      </trkpt>
      <trkpt lat="45.87603" lon="4.64597">
        <ele>212</ele>
        <time>2018-02-04T10:24:41Z</time>
      </trkpt>
      <trkpt lat="45.87606" lon="4.64592">
        <ele>212</ele>
        <time>2018-02-04T10:24:42Z</time>
      </trkpt>
      <trkpt lat="45.8761" lon="4.64588">
        <ele>212</ele>
        <time>2018-02-04T10:24:43Z</time>
      </trkpt>
      <trkpt lat="45.87617" lon="4.64582">
        <ele>212</ele>
        <time>2018-02-04T10:24:45Z</time>
      </trkpt>
      <trkpt lat="45.87621" lon="4.64576">
        <ele>212</ele>
        <time>2018-02-04T10:24:46Z</time>
      </trkpt>
      <trkpt lat="45.87624" lon="4.64571">
        <ele>212</ele>
        <time>2018-02-04T10:24:47Z</time>
      </trkpt>
      <trkpt lat="45.87627" lon="4.64566">
        <ele>212</ele>
        <time>2018-02-04T10:24:48Z</time>
      </trkpt>
      <trkpt lat="45.8763" lon="4.64562">
        <ele>212</ele>
        <time>2018-02-04T10:24:49Z</time>
      </trkpt>
      <trkpt lat="45.87634" lon="4.64556">
        <ele>212</ele>
        <time>2018-02-04T10:24:50Z</time>
      </trkpt>
      <trkpt lat="45.87638" lon="4.64551">
        <ele>212</ele>
        <time>2018-02-04T10:24:51Z</time>
      </trkpt>
      <trkpt lat="45.87641" lon="4.64545">
        <ele>212</ele>
        <time>2018-02-04T10:24:52Z</time>
      </trkpt>
      <trkpt lat="45.87647" lon="4.64537">
        <ele>213</ele>
        <time>2018-02-04T10:24:54Z</time>
      </trkpt>
      <trkpt lat="45.87651" lon="4.64531">
        <ele>213</ele>
        <time>2018-02-04T10:24:55Z</time>
      </trkpt>
      <trkpt lat="45.87658" lon="4.64523">
        <ele>213</ele>
        <time>2018-02-04T10:24:57Z</time>
      </trkpt>
      <trkpt lat="45.87662" lon="4.64519">
        <ele>213</ele>
        <time>2018-02-04T10:24:58Z</time>
      </trkpt>
      <trkpt lat="45.87668" lon="4.6451">
        <ele>214</ele>
        <time>2018-02-04T10:25:00Z</time>
      </trkpt>
      <trkpt lat="45.87671" lon="4.64505">
        <ele>214</ele>
        <time>2018-02-04T10:25:01Z</time>
      </trkpt>
      <trkpt lat="45.87676" lon="4.64496">
        <ele>214</ele>
        <time>2018-02-04T10:25:03Z</time>
      </trkpt>
      <trkpt lat="45.8768" lon="4.64491">
        <ele>214</ele>
        <time>2018-02-04T10:25:04Z</time>
      </trkpt>
      <trkpt lat="45.87685" lon="4.64501">
        <ele>215</ele>
        <time>2018-02-04T10:25:06Z</time>
      </trkpt>
      <trkpt lat="45.87686" lon="4.64503">
        <ele>215</ele>
        <time>2018-02-04T10:25:07Z</time>
      </trkpt>
      <trkpt lat="45.8769" lon="4.6451">
        <ele>215</ele>
        <time>2018-02-04T10:25:09Z</time>
      </trkpt>
      <trkpt lat="45.87694" lon="4.64517">
        <ele>215</ele>
        <time>2018-02-04T10:25:10Z</time>
      </trkpt>
      <trkpt lat="45.87697" lon="4.64522">
        <ele>215</ele>
        <time>2018-02-04T10:25:11Z</time>
      </trkpt>
      <trkpt lat="45.87701" lon="4.64528">
        <ele>215</ele>
        <time>2018-02-04T10:25:12Z</time>
      </trkpt>
      <trkpt lat="45.87705" lon="4.64533">
        <ele>216</ele>
        <time>2018-02-04T10:25:13Z</time>
      </trkpt>
      <trkpt lat="45.87708" lon="4.64538">
        <ele>216</ele>
        <time>2018-02-04T10:25:14Z</time>
      </trkpt>
      <trkpt lat="45.87712" lon="4.64543">
        <ele>216</ele>
        <time>2018-02-04T10:25:15Z</time>
      </trkpt>
      <trkpt lat="45.87715" lon="4.64548">
        <ele>216</ele>
        <time>2018-02-04T10:25:16Z</time>
      </trkpt>
      <trkpt lat="45.87719" lon="4.64559">
        <ele>216</ele>
        <time>2018-02-04T10:25:18Z</time>
      </trkpt>
      <trkpt lat="45.8772" lon="4.64566">
        <ele>217</ele>
        <time>2018-02-04T10:25:19Z</time>
      </trkpt>
      <trkpt lat="45.8772" lon="4.64579">
        <ele>217</ele>
        <time>2018-02-04T10:25:21Z</time>
      </trkpt>
      <trkpt lat="45.87722" lon="4.64587">
        <ele>217</ele>
        <time>2018-02-04T10:25:22Z</time>
      </trkpt>
      <trkpt lat="45.87722" lon="4.64598">
        <ele>217</ele>
        <time>2018-02-04T10:25:24Z</time>
      </trkpt>
      <trkpt lat="45.87723" lon="4.64603">
        <ele>217</ele>
        <time>2018-02-04T10:25:25Z</time>
      </trkpt>
      <trkpt lat="45.87724" lon="4.64615">
        <ele>217</ele>
        <time>2018-02-04T10:25:27Z</time>
      </trkpt>
      <trkpt lat="45.87726" lon="4.64621">
        <ele>217</ele>
        <time>2018-02-04T10:25:28Z</time>
      </trkpt>
      <trkpt lat="45.87728" lon="4.64628">
        <ele>217</ele>
        <time>2018-02-04T10:25:29Z</time>
      </trkpt>
      <trkpt lat="45.87729" lon="4.64634">
        <ele>217</ele>
        <time>2018-02-04T10:25:30Z</time>
      </trkpt>
      <trkpt lat="45.87729" lon="4.64641">
        <ele>217</ele>
        <time>2018-02-04T10:25:31Z</time>
      </trkpt>
      <trkpt lat="45.87728" lon="4.64648">
        <ele>217</ele>
        <time>2018-02-04T10:25:32Z</time>
      </trkpt>
      <trkpt lat="45.87728" lon="4.64655">
        <ele>217</ele>
        <time>2018-02-04T10:25:33Z</time>
      </trkpt>
      <trkpt lat="45.87727" lon="4.64662">
        <ele>217</ele>
        <time>2018-02-04T10:25:34Z</time>
      </trkpt>
      <trkpt lat="45.87725" lon="4.64669">
        <ele>216</ele>
        <time>2018-02-04T10:25:35Z</time>
      </trkpt>
      <trkpt lat="45.87725" lon="4.64676">
        <ele>216</ele>
        <time>2018-02-04T10:25:36Z</time>
      </trkpt>
      <trkpt lat="45.87724" lon="4.64684">
        <ele>216</ele>
        <time>2018-02-04T10:25:37Z</time>
      </trkpt>
      <trkpt lat="45.87724" lon="4.64691">
        <ele>216</ele>
        <time>2018-02-04T10:25:38Z</time>
      </trkpt>
      <trkpt lat="45.87724" lon="4.64698">
        <ele>215</ele>
        <time>2018-02-04T10:25:39Z</time>
      </trkpt>
      <trkpt lat="45.87724" lon="4.64706">
        <ele>215</ele>
        <time>2018-02-04T10:25:40Z</time>
      </trkpt>
      <trkpt lat="45.87725" lon="4.64713">
        <ele>215</ele>
        <time>2018-02-04T10:25:41Z</time>
      </trkpt>
      <trkpt lat="45.87725" lon="4.6472">
        <ele>215</ele>
        <time>2018-02-04T10:25:42Z</time>
      </trkpt>
      <trkpt lat="45.87725" lon="4.64729">
        <ele>215</ele>
        <time>2018-02-04T10:25:43Z</time>
      </trkpt>
      <trkpt lat="45.87727" lon="4.64736">
        <ele>214</ele>
        <time>2018-02-04T10:25:44Z</time>
      </trkpt>
      <trkpt lat="45.87728" lon="4.64743">
        <ele>214</ele>
        <time>2018-02-04T10:25:45Z</time>
      </trkpt>
      <trkpt lat="45.8773" lon="4.64749">
        <ele>214</ele>
        <time>2018-02-04T10:25:46Z</time>
      </trkpt>
      <trkpt lat="45.87733" lon="4.6476">
        <ele>213</ele>
        <time>2018-02-04T10:25:48Z</time>
      </trkpt>
      <trkpt lat="45.87734" lon="4.64765">
        <ele>213</ele>
        <time>2018-02-04T10:25:49Z</time>
      </trkpt>
      <trkpt lat="45.87735" lon="4.64774">
        <ele>213</ele>
        <time>2018-02-04T10:25:50Z</time>
      </trkpt>
      <trkpt lat="45.87736" lon="4.6478">
        <ele>213</ele>
        <time>2018-02-04T10:25:51Z</time>
      </trkpt>
      <trkpt lat="45.87738" lon="4.64786">
        <ele>213</ele>
        <time>2018-02-04T10:25:52Z</time>
      </trkpt>
      <trkpt lat="45.8774" lon="4.64792">
        <ele>214</ele>
        <time>2018-02-04T10:25:53Z</time>
      </trkpt>
      <trkpt lat="45.87745" lon="4.648">
        <ele>214</ele>
        <time>2018-02-04T10:25:55Z</time>
      </trkpt>
      <trkpt lat="45.87748" lon="4.64805">
        <ele>214</ele>
        <time>2018-02-04T10:25:56Z</time>
      </trkpt>
      <trkpt lat="45.87752" lon="4.64815">
        <ele>214</ele>
        <time>2018-02-04T10:25:58Z</time>
      </trkpt>
      <trkpt lat="45.87755" lon="4.64819">
        <ele>214</ele>
        <time>2018-02-04T10:25:59Z</time>
      </trkpt>
      <trkpt lat="45.87759" lon="4.64829">
        <ele>214</ele>
        <time>2018-02-04T10:26:01Z</time>
      </trkpt>
      <trkpt lat="45.87761" lon="4.64833">
        <ele>214</ele>
        <time>2018-02-04T10:26:02Z</time>
      </trkpt>
      <trkpt lat="45.87765" lon="4.64841">
        <ele>216</ele>
        <time>2018-02-04T10:26:04Z</time>
      </trkpt>
      <trkpt lat="45.87766" lon="4.64845">
        <ele>216</ele>
        <time>2018-02-04T10:26:05Z</time>
      </trkpt>
      <trkpt lat="45.87772" lon="4.64852">
        <ele>217</ele>
        <time>2018-02-04T10:26:08Z</time>
      </trkpt>
      <trkpt lat="45.87774" lon="4.64854">
        <ele>217</ele>
        <time>2018-02-04T10:26:09Z</time>
      </trkpt>
      <trkpt lat="45.87779" lon="4.64863">
        <ele>218</ele>
        <time>2018-02-04T10:26:12Z</time>
      </trkpt>
      <trkpt lat="45.87781" lon="4.64866">
        <ele>218</ele>
        <time>2018-02-04T10:26:13Z</time>
      </trkpt>
      <trkpt lat="45.87787" lon="4.64875">
        <ele>218</ele>
        <time>2018-02-04T10:26:16Z</time>
      </trkpt>
      <trkpt lat="45.87788" lon="4.64878">
        <ele>219</ele>
        <time>2018-02-04T10:26:17Z</time>
      </trkpt>
      <trkpt lat="45.87792" lon="4.64888">
        <ele>219</ele>
        <time>2018-02-04T10:26:20Z</time>
      </trkpt>
      <trkpt lat="45.87794" lon="4.64891">
        <ele>219</ele>
        <time>2018-02-04T10:26:21Z</time>
      </trkpt>
      <trkpt lat="45.87799" lon="4.64901">
        <ele>220</ele>
        <time>2018-02-04T10:26:24Z</time>
      </trkpt>
      <trkpt lat="45.878" lon="4.64905">
        <ele>220</ele>
        <time>2018-02-04T10:26:25Z</time>
      </trkpt>
      <trkpt lat="45.87805" lon="4.64915">
        <ele>220</ele>
        <time>2018-02-04T10:26:28Z</time>
      </trkpt>
      <trkpt lat="45.87806" lon="4.64918">
        <ele>224</ele>
        <time>2018-02-04T10:26:29Z</time>
      </trkpt>
      <trkpt lat="45.87812" lon="4.64927">
        <ele>224</ele>
        <time>2018-02-04T10:26:32Z</time>
      </trkpt>
      <trkpt lat="45.87814" lon="4.6493">
        <ele>224</ele>
        <time>2018-02-04T10:26:33Z</time>
      </trkpt>
      <trkpt lat="45.87819" lon="4.64938">
        <ele>225</ele>
        <time>2018-02-04T10:26:36Z</time>
      </trkpt>
      <trkpt lat="45.8782" lon="4.64941">
        <ele>225</ele>
        <time>2018-02-04T10:26:37Z</time>
      </trkpt>
      <trkpt lat="45.87825" lon="4.64947">
        <ele>225</ele>
        <time>2018-02-04T10:26:40Z</time>
      </trkpt>
      <trkpt lat="45.87827" lon="4.64949">
        <ele>225</ele>
        <time>2018-02-04T10:26:41Z</time>
      </trkpt>
      <trkpt lat="45.87834" lon="4.64954">
        <ele>227</ele>
        <time>2018-02-04T10:26:44Z</time>
      </trkpt>
      <trkpt lat="45.87836" lon="4.64955">
        <ele>228</ele>
        <time>2018-02-04T10:26:45Z</time>
      </trkpt>
      <trkpt lat="45.87841" lon="4.64961">
        <ele>228</ele>
        <time>2018-02-04T10:26:48Z</time>
      </trkpt>
      <trkpt lat="45.87843" lon="4.64964">
        <ele>228</ele>
        <time>2018-02-04T10:26:49Z</time>
      </trkpt>
      <trkpt lat="45.8785" lon="4.6497">
        <ele>229</ele>
        <time>2018-02-04T10:26:53Z</time>
      </trkpt>
      <trkpt lat="45.87852" lon="4.64972">
        <ele>229</ele>
        <time>2018-02-04T10:26:54Z</time>
      </trkpt>
      <trkpt lat="45.8786" lon="4.64976">
        <ele>229</ele>
        <time>2018-02-04T10:26:58Z</time>
      </trkpt>
      <trkpt lat="45.87862" lon="4.64977">
        <ele>229</ele>
        <time>2018-02-04T10:26:59Z</time>
      </trkpt>
      <trkpt lat="45.87869" lon="4.64981">
        <ele>230</ele>
        <time>2018-02-04T10:27:02Z</time>
      </trkpt>
      <trkpt lat="45.8787" lon="4.64982">
        <ele>230</ele>
        <time>2018-02-04T10:27:03Z</time>
      </trkpt>
      <trkpt lat="45.87877" lon="4.64986">
        <ele>230</ele>
        <time>2018-02-04T10:27:06Z</time>
      </trkpt>
      <trkpt lat="45.87879" lon="4.64987">
        <ele>231</ele>
        <time>2018-02-04T10:27:07Z</time>
      </trkpt>
      <trkpt lat="45.87886" lon="4.6499">
        <ele>231</ele>
        <time>2018-02-04T10:27:10Z</time>
      </trkpt>
      <trkpt lat="45.87889" lon="4.6499">
        <ele>232</ele>
        <time>2018-02-04T10:27:11Z</time>
      </trkpt>
      <trkpt lat="45.87897" lon="4.64991">
        <ele>232</ele>
        <time>2018-02-04T10:27:14Z</time>
      </trkpt>
      <trkpt lat="45.87899" lon="4.64991">
        <ele>233</ele>
        <time>2018-02-04T10:27:15Z</time>
      </trkpt>
      <trkpt lat="45.87907" lon="4.64993">
        <ele>234</ele>
        <time>2018-02-04T10:27:18Z</time>
      </trkpt>
      <trkpt lat="45.87909" lon="4.64993">
        <ele>234</ele>
        <time>2018-02-04T10:27:19Z</time>
      </trkpt>
      <trkpt lat="45.87918" lon="4.64993">
        <ele>237</ele>
        <time>2018-02-04T10:27:22Z</time>
      </trkpt>
      <trkpt lat="45.8792" lon="4.64992">
        <ele>237</ele>
        <time>2018-02-04T10:27:23Z</time>
      </trkpt>
      <trkpt lat="45.87928" lon="4.6499">
        <ele>237</ele>
        <time>2018-02-04T10:27:26Z</time>
      </trkpt>
      <trkpt lat="45.87931" lon="4.64989">
        <ele>237</ele>
        <time>2018-02-04T10:27:27Z</time>
      </trkpt>
      <trkpt lat="45.87937" lon="4.64986">
        <ele>237</ele>
        <time>2018-02-04T10:27:30Z</time>
      </trkpt>
      <trkpt lat="45.87939" lon="4.64984">
        <ele>237</ele>
        <time>2018-02-04T10:27:31Z</time>
      </trkpt>
      <trkpt lat="45.87946" lon="4.64979">
        <ele>238</ele>
        <time>2018-02-04T10:27:34Z</time>
      </trkpt>
      <trkpt lat="45.87949" lon="4.64977">
        <ele>238</ele>
        <time>2018-02-04T10:27:35Z</time>
      </trkpt>
      <trkpt lat="45.87956" lon="4.64974">
        <ele>238</ele>
        <time>2018-02-04T10:27:38Z</time>
      </trkpt>
      <trkpt lat="45.87958" lon="4.64973">
        <ele>238</ele>
        <time>2018-02-04T10:27:39Z</time>
      </trkpt>
      <trkpt lat="45.87964" lon="4.64967">
        <ele>238</ele>
        <time>2018-02-04T10:27:42Z</time>
      </trkpt>
      <trkpt lat="45.87966" lon="4.64966">
        <ele>238</ele>
        <time>2018-02-04T10:27:43Z</time>
      </trkpt>
      <trkpt lat="45.87972" lon="4.64961">
        <ele>238</ele>
        <time>2018-02-04T10:27:46Z</time>
      </trkpt>
      <trkpt lat="45.87975" lon="4.6496">
        <ele>238</ele>
        <time>2018-02-04T10:27:47Z</time>
      </trkpt>
      <trkpt lat="45.87982" lon="4.64953">
        <ele>238</ele>
        <time>2018-02-04T10:27:51Z</time>
      </trkpt>
      <trkpt lat="45.87983" lon="4.64951">
        <ele>238</ele>
        <time>2018-02-04T10:27:52Z</time>
      </trkpt>
      <trkpt lat="45.8799" lon="4.64945">
        <ele>237</ele>
        <time>2018-02-04T10:27:56Z</time>
      </trkpt>
      <trkpt lat="45.87991" lon="4.64943">
        <ele>237</ele>
        <time>2018-02-04T10:27:57Z</time>
      </trkpt>
      <trkpt lat="45.87997" lon="4.64936">
        <ele>237</ele>
        <time>2018-02-04T10:28:02Z</time>
      </trkpt>
      <trkpt lat="45.87998" lon="4.64934">
        <ele>236</ele>
        <time>2018-02-04T10:28:03Z</time>
      </trkpt>
      <trkpt lat="45.88006" lon="4.64927">
        <ele>241</ele>
        <time>2018-02-04T10:28:08Z</time>
      </trkpt>
      <trkpt lat="45.88007" lon="4.64926">
        <ele>241</ele>
        <time>2018-02-04T10:28:09Z</time>
      </trkpt>
      <trkpt lat="45.88009" lon="4.64924">
        <ele>241</ele>
        <time>2018-02-04T10:28:11Z</time>
      </trkpt>
      <trkpt lat="45.8801" lon="4.64924">
        <ele>242</ele>
        <time>2018-02-04T10:28:12Z</time>
      </trkpt>
      <trkpt lat="45.8801" lon="4.64925">
        <ele>242</ele>
        <time>2018-02-04T10:28:19Z</time>
      </trkpt>
      <trkpt lat="45.8801" lon="4.64925">
        <ele>242</ele>
        <time>2018-02-04T10:28:20Z</time>
      </trkpt>
      <trkpt lat="45.88007" lon="4.64925">
        <ele>241</ele>
        <time>2018-02-04T10:29:39Z</time>
      </trkpt>
      <trkpt lat="45.88007" lon="4.64925">
        <ele>241</ele>
        <time>2018-02-04T10:29:40Z</time>
      </trkpt>
      <trkpt lat="45.88007" lon="4.64925">
        <ele>241</ele>
        <time>2018-02-04T10:30:03Z</time>
      </trkpt>
      <trkpt lat="45.88007" lon="4.64925">
        <ele>241</ele>
        <time>2018-02-04T10:30:04Z</time>
      </trkpt>
      <trkpt lat="45.88016" lon="4.64923">
        <ele>243</ele>
        <time>2018-02-04T10:30:11Z</time>
      </trkpt>
      <trkpt lat="45.88018" lon="4.64923">
        <ele>244</ele>
        <time>2018-02-04T10:30:12Z</time>
      </trkpt>
      <trkpt lat="45.88023" lon="4.64913">
        <ele>238</ele>
        <time>2018-02-04T10:30:18Z</time>
      </trkpt>
      <trkpt lat="45.88024" lon="4.64912">
        <ele>238</ele>
        <time>2018-02-04T10:30:19Z</time>
      </trkpt>
      <trkpt lat="45.88031" lon="4.64905">
        <ele>238</ele>
        <time>2018-02-04T10:30:23Z</time>
      </trkpt>
      <trkpt lat="45.88033" lon="4.64904">
        <ele>238</ele>
        <time>2018-02-04T10:30:24Z</time>
      </trkpt>
      <trkpt lat="45.8804" lon="4.64897">
        <ele>239</ele>
        <time>2018-02-04T10:30:28Z</time>
      </trkpt>
      <trkpt lat="45.88042" lon="4.64895">
        <ele>239</ele>
        <time>2018-02-04T10:30:29Z</time>
      </trkpt>
      <trkpt lat="45.88048" lon="4.64892">
        <ele>240</ele>
        <time>2018-02-04T10:30:32Z</time>
      </trkpt>
      <trkpt lat="45.88051" lon="4.64891">
        <ele>240</ele>
        <time>2018-02-04T10:30:33Z</time>
      </trkpt>
      <trkpt lat="45.88057" lon="4.64884">
        <ele>240</ele>
        <time>2018-02-04T10:30:36Z</time>
      </trkpt>
      <trkpt lat="45.88059" lon="4.64882">
        <ele>240</ele>
        <time>2018-02-04T10:30:37Z</time>
      </trkpt>
      <trkpt lat="45.88065" lon="4.64878">
        <ele>240</ele>
        <time>2018-02-04T10:30:40Z</time>
      </trkpt>
      <trkpt lat="45.88068" lon="4.64876">
        <ele>240</ele>
        <time>2018-02-04T10:30:41Z</time>
      </trkpt>
      <trkpt lat="45.88074" lon="4.64871">
        <ele>240</ele>
        <time>2018-02-04T10:30:44Z</time>
      </trkpt>
      <trkpt lat="45.88076" lon="4.64869">
        <ele>239</ele>
        <time>2018-02-04T10:30:45Z</time>
      </trkpt>
      <trkpt lat="45.88083" lon="4.64865">
        <ele>239</ele>
        <time>2018-02-04T10:30:48Z</time>
      </trkpt>
      <trkpt lat="45.88085" lon="4.64864">
        <ele>246</ele>
        <time>2018-02-04T10:30:49Z</time>
      </trkpt>
      <trkpt lat="45.88094" lon="4.64861">
        <ele>246</ele>
        <time>2018-02-04T10:30:53Z</time>
      </trkpt>
      <trkpt lat="45.88096" lon="4.6486">
        <ele>246</ele>
        <time>2018-02-04T10:30:54Z</time>
      </trkpt>
      <trkpt lat="45.88103" lon="4.64859">
        <ele>246</ele>
        <time>2018-02-04T10:30:57Z</time>
      </trkpt>
      <trkpt lat="45.88105" lon="4.64858">
        <ele>246</ele>
        <time>2018-02-04T10:30:58Z</time>
      </trkpt>
      <trkpt lat="45.88113" lon="4.64857">
        <ele>247</ele>
        <time>2018-02-04T10:31:01Z</time>
      </trkpt>
      <trkpt lat="45.88115" lon="4.64856">
        <ele>247</ele>
        <time>2018-02-04T10:31:02Z</time>
      </trkpt>
      <trkpt lat="45.88123" lon="4.64853">
        <ele>247</ele>
        <time>2018-02-04T10:31:05Z</time>
      </trkpt>
      <trkpt lat="45.88125" lon="4.64851">
        <ele>247</ele>
        <time>2018-02-04T10:31:06Z</time>
      </trkpt>
      <trkpt lat="45.88132" lon="4.64849">
        <ele>247</ele>
        <time>2018-02-04T10:31:09Z</time>
      </trkpt>
      <trkpt lat="45.88135" lon="4.6485">
        <ele>248</ele>
        <time>2018-02-04T10:31:10Z</time>
      </trkpt>
      <trkpt lat="45.88142" lon="4.64848">
        <ele>248</ele>
        <time>2018-02-04T10:31:13Z</time>
      </trkpt>
      <trkpt lat="45.88144" lon="4.64847">
        <ele>248</ele>
        <time>2018-02-04T10:31:14Z</time>
      </trkpt>
      <trkpt lat="45.88152" lon="4.64844">
        <ele>247</ele>
        <time>2018-02-04T10:31:17Z</time>
      </trkpt>
      <trkpt lat="45.88154" lon="4.64842">
        <ele>247</ele>
        <time>2018-02-04T10:31:18Z</time>
      </trkpt>
      <trkpt lat="45.8816" lon="4.64839">
        <ele>246</ele>
        <time>2018-02-04T10:31:21Z</time>
      </trkpt>
      <trkpt lat="45.88162" lon="4.64839">
        <ele>246</ele>
        <time>2018-02-04T10:31:22Z</time>
      </trkpt>
      <trkpt lat="45.88169" lon="4.64839">
        <ele>248</ele>
        <time>2018-02-04T10:31:25Z</time>
      </trkpt>
      <trkpt lat="45.88172" lon="4.64839">
        <ele>249</ele>
        <time>2018-02-04T10:31:26Z</time>
      </trkpt>
      <trkpt lat="45.88178" lon="4.64839">
        <ele>250</ele>
        <time>2018-02-04T10:31:29Z</time>
      </trkpt>
      <trkpt lat="45.88181" lon="4.64839">
        <ele>251</ele>
        <time>2018-02-04T10:31:30Z</time>
      </trkpt>
      <trkpt lat="45.88188" lon="4.64837">
        <ele>252</ele>
        <time>2018-02-04T10:31:33Z</time>
      </trkpt>
      <trkpt lat="45.8819" lon="4.64836">
        <ele>253</ele>
        <time>2018-02-04T10:31:34Z</time>
      </trkpt>
      <trkpt lat="45.88198" lon="4.64834">
        <ele>254</ele>
        <time>2018-02-04T10:31:38Z</time>
      </trkpt>
      <trkpt lat="45.882" lon="4.64834">
        <ele>254</ele>
        <time>2018-02-04T10:31:39Z</time>
      </trkpt>
      <trkpt lat="45.88208" lon="4.64833">
        <ele>246</ele>
        <time>2018-02-04T10:31:43Z</time>
      </trkpt>
      <trkpt lat="45.8821" lon="4.64833">
        <ele>246</ele>
        <time>2018-02-04T10:31:44Z</time>
      </trkpt>
      <trkpt lat="45.88217" lon="4.64831">
        <ele>247</ele>
        <time>2018-02-04T10:31:48Z</time>
      </trkpt>
      <trkpt lat="45.88219" lon="4.6483">
        <ele>247</ele>
        <time>2018-02-04T10:31:49Z</time>
      </trkpt>
      <trkpt lat="45.88226" lon="4.64827">
        <ele>249</ele>
        <time>2018-02-04T10:31:53Z</time>
      </trkpt>
      <trkpt lat="45.88228" lon="4.64827">
        <ele>249</ele>
        <time>2018-02-04T10:31:54Z</time>
      </trkpt>
      <trkpt lat="45.88236" lon="4.64825">
        <ele>251</ele>
        <time>2018-02-04T10:31:59Z</time>
      </trkpt>
      <trkpt lat="45.88238" lon="4.64824">
        <ele>251</ele>
        <time>2018-02-04T10:32:00Z</time>
      </trkpt>
      <trkpt lat="45.88245" lon="4.64821">
        <ele>251</ele>
        <time>2018-02-04T10:32:04Z</time>
      </trkpt>
      <trkpt lat="45.88247" lon="4.64819">
        <ele>251</ele>
        <time>2018-02-04T10:32:05Z</time>
      </trkpt>
      <trkpt lat="45.88253" lon="4.64815">
        <ele>257</ele>
        <time>2018-02-04T10:32:09Z</time>
      </trkpt>
      <trkpt lat="45.88255" lon="4.64814">
        <ele>257</ele>
        <time>2018-02-04T10:32:10Z</time>
      </trkpt>
      <trkpt lat="45.88264" lon="4.6481">
        <ele>257</ele>
        <time>2018-02-04T10:32:15Z</time>
      </trkpt>
      <trkpt lat="45.88265" lon="4.6481">
        <ele>257</ele>
        <time>2018-02-04T10:32:16Z</time>
      </trkpt>
      <trkpt lat="45.88272" lon="4.64809">
        <ele>257</ele>
        <time>2018-02-04T10:32:21Z</time>
      </trkpt>
      <trkpt lat="45.88274" lon="4.6481">
        <ele>257</ele>
        <time>2018-02-04T10:32:22Z</time>
      </trkpt>
      <trkpt lat="45.88282" lon="4.6481">
        <ele>258</ele>
        <time>2018-02-04T10:32:27Z</time>
      </trkpt>
      <trkpt lat="45.88284" lon="4.64809">
        <ele>258</ele>
        <time>2018-02-04T10:32:28Z</time>
      </trkpt>
      <trkpt lat="45.88291" lon="4.64806">
        <ele>258</ele>
        <time>2018-02-04T10:32:32Z</time>
      </trkpt>
      <trkpt lat="45.88293" lon="4.64805">
        <ele>259</ele>
        <time>2018-02-04T10:32:33Z</time>
      </trkpt>
      <trkpt lat="45.883" lon="4.64803">
        <ele>259</ele>
        <time>2018-02-04T10:32:36Z</time>
      </trkpt>
      <trkpt lat="45.88302" lon="4.64802">
        <ele>259</ele>
        <time>2018-02-04T10:32:37Z</time>
      </trkpt>
      <trkpt lat="45.8831" lon="4.648">
        <ele>260</ele>
        <time>2018-02-04T10:32:41Z</time>
      </trkpt>
      <trkpt lat="45.88312" lon="4.64799">
        <ele>260</ele>
        <time>2018-02-04T10:32:42Z</time>
      </trkpt>
      <trkpt lat="45.8832" lon="4.64795">
        <ele>260</ele>
        <time>2018-02-04T10:32:46Z</time>
      </trkpt>
      <trkpt lat="45.88322" lon="4.64794">
        <ele>260</ele>
        <time>2018-02-04T10:32:47Z</time>
      </trkpt>
      <trkpt lat="45.8833" lon="4.64791">
        <ele>260</ele>
        <time>2018-02-04T10:32:51Z</time>
      </trkpt>
      <trkpt lat="45.88333" lon="4.64791">
        <ele>260</ele>
        <time>2018-02-04T10:32:52Z</time>
      </trkpt>
      <trkpt lat="45.8834" lon="4.6479">
        <ele>266</ele>
        <time>2018-02-04T10:32:55Z</time>
      </trkpt>
      <trkpt lat="45.88342" lon="4.64789">
        <ele>266</ele>
        <time>2018-02-04T10:32:56Z</time>
      </trkpt>
      <trkpt lat="45.88349" lon="4.64787">
        <ele>266</ele>
        <time>2018-02-04T10:33:00Z</time>
      </trkpt>
      <trkpt lat="45.88351" lon="4.64786">
        <ele>266</ele>
        <time>2018-02-04T10:33:01Z</time>
      </trkpt>
      <trkpt lat="45.8836" lon="4.64783">
        <ele>266</ele>
        <time>2018-02-04T10:33:05Z</time>
      </trkpt>
      <trkpt lat="45.88362" lon="4.64783">
        <ele>266</ele>
        <time>2018-02-04T10:33:06Z</time>
      </trkpt>
      <trkpt lat="45.88369" lon="4.64784">
        <ele>266</ele>
        <time>2018-02-04T10:33:10Z</time>
      </trkpt>
      <trkpt lat="45.88372" lon="4.64783">
        <ele>267</ele>
        <time>2018-02-04T10:33:11Z</time>
      </trkpt>
      <trkpt lat="45.8838" lon="4.64783">
        <ele>267</ele>
        <time>2018-02-04T10:33:16Z</time>
      </trkpt>
      <trkpt lat="45.88382" lon="4.64782">
        <ele>267</ele>
        <time>2018-02-04T10:33:17Z</time>
      </trkpt>
      <trkpt lat="45.88389" lon="4.64781">
        <ele>267</ele>
        <time>2018-02-04T10:33:20Z</time>
      </trkpt>
      <trkpt lat="45.88391" lon="4.6478">
        <ele>267</ele>
        <time>2018-02-04T10:33:21Z</time>
      </trkpt>
      <trkpt lat="45.884" lon="4.6478">
        <ele>267</ele>
        <time>2018-02-04T10:33:26Z</time>
      </trkpt>
      <trkpt lat="45.88401" lon="4.64779">
        <ele>267</ele>
        <time>2018-02-04T10:33:27Z</time>
      </trkpt>
      <trkpt lat="45.88409" lon="4.64776">
        <ele>267</ele>
        <time>2018-02-04T10:33:32Z</time>
      </trkpt>
      <trkpt lat="45.88411" lon="4.64776">
        <ele>267</ele>
        <time>2018-02-04T10:33:33Z</time>
      </trkpt>
      <trkpt lat="45.88418" lon="4.64774">
        <ele>269</ele>
        <time>2018-02-04T10:33:37Z</time>
      </trkpt>
      <trkpt lat="45.8842" lon="4.64775">
        <ele>269</ele>
        <time>2018-02-04T10:33:38Z</time>
      </trkpt>
      <trkpt lat="45.88429" lon="4.64776">
        <ele>270</ele>
        <time>2018-02-04T10:33:43Z</time>
      </trkpt>
      <trkpt lat="45.8843" lon="4.64775">
        <ele>270</ele>
        <time>2018-02-04T10:33:44Z</time>
      </trkpt>
      <trkpt lat="45.88439" lon="4.64774">
        <ele>270</ele>
        <time>2018-02-04T10:33:48Z</time>
      </trkpt>
      <trkpt lat="45.88442" lon="4.64775">
        <ele>270</ele>
        <time>2018-02-04T10:33:49Z</time>
      </trkpt>
      <trkpt lat="45.88448" lon="4.64773">
        <ele>270</ele>
        <time>2018-02-04T10:33:52Z</time>
      </trkpt>
      <trkpt lat="45.88451" lon="4.64772">
        <ele>270</ele>
        <time>2018-02-04T10:33:53Z</time>
      </trkpt>
      <trkpt lat="45.8846" lon="4.64771">
        <ele>271</ele>
        <time>2018-02-04T10:33:57Z</time>
      </trkpt>
      <trkpt lat="45.88462" lon="4.64771">
        <ele>271</ele>
        <time>2018-02-04T10:33:58Z</time>
      </trkpt>
      <trkpt lat="45.88469" lon="4.6477">
        <ele>271</ele>
        <time>2018-02-04T10:34:01Z</time>
      </trkpt>
      <trkpt lat="45.88471" lon="4.6477">
        <ele>271</ele>
        <time>2018-02-04T10:34:02Z</time>
      </trkpt>
      <trkpt lat="45.88478" lon="4.64769">
        <ele>271</ele>
        <time>2018-02-04T10:34:05Z</time>
      </trkpt>
      <trkpt lat="45.88481" lon="4.64769">
        <ele>270</ele>
        <time>2018-02-04T10:34:06Z</time>
      </trkpt>
      <trkpt lat="45.88488" lon="4.64769">
        <ele>270</ele>
        <time>2018-02-04T10:34:09Z</time>
      </trkpt>
      <trkpt lat="45.8849" lon="4.64769">
        <ele>270</ele>
        <time>2018-02-04T10:34:10Z</time>
      </trkpt>
      <trkpt lat="45.88496" lon="4.64768">
        <ele>270</ele>
        <time>2018-02-04T10:34:13Z</time>
      </trkpt>
      <trkpt lat="45.88499" lon="4.64768">
        <ele>270</ele>
        <time>2018-02-04T10:34:14Z</time>
      </trkpt>
      <trkpt lat="45.88507" lon="4.6477">
        <ele>270</ele>
        <time>2018-02-04T10:34:17Z</time>
      </trkpt>
      <trkpt lat="45.88509" lon="4.64771">
        <ele>270</ele>
        <time>2018-02-04T10:34:18Z</time>
      </trkpt>
      <trkpt lat="45.88517" lon="4.64771">
        <ele>270</ele>
        <time>2018-02-04T10:34:21Z</time>
      </trkpt>
      <trkpt lat="45.88519" lon="4.64771">
        <ele>271</ele>
        <time>2018-02-04T10:34:22Z</time>
      </trkpt>
      <trkpt lat="45.88527" lon="4.64774">
        <ele>271</ele>
        <time>2018-02-04T10:34:25Z</time>
      </trkpt>
      <trkpt lat="45.88529" lon="4.64775">
        <ele>271</ele>
        <time>2018-02-04T10:34:26Z</time>
      </trkpt>
      <trkpt lat="45.88536" lon="4.64783">
        <ele>271</ele>
        <time>2018-02-04T10:34:30Z</time>
      </trkpt>
      <trkpt lat="45.88538" lon="4.64785">
        <ele>271</ele>
        <time>2018-02-04T10:34:31Z</time>
      </trkpt>
      <trkpt lat="45.88544" lon="4.64794">
        <ele>272</ele>
        <time>2018-02-04T10:34:35Z</time>
      </trkpt>
      <trkpt lat="45.88545" lon="4.64796">
        <ele>272</ele>
        <time>2018-02-04T10:34:36Z</time>
      </trkpt>
      <trkpt lat="45.88549" lon="4.64806">
        <ele>272</ele>
        <time>2018-02-04T10:34:40Z</time>
      </trkpt>
      <trkpt lat="45.88549" lon="4.64809">
        <ele>272</ele>
        <time>2018-02-04T10:34:41Z</time>
      </trkpt>
      <trkpt lat="45.8855" lon="4.64821">
        <ele>273</ele>
        <time>2018-02-04T10:34:45Z</time>
      </trkpt>
      <trkpt lat="45.88551" lon="4.64823">
        <ele>273</ele>
        <time>2018-02-04T10:34:46Z</time>
      </trkpt>
      <trkpt lat="45.88551" lon="4.64835">
        <ele>276</ele>
        <time>2018-02-04T10:34:50Z</time>
      </trkpt>
      <trkpt lat="45.8855" lon="4.64837">
        <ele>276</ele>
        <time>2018-02-04T10:34:51Z</time>
      </trkpt>
      <trkpt lat="45.88548" lon="4.64849">
        <ele>277</ele>
        <time>2018-02-04T10:34:56Z</time>
      </trkpt>
      <trkpt lat="45.88548" lon="4.64851">
        <ele>277</ele>
        <time>2018-02-04T10:34:57Z</time>
      </trkpt>
      <trkpt lat="45.88548" lon="4.64861">
        <ele>277</ele>
        <time>2018-02-04T10:35:01Z</time>
      </trkpt>
      <trkpt lat="45.88548" lon="4.64864">
        <ele>277</ele>
        <time>2018-02-04T10:35:02Z</time>
      </trkpt>
      <trkpt lat="45.88546" lon="4.64876">
        <ele>277</ele>
        <time>2018-02-04T10:35:06Z</time>
      </trkpt>
      <trkpt lat="45.88545" lon="4.64879">
        <ele>277</ele>
        <time>2018-02-04T10:35:07Z</time>
      </trkpt>
      <trkpt lat="45.88544" lon="4.64891">
        <ele>277</ele>
        <time>2018-02-04T10:35:11Z</time>
      </trkpt>
      <trkpt lat="45.88544" lon="4.64894">
        <ele>277</ele>
        <time>2018-02-04T10:35:12Z</time>
      </trkpt>
      <trkpt lat="45.88542" lon="4.64906">
        <ele>277</ele>
        <time>2018-02-04T10:35:16Z</time>
      </trkpt>
      <trkpt lat="45.88542" lon="4.64908">
        <ele>278</ele>
        <time>2018-02-04T10:35:17Z</time>
      </trkpt>
      <trkpt lat="45.88537" lon="4.64919">
        <ele>280</ele>
        <time>2018-02-04T10:35:21Z</time>
      </trkpt>
      <trkpt lat="45.88537" lon="4.64922">
        <ele>280</ele>
        <time>2018-02-04T10:35:22Z</time>
      </trkpt>
      <trkpt lat="45.88536" lon="4.64932">
        <ele>280</ele>
        <time>2018-02-04T10:35:25Z</time>
      </trkpt>
      <trkpt lat="45.88536" lon="4.64936">
        <ele>280</ele>
        <time>2018-02-04T10:35:26Z</time>
      </trkpt>
      <trkpt lat="45.88535" lon="4.64948">
        <ele>281</ele>
        <time>2018-02-04T10:35:30Z</time>
      </trkpt>
      <trkpt lat="45.88535" lon="4.64951">
        <ele>281</ele>
        <time>2018-02-04T10:35:31Z</time>
      </trkpt>
      <trkpt lat="45.88532" lon="4.64961">
        <ele>281</ele>
        <time>2018-02-04T10:35:35Z</time>
      </trkpt>
      <trkpt lat="45.88531" lon="4.64963">
        <ele>281</ele>
        <time>2018-02-04T10:35:36Z</time>
      </trkpt>
      <trkpt lat="45.88528" lon="4.64974">
        <ele>282</ele>
        <time>2018-02-04T10:35:40Z</time>
      </trkpt>
      <trkpt lat="45.88527" lon="4.64977">
        <ele>282</ele>
        <time>2018-02-04T10:35:41Z</time>
      </trkpt>
      <trkpt lat="45.88526" lon="4.64988">
        <ele>283</ele>
        <time>2018-02-04T10:35:45Z</time>
      </trkpt>
      <trkpt lat="45.88526" lon="4.64992">
        <ele>283</ele>
        <time>2018-02-04T10:35:46Z</time>
      </trkpt>
      <trkpt lat="45.88524" lon="4.65001">
        <ele>285</ele>
        <time>2018-02-04T10:35:49Z</time>
      </trkpt>
      <trkpt lat="45.88523" lon="4.65004">
        <ele>285</ele>
        <time>2018-02-04T10:35:50Z</time>
      </trkpt>
      <trkpt lat="45.88521" lon="4.65014">
        <ele>285</ele>
        <time>2018-02-04T10:35:53Z</time>
      </trkpt>
      <trkpt lat="45.88521" lon="4.65017">
        <ele>285</ele>
        <time>2018-02-04T10:35:54Z</time>
      </trkpt>
      <trkpt lat="45.88519" lon="4.65029">
        <ele>285</ele>
        <time>2018-02-04T10:35:58Z</time>
      </trkpt>
      <trkpt lat="45.88518" lon="4.65031">
        <ele>285</ele>
        <time>2018-02-04T10:35:59Z</time>
      </trkpt>
      <trkpt lat="45.88515" lon="4.6504">
        <ele>285</ele>
        <time>2018-02-04T10:36:02Z</time>
      </trkpt>
      <trkpt lat="45.88514" lon="4.65043">
        <ele>285</ele>
        <time>2018-02-04T10:36:03Z</time>
      </trkpt>
      <trkpt lat="45.8851" lon="4.65054">
        <ele>286</ele>
        <time>2018-02-04T10:36:07Z</time>
      </trkpt>
      <trkpt lat="45.88509" lon="4.65057">
        <ele>286</ele>
        <time>2018-02-04T10:36:08Z</time>
      </trkpt>
      <trkpt lat="45.88507" lon="4.65067">
        <ele>287</ele>
        <time>2018-02-04T10:36:12Z</time>
      </trkpt>
      <trkpt lat="45.88506" lon="4.6507">
        <ele>287</ele>
        <time>2018-02-04T10:36:13Z</time>
      </trkpt>
      <trkpt lat="45.88501" lon="4.65079">
        <ele>289</ele>
        <time>2018-02-04T10:36:17Z</time>
      </trkpt>
      <trkpt lat="45.885" lon="4.65082">
        <ele>290</ele>
        <time>2018-02-04T10:36:18Z</time>
      </trkpt>
      <trkpt lat="45.88496" lon="4.65093">
        <ele>291</ele>
        <time>2018-02-04T10:36:22Z</time>
      </trkpt>
      <trkpt lat="45.88495" lon="4.65095">
        <ele>292</ele>
        <time>2018-02-04T10:36:23Z</time>
      </trkpt>
      <trkpt lat="45.88489" lon="4.65104">
        <ele>292</ele>
        <time>2018-02-04T10:36:27Z</time>
      </trkpt>
      <trkpt lat="45.88488" lon="4.65106">
        <ele>293</ele>
        <time>2018-02-04T10:36:28Z</time>
      </trkpt>
      <trkpt lat="45.88483" lon="4.65115">
        <ele>293</ele>
        <time>2018-02-04T10:36:32Z</time>
      </trkpt>
      <trkpt lat="45.88482" lon="4.65118">
        <ele>293</ele>
        <time>2018-02-04T10:36:33Z</time>
      </trkpt>
      <trkpt lat="45.88477" lon="4.65127">
        <ele>294</ele>
        <time>2018-02-04T10:36:37Z</time>
      </trkpt>
      <trkpt lat="45.88475" lon="4.65129">
        <ele>294</ele>
        <time>2018-02-04T10:36:38Z</time>
      </trkpt>
      <trkpt lat="45.8847" lon="4.65136">
        <ele>294</ele>
        <time>2018-02-04T10:36:42Z</time>
      </trkpt>
      <trkpt lat="45.88468" lon="4.65137">
        <ele>294</ele>
        <time>2018-02-04T10:36:43Z</time>
      </trkpt>
      <trkpt lat="45.88461" lon="4.65142">
        <ele>294</ele>
        <time>2018-02-04T10:36:47Z</time>
      </trkpt>
      <trkpt lat="45.8846" lon="4.65143">
        <ele>294</ele>
        <time>2018-02-04T10:36:48Z</time>
      </trkpt>
      <trkpt lat="45.88454" lon="4.65151">
        <ele>295</ele>
        <time>2018-02-04T10:36:52Z</time>
      </trkpt>
      <trkpt lat="45.88453" lon="4.65153">
        <ele>295</ele>
        <time>2018-02-04T10:36:53Z</time>
      </trkpt>
      <trkpt lat="45.88445" lon="4.65159">
        <ele>295</ele>
        <time>2018-02-04T10:36:57Z</time>
      </trkpt>
      <trkpt lat="45.88443" lon="4.6516">
        <ele>296</ele>
        <time>2018-02-04T10:36:58Z</time>
      </trkpt>
      <trkpt lat="45.88439" lon="4.65171">
        <ele>297</ele>
        <time>2018-02-04T10:37:03Z</time>
      </trkpt>
      <trkpt lat="45.88438" lon="4.65173">
        <ele>297</ele>
        <time>2018-02-04T10:37:04Z</time>
      </trkpt>
      <trkpt lat="45.88432" lon="4.65177">
        <ele>298</ele>
        <time>2018-02-04T10:37:07Z</time>
      </trkpt>
      <trkpt lat="45.8843" lon="4.65178">
        <ele>298</ele>
        <time>2018-02-04T10:37:08Z</time>
      </trkpt>
      <trkpt lat="45.88423" lon="4.65185">
        <ele>298</ele>
        <time>2018-02-04T10:37:12Z</time>
      </trkpt>
      <trkpt lat="45.88423" lon="4.65186">
        <ele>298</ele>
        <time>2018-02-04T10:37:13Z</time>
      </trkpt>
      <trkpt lat="45.88417" lon="4.65193">
        <ele>298</ele>
        <time>2018-02-04T10:37:17Z</time>
      </trkpt>
      <trkpt lat="45.88415" lon="4.65194">
        <ele>299</ele>
        <time>2018-02-04T10:37:18Z</time>
      </trkpt>
      <trkpt lat="45.88408" lon="4.652">
        <ele>299</ele>
        <time>2018-02-04T10:37:23Z</time>
      </trkpt>
      <trkpt lat="45.88407" lon="4.65201">
        <ele>299</ele>
        <time>2018-02-04T10:37:24Z</time>
      </trkpt>
      <trkpt lat="45.88399" lon="4.65207">
        <ele>300</ele>
        <time>2018-02-04T10:37:28Z</time>
      </trkpt>
      <trkpt lat="45.88398" lon="4.65208">
        <ele>300</ele>
        <time>2018-02-04T10:37:29Z</time>
      </trkpt>
      <trkpt lat="45.88391" lon="4.65215">
        <ele>300</ele>
        <time>2018-02-04T10:37:33Z</time>
      </trkpt>
      <trkpt lat="45.88388" lon="4.65216">
        <ele>300</ele>
        <time>2018-02-04T10:37:34Z</time>
      </trkpt>
      <trkpt lat="45.88381" lon="4.65223">
        <ele>300</ele>
        <time>2018-02-04T10:37:38Z</time>
      </trkpt>
      <trkpt lat="45.8838" lon="4.65225">
        <ele>300</ele>
        <time>2018-02-04T10:37:39Z</time>
      </trkpt>
      <trkpt lat="45.88373" lon="4.65233">
        <ele>300</ele>
        <time>2018-02-04T10:37:44Z</time>
      </trkpt>
      <trkpt lat="45.88372" lon="4.65235">
        <ele>300</ele>
        <time>2018-02-04T10:37:45Z</time>
      </trkpt>
      <trkpt lat="45.88365" lon="4.65242">
        <ele>300</ele>
        <time>2018-02-04T10:37:50Z</time>
      </trkpt>
      <trkpt lat="45.88363" lon="4.65243">
        <ele>300</ele>
        <time>2018-02-04T10:37:51Z</time>
      </trkpt>
      <trkpt lat="45.88356" lon="4.65248">
        <ele>300</ele>
        <time>2018-02-04T10:37:55Z</time>
      </trkpt>
      <trkpt lat="45.88354" lon="4.6525">
        <ele>301</ele>
        <time>2018-02-04T10:37:56Z</time>
      </trkpt>
      <trkpt lat="45.88348" lon="4.65258">
        <ele>301</ele>
        <time>2018-02-04T10:38:00Z</time>
      </trkpt>
      <trkpt lat="45.88347" lon="4.6526">
        <ele>301</ele>
        <time>2018-02-04T10:38:01Z</time>
      </trkpt>
      <trkpt lat="45.8834" lon="4.65268">
        <ele>301</ele>
        <time>2018-02-04T10:38:06Z</time>
      </trkpt>
      <trkpt lat="45.88339" lon="4.6527">
        <ele>301</ele>
        <time>2018-02-04T10:38:07Z</time>
      </trkpt>
      <trkpt lat="45.88333" lon="4.65278">
        <ele>303</ele>
        <time>2018-02-04T10:38:11Z</time>
      </trkpt>
      <trkpt lat="45.88332" lon="4.65279">
        <ele>304</ele>
        <time>2018-02-04T10:38:12Z</time>
      </trkpt>
      <trkpt lat="45.88326" lon="4.65285">
        <ele>304</ele>
        <time>2018-02-04T10:38:15Z</time>
      </trkpt>
      <trkpt lat="45.88324" lon="4.65287">
        <ele>304</ele>
        <time>2018-02-04T10:38:16Z</time>
      </trkpt>
      <trkpt lat="45.88318" lon="4.65296">
        <ele>304</ele>
        <time>2018-02-04T10:38:20Z</time>
      </trkpt>
      <trkpt lat="45.88316" lon="4.65299">
        <ele>304</ele>
        <time>2018-02-04T10:38:21Z</time>
      </trkpt>
      <trkpt lat="45.88311" lon="4.65305">
        <ele>305</ele>
        <time>2018-02-04T10:38:24Z</time>
      </trkpt>
      <trkpt lat="45.88309" lon="4.65307">
        <ele>305</ele>
        <time>2018-02-04T10:38:25Z</time>
      </trkpt>
      <trkpt lat="45.88303" lon="4.65316">
        <ele>305</ele>
        <time>2018-02-04T10:38:29Z</time>
      </trkpt>
      <trkpt lat="45.88302" lon="4.65319">
        <ele>305</ele>
        <time>2018-02-04T10:38:30Z</time>
      </trkpt>
      <trkpt lat="45.88299" lon="4.65328">
        <ele>305</ele>
        <time>2018-02-04T10:38:33Z</time>
      </trkpt>
      <trkpt lat="45.88297" lon="4.6533">
        <ele>305</ele>
        <time>2018-02-04T10:38:34Z</time>
      </trkpt>
      <trkpt lat="45.88292" lon="4.65339">
        <ele>307</ele>
        <time>2018-02-04T10:38:38Z</time>
      </trkpt>
      <trkpt lat="45.88291" lon="4.65341">
        <ele>307</ele>
        <time>2018-02-04T10:38:39Z</time>
      </trkpt>
      <trkpt lat="45.88288" lon="4.65351">
        <ele>308</ele>
        <time>2018-02-04T10:38:42Z</time>
      </trkpt>
      <trkpt lat="45.88286" lon="4.65354">
        <ele>308</ele>
        <time>2018-02-04T10:38:43Z</time>
      </trkpt>
      <trkpt lat="45.88282" lon="4.65364">
        <ele>308</ele>
        <time>2018-02-04T10:38:47Z</time>
      </trkpt>
      <trkpt lat="45.88281" lon="4.65367">
        <ele>308</ele>
        <time>2018-02-04T10:38:48Z</time>
      </trkpt>
      <trkpt lat="45.88278" lon="4.65378">
        <ele>308</ele>
        <time>2018-02-04T10:38:52Z</time>
      </trkpt>
      <trkpt lat="45.88277" lon="4.65381">
        <ele>308</ele>
        <time>2018-02-04T10:38:53Z</time>
      </trkpt>
      <trkpt lat="45.88273" lon="4.65393">
        <ele>309</ele>
        <time>2018-02-04T10:38:57Z</time>
      </trkpt>
      <trkpt lat="45.88273" lon="4.65395">
        <ele>309</ele>
        <time>2018-02-04T10:38:58Z</time>
      </trkpt>
      <trkpt lat="45.88272" lon="4.65407">
        <ele>309</ele>
        <time>2018-02-04T10:39:02Z</time>
      </trkpt>
      <trkpt lat="45.88271" lon="4.65411">
        <ele>309</ele>
        <time>2018-02-04T10:39:03Z</time>
      </trkpt>
      <trkpt lat="45.88268" lon="4.65419">
        <ele>311</ele>
        <time>2018-02-04T10:39:06Z</time>
      </trkpt>
      <trkpt lat="45.88266" lon="4.65422">
        <ele>311</ele>
        <time>2018-02-04T10:39:07Z</time>
      </trkpt>
      <trkpt lat="45.88263" lon="4.6543">
        <ele>311</ele>
        <time>2018-02-04T10:39:10Z</time>
      </trkpt>
      <trkpt lat="45.88262" lon="4.65433">
        <ele>311</ele>
        <time>2018-02-04T10:39:11Z</time>
      </trkpt>
      <trkpt lat="45.8826" lon="4.65443">
        <ele>311</ele>
        <time>2018-02-04T10:39:14Z</time>
      </trkpt>
      <trkpt lat="45.88259" lon="4.65446">
        <ele>311</ele>
        <time>2018-02-04T10:39:15Z</time>
      </trkpt>
      <trkpt lat="45.88256" lon="4.65458">
        <ele>311</ele>
        <time>2018-02-04T10:39:19Z</time>
      </trkpt>
      <trkpt lat="45.88254" lon="4.65461">
        <ele>311</ele>
        <time>2018-02-04T10:39:20Z</time>
      </trkpt>
      <trkpt lat="45.8825" lon="4.65471">
        <ele>312</ele>
        <time>2018-02-04T10:39:24Z</time>
      </trkpt>
      <trkpt lat="45.8825" lon="4.65474">
        <ele>316</ele>
        <time>2018-02-04T10:39:25Z</time>
      </trkpt>
      <trkpt lat="45.88248" lon="4.65484">
        <ele>316</ele>
        <time>2018-02-04T10:39:28Z</time>
      </trkpt>
      <trkpt lat="45.88247" lon="4.65487">
        <ele>316</ele>
        <time>2018-02-04T10:39:29Z</time>
      </trkpt>
      <trkpt lat="45.88242" lon="4.65497">
        <ele>316</ele>
        <time>2018-02-04T10:39:33Z</time>
      </trkpt>
      <trkpt lat="45.88241" lon="4.655">
        <ele>316</ele>
        <time>2018-02-04T10:39:34Z</time>
      </trkpt>
      <trkpt lat="45.88239" lon="4.6551">
        <ele>318</ele>
        <time>2018-02-04T10:39:37Z</time>
      </trkpt>
      <trkpt lat="45.88238" lon="4.65513">
        <ele>318</ele>
        <time>2018-02-04T10:39:38Z</time>
      </trkpt>
      <trkpt lat="45.88234" lon="4.65524">
        <ele>319</ele>
        <time>2018-02-04T10:39:42Z</time>
      </trkpt>
      <trkpt lat="45.88233" lon="4.65526">
        <ele>319</ele>
        <time>2018-02-04T10:39:43Z</time>
      </trkpt>
      <trkpt lat="45.88229" lon="4.65535">
        <ele>320</ele>
        <time>2018-02-04T10:39:46Z</time>
      </trkpt>
      <trkpt lat="45.88228" lon="4.65538">
        <ele>320</ele>
        <time>2018-02-04T10:39:47Z</time>
      </trkpt>
      <trkpt lat="45.88226" lon="4.65549">
        <ele>320</ele>
        <time>2018-02-04T10:39:51Z</time>
      </trkpt>
      <trkpt lat="45.88226" lon="4.65552">
        <ele>320</ele>
        <time>2018-02-04T10:39:52Z</time>
      </trkpt>
      <trkpt lat="45.88223" lon="4.65563">
        <ele>320</ele>
        <time>2018-02-04T10:39:56Z</time>
      </trkpt>
      <trkpt lat="45.88222" lon="4.65566">
        <ele>320</ele>
        <time>2018-02-04T10:39:57Z</time>
      </trkpt>
      <trkpt lat="45.88218" lon="4.65577">
        <ele>321</ele>
        <time>2018-02-04T10:40:01Z</time>
      </trkpt>
      <trkpt lat="45.88217" lon="4.6558">
        <ele>321</ele>
        <time>2018-02-04T10:40:02Z</time>
      </trkpt>
      <trkpt lat="45.88213" lon="4.6559">
        <ele>321</ele>
        <time>2018-02-04T10:40:06Z</time>
      </trkpt>
      <trkpt lat="45.88213" lon="4.65593">
        <ele>321</ele>
        <time>2018-02-04T10:40:07Z</time>
      </trkpt>
      <trkpt lat="45.88209" lon="4.65603">
        <ele>321</ele>
        <time>2018-02-04T10:40:11Z</time>
      </trkpt>
      <trkpt lat="45.88208" lon="4.65606">
        <ele>321</ele>
        <time>2018-02-04T10:40:12Z</time>
      </trkpt>
      <trkpt lat="45.88206" lon="4.65618">
        <ele>321</ele>
        <time>2018-02-04T10:40:16Z</time>
      </trkpt>
      <trkpt lat="45.88205" lon="4.6562">
        <ele>321</ele>
        <time>2018-02-04T10:40:17Z</time>
      </trkpt>
      <trkpt lat="45.882" lon="4.65631">
        <ele>321</ele>
        <time>2018-02-04T10:40:21Z</time>
      </trkpt>
      <trkpt lat="45.88199" lon="4.65633">
        <ele>321</ele>
        <time>2018-02-04T10:40:22Z</time>
      </trkpt>
      <trkpt lat="45.88195" lon="4.65643">
        <ele>322</ele>
        <time>2018-02-04T10:40:26Z</time>
      </trkpt>
      <trkpt lat="45.88194" lon="4.65646">
        <ele>322</ele>
        <time>2018-02-04T10:40:27Z</time>
      </trkpt>
      <trkpt lat="45.8819" lon="4.65657">
        <ele>322</ele>
        <time>2018-02-04T10:40:31Z</time>
      </trkpt>
      <trkpt lat="45.88189" lon="4.65659">
        <ele>322</ele>
        <time>2018-02-04T10:40:32Z</time>
      </trkpt>
      <trkpt lat="45.88185" lon="4.65668">
        <ele>322</ele>
        <time>2018-02-04T10:40:36Z</time>
      </trkpt>
      <trkpt lat="45.88184" lon="4.65671">
        <ele>322</ele>
        <time>2018-02-04T10:40:37Z</time>
      </trkpt>
      <trkpt lat="45.8818" lon="4.6568">
        <ele>322</ele>
        <time>2018-02-04T10:40:42Z</time>
      </trkpt>
      <trkpt lat="45.88179" lon="4.65682">
        <ele>322</ele>
        <time>2018-02-04T10:40:43Z</time>
      </trkpt>
      <trkpt lat="45.88175" lon="4.65691">
        <ele>322</ele>
        <time>2018-02-04T10:40:47Z</time>
      </trkpt>
      <trkpt lat="45.88174" lon="4.65693">
        <ele>322</ele>
        <time>2018-02-04T10:40:48Z</time>
      </trkpt>
      <trkpt lat="45.88169" lon="4.65702">
        <ele>322</ele>
        <time>2018-02-04T10:40:53Z</time>
      </trkpt>
      <trkpt lat="45.88167" lon="4.65703">
        <ele>322</ele>
        <time>2018-02-04T10:40:54Z</time>
      </trkpt>
      <trkpt lat="45.88162" lon="4.6571">
        <ele>331</ele>
        <time>2018-02-04T10:40:58Z</time>
      </trkpt>
      <trkpt lat="45.88161" lon="4.65713">
        <ele>331</ele>
        <time>2018-02-04T10:40:59Z</time>
      </trkpt>
      <trkpt lat="45.88157" lon="4.65722">
        <ele>331</ele>
        <time>2018-02-04T10:41:03Z</time>
      </trkpt>
      <trkpt lat="45.88156" lon="4.65725">
        <ele>331</ele>
        <time>2018-02-04T10:41:04Z</time>
      </trkpt>
      <trkpt lat="45.88149" lon="4.65732">
        <ele>331</ele>
        <time>2018-02-04T10:41:08Z</time>
      </trkpt>
      <trkpt lat="45.88148" lon="4.65734">
        <ele>331</ele>
        <time>2018-02-04T10:41:09Z</time>
      </trkpt>
      <trkpt lat="45.88143" lon="4.65743">
        <ele>331</ele>
        <time>2018-02-04T10:41:13Z</time>
      </trkpt>
      <trkpt lat="45.88142" lon="4.65745">
        <ele>331</ele>
        <time>2018-02-04T10:41:14Z</time>
      </trkpt>
      <trkpt lat="45.88135" lon="4.65754">
        <ele>331</ele>
        <time>2018-02-04T10:41:19Z</time>
      </trkpt>
      <trkpt lat="45.88134" lon="4.65756">
        <ele>332</ele>
        <time>2018-02-04T10:41:20Z</time>
      </trkpt>
      <trkpt lat="45.88128" lon="4.65763">
        <ele>332</ele>
        <time>2018-02-04T10:41:24Z</time>
      </trkpt>
      <trkpt lat="45.88126" lon="4.65766">
        <ele>333</ele>
        <time>2018-02-04T10:41:25Z</time>
      </trkpt>
      <trkpt lat="45.8812" lon="4.65772">
        <ele>333</ele>
        <time>2018-02-04T10:41:29Z</time>
      </trkpt>
      <trkpt lat="45.88118" lon="4.65773">
        <ele>333</ele>
        <time>2018-02-04T10:41:30Z</time>
      </trkpt>
      <trkpt lat="45.8811" lon="4.65778">
        <ele>334</ele>
        <time>2018-02-04T10:41:34Z</time>
      </trkpt>
      <trkpt lat="45.88108" lon="4.65779">
        <ele>334</ele>
        <time>2018-02-04T10:41:35Z</time>
      </trkpt>
      <trkpt lat="45.88101" lon="4.65786">
        <ele>334</ele>
        <time>2018-02-04T10:41:39Z</time>
      </trkpt>
      <trkpt lat="45.881" lon="4.65788">
        <ele>334</ele>
        <time>2018-02-04T10:41:40Z</time>
      </trkpt>
      <trkpt lat="45.88094" lon="4.65793">
        <ele>334</ele>
        <time>2018-02-04T10:41:43Z</time>
      </trkpt>
      <trkpt lat="45.88091" lon="4.65794">
        <ele>334</ele>
        <time>2018-02-04T10:41:44Z</time>
      </trkpt>
      <trkpt lat="45.88085" lon="4.65799">
        <ele>334</ele>
        <time>2018-02-04T10:41:47Z</time>
      </trkpt>
      <trkpt lat="45.88083" lon="4.65801">
        <ele>341</ele>
        <time>2018-02-04T10:41:48Z</time>
      </trkpt>
      <trkpt lat="45.88076" lon="4.65808">
        <ele>341</ele>
        <time>2018-02-04T10:41:52Z</time>
      </trkpt>
      <trkpt lat="45.88074" lon="4.65809">
        <ele>341</ele>
        <time>2018-02-04T10:41:53Z</time>
      </trkpt>
      <trkpt lat="45.88067" lon="4.65814">
        <ele>341</ele>
        <time>2018-02-04T10:41:56Z</time>
      </trkpt>
      <trkpt lat="45.88065" lon="4.65816">
        <ele>341</ele>
        <time>2018-02-04T10:41:57Z</time>
      </trkpt>
      <trkpt lat="45.88058" lon="4.65818">
        <ele>341</ele>
        <time>2018-02-04T10:42:00Z</time>
      </trkpt>
      <trkpt lat="45.88055" lon="4.65819">
        <ele>341</ele>
        <time>2018-02-04T10:42:01Z</time>
      </trkpt>
      <trkpt lat="45.88047" lon="4.65825">
        <ele>342</ele>
        <time>2018-02-04T10:42:05Z</time>
      </trkpt>
      <trkpt lat="45.88046" lon="4.65826">
        <ele>342</ele>
        <time>2018-02-04T10:42:06Z</time>
      </trkpt>
      <trkpt lat="45.88038" lon="4.6583">
        <ele>343</ele>
        <time>2018-02-04T10:42:10Z</time>
      </trkpt>
      <trkpt lat="45.88036" lon="4.65832">
        <ele>343</ele>
        <time>2018-02-04T10:42:11Z</time>
      </trkpt>
      <trkpt lat="45.88029" lon="4.65836">
        <ele>339</ele>
        <time>2018-02-04T10:42:14Z</time>
      </trkpt>
      <trkpt lat="45.88027" lon="4.65838">
        <ele>339</ele>
        <time>2018-02-04T10:42:15Z</time>
      </trkpt>
      <trkpt lat="45.8802" lon="4.65842">
        <ele>340</ele>
        <time>2018-02-04T10:42:18Z</time>
      </trkpt>
      <trkpt lat="45.88018" lon="4.65844">
        <ele>340</ele>
        <time>2018-02-04T10:42:19Z</time>
      </trkpt>
      <trkpt lat="45.88011" lon="4.65847">
        <ele>340</ele>
        <time>2018-02-04T10:42:22Z</time>
      </trkpt>
      <trkpt lat="45.88009" lon="4.65848">
        <ele>340</ele>
        <time>2018-02-04T10:42:23Z</time>
      </trkpt>
      <trkpt lat="45.88002" lon="4.65853">
        <ele>340</ele>
        <time>2018-02-04T10:42:26Z</time>
      </trkpt>
      <trkpt lat="45.87999" lon="4.65855">
        <ele>344</ele>
        <time>2018-02-04T10:42:27Z</time>
      </trkpt>
      <trkpt lat="45.87992" lon="4.65861">
        <ele>344</ele>
        <time>2018-02-04T10:42:30Z</time>
      </trkpt>
      <trkpt lat="45.8799" lon="4.65863">
        <ele>344</ele>
        <time>2018-02-04T10:42:31Z</time>
      </trkpt>
      <trkpt lat="45.87984" lon="4.65869">
        <ele>344</ele>
        <time>2018-02-04T10:42:33Z</time>
      </trkpt>
      <trkpt lat="45.87982" lon="4.65872">
        <ele>343</ele>
        <time>2018-02-04T10:42:34Z</time>
      </trkpt>
      <trkpt lat="45.87977" lon="4.65877">
        <ele>343</ele>
        <time>2018-02-04T10:42:36Z</time>
      </trkpt>
      <trkpt lat="45.87975" lon="4.65879">
        <ele>343</ele>
        <time>2018-02-04T10:42:37Z</time>
      </trkpt>
      <trkpt lat="45.8797" lon="4.65885">
        <ele>343</ele>
        <time>2018-02-04T10:42:39Z</time>
      </trkpt>
      <trkpt lat="45.87968" lon="4.65888">
        <ele>343</ele>
        <time>2018-02-04T10:42:40Z</time>
      </trkpt>
      <trkpt lat="45.87963" lon="4.65894">
        <ele>343</ele>
        <time>2018-02-04T10:42:42Z</time>
      </trkpt>
      <trkpt lat="45.87961" lon="4.65897">
        <ele>343</ele>
        <time>2018-02-04T10:42:43Z</time>
      </trkpt>
      <trkpt lat="45.87957" lon="4.65904">
        <ele>343</ele>
        <time>2018-02-04T10:42:45Z</time>
      </trkpt>
      <trkpt lat="45.87955" lon="4.65907">
        <ele>343</ele>
        <time>2018-02-04T10:42:46Z</time>
      </trkpt>
      <trkpt lat="45.87951" lon="4.65913">
        <ele>343</ele>
        <time>2018-02-04T10:42:48Z</time>
      </trkpt>
      <trkpt lat="45.87949" lon="4.65916">
        <ele>343</ele>
        <time>2018-02-04T10:42:49Z</time>
      </trkpt>
      <trkpt lat="45.87943" lon="4.65925">
        <ele>341</ele>
        <time>2018-02-04T10:42:52Z</time>
      </trkpt>
      <trkpt lat="45.87941" lon="4.65928">
        <ele>341</ele>
        <time>2018-02-04T10:42:53Z</time>
      </trkpt>
      <trkpt lat="45.87935" lon="4.65936">
        <ele>342</ele>
        <time>2018-02-04T10:42:56Z</time>
      </trkpt>
      <trkpt lat="45.87932" lon="4.65939">
        <ele>342</ele>
        <time>2018-02-04T10:42:57Z</time>
      </trkpt>
      <trkpt lat="45.87926" lon="4.65947">
        <ele>341</ele>
        <time>2018-02-04T10:43:00Z</time>
      </trkpt>
      <trkpt lat="45.87925" lon="4.65949">
        <ele>341</ele>
        <time>2018-02-04T10:43:01Z</time>
      </trkpt>
      <trkpt lat="45.87923" lon="4.65961">
        <ele>341</ele>
        <time>2018-02-04T10:43:05Z</time>
      </trkpt>
      <trkpt lat="45.87922" lon="4.65965">
        <ele>341</ele>
        <time>2018-02-04T10:43:06Z</time>
      </trkpt>
      <trkpt lat="45.87919" lon="4.65974">
        <ele>341</ele>
        <time>2018-02-04T10:43:09Z</time>
      </trkpt>
      <trkpt lat="45.87919" lon="4.65977">
        <ele>341</ele>
        <time>2018-02-04T10:43:10Z</time>
      </trkpt>
      <trkpt lat="45.8792" lon="4.65988">
        <ele>342</ele>
        <time>2018-02-04T10:43:13Z</time>
      </trkpt>
      <trkpt lat="45.8792" lon="4.65991">
        <ele>342</ele>
        <time>2018-02-04T10:43:14Z</time>
      </trkpt>
      <trkpt lat="45.87919" lon="4.66002">
        <ele>343</ele>
        <time>2018-02-04T10:43:17Z</time>
      </trkpt>
      <trkpt lat="45.87918" lon="4.66005">
        <ele>343</ele>
        <time>2018-02-04T10:43:18Z</time>
      </trkpt>
      <trkpt lat="45.87915" lon="4.66016">
        <ele>342</ele>
        <time>2018-02-04T10:43:21Z</time>
      </trkpt>
      <trkpt lat="45.87915" lon="4.6602">
        <ele>342</ele>
        <time>2018-02-04T10:43:22Z</time>
      </trkpt>
      <trkpt lat="45.87914" lon="4.66032">
        <ele>342</ele>
        <time>2018-02-04T10:43:25Z</time>
      </trkpt>
      <trkpt lat="45.87914" lon="4.66036">
        <ele>342</ele>
        <time>2018-02-04T10:43:26Z</time>
      </trkpt>
      <trkpt lat="45.87915" lon="4.66048">
        <ele>342</ele>
        <time>2018-02-04T10:43:29Z</time>
      </trkpt>
      <trkpt lat="45.87915" lon="4.66052">
        <ele>342</ele>
        <time>2018-02-04T10:43:30Z</time>
      </trkpt>
      <trkpt lat="45.87916" lon="4.66063">
        <ele>343</ele>
        <time>2018-02-04T10:43:33Z</time>
      </trkpt>
      <trkpt lat="45.87916" lon="4.66067">
        <ele>343</ele>
        <time>2018-02-04T10:43:34Z</time>
      </trkpt>
      <trkpt lat="45.87916" lon="4.66077">
        <ele>343</ele>
        <time>2018-02-04T10:43:37Z</time>
      </trkpt>
      <trkpt lat="45.87916" lon="4.66081">
        <ele>344</ele>
        <time>2018-02-04T10:43:38Z</time>
      </trkpt>
      <trkpt lat="45.87917" lon="4.66091">
        <ele>345</ele>
        <time>2018-02-04T10:43:41Z</time>
      </trkpt>
      <trkpt lat="45.87917" lon="4.66094">
        <ele>345</ele>
        <time>2018-02-04T10:43:42Z</time>
      </trkpt>
      <trkpt lat="45.87918" lon="4.66104">
        <ele>346</ele>
        <time>2018-02-04T10:43:45Z</time>
      </trkpt>
      <trkpt lat="45.87918" lon="4.66108">
        <ele>346</ele>
        <time>2018-02-04T10:43:46Z</time>
      </trkpt>
      <trkpt lat="45.87918" lon="4.6612">
        <ele>347</ele>
        <time>2018-02-04T10:43:50Z</time>
      </trkpt>
      <trkpt lat="45.87918" lon="4.66123">
        <ele>348</ele>
        <time>2018-02-04T10:43:51Z</time>
      </trkpt>
      <trkpt lat="45.87921" lon="4.66134">
        <ele>349</ele>
        <time>2018-02-04T10:43:55Z</time>
      </trkpt>
      <trkpt lat="45.87923" lon="4.66136">
        <ele>349</ele>
        <time>2018-02-04T10:43:56Z</time>
      </trkpt>
      <trkpt lat="45.8793" lon="4.6614">
        <ele>349</ele>
        <time>2018-02-04T10:43:59Z</time>
      </trkpt>
      <trkpt lat="45.87933" lon="4.66141">
        <ele>349</ele>
        <time>2018-02-04T10:44:00Z</time>
      </trkpt>
      <trkpt lat="45.8794" lon="4.66142">
        <ele>349</ele>
        <time>2018-02-04T10:44:02Z</time>
      </trkpt>
      <trkpt lat="45.87943" lon="4.66142">
        <ele>349</ele>
        <time>2018-02-04T10:44:03Z</time>
      </trkpt>
      <trkpt lat="45.87951" lon="4.66142">
        <ele>349</ele>
        <time>2018-02-04T10:44:06Z</time>
      </trkpt>
      <trkpt lat="45.87954" lon="4.66142">
        <ele>348</ele>
        <time>2018-02-04T10:44:07Z</time>
      </trkpt>
      <trkpt lat="45.87961" lon="4.66143">
        <ele>348</ele>
        <time>2018-02-04T10:44:09Z</time>
      </trkpt>
      <trkpt lat="45.87964" lon="4.66143">
        <ele>348</ele>
        <time>2018-02-04T10:44:10Z</time>
      </trkpt>
      <trkpt lat="45.87971" lon="4.66143">
        <ele>348</ele>
        <time>2018-02-04T10:44:12Z</time>
      </trkpt>
      <trkpt lat="45.87975" lon="4.66143">
        <ele>348</ele>
        <time>2018-02-04T10:44:13Z</time>
      </trkpt>
      <trkpt lat="45.87982" lon="4.66143">
        <ele>348</ele>
        <time>2018-02-04T10:44:15Z</time>
      </trkpt>
      <trkpt lat="45.87986" lon="4.66143">
        <ele>348</ele>
        <time>2018-02-04T10:44:16Z</time>
      </trkpt>
      <trkpt lat="45.87993" lon="4.66143">
        <ele>349</ele>
        <time>2018-02-04T10:44:18Z</time>
      </trkpt>
      <trkpt lat="45.87996" lon="4.66144">
        <ele>349</ele>
        <time>2018-02-04T10:44:19Z</time>
      </trkpt>
      <trkpt lat="45.88003" lon="4.66144">
        <ele>348</ele>
        <time>2018-02-04T10:44:21Z</time>
      </trkpt>
      <trkpt lat="45.88006" lon="4.66144">
        <ele>348</ele>
        <time>2018-02-04T10:44:22Z</time>
      </trkpt>
      <trkpt lat="45.88014" lon="4.66143">
        <ele>348</ele>
        <time>2018-02-04T10:44:24Z</time>
      </trkpt>
      <trkpt lat="45.88018" lon="4.66143">
        <ele>348</ele>
        <time>2018-02-04T10:44:25Z</time>
      </trkpt>
      <trkpt lat="45.88026" lon="4.66142">
        <ele>348</ele>
        <time>2018-02-04T10:44:27Z</time>
      </trkpt>
      <trkpt lat="45.8803" lon="4.66141">
        <ele>348</ele>
        <time>2018-02-04T10:44:28Z</time>
      </trkpt>
      <trkpt lat="45.88038" lon="4.6614">
        <ele>348</ele>
        <time>2018-02-04T10:44:30Z</time>
      </trkpt>
      <trkpt lat="45.88042" lon="4.6614">
        <ele>348</ele>
        <time>2018-02-04T10:44:31Z</time>
      </trkpt>
      <trkpt lat="45.8805" lon="4.66139">
        <ele>348</ele>
        <time>2018-02-04T10:44:33Z</time>
      </trkpt>
      <trkpt lat="45.88053" lon="4.66139">
        <ele>348</ele>
        <time>2018-02-04T10:44:34Z</time>
      </trkpt>
      <trkpt lat="45.8806" lon="4.66138">
        <ele>348</ele>
        <time>2018-02-04T10:44:36Z</time>
      </trkpt>
      <trkpt lat="45.88063" lon="4.66138">
        <ele>348</ele>
        <time>2018-02-04T10:44:37Z</time>
      </trkpt>
      <trkpt lat="45.88069" lon="4.66137">
        <ele>348</ele>
        <time>2018-02-04T10:44:39Z</time>
      </trkpt>
      <trkpt lat="45.88072" lon="4.66137">
        <ele>348</ele>
        <time>2018-02-04T10:44:40Z</time>
      </trkpt>
      <trkpt lat="45.88081" lon="4.66137">
        <ele>348</ele>
        <time>2018-02-04T10:44:43Z</time>
      </trkpt>
      <trkpt lat="45.88084" lon="4.66137">
        <ele>349</ele>
        <time>2018-02-04T10:44:44Z</time>
      </trkpt>
      <trkpt lat="45.8809" lon="4.66136">
        <ele>349</ele>
        <time>2018-02-04T10:44:46Z</time>
      </trkpt>
      <trkpt lat="45.88094" lon="4.66135">
        <ele>349</ele>
        <time>2018-02-04T10:44:47Z</time>
      </trkpt>
      <trkpt lat="45.88102" lon="4.66134">
        <ele>349</ele>
        <time>2018-02-04T10:44:49Z</time>
      </trkpt>
      <trkpt lat="45.88105" lon="4.66133">
        <ele>349</ele>
        <time>2018-02-04T10:44:50Z</time>
      </trkpt>
      <trkpt lat="45.88113" lon="4.66133">
        <ele>349</ele>
        <time>2018-02-04T10:44:52Z</time>
      </trkpt>
      <trkpt lat="45.88117" lon="4.66133">
        <ele>349</ele>
        <time>2018-02-04T10:44:53Z</time>
      </trkpt>
      <trkpt lat="45.88124" lon="4.66132">
        <ele>349</ele>
        <time>2018-02-04T10:44:55Z</time>
      </trkpt>
      <trkpt lat="45.88127" lon="4.66131">
        <ele>349</ele>
        <time>2018-02-04T10:44:56Z</time>
      </trkpt>
      <trkpt lat="45.88134" lon="4.66131">
        <ele>349</ele>
        <time>2018-02-04T10:44:58Z</time>
      </trkpt>
      <trkpt lat="45.88138" lon="4.66131">
        <ele>349</ele>
        <time>2018-02-04T10:44:59Z</time>
      </trkpt>
      <trkpt lat="45.88145" lon="4.6613">
        <ele>349</ele>
        <time>2018-02-04T10:45:01Z</time>
      </trkpt>
      <trkpt lat="45.88149" lon="4.66129">
        <ele>349</ele>
        <time>2018-02-04T10:45:02Z</time>
      </trkpt>
      <trkpt lat="45.88156" lon="4.66128">
        <ele>349</ele>
        <time>2018-02-04T10:45:04Z</time>
      </trkpt>
      <trkpt lat="45.88161" lon="4.66127">
        <ele>349</ele>
        <time>2018-02-04T10:45:05Z</time>
      </trkpt>
      <trkpt lat="45.88169" lon="4.66127">
        <ele>350</ele>
        <time>2018-02-04T10:45:07Z</time>
      </trkpt>
      <trkpt lat="45.88172" lon="4.66126">
        <ele>349</ele>
        <time>2018-02-04T10:45:08Z</time>
      </trkpt>
      <trkpt lat="45.88181" lon="4.66124">
        <ele>349</ele>
        <time>2018-02-04T10:45:11Z</time>
      </trkpt>
      <trkpt lat="45.88184" lon="4.66124">
        <ele>349</ele>
        <time>2018-02-04T10:45:12Z</time>
      </trkpt>
      <trkpt lat="45.8819" lon="4.66126">
        <ele>349</ele>
        <time>2018-02-04T10:45:14Z</time>
      </trkpt>
      <trkpt lat="45.88193" lon="4.66126">
        <ele>349</ele>
        <time>2018-02-04T10:45:15Z</time>
      </trkpt>
      <trkpt lat="45.88199" lon="4.66126">
        <ele>349</ele>
        <time>2018-02-04T10:45:17Z</time>
      </trkpt>
      <trkpt lat="45.88202" lon="4.66126">
        <ele>349</ele>
        <time>2018-02-04T10:45:18Z</time>
      </trkpt>
      <trkpt lat="45.88211" lon="4.66128">
        <ele>349</ele>
        <time>2018-02-04T10:45:21Z</time>
      </trkpt>
      <trkpt lat="45.88214" lon="4.66128">
        <ele>349</ele>
        <time>2018-02-04T10:45:22Z</time>
      </trkpt>
      <trkpt lat="45.8822" lon="4.6613">
        <ele>350</ele>
        <time>2018-02-04T10:45:24Z</time>
      </trkpt>
      <trkpt lat="45.88223" lon="4.6613">
        <ele>350</ele>
        <time>2018-02-04T10:45:25Z</time>
      </trkpt>
      <trkpt lat="45.88232" lon="4.66131">
        <ele>350</ele>
        <time>2018-02-04T10:45:28Z</time>
      </trkpt>
      <trkpt lat="45.88235" lon="4.66131">
        <ele>350</ele>
        <time>2018-02-04T10:45:29Z</time>
      </trkpt>
      <trkpt lat="45.88241" lon="4.66131">
        <ele>350</ele>
        <time>2018-02-04T10:45:31Z</time>
      </trkpt>
      <trkpt lat="45.88244" lon="4.66131">
        <ele>350</ele>
        <time>2018-02-04T10:45:32Z</time>
      </trkpt>
      <trkpt lat="45.8825" lon="4.66131">
        <ele>351</ele>
        <time>2018-02-04T10:45:34Z</time>
      </trkpt>
      <trkpt lat="45.88253" lon="4.66132">
        <ele>351</ele>
        <time>2018-02-04T10:45:35Z</time>
      </trkpt>
      <trkpt lat="45.8826" lon="4.66133">
        <ele>351</ele>
        <time>2018-02-04T10:45:37Z</time>
      </trkpt>
      <trkpt lat="45.88263" lon="4.66133">
        <ele>352</ele>
        <time>2018-02-04T10:45:38Z</time>
      </trkpt>
      <trkpt lat="45.88272" lon="4.66134">
        <ele>352</ele>
        <time>2018-02-04T10:45:41Z</time>
      </trkpt>
      <trkpt lat="45.88275" lon="4.66135">
        <ele>352</ele>
        <time>2018-02-04T10:45:42Z</time>
      </trkpt>
      <trkpt lat="45.88283" lon="4.66135">
        <ele>352</ele>
        <time>2018-02-04T10:45:45Z</time>
      </trkpt>
      <trkpt lat="45.88286" lon="4.66135">
        <ele>352</ele>
        <time>2018-02-04T10:45:46Z</time>
      </trkpt>
      <trkpt lat="45.88295" lon="4.66136">
        <ele>352</ele>
        <time>2018-02-04T10:45:49Z</time>
      </trkpt>
      <trkpt lat="45.88298" lon="4.66136">
        <ele>352</ele>
        <time>2018-02-04T10:45:50Z</time>
      </trkpt>
      <trkpt lat="45.88306" lon="4.66135">
        <ele>353</ele>
        <time>2018-02-04T10:45:53Z</time>
      </trkpt>
      <trkpt lat="45.88309" lon="4.66135">
        <ele>353</ele>
        <time>2018-02-04T10:45:54Z</time>
      </trkpt>
      <trkpt lat="45.88317" lon="4.66137">
        <ele>353</ele>
        <time>2018-02-04T10:45:57Z</time>
      </trkpt>
      <trkpt lat="45.88319" lon="4.66138">
        <ele>354</ele>
        <time>2018-02-04T10:45:58Z</time>
      </trkpt>
      <trkpt lat="45.88328" lon="4.66138">
        <ele>354</ele>
        <time>2018-02-04T10:46:02Z</time>
      </trkpt>
      <trkpt lat="45.88331" lon="4.66138">
        <ele>354</ele>
        <time>2018-02-04T10:46:03Z</time>
      </trkpt>
      <trkpt lat="45.88338" lon="4.66139">
        <ele>357</ele>
        <time>2018-02-04T10:46:06Z</time>
      </trkpt>
      <trkpt lat="45.88341" lon="4.6614">
        <ele>357</ele>
        <time>2018-02-04T10:46:07Z</time>
      </trkpt>
      <trkpt lat="45.88349" lon="4.66142">
        <ele>357</ele>
        <time>2018-02-04T10:46:10Z</time>
      </trkpt>
      <trkpt lat="45.88351" lon="4.66142">
        <ele>357</ele>
        <time>2018-02-04T10:46:11Z</time>
      </trkpt>
      <trkpt lat="45.88359" lon="4.66142">
        <ele>357</ele>
        <time>2018-02-04T10:46:14Z</time>
      </trkpt>
      <trkpt lat="45.88361" lon="4.66142">
        <ele>357</ele>
        <time>2018-02-04T10:46:15Z</time>
      </trkpt>
      <trkpt lat="45.88368" lon="4.66142">
        <ele>357</ele>
        <time>2018-02-04T10:46:18Z</time>
      </trkpt>
      <trkpt lat="45.8837" lon="4.66143">
        <ele>357</ele>
        <time>2018-02-04T10:46:19Z</time>
      </trkpt>
      <trkpt lat="45.88377" lon="4.66144">
        <ele>357</ele>
        <time>2018-02-04T10:46:22Z</time>
      </trkpt>
      <trkpt lat="45.88379" lon="4.66144">
        <ele>357</ele>
        <time>2018-02-04T10:46:23Z</time>
      </trkpt>
      <trkpt lat="45.88387" lon="4.66142">
        <ele>357</ele>
        <time>2018-02-04T10:46:27Z</time>
      </trkpt>
      <trkpt lat="45.88389" lon="4.66142">
        <ele>357</ele>
        <time>2018-02-04T10:46:28Z</time>
      </trkpt>
      <trkpt lat="45.88396" lon="4.66143">
        <ele>358</ele>
        <time>2018-02-04T10:46:31Z</time>
      </trkpt>
      <trkpt lat="45.88398" lon="4.66142">
        <ele>358</ele>
        <time>2018-02-04T10:46:32Z</time>
      </trkpt>
      <trkpt lat="45.88407" lon="4.66143">
        <ele>359</ele>
        <time>2018-02-04T10:46:36Z</time>
      </trkpt>
      <trkpt lat="45.88408" lon="4.66144">
        <ele>359</ele>
        <time>2018-02-04T10:46:37Z</time>
      </trkpt>
      <trkpt lat="45.88416" lon="4.66143">
        <ele>359</ele>
        <time>2018-02-04T10:46:41Z</time>
      </trkpt>
      <trkpt lat="45.88418" lon="4.66143">
        <ele>361</ele>
        <time>2018-02-04T10:46:42Z</time>
      </trkpt>
      <trkpt lat="45.88427" lon="4.66142">
        <ele>361</ele>
        <time>2018-02-04T10:46:46Z</time>
      </trkpt>
      <trkpt lat="45.88428" lon="4.66143">
        <ele>361</ele>
        <time>2018-02-04T10:46:47Z</time>
      </trkpt>
      <trkpt lat="45.88436" lon="4.66145">
        <ele>361</ele>
        <time>2018-02-04T10:46:51Z</time>
      </trkpt>
      <trkpt lat="45.88438" lon="4.66145">
        <ele>361</ele>
        <time>2018-02-04T10:46:52Z</time>
      </trkpt>
      <trkpt lat="45.88446" lon="4.66144">
        <ele>361</ele>
        <time>2018-02-04T10:46:56Z</time>
      </trkpt>
      <trkpt lat="45.88448" lon="4.66144">
        <ele>361</ele>
        <time>2018-02-04T10:46:57Z</time>
      </trkpt>
      <trkpt lat="45.88455" lon="4.66142">
        <ele>361</ele>
        <time>2018-02-04T10:47:01Z</time>
      </trkpt>
      <trkpt lat="45.88457" lon="4.66142">
        <ele>361</ele>
        <time>2018-02-04T10:47:02Z</time>
      </trkpt>
      <trkpt lat="45.88464" lon="4.66145">
        <ele>361</ele>
        <time>2018-02-04T10:47:06Z</time>
      </trkpt>
      <trkpt lat="45.88466" lon="4.66146">
        <ele>361</ele>
        <time>2018-02-04T10:47:07Z</time>
      </trkpt>
      <trkpt lat="45.88474" lon="4.66149">
        <ele>362</ele>
        <time>2018-02-04T10:47:11Z</time>
      </trkpt>
      <trkpt lat="45.88476" lon="4.6615">
        <ele>362</ele>
        <time>2018-02-04T10:47:12Z</time>
      </trkpt>
      <trkpt lat="45.88484" lon="4.66153">
        <ele>363</ele>
        <time>2018-02-04T10:47:16Z</time>
      </trkpt>
      <trkpt lat="45.88485" lon="4.66155">
        <ele>363</ele>
        <time>2018-02-04T10:47:17Z</time>
      </trkpt>
      <trkpt lat="45.88492" lon="4.66162">
        <ele>365</ele>
        <time>2018-02-04T10:47:22Z</time>
      </trkpt>
      <trkpt lat="45.88494" lon="4.66164">
        <ele>365</ele>
        <time>2018-02-04T10:47:23Z</time>
      </trkpt>
      <trkpt lat="45.885" lon="4.6617">
        <ele>368</ele>
        <time>2018-02-04T10:47:28Z</time>
      </trkpt>
      <trkpt lat="45.88501" lon="4.66172">
        <ele>368</ele>
        <time>2018-02-04T10:47:29Z</time>
      </trkpt>
      <trkpt lat="45.88507" lon="4.66179">
        <ele>368</ele>
        <time>2018-02-04T10:47:33Z</time>
      </trkpt>
      <trkpt lat="45.88509" lon="4.66181">
        <ele>369</ele>
        <time>2018-02-04T10:47:34Z</time>
      </trkpt>
      <trkpt lat="45.88516" lon="4.66186">
        <ele>369</ele>
        <time>2018-02-04T10:47:38Z</time>
      </trkpt>
      <trkpt lat="45.88518" lon="4.66188">
        <ele>369</ele>
        <time>2018-02-04T10:47:39Z</time>
      </trkpt>
      <trkpt lat="45.88524" lon="4.66193">
        <ele>370</ele>
        <time>2018-02-04T10:47:42Z</time>
      </trkpt>
      <trkpt lat="45.88526" lon="4.66195">
        <ele>370</ele>
        <time>2018-02-04T10:47:43Z</time>
      </trkpt>
      <trkpt lat="45.88533" lon="4.66201">
        <ele>370</ele>
        <time>2018-02-04T10:47:47Z</time>
      </trkpt>
      <trkpt lat="45.88534" lon="4.66202">
        <ele>370</ele>
        <time>2018-02-04T10:47:48Z</time>
      </trkpt>
      <trkpt lat="45.8854" lon="4.66208">
        <ele>370</ele>
        <time>2018-02-04T10:47:52Z</time>
      </trkpt>
      <trkpt lat="45.88542" lon="4.66209">
        <ele>370</ele>
        <time>2018-02-04T10:47:53Z</time>
      </trkpt>
      <trkpt lat="45.88549" lon="4.66214">
        <ele>370</ele>
        <time>2018-02-04T10:47:57Z</time>
      </trkpt>
      <trkpt lat="45.88551" lon="4.66216">
        <ele>370</ele>
        <time>2018-02-04T10:47:58Z</time>
      </trkpt>
      <trkpt lat="45.88558" lon="4.6622">
        <ele>370</ele>
        <time>2018-02-04T10:48:01Z</time>
      </trkpt>
      <trkpt lat="45.88559" lon="4.66222">
        <ele>370</ele>
        <time>2018-02-04T10:48:02Z</time>
      </trkpt>
      <trkpt lat="45.88565" lon="4.6623">
        <ele>370</ele>
        <time>2018-02-04T10:48:06Z</time>
      </trkpt>
      <trkpt lat="45.88567" lon="4.66232">
        <ele>370</ele>
        <time>2018-02-04T10:48:07Z</time>
      </trkpt>
      <trkpt lat="45.88572" lon="4.66238">
        <ele>371</ele>
        <time>2018-02-04T10:48:10Z</time>
      </trkpt>
      <trkpt lat="45.88574" lon="4.6624">
        <ele>371</ele>
        <time>2018-02-04T10:48:11Z</time>
      </trkpt>
      <trkpt lat="45.88579" lon="4.66246">
        <ele>371</ele>
        <time>2018-02-04T10:48:14Z</time>
      </trkpt>
      <trkpt lat="45.88581" lon="4.66248">
        <ele>371</ele>
        <time>2018-02-04T10:48:15Z</time>
      </trkpt>
      <trkpt lat="45.88587" lon="4.66258">
        <ele>371</ele>
        <time>2018-02-04T10:48:19Z</time>
      </trkpt>
      <trkpt lat="45.88588" lon="4.6626">
        <ele>371</ele>
        <time>2018-02-04T10:48:20Z</time>
      </trkpt>
      <trkpt lat="45.88594" lon="4.6627">
        <ele>372</ele>
        <time>2018-02-04T10:48:24Z</time>
      </trkpt>
      <trkpt lat="45.88595" lon="4.66271">
        <ele>372</ele>
        <time>2018-02-04T10:48:25Z</time>
      </trkpt>
      <trkpt lat="45.88602" lon="4.66279">
        <ele>372</ele>
        <time>2018-02-04T10:48:29Z</time>
      </trkpt>
      <trkpt lat="45.88603" lon="4.66282">
        <ele>372</ele>
        <time>2018-02-04T10:48:30Z</time>
      </trkpt>
      <trkpt lat="45.88608" lon="4.66292">
        <ele>373</ele>
        <time>2018-02-04T10:48:34Z</time>
      </trkpt>
      <trkpt lat="45.88609" lon="4.66295">
        <ele>373</ele>
        <time>2018-02-04T10:48:35Z</time>
      </trkpt>
      <trkpt lat="45.88614" lon="4.66303">
        <ele>373</ele>
        <time>2018-02-04T10:48:38Z</time>
      </trkpt>
      <trkpt lat="45.88616" lon="4.66306">
        <ele>373</ele>
        <time>2018-02-04T10:48:39Z</time>
      </trkpt>
      <trkpt lat="45.88619" lon="4.66314">
        <ele>374</ele>
        <time>2018-02-04T10:48:42Z</time>
      </trkpt>
      <trkpt lat="45.8862" lon="4.66317">
        <ele>374</ele>
        <time>2018-02-04T10:48:43Z</time>
      </trkpt>
      <trkpt lat="45.88625" lon="4.66326">
        <ele>374</ele>
        <time>2018-02-04T10:48:46Z</time>
      </trkpt>
      <trkpt lat="45.88626" lon="4.66328">
        <ele>374</ele>
        <time>2018-02-04T10:48:47Z</time>
      </trkpt>
      <trkpt lat="45.8863" lon="4.66337">
        <ele>380</ele>
        <time>2018-02-04T10:48:50Z</time>
      </trkpt>
      <trkpt lat="45.88631" lon="4.66339">
        <ele>380</ele>
        <time>2018-02-04T10:48:51Z</time>
      </trkpt>
      <trkpt lat="45.88635" lon="4.66347">
        <ele>380</ele>
        <time>2018-02-04T10:48:54Z</time>
      </trkpt>
      <trkpt lat="45.88637" lon="4.6635">
        <ele>380</ele>
        <time>2018-02-04T10:48:55Z</time>
      </trkpt>
      <trkpt lat="45.88643" lon="4.66359">
        <ele>380</ele>
        <time>2018-02-04T10:48:59Z</time>
      </trkpt>
      <trkpt lat="45.88644" lon="4.66361">
        <ele>380</ele>
        <time>2018-02-04T10:49:00Z</time>
      </trkpt>
      <trkpt lat="45.88651" lon="4.6637">
        <ele>380</ele>
        <time>2018-02-04T10:49:04Z</time>
      </trkpt>
      <trkpt lat="45.88653" lon="4.66372">
        <ele>381</ele>
        <time>2018-02-04T10:49:05Z</time>
      </trkpt>
      <trkpt lat="45.88658" lon="4.66377">
        <ele>381</ele>
        <time>2018-02-04T10:49:08Z</time>
      </trkpt>
      <trkpt lat="45.8866" lon="4.66379">
        <ele>381</ele>
        <time>2018-02-04T10:49:09Z</time>
      </trkpt>
      <trkpt lat="45.88666" lon="4.66389">
        <ele>382</ele>
        <time>2018-02-04T10:49:13Z</time>
      </trkpt>
      <trkpt lat="45.88668" lon="4.6639">
        <ele>378</ele>
        <time>2018-02-04T10:49:14Z</time>
      </trkpt>
      <trkpt lat="45.88674" lon="4.66396">
        <ele>378</ele>
        <time>2018-02-04T10:49:17Z</time>
      </trkpt>
      <trkpt lat="45.88676" lon="4.66397">
        <ele>379</ele>
        <time>2018-02-04T10:49:18Z</time>
      </trkpt>
      <trkpt lat="45.88683" lon="4.66402">
        <ele>379</ele>
        <time>2018-02-04T10:49:21Z</time>
      </trkpt>
      <trkpt lat="45.88685" lon="4.66403">
        <ele>379</ele>
        <time>2018-02-04T10:49:22Z</time>
      </trkpt>
      <trkpt lat="45.88691" lon="4.66409">
        <ele>378</ele>
        <time>2018-02-04T10:49:25Z</time>
      </trkpt>
      <trkpt lat="45.88694" lon="4.66411">
        <ele>378</ele>
        <time>2018-02-04T10:49:26Z</time>
      </trkpt>
      <trkpt lat="45.88699" lon="4.6642">
        <ele>384</ele>
        <time>2018-02-04T10:49:30Z</time>
      </trkpt>
      <trkpt lat="45.88701" lon="4.66422">
        <ele>384</ele>
        <time>2018-02-04T10:49:31Z</time>
      </trkpt>
      <trkpt lat="45.88709" lon="4.66428">
        <ele>383</ele>
        <time>2018-02-04T10:49:35Z</time>
      </trkpt>
      <trkpt lat="45.88711" lon="4.66429">
        <ele>383</ele>
        <time>2018-02-04T10:49:36Z</time>
      </trkpt>
      <trkpt lat="45.88717" lon="4.66436">
        <ele>383</ele>
        <time>2018-02-04T10:49:40Z</time>
      </trkpt>
      <trkpt lat="45.88719" lon="4.66438">
        <ele>383</ele>
        <time>2018-02-04T10:49:41Z</time>
      </trkpt>
      <trkpt lat="45.88725" lon="4.66447">
        <ele>384</ele>
        <time>2018-02-04T10:49:45Z</time>
      </trkpt>
      <trkpt lat="45.88727" lon="4.66449">
        <ele>384</ele>
        <time>2018-02-04T10:49:46Z</time>
      </trkpt>
      <trkpt lat="45.88734" lon="4.66456">
        <ele>384</ele>
        <time>2018-02-04T10:49:50Z</time>
      </trkpt>
      <trkpt lat="45.88735" lon="4.66458">
        <ele>384</ele>
        <time>2018-02-04T10:49:51Z</time>
      </trkpt>
      <trkpt lat="45.88743" lon="4.66466">
        <ele>385</ele>
        <time>2018-02-04T10:49:55Z</time>
      </trkpt>
      <trkpt lat="45.88744" lon="4.66467">
        <ele>385</ele>
        <time>2018-02-04T10:49:56Z</time>
      </trkpt>
      <trkpt lat="45.8875" lon="4.66476">
        <ele>385</ele>
        <time>2018-02-04T10:50:00Z</time>
      </trkpt>
      <trkpt lat="45.88751" lon="4.66478">
        <ele>383</ele>
        <time>2018-02-04T10:50:01Z</time>
      </trkpt>
      <trkpt lat="45.88758" lon="4.66486">
        <ele>384</ele>
        <time>2018-02-04T10:50:05Z</time>
      </trkpt>
      <trkpt lat="45.8876" lon="4.66488">
        <ele>384</ele>
        <time>2018-02-04T10:50:06Z</time>
      </trkpt>
      <trkpt lat="45.88766" lon="4.66495">
        <ele>384</ele>
        <time>2018-02-04T10:50:10Z</time>
      </trkpt>
      <trkpt lat="45.88768" lon="4.66497">
        <ele>384</ele>
        <time>2018-02-04T10:50:11Z</time>
      </trkpt>
      <trkpt lat="45.88773" lon="4.66507">
        <ele>389</ele>
        <time>2018-02-04T10:50:15Z</time>
      </trkpt>
      <trkpt lat="45.88774" lon="4.66509">
        <ele>390</ele>
        <time>2018-02-04T10:50:16Z</time>
      </trkpt>
      <trkpt lat="45.8878" lon="4.66516">
        <ele>390</ele>
        <time>2018-02-04T10:50:20Z</time>
      </trkpt>
      <trkpt lat="45.88782" lon="4.66518">
        <ele>390</ele>
        <time>2018-02-04T10:50:21Z</time>
      </trkpt>
      <trkpt lat="45.88787" lon="4.66526">
        <ele>391</ele>
        <time>2018-02-04T10:50:25Z</time>
      </trkpt>
      <trkpt lat="45.88788" lon="4.66527">
        <ele>391</ele>
        <time>2018-02-04T10:50:26Z</time>
      </trkpt>
      <trkpt lat="45.88795" lon="4.66533">
        <ele>391</ele>
        <time>2018-02-04T10:50:30Z</time>
      </trkpt>
      <trkpt lat="45.88796" lon="4.66535">
        <ele>391</ele>
        <time>2018-02-04T10:50:31Z</time>
      </trkpt>
      <trkpt lat="45.88802" lon="4.66541">
        <ele>391</ele>
        <time>2018-02-04T10:50:35Z</time>
      </trkpt>
      <trkpt lat="45.88804" lon="4.66542">
        <ele>392</ele>
        <time>2018-02-04T10:50:36Z</time>
      </trkpt>
      <trkpt lat="45.88812" lon="4.66546">
        <ele>392</ele>
        <time>2018-02-04T10:50:40Z</time>
      </trkpt>
      <trkpt lat="45.88813" lon="4.66547">
        <ele>392</ele>
        <time>2018-02-04T10:50:41Z</time>
      </trkpt>
      <trkpt lat="45.88821" lon="4.66552">
        <ele>392</ele>
        <time>2018-02-04T10:50:45Z</time>
      </trkpt>
      <trkpt lat="45.88823" lon="4.66553">
        <ele>392</ele>
        <time>2018-02-04T10:50:46Z</time>
      </trkpt>
      <trkpt lat="45.88831" lon="4.66556">
        <ele>393</ele>
        <time>2018-02-04T10:50:50Z</time>
      </trkpt>
      <trkpt lat="45.88833" lon="4.66556">
        <ele>391</ele>
        <time>2018-02-04T10:50:51Z</time>
      </trkpt>
      <trkpt lat="45.88841" lon="4.6656">
        <ele>392</ele>
        <time>2018-02-04T10:50:55Z</time>
      </trkpt>
      <trkpt lat="45.88843" lon="4.66561">
        <ele>392</ele>
        <time>2018-02-04T10:50:56Z</time>
      </trkpt>
      <trkpt lat="45.88851" lon="4.66565">
        <ele>392</ele>
        <time>2018-02-04T10:51:00Z</time>
      </trkpt>
      <trkpt lat="45.88853" lon="4.66566">
        <ele>392</ele>
        <time>2018-02-04T10:51:01Z</time>
      </trkpt>
      <trkpt lat="45.8886" lon="4.66574">
        <ele>392</ele>
        <time>2018-02-04T10:51:05Z</time>
      </trkpt>
      <trkpt lat="45.88861" lon="4.66576">
        <ele>392</ele>
        <time>2018-02-04T10:51:06Z</time>
      </trkpt>
      <trkpt lat="45.88867" lon="4.66584">
        <ele>399</ele>
        <time>2018-02-04T10:51:10Z</time>
      </trkpt>
      <trkpt lat="45.88868" lon="4.66586">
        <ele>399</ele>
        <time>2018-02-04T10:51:11Z</time>
      </trkpt>
      <trkpt lat="45.88874" lon="4.66594">
        <ele>399</ele>
        <time>2018-02-04T10:51:15Z</time>
      </trkpt>
      <trkpt lat="45.88875" lon="4.66596">
        <ele>399</ele>
        <time>2018-02-04T10:51:16Z</time>
      </trkpt>
      <trkpt lat="45.8888" lon="4.66607">
        <ele>400</ele>
        <time>2018-02-04T10:51:21Z</time>
      </trkpt>
      <trkpt lat="45.88881" lon="4.66609">
        <ele>400</ele>
        <time>2018-02-04T10:51:22Z</time>
      </trkpt>
      <trkpt lat="45.88885" lon="4.66619">
        <ele>401</ele>
        <time>2018-02-04T10:51:27Z</time>
      </trkpt>
      <trkpt lat="45.88886" lon="4.66621">
        <ele>401</ele>
        <time>2018-02-04T10:51:28Z</time>
      </trkpt>
      <trkpt lat="45.88893" lon="4.6663">
        <ele>401</ele>
        <time>2018-02-04T10:51:33Z</time>
      </trkpt>
      <trkpt lat="45.88894" lon="4.66632">
        <ele>401</ele>
        <time>2018-02-04T10:51:34Z</time>
      </trkpt>
      <trkpt lat="45.889" lon="4.66642">
        <ele>402</ele>
        <time>2018-02-04T10:51:39Z</time>
      </trkpt>
      <trkpt lat="45.88901" lon="4.66643">
        <ele>402</ele>
        <time>2018-02-04T10:51:40Z</time>
      </trkpt>
      <trkpt lat="45.88908" lon="4.6665">
        <ele>403</ele>
        <time>2018-02-04T10:51:44Z</time>
      </trkpt>
      <trkpt lat="45.8891" lon="4.66652">
        <ele>403</ele>
        <time>2018-02-04T10:51:45Z</time>
      </trkpt>
      <trkpt lat="45.88916" lon="4.66658">
        <ele>404</ele>
        <time>2018-02-04T10:51:48Z</time>
      </trkpt>
      <trkpt lat="45.88918" lon="4.6666">
        <ele>404</ele>
        <time>2018-02-04T10:51:49Z</time>
      </trkpt>
      <trkpt lat="45.88925" lon="4.66665">
        <ele>404</ele>
        <time>2018-02-04T10:51:52Z</time>
      </trkpt>
      <trkpt lat="45.88927" lon="4.66667">
        <ele>407</ele>
        <time>2018-02-04T10:51:53Z</time>
      </trkpt>
      <trkpt lat="45.88932" lon="4.66672">
        <ele>408</ele>
        <time>2018-02-04T10:51:56Z</time>
      </trkpt>
      <trkpt lat="45.88934" lon="4.66674">
        <ele>408</ele>
        <time>2018-02-04T10:51:57Z</time>
      </trkpt>
      <trkpt lat="45.8894" lon="4.6668">
        <ele>408</ele>
        <time>2018-02-04T10:52:01Z</time>
      </trkpt>
      <trkpt lat="45.88942" lon="4.66681">
        <ele>408</ele>
        <time>2018-02-04T10:52:02Z</time>
      </trkpt>
      <trkpt lat="45.8895" lon="4.66685">
        <ele>409</ele>
        <time>2018-02-04T10:52:06Z</time>
      </trkpt>
      <trkpt lat="45.88952" lon="4.66686">
        <ele>409</ele>
        <time>2018-02-04T10:52:07Z</time>
      </trkpt>
      <trkpt lat="45.88959" lon="4.66689">
        <ele>409</ele>
        <time>2018-02-04T10:52:10Z</time>
      </trkpt>
      <trkpt lat="45.88962" lon="4.66691">
        <ele>409</ele>
        <time>2018-02-04T10:52:11Z</time>
      </trkpt>
      <trkpt lat="45.88969" lon="4.66696">
        <ele>409</ele>
        <time>2018-02-04T10:52:14Z</time>
      </trkpt>
      <trkpt lat="45.88971" lon="4.66696">
        <ele>409</ele>
        <time>2018-02-04T10:52:15Z</time>
      </trkpt>
      <trkpt lat="45.88978" lon="4.667">
        <ele>409</ele>
        <time>2018-02-04T10:52:18Z</time>
      </trkpt>
      <trkpt lat="45.88981" lon="4.66701">
        <ele>409</ele>
        <time>2018-02-04T10:52:19Z</time>
      </trkpt>
      <trkpt lat="45.88988" lon="4.66704">
        <ele>409</ele>
        <time>2018-02-04T10:52:22Z</time>
      </trkpt>
      <trkpt lat="45.8899" lon="4.66705">
        <ele>409</ele>
        <time>2018-02-04T10:52:23Z</time>
      </trkpt>
      <trkpt lat="45.88998" lon="4.66708">
        <ele>409</ele>
        <time>2018-02-04T10:52:26Z</time>
      </trkpt>
      <trkpt lat="45.89" lon="4.6671">
        <ele>409</ele>
        <time>2018-02-04T10:52:27Z</time>
      </trkpt>
      <trkpt lat="45.89007" lon="4.66713">
        <ele>407</ele>
        <time>2018-02-04T10:52:30Z</time>
      </trkpt>
      <trkpt lat="45.89009" lon="4.66714">
        <ele>407</ele>
        <time>2018-02-04T10:52:31Z</time>
      </trkpt>
      <trkpt lat="45.89016" lon="4.66716">
        <ele>407</ele>
        <time>2018-02-04T10:52:34Z</time>
      </trkpt>
      <trkpt lat="45.89019" lon="4.66717">
        <ele>407</ele>
        <time>2018-02-04T10:52:35Z</time>
      </trkpt>
      <trkpt lat="45.89026" lon="4.6672">
        <ele>407</ele>
        <time>2018-02-04T10:52:38Z</time>
      </trkpt>
      <trkpt lat="45.89028" lon="4.66721">
        <ele>407</ele>
        <time>2018-02-04T10:52:39Z</time>
      </trkpt>
      <trkpt lat="45.89036" lon="4.66725">
        <ele>407</ele>
        <time>2018-02-04T10:52:42Z</time>
      </trkpt>
      <trkpt lat="45.89038" lon="4.66725">
        <ele>407</ele>
        <time>2018-02-04T10:52:43Z</time>
      </trkpt>
      <trkpt lat="45.89045" lon="4.66728">
        <ele>407</ele>
        <time>2018-02-04T10:52:46Z</time>
      </trkpt>
      <trkpt lat="45.89047" lon="4.66729">
        <ele>407</ele>
        <time>2018-02-04T10:52:47Z</time>
      </trkpt>
      <trkpt lat="45.89053" lon="4.66732">
        <ele>407</ele>
        <time>2018-02-04T10:52:50Z</time>
      </trkpt>
      <trkpt lat="45.89055" lon="4.66733">
        <ele>407</ele>
        <time>2018-02-04T10:52:51Z</time>
      </trkpt>
      <trkpt lat="45.89062" lon="4.6674">
        <ele>407</ele>
        <time>2018-02-04T10:52:54Z</time>
      </trkpt>
      <trkpt lat="45.89063" lon="4.66742">
        <ele>407</ele>
        <time>2018-02-04T10:52:55Z</time>
      </trkpt>
      <trkpt lat="45.8907" lon="4.66749">
        <ele>408</ele>
        <time>2018-02-04T10:52:58Z</time>
      </trkpt>
      <trkpt lat="45.89072" lon="4.66752">
        <ele>411</ele>
        <time>2018-02-04T10:52:59Z</time>
      </trkpt>
      <trkpt lat="45.89077" lon="4.66757">
        <ele>411</ele>
        <time>2018-02-04T10:53:01Z</time>
      </trkpt>
      <trkpt lat="45.8908" lon="4.66759">
        <ele>411</ele>
        <time>2018-02-04T10:53:02Z</time>
      </trkpt>
      <trkpt lat="45.89086" lon="4.66768">
        <ele>409</ele>
        <time>2018-02-04T10:53:06Z</time>
      </trkpt>
      <trkpt lat="45.89088" lon="4.66769">
        <ele>409</ele>
        <time>2018-02-04T10:53:07Z</time>
      </trkpt>
      <trkpt lat="45.89095" lon="4.66775">
        <ele>410</ele>
        <time>2018-02-04T10:53:10Z</time>
      </trkpt>
      <trkpt lat="45.89098" lon="4.66778">
        <ele>410</ele>
        <time>2018-02-04T10:53:11Z</time>
      </trkpt>
      <trkpt lat="45.89105" lon="4.66782">
        <ele>410</ele>
        <time>2018-02-04T10:53:13Z</time>
      </trkpt>
      <trkpt lat="45.89109" lon="4.66784">
        <ele>410</ele>
        <time>2018-02-04T10:53:14Z</time>
      </trkpt>
      <trkpt lat="45.89114" lon="4.66791">
        <ele>410</ele>
        <time>2018-02-04T10:53:18Z</time>
      </trkpt>
      <trkpt lat="45.89115" lon="4.66793">
        <ele>410</ele>
        <time>2018-02-04T10:53:19Z</time>
      </trkpt>
      <trkpt lat="45.89121" lon="4.66795">
        <ele>410</ele>
        <time>2018-02-04T10:53:22Z</time>
      </trkpt>
      <trkpt lat="45.89124" lon="4.66797">
        <ele>410</ele>
        <time>2018-02-04T10:53:23Z</time>
      </trkpt>
      <trkpt lat="45.89127" lon="4.66807">
        <ele>411</ele>
        <time>2018-02-04T10:53:26Z</time>
      </trkpt>
      <trkpt lat="45.89126" lon="4.6681">
        <ele>411</ele>
        <time>2018-02-04T10:53:27Z</time>
      </trkpt>
      <trkpt lat="45.89121" lon="4.66821">
        <ele>411</ele>
        <time>2018-02-04T10:53:38Z</time>
      </trkpt>
      <trkpt lat="45.89121" lon="4.66821">
        <ele>411</ele>
        <time>2018-02-04T10:53:39Z</time>
      </trkpt>
      <trkpt lat="45.89121" lon="4.66818">
        <ele>411</ele>
        <time>2018-02-04T11:00:31Z</time>
      </trkpt>
      <trkpt lat="45.89121" lon="4.66818">
        <ele>411</ele>
        <time>2018-02-04T11:00:32Z</time>
      </trkpt>
      <trkpt lat="45.8912" lon="4.6682">
        <ele>411</ele>
        <time>2018-02-04T11:00:46Z</time>
      </trkpt>
      <trkpt lat="45.8912" lon="4.6682">
        <ele>411</ele>
        <time>2018-02-04T11:00:47Z</time>
      </trkpt>
      <trkpt lat="45.89114" lon="4.66828">
        <ele>412</ele>
        <time>2018-02-04T11:03:32Z</time>
      </trkpt>
      <trkpt lat="45.89113" lon="4.66828">
        <ele>412</ele>
        <time>2018-02-04T11:03:33Z</time>
      </trkpt>
      <trkpt lat="45.89105" lon="4.66833">
        <ele>412</ele>
        <time>2018-02-04T11:03:49Z</time>
      </trkpt>
      <trkpt lat="45.89104" lon="4.66833">
        <ele>415</ele>
        <time>2018-02-04T11:03:50Z</time>
      </trkpt>
      <trkpt lat="45.89105" lon="4.66842">
        <ele>414</ele>
        <time>2018-02-04T11:05:13Z</time>
      </trkpt>
      <trkpt lat="45.89105" lon="4.66842">
        <ele>414</ele>
        <time>2018-02-04T11:05:14Z</time>
      </trkpt>
      <trkpt lat="45.89104" lon="4.66842">
        <ele>415</ele>
        <time>2018-02-04T11:05:15Z</time>
      </trkpt>
      <trkpt lat="45.89101" lon="4.6684">
        <ele>415</ele>
        <time>2018-02-04T11:05:21Z</time>
      </trkpt>
      <trkpt lat="45.89101" lon="4.6684">
        <ele>415</ele>
        <time>2018-02-04T11:05:22Z</time>
      </trkpt>
      <trkpt lat="45.89102" lon="4.6684">
        <ele>415</ele>
        <time>2018-02-04T11:05:23Z</time>
      </trkpt>
      <trkpt lat="45.89102" lon="4.66841">
        <ele>415</ele>
        <time>2018-02-04T11:05:24Z</time>
      </trkpt>
      <trkpt lat="45.89102" lon="4.66841">
        <ele>415</ele>
        <time>2018-02-04T11:05:25Z</time>
      </trkpt>
      <trkpt lat="45.89102" lon="4.66841">
        <ele>415</ele>
        <time>2018-02-04T11:05:32Z</time>
      </trkpt>
      <trkpt lat="45.89103" lon="4.6684">
        <ele>415</ele>
        <time>2018-02-04T11:05:33Z</time>
      </trkpt>
      <trkpt lat="45.89107" lon="4.66832">
        <ele>412</ele>
        <time>2018-02-04T11:05:49Z</time>
      </trkpt>
      <trkpt lat="45.89107" lon="4.66831">
        <ele>412</ele>
        <time>2018-02-04T11:05:50Z</time>
      </trkpt>
      <trkpt lat="45.89111" lon="4.66828">
        <ele>412</ele>
        <time>2018-02-04T11:05:53Z</time>
      </trkpt>
      <trkpt lat="45.89111" lon="4.66828">
        <ele>412</ele>
        <time>2018-02-04T11:05:54Z</time>
      </trkpt>
      <trkpt lat="45.89116" lon="4.66833">
        <ele>412</ele>
        <time>2018-02-04T11:06:41Z</time>
      </trkpt>
      <trkpt lat="45.89117" lon="4.66833">
        <ele>412</ele>
        <time>2018-02-04T11:06:42Z</time>
      </trkpt>
      <trkpt lat="45.89118" lon="4.66835">
        <ele>414</ele>
        <time>2018-02-04T11:06:45Z</time>
      </trkpt>
      <trkpt lat="45.89118" lon="4.66835">
        <ele>414</ele>
        <time>2018-02-04T11:06:46Z</time>
      </trkpt>
      <trkpt lat="45.89125" lon="4.66828">
        <ele>411</ele>
        <time>2018-02-04T11:06:59Z</time>
      </trkpt>
      <trkpt lat="45.89128" lon="4.66828">
        <ele>411</ele>
        <time>2018-02-04T11:07:00Z</time>
      </trkpt>
      <trkpt lat="45.89135" lon="4.6683">
        <ele>411</ele>
        <time>2018-02-04T11:07:02Z</time>
      </trkpt>
      <trkpt lat="45.89138" lon="4.66832">
        <ele>412</ele>
        <time>2018-02-04T11:07:03Z</time>
      </trkpt>
      <trkpt lat="45.89145" lon="4.66836">
        <ele>414</ele>
        <time>2018-02-04T11:07:05Z</time>
      </trkpt>
      <trkpt lat="45.89147" lon="4.6684">
        <ele>414</ele>
        <time>2018-02-04T11:07:06Z</time>
      </trkpt>
      <trkpt lat="45.8915" lon="4.66851">
        <ele>414</ele>
        <time>2018-02-04T11:07:09Z</time>
      </trkpt>
      <trkpt lat="45.8915" lon="4.66855">
        <ele>414</ele>
        <time>2018-02-04T11:07:10Z</time>
      </trkpt>
      <trkpt lat="45.89149" lon="4.66867">
        <ele>414</ele>
        <time>2018-02-04T11:07:13Z</time>
      </trkpt>
      <trkpt lat="45.89148" lon="4.66871">
        <ele>414</ele>
        <time>2018-02-04T11:07:14Z</time>
      </trkpt>
      <trkpt lat="45.89147" lon="4.66881">
        <ele>414</ele>
        <time>2018-02-04T11:07:16Z</time>
      </trkpt>
      <trkpt lat="45.89148" lon="4.66885">
        <ele>414</ele>
        <time>2018-02-04T11:07:17Z</time>
      </trkpt>
      <trkpt lat="45.89149" lon="4.66895">
        <ele>414</ele>
        <time>2018-02-04T11:07:19Z</time>
      </trkpt>
      <trkpt lat="45.8915" lon="4.66899">
        <ele>414</ele>
        <time>2018-02-04T11:07:20Z</time>
      </trkpt>
      <trkpt lat="45.89152" lon="4.66909">
        <ele>415</ele>
        <time>2018-02-04T11:07:22Z</time>
      </trkpt>
      <trkpt lat="45.89154" lon="4.66913">
        <ele>415</ele>
        <time>2018-02-04T11:07:23Z</time>
      </trkpt>
      <trkpt lat="45.89157" lon="4.66922">
        <ele>414</ele>
        <time>2018-02-04T11:07:25Z</time>
      </trkpt>
      <trkpt lat="45.89159" lon="4.66926">
        <ele>414</ele>
        <time>2018-02-04T11:07:26Z</time>
      </trkpt>
      <trkpt lat="45.89162" lon="4.66935">
        <ele>413</ele>
        <time>2018-02-04T11:07:28Z</time>
      </trkpt>
      <trkpt lat="45.89164" lon="4.6694">
        <ele>413</ele>
        <time>2018-02-04T11:07:29Z</time>
      </trkpt>
      <trkpt lat="45.89167" lon="4.6695">
        <ele>415</ele>
        <time>2018-02-04T11:07:31Z</time>
      </trkpt>
      <trkpt lat="45.89169" lon="4.66955">
        <ele>415</ele>
        <time>2018-02-04T11:07:32Z</time>
      </trkpt>
      <trkpt lat="45.89172" lon="4.66965">
        <ele>415</ele>
        <time>2018-02-04T11:07:34Z</time>
      </trkpt>
      <trkpt lat="45.89174" lon="4.6697">
        <ele>415</ele>
        <time>2018-02-04T11:07:35Z</time>
      </trkpt>
      <trkpt lat="45.89176" lon="4.66981">
        <ele>414</ele>
        <time>2018-02-04T11:07:37Z</time>
      </trkpt>
      <trkpt lat="45.89177" lon="4.66987">
        <ele>414</ele>
        <time>2018-02-04T11:07:38Z</time>
      </trkpt>
      <trkpt lat="45.89179" lon="4.66998">
        <ele>413</ele>
        <time>2018-02-04T11:07:40Z</time>
      </trkpt>
      <trkpt lat="45.8918" lon="4.67004">
        <ele>412</ele>
        <time>2018-02-04T11:07:41Z</time>
      </trkpt>
      <trkpt lat="45.89182" lon="4.67014">
        <ele>412</ele>
        <time>2018-02-04T11:07:43Z</time>
      </trkpt>
      <trkpt lat="45.89184" lon="4.67019">
        <ele>412</ele>
        <time>2018-02-04T11:07:44Z</time>
      </trkpt>
      <trkpt lat="45.89187" lon="4.67031">
        <ele>412</ele>
        <time>2018-02-04T11:07:46Z</time>
      </trkpt>
      <trkpt lat="45.89189" lon="4.67038">
        <ele>412</ele>
        <time>2018-02-04T11:07:47Z</time>
      </trkpt>
      <trkpt lat="45.89192" lon="4.6705">
        <ele>412</ele>
        <time>2018-02-04T11:07:49Z</time>
      </trkpt>
      <trkpt lat="45.89194" lon="4.67056">
        <ele>412</ele>
        <time>2018-02-04T11:07:50Z</time>
      </trkpt>
      <trkpt lat="45.89195" lon="4.67062">
        <ele>412</ele>
        <time>2018-02-04T11:07:51Z</time>
      </trkpt>
      <trkpt lat="45.89197" lon="4.67068">
        <ele>412</ele>
        <time>2018-02-04T11:07:52Z</time>
      </trkpt>
      <trkpt lat="45.892" lon="4.67073">
        <ele>412</ele>
        <time>2018-02-04T11:07:53Z</time>
      </trkpt>
      <trkpt lat="45.89202" lon="4.67079">
        <ele>412</ele>
        <time>2018-02-04T11:07:54Z</time>
      </trkpt>
      <trkpt lat="45.89204" lon="4.67085">
        <ele>410</ele>
        <time>2018-02-04T11:07:55Z</time>
      </trkpt>
      <trkpt lat="45.89207" lon="4.67092">
        <ele>410</ele>
        <time>2018-02-04T11:07:56Z</time>
      </trkpt>
      <trkpt lat="45.89209" lon="4.67098">
        <ele>410</ele>
        <time>2018-02-04T11:07:57Z</time>
      </trkpt>
      <trkpt lat="45.89212" lon="4.67104">
        <ele>410</ele>
        <time>2018-02-04T11:07:58Z</time>
      </trkpt>
      <trkpt lat="45.89216" lon="4.67109">
        <ele>410</ele>
        <time>2018-02-04T11:07:59Z</time>
      </trkpt>
      <trkpt lat="45.89219" lon="4.67116">
        <ele>410</ele>
        <time>2018-02-04T11:08:00Z</time>
      </trkpt>
      <trkpt lat="45.89222" lon="4.67122">
        <ele>410</ele>
        <time>2018-02-04T11:08:01Z</time>
      </trkpt>
      <trkpt lat="45.89225" lon="4.67128">
        <ele>410</ele>
        <time>2018-02-04T11:08:02Z</time>
      </trkpt>
      <trkpt lat="45.89229" lon="4.67135">
        <ele>411</ele>
        <time>2018-02-04T11:08:03Z</time>
      </trkpt>
      <trkpt lat="45.89232" lon="4.67141">
        <ele>411</ele>
        <time>2018-02-04T11:08:04Z</time>
      </trkpt>
      <trkpt lat="45.89235" lon="4.67147">
        <ele>411</ele>
        <time>2018-02-04T11:08:05Z</time>
      </trkpt>
      <trkpt lat="45.89237" lon="4.67151">
        <ele>411</ele>
        <time>2018-02-04T11:08:06Z</time>
      </trkpt>
      <trkpt lat="45.89242" lon="4.67155">
        <ele>412</ele>
        <time>2018-02-04T11:08:07Z</time>
      </trkpt>
      <trkpt lat="45.89247" lon="4.67161">
        <ele>412</ele>
        <time>2018-02-04T11:08:08Z</time>
      </trkpt>
      <trkpt lat="45.89253" lon="4.67166">
        <ele>414</ele>
        <time>2018-02-04T11:08:09Z</time>
      </trkpt>
      <trkpt lat="45.89256" lon="4.67171">
        <ele>412</ele>
        <time>2018-02-04T11:08:10Z</time>
      </trkpt>
      <trkpt lat="45.8926" lon="4.67175">
        <ele>412</ele>
        <time>2018-02-04T11:08:11Z</time>
      </trkpt>
      <trkpt lat="45.89264" lon="4.6718">
        <ele>412</ele>
        <time>2018-02-04T11:08:12Z</time>
      </trkpt>
      <trkpt lat="45.89268" lon="4.67183">
        <ele>412</ele>
        <time>2018-02-04T11:08:13Z</time>
      </trkpt>
      <trkpt lat="45.89273" lon="4.67187">
        <ele>412</ele>
        <time>2018-02-04T11:08:14Z</time>
      </trkpt>
      <trkpt lat="45.89277" lon="4.6719">
        <ele>412</ele>
        <time>2018-02-04T11:08:15Z</time>
      </trkpt>
      <trkpt lat="45.89282" lon="4.67193">
        <ele>412</ele>
        <time>2018-02-04T11:08:16Z</time>
      </trkpt>
      <trkpt lat="45.89289" lon="4.67195">
        <ele>412</ele>
        <time>2018-02-04T11:08:17Z</time>
      </trkpt>
      <trkpt lat="45.89294" lon="4.67198">
        <ele>412</ele>
        <time>2018-02-04T11:08:18Z</time>
      </trkpt>
      <trkpt lat="45.89299" lon="4.67202">
        <ele>412</ele>
        <time>2018-02-04T11:08:19Z</time>
      </trkpt>
      <trkpt lat="45.89304" lon="4.67205">
        <ele>411</ele>
        <time>2018-02-04T11:08:20Z</time>
      </trkpt>
      <trkpt lat="45.89309" lon="4.67208">
        <ele>411</ele>
        <time>2018-02-04T11:08:21Z</time>
      </trkpt>
      <trkpt lat="45.89315" lon="4.6721">
        <ele>411</ele>
        <time>2018-02-04T11:08:22Z</time>
      </trkpt>
      <trkpt lat="45.8932" lon="4.67212">
        <ele>411</ele>
        <time>2018-02-04T11:08:23Z</time>
      </trkpt>
      <trkpt lat="45.89325" lon="4.67215">
        <ele>411</ele>
        <time>2018-02-04T11:08:24Z</time>
      </trkpt>
      <trkpt lat="45.89333" lon="4.67216">
        <ele>411</ele>
        <time>2018-02-04T11:08:25Z</time>
      </trkpt>
      <trkpt lat="45.89337" lon="4.67219">
        <ele>415</ele>
        <time>2018-02-04T11:08:26Z</time>
      </trkpt>
      <trkpt lat="45.89342" lon="4.67222">
        <ele>415</ele>
        <time>2018-02-04T11:08:27Z</time>
      </trkpt>
      <trkpt lat="45.89348" lon="4.67227">
        <ele>415</ele>
        <time>2018-02-04T11:08:28Z</time>
      </trkpt>
      <trkpt lat="45.89352" lon="4.67232">
        <ele>414</ele>
        <time>2018-02-04T11:08:29Z</time>
      </trkpt>
      <trkpt lat="45.89355" lon="4.67238">
        <ele>414</ele>
        <time>2018-02-04T11:08:30Z</time>
      </trkpt>
      <trkpt lat="45.89359" lon="4.67243">
        <ele>414</ele>
        <time>2018-02-04T11:08:31Z</time>
      </trkpt>
      <trkpt lat="45.89363" lon="4.6725">
        <ele>415</ele>
        <time>2018-02-04T11:08:32Z</time>
      </trkpt>
      <trkpt lat="45.89367" lon="4.67256">
        <ele>409</ele>
        <time>2018-02-04T11:08:33Z</time>
      </trkpt>
      <trkpt lat="45.89371" lon="4.67264">
        <ele>409</ele>
        <time>2018-02-04T11:08:34Z</time>
      </trkpt>
      <trkpt lat="45.89375" lon="4.67272">
        <ele>409</ele>
        <time>2018-02-04T11:08:35Z</time>
      </trkpt>
      <trkpt lat="45.89379" lon="4.67279">
        <ele>408</ele>
        <time>2018-02-04T11:08:36Z</time>
      </trkpt>
      <trkpt lat="45.89382" lon="4.67287">
        <ele>408</ele>
        <time>2018-02-04T11:08:37Z</time>
      </trkpt>
      <trkpt lat="45.89386" lon="4.67293">
        <ele>408</ele>
        <time>2018-02-04T11:08:38Z</time>
      </trkpt>
      <trkpt lat="45.8939" lon="4.67299">
        <ele>408</ele>
        <time>2018-02-04T11:08:39Z</time>
      </trkpt>
      <trkpt lat="45.89395" lon="4.67306">
        <ele>408</ele>
        <time>2018-02-04T11:08:40Z</time>
      </trkpt>
      <trkpt lat="45.89399" lon="4.67312">
        <ele>407</ele>
        <time>2018-02-04T11:08:41Z</time>
      </trkpt>
      <trkpt lat="45.89405" lon="4.67319">
        <ele>407</ele>
        <time>2018-02-04T11:08:42Z</time>
      </trkpt>
      <trkpt lat="45.89409" lon="4.67326">
        <ele>407</ele>
        <time>2018-02-04T11:08:43Z</time>
      </trkpt>
      <trkpt lat="45.89412" lon="4.67333">
        <ele>407</ele>
        <time>2018-02-04T11:08:44Z</time>
      </trkpt>
      <trkpt lat="45.89417" lon="4.6734">
        <ele>407</ele>
        <time>2018-02-04T11:08:45Z</time>
      </trkpt>
      <trkpt lat="45.89422" lon="4.67344">
        <ele>407</ele>
        <time>2018-02-04T11:08:46Z</time>
      </trkpt>
      <trkpt lat="45.89428" lon="4.67351">
        <ele>407</ele>
        <time>2018-02-04T11:08:47Z</time>
      </trkpt>
      <trkpt lat="45.89435" lon="4.67357">
        <ele>407</ele>
        <time>2018-02-04T11:08:48Z</time>
      </trkpt>
      <trkpt lat="45.89442" lon="4.67363">
        <ele>407</ele>
        <time>2018-02-04T11:08:49Z</time>
      </trkpt>
      <trkpt lat="45.89448" lon="4.67369">
        <ele>407</ele>
        <time>2018-02-04T11:08:50Z</time>
      </trkpt>
      <trkpt lat="45.89454" lon="4.67375">
        <ele>407</ele>
        <time>2018-02-04T11:08:51Z</time>
      </trkpt>
      <trkpt lat="45.89461" lon="4.67381">
        <ele>407</ele>
        <time>2018-02-04T11:08:52Z</time>
      </trkpt>
      <trkpt lat="45.89468" lon="4.67387">
        <ele>407</ele>
        <time>2018-02-04T11:08:53Z</time>
      </trkpt>
      <trkpt lat="45.89474" lon="4.67392">
        <ele>406</ele>
        <time>2018-02-04T11:08:54Z</time>
      </trkpt>
      <trkpt lat="45.89481" lon="4.67397">
        <ele>406</ele>
        <time>2018-02-04T11:08:55Z</time>
      </trkpt>
      <trkpt lat="45.89488" lon="4.67402">
        <ele>406</ele>
        <time>2018-02-04T11:08:56Z</time>
      </trkpt>
      <trkpt lat="45.89495" lon="4.67407">
        <ele>405</ele>
        <time>2018-02-04T11:08:57Z</time>
      </trkpt>
      <trkpt lat="45.89501" lon="4.67412">
        <ele>406</ele>
        <time>2018-02-04T11:08:58Z</time>
      </trkpt>
      <trkpt lat="45.89506" lon="4.67417">
        <ele>403</ele>
        <time>2018-02-04T11:08:59Z</time>
      </trkpt>
      <trkpt lat="45.89513" lon="4.67421">
        <ele>402</ele>
        <time>2018-02-04T11:09:00Z</time>
      </trkpt>
      <trkpt lat="45.89521" lon="4.67425">
        <ele>402</ele>
        <time>2018-02-04T11:09:01Z</time>
      </trkpt>
      <trkpt lat="45.89528" lon="4.67428">
        <ele>402</ele>
        <time>2018-02-04T11:09:02Z</time>
      </trkpt>
      <trkpt lat="45.89535" lon="4.67432">
        <ele>402</ele>
        <time>2018-02-04T11:09:03Z</time>
      </trkpt>
      <trkpt lat="45.89543" lon="4.67435">
        <ele>402</ele>
        <time>2018-02-04T11:09:04Z</time>
      </trkpt>
      <trkpt lat="45.89551" lon="4.67438">
        <ele>402</ele>
        <time>2018-02-04T11:09:05Z</time>
      </trkpt>
      <trkpt lat="45.89558" lon="4.6744">
        <ele>402</ele>
        <time>2018-02-04T11:09:06Z</time>
      </trkpt>
      <trkpt lat="45.89569" lon="4.6744">
        <ele>403</ele>
        <time>2018-02-04T11:09:07Z</time>
      </trkpt>
      <trkpt lat="45.89578" lon="4.67443">
        <ele>403</ele>
        <time>2018-02-04T11:09:08Z</time>
      </trkpt>
      <trkpt lat="45.89585" lon="4.67445">
        <ele>404</ele>
        <time>2018-02-04T11:09:09Z</time>
      </trkpt>
      <trkpt lat="45.89595" lon="4.67446">
        <ele>404</ele>
        <time>2018-02-04T11:09:10Z</time>
      </trkpt>
      <trkpt lat="45.89602" lon="4.67447">
        <ele>404</ele>
        <time>2018-02-04T11:09:11Z</time>
      </trkpt>
      <trkpt lat="45.89608" lon="4.67451">
        <ele>404</ele>
        <time>2018-02-04T11:09:12Z</time>
      </trkpt>
      <trkpt lat="45.89616" lon="4.67453">
        <ele>404</ele>
        <time>2018-02-04T11:09:13Z</time>
      </trkpt>
      <trkpt lat="45.89622" lon="4.67455">
        <ele>403</ele>
        <time>2018-02-04T11:09:14Z</time>
      </trkpt>
      <trkpt lat="45.89629" lon="4.67458">
        <ele>403</ele>
        <time>2018-02-04T11:09:15Z</time>
      </trkpt>
      <trkpt lat="45.89636" lon="4.67461">
        <ele>403</ele>
        <time>2018-02-04T11:09:16Z</time>
      </trkpt>
      <trkpt lat="45.89642" lon="4.67464">
        <ele>403</ele>
        <time>2018-02-04T11:09:17Z</time>
      </trkpt>
      <trkpt lat="45.89649" lon="4.67467">
        <ele>403</ele>
        <time>2018-02-04T11:09:18Z</time>
      </trkpt>
      <trkpt lat="45.89655" lon="4.67469">
        <ele>403</ele>
        <time>2018-02-04T11:09:19Z</time>
      </trkpt>
      <trkpt lat="45.89662" lon="4.67471">
        <ele>402</ele>
        <time>2018-02-04T11:09:20Z</time>
      </trkpt>
      <trkpt lat="45.89669" lon="4.67474">
        <ele>402</ele>
        <time>2018-02-04T11:09:21Z</time>
      </trkpt>
      <trkpt lat="45.89676" lon="4.67477">
        <ele>402</ele>
        <time>2018-02-04T11:09:22Z</time>
      </trkpt>
      <trkpt lat="45.89683" lon="4.6748">
        <ele>402</ele>
        <time>2018-02-04T11:09:23Z</time>
      </trkpt>
      <trkpt lat="45.8969" lon="4.67483">
        <ele>402</ele>
        <time>2018-02-04T11:09:24Z</time>
      </trkpt>
      <trkpt lat="45.89698" lon="4.67487">
        <ele>402</ele>
        <time>2018-02-04T11:09:25Z</time>
      </trkpt>
      <trkpt lat="45.89706" lon="4.67489">
        <ele>402</ele>
        <time>2018-02-04T11:09:26Z</time>
      </trkpt>
      <trkpt lat="45.89714" lon="4.67492">
        <ele>402</ele>
        <time>2018-02-04T11:09:27Z</time>
      </trkpt>
      <trkpt lat="45.89721" lon="4.67495">
        <ele>402</ele>
        <time>2018-02-04T11:09:28Z</time>
      </trkpt>
      <trkpt lat="45.89729" lon="4.67496">
        <ele>401</ele>
        <time>2018-02-04T11:09:29Z</time>
      </trkpt>
      <trkpt lat="45.89737" lon="4.67497">
        <ele>401</ele>
        <time>2018-02-04T11:09:30Z</time>
      </trkpt>
      <trkpt lat="45.89744" lon="4.67497">
        <ele>400</ele>
        <time>2018-02-04T11:09:31Z</time>
      </trkpt>
      <trkpt lat="45.89752" lon="4.67495">
        <ele>399</ele>
        <time>2018-02-04T11:09:32Z</time>
      </trkpt>
      <trkpt lat="45.8976" lon="4.67495">
        <ele>399</ele>
        <time>2018-02-04T11:09:33Z</time>
      </trkpt>
      <trkpt lat="45.89766" lon="4.67495">
        <ele>399</ele>
        <time>2018-02-04T11:09:34Z</time>
      </trkpt>
      <trkpt lat="45.89774" lon="4.67493">
        <ele>399</ele>
        <time>2018-02-04T11:09:35Z</time>
      </trkpt>
      <trkpt lat="45.89781" lon="4.67491">
        <ele>399</ele>
        <time>2018-02-04T11:09:36Z</time>
      </trkpt>
      <trkpt lat="45.89789" lon="4.67489">
        <ele>399</ele>
        <time>2018-02-04T11:09:37Z</time>
      </trkpt>
      <trkpt lat="45.89796" lon="4.67484">
        <ele>399</ele>
        <time>2018-02-04T11:09:38Z</time>
      </trkpt>
      <trkpt lat="45.89802" lon="4.67476">
        <ele>399</ele>
        <time>2018-02-04T11:09:39Z</time>
      </trkpt>
      <trkpt lat="45.89807" lon="4.67467">
        <ele>399</ele>
        <time>2018-02-04T11:09:40Z</time>
      </trkpt>
      <trkpt lat="45.8981" lon="4.67457">
        <ele>399</ele>
        <time>2018-02-04T11:09:41Z</time>
      </trkpt>
      <trkpt lat="45.89813" lon="4.67445">
        <ele>399</ele>
        <time>2018-02-04T11:09:42Z</time>
      </trkpt>
      <trkpt lat="45.89814" lon="4.67434">
        <ele>399</ele>
        <time>2018-02-04T11:09:43Z</time>
      </trkpt>
      <trkpt lat="45.89816" lon="4.67423">
        <ele>399</ele>
        <time>2018-02-04T11:09:44Z</time>
      </trkpt>
      <trkpt lat="45.89818" lon="4.67412">
        <ele>401</ele>
        <time>2018-02-04T11:09:45Z</time>
      </trkpt>
      <trkpt lat="45.8982" lon="4.67401">
        <ele>402</ele>
        <time>2018-02-04T11:09:46Z</time>
      </trkpt>
      <trkpt lat="45.89825" lon="4.67389">
        <ele>403</ele>
        <time>2018-02-04T11:09:47Z</time>
      </trkpt>
      <trkpt lat="45.89829" lon="4.6738">
        <ele>404</ele>
        <time>2018-02-04T11:09:48Z</time>
      </trkpt>
      <trkpt lat="45.89835" lon="4.67372">
        <ele>399</ele>
        <time>2018-02-04T11:09:49Z</time>
      </trkpt>
      <trkpt lat="45.89842" lon="4.67365">
        <ele>399</ele>
        <time>2018-02-04T11:09:50Z</time>
      </trkpt>
      <trkpt lat="45.8985" lon="4.67358">
        <ele>399</ele>
        <time>2018-02-04T11:09:51Z</time>
      </trkpt>
      <trkpt lat="45.89856" lon="4.67355">
        <ele>399</ele>
        <time>2018-02-04T11:09:52Z</time>
      </trkpt>
      <trkpt lat="45.89864" lon="4.67352">
        <ele>399</ele>
        <time>2018-02-04T11:09:53Z</time>
      </trkpt>
      <trkpt lat="45.89872" lon="4.67351">
        <ele>399</ele>
        <time>2018-02-04T11:09:54Z</time>
      </trkpt>
      <trkpt lat="45.89879" lon="4.67351">
        <ele>398</ele>
        <time>2018-02-04T11:09:55Z</time>
      </trkpt>
      <trkpt lat="45.89888" lon="4.67353">
        <ele>398</ele>
        <time>2018-02-04T11:09:56Z</time>
      </trkpt>
      <trkpt lat="45.89899" lon="4.67354">
        <ele>398</ele>
        <time>2018-02-04T11:09:57Z</time>
      </trkpt>
      <trkpt lat="45.89907" lon="4.67357">
        <ele>398</ele>
        <time>2018-02-04T11:09:58Z</time>
      </trkpt>
      <trkpt lat="45.89917" lon="4.67358">
        <ele>397</ele>
        <time>2018-02-04T11:09:59Z</time>
      </trkpt>
      <trkpt lat="45.89926" lon="4.6736">
        <ele>395</ele>
        <time>2018-02-04T11:10:00Z</time>
      </trkpt>
      <trkpt lat="45.89935" lon="4.67363">
        <ele>395</ele>
        <time>2018-02-04T11:10:01Z</time>
      </trkpt>
      <trkpt lat="45.89944" lon="4.67366">
        <ele>394</ele>
        <time>2018-02-04T11:10:02Z</time>
      </trkpt>
      <trkpt lat="45.89952" lon="4.67369">
        <ele>394</ele>
        <time>2018-02-04T11:10:03Z</time>
      </trkpt>
      <trkpt lat="45.89962" lon="4.67372">
        <ele>394</ele>
        <time>2018-02-04T11:10:04Z</time>
      </trkpt>
      <trkpt lat="45.89971" lon="4.67375">
        <ele>394</ele>
        <time>2018-02-04T11:10:05Z</time>
      </trkpt>
      <trkpt lat="45.89981" lon="4.67378">
        <ele>393</ele>
        <time>2018-02-04T11:10:06Z</time>
      </trkpt>
      <trkpt lat="45.8999" lon="4.67382">
        <ele>393</ele>
        <time>2018-02-04T11:10:07Z</time>
      </trkpt>
      <trkpt lat="45.89999" lon="4.67388">
        <ele>392</ele>
        <time>2018-02-04T11:10:08Z</time>
      </trkpt>
      <trkpt lat="45.90006" lon="4.67394">
        <ele>393</ele>
        <time>2018-02-04T11:10:09Z</time>
      </trkpt>
      <trkpt lat="45.90015" lon="4.67399">
        <ele>393</ele>
        <time>2018-02-04T11:10:10Z</time>
      </trkpt>
      <trkpt lat="45.90023" lon="4.67405">
        <ele>394</ele>
        <time>2018-02-04T11:10:11Z</time>
      </trkpt>
      <trkpt lat="45.9003" lon="4.67411">
        <ele>394</ele>
        <time>2018-02-04T11:10:12Z</time>
      </trkpt>
      <trkpt lat="45.90036" lon="4.67419">
        <ele>384</ele>
        <time>2018-02-04T11:10:13Z</time>
      </trkpt>
      <trkpt lat="45.90042" lon="4.67428">
        <ele>384</ele>
        <time>2018-02-04T11:10:14Z</time>
      </trkpt>
      <trkpt lat="45.9005" lon="4.67435">
        <ele>385</ele>
        <time>2018-02-04T11:10:15Z</time>
      </trkpt>
      <trkpt lat="45.90057" lon="4.67446">
        <ele>384</ele>
        <time>2018-02-04T11:10:16Z</time>
      </trkpt>
      <trkpt lat="45.90064" lon="4.67451">
        <ele>384</ele>
        <time>2018-02-04T11:10:17Z</time>
      </trkpt>
      <trkpt lat="45.9007" lon="4.6746">
        <ele>383</ele>
        <time>2018-02-04T11:10:18Z</time>
      </trkpt>
      <trkpt lat="45.90077" lon="4.67468">
        <ele>382</ele>
        <time>2018-02-04T11:10:19Z</time>
      </trkpt>
      <trkpt lat="45.90083" lon="4.67476">
        <ele>380</ele>
        <time>2018-02-04T11:10:20Z</time>
      </trkpt>
      <trkpt lat="45.9009" lon="4.67484">
        <ele>383</ele>
        <time>2018-02-04T11:10:21Z</time>
      </trkpt>
      <trkpt lat="45.90095" lon="4.67492">
        <ele>382</ele>
        <time>2018-02-04T11:10:22Z</time>
      </trkpt>
      <trkpt lat="45.90103" lon="4.67501">
        <ele>377</ele>
        <time>2018-02-04T11:10:23Z</time>
      </trkpt>
      <trkpt lat="45.90107" lon="4.67512">
        <ele>377</ele>
        <time>2018-02-04T11:10:24Z</time>
      </trkpt>
      <trkpt lat="45.90114" lon="4.6752">
        <ele>377</ele>
        <time>2018-02-04T11:10:25Z</time>
      </trkpt>
      <trkpt lat="45.90122" lon="4.67529">
        <ele>377</ele>
        <time>2018-02-04T11:10:26Z</time>
      </trkpt>
      <trkpt lat="45.90126" lon="4.67539">
        <ele>377</ele>
        <time>2018-02-04T11:10:27Z</time>
      </trkpt>
      <trkpt lat="45.90132" lon="4.67549">
        <ele>376</ele>
        <time>2018-02-04T11:10:28Z</time>
      </trkpt>
      <trkpt lat="45.90137" lon="4.67559">
        <ele>376</ele>
        <time>2018-02-04T11:10:29Z</time>
      </trkpt>
      <trkpt lat="45.90143" lon="4.67568">
        <ele>376</ele>
        <time>2018-02-04T11:10:30Z</time>
      </trkpt>
      <trkpt lat="45.90148" lon="4.67578">
        <ele>376</ele>
        <time>2018-02-04T11:10:31Z</time>
      </trkpt>
      <trkpt lat="45.90156" lon="4.67586">
        <ele>373</ele>
        <time>2018-02-04T11:10:32Z</time>
      </trkpt>
      <trkpt lat="45.90162" lon="4.67594">
        <ele>373</ele>
        <time>2018-02-04T11:10:33Z</time>
      </trkpt>
      <trkpt lat="45.90168" lon="4.67601">
        <ele>376</ele>
        <time>2018-02-04T11:10:34Z</time>
      </trkpt>
      <trkpt lat="45.90175" lon="4.67609">
        <ele>376</ele>
        <time>2018-02-04T11:10:35Z</time>
      </trkpt>
      <trkpt lat="45.90182" lon="4.67617">
        <ele>375</ele>
        <time>2018-02-04T11:10:36Z</time>
      </trkpt>
      <trkpt lat="45.90189" lon="4.67624">
        <ele>375</ele>
        <time>2018-02-04T11:10:37Z</time>
      </trkpt>
      <trkpt lat="45.90196" lon="4.67631">
        <ele>375</ele>
        <time>2018-02-04T11:10:38Z</time>
      </trkpt>
      <trkpt lat="45.90203" lon="4.67637">
        <ele>375</ele>
        <time>2018-02-04T11:10:39Z</time>
      </trkpt>
      <trkpt lat="45.9021" lon="4.67645">
        <ele>375</ele>
        <time>2018-02-04T11:10:40Z</time>
      </trkpt>
      <trkpt lat="45.90216" lon="4.67653">
        <ele>375</ele>
        <time>2018-02-04T11:10:41Z</time>
      </trkpt>
      <trkpt lat="45.90222" lon="4.6766">
        <ele>375</ele>
        <time>2018-02-04T11:10:42Z</time>
      </trkpt>
      <trkpt lat="45.90229" lon="4.67667">
        <ele>375</ele>
        <time>2018-02-04T11:10:43Z</time>
      </trkpt>
      <trkpt lat="45.90236" lon="4.67672">
        <ele>373</ele>
        <time>2018-02-04T11:10:44Z</time>
      </trkpt>
      <trkpt lat="45.90244" lon="4.67677">
        <ele>373</ele>
        <time>2018-02-04T11:10:45Z</time>
      </trkpt>
      <trkpt lat="45.90251" lon="4.67681">
        <ele>374</ele>
        <time>2018-02-04T11:10:46Z</time>
      </trkpt>
      <trkpt lat="45.90259" lon="4.67685">
        <ele>374</ele>
        <time>2018-02-04T11:10:47Z</time>
      </trkpt>
      <trkpt lat="45.90266" lon="4.67689">
        <ele>374</ele>
        <time>2018-02-04T11:10:48Z</time>
      </trkpt>
      <trkpt lat="45.90274" lon="4.67692">
        <ele>374</ele>
        <time>2018-02-04T11:10:49Z</time>
      </trkpt>
      <trkpt lat="45.90283" lon="4.67694">
        <ele>374</ele>
        <time>2018-02-04T11:10:50Z</time>
      </trkpt>
      <trkpt lat="45.90291" lon="4.67697">
        <ele>374</ele>
        <time>2018-02-04T11:10:51Z</time>
      </trkpt>
      <trkpt lat="45.903" lon="4.677">
        <ele>374</ele>
        <time>2018-02-04T11:10:52Z</time>
      </trkpt>
      <trkpt lat="45.90308" lon="4.67702">
        <ele>374</ele>
        <time>2018-02-04T11:10:53Z</time>
      </trkpt>
      <trkpt lat="45.90317" lon="4.67706">
        <ele>374</ele>
        <time>2018-02-04T11:10:54Z</time>
      </trkpt>
      <trkpt lat="45.90326" lon="4.6771">
        <ele>373</ele>
        <time>2018-02-04T11:10:55Z</time>
      </trkpt>
      <trkpt lat="45.90334" lon="4.67712">
        <ele>372</ele>
        <time>2018-02-04T11:10:56Z</time>
      </trkpt>
      <trkpt lat="45.90343" lon="4.67716">
        <ele>372</ele>
        <time>2018-02-04T11:10:57Z</time>
      </trkpt>
      <trkpt lat="45.90352" lon="4.67719">
        <ele>371</ele>
        <time>2018-02-04T11:10:58Z</time>
      </trkpt>
      <trkpt lat="45.90361" lon="4.67721">
        <ele>371</ele>
        <time>2018-02-04T11:10:59Z</time>
      </trkpt>
      <trkpt lat="45.90369" lon="4.67725">
        <ele>371</ele>
        <time>2018-02-04T11:11:00Z</time>
      </trkpt>
      <trkpt lat="45.90378" lon="4.67729">
        <ele>370</ele>
        <time>2018-02-04T11:11:01Z</time>
      </trkpt>
      <trkpt lat="45.90388" lon="4.67731">
        <ele>370</ele>
        <time>2018-02-04T11:11:02Z</time>
      </trkpt>
      <trkpt lat="45.90397" lon="4.67735">
        <ele>369</ele>
        <time>2018-02-04T11:11:03Z</time>
      </trkpt>
      <trkpt lat="45.90407" lon="4.67738">
        <ele>368</ele>
        <time>2018-02-04T11:11:04Z</time>
      </trkpt>
      <trkpt lat="45.90417" lon="4.67742">
        <ele>367</ele>
        <time>2018-02-04T11:11:05Z</time>
      </trkpt>
      <trkpt lat="45.90425" lon="4.67745">
        <ele>366</ele>
        <time>2018-02-04T11:11:06Z</time>
      </trkpt>
      <trkpt lat="45.90434" lon="4.67749">
        <ele>366</ele>
        <time>2018-02-04T11:11:07Z</time>
      </trkpt>
      <trkpt lat="45.90443" lon="4.67752">
        <ele>364</ele>
        <time>2018-02-04T11:11:08Z</time>
      </trkpt>
      <trkpt lat="45.90452" lon="4.67755">
        <ele>364</ele>
        <time>2018-02-04T11:11:09Z</time>
      </trkpt>
      <trkpt lat="45.90461" lon="4.67758">
        <ele>364</ele>
        <time>2018-02-04T11:11:10Z</time>
      </trkpt>
      <trkpt lat="45.9047" lon="4.67761">
        <ele>364</ele>
        <time>2018-02-04T11:11:11Z</time>
      </trkpt>
      <trkpt lat="45.90479" lon="4.67765">
        <ele>364</ele>
        <time>2018-02-04T11:11:12Z</time>
      </trkpt>
      <trkpt lat="45.90488" lon="4.67768">
        <ele>364</ele>
        <time>2018-02-04T11:11:13Z</time>
      </trkpt>
      <trkpt lat="45.90497" lon="4.6777">
        <ele>364</ele>
        <time>2018-02-04T11:11:14Z</time>
      </trkpt>
      <trkpt lat="45.90505" lon="4.67774">
        <ele>364</ele>
        <time>2018-02-04T11:11:15Z</time>
      </trkpt>
      <trkpt lat="45.90513" lon="4.67776">
        <ele>365</ele>
        <time>2018-02-04T11:11:16Z</time>
      </trkpt>
      <trkpt lat="45.90521" lon="4.67778">
        <ele>365</ele>
        <time>2018-02-04T11:11:17Z</time>
      </trkpt>
      <trkpt lat="45.90528" lon="4.67781">
        <ele>365</ele>
        <time>2018-02-04T11:11:18Z</time>
      </trkpt>
      <trkpt lat="45.90535" lon="4.67784">
        <ele>365</ele>
        <time>2018-02-04T11:11:19Z</time>
      </trkpt>
      <trkpt lat="45.90543" lon="4.67786">
        <ele>365</ele>
        <time>2018-02-04T11:11:20Z</time>
      </trkpt>
      <trkpt lat="45.9055" lon="4.67789">
        <ele>365</ele>
        <time>2018-02-04T11:11:21Z</time>
      </trkpt>
      <trkpt lat="45.90555" lon="4.6779">
        <ele>365</ele>
        <time>2018-02-04T11:11:22Z</time>
      </trkpt>
      <trkpt lat="45.90562" lon="4.67793">
        <ele>365</ele>
        <time>2018-02-04T11:11:23Z</time>
      </trkpt>
      <trkpt lat="45.90569" lon="4.67794">
        <ele>365</ele>
        <time>2018-02-04T11:11:24Z</time>
      </trkpt>
      <trkpt lat="45.90576" lon="4.67795">
        <ele>366</ele>
        <time>2018-02-04T11:11:25Z</time>
      </trkpt>
      <trkpt lat="45.90582" lon="4.67795">
        <ele>366</ele>
        <time>2018-02-04T11:11:26Z</time>
      </trkpt>
      <trkpt lat="45.90589" lon="4.67796">
        <ele>367</ele>
        <time>2018-02-04T11:11:27Z</time>
      </trkpt>
      <trkpt lat="45.90595" lon="4.67797">
        <ele>367</ele>
        <time>2018-02-04T11:11:28Z</time>
      </trkpt>
      <trkpt lat="45.90601" lon="4.67797">
        <ele>367</ele>
        <time>2018-02-04T11:11:29Z</time>
      </trkpt>
      <trkpt lat="45.90607" lon="4.67797">
        <ele>367</ele>
        <time>2018-02-04T11:11:30Z</time>
      </trkpt>
      <trkpt lat="45.90613" lon="4.67797">
        <ele>367</ele>
        <time>2018-02-04T11:11:31Z</time>
      </trkpt>
      <trkpt lat="45.90619" lon="4.67797">
        <ele>367</ele>
        <time>2018-02-04T11:11:32Z</time>
      </trkpt>
      <trkpt lat="45.90625" lon="4.67798">
        <ele>367</ele>
        <time>2018-02-04T11:11:33Z</time>
      </trkpt>
      <trkpt lat="45.90631" lon="4.67797">
        <ele>367</ele>
        <time>2018-02-04T11:11:34Z</time>
      </trkpt>
      <trkpt lat="45.90636" lon="4.67797">
        <ele>367</ele>
        <time>2018-02-04T11:11:35Z</time>
      </trkpt>
      <trkpt lat="45.90641" lon="4.67798">
        <ele>367</ele>
        <time>2018-02-04T11:11:36Z</time>
      </trkpt>
      <trkpt lat="45.90647" lon="4.67798">
        <ele>368</ele>
        <time>2018-02-04T11:11:37Z</time>
      </trkpt>
      <trkpt lat="45.90652" lon="4.678">
        <ele>368</ele>
        <time>2018-02-04T11:11:38Z</time>
      </trkpt>
      <trkpt lat="45.90658" lon="4.678">
        <ele>368</ele>
        <time>2018-02-04T11:11:39Z</time>
      </trkpt>
      <trkpt lat="45.90663" lon="4.67802">
        <ele>368</ele>
        <time>2018-02-04T11:11:40Z</time>
      </trkpt>
      <trkpt lat="45.90669" lon="4.67803">
        <ele>368</ele>
        <time>2018-02-04T11:11:41Z</time>
      </trkpt>
      <trkpt lat="45.90674" lon="4.67804">
        <ele>368</ele>
        <time>2018-02-04T11:11:42Z</time>
      </trkpt>
      <trkpt lat="45.90681" lon="4.67805">
        <ele>368</ele>
        <time>2018-02-04T11:11:43Z</time>
      </trkpt>
      <trkpt lat="45.90686" lon="4.67807">
        <ele>368</ele>
        <time>2018-02-04T11:11:44Z</time>
      </trkpt>
      <trkpt lat="45.90691" lon="4.67809">
        <ele>368</ele>
        <time>2018-02-04T11:11:45Z</time>
      </trkpt>
      <trkpt lat="45.90697" lon="4.67811">
        <ele>368</ele>
        <time>2018-02-04T11:11:46Z</time>
      </trkpt>
      <trkpt lat="45.90703" lon="4.67814">
        <ele>368</ele>
        <time>2018-02-04T11:11:47Z</time>
      </trkpt>
      <trkpt lat="45.90708" lon="4.67816">
        <ele>369</ele>
        <time>2018-02-04T11:11:48Z</time>
      </trkpt>
      <trkpt lat="45.90713" lon="4.67817">
        <ele>369</ele>
        <time>2018-02-04T11:11:49Z</time>
      </trkpt>
      <trkpt lat="45.90717" lon="4.67819">
        <ele>369</ele>
        <time>2018-02-04T11:11:50Z</time>
      </trkpt>
      <trkpt lat="45.90721" lon="4.6782">
        <ele>369</ele>
        <time>2018-02-04T11:11:51Z</time>
      </trkpt>
      <trkpt lat="45.90726" lon="4.67821">
        <ele>369</ele>
        <time>2018-02-04T11:11:52Z</time>
      </trkpt>
      <trkpt lat="45.90731" lon="4.67824">
        <ele>369</ele>
        <time>2018-02-04T11:11:53Z</time>
      </trkpt>
      <trkpt lat="45.90735" lon="4.67826">
        <ele>369</ele>
        <time>2018-02-04T11:11:54Z</time>
      </trkpt>
      <trkpt lat="45.9074" lon="4.67829">
        <ele>370</ele>
        <time>2018-02-04T11:11:55Z</time>
      </trkpt>
      <trkpt lat="45.90745" lon="4.67831">
        <ele>370</ele>
        <time>2018-02-04T11:11:56Z</time>
      </trkpt>
      <trkpt lat="45.9075" lon="4.67833">
        <ele>371</ele>
        <time>2018-02-04T11:11:57Z</time>
      </trkpt>
      <trkpt lat="45.90755" lon="4.67835">
        <ele>371</ele>
        <time>2018-02-04T11:11:58Z</time>
      </trkpt>
      <trkpt lat="45.9076" lon="4.67836">
        <ele>371</ele>
        <time>2018-02-04T11:11:59Z</time>
      </trkpt>
      <trkpt lat="45.90764" lon="4.67838">
        <ele>371</ele>
        <time>2018-02-04T11:12:00Z</time>
      </trkpt>
      <trkpt lat="45.90769" lon="4.6784">
        <ele>371</ele>
        <time>2018-02-04T11:12:01Z</time>
      </trkpt>
      <trkpt lat="45.90774" lon="4.67842">
        <ele>371</ele>
        <time>2018-02-04T11:12:02Z</time>
      </trkpt>
      <trkpt lat="45.90778" lon="4.67845">
        <ele>371</ele>
        <time>2018-02-04T11:12:03Z</time>
      </trkpt>
      <trkpt lat="45.90787" lon="4.67849">
        <ele>371</ele>
        <time>2018-02-04T11:12:05Z</time>
      </trkpt>
      <trkpt lat="45.90792" lon="4.67851">
        <ele>371</ele>
        <time>2018-02-04T11:12:06Z</time>
      </trkpt>
      <trkpt lat="45.90797" lon="4.67852">
        <ele>371</ele>
        <time>2018-02-04T11:12:07Z</time>
      </trkpt>
      <trkpt lat="45.90802" lon="4.67854">
        <ele>371</ele>
        <time>2018-02-04T11:12:08Z</time>
      </trkpt>
      <trkpt lat="45.90809" lon="4.67855">
        <ele>371</ele>
        <time>2018-02-04T11:12:09Z</time>
      </trkpt>
      <trkpt lat="45.90814" lon="4.67856">
        <ele>371</ele>
        <time>2018-02-04T11:12:10Z</time>
      </trkpt>
      <trkpt lat="45.9082" lon="4.67857">
        <ele>371</ele>
        <time>2018-02-04T11:12:11Z</time>
      </trkpt>
      <trkpt lat="45.90824" lon="4.67858">
        <ele>371</ele>
        <time>2018-02-04T11:12:12Z</time>
      </trkpt>
      <trkpt lat="45.90829" lon="4.6786">
        <ele>371</ele>
        <time>2018-02-04T11:12:13Z</time>
      </trkpt>
      <trkpt lat="45.90834" lon="4.67861">
        <ele>370</ele>
        <time>2018-02-04T11:12:14Z</time>
      </trkpt>
      <trkpt lat="45.90838" lon="4.67863">
        <ele>370</ele>
        <time>2018-02-04T11:12:15Z</time>
      </trkpt>
      <trkpt lat="45.90843" lon="4.67864">
        <ele>370</ele>
        <time>2018-02-04T11:12:16Z</time>
      </trkpt>
      <trkpt lat="45.90847" lon="4.67865">
        <ele>370</ele>
        <time>2018-02-04T11:12:17Z</time>
      </trkpt>
      <trkpt lat="45.90852" lon="4.67867">
        <ele>370</ele>
        <time>2018-02-04T11:12:18Z</time>
      </trkpt>
      <trkpt lat="45.90858" lon="4.67868">
        <ele>370</ele>
        <time>2018-02-04T11:12:19Z</time>
      </trkpt>
      <trkpt lat="45.90864" lon="4.6787">
        <ele>370</ele>
        <time>2018-02-04T11:12:20Z</time>
      </trkpt>
      <trkpt lat="45.90869" lon="4.67871">
        <ele>370</ele>
        <time>2018-02-04T11:12:21Z</time>
      </trkpt>
      <trkpt lat="45.90874" lon="4.67872">
        <ele>370</ele>
        <time>2018-02-04T11:12:22Z</time>
      </trkpt>
      <trkpt lat="45.90879" lon="4.67874">
        <ele>370</ele>
        <time>2018-02-04T11:12:23Z</time>
      </trkpt>
      <trkpt lat="45.90884" lon="4.67875">
        <ele>370</ele>
        <time>2018-02-04T11:12:24Z</time>
      </trkpt>
      <trkpt lat="45.90889" lon="4.67877">
        <ele>370</ele>
        <time>2018-02-04T11:12:25Z</time>
      </trkpt>
      <trkpt lat="45.90894" lon="4.67879">
        <ele>370</ele>
        <time>2018-02-04T11:12:26Z</time>
      </trkpt>
      <trkpt lat="45.909" lon="4.67881">
        <ele>370</ele>
        <time>2018-02-04T11:12:27Z</time>
      </trkpt>
      <trkpt lat="45.90904" lon="4.67883">
        <ele>370</ele>
        <time>2018-02-04T11:12:28Z</time>
      </trkpt>
      <trkpt lat="45.90909" lon="4.67886">
        <ele>370</ele>
        <time>2018-02-04T11:12:29Z</time>
      </trkpt>
      <trkpt lat="45.90913" lon="4.67887">
        <ele>370</ele>
        <time>2018-02-04T11:12:30Z</time>
      </trkpt>
      <trkpt lat="45.90918" lon="4.6789">
        <ele>370</ele>
        <time>2018-02-04T11:12:31Z</time>
      </trkpt>
      <trkpt lat="45.90922" lon="4.67892">
        <ele>370</ele>
        <time>2018-02-04T11:12:32Z</time>
      </trkpt>
      <trkpt lat="45.90926" lon="4.67894">
        <ele>370</ele>
        <time>2018-02-04T11:12:33Z</time>
      </trkpt>
      <trkpt lat="45.90931" lon="4.67897">
        <ele>370</ele>
        <time>2018-02-04T11:12:34Z</time>
      </trkpt>
      <trkpt lat="45.90935" lon="4.67898">
        <ele>370</ele>
        <time>2018-02-04T11:12:35Z</time>
      </trkpt>
      <trkpt lat="45.9094" lon="4.679">
        <ele>370</ele>
        <time>2018-02-04T11:12:36Z</time>
      </trkpt>
      <trkpt lat="45.90947" lon="4.67906">
        <ele>370</ele>
        <time>2018-02-04T11:12:38Z</time>
      </trkpt>
      <trkpt lat="45.9095" lon="4.67908">
        <ele>370</ele>
        <time>2018-02-04T11:12:39Z</time>
      </trkpt>
      <trkpt lat="45.90955" lon="4.67909">
        <ele>370</ele>
        <time>2018-02-04T11:12:40Z</time>
      </trkpt>
      <trkpt lat="45.90959" lon="4.67911">
        <ele>370</ele>
        <time>2018-02-04T11:12:41Z</time>
      </trkpt>
      <trkpt lat="45.90964" lon="4.67912">
        <ele>370</ele>
        <time>2018-02-04T11:12:42Z</time>
      </trkpt>
      <trkpt lat="45.90968" lon="4.67914">
        <ele>370</ele>
        <time>2018-02-04T11:12:43Z</time>
      </trkpt>
      <trkpt lat="45.90974" lon="4.67916">
        <ele>370</ele>
        <time>2018-02-04T11:12:44Z</time>
      </trkpt>
      <trkpt lat="45.90978" lon="4.67917">
        <ele>372</ele>
        <time>2018-02-04T11:12:45Z</time>
      </trkpt>
      <trkpt lat="45.90985" lon="4.6792">
        <ele>372</ele>
        <time>2018-02-04T11:12:47Z</time>
      </trkpt>
      <trkpt lat="45.9099" lon="4.67922">
        <ele>372</ele>
        <time>2018-02-04T11:12:48Z</time>
      </trkpt>
      <trkpt lat="45.90997" lon="4.67925">
        <ele>372</ele>
        <time>2018-02-04T11:12:50Z</time>
      </trkpt>
      <trkpt lat="45.91001" lon="4.67927">
        <ele>373</ele>
        <time>2018-02-04T11:12:51Z</time>
      </trkpt>
      <trkpt lat="45.91008" lon="4.67932">
        <ele>373</ele>
        <time>2018-02-04T11:12:53Z</time>
      </trkpt>
      <trkpt lat="45.91011" lon="4.67934">
        <ele>373</ele>
        <time>2018-02-04T11:12:54Z</time>
      </trkpt>
      <trkpt lat="45.91018" lon="4.67937">
        <ele>374</ele>
        <time>2018-02-04T11:12:56Z</time>
      </trkpt>
      <trkpt lat="45.91022" lon="4.67938">
        <ele>374</ele>
        <time>2018-02-04T11:12:57Z</time>
      </trkpt>
      <trkpt lat="45.91028" lon="4.67942">
        <ele>374</ele>
        <time>2018-02-04T11:12:59Z</time>
      </trkpt>
      <trkpt lat="45.91031" lon="4.67944">
        <ele>374</ele>
        <time>2018-02-04T11:13:00Z</time>
      </trkpt>
      <trkpt lat="45.91037" lon="4.67947">
        <ele>374</ele>
        <time>2018-02-04T11:13:02Z</time>
      </trkpt>
      <trkpt lat="45.9104" lon="4.67949">
        <ele>374</ele>
        <time>2018-02-04T11:13:03Z</time>
      </trkpt>
      <trkpt lat="45.91046" lon="4.67952">
        <ele>374</ele>
        <time>2018-02-04T11:13:05Z</time>
      </trkpt>
      <trkpt lat="45.91049" lon="4.67953">
        <ele>375</ele>
        <time>2018-02-04T11:13:06Z</time>
      </trkpt>
      <trkpt lat="45.91055" lon="4.67955">
        <ele>375</ele>
        <time>2018-02-04T11:13:08Z</time>
      </trkpt>
      <trkpt lat="45.91058" lon="4.67956">
        <ele>375</ele>
        <time>2018-02-04T11:13:09Z</time>
      </trkpt>
      <trkpt lat="45.91065" lon="4.67958">
        <ele>375</ele>
        <time>2018-02-04T11:13:11Z</time>
      </trkpt>
      <trkpt lat="45.91068" lon="4.67959">
        <ele>375</ele>
        <time>2018-02-04T11:13:12Z</time>
      </trkpt>
      <trkpt lat="45.91075" lon="4.67961">
        <ele>375</ele>
        <time>2018-02-04T11:13:14Z</time>
      </trkpt>
      <trkpt lat="45.91079" lon="4.67961">
        <ele>375</ele>
        <time>2018-02-04T11:13:15Z</time>
      </trkpt>
      <trkpt lat="45.91086" lon="4.67962">
        <ele>377</ele>
        <time>2018-02-04T11:13:17Z</time>
      </trkpt>
      <trkpt lat="45.9109" lon="4.67962">
        <ele>377</ele>
        <time>2018-02-04T11:13:18Z</time>
      </trkpt>
      <trkpt lat="45.91097" lon="4.67964">
        <ele>377</ele>
        <time>2018-02-04T11:13:20Z</time>
      </trkpt>
      <trkpt lat="45.91101" lon="4.67965">
        <ele>377</ele>
        <time>2018-02-04T11:13:21Z</time>
      </trkpt>
      <trkpt lat="45.91108" lon="4.67967">
        <ele>377</ele>
        <time>2018-02-04T11:13:23Z</time>
      </trkpt>
      <trkpt lat="45.91111" lon="4.67967">
        <ele>377</ele>
        <time>2018-02-04T11:13:24Z</time>
      </trkpt>
      <trkpt lat="45.91118" lon="4.67969">
        <ele>377</ele>
        <time>2018-02-04T11:13:26Z</time>
      </trkpt>
      <trkpt lat="45.91121" lon="4.6797">
        <ele>377</ele>
        <time>2018-02-04T11:13:27Z</time>
      </trkpt>
      <trkpt lat="45.91128" lon="4.67972">
        <ele>377</ele>
        <time>2018-02-04T11:13:29Z</time>
      </trkpt>
      <trkpt lat="45.91131" lon="4.67974">
        <ele>377</ele>
        <time>2018-02-04T11:13:30Z</time>
      </trkpt>
      <trkpt lat="45.91137" lon="4.67977">
        <ele>378</ele>
        <time>2018-02-04T11:13:32Z</time>
      </trkpt>
      <trkpt lat="45.9114" lon="4.67979">
        <ele>378</ele>
        <time>2018-02-04T11:13:33Z</time>
      </trkpt>
      <trkpt lat="45.91146" lon="4.67982">
        <ele>378</ele>
        <time>2018-02-04T11:13:35Z</time>
      </trkpt>
      <trkpt lat="45.91149" lon="4.67984">
        <ele>378</ele>
        <time>2018-02-04T11:13:36Z</time>
      </trkpt>
      <trkpt lat="45.91155" lon="4.67986">
        <ele>379</ele>
        <time>2018-02-04T11:13:38Z</time>
      </trkpt>
      <trkpt lat="45.91158" lon="4.67988">
        <ele>379</ele>
        <time>2018-02-04T11:13:39Z</time>
      </trkpt>
      <trkpt lat="45.91164" lon="4.67991">
        <ele>380</ele>
        <time>2018-02-04T11:13:41Z</time>
      </trkpt>
      <trkpt lat="45.91167" lon="4.67993">
        <ele>381</ele>
        <time>2018-02-04T11:13:42Z</time>
      </trkpt>
      <trkpt lat="45.91173" lon="4.67996">
        <ele>381</ele>
        <time>2018-02-04T11:13:44Z</time>
      </trkpt>
      <trkpt lat="45.91176" lon="4.67998">
        <ele>380</ele>
        <time>2018-02-04T11:13:45Z</time>
      </trkpt>
      <trkpt lat="45.91182" lon="4.68001">
        <ele>382</ele>
        <time>2018-02-04T11:13:47Z</time>
      </trkpt>
      <trkpt lat="45.91185" lon="4.68003">
        <ele>382</ele>
        <time>2018-02-04T11:13:48Z</time>
      </trkpt>
      <trkpt lat="45.91191" lon="4.68006">
        <ele>383</ele>
        <time>2018-02-04T11:13:50Z</time>
      </trkpt>
      <trkpt lat="45.91194" lon="4.68008">
        <ele>383</ele>
        <time>2018-02-04T11:13:51Z</time>
      </trkpt>
      <trkpt lat="45.912" lon="4.68012">
        <ele>383</ele>
        <time>2018-02-04T11:13:53Z</time>
      </trkpt>
      <trkpt lat="45.91203" lon="4.68013">
        <ele>383</ele>
        <time>2018-02-04T11:13:54Z</time>
      </trkpt>
      <trkpt lat="45.91208" lon="4.68016">
        <ele>383</ele>
        <time>2018-02-04T11:13:56Z</time>
      </trkpt>
      <trkpt lat="45.91212" lon="4.68017">
        <ele>383</ele>
        <time>2018-02-04T11:13:57Z</time>
      </trkpt>
      <trkpt lat="45.91218" lon="4.68019">
        <ele>383</ele>
        <time>2018-02-04T11:13:59Z</time>
      </trkpt>
      <trkpt lat="45.91222" lon="4.68019">
        <ele>384</ele>
        <time>2018-02-04T11:14:00Z</time>
      </trkpt>
      <trkpt lat="45.91229" lon="4.68022">
        <ele>384</ele>
        <time>2018-02-04T11:14:02Z</time>
      </trkpt>
      <trkpt lat="45.91232" lon="4.68024">
        <ele>384</ele>
        <time>2018-02-04T11:14:03Z</time>
      </trkpt>
      <trkpt lat="45.91239" lon="4.68027">
        <ele>384</ele>
        <time>2018-02-04T11:14:05Z</time>
      </trkpt>
      <trkpt lat="45.91242" lon="4.68029">
        <ele>384</ele>
        <time>2018-02-04T11:14:06Z</time>
      </trkpt>
      <trkpt lat="45.9125" lon="4.68034">
        <ele>385</ele>
        <time>2018-02-04T11:14:08Z</time>
      </trkpt>
      <trkpt lat="45.91254" lon="4.68035">
        <ele>385</ele>
        <time>2018-02-04T11:14:09Z</time>
      </trkpt>
      <trkpt lat="45.91261" lon="4.68037">
        <ele>385</ele>
        <time>2018-02-04T11:14:11Z</time>
      </trkpt>
      <trkpt lat="45.91265" lon="4.68039">
        <ele>385</ele>
        <time>2018-02-04T11:14:12Z</time>
      </trkpt>
      <trkpt lat="45.91272" lon="4.68043">
        <ele>385</ele>
        <time>2018-02-04T11:14:14Z</time>
      </trkpt>
      <trkpt lat="45.91275" lon="4.68045">
        <ele>385</ele>
        <time>2018-02-04T11:14:15Z</time>
      </trkpt>
      <trkpt lat="45.91282" lon="4.68049">
        <ele>385</ele>
        <time>2018-02-04T11:14:17Z</time>
      </trkpt>
      <trkpt lat="45.91285" lon="4.6805">
        <ele>385</ele>
        <time>2018-02-04T11:14:18Z</time>
      </trkpt>
      <trkpt lat="45.91293" lon="4.68052">
        <ele>385</ele>
        <time>2018-02-04T11:14:20Z</time>
      </trkpt>
      <trkpt lat="45.91297" lon="4.68054">
        <ele>385</ele>
        <time>2018-02-04T11:14:21Z</time>
      </trkpt>
      <trkpt lat="45.91304" lon="4.68057">
        <ele>385</ele>
        <time>2018-02-04T11:14:23Z</time>
      </trkpt>
      <trkpt lat="45.91308" lon="4.68059">
        <ele>385</ele>
        <time>2018-02-04T11:14:24Z</time>
      </trkpt>
      <trkpt lat="45.91315" lon="4.68062">
        <ele>385</ele>
        <time>2018-02-04T11:14:26Z</time>
      </trkpt>
      <trkpt lat="45.91319" lon="4.68064">
        <ele>385</ele>
        <time>2018-02-04T11:14:27Z</time>
      </trkpt>
      <trkpt lat="45.91327" lon="4.68068">
        <ele>385</ele>
        <time>2018-02-04T11:14:29Z</time>
      </trkpt>
      <trkpt lat="45.9133" lon="4.6807">
        <ele>385</ele>
        <time>2018-02-04T11:14:30Z</time>
      </trkpt>
      <trkpt lat="45.91338" lon="4.68075">
        <ele>385</ele>
        <time>2018-02-04T11:14:32Z</time>
      </trkpt>
      <trkpt lat="45.91342" lon="4.68077">
        <ele>385</ele>
        <time>2018-02-04T11:14:33Z</time>
      </trkpt>
      <trkpt lat="45.91347" lon="4.68079">
        <ele>385</ele>
        <time>2018-02-04T11:14:34Z</time>
      </trkpt>
      <trkpt lat="45.91351" lon="4.68081">
        <ele>385</ele>
        <time>2018-02-04T11:14:35Z</time>
      </trkpt>
      <trkpt lat="45.91356" lon="4.68083">
        <ele>385</ele>
        <time>2018-02-04T11:14:36Z</time>
      </trkpt>
      <trkpt lat="45.9136" lon="4.68085">
        <ele>386</ele>
        <time>2018-02-04T11:14:37Z</time>
      </trkpt>
      <trkpt lat="45.91364" lon="4.68087">
        <ele>386</ele>
        <time>2018-02-04T11:14:38Z</time>
      </trkpt>
      <trkpt lat="45.91369" lon="4.68088">
        <ele>386</ele>
        <time>2018-02-04T11:14:39Z</time>
      </trkpt>
      <trkpt lat="45.91378" lon="4.68089">
        <ele>386</ele>
        <time>2018-02-04T11:14:41Z</time>
      </trkpt>
      <trkpt lat="45.91382" lon="4.6809">
        <ele>386</ele>
        <time>2018-02-04T11:14:42Z</time>
      </trkpt>
      <trkpt lat="45.91391" lon="4.68091">
        <ele>386</ele>
        <time>2018-02-04T11:14:44Z</time>
      </trkpt>
      <trkpt lat="45.91396" lon="4.68091">
        <ele>386</ele>
        <time>2018-02-04T11:14:45Z</time>
      </trkpt>
      <trkpt lat="45.91404" lon="4.68089">
        <ele>386</ele>
        <time>2018-02-04T11:14:47Z</time>
      </trkpt>
      <trkpt lat="45.91409" lon="4.68088">
        <ele>386</ele>
        <time>2018-02-04T11:14:48Z</time>
      </trkpt>
      <trkpt lat="45.91414" lon="4.68087">
        <ele>386</ele>
        <time>2018-02-04T11:14:49Z</time>
      </trkpt>
      <trkpt lat="45.91418" lon="4.68086">
        <ele>386</ele>
        <time>2018-02-04T11:14:50Z</time>
      </trkpt>
      <trkpt lat="45.91422" lon="4.68085">
        <ele>386</ele>
        <time>2018-02-04T11:14:51Z</time>
      </trkpt>
      <trkpt lat="45.91427" lon="4.68085">
        <ele>385</ele>
        <time>2018-02-04T11:14:52Z</time>
      </trkpt>
      <trkpt lat="45.91432" lon="4.68086">
        <ele>385</ele>
        <time>2018-02-04T11:14:53Z</time>
      </trkpt>
      <trkpt lat="45.91437" lon="4.68087">
        <ele>385</ele>
        <time>2018-02-04T11:14:54Z</time>
      </trkpt>
      <trkpt lat="45.91442" lon="4.68088">
        <ele>385</ele>
        <time>2018-02-04T11:14:55Z</time>
      </trkpt>
      <trkpt lat="45.91447" lon="4.68088">
        <ele>384</ele>
        <time>2018-02-04T11:14:56Z</time>
      </trkpt>
      <trkpt lat="45.91451" lon="4.6809">
        <ele>384</ele>
        <time>2018-02-04T11:14:57Z</time>
      </trkpt>
      <trkpt lat="45.91457" lon="4.68092">
        <ele>384</ele>
        <time>2018-02-04T11:14:58Z</time>
      </trkpt>
      <trkpt lat="45.91464" lon="4.68095">
        <ele>384</ele>
        <time>2018-02-04T11:14:59Z</time>
      </trkpt>
      <trkpt lat="45.91469" lon="4.68099">
        <ele>384</ele>
        <time>2018-02-04T11:15:00Z</time>
      </trkpt>
      <trkpt lat="45.91476" lon="4.68104">
        <ele>383</ele>
        <time>2018-02-04T11:15:01Z</time>
      </trkpt>
      <trkpt lat="45.91481" lon="4.68107">
        <ele>383</ele>
        <time>2018-02-04T11:15:02Z</time>
      </trkpt>
      <trkpt lat="45.91488" lon="4.68111">
        <ele>383</ele>
        <time>2018-02-04T11:15:03Z</time>
      </trkpt>
      <trkpt lat="45.91494" lon="4.68115">
        <ele>383</ele>
        <time>2018-02-04T11:15:04Z</time>
      </trkpt>
      <trkpt lat="45.915" lon="4.68119">
        <ele>380</ele>
        <time>2018-02-04T11:15:05Z</time>
      </trkpt>
      <trkpt lat="45.91507" lon="4.68124">
        <ele>380</ele>
        <time>2018-02-04T11:15:06Z</time>
      </trkpt>
      <trkpt lat="45.91514" lon="4.68128">
        <ele>380</ele>
        <time>2018-02-04T11:15:07Z</time>
      </trkpt>
      <trkpt lat="45.91522" lon="4.68132">
        <ele>380</ele>
        <time>2018-02-04T11:15:08Z</time>
      </trkpt>
      <trkpt lat="45.91529" lon="4.68136">
        <ele>379</ele>
        <time>2018-02-04T11:15:09Z</time>
      </trkpt>
      <trkpt lat="45.91535" lon="4.68141">
        <ele>379</ele>
        <time>2018-02-04T11:15:10Z</time>
      </trkpt>
      <trkpt lat="45.91543" lon="4.68145">
        <ele>379</ele>
        <time>2018-02-04T11:15:11Z</time>
      </trkpt>
      <trkpt lat="45.9155" lon="4.68148">
        <ele>379</ele>
        <time>2018-02-04T11:15:12Z</time>
      </trkpt>
      <trkpt lat="45.91558" lon="4.68153">
        <ele>379</ele>
        <time>2018-02-04T11:15:13Z</time>
      </trkpt>
      <trkpt lat="45.91565" lon="4.68155">
        <ele>378</ele>
        <time>2018-02-04T11:15:14Z</time>
      </trkpt>
      <trkpt lat="45.91572" lon="4.68163">
        <ele>378</ele>
        <time>2018-02-04T11:15:15Z</time>
      </trkpt>
      <trkpt lat="45.9158" lon="4.68168">
        <ele>378</ele>
        <time>2018-02-04T11:15:16Z</time>
      </trkpt>
      <trkpt lat="45.91588" lon="4.68174">
        <ele>377</ele>
        <time>2018-02-04T11:15:17Z</time>
      </trkpt>
      <trkpt lat="45.91596" lon="4.6818">
        <ele>376</ele>
        <time>2018-02-04T11:15:18Z</time>
      </trkpt>
      <trkpt lat="45.91603" lon="4.68185">
        <ele>376</ele>
        <time>2018-02-04T11:15:19Z</time>
      </trkpt>
      <trkpt lat="45.9161" lon="4.68191">
        <ele>375</ele>
        <time>2018-02-04T11:15:20Z</time>
      </trkpt>
      <trkpt lat="45.91617" lon="4.68197">
        <ele>375</ele>
        <time>2018-02-04T11:15:21Z</time>
      </trkpt>
      <trkpt lat="45.91626" lon="4.68202">
        <ele>375</ele>
        <time>2018-02-04T11:15:22Z</time>
      </trkpt>
      <trkpt lat="45.91634" lon="4.68208">
        <ele>375</ele>
        <time>2018-02-04T11:15:23Z</time>
      </trkpt>
      <trkpt lat="45.91642" lon="4.68213">
        <ele>374</ele>
        <time>2018-02-04T11:15:24Z</time>
      </trkpt>
      <trkpt lat="45.9165" lon="4.68218">
        <ele>374</ele>
        <time>2018-02-04T11:15:25Z</time>
      </trkpt>
      <trkpt lat="45.91658" lon="4.68224">
        <ele>374</ele>
        <time>2018-02-04T11:15:26Z</time>
      </trkpt>
      <trkpt lat="45.91667" lon="4.68229">
        <ele>371</ele>
        <time>2018-02-04T11:15:27Z</time>
      </trkpt>
      <trkpt lat="45.91676" lon="4.68234">
        <ele>371</ele>
        <time>2018-02-04T11:15:28Z</time>
      </trkpt>
      <trkpt lat="45.91683" lon="4.6824">
        <ele>371</ele>
        <time>2018-02-04T11:15:29Z</time>
      </trkpt>
      <trkpt lat="45.91691" lon="4.68245">
        <ele>371</ele>
        <time>2018-02-04T11:15:30Z</time>
      </trkpt>
      <trkpt lat="45.917" lon="4.68249">
        <ele>371</ele>
        <time>2018-02-04T11:15:31Z</time>
      </trkpt>
      <trkpt lat="45.91709" lon="4.68253">
        <ele>373</ele>
        <time>2018-02-04T11:15:32Z</time>
      </trkpt>
      <trkpt lat="45.91716" lon="4.68256">
        <ele>373</ele>
        <time>2018-02-04T11:15:33Z</time>
      </trkpt>
      <trkpt lat="45.91724" lon="4.68257">
        <ele>372</ele>
        <time>2018-02-04T11:15:34Z</time>
      </trkpt>
      <trkpt lat="45.91731" lon="4.6826">
        <ele>372</ele>
        <time>2018-02-04T11:15:35Z</time>
      </trkpt>
      <trkpt lat="45.91738" lon="4.68261">
        <ele>372</ele>
        <time>2018-02-04T11:15:36Z</time>
      </trkpt>
      <trkpt lat="45.91745" lon="4.68263">
        <ele>371</ele>
        <time>2018-02-04T11:15:37Z</time>
      </trkpt>
      <trkpt lat="45.91751" lon="4.68264">
        <ele>371</ele>
        <time>2018-02-04T11:15:38Z</time>
      </trkpt>
      <trkpt lat="45.91757" lon="4.68265">
        <ele>371</ele>
        <time>2018-02-04T11:15:39Z</time>
      </trkpt>
      <trkpt lat="45.91763" lon="4.68267">
        <ele>372</ele>
        <time>2018-02-04T11:15:40Z</time>
      </trkpt>
      <trkpt lat="45.91769" lon="4.68268">
        <ele>372</ele>
        <time>2018-02-04T11:15:41Z</time>
      </trkpt>
      <trkpt lat="45.91774" lon="4.68269">
        <ele>372</ele>
        <time>2018-02-04T11:15:42Z</time>
      </trkpt>
      <trkpt lat="45.9178" lon="4.6827">
        <ele>372</ele>
        <time>2018-02-04T11:15:43Z</time>
      </trkpt>
      <trkpt lat="45.91785" lon="4.68272">
        <ele>372</ele>
        <time>2018-02-04T11:15:44Z</time>
      </trkpt>
      <trkpt lat="45.9179" lon="4.68274">
        <ele>372</ele>
        <time>2018-02-04T11:15:45Z</time>
      </trkpt>
      <trkpt lat="45.91795" lon="4.68274">
        <ele>372</ele>
        <time>2018-02-04T11:15:46Z</time>
      </trkpt>
      <trkpt lat="45.91799" lon="4.68277">
        <ele>372</ele>
        <time>2018-02-04T11:15:47Z</time>
      </trkpt>
      <trkpt lat="45.91804" lon="4.68278">
        <ele>373</ele>
        <time>2018-02-04T11:15:48Z</time>
      </trkpt>
      <trkpt lat="45.91809" lon="4.68279">
        <ele>373</ele>
        <time>2018-02-04T11:15:49Z</time>
      </trkpt>
      <trkpt lat="45.91814" lon="4.6828">
        <ele>373</ele>
        <time>2018-02-04T11:15:50Z</time>
      </trkpt>
      <trkpt lat="45.91819" lon="4.6828">
        <ele>373</ele>
        <time>2018-02-04T11:15:51Z</time>
      </trkpt>
      <trkpt lat="45.91823" lon="4.68281">
        <ele>373</ele>
        <time>2018-02-04T11:15:52Z</time>
      </trkpt>
      <trkpt lat="45.91828" lon="4.68283">
        <ele>373</ele>
        <time>2018-02-04T11:15:53Z</time>
      </trkpt>
      <trkpt lat="45.91833" lon="4.68285">
        <ele>373</ele>
        <time>2018-02-04T11:15:54Z</time>
      </trkpt>
      <trkpt lat="45.91837" lon="4.68287">
        <ele>375</ele>
        <time>2018-02-04T11:15:55Z</time>
      </trkpt>
      <trkpt lat="45.91843" lon="4.68287">
        <ele>375</ele>
        <time>2018-02-04T11:15:56Z</time>
      </trkpt>
      <trkpt lat="45.91852" lon="4.68289">
        <ele>375</ele>
        <time>2018-02-04T11:15:58Z</time>
      </trkpt>
      <trkpt lat="45.91859" lon="4.68288">
        <ele>375</ele>
        <time>2018-02-04T11:15:59Z</time>
      </trkpt>
      <trkpt lat="45.91867" lon="4.6829">
        <ele>375</ele>
        <time>2018-02-04T11:16:01Z</time>
      </trkpt>
      <trkpt lat="45.91871" lon="4.68291">
        <ele>376</ele>
        <time>2018-02-04T11:16:02Z</time>
      </trkpt>
      <trkpt lat="45.91875" lon="4.68291">
        <ele>376</ele>
        <time>2018-02-04T11:16:03Z</time>
      </trkpt>
      <trkpt lat="45.9188" lon="4.68291">
        <ele>376</ele>
        <time>2018-02-04T11:16:04Z</time>
      </trkpt>
      <trkpt lat="45.91888" lon="4.68291">
        <ele>376</ele>
        <time>2018-02-04T11:16:06Z</time>
      </trkpt>
      <trkpt lat="45.91893" lon="4.6829">
        <ele>376</ele>
        <time>2018-02-04T11:16:07Z</time>
      </trkpt>
      <trkpt lat="45.91901" lon="4.68295">
        <ele>377</ele>
        <time>2018-02-04T11:16:09Z</time>
      </trkpt>
      <trkpt lat="45.91905" lon="4.68296">
        <ele>377</ele>
        <time>2018-02-04T11:16:10Z</time>
      </trkpt>
      <trkpt lat="45.9191" lon="4.68296">
        <ele>377</ele>
        <time>2018-02-04T11:16:11Z</time>
      </trkpt>
      <trkpt lat="45.91914" lon="4.68297">
        <ele>377</ele>
        <time>2018-02-04T11:16:12Z</time>
      </trkpt>
      <trkpt lat="45.91923" lon="4.68298">
        <ele>379</ele>
        <time>2018-02-04T11:16:14Z</time>
      </trkpt>
      <trkpt lat="45.91926" lon="4.68299">
        <ele>379</ele>
        <time>2018-02-04T11:16:15Z</time>
      </trkpt>
      <trkpt lat="45.91935" lon="4.683">
        <ele>379</ele>
        <time>2018-02-04T11:16:17Z</time>
      </trkpt>
      <trkpt lat="45.91939" lon="4.68301">
        <ele>379</ele>
        <time>2018-02-04T11:16:18Z</time>
      </trkpt>
      <trkpt lat="45.91943" lon="4.68302">
        <ele>379</ele>
        <time>2018-02-04T11:16:19Z</time>
      </trkpt>
      <trkpt lat="45.91948" lon="4.68304">
        <ele>379</ele>
        <time>2018-02-04T11:16:20Z</time>
      </trkpt>
      <trkpt lat="45.91955" lon="4.68307">
        <ele>379</ele>
        <time>2018-02-04T11:16:22Z</time>
      </trkpt>
      <trkpt lat="45.91959" lon="4.68309">
        <ele>380</ele>
        <time>2018-02-04T11:16:23Z</time>
      </trkpt>
      <trkpt lat="45.91967" lon="4.6831">
        <ele>380</ele>
        <time>2018-02-04T11:16:25Z</time>
      </trkpt>
      <trkpt lat="45.91971" lon="4.6831">
        <ele>380</ele>
        <time>2018-02-04T11:16:26Z</time>
      </trkpt>
      <trkpt lat="45.91979" lon="4.68311">
        <ele>380</ele>
        <time>2018-02-04T11:16:28Z</time>
      </trkpt>
      <trkpt lat="45.91983" lon="4.68311">
        <ele>380</ele>
        <time>2018-02-04T11:16:29Z</time>
      </trkpt>
      <trkpt lat="45.9199" lon="4.68314">
        <ele>381</ele>
        <time>2018-02-04T11:16:31Z</time>
      </trkpt>
      <trkpt lat="45.91993" lon="4.68315">
        <ele>381</ele>
        <time>2018-02-04T11:16:32Z</time>
      </trkpt>
      <trkpt lat="45.92" lon="4.68319">
        <ele>381</ele>
        <time>2018-02-04T11:16:34Z</time>
      </trkpt>
      <trkpt lat="45.92004" lon="4.6832">
        <ele>381</ele>
        <time>2018-02-04T11:16:35Z</time>
      </trkpt>
      <trkpt lat="45.92012" lon="4.6832">
        <ele>381</ele>
        <time>2018-02-04T11:16:37Z</time>
      </trkpt>
      <trkpt lat="45.92017" lon="4.6832">
        <ele>380</ele>
        <time>2018-02-04T11:16:38Z</time>
      </trkpt>
      <trkpt lat="45.92021" lon="4.6832">
        <ele>380</ele>
        <time>2018-02-04T11:16:39Z</time>
      </trkpt>
      <trkpt lat="45.92026" lon="4.6832">
        <ele>380</ele>
        <time>2018-02-04T11:16:40Z</time>
      </trkpt>
      <trkpt lat="45.92031" lon="4.68319">
        <ele>380</ele>
        <time>2018-02-04T11:16:41Z</time>
      </trkpt>
      <trkpt lat="45.92036" lon="4.68318">
        <ele>380</ele>
        <time>2018-02-04T11:16:42Z</time>
      </trkpt>
      <trkpt lat="45.92042" lon="4.68317">
        <ele>379</ele>
        <time>2018-02-04T11:16:43Z</time>
      </trkpt>
      <trkpt lat="45.92046" lon="4.68318">
        <ele>379</ele>
        <time>2018-02-04T11:16:44Z</time>
      </trkpt>
      <trkpt lat="45.92052" lon="4.68321">
        <ele>380</ele>
        <time>2018-02-04T11:16:45Z</time>
      </trkpt>
      <trkpt lat="45.92057" lon="4.68321">
        <ele>380</ele>
        <time>2018-02-04T11:16:46Z</time>
      </trkpt>
      <trkpt lat="45.92066" lon="4.68324">
        <ele>380</ele>
        <time>2018-02-04T11:16:48Z</time>
      </trkpt>
      <trkpt lat="45.9207" lon="4.68326">
        <ele>380</ele>
        <time>2018-02-04T11:16:49Z</time>
      </trkpt>
      <trkpt lat="45.92076" lon="4.68327">
        <ele>381</ele>
        <time>2018-02-04T11:16:50Z</time>
      </trkpt>
      <trkpt lat="45.92079" lon="4.68329">
        <ele>381</ele>
        <time>2018-02-04T11:16:51Z</time>
      </trkpt>
      <trkpt lat="45.92084" lon="4.6833">
        <ele>381</ele>
        <time>2018-02-04T11:16:52Z</time>
      </trkpt>
      <trkpt lat="45.92089" lon="4.68332">
        <ele>381</ele>
        <time>2018-02-04T11:16:53Z</time>
      </trkpt>
      <trkpt lat="45.92094" lon="4.68333">
        <ele>380</ele>
        <time>2018-02-04T11:16:54Z</time>
      </trkpt>
      <trkpt lat="45.92099" lon="4.68335">
        <ele>383</ele>
        <time>2018-02-04T11:16:55Z</time>
      </trkpt>
      <trkpt lat="45.92103" lon="4.68337">
        <ele>383</ele>
        <time>2018-02-04T11:16:56Z</time>
      </trkpt>
      <trkpt lat="45.92109" lon="4.6834">
        <ele>383</ele>
        <time>2018-02-04T11:16:57Z</time>
      </trkpt>
      <trkpt lat="45.92113" lon="4.68343">
        <ele>383</ele>
        <time>2018-02-04T11:16:58Z</time>
      </trkpt>
      <trkpt lat="45.92118" lon="4.68345">
        <ele>383</ele>
        <time>2018-02-04T11:16:59Z</time>
      </trkpt>
      <trkpt lat="45.92122" lon="4.68348">
        <ele>383</ele>
        <time>2018-02-04T11:17:00Z</time>
      </trkpt>
      <trkpt lat="45.92127" lon="4.68352">
        <ele>383</ele>
        <time>2018-02-04T11:17:01Z</time>
      </trkpt>
      <trkpt lat="45.92131" lon="4.68357">
        <ele>383</ele>
        <time>2018-02-04T11:17:02Z</time>
      </trkpt>
      <trkpt lat="45.92135" lon="4.68361">
        <ele>383</ele>
        <time>2018-02-04T11:17:03Z</time>
      </trkpt>
      <trkpt lat="45.92142" lon="4.68369">
        <ele>383</ele>
        <time>2018-02-04T11:17:05Z</time>
      </trkpt>
      <trkpt lat="45.92146" lon="4.68372">
        <ele>383</ele>
        <time>2018-02-04T11:17:06Z</time>
      </trkpt>
      <trkpt lat="45.92151" lon="4.68377">
        <ele>384</ele>
        <time>2018-02-04T11:17:07Z</time>
      </trkpt>
      <trkpt lat="45.92154" lon="4.68381">
        <ele>384</ele>
        <time>2018-02-04T11:17:08Z</time>
      </trkpt>
      <trkpt lat="45.92158" lon="4.68384">
        <ele>384</ele>
        <time>2018-02-04T11:17:09Z</time>
      </trkpt>
      <trkpt lat="45.92163" lon="4.68388">
        <ele>384</ele>
        <time>2018-02-04T11:17:10Z</time>
      </trkpt>
      <trkpt lat="45.92168" lon="4.68397">
        <ele>383</ele>
        <time>2018-02-04T11:17:12Z</time>
      </trkpt>
      <trkpt lat="45.92171" lon="4.68402">
        <ele>384</ele>
        <time>2018-02-04T11:17:13Z</time>
      </trkpt>
      <trkpt lat="45.92175" lon="4.68406">
        <ele>384</ele>
        <time>2018-02-04T11:17:14Z</time>
      </trkpt>
      <trkpt lat="45.92178" lon="4.68413">
        <ele>384</ele>
        <time>2018-02-04T11:17:15Z</time>
      </trkpt>
      <trkpt lat="45.92181" lon="4.68417">
        <ele>386</ele>
        <time>2018-02-04T11:17:16Z</time>
      </trkpt>
      <trkpt lat="45.92185" lon="4.6842">
        <ele>386</ele>
        <time>2018-02-04T11:17:17Z</time>
      </trkpt>
      <trkpt lat="45.9219" lon="4.68423">
        <ele>386</ele>
        <time>2018-02-04T11:17:18Z</time>
      </trkpt>
      <trkpt lat="45.92196" lon="4.68425">
        <ele>386</ele>
        <time>2018-02-04T11:17:19Z</time>
      </trkpt>
      <trkpt lat="45.922" lon="4.68429">
        <ele>386</ele>
        <time>2018-02-04T11:17:20Z</time>
      </trkpt>
      <trkpt lat="45.92205" lon="4.68432">
        <ele>386</ele>
        <time>2018-02-04T11:17:21Z</time>
      </trkpt>
      <trkpt lat="45.92211" lon="4.68436">
        <ele>386</ele>
        <time>2018-02-04T11:17:22Z</time>
      </trkpt>
      <trkpt lat="45.92215" lon="4.68439">
        <ele>386</ele>
        <time>2018-02-04T11:17:23Z</time>
      </trkpt>
      <trkpt lat="45.92219" lon="4.68443">
        <ele>386</ele>
        <time>2018-02-04T11:17:24Z</time>
      </trkpt>
      <trkpt lat="45.92223" lon="4.68446">
        <ele>386</ele>
        <time>2018-02-04T11:17:25Z</time>
      </trkpt>
      <trkpt lat="45.9223" lon="4.68453">
        <ele>386</ele>
        <time>2018-02-04T11:17:27Z</time>
      </trkpt>
      <trkpt lat="45.92233" lon="4.68456">
        <ele>386</ele>
        <time>2018-02-04T11:17:28Z</time>
      </trkpt>
      <trkpt lat="45.92237" lon="4.68459">
        <ele>386</ele>
        <time>2018-02-04T11:17:29Z</time>
      </trkpt>
      <trkpt lat="45.9224" lon="4.68464">
        <ele>386</ele>
        <time>2018-02-04T11:17:30Z</time>
      </trkpt>
      <trkpt lat="45.92248" lon="4.6847">
        <ele>386</ele>
        <time>2018-02-04T11:17:32Z</time>
      </trkpt>
      <trkpt lat="45.92251" lon="4.68475">
        <ele>384</ele>
        <time>2018-02-04T11:17:33Z</time>
      </trkpt>
      <trkpt lat="45.92256" lon="4.68478">
        <ele>384</ele>
        <time>2018-02-04T11:17:34Z</time>
      </trkpt>
      <trkpt lat="45.9226" lon="4.68483">
        <ele>384</ele>
        <time>2018-02-04T11:17:35Z</time>
      </trkpt>
      <trkpt lat="45.92267" lon="4.68492">
        <ele>384</ele>
        <time>2018-02-04T11:17:37Z</time>
      </trkpt>
      <trkpt lat="45.92271" lon="4.68495">
        <ele>384</ele>
        <time>2018-02-04T11:17:38Z</time>
      </trkpt>
      <trkpt lat="45.92274" lon="4.685">
        <ele>384</ele>
        <time>2018-02-04T11:17:39Z</time>
      </trkpt>
      <trkpt lat="45.92278" lon="4.68504">
        <ele>387</ele>
        <time>2018-02-04T11:17:40Z</time>
      </trkpt>
      <trkpt lat="45.92282" lon="4.68507">
        <ele>387</ele>
        <time>2018-02-04T11:17:41Z</time>
      </trkpt>
      <trkpt lat="45.92286" lon="4.68511">
        <ele>387</ele>
        <time>2018-02-04T11:17:42Z</time>
      </trkpt>
      <trkpt lat="45.9229" lon="4.68515">
        <ele>387</ele>
        <time>2018-02-04T11:17:43Z</time>
      </trkpt>
      <trkpt lat="45.92294" lon="4.68521">
        <ele>387</ele>
        <time>2018-02-04T11:17:44Z</time>
      </trkpt>
      <trkpt lat="45.92299" lon="4.68525">
        <ele>387</ele>
        <time>2018-02-04T11:17:45Z</time>
      </trkpt>
      <trkpt lat="45.92303" lon="4.68529">
        <ele>388</ele>
        <time>2018-02-04T11:17:46Z</time>
      </trkpt>
      <trkpt lat="45.92308" lon="4.68533">
        <ele>388</ele>
        <time>2018-02-04T11:17:47Z</time>
      </trkpt>
      <trkpt lat="45.92313" lon="4.68537">
        <ele>388</ele>
        <time>2018-02-04T11:17:48Z</time>
      </trkpt>
      <trkpt lat="45.92317" lon="4.68541">
        <ele>388</ele>
        <time>2018-02-04T11:17:49Z</time>
      </trkpt>
      <trkpt lat="45.92322" lon="4.68545">
        <ele>388</ele>
        <time>2018-02-04T11:17:50Z</time>
      </trkpt>
      <trkpt lat="45.92326" lon="4.68548">
        <ele>388</ele>
        <time>2018-02-04T11:17:51Z</time>
      </trkpt>
      <trkpt lat="45.9233" lon="4.68552">
        <ele>389</ele>
        <time>2018-02-04T11:17:52Z</time>
      </trkpt>
      <trkpt lat="45.92335" lon="4.68555">
        <ele>385</ele>
        <time>2018-02-04T11:17:53Z</time>
      </trkpt>
      <trkpt lat="45.92339" lon="4.68558">
        <ele>386</ele>
        <time>2018-02-04T11:17:54Z</time>
      </trkpt>
      <trkpt lat="45.92343" lon="4.68562">
        <ele>386</ele>
        <time>2018-02-04T11:17:55Z</time>
      </trkpt>
      <trkpt lat="45.92349" lon="4.68565">
        <ele>386</ele>
        <time>2018-02-04T11:17:56Z</time>
      </trkpt>
      <trkpt lat="45.92353" lon="4.68568">
        <ele>386</ele>
        <time>2018-02-04T11:17:57Z</time>
      </trkpt>
      <trkpt lat="45.92359" lon="4.68571">
        <ele>385</ele>
        <time>2018-02-04T11:17:58Z</time>
      </trkpt>
      <trkpt lat="45.92364" lon="4.68575">
        <ele>385</ele>
        <time>2018-02-04T11:17:59Z</time>
      </trkpt>
      <trkpt lat="45.92368" lon="4.68578">
        <ele>385</ele>
        <time>2018-02-04T11:18:00Z</time>
      </trkpt>
      <trkpt lat="45.92373" lon="4.68581">
        <ele>384</ele>
        <time>2018-02-04T11:18:01Z</time>
      </trkpt>
      <trkpt lat="45.92379" lon="4.68586">
        <ele>387</ele>
        <time>2018-02-04T11:18:02Z</time>
      </trkpt>
      <trkpt lat="45.92384" lon="4.68589">
        <ele>387</ele>
        <time>2018-02-04T11:18:03Z</time>
      </trkpt>
      <trkpt lat="45.9239" lon="4.68593">
        <ele>386</ele>
        <time>2018-02-04T11:18:04Z</time>
      </trkpt>
      <trkpt lat="45.92396" lon="4.68596">
        <ele>386</ele>
        <time>2018-02-04T11:18:05Z</time>
      </trkpt>
      <trkpt lat="45.92402" lon="4.68599">
        <ele>386</ele>
        <time>2018-02-04T11:18:06Z</time>
      </trkpt>
      <trkpt lat="45.92409" lon="4.68603">
        <ele>385</ele>
        <time>2018-02-04T11:18:07Z</time>
      </trkpt>
      <trkpt lat="45.92416" lon="4.68606">
        <ele>386</ele>
        <time>2018-02-04T11:18:08Z</time>
      </trkpt>
      <trkpt lat="45.92422" lon="4.6861">
        <ele>381</ele>
        <time>2018-02-04T11:18:09Z</time>
      </trkpt>
      <trkpt lat="45.92429" lon="4.68613">
        <ele>381</ele>
        <time>2018-02-04T11:18:10Z</time>
      </trkpt>
      <trkpt lat="45.92436" lon="4.68616">
        <ele>381</ele>
        <time>2018-02-04T11:18:11Z</time>
      </trkpt>
      <trkpt lat="45.92444" lon="4.68621">
        <ele>381</ele>
        <time>2018-02-04T11:18:12Z</time>
      </trkpt>
      <trkpt lat="45.92452" lon="4.68624">
        <ele>380</ele>
        <time>2018-02-04T11:18:13Z</time>
      </trkpt>
      <trkpt lat="45.9246" lon="4.68629">
        <ele>380</ele>
        <time>2018-02-04T11:18:14Z</time>
      </trkpt>
      <trkpt lat="45.92467" lon="4.68632">
        <ele>380</ele>
        <time>2018-02-04T11:18:15Z</time>
      </trkpt>
      <trkpt lat="45.92476" lon="4.68633">
        <ele>379</ele>
        <time>2018-02-04T11:18:16Z</time>
      </trkpt>
      <trkpt lat="45.92484" lon="4.68636">
        <ele>379</ele>
        <time>2018-02-04T11:18:17Z</time>
      </trkpt>
      <trkpt lat="45.92493" lon="4.68639">
        <ele>379</ele>
        <time>2018-02-04T11:18:18Z</time>
      </trkpt>
      <trkpt lat="45.92502" lon="4.68641">
        <ele>375</ele>
        <time>2018-02-04T11:18:19Z</time>
      </trkpt>
      <trkpt lat="45.9251" lon="4.68645">
        <ele>375</ele>
        <time>2018-02-04T11:18:20Z</time>
      </trkpt>
      <trkpt lat="45.92519" lon="4.68648">
        <ele>375</ele>
        <time>2018-02-04T11:18:21Z</time>
      </trkpt>
      <trkpt lat="45.92527" lon="4.6865">
        <ele>375</ele>
        <time>2018-02-04T11:18:22Z</time>
      </trkpt>
      <trkpt lat="45.92535" lon="4.68651">
        <ele>375</ele>
        <time>2018-02-04T11:18:23Z</time>
      </trkpt>
      <trkpt lat="45.92542" lon="4.68654">
        <ele>374</ele>
        <time>2018-02-04T11:18:24Z</time>
      </trkpt>
      <trkpt lat="45.92549" lon="4.68656">
        <ele>374</ele>
        <time>2018-02-04T11:18:25Z</time>
      </trkpt>
      <trkpt lat="45.92555" lon="4.68657">
        <ele>374</ele>
        <time>2018-02-04T11:18:26Z</time>
      </trkpt>
      <trkpt lat="45.9256" lon="4.68656">
        <ele>374</ele>
        <time>2018-02-04T11:18:27Z</time>
      </trkpt>
      <trkpt lat="45.92565" lon="4.68653">
        <ele>374</ele>
        <time>2018-02-04T11:18:28Z</time>
      </trkpt>
      <trkpt lat="45.9257" lon="4.68649">
        <ele>374</ele>
        <time>2018-02-04T11:18:29Z</time>
      </trkpt>
      <trkpt lat="45.92575" lon="4.68645">
        <ele>374</ele>
        <time>2018-02-04T11:18:30Z</time>
      </trkpt>
      <trkpt lat="45.92579" lon="4.68644">
        <ele>373</ele>
        <time>2018-02-04T11:18:31Z</time>
      </trkpt>
      <trkpt lat="45.92587" lon="4.68639">
        <ele>370</ele>
        <time>2018-02-04T11:18:33Z</time>
      </trkpt>
      <trkpt lat="45.92587" lon="4.68637">
        <ele>370</ele>
        <time>2018-02-04T11:18:34Z</time>
      </trkpt>
      <trkpt lat="45.92595" lon="4.68635">
        <ele>370</ele>
        <time>2018-02-04T11:18:37Z</time>
      </trkpt>
      <trkpt lat="45.92597" lon="4.68634">
        <ele>370</ele>
        <time>2018-02-04T11:18:38Z</time>
      </trkpt>
      <trkpt lat="45.92604" lon="4.68628">
        <ele>369</ele>
        <time>2018-02-04T11:18:40Z</time>
      </trkpt>
      <trkpt lat="45.92608" lon="4.68627">
        <ele>369</ele>
        <time>2018-02-04T11:18:41Z</time>
      </trkpt>
      <trkpt lat="45.92614" lon="4.68627">
        <ele>369</ele>
        <time>2018-02-04T11:18:42Z</time>
      </trkpt>
      <trkpt lat="45.92619" lon="4.68624">
        <ele>368</ele>
        <time>2018-02-04T11:18:43Z</time>
      </trkpt>
      <trkpt lat="45.92624" lon="4.68623">
        <ele>368</ele>
        <time>2018-02-04T11:18:44Z</time>
      </trkpt>
      <trkpt lat="45.9263" lon="4.68622">
        <ele>368</ele>
        <time>2018-02-04T11:18:45Z</time>
      </trkpt>
      <trkpt lat="45.92635" lon="4.6862">
        <ele>368</ele>
        <time>2018-02-04T11:18:46Z</time>
      </trkpt>
      <trkpt lat="45.9264" lon="4.68619">
        <ele>368</ele>
        <time>2018-02-04T11:18:47Z</time>
      </trkpt>
      <trkpt lat="45.92645" lon="4.68617">
        <ele>367</ele>
        <time>2018-02-04T11:18:48Z</time>
      </trkpt>
      <trkpt lat="45.9265" lon="4.68613">
        <ele>367</ele>
        <time>2018-02-04T11:18:49Z</time>
      </trkpt>
      <trkpt lat="45.92654" lon="4.68612">
        <ele>367</ele>
        <time>2018-02-04T11:18:50Z</time>
      </trkpt>
      <trkpt lat="45.92659" lon="4.68609">
        <ele>367</ele>
        <time>2018-02-04T11:18:51Z</time>
      </trkpt>
      <trkpt lat="45.92665" lon="4.68607">
        <ele>367</ele>
        <time>2018-02-04T11:18:52Z</time>
      </trkpt>
      <trkpt lat="45.92669" lon="4.68605">
        <ele>364</ele>
        <time>2018-02-04T11:18:53Z</time>
      </trkpt>
      <trkpt lat="45.92677" lon="4.68601">
        <ele>364</ele>
        <time>2018-02-04T11:18:55Z</time>
      </trkpt>
      <trkpt lat="45.92682" lon="4.68598">
        <ele>364</ele>
        <time>2018-02-04T11:18:56Z</time>
      </trkpt>
      <trkpt lat="45.92686" lon="4.68595">
        <ele>364</ele>
        <time>2018-02-04T11:18:57Z</time>
      </trkpt>
      <trkpt lat="45.92691" lon="4.68593">
        <ele>364</ele>
        <time>2018-02-04T11:18:58Z</time>
      </trkpt>
      <trkpt lat="45.92696" lon="4.68589">
        <ele>364</ele>
        <time>2018-02-04T11:18:59Z</time>
      </trkpt>
      <trkpt lat="45.92701" lon="4.68587">
        <ele>364</ele>
        <time>2018-02-04T11:19:00Z</time>
      </trkpt>
      <trkpt lat="45.92706" lon="4.68585">
        <ele>364</ele>
        <time>2018-02-04T11:19:01Z</time>
      </trkpt>
      <trkpt lat="45.92712" lon="4.68583">
        <ele>366</ele>
        <time>2018-02-04T11:19:02Z</time>
      </trkpt>
      <trkpt lat="45.92717" lon="4.68581">
        <ele>366</ele>
        <time>2018-02-04T11:19:03Z</time>
      </trkpt>
      <trkpt lat="45.92722" lon="4.6858">
        <ele>366</ele>
        <time>2018-02-04T11:19:04Z</time>
      </trkpt>
      <trkpt lat="45.92728" lon="4.68578">
        <ele>366</ele>
        <time>2018-02-04T11:19:05Z</time>
      </trkpt>
      <trkpt lat="45.92734" lon="4.68576">
        <ele>366</ele>
        <time>2018-02-04T11:19:06Z</time>
      </trkpt>
      <trkpt lat="45.92739" lon="4.68575">
        <ele>366</ele>
        <time>2018-02-04T11:19:07Z</time>
      </trkpt>
      <trkpt lat="45.92746" lon="4.68574">
        <ele>366</ele>
        <time>2018-02-04T11:19:08Z</time>
      </trkpt>
      <trkpt lat="45.92752" lon="4.68574">
        <ele>366</ele>
        <time>2018-02-04T11:19:09Z</time>
      </trkpt>
      <trkpt lat="45.92759" lon="4.68573">
        <ele>366</ele>
        <time>2018-02-04T11:19:10Z</time>
      </trkpt>
      <trkpt lat="45.92765" lon="4.68574">
        <ele>365</ele>
        <time>2018-02-04T11:19:11Z</time>
      </trkpt>
      <trkpt lat="45.92771" lon="4.68574">
        <ele>365</ele>
        <time>2018-02-04T11:19:12Z</time>
      </trkpt>
      <trkpt lat="45.92777" lon="4.68574">
        <ele>365</ele>
        <time>2018-02-04T11:19:13Z</time>
      </trkpt>
      <trkpt lat="45.92783" lon="4.68575">
        <ele>365</ele>
        <time>2018-02-04T11:19:14Z</time>
      </trkpt>
      <trkpt lat="45.9279" lon="4.68577">
        <ele>364</ele>
        <time>2018-02-04T11:19:15Z</time>
      </trkpt>
      <trkpt lat="45.92795" lon="4.68579">
        <ele>364</ele>
        <time>2018-02-04T11:19:16Z</time>
      </trkpt>
      <trkpt lat="45.92802" lon="4.6858">
        <ele>364</ele>
        <time>2018-02-04T11:19:17Z</time>
      </trkpt>
      <trkpt lat="45.92808" lon="4.68581">
        <ele>363</ele>
        <time>2018-02-04T11:19:18Z</time>
      </trkpt>
      <trkpt lat="45.92815" lon="4.68583">
        <ele>363</ele>
        <time>2018-02-04T11:19:19Z</time>
      </trkpt>
      <trkpt lat="45.92821" lon="4.68584">
        <ele>361</ele>
        <time>2018-02-04T11:19:20Z</time>
      </trkpt>
      <trkpt lat="45.92829" lon="4.68585">
        <ele>361</ele>
        <time>2018-02-04T11:19:21Z</time>
      </trkpt>
      <trkpt lat="45.92835" lon="4.68586">
        <ele>361</ele>
        <time>2018-02-04T11:19:22Z</time>
      </trkpt>
      <trkpt lat="45.92842" lon="4.68587">
        <ele>360</ele>
        <time>2018-02-04T11:19:23Z</time>
      </trkpt>
      <trkpt lat="45.9285" lon="4.68588">
        <ele>359</ele>
        <time>2018-02-04T11:19:24Z</time>
      </trkpt>
      <trkpt lat="45.92858" lon="4.68589">
        <ele>359</ele>
        <time>2018-02-04T11:19:25Z</time>
      </trkpt>
      <trkpt lat="45.92865" lon="4.6859">
        <ele>359</ele>
        <time>2018-02-04T11:19:26Z</time>
      </trkpt>
      <trkpt lat="45.92872" lon="4.68591">
        <ele>359</ele>
        <time>2018-02-04T11:19:27Z</time>
      </trkpt>
      <trkpt lat="45.9288" lon="4.68592">
        <ele>358</ele>
        <time>2018-02-04T11:19:28Z</time>
      </trkpt>
      <trkpt lat="45.92888" lon="4.68593">
        <ele>358</ele>
        <time>2018-02-04T11:19:29Z</time>
      </trkpt>
      <trkpt lat="45.92895" lon="4.68596">
        <ele>358</ele>
        <time>2018-02-04T11:19:30Z</time>
      </trkpt>
      <trkpt lat="45.92903" lon="4.68597">
        <ele>358</ele>
        <time>2018-02-04T11:19:31Z</time>
      </trkpt>
      <trkpt lat="45.92911" lon="4.68597">
        <ele>358</ele>
        <time>2018-02-04T11:19:32Z</time>
      </trkpt>
      <trkpt lat="45.92919" lon="4.68598">
        <ele>359</ele>
        <time>2018-02-04T11:19:33Z</time>
      </trkpt>
      <trkpt lat="45.92926" lon="4.68599">
        <ele>359</ele>
        <time>2018-02-04T11:19:34Z</time>
      </trkpt>
      <trkpt lat="45.92934" lon="4.68601">
        <ele>358</ele>
        <time>2018-02-04T11:19:35Z</time>
      </trkpt>
      <trkpt lat="45.92942" lon="4.68602">
        <ele>358</ele>
        <time>2018-02-04T11:19:36Z</time>
      </trkpt>
      <trkpt lat="45.92949" lon="4.68605">
        <ele>358</ele>
        <time>2018-02-04T11:19:37Z</time>
      </trkpt>
      <trkpt lat="45.92957" lon="4.68606">
        <ele>358</ele>
        <time>2018-02-04T11:19:38Z</time>
      </trkpt>
      <trkpt lat="45.92964" lon="4.68608">
        <ele>358</ele>
        <time>2018-02-04T11:19:39Z</time>
      </trkpt>
      <trkpt lat="45.92972" lon="4.68609">
        <ele>358</ele>
        <time>2018-02-04T11:19:40Z</time>
      </trkpt>
      <trkpt lat="45.9298" lon="4.68611">
        <ele>358</ele>
        <time>2018-02-04T11:19:41Z</time>
      </trkpt>
      <trkpt lat="45.92988" lon="4.68612">
        <ele>358</ele>
        <time>2018-02-04T11:19:42Z</time>
      </trkpt>
      <trkpt lat="45.92996" lon="4.68614">
        <ele>358</ele>
        <time>2018-02-04T11:19:43Z</time>
      </trkpt>
      <trkpt lat="45.93003" lon="4.68616">
        <ele>356</ele>
        <time>2018-02-04T11:19:44Z</time>
      </trkpt>
      <trkpt lat="45.9301" lon="4.68618">
        <ele>356</ele>
        <time>2018-02-04T11:19:45Z</time>
      </trkpt>
      <trkpt lat="45.93017" lon="4.68621">
        <ele>356</ele>
        <time>2018-02-04T11:19:46Z</time>
      </trkpt>
      <trkpt lat="45.93025" lon="4.68623">
        <ele>356</ele>
        <time>2018-02-04T11:19:47Z</time>
      </trkpt>
      <trkpt lat="45.93033" lon="4.68624">
        <ele>355</ele>
        <time>2018-02-04T11:19:48Z</time>
      </trkpt>
      <trkpt lat="45.93041" lon="4.68625">
        <ele>355</ele>
        <time>2018-02-04T11:19:49Z</time>
      </trkpt>
      <trkpt lat="45.93049" lon="4.68626">
        <ele>355</ele>
        <time>2018-02-04T11:19:50Z</time>
      </trkpt>
      <trkpt lat="45.93057" lon="4.68628">
        <ele>354</ele>
        <time>2018-02-04T11:19:51Z</time>
      </trkpt>
      <trkpt lat="45.93065" lon="4.6863">
        <ele>354</ele>
        <time>2018-02-04T11:19:52Z</time>
      </trkpt>
      <trkpt lat="45.93074" lon="4.68632">
        <ele>354</ele>
        <time>2018-02-04T11:19:53Z</time>
      </trkpt>
      <trkpt lat="45.93083" lon="4.68634">
        <ele>354</ele>
        <time>2018-02-04T11:19:54Z</time>
      </trkpt>
      <trkpt lat="45.93092" lon="4.68635">
        <ele>349</ele>
        <time>2018-02-04T11:19:55Z</time>
      </trkpt>
      <trkpt lat="45.931" lon="4.68637">
        <ele>349</ele>
        <time>2018-02-04T11:19:56Z</time>
      </trkpt>
      <trkpt lat="45.9311" lon="4.68639">
        <ele>349</ele>
        <time>2018-02-04T11:19:57Z</time>
      </trkpt>
      <trkpt lat="45.93119" lon="4.68641">
        <ele>348</ele>
        <time>2018-02-04T11:19:58Z</time>
      </trkpt>
      <trkpt lat="45.93128" lon="4.68643">
        <ele>348</ele>
        <time>2018-02-04T11:19:59Z</time>
      </trkpt>
      <trkpt lat="45.93137" lon="4.68645">
        <ele>347</ele>
        <time>2018-02-04T11:20:00Z</time>
      </trkpt>
      <trkpt lat="45.93146" lon="4.68648">
        <ele>347</ele>
        <time>2018-02-04T11:20:01Z</time>
      </trkpt>
      <trkpt lat="45.93156" lon="4.6865">
        <ele>347</ele>
        <time>2018-02-04T11:20:02Z</time>
      </trkpt>
      <trkpt lat="45.93165" lon="4.68653">
        <ele>347</ele>
        <time>2018-02-04T11:20:03Z</time>
      </trkpt>
      <trkpt lat="45.93175" lon="4.68655">
        <ele>345</ele>
        <time>2018-02-04T11:20:04Z</time>
      </trkpt>
      <trkpt lat="45.93185" lon="4.68657">
        <ele>345</ele>
        <time>2018-02-04T11:20:05Z</time>
      </trkpt>
      <trkpt lat="45.93194" lon="4.68659">
        <ele>345</ele>
        <time>2018-02-04T11:20:06Z</time>
      </trkpt>
      <trkpt lat="45.93203" lon="4.68662">
        <ele>344</ele>
        <time>2018-02-04T11:20:07Z</time>
      </trkpt>
      <trkpt lat="45.93212" lon="4.68664">
        <ele>344</ele>
        <time>2018-02-04T11:20:08Z</time>
      </trkpt>
      <trkpt lat="45.9322" lon="4.68667">
        <ele>344</ele>
        <time>2018-02-04T11:20:09Z</time>
      </trkpt>
      <trkpt lat="45.93229" lon="4.68668">
        <ele>345</ele>
        <time>2018-02-04T11:20:10Z</time>
      </trkpt>
      <trkpt lat="45.93238" lon="4.6867">
        <ele>344</ele>
        <time>2018-02-04T11:20:11Z</time>
      </trkpt>
      <trkpt lat="45.93246" lon="4.68671">
        <ele>344</ele>
        <time>2018-02-04T11:20:12Z</time>
      </trkpt>
      <trkpt lat="45.93254" lon="4.68673">
        <ele>344</ele>
        <time>2018-02-04T11:20:13Z</time>
      </trkpt>
      <trkpt lat="45.93263" lon="4.68675">
        <ele>344</ele>
        <time>2018-02-04T11:20:14Z</time>
      </trkpt>
      <trkpt lat="45.93272" lon="4.68676">
        <ele>344</ele>
        <time>2018-02-04T11:20:15Z</time>
      </trkpt>
      <trkpt lat="45.93279" lon="4.68678">
        <ele>344</ele>
        <time>2018-02-04T11:20:16Z</time>
      </trkpt>
      <trkpt lat="45.93287" lon="4.68679">
        <ele>344</ele>
        <time>2018-02-04T11:20:17Z</time>
      </trkpt>
      <trkpt lat="45.93295" lon="4.68682">
        <ele>344</ele>
        <time>2018-02-04T11:20:18Z</time>
      </trkpt>
      <trkpt lat="45.93303" lon="4.68683">
        <ele>344</ele>
        <time>2018-02-04T11:20:19Z</time>
      </trkpt>
      <trkpt lat="45.93311" lon="4.68685">
        <ele>344</ele>
        <time>2018-02-04T11:20:20Z</time>
      </trkpt>
      <trkpt lat="45.93318" lon="4.68687">
        <ele>344</ele>
        <time>2018-02-04T11:20:21Z</time>
      </trkpt>
      <trkpt lat="45.93326" lon="4.6869">
        <ele>344</ele>
        <time>2018-02-04T11:20:22Z</time>
      </trkpt>
      <trkpt lat="45.93333" lon="4.68692">
        <ele>344</ele>
        <time>2018-02-04T11:20:23Z</time>
      </trkpt>
      <trkpt lat="45.93341" lon="4.68693">
        <ele>344</ele>
        <time>2018-02-04T11:20:24Z</time>
      </trkpt>
      <trkpt lat="45.93348" lon="4.68695">
        <ele>344</ele>
        <time>2018-02-04T11:20:25Z</time>
      </trkpt>
      <trkpt lat="45.93355" lon="4.68697">
        <ele>344</ele>
        <time>2018-02-04T11:20:26Z</time>
      </trkpt>
      <trkpt lat="45.93363" lon="4.68699">
        <ele>344</ele>
        <time>2018-02-04T11:20:27Z</time>
      </trkpt>
      <trkpt lat="45.9337" lon="4.68702">
        <ele>344</ele>
        <time>2018-02-04T11:20:28Z</time>
      </trkpt>
      <trkpt lat="45.93377" lon="4.68703">
        <ele>344</ele>
        <time>2018-02-04T11:20:29Z</time>
      </trkpt>
      <trkpt lat="45.93384" lon="4.68705">
        <ele>344</ele>
        <time>2018-02-04T11:20:30Z</time>
      </trkpt>
      <trkpt lat="45.93391" lon="4.68706">
        <ele>344</ele>
        <time>2018-02-04T11:20:31Z</time>
      </trkpt>
      <trkpt lat="45.93399" lon="4.68708">
        <ele>343</ele>
        <time>2018-02-04T11:20:32Z</time>
      </trkpt>
      <trkpt lat="45.93405" lon="4.68711">
        <ele>343</ele>
        <time>2018-02-04T11:20:33Z</time>
      </trkpt>
      <trkpt lat="45.93411" lon="4.68712">
        <ele>343</ele>
        <time>2018-02-04T11:20:34Z</time>
      </trkpt>
      <trkpt lat="45.93418" lon="4.68714">
        <ele>343</ele>
        <time>2018-02-04T11:20:35Z</time>
      </trkpt>
      <trkpt lat="45.93425" lon="4.68716">
        <ele>343</ele>
        <time>2018-02-04T11:20:36Z</time>
      </trkpt>
      <trkpt lat="45.93432" lon="4.68717">
        <ele>343</ele>
        <time>2018-02-04T11:20:37Z</time>
      </trkpt>
      <trkpt lat="45.9344" lon="4.68718">
        <ele>343</ele>
        <time>2018-02-04T11:20:38Z</time>
      </trkpt>
      <trkpt lat="45.93447" lon="4.68719">
        <ele>343</ele>
        <time>2018-02-04T11:20:39Z</time>
      </trkpt>
      <trkpt lat="45.93453" lon="4.68721">
        <ele>342</ele>
        <time>2018-02-04T11:20:40Z</time>
      </trkpt>
      <trkpt lat="45.93461" lon="4.68722">
        <ele>342</ele>
        <time>2018-02-04T11:20:41Z</time>
      </trkpt>
      <trkpt lat="45.93467" lon="4.68724">
        <ele>342</ele>
        <time>2018-02-04T11:20:42Z</time>
      </trkpt>
      <trkpt lat="45.93475" lon="4.68726">
        <ele>342</ele>
        <time>2018-02-04T11:20:43Z</time>
      </trkpt>
      <trkpt lat="45.93482" lon="4.68727">
        <ele>342</ele>
        <time>2018-02-04T11:20:44Z</time>
      </trkpt>
      <trkpt lat="45.93489" lon="4.68729">
        <ele>342</ele>
        <time>2018-02-04T11:20:45Z</time>
      </trkpt>
      <trkpt lat="45.93496" lon="4.68731">
        <ele>342</ele>
        <time>2018-02-04T11:20:46Z</time>
      </trkpt>
      <trkpt lat="45.93503" lon="4.68733">
        <ele>342</ele>
        <time>2018-02-04T11:20:47Z</time>
      </trkpt>
      <trkpt lat="45.9351" lon="4.68735">
        <ele>342</ele>
        <time>2018-02-04T11:20:48Z</time>
      </trkpt>
      <trkpt lat="45.93518" lon="4.68736">
        <ele>342</ele>
        <time>2018-02-04T11:20:49Z</time>
      </trkpt>
      <trkpt lat="45.93525" lon="4.68739">
        <ele>342</ele>
        <time>2018-02-04T11:20:50Z</time>
      </trkpt>
      <trkpt lat="45.93532" lon="4.68741">
        <ele>342</ele>
        <time>2018-02-04T11:20:51Z</time>
      </trkpt>
      <trkpt lat="45.93539" lon="4.68743">
        <ele>342</ele>
        <time>2018-02-04T11:20:52Z</time>
      </trkpt>
      <trkpt lat="45.93546" lon="4.68744">
        <ele>342</ele>
        <time>2018-02-04T11:20:53Z</time>
      </trkpt>
      <trkpt lat="45.93553" lon="4.68745">
        <ele>342</ele>
        <time>2018-02-04T11:20:54Z</time>
      </trkpt>
      <trkpt lat="45.9356" lon="4.68748">
        <ele>342</ele>
        <time>2018-02-04T11:20:55Z</time>
      </trkpt>
      <trkpt lat="45.93566" lon="4.6875">
        <ele>343</ele>
        <time>2018-02-04T11:20:56Z</time>
      </trkpt>
      <trkpt lat="45.93573" lon="4.68751">
        <ele>344</ele>
        <time>2018-02-04T11:20:57Z</time>
      </trkpt>
      <trkpt lat="45.9358" lon="4.68753">
        <ele>344</ele>
        <time>2018-02-04T11:20:58Z</time>
      </trkpt>
      <trkpt lat="45.93588" lon="4.68753">
        <ele>344</ele>
        <time>2018-02-04T11:20:59Z</time>
      </trkpt>
      <trkpt lat="45.93595" lon="4.68755">
        <ele>344</ele>
        <time>2018-02-04T11:21:00Z</time>
      </trkpt>
      <trkpt lat="45.93601" lon="4.68756">
        <ele>344</ele>
        <time>2018-02-04T11:21:01Z</time>
      </trkpt>
      <trkpt lat="45.93608" lon="4.68757">
        <ele>344</ele>
        <time>2018-02-04T11:21:02Z</time>
      </trkpt>
      <trkpt lat="45.93615" lon="4.68758">
        <ele>343</ele>
        <time>2018-02-04T11:21:03Z</time>
      </trkpt>
      <trkpt lat="45.93622" lon="4.6876">
        <ele>343</ele>
        <time>2018-02-04T11:21:04Z</time>
      </trkpt>
      <trkpt lat="45.93628" lon="4.68764">
        <ele>343</ele>
        <time>2018-02-04T11:21:05Z</time>
      </trkpt>
      <trkpt lat="45.93634" lon="4.68766">
        <ele>343</ele>
        <time>2018-02-04T11:21:06Z</time>
      </trkpt>
      <trkpt lat="45.9364" lon="4.68769">
        <ele>343</ele>
        <time>2018-02-04T11:21:07Z</time>
      </trkpt>
      <trkpt lat="45.93647" lon="4.68772">
        <ele>343</ele>
        <time>2018-02-04T11:21:08Z</time>
      </trkpt>
      <trkpt lat="45.93653" lon="4.68773">
        <ele>343</ele>
        <time>2018-02-04T11:21:09Z</time>
      </trkpt>
      <trkpt lat="45.93659" lon="4.68774">
        <ele>343</ele>
        <time>2018-02-04T11:21:10Z</time>
      </trkpt>
      <trkpt lat="45.93666" lon="4.68775">
        <ele>343</ele>
        <time>2018-02-04T11:21:11Z</time>
      </trkpt>
      <trkpt lat="45.93673" lon="4.68776">
        <ele>342</ele>
        <time>2018-02-04T11:21:12Z</time>
      </trkpt>
      <trkpt lat="45.93679" lon="4.68777">
        <ele>342</ele>
        <time>2018-02-04T11:21:13Z</time>
      </trkpt>
      <trkpt lat="45.93685" lon="4.68779">
        <ele>342</ele>
        <time>2018-02-04T11:21:14Z</time>
      </trkpt>
      <trkpt lat="45.93692" lon="4.68781">
        <ele>342</ele>
        <time>2018-02-04T11:21:15Z</time>
      </trkpt>
      <trkpt lat="45.93698" lon="4.68782">
        <ele>342</ele>
        <time>2018-02-04T11:21:16Z</time>
      </trkpt>
      <trkpt lat="45.93705" lon="4.68783">
        <ele>342</ele>
        <time>2018-02-04T11:21:17Z</time>
      </trkpt>
      <trkpt lat="45.93711" lon="4.68785">
        <ele>342</ele>
        <time>2018-02-04T11:21:18Z</time>
      </trkpt>
      <trkpt lat="45.93717" lon="4.68786">
        <ele>342</ele>
        <time>2018-02-04T11:21:19Z</time>
      </trkpt>
      <trkpt lat="45.93723" lon="4.68788">
        <ele>342</ele>
        <time>2018-02-04T11:21:20Z</time>
      </trkpt>
      <trkpt lat="45.93729" lon="4.6879">
        <ele>342</ele>
        <time>2018-02-04T11:21:21Z</time>
      </trkpt>
      <trkpt lat="45.93735" lon="4.68792">
        <ele>342</ele>
        <time>2018-02-04T11:21:22Z</time>
      </trkpt>
      <trkpt lat="45.93741" lon="4.68794">
        <ele>342</ele>
        <time>2018-02-04T11:21:23Z</time>
      </trkpt>
      <trkpt lat="45.93747" lon="4.68796">
        <ele>342</ele>
        <time>2018-02-04T11:21:24Z</time>
      </trkpt>
      <trkpt lat="45.93752" lon="4.68798">
        <ele>341</ele>
        <time>2018-02-04T11:21:25Z</time>
      </trkpt>
      <trkpt lat="45.93757" lon="4.68798">
        <ele>341</ele>
        <time>2018-02-04T11:21:26Z</time>
      </trkpt>
      <trkpt lat="45.93763" lon="4.688">
        <ele>341</ele>
        <time>2018-02-04T11:21:27Z</time>
      </trkpt>
      <trkpt lat="45.93771" lon="4.68802">
        <ele>341</ele>
        <time>2018-02-04T11:21:28Z</time>
      </trkpt>
      <trkpt lat="45.93777" lon="4.68804">
        <ele>341</ele>
        <time>2018-02-04T11:21:29Z</time>
      </trkpt>
      <trkpt lat="45.93784" lon="4.68806">
        <ele>341</ele>
        <time>2018-02-04T11:21:30Z</time>
      </trkpt>
      <trkpt lat="45.93791" lon="4.6881">
        <ele>341</ele>
        <time>2018-02-04T11:21:31Z</time>
      </trkpt>
      <trkpt lat="45.93798" lon="4.68813">
        <ele>341</ele>
        <time>2018-02-04T11:21:32Z</time>
      </trkpt>
      <trkpt lat="45.93805" lon="4.68817">
        <ele>341</ele>
        <time>2018-02-04T11:21:33Z</time>
      </trkpt>
      <trkpt lat="45.93812" lon="4.6882">
        <ele>341</ele>
        <time>2018-02-04T11:21:34Z</time>
      </trkpt>
      <trkpt lat="45.93819" lon="4.68824">
        <ele>341</ele>
        <time>2018-02-04T11:21:35Z</time>
      </trkpt>
      <trkpt lat="45.93825" lon="4.68829">
        <ele>342</ele>
        <time>2018-02-04T11:21:36Z</time>
      </trkpt>
      <trkpt lat="45.93832" lon="4.68833">
        <ele>342</ele>
        <time>2018-02-04T11:21:37Z</time>
      </trkpt>
      <trkpt lat="45.93837" lon="4.68838">
        <ele>342</ele>
        <time>2018-02-04T11:21:38Z</time>
      </trkpt>
      <trkpt lat="45.93843" lon="4.68842">
        <ele>342</ele>
        <time>2018-02-04T11:21:39Z</time>
      </trkpt>
      <trkpt lat="45.93849" lon="4.68846">
        <ele>342</ele>
        <time>2018-02-04T11:21:40Z</time>
      </trkpt>
      <trkpt lat="45.93855" lon="4.68851">
        <ele>342</ele>
        <time>2018-02-04T11:21:41Z</time>
      </trkpt>
      <trkpt lat="45.9386" lon="4.68855">
        <ele>342</ele>
        <time>2018-02-04T11:21:42Z</time>
      </trkpt>
      <trkpt lat="45.93866" lon="4.68859">
        <ele>342</ele>
        <time>2018-02-04T11:21:43Z</time>
      </trkpt>
      <trkpt lat="45.9387" lon="4.68862">
        <ele>342</ele>
        <time>2018-02-04T11:21:44Z</time>
      </trkpt>
      <trkpt lat="45.93876" lon="4.68866">
        <ele>343</ele>
        <time>2018-02-04T11:21:45Z</time>
      </trkpt>
      <trkpt lat="45.93881" lon="4.6887">
        <ele>343</ele>
        <time>2018-02-04T11:21:46Z</time>
      </trkpt>
      <trkpt lat="45.93887" lon="4.68875">
        <ele>343</ele>
        <time>2018-02-04T11:21:47Z</time>
      </trkpt>
      <trkpt lat="45.93892" lon="4.68877">
        <ele>342</ele>
        <time>2018-02-04T11:21:48Z</time>
      </trkpt>
      <trkpt lat="45.93898" lon="4.6888">
        <ele>342</ele>
        <time>2018-02-04T11:21:49Z</time>
      </trkpt>
      <trkpt lat="45.93903" lon="4.68883">
        <ele>342</ele>
        <time>2018-02-04T11:21:50Z</time>
      </trkpt>
      <trkpt lat="45.93909" lon="4.68885">
        <ele>342</ele>
        <time>2018-02-04T11:21:51Z</time>
      </trkpt>
      <trkpt lat="45.93914" lon="4.68887">
        <ele>342</ele>
        <time>2018-02-04T11:21:52Z</time>
      </trkpt>
      <trkpt lat="45.9392" lon="4.68889">
        <ele>342</ele>
        <time>2018-02-04T11:21:53Z</time>
      </trkpt>
      <trkpt lat="45.93927" lon="4.6889">
        <ele>342</ele>
        <time>2018-02-04T11:21:54Z</time>
      </trkpt>
      <trkpt lat="45.93932" lon="4.68892">
        <ele>342</ele>
        <time>2018-02-04T11:21:55Z</time>
      </trkpt>
      <trkpt lat="45.93939" lon="4.68893">
        <ele>342</ele>
        <time>2018-02-04T11:21:56Z</time>
      </trkpt>
      <trkpt lat="45.93945" lon="4.68895">
        <ele>342</ele>
        <time>2018-02-04T11:21:57Z</time>
      </trkpt>
      <trkpt lat="45.9395" lon="4.68897">
        <ele>342</ele>
        <time>2018-02-04T11:21:58Z</time>
      </trkpt>
      <trkpt lat="45.93956" lon="4.68901">
        <ele>342</ele>
        <time>2018-02-04T11:21:59Z</time>
      </trkpt>
      <trkpt lat="45.93962" lon="4.68902">
        <ele>342</ele>
        <time>2018-02-04T11:22:00Z</time>
      </trkpt>
      <trkpt lat="45.93967" lon="4.68904">
        <ele>342</ele>
        <time>2018-02-04T11:22:01Z</time>
      </trkpt>
      <trkpt lat="45.93973" lon="4.68907">
        <ele>342</ele>
        <time>2018-02-04T11:22:02Z</time>
      </trkpt>
      <trkpt lat="45.93979" lon="4.68908">
        <ele>342</ele>
        <time>2018-02-04T11:22:03Z</time>
      </trkpt>
      <trkpt lat="45.93985" lon="4.68911">
        <ele>342</ele>
        <time>2018-02-04T11:22:04Z</time>
      </trkpt>
      <trkpt lat="45.93991" lon="4.68913">
        <ele>342</ele>
        <time>2018-02-04T11:22:05Z</time>
      </trkpt>
      <trkpt lat="45.93997" lon="4.68916">
        <ele>342</ele>
        <time>2018-02-04T11:22:06Z</time>
      </trkpt>
      <trkpt lat="45.94003" lon="4.68918">
        <ele>342</ele>
        <time>2018-02-04T11:22:07Z</time>
      </trkpt>
      <trkpt lat="45.9401" lon="4.68921">
        <ele>342</ele>
        <time>2018-02-04T11:22:08Z</time>
      </trkpt>
      <trkpt lat="45.94015" lon="4.68923">
        <ele>341</ele>
        <time>2018-02-04T11:22:09Z</time>
      </trkpt>
      <trkpt lat="45.94021" lon="4.68926">
        <ele>341</ele>
        <time>2018-02-04T11:22:10Z</time>
      </trkpt>
      <trkpt lat="45.94027" lon="4.68928">
        <ele>341</ele>
        <time>2018-02-04T11:22:11Z</time>
      </trkpt>
      <trkpt lat="45.94034" lon="4.6893">
        <ele>341</ele>
        <time>2018-02-04T11:22:12Z</time>
      </trkpt>
      <trkpt lat="45.94041" lon="4.68932">
        <ele>341</ele>
        <time>2018-02-04T11:22:13Z</time>
      </trkpt>
      <trkpt lat="45.94047" lon="4.68936">
        <ele>341</ele>
        <time>2018-02-04T11:22:14Z</time>
      </trkpt>
      <trkpt lat="45.94052" lon="4.6894">
        <ele>341</ele>
        <time>2018-02-04T11:22:15Z</time>
      </trkpt>
      <trkpt lat="45.94058" lon="4.68944">
        <ele>341</ele>
        <time>2018-02-04T11:22:16Z</time>
      </trkpt>
      <trkpt lat="45.94065" lon="4.68947">
        <ele>341</ele>
        <time>2018-02-04T11:22:17Z</time>
      </trkpt>
      <trkpt lat="45.9407" lon="4.68949">
        <ele>341</ele>
        <time>2018-02-04T11:22:18Z</time>
      </trkpt>
      <trkpt lat="45.94077" lon="4.6895">
        <ele>341</ele>
        <time>2018-02-04T11:22:19Z</time>
      </trkpt>
      <trkpt lat="45.94083" lon="4.68951">
        <ele>341</ele>
        <time>2018-02-04T11:22:20Z</time>
      </trkpt>
      <trkpt lat="45.9409" lon="4.68951">
        <ele>340</ele>
        <time>2018-02-04T11:22:21Z</time>
      </trkpt>
      <trkpt lat="45.94097" lon="4.68953">
        <ele>340</ele>
        <time>2018-02-04T11:22:22Z</time>
      </trkpt>
      <trkpt lat="45.94104" lon="4.68954">
        <ele>340</ele>
        <time>2018-02-04T11:22:23Z</time>
      </trkpt>
      <trkpt lat="45.9411" lon="4.68956">
        <ele>340</ele>
        <time>2018-02-04T11:22:24Z</time>
      </trkpt>
      <trkpt lat="45.94116" lon="4.68959">
        <ele>340</ele>
        <time>2018-02-04T11:22:25Z</time>
      </trkpt>
      <trkpt lat="45.94122" lon="4.68961">
        <ele>340</ele>
        <time>2018-02-04T11:22:26Z</time>
      </trkpt>
      <trkpt lat="45.94128" lon="4.68963">
        <ele>340</ele>
        <time>2018-02-04T11:22:27Z</time>
      </trkpt>
      <trkpt lat="45.94135" lon="4.68964">
        <ele>340</ele>
        <time>2018-02-04T11:22:28Z</time>
      </trkpt>
      <trkpt lat="45.94141" lon="4.68965">
        <ele>340</ele>
        <time>2018-02-04T11:22:29Z</time>
      </trkpt>
      <trkpt lat="45.94146" lon="4.68967">
        <ele>340</ele>
        <time>2018-02-04T11:22:30Z</time>
      </trkpt>
      <trkpt lat="45.94152" lon="4.68968">
        <ele>340</ele>
        <time>2018-02-04T11:22:31Z</time>
      </trkpt>
      <trkpt lat="45.94158" lon="4.68971">
        <ele>340</ele>
        <time>2018-02-04T11:22:32Z</time>
      </trkpt>
      <trkpt lat="45.94164" lon="4.68973">
        <ele>340</ele>
        <time>2018-02-04T11:22:33Z</time>
      </trkpt>
      <trkpt lat="45.94171" lon="4.68976">
        <ele>339</ele>
        <time>2018-02-04T11:22:34Z</time>
      </trkpt>
      <trkpt lat="45.94177" lon="4.68978">
        <ele>339</ele>
        <time>2018-02-04T11:22:35Z</time>
      </trkpt>
      <trkpt lat="45.94183" lon="4.6898">
        <ele>338</ele>
        <time>2018-02-04T11:22:36Z</time>
      </trkpt>
      <trkpt lat="45.9419" lon="4.68982">
        <ele>338</ele>
        <time>2018-02-04T11:22:37Z</time>
      </trkpt>
      <trkpt lat="45.94195" lon="4.68985">
        <ele>338</ele>
        <time>2018-02-04T11:22:38Z</time>
      </trkpt>
      <trkpt lat="45.94202" lon="4.68987">
        <ele>338</ele>
        <time>2018-02-04T11:22:39Z</time>
      </trkpt>
      <trkpt lat="45.94209" lon="4.68986">
        <ele>338</ele>
        <time>2018-02-04T11:22:40Z</time>
      </trkpt>
      <trkpt lat="45.94215" lon="4.68988">
        <ele>338</ele>
        <time>2018-02-04T11:22:41Z</time>
      </trkpt>
      <trkpt lat="45.94221" lon="4.6899">
        <ele>338</ele>
        <time>2018-02-04T11:22:42Z</time>
      </trkpt>
      <trkpt lat="45.94228" lon="4.68991">
        <ele>338</ele>
        <time>2018-02-04T11:22:43Z</time>
      </trkpt>
      <trkpt lat="45.94235" lon="4.68993">
        <ele>338</ele>
        <time>2018-02-04T11:22:44Z</time>
      </trkpt>
      <trkpt lat="45.94242" lon="4.68995">
        <ele>338</ele>
        <time>2018-02-04T11:22:45Z</time>
      </trkpt>
      <trkpt lat="45.94248" lon="4.68997">
        <ele>338</ele>
        <time>2018-02-04T11:22:46Z</time>
      </trkpt>
      <trkpt lat="45.94255" lon="4.68998">
        <ele>338</ele>
        <time>2018-02-04T11:22:47Z</time>
      </trkpt>
      <trkpt lat="45.94261" lon="4.69001">
        <ele>338</ele>
        <time>2018-02-04T11:22:48Z</time>
      </trkpt>
      <trkpt lat="45.94267" lon="4.69002">
        <ele>337</ele>
        <time>2018-02-04T11:22:49Z</time>
      </trkpt>
      <trkpt lat="45.94274" lon="4.69003">
        <ele>337</ele>
        <time>2018-02-04T11:22:50Z</time>
      </trkpt>
      <trkpt lat="45.9428" lon="4.69004">
        <ele>337</ele>
        <time>2018-02-04T11:22:51Z</time>
      </trkpt>
      <trkpt lat="45.94285" lon="4.69006">
        <ele>337</ele>
        <time>2018-02-04T11:22:52Z</time>
      </trkpt>
      <trkpt lat="45.94292" lon="4.69007">
        <ele>337</ele>
        <time>2018-02-04T11:22:53Z</time>
      </trkpt>
      <trkpt lat="45.94297" lon="4.69008">
        <ele>337</ele>
        <time>2018-02-04T11:22:54Z</time>
      </trkpt>
      <trkpt lat="45.94304" lon="4.69008">
        <ele>337</ele>
        <time>2018-02-04T11:22:55Z</time>
      </trkpt>
      <trkpt lat="45.9431" lon="4.69009">
        <ele>337</ele>
        <time>2018-02-04T11:22:56Z</time>
      </trkpt>
      <trkpt lat="45.94316" lon="4.69009">
        <ele>337</ele>
        <time>2018-02-04T11:22:57Z</time>
      </trkpt>
      <trkpt lat="45.94321" lon="4.69008">
        <ele>337</ele>
        <time>2018-02-04T11:22:58Z</time>
      </trkpt>
      <trkpt lat="45.94327" lon="4.6901">
        <ele>337</ele>
        <time>2018-02-04T11:22:59Z</time>
      </trkpt>
      <trkpt lat="45.94334" lon="4.6901">
        <ele>337</ele>
        <time>2018-02-04T11:23:00Z</time>
      </trkpt>
      <trkpt lat="45.9434" lon="4.69011">
        <ele>337</ele>
        <time>2018-02-04T11:23:01Z</time>
      </trkpt>
      <trkpt lat="45.94346" lon="4.69011">
        <ele>338</ele>
        <time>2018-02-04T11:23:02Z</time>
      </trkpt>
      <trkpt lat="45.94351" lon="4.69012">
        <ele>338</ele>
        <time>2018-02-04T11:23:03Z</time>
      </trkpt>
      <trkpt lat="45.94358" lon="4.69011">
        <ele>338</ele>
        <time>2018-02-04T11:23:04Z</time>
      </trkpt>
      <trkpt lat="45.94361" lon="4.69012">
        <ele>338</ele>
        <time>2018-02-04T11:23:05Z</time>
      </trkpt>
      <trkpt lat="45.94367" lon="4.69012">
        <ele>338</ele>
        <time>2018-02-04T11:23:06Z</time>
      </trkpt>
      <trkpt lat="45.94371" lon="4.69011">
        <ele>338</ele>
        <time>2018-02-04T11:23:07Z</time>
      </trkpt>
      <trkpt lat="45.94378" lon="4.69012">
        <ele>338</ele>
        <time>2018-02-04T11:23:08Z</time>
      </trkpt>
      <trkpt lat="45.94384" lon="4.69012">
        <ele>338</ele>
        <time>2018-02-04T11:23:09Z</time>
      </trkpt>
      <trkpt lat="45.94389" lon="4.69012">
        <ele>338</ele>
        <time>2018-02-04T11:23:10Z</time>
      </trkpt>
      <trkpt lat="45.94395" lon="4.69012">
        <ele>339</ele>
        <time>2018-02-04T11:23:11Z</time>
      </trkpt>
      <trkpt lat="45.944" lon="4.69013">
        <ele>339</ele>
        <time>2018-02-04T11:23:12Z</time>
      </trkpt>
      <trkpt lat="45.94404" lon="4.69013">
        <ele>339</ele>
        <time>2018-02-04T11:23:13Z</time>
      </trkpt>
      <trkpt lat="45.9441" lon="4.69013">
        <ele>339</ele>
        <time>2018-02-04T11:23:14Z</time>
      </trkpt>
      <trkpt lat="45.94415" lon="4.69012">
        <ele>339</ele>
        <time>2018-02-04T11:23:15Z</time>
      </trkpt>
      <trkpt lat="45.9442" lon="4.69011">
        <ele>340</ele>
        <time>2018-02-04T11:23:16Z</time>
      </trkpt>
      <trkpt lat="45.94425" lon="4.69012">
        <ele>340</ele>
        <time>2018-02-04T11:23:17Z</time>
      </trkpt>
      <trkpt lat="45.9443" lon="4.69011">
        <ele>340</ele>
        <time>2018-02-04T11:23:18Z</time>
      </trkpt>
      <trkpt lat="45.94435" lon="4.69011">
        <ele>340</ele>
        <time>2018-02-04T11:23:19Z</time>
      </trkpt>
      <trkpt lat="45.94441" lon="4.69011">
        <ele>340</ele>
        <time>2018-02-04T11:23:20Z</time>
      </trkpt>
      <trkpt lat="45.94447" lon="4.69011">
        <ele>340</ele>
        <time>2018-02-04T11:23:21Z</time>
      </trkpt>
      <trkpt lat="45.94451" lon="4.69011">
        <ele>340</ele>
        <time>2018-02-04T11:23:22Z</time>
      </trkpt>
      <trkpt lat="45.94456" lon="4.69011">
        <ele>340</ele>
        <time>2018-02-04T11:23:23Z</time>
      </trkpt>
      <trkpt lat="45.94461" lon="4.69011">
        <ele>341</ele>
        <time>2018-02-04T11:23:24Z</time>
      </trkpt>
      <trkpt lat="45.94467" lon="4.69012">
        <ele>341</ele>
        <time>2018-02-04T11:23:25Z</time>
      </trkpt>
      <trkpt lat="45.94472" lon="4.69013">
        <ele>341</ele>
        <time>2018-02-04T11:23:26Z</time>
      </trkpt>
      <trkpt lat="45.94477" lon="4.69014">
        <ele>341</ele>
        <time>2018-02-04T11:23:27Z</time>
      </trkpt>
      <trkpt lat="45.94482" lon="4.69014">
        <ele>341</ele>
        <time>2018-02-04T11:23:28Z</time>
      </trkpt>
      <trkpt lat="45.94488" lon="4.69014">
        <ele>341</ele>
        <time>2018-02-04T11:23:29Z</time>
      </trkpt>
      <trkpt lat="45.94494" lon="4.69016">
        <ele>341</ele>
        <time>2018-02-04T11:23:30Z</time>
      </trkpt>
      <trkpt lat="45.94499" lon="4.69017">
        <ele>341</ele>
        <time>2018-02-04T11:23:31Z</time>
      </trkpt>
      <trkpt lat="45.94504" lon="4.69019">
        <ele>342</ele>
        <time>2018-02-04T11:23:32Z</time>
      </trkpt>
      <trkpt lat="45.9451" lon="4.6902">
        <ele>342</ele>
        <time>2018-02-04T11:23:33Z</time>
      </trkpt>
      <trkpt lat="45.94515" lon="4.69022">
        <ele>342</ele>
        <time>2018-02-04T11:23:34Z</time>
      </trkpt>
      <trkpt lat="45.9452" lon="4.69023">
        <ele>342</ele>
        <time>2018-02-04T11:23:35Z</time>
      </trkpt>
      <trkpt lat="45.94526" lon="4.69024">
        <ele>342</ele>
        <time>2018-02-04T11:23:36Z</time>
      </trkpt>
      <trkpt lat="45.94531" lon="4.69026">
        <ele>342</ele>
        <time>2018-02-04T11:23:37Z</time>
      </trkpt>
      <trkpt lat="45.94536" lon="4.69027">
        <ele>342</ele>
        <time>2018-02-04T11:23:38Z</time>
      </trkpt>
      <trkpt lat="45.94541" lon="4.69028">
        <ele>342</ele>
        <time>2018-02-04T11:23:39Z</time>
      </trkpt>
      <trkpt lat="45.94547" lon="4.69029">
        <ele>342</ele>
        <time>2018-02-04T11:23:40Z</time>
      </trkpt>
      <trkpt lat="45.94552" lon="4.6903">
        <ele>342</ele>
        <time>2018-02-04T11:23:41Z</time>
      </trkpt>
      <trkpt lat="45.94558" lon="4.69032">
        <ele>342</ele>
        <time>2018-02-04T11:23:42Z</time>
      </trkpt>
      <trkpt lat="45.94563" lon="4.69033">
        <ele>342</ele>
        <time>2018-02-04T11:23:43Z</time>
      </trkpt>
      <trkpt lat="45.94567" lon="4.69035">
        <ele>342</ele>
        <time>2018-02-04T11:23:44Z</time>
      </trkpt>
      <trkpt lat="45.94572" lon="4.69037">
        <ele>342</ele>
        <time>2018-02-04T11:23:45Z</time>
      </trkpt>
      <trkpt lat="45.94578" lon="4.69038">
        <ele>342</ele>
        <time>2018-02-04T11:23:46Z</time>
      </trkpt>
      <trkpt lat="45.94584" lon="4.69039">
        <ele>342</ele>
        <time>2018-02-04T11:23:47Z</time>
      </trkpt>
      <trkpt lat="45.94589" lon="4.69042">
        <ele>342</ele>
        <time>2018-02-04T11:23:48Z</time>
      </trkpt>
      <trkpt lat="45.94594" lon="4.69044">
        <ele>342</ele>
        <time>2018-02-04T11:23:49Z</time>
      </trkpt>
      <trkpt lat="45.94599" lon="4.69047">
        <ele>342</ele>
        <time>2018-02-04T11:23:50Z</time>
      </trkpt>
      <trkpt lat="45.94605" lon="4.69048">
        <ele>342</ele>
        <time>2018-02-04T11:23:51Z</time>
      </trkpt>
      <trkpt lat="45.94611" lon="4.6905">
        <ele>342</ele>
        <time>2018-02-04T11:23:52Z</time>
      </trkpt>
      <trkpt lat="45.94617" lon="4.69052">
        <ele>342</ele>
        <time>2018-02-04T11:23:53Z</time>
      </trkpt>
      <trkpt lat="45.94623" lon="4.69055">
        <ele>342</ele>
        <time>2018-02-04T11:23:54Z</time>
      </trkpt>
      <trkpt lat="45.94629" lon="4.69057">
        <ele>342</ele>
        <time>2018-02-04T11:23:55Z</time>
      </trkpt>
      <trkpt lat="45.94634" lon="4.69058">
        <ele>342</ele>
        <time>2018-02-04T11:23:56Z</time>
      </trkpt>
      <trkpt lat="45.9464" lon="4.69059">
        <ele>342</ele>
        <time>2018-02-04T11:23:57Z</time>
      </trkpt>
      <trkpt lat="45.94645" lon="4.69062">
        <ele>342</ele>
        <time>2018-02-04T11:23:58Z</time>
      </trkpt>
      <trkpt lat="45.94651" lon="4.69063">
        <ele>342</ele>
        <time>2018-02-04T11:23:59Z</time>
      </trkpt>
      <trkpt lat="45.94657" lon="4.69066">
        <ele>342</ele>
        <time>2018-02-04T11:24:00Z</time>
      </trkpt>
      <trkpt lat="45.94664" lon="4.69067">
        <ele>342</ele>
        <time>2018-02-04T11:24:01Z</time>
      </trkpt>
      <trkpt lat="45.9467" lon="4.69069">
        <ele>342</ele>
        <time>2018-02-04T11:24:02Z</time>
      </trkpt>
      <trkpt lat="45.94676" lon="4.69071">
        <ele>342</ele>
        <time>2018-02-04T11:24:03Z</time>
      </trkpt>
      <trkpt lat="45.94681" lon="4.69073">
        <ele>342</ele>
        <time>2018-02-04T11:24:04Z</time>
      </trkpt>
      <trkpt lat="45.94687" lon="4.69074">
        <ele>342</ele>
        <time>2018-02-04T11:24:05Z</time>
      </trkpt>
      <trkpt lat="45.94692" lon="4.69075">
        <ele>342</ele>
        <time>2018-02-04T11:24:06Z</time>
      </trkpt>
      <trkpt lat="45.94699" lon="4.69077">
        <ele>342</ele>
        <time>2018-02-04T11:24:07Z</time>
      </trkpt>
      <trkpt lat="45.94704" lon="4.6908">
        <ele>342</ele>
        <time>2018-02-04T11:24:08Z</time>
      </trkpt>
      <trkpt lat="45.94711" lon="4.69083">
        <ele>343</ele>
        <time>2018-02-04T11:24:09Z</time>
      </trkpt>
      <trkpt lat="45.94716" lon="4.69084">
        <ele>344</ele>
        <time>2018-02-04T11:24:10Z</time>
      </trkpt>
      <trkpt lat="45.94722" lon="4.69087">
        <ele>344</ele>
        <time>2018-02-04T11:24:11Z</time>
      </trkpt>
      <trkpt lat="45.94727" lon="4.69088">
        <ele>344</ele>
        <time>2018-02-04T11:24:12Z</time>
      </trkpt>
      <trkpt lat="45.94733" lon="4.69091">
        <ele>344</ele>
        <time>2018-02-04T11:24:13Z</time>
      </trkpt>
      <trkpt lat="45.94738" lon="4.69092">
        <ele>344</ele>
        <time>2018-02-04T11:24:14Z</time>
      </trkpt>
      <trkpt lat="45.94743" lon="4.69094">
        <ele>344</ele>
        <time>2018-02-04T11:24:15Z</time>
      </trkpt>
      <trkpt lat="45.94749" lon="4.69097">
        <ele>345</ele>
        <time>2018-02-04T11:24:16Z</time>
      </trkpt>
      <trkpt lat="45.94754" lon="4.69099">
        <ele>345</ele>
        <time>2018-02-04T11:24:17Z</time>
      </trkpt>
      <trkpt lat="45.9476" lon="4.69101">
        <ele>344</ele>
        <time>2018-02-04T11:24:18Z</time>
      </trkpt>
      <trkpt lat="45.94765" lon="4.69103">
        <ele>344</ele>
        <time>2018-02-04T11:24:19Z</time>
      </trkpt>
      <trkpt lat="45.94771" lon="4.69106">
        <ele>344</ele>
        <time>2018-02-04T11:24:20Z</time>
      </trkpt>
      <trkpt lat="45.94776" lon="4.69107">
        <ele>344</ele>
        <time>2018-02-04T11:24:21Z</time>
      </trkpt>
      <trkpt lat="45.94781" lon="4.6911">
        <ele>344</ele>
        <time>2018-02-04T11:24:22Z</time>
      </trkpt>
      <trkpt lat="45.94787" lon="4.69112">
        <ele>344</ele>
        <time>2018-02-04T11:24:23Z</time>
      </trkpt>
      <trkpt lat="45.94792" lon="4.69113">
        <ele>344</ele>
        <time>2018-02-04T11:24:24Z</time>
      </trkpt>
      <trkpt lat="45.94797" lon="4.69114">
        <ele>344</ele>
        <time>2018-02-04T11:24:25Z</time>
      </trkpt>
      <trkpt lat="45.94802" lon="4.69115">
        <ele>344</ele>
        <time>2018-02-04T11:24:26Z</time>
      </trkpt>
      <trkpt lat="45.94806" lon="4.69117">
        <ele>344</ele>
        <time>2018-02-04T11:24:27Z</time>
      </trkpt>
      <trkpt lat="45.94812" lon="4.69118">
        <ele>344</ele>
        <time>2018-02-04T11:24:28Z</time>
      </trkpt>
      <trkpt lat="45.94817" lon="4.69119">
        <ele>344</ele>
        <time>2018-02-04T11:24:29Z</time>
      </trkpt>
      <trkpt lat="45.94822" lon="4.69121">
        <ele>344</ele>
        <time>2018-02-04T11:24:30Z</time>
      </trkpt>
      <trkpt lat="45.94828" lon="4.69123">
        <ele>344</ele>
        <time>2018-02-04T11:24:31Z</time>
      </trkpt>
      <trkpt lat="45.94834" lon="4.69125">
        <ele>342</ele>
        <time>2018-02-04T11:24:32Z</time>
      </trkpt>
      <trkpt lat="45.94839" lon="4.69127">
        <ele>342</ele>
        <time>2018-02-04T11:24:33Z</time>
      </trkpt>
      <trkpt lat="45.94844" lon="4.6913">
        <ele>342</ele>
        <time>2018-02-04T11:24:34Z</time>
      </trkpt>
      <trkpt lat="45.94849" lon="4.69131">
        <ele>342</ele>
        <time>2018-02-04T11:24:35Z</time>
      </trkpt>
      <trkpt lat="45.94856" lon="4.69132">
        <ele>342</ele>
        <time>2018-02-04T11:24:36Z</time>
      </trkpt>
      <trkpt lat="45.94861" lon="4.69134">
        <ele>342</ele>
        <time>2018-02-04T11:24:37Z</time>
      </trkpt>
      <trkpt lat="45.94867" lon="4.69136">
        <ele>342</ele>
        <time>2018-02-04T11:24:38Z</time>
      </trkpt>
      <trkpt lat="45.94873" lon="4.69139">
        <ele>342</ele>
        <time>2018-02-04T11:24:39Z</time>
      </trkpt>
      <trkpt lat="45.94879" lon="4.69141">
        <ele>342</ele>
        <time>2018-02-04T11:24:40Z</time>
      </trkpt>
      <trkpt lat="45.94885" lon="4.69142">
        <ele>342</ele>
        <time>2018-02-04T11:24:41Z</time>
      </trkpt>
      <trkpt lat="45.94891" lon="4.69145">
        <ele>342</ele>
        <time>2018-02-04T11:24:42Z</time>
      </trkpt>
      <trkpt lat="45.94897" lon="4.69149">
        <ele>342</ele>
        <time>2018-02-04T11:24:43Z</time>
      </trkpt>
      <trkpt lat="45.94903" lon="4.69152">
        <ele>342</ele>
        <time>2018-02-04T11:24:44Z</time>
      </trkpt>
      <trkpt lat="45.9491" lon="4.69157">
        <ele>342</ele>
        <time>2018-02-04T11:24:45Z</time>
      </trkpt>
      <trkpt lat="45.94916" lon="4.69161">
        <ele>342</ele>
        <time>2018-02-04T11:24:46Z</time>
      </trkpt>
      <trkpt lat="45.94921" lon="4.69165">
        <ele>341</ele>
        <time>2018-02-04T11:24:47Z</time>
      </trkpt>
      <trkpt lat="45.94928" lon="4.6917">
        <ele>341</ele>
        <time>2018-02-04T11:24:48Z</time>
      </trkpt>
      <trkpt lat="45.94935" lon="4.69174">
        <ele>341</ele>
        <time>2018-02-04T11:24:49Z</time>
      </trkpt>
      <trkpt lat="45.94942" lon="4.69178">
        <ele>341</ele>
        <time>2018-02-04T11:24:50Z</time>
      </trkpt>
      <trkpt lat="45.94949" lon="4.69182">
        <ele>340</ele>
        <time>2018-02-04T11:24:51Z</time>
      </trkpt>
      <trkpt lat="45.94955" lon="4.69187">
        <ele>340</ele>
        <time>2018-02-04T11:24:52Z</time>
      </trkpt>
      <trkpt lat="45.94962" lon="4.69193">
        <ele>340</ele>
        <time>2018-02-04T11:24:53Z</time>
      </trkpt>
      <trkpt lat="45.94969" lon="4.69199">
        <ele>340</ele>
        <time>2018-02-04T11:24:54Z</time>
      </trkpt>
      <trkpt lat="45.94975" lon="4.69206">
        <ele>340</ele>
        <time>2018-02-04T11:24:55Z</time>
      </trkpt>
      <trkpt lat="45.94982" lon="4.69211">
        <ele>340</ele>
        <time>2018-02-04T11:24:56Z</time>
      </trkpt>
      <trkpt lat="45.9499" lon="4.69215">
        <ele>340</ele>
        <time>2018-02-04T11:24:57Z</time>
      </trkpt>
      <trkpt lat="45.94998" lon="4.69217">
        <ele>340</ele>
        <time>2018-02-04T11:24:58Z</time>
      </trkpt>
      <trkpt lat="45.95005" lon="4.6922">
        <ele>337</ele>
        <time>2018-02-04T11:24:59Z</time>
      </trkpt>
      <trkpt lat="45.95012" lon="4.69225">
        <ele>337</ele>
        <time>2018-02-04T11:25:00Z</time>
      </trkpt>
      <trkpt lat="45.95019" lon="4.6923">
        <ele>337</ele>
        <time>2018-02-04T11:25:01Z</time>
      </trkpt>
      <trkpt lat="45.95027" lon="4.69236">
        <ele>337</ele>
        <time>2018-02-04T11:25:02Z</time>
      </trkpt>
      <trkpt lat="45.95033" lon="4.69243">
        <ele>336</ele>
        <time>2018-02-04T11:25:03Z</time>
      </trkpt>
      <trkpt lat="45.95041" lon="4.6925">
        <ele>336</ele>
        <time>2018-02-04T11:25:04Z</time>
      </trkpt>
      <trkpt lat="45.95047" lon="4.69257">
        <ele>337</ele>
        <time>2018-02-04T11:25:05Z</time>
      </trkpt>
      <trkpt lat="45.95053" lon="4.69264">
        <ele>336</ele>
        <time>2018-02-04T11:25:06Z</time>
      </trkpt>
      <trkpt lat="45.95059" lon="4.69272">
        <ele>336</ele>
        <time>2018-02-04T11:25:07Z</time>
      </trkpt>
      <trkpt lat="45.95066" lon="4.69279">
        <ele>336</ele>
        <time>2018-02-04T11:25:08Z</time>
      </trkpt>
      <trkpt lat="45.95073" lon="4.69286">
        <ele>336</ele>
        <time>2018-02-04T11:25:09Z</time>
      </trkpt>
      <trkpt lat="45.95079" lon="4.69292">
        <ele>336</ele>
        <time>2018-02-04T11:25:10Z</time>
      </trkpt>
      <trkpt lat="45.95085" lon="4.69299">
        <ele>334</ele>
        <time>2018-02-04T11:25:11Z</time>
      </trkpt>
      <trkpt lat="45.95091" lon="4.69306">
        <ele>334</ele>
        <time>2018-02-04T11:25:12Z</time>
      </trkpt>
      <trkpt lat="45.95097" lon="4.69313">
        <ele>334</ele>
        <time>2018-02-04T11:25:13Z</time>
      </trkpt>
      <trkpt lat="45.95103" lon="4.69319">
        <ele>334</ele>
        <time>2018-02-04T11:25:14Z</time>
      </trkpt>
      <trkpt lat="45.95109" lon="4.69325">
        <ele>334</ele>
        <time>2018-02-04T11:25:15Z</time>
      </trkpt>
      <trkpt lat="45.95114" lon="4.69331">
        <ele>334</ele>
        <time>2018-02-04T11:25:16Z</time>
      </trkpt>
      <trkpt lat="45.9512" lon="4.69337">
        <ele>336</ele>
        <time>2018-02-04T11:25:17Z</time>
      </trkpt>
      <trkpt lat="45.95126" lon="4.69342">
        <ele>337</ele>
        <time>2018-02-04T11:25:18Z</time>
      </trkpt>
      <trkpt lat="45.95131" lon="4.69347">
        <ele>337</ele>
        <time>2018-02-04T11:25:19Z</time>
      </trkpt>
      <trkpt lat="45.95136" lon="4.69352">
        <ele>337</ele>
        <time>2018-02-04T11:25:20Z</time>
      </trkpt>
      <trkpt lat="45.95141" lon="4.69357">
        <ele>337</ele>
        <time>2018-02-04T11:25:21Z</time>
      </trkpt>
      <trkpt lat="45.95146" lon="4.69362">
        <ele>337</ele>
        <time>2018-02-04T11:25:22Z</time>
      </trkpt>
      <trkpt lat="45.95151" lon="4.69368">
        <ele>337</ele>
        <time>2018-02-04T11:25:23Z</time>
      </trkpt>
      <trkpt lat="45.95154" lon="4.69373">
        <ele>337</ele>
        <time>2018-02-04T11:25:24Z</time>
      </trkpt>
      <trkpt lat="45.95158" lon="4.69377">
        <ele>337</ele>
        <time>2018-02-04T11:25:25Z</time>
      </trkpt>
      <trkpt lat="45.95164" lon="4.69381">
        <ele>337</ele>
        <time>2018-02-04T11:25:26Z</time>
      </trkpt>
      <trkpt lat="45.95169" lon="4.69385">
        <ele>337</ele>
        <time>2018-02-04T11:25:27Z</time>
      </trkpt>
      <trkpt lat="45.95174" lon="4.6939">
        <ele>337</ele>
        <time>2018-02-04T11:25:28Z</time>
      </trkpt>
      <trkpt lat="45.95179" lon="4.69395">
        <ele>337</ele>
        <time>2018-02-04T11:25:29Z</time>
      </trkpt>
      <trkpt lat="45.95184" lon="4.69398">
        <ele>337</ele>
        <time>2018-02-04T11:25:30Z</time>
      </trkpt>
      <trkpt lat="45.95189" lon="4.69402">
        <ele>337</ele>
        <time>2018-02-04T11:25:31Z</time>
      </trkpt>
      <trkpt lat="45.95195" lon="4.69405">
        <ele>337</ele>
        <time>2018-02-04T11:25:32Z</time>
      </trkpt>
      <trkpt lat="45.95201" lon="4.69407">
        <ele>337</ele>
        <time>2018-02-04T11:25:33Z</time>
      </trkpt>
      <trkpt lat="45.95207" lon="4.69409">
        <ele>337</ele>
        <time>2018-02-04T11:25:34Z</time>
      </trkpt>
      <trkpt lat="45.95213" lon="4.69412">
        <ele>337</ele>
        <time>2018-02-04T11:25:35Z</time>
      </trkpt>
      <trkpt lat="45.95218" lon="4.69415">
        <ele>337</ele>
        <time>2018-02-04T11:25:36Z</time>
      </trkpt>
      <trkpt lat="45.95223" lon="4.69418">
        <ele>340</ele>
        <time>2018-02-04T11:25:37Z</time>
      </trkpt>
      <trkpt lat="45.95228" lon="4.69421">
        <ele>340</ele>
        <time>2018-02-04T11:25:38Z</time>
      </trkpt>
      <trkpt lat="45.95233" lon="4.69424">
        <ele>339</ele>
        <time>2018-02-04T11:25:39Z</time>
      </trkpt>
      <trkpt lat="45.95239" lon="4.69426">
        <ele>339</ele>
        <time>2018-02-04T11:25:40Z</time>
      </trkpt>
      <trkpt lat="45.95245" lon="4.69428">
        <ele>339</ele>
        <time>2018-02-04T11:25:41Z</time>
      </trkpt>
      <trkpt lat="45.9525" lon="4.69431">
        <ele>338</ele>
        <time>2018-02-04T11:25:42Z</time>
      </trkpt>
      <trkpt lat="45.95256" lon="4.69433">
        <ele>338</ele>
        <time>2018-02-04T11:25:43Z</time>
      </trkpt>
      <trkpt lat="45.95262" lon="4.69435">
        <ele>338</ele>
        <time>2018-02-04T11:25:44Z</time>
      </trkpt>
      <trkpt lat="45.95267" lon="4.69438">
        <ele>339</ele>
        <time>2018-02-04T11:25:45Z</time>
      </trkpt>
      <trkpt lat="45.95272" lon="4.6944">
        <ele>339</ele>
        <time>2018-02-04T11:25:46Z</time>
      </trkpt>
      <trkpt lat="45.95278" lon="4.69443">
        <ele>339</ele>
        <time>2018-02-04T11:25:47Z</time>
      </trkpt>
      <trkpt lat="45.95284" lon="4.69446">
        <ele>338</ele>
        <time>2018-02-04T11:25:48Z</time>
      </trkpt>
      <trkpt lat="45.95289" lon="4.69448">
        <ele>338</ele>
        <time>2018-02-04T11:25:49Z</time>
      </trkpt>
      <trkpt lat="45.95295" lon="4.69451">
        <ele>338</ele>
        <time>2018-02-04T11:25:50Z</time>
      </trkpt>
      <trkpt lat="45.95301" lon="4.69453">
        <ele>338</ele>
        <time>2018-02-04T11:25:51Z</time>
      </trkpt>
      <trkpt lat="45.95307" lon="4.69455">
        <ele>338</ele>
        <time>2018-02-04T11:25:52Z</time>
      </trkpt>
      <trkpt lat="45.95313" lon="4.69458">
        <ele>338</ele>
        <time>2018-02-04T11:25:53Z</time>
      </trkpt>
      <trkpt lat="45.95319" lon="4.6946">
        <ele>338</ele>
        <time>2018-02-04T11:25:54Z</time>
      </trkpt>
      <trkpt lat="45.95324" lon="4.69464">
        <ele>338</ele>
        <time>2018-02-04T11:25:55Z</time>
      </trkpt>
      <trkpt lat="45.9533" lon="4.69466">
        <ele>339</ele>
        <time>2018-02-04T11:25:56Z</time>
      </trkpt>
      <trkpt lat="45.95335" lon="4.69469">
        <ele>337</ele>
        <time>2018-02-04T11:25:57Z</time>
      </trkpt>
      <trkpt lat="45.95341" lon="4.69472">
        <ele>337</ele>
        <time>2018-02-04T11:25:58Z</time>
      </trkpt>
      <trkpt lat="45.95346" lon="4.69476">
        <ele>337</ele>
        <time>2018-02-04T11:25:59Z</time>
      </trkpt>
      <trkpt lat="45.95352" lon="4.6948">
        <ele>337</ele>
        <time>2018-02-04T11:26:00Z</time>
      </trkpt>
      <trkpt lat="45.95358" lon="4.69484">
        <ele>337</ele>
        <time>2018-02-04T11:26:01Z</time>
      </trkpt>
      <trkpt lat="45.95364" lon="4.69488">
        <ele>337</ele>
        <time>2018-02-04T11:26:02Z</time>
      </trkpt>
      <trkpt lat="45.9537" lon="4.69492">
        <ele>337</ele>
        <time>2018-02-04T11:26:03Z</time>
      </trkpt>
      <trkpt lat="45.95376" lon="4.69497">
        <ele>337</ele>
        <time>2018-02-04T11:26:04Z</time>
      </trkpt>
      <trkpt lat="45.95381" lon="4.69501">
        <ele>340</ele>
        <time>2018-02-04T11:26:05Z</time>
      </trkpt>
      <trkpt lat="45.95385" lon="4.69506">
        <ele>340</ele>
        <time>2018-02-04T11:26:06Z</time>
      </trkpt>
      <trkpt lat="45.95391" lon="4.6951">
        <ele>340</ele>
        <time>2018-02-04T11:26:07Z</time>
      </trkpt>
      <trkpt lat="45.95398" lon="4.69513">
        <ele>339</ele>
        <time>2018-02-04T11:26:08Z</time>
      </trkpt>
      <trkpt lat="45.95403" lon="4.69517">
        <ele>339</ele>
        <time>2018-02-04T11:26:09Z</time>
      </trkpt>
      <trkpt lat="45.95409" lon="4.6952">
        <ele>339</ele>
        <time>2018-02-04T11:26:10Z</time>
      </trkpt>
      <trkpt lat="45.95415" lon="4.69524">
        <ele>339</ele>
        <time>2018-02-04T11:26:11Z</time>
      </trkpt>
      <trkpt lat="45.95421" lon="4.69527">
        <ele>337</ele>
        <time>2018-02-04T11:26:12Z</time>
      </trkpt>
      <trkpt lat="45.95426" lon="4.69531">
        <ele>337</ele>
        <time>2018-02-04T11:26:13Z</time>
      </trkpt>
      <trkpt lat="45.95432" lon="4.69534">
        <ele>337</ele>
        <time>2018-02-04T11:26:14Z</time>
      </trkpt>
      <trkpt lat="45.95438" lon="4.69538">
        <ele>337</ele>
        <time>2018-02-04T11:26:15Z</time>
      </trkpt>
      <trkpt lat="45.95445" lon="4.6954">
        <ele>337</ele>
        <time>2018-02-04T11:26:16Z</time>
      </trkpt>
      <trkpt lat="45.95451" lon="4.69543">
        <ele>337</ele>
        <time>2018-02-04T11:26:17Z</time>
      </trkpt>
      <trkpt lat="45.95457" lon="4.69546">
        <ele>337</ele>
        <time>2018-02-04T11:26:18Z</time>
      </trkpt>
      <trkpt lat="45.95463" lon="4.69548">
        <ele>337</ele>
        <time>2018-02-04T11:26:19Z</time>
      </trkpt>
      <trkpt lat="45.9547" lon="4.69552">
        <ele>336</ele>
        <time>2018-02-04T11:26:20Z</time>
      </trkpt>
      <trkpt lat="45.95477" lon="4.69555">
        <ele>336</ele>
        <time>2018-02-04T11:26:21Z</time>
      </trkpt>
      <trkpt lat="45.95482" lon="4.69559">
        <ele>336</ele>
        <time>2018-02-04T11:26:22Z</time>
      </trkpt>
      <trkpt lat="45.95489" lon="4.69563">
        <ele>336</ele>
        <time>2018-02-04T11:26:23Z</time>
      </trkpt>
      <trkpt lat="45.95494" lon="4.69567">
        <ele>337</ele>
        <time>2018-02-04T11:26:24Z</time>
      </trkpt>
      <trkpt lat="45.95501" lon="4.6957">
        <ele>335</ele>
        <time>2018-02-04T11:26:25Z</time>
      </trkpt>
      <trkpt lat="45.95509" lon="4.69573">
        <ele>334</ele>
        <time>2018-02-04T11:26:26Z</time>
      </trkpt>
      <trkpt lat="45.95517" lon="4.69576">
        <ele>334</ele>
        <time>2018-02-04T11:26:27Z</time>
      </trkpt>
      <trkpt lat="45.95524" lon="4.69578">
        <ele>333</ele>
        <time>2018-02-04T11:26:28Z</time>
      </trkpt>
      <trkpt lat="45.9553" lon="4.69581">
        <ele>333</ele>
        <time>2018-02-04T11:26:29Z</time>
      </trkpt>
      <trkpt lat="45.95538" lon="4.69584">
        <ele>332</ele>
        <time>2018-02-04T11:26:30Z</time>
      </trkpt>
      <trkpt lat="45.95544" lon="4.69588">
        <ele>331</ele>
        <time>2018-02-04T11:26:31Z</time>
      </trkpt>
      <trkpt lat="45.95552" lon="4.6959">
        <ele>331</ele>
        <time>2018-02-04T11:26:32Z</time>
      </trkpt>
      <trkpt lat="45.9556" lon="4.69593">
        <ele>330</ele>
        <time>2018-02-04T11:26:33Z</time>
      </trkpt>
      <trkpt lat="45.95567" lon="4.69597">
        <ele>330</ele>
        <time>2018-02-04T11:26:34Z</time>
      </trkpt>
      <trkpt lat="45.95576" lon="4.696">
        <ele>330</ele>
        <time>2018-02-04T11:26:35Z</time>
      </trkpt>
      <trkpt lat="45.95583" lon="4.69603">
        <ele>328</ele>
        <time>2018-02-04T11:26:36Z</time>
      </trkpt>
      <trkpt lat="45.95589" lon="4.69607">
        <ele>328</ele>
        <time>2018-02-04T11:26:37Z</time>
      </trkpt>
      <trkpt lat="45.95597" lon="4.6961">
        <ele>328</ele>
        <time>2018-02-04T11:26:38Z</time>
      </trkpt>
      <trkpt lat="45.95606" lon="4.69613">
        <ele>328</ele>
        <time>2018-02-04T11:26:39Z</time>
      </trkpt>
      <trkpt lat="45.95613" lon="4.69617">
        <ele>328</ele>
        <time>2018-02-04T11:26:40Z</time>
      </trkpt>
      <trkpt lat="45.95622" lon="4.69619">
        <ele>328</ele>
        <time>2018-02-04T11:26:41Z</time>
      </trkpt>
      <trkpt lat="45.9563" lon="4.69623">
        <ele>328</ele>
        <time>2018-02-04T11:26:42Z</time>
      </trkpt>
      <trkpt lat="45.95638" lon="4.69627">
        <ele>328</ele>
        <time>2018-02-04T11:26:43Z</time>
      </trkpt>
      <trkpt lat="45.95646" lon="4.6963">
        <ele>328</ele>
        <time>2018-02-04T11:26:44Z</time>
      </trkpt>
      <trkpt lat="45.95654" lon="4.69633">
        <ele>328</ele>
        <time>2018-02-04T11:26:45Z</time>
      </trkpt>
      <trkpt lat="45.95662" lon="4.69636">
        <ele>327</ele>
        <time>2018-02-04T11:26:46Z</time>
      </trkpt>
      <trkpt lat="45.9567" lon="4.6964">
        <ele>326</ele>
        <time>2018-02-04T11:26:47Z</time>
      </trkpt>
      <trkpt lat="45.95677" lon="4.69642">
        <ele>326</ele>
        <time>2018-02-04T11:26:48Z</time>
      </trkpt>
      <trkpt lat="45.95685" lon="4.69645">
        <ele>326</ele>
        <time>2018-02-04T11:26:49Z</time>
      </trkpt>
      <trkpt lat="45.95693" lon="4.69648">
        <ele>326</ele>
        <time>2018-02-04T11:26:50Z</time>
      </trkpt>
      <trkpt lat="45.957" lon="4.6965">
        <ele>326</ele>
        <time>2018-02-04T11:26:51Z</time>
      </trkpt>
      <trkpt lat="45.95707" lon="4.69653">
        <ele>326</ele>
        <time>2018-02-04T11:26:52Z</time>
      </trkpt>
      <trkpt lat="45.95714" lon="4.69656">
        <ele>326</ele>
        <time>2018-02-04T11:26:53Z</time>
      </trkpt>
      <trkpt lat="45.95721" lon="4.69659">
        <ele>326</ele>
        <time>2018-02-04T11:26:54Z</time>
      </trkpt>
      <trkpt lat="45.95728" lon="4.69661">
        <ele>326</ele>
        <time>2018-02-04T11:26:55Z</time>
      </trkpt>
      <trkpt lat="45.95734" lon="4.69664">
        <ele>326</ele>
        <time>2018-02-04T11:26:56Z</time>
      </trkpt>
      <trkpt lat="45.95739" lon="4.69668">
        <ele>326</ele>
        <time>2018-02-04T11:26:57Z</time>
      </trkpt>
      <trkpt lat="45.95746" lon="4.6967">
        <ele>326</ele>
        <time>2018-02-04T11:26:58Z</time>
      </trkpt>
      <trkpt lat="45.95751" lon="4.69674">
        <ele>326</ele>
        <time>2018-02-04T11:26:59Z</time>
      </trkpt>
      <trkpt lat="45.95757" lon="4.69677">
        <ele>326</ele>
        <time>2018-02-04T11:27:00Z</time>
      </trkpt>
      <trkpt lat="45.95763" lon="4.69681">
        <ele>326</ele>
        <time>2018-02-04T11:27:01Z</time>
      </trkpt>
      <trkpt lat="45.95768" lon="4.69685">
        <ele>326</ele>
        <time>2018-02-04T11:27:02Z</time>
      </trkpt>
      <trkpt lat="45.95773" lon="4.69688">
        <ele>326</ele>
        <time>2018-02-04T11:27:03Z</time>
      </trkpt>
      <trkpt lat="45.95779" lon="4.69692">
        <ele>326</ele>
        <time>2018-02-04T11:27:04Z</time>
      </trkpt>
      <trkpt lat="45.95785" lon="4.69697">
        <ele>326</ele>
        <time>2018-02-04T11:27:05Z</time>
      </trkpt>
      <trkpt lat="45.95789" lon="4.69702">
        <ele>326</ele>
        <time>2018-02-04T11:27:06Z</time>
      </trkpt>
      <trkpt lat="45.95793" lon="4.69708">
        <ele>326</ele>
        <time>2018-02-04T11:27:07Z</time>
      </trkpt>
      <trkpt lat="45.95798" lon="4.69714">
        <ele>326</ele>
        <time>2018-02-04T11:27:08Z</time>
      </trkpt>
      <trkpt lat="45.95802" lon="4.6972">
        <ele>326</ele>
        <time>2018-02-04T11:27:09Z</time>
      </trkpt>
      <trkpt lat="45.95806" lon="4.69727">
        <ele>326</ele>
        <time>2018-02-04T11:27:10Z</time>
      </trkpt>
      <trkpt lat="45.9581" lon="4.69733">
        <ele>326</ele>
        <time>2018-02-04T11:27:11Z</time>
      </trkpt>
      <trkpt lat="45.95814" lon="4.6974">
        <ele>327</ele>
        <time>2018-02-04T11:27:12Z</time>
      </trkpt>
      <trkpt lat="45.95817" lon="4.69747">
        <ele>327</ele>
        <time>2018-02-04T11:27:13Z</time>
      </trkpt>
      <trkpt lat="45.95821" lon="4.69753">
        <ele>328</ele>
        <time>2018-02-04T11:27:14Z</time>
      </trkpt>
      <trkpt lat="45.95825" lon="4.69759">
        <ele>328</ele>
        <time>2018-02-04T11:27:15Z</time>
      </trkpt>
      <trkpt lat="45.95828" lon="4.69765">
        <ele>328</ele>
        <time>2018-02-04T11:27:16Z</time>
      </trkpt>
      <trkpt lat="45.95832" lon="4.69771">
        <ele>328</ele>
        <time>2018-02-04T11:27:17Z</time>
      </trkpt>
      <trkpt lat="45.95835" lon="4.69777">
        <ele>327</ele>
        <time>2018-02-04T11:27:18Z</time>
      </trkpt>
      <trkpt lat="45.95839" lon="4.69783">
        <ele>327</ele>
        <time>2018-02-04T11:27:19Z</time>
      </trkpt>
      <trkpt lat="45.95842" lon="4.69789">
        <ele>327</ele>
        <time>2018-02-04T11:27:20Z</time>
      </trkpt>
      <trkpt lat="45.95845" lon="4.69795">
        <ele>327</ele>
        <time>2018-02-04T11:27:21Z</time>
      </trkpt>
      <trkpt lat="45.95848" lon="4.69802">
        <ele>327</ele>
        <time>2018-02-04T11:27:22Z</time>
      </trkpt>
      <trkpt lat="45.9585" lon="4.69807">
        <ele>328</ele>
        <time>2018-02-04T11:27:23Z</time>
      </trkpt>
      <trkpt lat="45.95852" lon="4.69813">
        <ele>328</ele>
        <time>2018-02-04T11:27:24Z</time>
      </trkpt>
      <trkpt lat="45.95856" lon="4.6982">
        <ele>328</ele>
        <time>2018-02-04T11:27:25Z</time>
      </trkpt>
      <trkpt lat="45.95859" lon="4.69826">
        <ele>328</ele>
        <time>2018-02-04T11:27:26Z</time>
      </trkpt>
      <trkpt lat="45.95861" lon="4.69832">
        <ele>328</ele>
        <time>2018-02-04T11:27:27Z</time>
      </trkpt>
      <trkpt lat="45.95863" lon="4.6984">
        <ele>329</ele>
        <time>2018-02-04T11:27:28Z</time>
      </trkpt>
      <trkpt lat="45.95865" lon="4.69847">
        <ele>329</ele>
        <time>2018-02-04T11:27:29Z</time>
      </trkpt>
      <trkpt lat="45.95867" lon="4.69853">
        <ele>329</ele>
        <time>2018-02-04T11:27:30Z</time>
      </trkpt>
      <trkpt lat="45.95869" lon="4.6986">
        <ele>329</ele>
        <time>2018-02-04T11:27:31Z</time>
      </trkpt>
      <trkpt lat="45.95871" lon="4.69866">
        <ele>329</ele>
        <time>2018-02-04T11:27:32Z</time>
      </trkpt>
      <trkpt lat="45.95872" lon="4.69873">
        <ele>329</ele>
        <time>2018-02-04T11:27:33Z</time>
      </trkpt>
      <trkpt lat="45.95874" lon="4.6988">
        <ele>329</ele>
        <time>2018-02-04T11:27:34Z</time>
      </trkpt>
      <trkpt lat="45.95875" lon="4.69887">
        <ele>329</ele>
        <time>2018-02-04T11:27:35Z</time>
      </trkpt>
      <trkpt lat="45.95877" lon="4.69895">
        <ele>329</ele>
        <time>2018-02-04T11:27:36Z</time>
      </trkpt>
      <trkpt lat="45.9588" lon="4.69902">
        <ele>329</ele>
        <time>2018-02-04T11:27:37Z</time>
      </trkpt>
      <trkpt lat="45.95882" lon="4.69909">
        <ele>329</ele>
        <time>2018-02-04T11:27:38Z</time>
      </trkpt>
      <trkpt lat="45.95884" lon="4.69917">
        <ele>328</ele>
        <time>2018-02-04T11:27:39Z</time>
      </trkpt>
      <trkpt lat="45.95885" lon="4.69924">
        <ele>328</ele>
        <time>2018-02-04T11:27:40Z</time>
      </trkpt>
      <trkpt lat="45.95886" lon="4.69932">
        <ele>328</ele>
        <time>2018-02-04T11:27:41Z</time>
      </trkpt>
      <trkpt lat="45.95888" lon="4.6994">
        <ele>328</ele>
        <time>2018-02-04T11:27:42Z</time>
      </trkpt>
      <trkpt lat="45.9589" lon="4.69947">
        <ele>328</ele>
        <time>2018-02-04T11:27:43Z</time>
      </trkpt>
      <trkpt lat="45.95891" lon="4.69956">
        <ele>328</ele>
        <time>2018-02-04T11:27:44Z</time>
      </trkpt>
      <trkpt lat="45.95894" lon="4.69963">
        <ele>328</ele>
        <time>2018-02-04T11:27:45Z</time>
      </trkpt>
      <trkpt lat="45.95896" lon="4.6997">
        <ele>328</ele>
        <time>2018-02-04T11:27:46Z</time>
      </trkpt>
      <trkpt lat="45.95898" lon="4.69977">
        <ele>328</ele>
        <time>2018-02-04T11:27:47Z</time>
      </trkpt>
      <trkpt lat="45.959" lon="4.69984">
        <ele>328</ele>
        <time>2018-02-04T11:27:48Z</time>
      </trkpt>
      <trkpt lat="45.95903" lon="4.69991">
        <ele>328</ele>
        <time>2018-02-04T11:27:49Z</time>
      </trkpt>
      <trkpt lat="45.95906" lon="4.69998">
        <ele>328</ele>
        <time>2018-02-04T11:27:50Z</time>
      </trkpt>
      <trkpt lat="45.95908" lon="4.70005">
        <ele>328</ele>
        <time>2018-02-04T11:27:51Z</time>
      </trkpt>
      <trkpt lat="45.95911" lon="4.70012">
        <ele>328</ele>
        <time>2018-02-04T11:27:52Z</time>
      </trkpt>
      <trkpt lat="45.95914" lon="4.70019">
        <ele>328</ele>
        <time>2018-02-04T11:27:53Z</time>
      </trkpt>
      <trkpt lat="45.95918" lon="4.70025">
        <ele>328</ele>
        <time>2018-02-04T11:27:54Z</time>
      </trkpt>
      <trkpt lat="45.95922" lon="4.70032">
        <ele>328</ele>
        <time>2018-02-04T11:27:55Z</time>
      </trkpt>
      <trkpt lat="45.95926" lon="4.70038">
        <ele>328</ele>
        <time>2018-02-04T11:27:56Z</time>
      </trkpt>
      <trkpt lat="45.95929" lon="4.70045">
        <ele>328</ele>
        <time>2018-02-04T11:27:57Z</time>
      </trkpt>
      <trkpt lat="45.95933" lon="4.70051">
        <ele>328</ele>
        <time>2018-02-04T11:27:58Z</time>
      </trkpt>
      <trkpt lat="45.95937" lon="4.70057">
        <ele>328</ele>
        <time>2018-02-04T11:27:59Z</time>
      </trkpt>
      <trkpt lat="45.95941" lon="4.70063">
        <ele>328</ele>
        <time>2018-02-04T11:28:00Z</time>
      </trkpt>
      <trkpt lat="45.95945" lon="4.70069">
        <ele>328</ele>
        <time>2018-02-04T11:28:01Z</time>
      </trkpt>
      <trkpt lat="45.95949" lon="4.70074">
        <ele>328</ele>
        <time>2018-02-04T11:28:02Z</time>
      </trkpt>
      <trkpt lat="45.95953" lon="4.70078">
        <ele>328</ele>
        <time>2018-02-04T11:28:03Z</time>
      </trkpt>
      <trkpt lat="45.95958" lon="4.70082">
        <ele>328</ele>
        <time>2018-02-04T11:28:04Z</time>
      </trkpt>
      <trkpt lat="45.95962" lon="4.70087">
        <ele>328</ele>
        <time>2018-02-04T11:28:05Z</time>
      </trkpt>
      <trkpt lat="45.95965" lon="4.70092">
        <ele>328</ele>
        <time>2018-02-04T11:28:06Z</time>
      </trkpt>
      <trkpt lat="45.9597" lon="4.70097">
        <ele>328</ele>
        <time>2018-02-04T11:28:07Z</time>
      </trkpt>
      <trkpt lat="45.95974" lon="4.70101">
        <ele>328</ele>
        <time>2018-02-04T11:28:08Z</time>
      </trkpt>
      <trkpt lat="45.95979" lon="4.70106">
        <ele>328</ele>
        <time>2018-02-04T11:28:09Z</time>
      </trkpt>
      <trkpt lat="45.95983" lon="4.7011">
        <ele>328</ele>
        <time>2018-02-04T11:28:10Z</time>
      </trkpt>
      <trkpt lat="45.95987" lon="4.70115">
        <ele>328</ele>
        <time>2018-02-04T11:28:11Z</time>
      </trkpt>
      <trkpt lat="45.95993" lon="4.7012">
        <ele>328</ele>
        <time>2018-02-04T11:28:12Z</time>
      </trkpt>
      <trkpt lat="45.95997" lon="4.70124">
        <ele>328</ele>
        <time>2018-02-04T11:28:13Z</time>
      </trkpt>
      <trkpt lat="45.96001" lon="4.70128">
        <ele>328</ele>
        <time>2018-02-04T11:28:14Z</time>
      </trkpt>
      <trkpt lat="45.96005" lon="4.70132">
        <ele>328</ele>
        <time>2018-02-04T11:28:15Z</time>
      </trkpt>
      <trkpt lat="45.96009" lon="4.70136">
        <ele>328</ele>
        <time>2018-02-04T11:28:16Z</time>
      </trkpt>
      <trkpt lat="45.96013" lon="4.7014">
        <ele>329</ele>
        <time>2018-02-04T11:28:17Z</time>
      </trkpt>
      <trkpt lat="45.96018" lon="4.70144">
        <ele>329</ele>
        <time>2018-02-04T11:28:18Z</time>
      </trkpt>
      <trkpt lat="45.96022" lon="4.70149">
        <ele>329</ele>
        <time>2018-02-04T11:28:19Z</time>
      </trkpt>
      <trkpt lat="45.96027" lon="4.70153">
        <ele>329</ele>
        <time>2018-02-04T11:28:20Z</time>
      </trkpt>
      <trkpt lat="45.96031" lon="4.70156">
        <ele>329</ele>
        <time>2018-02-04T11:28:21Z</time>
      </trkpt>
      <trkpt lat="45.96036" lon="4.70161">
        <ele>329</ele>
        <time>2018-02-04T11:28:22Z</time>
      </trkpt>
      <trkpt lat="45.96041" lon="4.70165">
        <ele>329</ele>
        <time>2018-02-04T11:28:23Z</time>
      </trkpt>
      <trkpt lat="45.96045" lon="4.70169">
        <ele>327</ele>
        <time>2018-02-04T11:28:24Z</time>
      </trkpt>
      <trkpt lat="45.96049" lon="4.70173">
        <ele>327</ele>
        <time>2018-02-04T11:28:25Z</time>
      </trkpt>
      <trkpt lat="45.96054" lon="4.70177">
        <ele>327</ele>
        <time>2018-02-04T11:28:26Z</time>
      </trkpt>
      <trkpt lat="45.96058" lon="4.70182">
        <ele>327</ele>
        <time>2018-02-04T11:28:27Z</time>
      </trkpt>
      <trkpt lat="45.96063" lon="4.70186">
        <ele>327</ele>
        <time>2018-02-04T11:28:28Z</time>
      </trkpt>
      <trkpt lat="45.96068" lon="4.7019">
        <ele>327</ele>
        <time>2018-02-04T11:28:29Z</time>
      </trkpt>
      <trkpt lat="45.96073" lon="4.70194">
        <ele>327</ele>
        <time>2018-02-04T11:28:30Z</time>
      </trkpt>
      <trkpt lat="45.96078" lon="4.70198">
        <ele>327</ele>
        <time>2018-02-04T11:28:31Z</time>
      </trkpt>
      <trkpt lat="45.96084" lon="4.70203">
        <ele>327</ele>
        <time>2018-02-04T11:28:32Z</time>
      </trkpt>
      <trkpt lat="45.96089" lon="4.70207">
        <ele>327</ele>
        <time>2018-02-04T11:28:33Z</time>
      </trkpt>
      <trkpt lat="45.96094" lon="4.70211">
        <ele>327</ele>
        <time>2018-02-04T11:28:34Z</time>
      </trkpt>
      <trkpt lat="45.961" lon="4.70216">
        <ele>327</ele>
        <time>2018-02-04T11:28:35Z</time>
      </trkpt>
      <trkpt lat="45.96107" lon="4.7022">
        <ele>327</ele>
        <time>2018-02-04T11:28:36Z</time>
      </trkpt>
      <trkpt lat="45.96112" lon="4.70225">
        <ele>327</ele>
        <time>2018-02-04T11:28:37Z</time>
      </trkpt>
      <trkpt lat="45.96117" lon="4.70231">
        <ele>327</ele>
        <time>2018-02-04T11:28:38Z</time>
      </trkpt>
      <trkpt lat="45.96123" lon="4.70236">
        <ele>327</ele>
        <time>2018-02-04T11:28:39Z</time>
      </trkpt>
      <trkpt lat="45.96128" lon="4.70243">
        <ele>327</ele>
        <time>2018-02-04T11:28:40Z</time>
      </trkpt>
      <trkpt lat="45.96134" lon="4.70248">
        <ele>327</ele>
        <time>2018-02-04T11:28:41Z</time>
      </trkpt>
      <trkpt lat="45.9614" lon="4.70253">
        <ele>324</ele>
        <time>2018-02-04T11:28:42Z</time>
      </trkpt>
      <trkpt lat="45.96145" lon="4.70259">
        <ele>324</ele>
        <time>2018-02-04T11:28:43Z</time>
      </trkpt>
      <trkpt lat="45.9615" lon="4.70265">
        <ele>324</ele>
        <time>2018-02-04T11:28:44Z</time>
      </trkpt>
      <trkpt lat="45.96155" lon="4.7027">
        <ele>324</ele>
        <time>2018-02-04T11:28:45Z</time>
      </trkpt>
      <trkpt lat="45.9616" lon="4.70276">
        <ele>324</ele>
        <time>2018-02-04T11:28:46Z</time>
      </trkpt>
      <trkpt lat="45.96165" lon="4.70281">
        <ele>323</ele>
        <time>2018-02-04T11:28:47Z</time>
      </trkpt>
      <trkpt lat="45.9617" lon="4.70287">
        <ele>326</ele>
        <time>2018-02-04T11:28:48Z</time>
      </trkpt>
      <trkpt lat="45.96175" lon="4.70293">
        <ele>326</ele>
        <time>2018-02-04T11:28:49Z</time>
      </trkpt>
      <trkpt lat="45.96181" lon="4.70299">
        <ele>326</ele>
        <time>2018-02-04T11:28:50Z</time>
      </trkpt>
      <trkpt lat="45.96185" lon="4.70306">
        <ele>325</ele>
        <time>2018-02-04T11:28:51Z</time>
      </trkpt>
      <trkpt lat="45.96189" lon="4.70312">
        <ele>325</ele>
        <time>2018-02-04T11:28:52Z</time>
      </trkpt>
      <trkpt lat="45.96194" lon="4.70319">
        <ele>325</ele>
        <time>2018-02-04T11:28:53Z</time>
      </trkpt>
      <trkpt lat="45.96198" lon="4.70326">
        <ele>325</ele>
        <time>2018-02-04T11:28:54Z</time>
      </trkpt>
      <trkpt lat="45.96203" lon="4.70332">
        <ele>326</ele>
        <time>2018-02-04T11:28:55Z</time>
      </trkpt>
      <trkpt lat="45.96207" lon="4.70339">
        <ele>321</ele>
        <time>2018-02-04T11:28:56Z</time>
      </trkpt>
      <trkpt lat="45.96212" lon="4.70346">
        <ele>321</ele>
        <time>2018-02-04T11:28:57Z</time>
      </trkpt>
      <trkpt lat="45.96216" lon="4.70353">
        <ele>321</ele>
        <time>2018-02-04T11:28:58Z</time>
      </trkpt>
      <trkpt lat="45.9622" lon="4.70361">
        <ele>321</ele>
        <time>2018-02-04T11:28:59Z</time>
      </trkpt>
      <trkpt lat="45.96225" lon="4.70368">
        <ele>321</ele>
        <time>2018-02-04T11:29:00Z</time>
      </trkpt>
      <trkpt lat="45.9623" lon="4.70376">
        <ele>320</ele>
        <time>2018-02-04T11:29:01Z</time>
      </trkpt>
      <trkpt lat="45.96234" lon="4.70384">
        <ele>320</ele>
        <time>2018-02-04T11:29:02Z</time>
      </trkpt>
      <trkpt lat="45.96239" lon="4.70391">
        <ele>320</ele>
        <time>2018-02-04T11:29:03Z</time>
      </trkpt>
      <trkpt lat="45.96243" lon="4.70398">
        <ele>320</ele>
        <time>2018-02-04T11:29:04Z</time>
      </trkpt>
      <trkpt lat="45.96248" lon="4.70405">
        <ele>320</ele>
        <time>2018-02-04T11:29:05Z</time>
      </trkpt>
      <trkpt lat="45.96254" lon="4.70413">
        <ele>322</ele>
        <time>2018-02-04T11:29:06Z</time>
      </trkpt>
      <trkpt lat="45.96257" lon="4.70421">
        <ele>320</ele>
        <time>2018-02-04T11:29:07Z</time>
      </trkpt>
      <trkpt lat="45.96262" lon="4.70427">
        <ele>320</ele>
        <time>2018-02-04T11:29:08Z</time>
      </trkpt>
      <trkpt lat="45.96267" lon="4.70434">
        <ele>321</ele>
        <time>2018-02-04T11:29:09Z</time>
      </trkpt>
      <trkpt lat="45.96272" lon="4.70441">
        <ele>321</ele>
        <time>2018-02-04T11:29:10Z</time>
      </trkpt>
      <trkpt lat="45.96277" lon="4.70448">
        <ele>321</ele>
        <time>2018-02-04T11:29:11Z</time>
      </trkpt>
      <trkpt lat="45.96282" lon="4.70454">
        <ele>321</ele>
        <time>2018-02-04T11:29:12Z</time>
      </trkpt>
      <trkpt lat="45.96286" lon="4.70461">
        <ele>320</ele>
        <time>2018-02-04T11:29:13Z</time>
      </trkpt>
      <trkpt lat="45.96291" lon="4.70469">
        <ele>320</ele>
        <time>2018-02-04T11:29:14Z</time>
      </trkpt>
      <trkpt lat="45.96296" lon="4.70477">
        <ele>320</ele>
        <time>2018-02-04T11:29:15Z</time>
      </trkpt>
      <trkpt lat="45.96301" lon="4.70485">
        <ele>320</ele>
        <time>2018-02-04T11:29:16Z</time>
      </trkpt>
      <trkpt lat="45.96307" lon="4.70492">
        <ele>320</ele>
        <time>2018-02-04T11:29:17Z</time>
      </trkpt>
      <trkpt lat="45.96312" lon="4.705">
        <ele>320</ele>
        <time>2018-02-04T11:29:18Z</time>
      </trkpt>
      <trkpt lat="45.96318" lon="4.70507">
        <ele>316</ele>
        <time>2018-02-04T11:29:19Z</time>
      </trkpt>
      <trkpt lat="45.96324" lon="4.70514">
        <ele>316</ele>
        <time>2018-02-04T11:29:20Z</time>
      </trkpt>
      <trkpt lat="45.96329" lon="4.70522">
        <ele>315</ele>
        <time>2018-02-04T11:29:21Z</time>
      </trkpt>
      <trkpt lat="45.96335" lon="4.70529">
        <ele>319</ele>
        <time>2018-02-04T11:29:22Z</time>
      </trkpt>
      <trkpt lat="45.96342" lon="4.70536">
        <ele>319</ele>
        <time>2018-02-04T11:29:23Z</time>
      </trkpt>
      <trkpt lat="45.96347" lon="4.70543">
        <ele>318</ele>
        <time>2018-02-04T11:29:24Z</time>
      </trkpt>
      <trkpt lat="45.96354" lon="4.70551">
        <ele>318</ele>
        <time>2018-02-04T11:29:25Z</time>
      </trkpt>
      <trkpt lat="45.9636" lon="4.70558">
        <ele>318</ele>
        <time>2018-02-04T11:29:26Z</time>
      </trkpt>
      <trkpt lat="45.96366" lon="4.70566">
        <ele>318</ele>
        <time>2018-02-04T11:29:27Z</time>
      </trkpt>
      <trkpt lat="45.96372" lon="4.70574">
        <ele>318</ele>
        <time>2018-02-04T11:29:28Z</time>
      </trkpt>
      <trkpt lat="45.96379" lon="4.70583">
        <ele>318</ele>
        <time>2018-02-04T11:29:29Z</time>
      </trkpt>
      <trkpt lat="45.96385" lon="4.7059">
        <ele>312</ele>
        <time>2018-02-04T11:29:30Z</time>
      </trkpt>
      <trkpt lat="45.96392" lon="4.70599">
        <ele>312</ele>
        <time>2018-02-04T11:29:31Z</time>
      </trkpt>
      <trkpt lat="45.96399" lon="4.70607">
        <ele>312</ele>
        <time>2018-02-04T11:29:32Z</time>
      </trkpt>
      <trkpt lat="45.96405" lon="4.70615">
        <ele>311</ele>
        <time>2018-02-04T11:29:33Z</time>
      </trkpt>
      <trkpt lat="45.96412" lon="4.70623">
        <ele>311</ele>
        <time>2018-02-04T11:29:34Z</time>
      </trkpt>
      <trkpt lat="45.96419" lon="4.7063">
        <ele>313</ele>
        <time>2018-02-04T11:29:35Z</time>
      </trkpt>
      <trkpt lat="45.96428" lon="4.70636">
        <ele>313</ele>
        <time>2018-02-04T11:29:36Z</time>
      </trkpt>
      <trkpt lat="45.96435" lon="4.70645">
        <ele>312</ele>
        <time>2018-02-04T11:29:37Z</time>
      </trkpt>
      <trkpt lat="45.96443" lon="4.70653">
        <ele>312</ele>
        <time>2018-02-04T11:29:38Z</time>
      </trkpt>
      <trkpt lat="45.96451" lon="4.70661">
        <ele>312</ele>
        <time>2018-02-04T11:29:39Z</time>
      </trkpt>
      <trkpt lat="45.96459" lon="4.70669">
        <ele>305</ele>
        <time>2018-02-04T11:29:40Z</time>
      </trkpt>
      <trkpt lat="45.96467" lon="4.70677">
        <ele>305</ele>
        <time>2018-02-04T11:29:41Z</time>
      </trkpt>
      <trkpt lat="45.96475" lon="4.70685">
        <ele>305</ele>
        <time>2018-02-04T11:29:42Z</time>
      </trkpt>
      <trkpt lat="45.96484" lon="4.70694">
        <ele>305</ele>
        <time>2018-02-04T11:29:43Z</time>
      </trkpt>
      <trkpt lat="45.96493" lon="4.70701">
        <ele>305</ele>
        <time>2018-02-04T11:29:44Z</time>
      </trkpt>
      <trkpt lat="45.96502" lon="4.70708">
        <ele>306</ele>
        <time>2018-02-04T11:29:45Z</time>
      </trkpt>
      <trkpt lat="45.96513" lon="4.70716">
        <ele>305</ele>
        <time>2018-02-04T11:29:46Z</time>
      </trkpt>
      <trkpt lat="45.96522" lon="4.70723">
        <ele>305</ele>
        <time>2018-02-04T11:29:47Z</time>
      </trkpt>
      <trkpt lat="45.96532" lon="4.70731">
        <ele>305</ele>
        <time>2018-02-04T11:29:48Z</time>
      </trkpt>
      <trkpt lat="45.96542" lon="4.70738">
        <ele>305</ele>
        <time>2018-02-04T11:29:49Z</time>
      </trkpt>
      <trkpt lat="45.96552" lon="4.70746">
        <ele>305</ele>
        <time>2018-02-04T11:29:50Z</time>
      </trkpt>
      <trkpt lat="45.9656" lon="4.70755">
        <ele>299</ele>
        <time>2018-02-04T11:29:51Z</time>
      </trkpt>
      <trkpt lat="45.9657" lon="4.70762">
        <ele>299</ele>
        <time>2018-02-04T11:29:52Z</time>
      </trkpt>
      <trkpt lat="45.9658" lon="4.7077">
        <ele>299</ele>
        <time>2018-02-04T11:29:53Z</time>
      </trkpt>
      <trkpt lat="45.96589" lon="4.70778">
        <ele>299</ele>
        <time>2018-02-04T11:29:54Z</time>
      </trkpt>
      <trkpt lat="45.966" lon="4.70786">
        <ele>299</ele>
        <time>2018-02-04T11:29:55Z</time>
      </trkpt>
      <trkpt lat="45.96611" lon="4.70794">
        <ele>298</ele>
        <time>2018-02-04T11:29:56Z</time>
      </trkpt>
      <trkpt lat="45.96622" lon="4.70801">
        <ele>298</ele>
        <time>2018-02-04T11:29:57Z</time>
      </trkpt>
      <trkpt lat="45.96633" lon="4.70807">
        <ele>298</ele>
        <time>2018-02-04T11:29:58Z</time>
      </trkpt>
      <trkpt lat="45.96645" lon="4.70814">
        <ele>297</ele>
        <time>2018-02-04T11:29:59Z</time>
      </trkpt>
      <trkpt lat="45.96658" lon="4.70821">
        <ele>297</ele>
        <time>2018-02-04T11:30:00Z</time>
      </trkpt>
      <trkpt lat="45.96669" lon="4.70828">
        <ele>296</ele>
        <time>2018-02-04T11:30:01Z</time>
      </trkpt>
      <trkpt lat="45.9668" lon="4.70835">
        <ele>292</ele>
        <time>2018-02-04T11:30:02Z</time>
      </trkpt>
      <trkpt lat="45.9669" lon="4.70842">
        <ele>291</ele>
        <time>2018-02-04T11:30:03Z</time>
      </trkpt>
      <trkpt lat="45.967" lon="4.70851">
        <ele>290</ele>
        <time>2018-02-04T11:30:04Z</time>
      </trkpt>
      <trkpt lat="45.96711" lon="4.70858">
        <ele>289</ele>
        <time>2018-02-04T11:30:05Z</time>
      </trkpt>
      <trkpt lat="45.96722" lon="4.70865">
        <ele>289</ele>
        <time>2018-02-04T11:30:06Z</time>
      </trkpt>
      <trkpt lat="45.96733" lon="4.70872">
        <ele>289</ele>
        <time>2018-02-04T11:30:07Z</time>
      </trkpt>
      <trkpt lat="45.96743" lon="4.7088">
        <ele>288</ele>
        <time>2018-02-04T11:30:08Z</time>
      </trkpt>
      <trkpt lat="45.96754" lon="4.70887">
        <ele>288</ele>
        <time>2018-02-04T11:30:09Z</time>
      </trkpt>
      <trkpt lat="45.96764" lon="4.70894">
        <ele>288</ele>
        <time>2018-02-04T11:30:10Z</time>
      </trkpt>
      <trkpt lat="45.96775" lon="4.70901">
        <ele>288</ele>
        <time>2018-02-04T11:30:11Z</time>
      </trkpt>
      <trkpt lat="45.96785" lon="4.70907">
        <ele>288</ele>
        <time>2018-02-04T11:30:12Z</time>
      </trkpt>
      <trkpt lat="45.96795" lon="4.70914">
        <ele>288</ele>
        <time>2018-02-04T11:30:13Z</time>
      </trkpt>
      <trkpt lat="45.96805" lon="4.7092">
        <ele>281</ele>
        <time>2018-02-04T11:30:14Z</time>
      </trkpt>
      <trkpt lat="45.96815" lon="4.70926">
        <ele>281</ele>
        <time>2018-02-04T11:30:15Z</time>
      </trkpt>
      <trkpt lat="45.96825" lon="4.70932">
        <ele>282</ele>
        <time>2018-02-04T11:30:16Z</time>
      </trkpt>
      <trkpt lat="45.96835" lon="4.70938">
        <ele>282</ele>
        <time>2018-02-04T11:30:17Z</time>
      </trkpt>
      <trkpt lat="45.96846" lon="4.70945">
        <ele>281</ele>
        <time>2018-02-04T11:30:18Z</time>
      </trkpt>
      <trkpt lat="45.96856" lon="4.70952">
        <ele>280</ele>
        <time>2018-02-04T11:30:19Z</time>
      </trkpt>
      <trkpt lat="45.96865" lon="4.70958">
        <ele>279</ele>
        <time>2018-02-04T11:30:20Z</time>
      </trkpt>
      <trkpt lat="45.96875" lon="4.70963">
        <ele>279</ele>
        <time>2018-02-04T11:30:21Z</time>
      </trkpt>
      <trkpt lat="45.96885" lon="4.70968">
        <ele>279</ele>
        <time>2018-02-04T11:30:22Z</time>
      </trkpt>
      <trkpt lat="45.96895" lon="4.70971">
        <ele>278</ele>
        <time>2018-02-04T11:30:23Z</time>
      </trkpt>
      <trkpt lat="45.96905" lon="4.70975">
        <ele>278</ele>
        <time>2018-02-04T11:30:24Z</time>
      </trkpt>
      <trkpt lat="45.96914" lon="4.70977">
        <ele>277</ele>
        <time>2018-02-04T11:30:25Z</time>
      </trkpt>
      <trkpt lat="45.96924" lon="4.70979">
        <ele>275</ele>
        <time>2018-02-04T11:30:26Z</time>
      </trkpt>
      <trkpt lat="45.96934" lon="4.70981">
        <ele>275</ele>
        <time>2018-02-04T11:30:27Z</time>
      </trkpt>
      <trkpt lat="45.96946" lon="4.70983">
        <ele>275</ele>
        <time>2018-02-04T11:30:28Z</time>
      </trkpt>
      <trkpt lat="45.96956" lon="4.70984">
        <ele>275</ele>
        <time>2018-02-04T11:30:29Z</time>
      </trkpt>
      <trkpt lat="45.96966" lon="4.70985">
        <ele>274</ele>
        <time>2018-02-04T11:30:30Z</time>
      </trkpt>
      <trkpt lat="45.96976" lon="4.70987">
        <ele>273</ele>
        <time>2018-02-04T11:30:31Z</time>
      </trkpt>
      <trkpt lat="45.96986" lon="4.70989">
        <ele>272</ele>
        <time>2018-02-04T11:30:32Z</time>
      </trkpt>
      <trkpt lat="45.96996" lon="4.7099">
        <ele>271</ele>
        <time>2018-02-04T11:30:33Z</time>
      </trkpt>
      <trkpt lat="45.97007" lon="4.70989">
        <ele>269</ele>
        <time>2018-02-04T11:30:34Z</time>
      </trkpt>
      <trkpt lat="45.97016" lon="4.70989">
        <ele>269</ele>
        <time>2018-02-04T11:30:35Z</time>
      </trkpt>
      <trkpt lat="45.97027" lon="4.70989">
        <ele>269</ele>
        <time>2018-02-04T11:30:36Z</time>
      </trkpt>
      <trkpt lat="45.97037" lon="4.70987">
        <ele>269</ele>
        <time>2018-02-04T11:30:37Z</time>
      </trkpt>
      <trkpt lat="45.97047" lon="4.70987">
        <ele>269</ele>
        <time>2018-02-04T11:30:38Z</time>
      </trkpt>
      <trkpt lat="45.97057" lon="4.70986">
        <ele>268</ele>
        <time>2018-02-04T11:30:39Z</time>
      </trkpt>
      <trkpt lat="45.97068" lon="4.70984">
        <ele>268</ele>
        <time>2018-02-04T11:30:40Z</time>
      </trkpt>
      <trkpt lat="45.97078" lon="4.70982">
        <ele>267</ele>
        <time>2018-02-04T11:30:41Z</time>
      </trkpt>
      <trkpt lat="45.97089" lon="4.7098">
        <ele>264</ele>
        <time>2018-02-04T11:30:42Z</time>
      </trkpt>
      <trkpt lat="45.97099" lon="4.70975">
        <ele>264</ele>
        <time>2018-02-04T11:30:43Z</time>
      </trkpt>
      <trkpt lat="45.97108" lon="4.70972">
        <ele>264</ele>
        <time>2018-02-04T11:30:44Z</time>
      </trkpt>
      <trkpt lat="45.97118" lon="4.70968">
        <ele>264</ele>
        <time>2018-02-04T11:30:45Z</time>
      </trkpt>
      <trkpt lat="45.97128" lon="4.70965">
        <ele>264</ele>
        <time>2018-02-04T11:30:46Z</time>
      </trkpt>
      <trkpt lat="45.97138" lon="4.7096">
        <ele>263</ele>
        <time>2018-02-04T11:30:47Z</time>
      </trkpt>
      <trkpt lat="45.97147" lon="4.70956">
        <ele>263</ele>
        <time>2018-02-04T11:30:48Z</time>
      </trkpt>
      <trkpt lat="45.97156" lon="4.70952">
        <ele>263</ele>
        <time>2018-02-04T11:30:49Z</time>
      </trkpt>
      <trkpt lat="45.97165" lon="4.70948">
        <ele>263</ele>
        <time>2018-02-04T11:30:50Z</time>
      </trkpt>
      <trkpt lat="45.97173" lon="4.70943">
        <ele>258</ele>
        <time>2018-02-04T11:30:51Z</time>
      </trkpt>
      <trkpt lat="45.97181" lon="4.70938">
        <ele>258</ele>
        <time>2018-02-04T11:30:52Z</time>
      </trkpt>
      <trkpt lat="45.9719" lon="4.70932">
        <ele>258</ele>
        <time>2018-02-04T11:30:53Z</time>
      </trkpt>
      <trkpt lat="45.97197" lon="4.70926">
        <ele>257</ele>
        <time>2018-02-04T11:30:54Z</time>
      </trkpt>
      <trkpt lat="45.97204" lon="4.70919">
        <ele>257</ele>
        <time>2018-02-04T11:30:55Z</time>
      </trkpt>
      <trkpt lat="45.97211" lon="4.70912">
        <ele>260</ele>
        <time>2018-02-04T11:30:56Z</time>
      </trkpt>
      <trkpt lat="45.97218" lon="4.70904">
        <ele>259</ele>
        <time>2018-02-04T11:30:57Z</time>
      </trkpt>
      <trkpt lat="45.97225" lon="4.70896">
        <ele>259</ele>
        <time>2018-02-04T11:30:58Z</time>
      </trkpt>
      <trkpt lat="45.97231" lon="4.70887">
        <ele>259</ele>
        <time>2018-02-04T11:30:59Z</time>
      </trkpt>
      <trkpt lat="45.97238" lon="4.70878">
        <ele>259</ele>
        <time>2018-02-04T11:31:00Z</time>
      </trkpt>
      <trkpt lat="45.97244" lon="4.70869">
        <ele>259</ele>
        <time>2018-02-04T11:31:01Z</time>
      </trkpt>
      <trkpt lat="45.97251" lon="4.70859">
        <ele>253</ele>
        <time>2018-02-04T11:31:02Z</time>
      </trkpt>
      <trkpt lat="45.97257" lon="4.70849">
        <ele>254</ele>
        <time>2018-02-04T11:31:03Z</time>
      </trkpt>
      <trkpt lat="45.97263" lon="4.70839">
        <ele>254</ele>
        <time>2018-02-04T11:31:04Z</time>
      </trkpt>
      <trkpt lat="45.97269" lon="4.7083">
        <ele>255</ele>
        <time>2018-02-04T11:31:05Z</time>
      </trkpt>
      <trkpt lat="45.97276" lon="4.70821">
        <ele>255</ele>
        <time>2018-02-04T11:31:06Z</time>
      </trkpt>
      <trkpt lat="45.97283" lon="4.70812">
        <ele>254</ele>
        <time>2018-02-04T11:31:07Z</time>
      </trkpt>
      <trkpt lat="45.97289" lon="4.70805">
        <ele>254</ele>
        <time>2018-02-04T11:31:08Z</time>
      </trkpt>
      <trkpt lat="45.97295" lon="4.70799">
        <ele>253</ele>
        <time>2018-02-04T11:31:09Z</time>
      </trkpt>
      <trkpt lat="45.97301" lon="4.70794">
        <ele>253</ele>
        <time>2018-02-04T11:31:10Z</time>
      </trkpt>
      <trkpt lat="45.97307" lon="4.70787">
        <ele>253</ele>
        <time>2018-02-04T11:31:11Z</time>
      </trkpt>
      <trkpt lat="45.97314" lon="4.70779">
        <ele>252</ele>
        <time>2018-02-04T11:31:12Z</time>
      </trkpt>
      <trkpt lat="45.97322" lon="4.70774">
        <ele>252</ele>
        <time>2018-02-04T11:31:13Z</time>
      </trkpt>
      <trkpt lat="45.97331" lon="4.7077">
        <ele>251</ele>
        <time>2018-02-04T11:31:14Z</time>
      </trkpt>
      <trkpt lat="45.97339" lon="4.70766">
        <ele>246</ele>
        <time>2018-02-04T11:31:15Z</time>
      </trkpt>
      <trkpt lat="45.97347" lon="4.70763">
        <ele>246</ele>
        <time>2018-02-04T11:31:16Z</time>
      </trkpt>
      <trkpt lat="45.97356" lon="4.70759">
        <ele>245</ele>
        <time>2018-02-04T11:31:17Z</time>
      </trkpt>
      <trkpt lat="45.97364" lon="4.70754">
        <ele>245</ele>
        <time>2018-02-04T11:31:18Z</time>
      </trkpt>
      <trkpt lat="45.97374" lon="4.70751">
        <ele>244</ele>
        <time>2018-02-04T11:31:19Z</time>
      </trkpt>
      <trkpt lat="45.97383" lon="4.70749">
        <ele>244</ele>
        <time>2018-02-04T11:31:20Z</time>
      </trkpt>
      <trkpt lat="45.97392" lon="4.70748">
        <ele>243</ele>
        <time>2018-02-04T11:31:21Z</time>
      </trkpt>
      <trkpt lat="45.974" lon="4.70749">
        <ele>242</ele>
        <time>2018-02-04T11:31:22Z</time>
      </trkpt>
      <trkpt lat="45.9741" lon="4.70749">
        <ele>241</ele>
        <time>2018-02-04T11:31:23Z</time>
      </trkpt>
      <trkpt lat="45.97418" lon="4.7075">
        <ele>240</ele>
        <time>2018-02-04T11:31:24Z</time>
      </trkpt>
      <trkpt lat="45.97426" lon="4.70751">
        <ele>239</ele>
        <time>2018-02-04T11:31:25Z</time>
      </trkpt>
      <trkpt lat="45.97433" lon="4.70752">
        <ele>239</ele>
        <time>2018-02-04T11:31:26Z</time>
      </trkpt>
      <trkpt lat="45.97441" lon="4.70753">
        <ele>238</ele>
        <time>2018-02-04T11:31:27Z</time>
      </trkpt>
      <trkpt lat="45.97449" lon="4.70753">
        <ele>238</ele>
        <time>2018-02-04T11:31:28Z</time>
      </trkpt>
      <trkpt lat="45.97458" lon="4.70752">
        <ele>237</ele>
        <time>2018-02-04T11:31:29Z</time>
      </trkpt>
      <trkpt lat="45.97466" lon="4.7075">
        <ele>238</ele>
        <time>2018-02-04T11:31:30Z</time>
      </trkpt>
      <trkpt lat="45.97474" lon="4.70749">
        <ele>237</ele>
        <time>2018-02-04T11:31:31Z</time>
      </trkpt>
      <trkpt lat="45.97482" lon="4.70745">
        <ele>237</ele>
        <time>2018-02-04T11:31:32Z</time>
      </trkpt>
      <trkpt lat="45.97491" lon="4.70743">
        <ele>237</ele>
        <time>2018-02-04T11:31:33Z</time>
      </trkpt>
      <trkpt lat="45.975" lon="4.70741">
        <ele>237</ele>
        <time>2018-02-04T11:31:34Z</time>
      </trkpt>
      <trkpt lat="45.97508" lon="4.7074">
        <ele>235</ele>
        <time>2018-02-04T11:31:35Z</time>
      </trkpt>
      <trkpt lat="45.97515" lon="4.70738">
        <ele>235</ele>
        <time>2018-02-04T11:31:36Z</time>
      </trkpt>
      <trkpt lat="45.97517" lon="4.70741">
        <ele>235</ele>
        <time>2018-02-04T11:31:37Z</time>
      </trkpt>
      <trkpt lat="45.97525" lon="4.7074">
        <ele>234</ele>
        <time>2018-02-04T11:31:38Z</time>
      </trkpt>
      <trkpt lat="45.97532" lon="4.70738">
        <ele>234</ele>
        <time>2018-02-04T11:31:39Z</time>
      </trkpt>
      <trkpt lat="45.9754" lon="4.70737">
        <ele>234</ele>
        <time>2018-02-04T11:31:40Z</time>
      </trkpt>
      <trkpt lat="45.97547" lon="4.70737">
        <ele>233</ele>
        <time>2018-02-04T11:31:41Z</time>
      </trkpt>
      <trkpt lat="45.97554" lon="4.70737">
        <ele>233</ele>
        <time>2018-02-04T11:31:42Z</time>
      </trkpt>
      <trkpt lat="45.97563" lon="4.70732">
        <ele>233</ele>
        <time>2018-02-04T11:31:43Z</time>
      </trkpt>
      <trkpt lat="45.97571" lon="4.70731">
        <ele>232</ele>
        <time>2018-02-04T11:31:44Z</time>
      </trkpt>
      <trkpt lat="45.97579" lon="4.7073">
        <ele>232</ele>
        <time>2018-02-04T11:31:45Z</time>
      </trkpt>
      <trkpt lat="45.97588" lon="4.7073">
        <ele>229</ele>
        <time>2018-02-04T11:31:46Z</time>
      </trkpt>
      <trkpt lat="45.97596" lon="4.70731">
        <ele>229</ele>
        <time>2018-02-04T11:31:47Z</time>
      </trkpt>
      <trkpt lat="45.97604" lon="4.70733">
        <ele>229</ele>
        <time>2018-02-04T11:31:48Z</time>
      </trkpt>
      <trkpt lat="45.97611" lon="4.70736">
        <ele>229</ele>
        <time>2018-02-04T11:31:49Z</time>
      </trkpt>
      <trkpt lat="45.97621" lon="4.70738">
        <ele>228</ele>
        <time>2018-02-04T11:31:50Z</time>
      </trkpt>
      <trkpt lat="45.9763" lon="4.70739">
        <ele>228</ele>
        <time>2018-02-04T11:31:51Z</time>
      </trkpt>
      <trkpt lat="45.97638" lon="4.70742">
        <ele>227</ele>
        <time>2018-02-04T11:31:52Z</time>
      </trkpt>
      <trkpt lat="45.97647" lon="4.70745">
        <ele>226</ele>
        <time>2018-02-04T11:31:53Z</time>
      </trkpt>
      <trkpt lat="45.97656" lon="4.70748">
        <ele>225</ele>
        <time>2018-02-04T11:31:54Z</time>
      </trkpt>
      <trkpt lat="45.97664" lon="4.70751">
        <ele>224</ele>
        <time>2018-02-04T11:31:55Z</time>
      </trkpt>
      <trkpt lat="45.97671" lon="4.70754">
        <ele>224</ele>
        <time>2018-02-04T11:31:56Z</time>
      </trkpt>
      <trkpt lat="45.9768" lon="4.70757">
        <ele>223</ele>
        <time>2018-02-04T11:31:57Z</time>
      </trkpt>
      <trkpt lat="45.97689" lon="4.7076">
        <ele>223</ele>
        <time>2018-02-04T11:31:58Z</time>
      </trkpt>
      <trkpt lat="45.97697" lon="4.70763">
        <ele>223</ele>
        <time>2018-02-04T11:31:59Z</time>
      </trkpt>
      <trkpt lat="45.97706" lon="4.70765">
        <ele>223</ele>
        <time>2018-02-04T11:32:00Z</time>
      </trkpt>
      <trkpt lat="45.97714" lon="4.70768">
        <ele>223</ele>
        <time>2018-02-04T11:32:01Z</time>
      </trkpt>
      <trkpt lat="45.97724" lon="4.70771">
        <ele>222</ele>
        <time>2018-02-04T11:32:02Z</time>
      </trkpt>
      <trkpt lat="45.97733" lon="4.70774">
        <ele>222</ele>
        <time>2018-02-04T11:32:03Z</time>
      </trkpt>
      <trkpt lat="45.97742" lon="4.70777">
        <ele>222</ele>
        <time>2018-02-04T11:32:04Z</time>
      </trkpt>
      <trkpt lat="45.9775" lon="4.70779">
        <ele>221</ele>
        <time>2018-02-04T11:32:05Z</time>
      </trkpt>
      <trkpt lat="45.97758" lon="4.70781">
        <ele>221</ele>
        <time>2018-02-04T11:32:06Z</time>
      </trkpt>
      <trkpt lat="45.97766" lon="4.70783">
        <ele>221</ele>
        <time>2018-02-04T11:32:07Z</time>
      </trkpt>
      <trkpt lat="45.97773" lon="4.70784">
        <ele>221</ele>
        <time>2018-02-04T11:32:08Z</time>
      </trkpt>
      <trkpt lat="45.97779" lon="4.70789">
        <ele>221</ele>
        <time>2018-02-04T11:32:09Z</time>
      </trkpt>
      <trkpt lat="45.97786" lon="4.70792">
        <ele>221</ele>
        <time>2018-02-04T11:32:10Z</time>
      </trkpt>
      <trkpt lat="45.97791" lon="4.70796">
        <ele>221</ele>
        <time>2018-02-04T11:32:11Z</time>
      </trkpt>
      <trkpt lat="45.97796" lon="4.70802">
        <ele>221</ele>
        <time>2018-02-04T11:32:12Z</time>
      </trkpt>
      <trkpt lat="45.97802" lon="4.70808">
        <ele>221</ele>
        <time>2018-02-04T11:32:13Z</time>
      </trkpt>
      <trkpt lat="45.97807" lon="4.70815">
        <ele>221</ele>
        <time>2018-02-04T11:32:14Z</time>
      </trkpt>
      <trkpt lat="45.97811" lon="4.70823">
        <ele>221</ele>
        <time>2018-02-04T11:32:15Z</time>
      </trkpt>
      <trkpt lat="45.97814" lon="4.70831">
        <ele>221</ele>
        <time>2018-02-04T11:32:16Z</time>
      </trkpt>
      <trkpt lat="45.97816" lon="4.7084">
        <ele>220</ele>
        <time>2018-02-04T11:32:17Z</time>
      </trkpt>
      <trkpt lat="45.97818" lon="4.7085">
        <ele>220</ele>
        <time>2018-02-04T11:32:18Z</time>
      </trkpt>
      <trkpt lat="45.97819" lon="4.70861">
        <ele>220</ele>
        <time>2018-02-04T11:32:19Z</time>
      </trkpt>
      <trkpt lat="45.97821" lon="4.70872">
        <ele>220</ele>
        <time>2018-02-04T11:32:20Z</time>
      </trkpt>
      <trkpt lat="45.97821" lon="4.70883">
        <ele>220</ele>
        <time>2018-02-04T11:32:21Z</time>
      </trkpt>
      <trkpt lat="45.97822" lon="4.70893">
        <ele>220</ele>
        <time>2018-02-04T11:32:22Z</time>
      </trkpt>
      <trkpt lat="45.97821" lon="4.70904">
        <ele>220</ele>
        <time>2018-02-04T11:32:23Z</time>
      </trkpt>
      <trkpt lat="45.97821" lon="4.70915">
        <ele>219</ele>
        <time>2018-02-04T11:32:24Z</time>
      </trkpt>
      <trkpt lat="45.97821" lon="4.70926">
        <ele>219</ele>
        <time>2018-02-04T11:32:25Z</time>
      </trkpt>
      <trkpt lat="45.97821" lon="4.70936">
        <ele>218</ele>
        <time>2018-02-04T11:32:26Z</time>
      </trkpt>
      <trkpt lat="45.97824" lon="4.70947">
        <ele>218</ele>
        <time>2018-02-04T11:32:27Z</time>
      </trkpt>
      <trkpt lat="45.97827" lon="4.70958">
        <ele>218</ele>
        <time>2018-02-04T11:32:28Z</time>
      </trkpt>
      <trkpt lat="45.9783" lon="4.70969">
        <ele>218</ele>
        <time>2018-02-04T11:32:29Z</time>
      </trkpt>
      <trkpt lat="45.97832" lon="4.70982">
        <ele>217</ele>
        <time>2018-02-04T11:32:30Z</time>
      </trkpt>
      <trkpt lat="45.97833" lon="4.70994">
        <ele>216</ele>
        <time>2018-02-04T11:32:31Z</time>
      </trkpt>
      <trkpt lat="45.97833" lon="4.71007">
        <ele>216</ele>
        <time>2018-02-04T11:32:32Z</time>
      </trkpt>
      <trkpt lat="45.97834" lon="4.71021">
        <ele>216</ele>
        <time>2018-02-04T11:32:33Z</time>
      </trkpt>
      <trkpt lat="45.97835" lon="4.71034">
        <ele>216</ele>
        <time>2018-02-04T11:32:34Z</time>
      </trkpt>
      <trkpt lat="45.97836" lon="4.71047">
        <ele>215</ele>
        <time>2018-02-04T11:32:35Z</time>
      </trkpt>
      <trkpt lat="45.97837" lon="4.7106">
        <ele>215</ele>
        <time>2018-02-04T11:32:36Z</time>
      </trkpt>
      <trkpt lat="45.97838" lon="4.71073">
        <ele>215</ele>
        <time>2018-02-04T11:32:37Z</time>
      </trkpt>
      <trkpt lat="45.9784" lon="4.71088">
        <ele>214</ele>
        <time>2018-02-04T11:32:38Z</time>
      </trkpt>
      <trkpt lat="45.97842" lon="4.71102">
        <ele>213</ele>
        <time>2018-02-04T11:32:39Z</time>
      </trkpt>
      <trkpt lat="45.97844" lon="4.71116">
        <ele>213</ele>
        <time>2018-02-04T11:32:40Z</time>
      </trkpt>
      <trkpt lat="45.97846" lon="4.71129">
        <ele>212</ele>
        <time>2018-02-04T11:32:41Z</time>
      </trkpt>
      <trkpt lat="45.97847" lon="4.71144">
        <ele>212</ele>
        <time>2018-02-04T11:32:42Z</time>
      </trkpt>
      <trkpt lat="45.97849" lon="4.71157">
        <ele>212</ele>
        <time>2018-02-04T11:32:43Z</time>
      </trkpt>
      <trkpt lat="45.97848" lon="4.71172">
        <ele>210</ele>
        <time>2018-02-04T11:32:44Z</time>
      </trkpt>
      <trkpt lat="45.97849" lon="4.71185">
        <ele>209</ele>
        <time>2018-02-04T11:32:45Z</time>
      </trkpt>
      <trkpt lat="45.9785" lon="4.712">
        <ele>209</ele>
        <time>2018-02-04T11:32:46Z</time>
      </trkpt>
      <trkpt lat="45.97849" lon="4.71214">
        <ele>208</ele>
        <time>2018-02-04T11:32:47Z</time>
      </trkpt>
      <trkpt lat="45.97848" lon="4.71228">
        <ele>208</ele>
        <time>2018-02-04T11:32:48Z</time>
      </trkpt>
      <trkpt lat="45.9785" lon="4.71243">
        <ele>208</ele>
        <time>2018-02-04T11:32:49Z</time>
      </trkpt>
      <trkpt lat="45.9785" lon="4.71257">
        <ele>207</ele>
        <time>2018-02-04T11:32:50Z</time>
      </trkpt>
      <trkpt lat="45.9785" lon="4.71271">
        <ele>206</ele>
        <time>2018-02-04T11:32:51Z</time>
      </trkpt>
      <trkpt lat="45.97849" lon="4.71285">
        <ele>206</ele>
        <time>2018-02-04T11:32:52Z</time>
      </trkpt>
      <trkpt lat="45.97849" lon="4.71298">
        <ele>206</ele>
        <time>2018-02-04T11:32:53Z</time>
      </trkpt>
      <trkpt lat="45.97848" lon="4.71311">
        <ele>205</ele>
        <time>2018-02-04T11:32:54Z</time>
      </trkpt>
      <trkpt lat="45.97848" lon="4.71324">
        <ele>205</ele>
        <time>2018-02-04T11:32:55Z</time>
      </trkpt>
      <trkpt lat="45.97848" lon="4.71338">
        <ele>204</ele>
        <time>2018-02-04T11:32:56Z</time>
      </trkpt>
      <trkpt lat="45.97847" lon="4.71352">
        <ele>204</ele>
        <time>2018-02-04T11:32:57Z</time>
      </trkpt>
      <trkpt lat="45.97846" lon="4.71365">
        <ele>204</ele>
        <time>2018-02-04T11:32:58Z</time>
      </trkpt>
      <trkpt lat="45.97847" lon="4.71379">
        <ele>203</ele>
        <time>2018-02-04T11:32:59Z</time>
      </trkpt>
      <trkpt lat="45.97848" lon="4.71393">
        <ele>203</ele>
        <time>2018-02-04T11:33:00Z</time>
      </trkpt>
      <trkpt lat="45.97849" lon="4.71405">
        <ele>203</ele>
        <time>2018-02-04T11:33:01Z</time>
      </trkpt>
      <trkpt lat="45.9785" lon="4.71418">
        <ele>202</ele>
        <time>2018-02-04T11:33:02Z</time>
      </trkpt>
      <trkpt lat="45.9785" lon="4.7143">
        <ele>202</ele>
        <time>2018-02-04T11:33:03Z</time>
      </trkpt>
      <trkpt lat="45.97852" lon="4.71443">
        <ele>201</ele>
        <time>2018-02-04T11:33:04Z</time>
      </trkpt>
      <trkpt lat="45.97855" lon="4.71456">
        <ele>201</ele>
        <time>2018-02-04T11:33:05Z</time>
      </trkpt>
      <trkpt lat="45.97858" lon="4.71468">
        <ele>201</ele>
        <time>2018-02-04T11:33:06Z</time>
      </trkpt>
      <trkpt lat="45.9786" lon="4.71481">
        <ele>201</ele>
        <time>2018-02-04T11:33:07Z</time>
      </trkpt>
      <trkpt lat="45.97863" lon="4.71492">
        <ele>201</ele>
        <time>2018-02-04T11:33:08Z</time>
      </trkpt>
      <trkpt lat="45.97865" lon="4.71504">
        <ele>200</ele>
        <time>2018-02-04T11:33:09Z</time>
      </trkpt>
      <trkpt lat="45.97867" lon="4.71515">
        <ele>199</ele>
        <time>2018-02-04T11:33:10Z</time>
      </trkpt>
      <trkpt lat="45.97869" lon="4.71527">
        <ele>199</ele>
        <time>2018-02-04T11:33:11Z</time>
      </trkpt>
      <trkpt lat="45.97872" lon="4.71539">
        <ele>199</ele>
        <time>2018-02-04T11:33:12Z</time>
      </trkpt>
      <trkpt lat="45.97874" lon="4.71551">
        <ele>199</ele>
        <time>2018-02-04T11:33:13Z</time>
      </trkpt>
      <trkpt lat="45.97875" lon="4.71563">
        <ele>198</ele>
        <time>2018-02-04T11:33:14Z</time>
      </trkpt>
      <trkpt lat="45.97875" lon="4.71575">
        <ele>198</ele>
        <time>2018-02-04T11:33:15Z</time>
      </trkpt>
      <trkpt lat="45.97876" lon="4.71587">
        <ele>197</ele>
        <time>2018-02-04T11:33:16Z</time>
      </trkpt>
      <trkpt lat="45.97877" lon="4.71598">
        <ele>197</ele>
        <time>2018-02-04T11:33:17Z</time>
      </trkpt>
      <trkpt lat="45.97877" lon="4.7161">
        <ele>197</ele>
        <time>2018-02-04T11:33:18Z</time>
      </trkpt>
      <trkpt lat="45.97877" lon="4.71621">
        <ele>197</ele>
        <time>2018-02-04T11:33:19Z</time>
      </trkpt>
      <trkpt lat="45.97875" lon="4.71633">
        <ele>197</ele>
        <time>2018-02-04T11:33:20Z</time>
      </trkpt>
      <trkpt lat="45.97879" lon="4.71642">
        <ele>197</ele>
        <time>2018-02-04T11:33:21Z</time>
      </trkpt>
      <trkpt lat="45.97883" lon="4.71651">
        <ele>197</ele>
        <time>2018-02-04T11:33:23Z</time>
      </trkpt>
      <trkpt lat="45.97875" lon="4.71665">
        <ele>197</ele>
        <time>2018-02-04T11:33:24Z</time>
      </trkpt>
      <trkpt lat="45.97871" lon="4.71678">
        <ele>196</ele>
        <time>2018-02-04T11:33:25Z</time>
      </trkpt>
      <trkpt lat="45.97868" lon="4.7169">
        <ele>196</ele>
        <time>2018-02-04T11:33:26Z</time>
      </trkpt>
      <trkpt lat="45.97863" lon="4.717">
        <ele>196</ele>
        <time>2018-02-04T11:33:27Z</time>
      </trkpt>
      <trkpt lat="45.9786" lon="4.7171">
        <ele>196</ele>
        <time>2018-02-04T11:33:28Z</time>
      </trkpt>
      <trkpt lat="45.97857" lon="4.71718">
        <ele>196</ele>
        <time>2018-02-04T11:33:29Z</time>
      </trkpt>
      <trkpt lat="45.97853" lon="4.71726">
        <ele>196</ele>
        <time>2018-02-04T11:33:30Z</time>
      </trkpt>
      <trkpt lat="45.97849" lon="4.71734">
        <ele>196</ele>
        <time>2018-02-04T11:33:31Z</time>
      </trkpt>
      <trkpt lat="45.97844" lon="4.7174">
        <ele>195</ele>
        <time>2018-02-04T11:33:32Z</time>
      </trkpt>
      <trkpt lat="45.97841" lon="4.71746">
        <ele>195</ele>
        <time>2018-02-04T11:33:33Z</time>
      </trkpt>
      <trkpt lat="45.97834" lon="4.71747">
        <ele>195</ele>
        <time>2018-02-04T11:33:34Z</time>
      </trkpt>
      <trkpt lat="45.97826" lon="4.71747">
        <ele>195</ele>
        <time>2018-02-04T11:33:35Z</time>
      </trkpt>
      <trkpt lat="45.9782" lon="4.71745">
        <ele>196</ele>
        <time>2018-02-04T11:33:36Z</time>
      </trkpt>
      <trkpt lat="45.97814" lon="4.71745">
        <ele>196</ele>
        <time>2018-02-04T11:33:37Z</time>
      </trkpt>
      <trkpt lat="45.97808" lon="4.71745">
        <ele>196</ele>
        <time>2018-02-04T11:33:38Z</time>
      </trkpt>
      <trkpt lat="45.97802" lon="4.71744">
        <ele>196</ele>
        <time>2018-02-04T11:33:39Z</time>
      </trkpt>
      <trkpt lat="45.97795" lon="4.71743">
        <ele>196</ele>
        <time>2018-02-04T11:33:40Z</time>
      </trkpt>
      <trkpt lat="45.97788" lon="4.71742">
        <ele>196</ele>
        <time>2018-02-04T11:33:41Z</time>
      </trkpt>
      <trkpt lat="45.97782" lon="4.71742">
        <ele>196</ele>
        <time>2018-02-04T11:33:42Z</time>
      </trkpt>
      <trkpt lat="45.97776" lon="4.71741">
        <ele>196</ele>
        <time>2018-02-04T11:33:43Z</time>
      </trkpt>
      <trkpt lat="45.9777" lon="4.7174">
        <ele>196</ele>
        <time>2018-02-04T11:33:44Z</time>
      </trkpt>
      <trkpt lat="45.97763" lon="4.71739">
        <ele>196</ele>
        <time>2018-02-04T11:33:45Z</time>
      </trkpt>
      <trkpt lat="45.9776" lon="4.71739">
        <ele>196</ele>
        <time>2018-02-04T11:33:46Z</time>
      </trkpt>
      <trkpt lat="45.97754" lon="4.71739">
        <ele>196</ele>
        <time>2018-02-04T11:33:47Z</time>
      </trkpt>
      <trkpt lat="45.97748" lon="4.71739">
        <ele>196</ele>
        <time>2018-02-04T11:33:48Z</time>
      </trkpt>
      <trkpt lat="45.97741" lon="4.71738">
        <ele>196</ele>
        <time>2018-02-04T11:33:49Z</time>
      </trkpt>
      <trkpt lat="45.97735" lon="4.71739">
        <ele>196</ele>
        <time>2018-02-04T11:33:50Z</time>
      </trkpt>
      <trkpt lat="45.97729" lon="4.71738">
        <ele>196</ele>
        <time>2018-02-04T11:33:51Z</time>
      </trkpt>
      <trkpt lat="45.97724" lon="4.71737">
        <ele>196</ele>
        <time>2018-02-04T11:33:52Z</time>
      </trkpt>
      <trkpt lat="45.97717" lon="4.71738">
        <ele>196</ele>
        <time>2018-02-04T11:33:53Z</time>
      </trkpt>
      <trkpt lat="45.9771" lon="4.71738">
        <ele>196</ele>
        <time>2018-02-04T11:33:54Z</time>
      </trkpt>
      <trkpt lat="45.97704" lon="4.71738">
        <ele>196</ele>
        <time>2018-02-04T11:33:55Z</time>
      </trkpt>
      <trkpt lat="45.97699" lon="4.71737">
        <ele>196</ele>
        <time>2018-02-04T11:33:56Z</time>
      </trkpt>
      <trkpt lat="45.97693" lon="4.71737">
        <ele>196</ele>
        <time>2018-02-04T11:33:57Z</time>
      </trkpt>
      <trkpt lat="45.97688" lon="4.71737">
        <ele>196</ele>
        <time>2018-02-04T11:33:58Z</time>
      </trkpt>
      <trkpt lat="45.97683" lon="4.71736">
        <ele>196</ele>
        <time>2018-02-04T11:33:59Z</time>
      </trkpt>
      <trkpt lat="45.97677" lon="4.71736">
        <ele>195</ele>
        <time>2018-02-04T11:34:00Z</time>
      </trkpt>
      <trkpt lat="45.97672" lon="4.71736">
        <ele>195</ele>
        <time>2018-02-04T11:34:01Z</time>
      </trkpt>
      <trkpt lat="45.97666" lon="4.71735">
        <ele>195</ele>
        <time>2018-02-04T11:34:02Z</time>
      </trkpt>
      <trkpt lat="45.9766" lon="4.71734">
        <ele>196</ele>
        <time>2018-02-04T11:34:03Z</time>
      </trkpt>
      <trkpt lat="45.97652" lon="4.71734">
        <ele>196</ele>
        <time>2018-02-04T11:34:04Z</time>
      </trkpt>
      <trkpt lat="45.97647" lon="4.71733">
        <ele>196</ele>
        <time>2018-02-04T11:34:05Z</time>
      </trkpt>
      <trkpt lat="45.97639" lon="4.71731">
        <ele>196</ele>
        <time>2018-02-04T11:34:06Z</time>
      </trkpt>
      <trkpt lat="45.97633" lon="4.71728">
        <ele>196</ele>
        <time>2018-02-04T11:34:07Z</time>
      </trkpt>
      <trkpt lat="45.97628" lon="4.71723">
        <ele>197</ele>
        <time>2018-02-04T11:34:08Z</time>
      </trkpt>
      <trkpt lat="45.97624" lon="4.71718">
        <ele>197</ele>
        <time>2018-02-04T11:34:09Z</time>
      </trkpt>
      <trkpt lat="45.9762" lon="4.71714">
        <ele>197</ele>
        <time>2018-02-04T11:34:10Z</time>
      </trkpt>
      <trkpt lat="45.97614" lon="4.71712">
        <ele>197</ele>
        <time>2018-02-04T11:34:11Z</time>
      </trkpt>
      <trkpt lat="45.97608" lon="4.71714">
        <ele>197</ele>
        <time>2018-02-04T11:34:12Z</time>
      </trkpt>
      <trkpt lat="45.97603" lon="4.71717">
        <ele>197</ele>
        <time>2018-02-04T11:34:13Z</time>
      </trkpt>
      <trkpt lat="45.97598" lon="4.7172">
        <ele>197</ele>
        <time>2018-02-04T11:34:14Z</time>
      </trkpt>
      <trkpt lat="45.97593" lon="4.71723">
        <ele>197</ele>
        <time>2018-02-04T11:34:15Z</time>
      </trkpt>
      <trkpt lat="45.97587" lon="4.71725">
        <ele>196</ele>
        <time>2018-02-04T11:34:16Z</time>
      </trkpt>
      <trkpt lat="45.97581" lon="4.71724">
        <ele>197</ele>
        <time>2018-02-04T11:34:17Z</time>
      </trkpt>
      <trkpt lat="45.97575" lon="4.71724">
        <ele>197</ele>
        <time>2018-02-04T11:34:18Z</time>
      </trkpt>
      <trkpt lat="45.97569" lon="4.71723">
        <ele>198</ele>
        <time>2018-02-04T11:34:19Z</time>
      </trkpt>
      <trkpt lat="45.97563" lon="4.71722">
        <ele>198</ele>
        <time>2018-02-04T11:34:20Z</time>
      </trkpt>
      <trkpt lat="45.97558" lon="4.71722">
        <ele>198</ele>
        <time>2018-02-04T11:34:21Z</time>
      </trkpt>
      <trkpt lat="45.97552" lon="4.71721">
        <ele>198</ele>
        <time>2018-02-04T11:34:22Z</time>
      </trkpt>
      <trkpt lat="45.97545" lon="4.71721">
        <ele>198</ele>
        <time>2018-02-04T11:34:23Z</time>
      </trkpt>
      <trkpt lat="45.97539" lon="4.7172">
        <ele>198</ele>
        <time>2018-02-04T11:34:24Z</time>
      </trkpt>
      <trkpt lat="45.97533" lon="4.7172">
        <ele>198</ele>
        <time>2018-02-04T11:34:25Z</time>
      </trkpt>
      <trkpt lat="45.97527" lon="4.7172">
        <ele>198</ele>
        <time>2018-02-04T11:34:26Z</time>
      </trkpt>
      <trkpt lat="45.97522" lon="4.71719">
        <ele>198</ele>
        <time>2018-02-04T11:34:27Z</time>
      </trkpt>
      <trkpt lat="45.97515" lon="4.71719">
        <ele>198</ele>
        <time>2018-02-04T11:34:28Z</time>
      </trkpt>
      <trkpt lat="45.97509" lon="4.71719">
        <ele>198</ele>
        <time>2018-02-04T11:34:29Z</time>
      </trkpt>
      <trkpt lat="45.97503" lon="4.71718">
        <ele>198</ele>
        <time>2018-02-04T11:34:30Z</time>
      </trkpt>
      <trkpt lat="45.97497" lon="4.71718">
        <ele>198</ele>
        <time>2018-02-04T11:34:31Z</time>
      </trkpt>
      <trkpt lat="45.97491" lon="4.71718">
        <ele>198</ele>
        <time>2018-02-04T11:34:32Z</time>
      </trkpt>
      <trkpt lat="45.97485" lon="4.71717">
        <ele>197</ele>
        <time>2018-02-04T11:34:33Z</time>
      </trkpt>
      <trkpt lat="45.97479" lon="4.71717">
        <ele>197</ele>
        <time>2018-02-04T11:34:34Z</time>
      </trkpt>
      <trkpt lat="45.97472" lon="4.71716">
        <ele>197</ele>
        <time>2018-02-04T11:34:35Z</time>
      </trkpt>
      <trkpt lat="45.97466" lon="4.71716">
        <ele>197</ele>
        <time>2018-02-04T11:34:36Z</time>
      </trkpt>
      <trkpt lat="45.9746" lon="4.71716">
        <ele>197</ele>
        <time>2018-02-04T11:34:37Z</time>
      </trkpt>
      <trkpt lat="45.97453" lon="4.71717">
        <ele>197</ele>
        <time>2018-02-04T11:34:38Z</time>
      </trkpt>
      <trkpt lat="45.97448" lon="4.71717">
        <ele>197</ele>
        <time>2018-02-04T11:34:39Z</time>
      </trkpt>
      <trkpt lat="45.97442" lon="4.71716">
        <ele>197</ele>
        <time>2018-02-04T11:34:40Z</time>
      </trkpt>
      <trkpt lat="45.97436" lon="4.71715">
        <ele>196</ele>
        <time>2018-02-04T11:34:41Z</time>
      </trkpt>
      <trkpt lat="45.9743" lon="4.71715">
        <ele>196</ele>
        <time>2018-02-04T11:34:42Z</time>
      </trkpt>
      <trkpt lat="45.97424" lon="4.71714">
        <ele>196</ele>
        <time>2018-02-04T11:34:43Z</time>
      </trkpt>
      <trkpt lat="45.97418" lon="4.71714">
        <ele>196</ele>
        <time>2018-02-04T11:34:44Z</time>
      </trkpt>
      <trkpt lat="45.97412" lon="4.71713">
        <ele>195</ele>
        <time>2018-02-04T11:34:45Z</time>
      </trkpt>
      <trkpt lat="45.97406" lon="4.71713">
        <ele>195</ele>
        <time>2018-02-04T11:34:46Z</time>
      </trkpt>
      <trkpt lat="45.974" lon="4.71711">
        <ele>195</ele>
        <time>2018-02-04T11:34:47Z</time>
      </trkpt>
      <trkpt lat="45.97394" lon="4.71711">
        <ele>195</ele>
        <time>2018-02-04T11:34:48Z</time>
      </trkpt>
      <trkpt lat="45.97389" lon="4.7171">
        <ele>195</ele>
        <time>2018-02-04T11:34:49Z</time>
      </trkpt>
      <trkpt lat="45.97382" lon="4.7171">
        <ele>195</ele>
        <time>2018-02-04T11:34:50Z</time>
      </trkpt>
      <trkpt lat="45.97374" lon="4.7171">
        <ele>195</ele>
        <time>2018-02-04T11:34:52Z</time>
      </trkpt>
      <trkpt lat="45.97368" lon="4.7171">
        <ele>195</ele>
        <time>2018-02-04T11:34:53Z</time>
      </trkpt>
      <trkpt lat="45.97364" lon="4.71709">
        <ele>195</ele>
        <time>2018-02-04T11:34:54Z</time>
      </trkpt>
      <trkpt lat="45.97358" lon="4.71709">
        <ele>195</ele>
        <time>2018-02-04T11:34:55Z</time>
      </trkpt>
      <trkpt lat="45.97352" lon="4.71708">
        <ele>195</ele>
        <time>2018-02-04T11:34:56Z</time>
      </trkpt>
      <trkpt lat="45.97346" lon="4.71708">
        <ele>195</ele>
        <time>2018-02-04T11:34:57Z</time>
      </trkpt>
      <trkpt lat="45.97341" lon="4.71707">
        <ele>195</ele>
        <time>2018-02-04T11:34:58Z</time>
      </trkpt>
      <trkpt lat="45.97334" lon="4.71706">
        <ele>195</ele>
        <time>2018-02-04T11:34:59Z</time>
      </trkpt>
      <trkpt lat="45.97328" lon="4.71706">
        <ele>196</ele>
        <time>2018-02-04T11:35:00Z</time>
      </trkpt>
      <trkpt lat="45.97322" lon="4.71704">
        <ele>196</ele>
        <time>2018-02-04T11:35:01Z</time>
      </trkpt>
      <trkpt lat="45.97316" lon="4.717">
        <ele>196</ele>
        <time>2018-02-04T11:35:02Z</time>
      </trkpt>
      <trkpt lat="45.97311" lon="4.71697">
        <ele>196</ele>
        <time>2018-02-04T11:35:03Z</time>
      </trkpt>
      <trkpt lat="45.97305" lon="4.71694">
        <ele>196</ele>
        <time>2018-02-04T11:35:04Z</time>
      </trkpt>
      <trkpt lat="45.97299" lon="4.71693">
        <ele>196</ele>
        <time>2018-02-04T11:35:05Z</time>
      </trkpt>
      <trkpt lat="45.97294" lon="4.71694">
        <ele>197</ele>
        <time>2018-02-04T11:35:06Z</time>
      </trkpt>
      <trkpt lat="45.97288" lon="4.71697">
        <ele>197</ele>
        <time>2018-02-04T11:35:07Z</time>
      </trkpt>
      <trkpt lat="45.97284" lon="4.717">
        <ele>196</ele>
        <time>2018-02-04T11:35:08Z</time>
      </trkpt>
      <trkpt lat="45.97278" lon="4.71703">
        <ele>197</ele>
        <time>2018-02-04T11:35:09Z</time>
      </trkpt>
      <trkpt lat="45.97273" lon="4.71703">
        <ele>197</ele>
        <time>2018-02-04T11:35:10Z</time>
      </trkpt>
      <trkpt lat="45.97267" lon="4.71702">
        <ele>197</ele>
        <time>2018-02-04T11:35:11Z</time>
      </trkpt>
      <trkpt lat="45.97261" lon="4.71702">
        <ele>197</ele>
        <time>2018-02-04T11:35:12Z</time>
      </trkpt>
      <trkpt lat="45.97255" lon="4.717">
        <ele>197</ele>
        <time>2018-02-04T11:35:13Z</time>
      </trkpt>
      <trkpt lat="45.9725" lon="4.71698">
        <ele>197</ele>
        <time>2018-02-04T11:35:14Z</time>
      </trkpt>
      <trkpt lat="45.97243" lon="4.71697">
        <ele>197</ele>
        <time>2018-02-04T11:35:15Z</time>
      </trkpt>
      <trkpt lat="45.97238" lon="4.71696">
        <ele>197</ele>
        <time>2018-02-04T11:35:16Z</time>
      </trkpt>
      <trkpt lat="45.97233" lon="4.71695">
        <ele>197</ele>
        <time>2018-02-04T11:35:17Z</time>
      </trkpt>
      <trkpt lat="45.97227" lon="4.71695">
        <ele>197</ele>
        <time>2018-02-04T11:35:18Z</time>
      </trkpt>
      <trkpt lat="45.97221" lon="4.71695">
        <ele>197</ele>
        <time>2018-02-04T11:35:19Z</time>
      </trkpt>
      <trkpt lat="45.97215" lon="4.71695">
        <ele>197</ele>
        <time>2018-02-04T11:35:20Z</time>
      </trkpt>
      <trkpt lat="45.97208" lon="4.71695">
        <ele>197</ele>
        <time>2018-02-04T11:35:21Z</time>
      </trkpt>
      <trkpt lat="45.97201" lon="4.71695">
        <ele>197</ele>
        <time>2018-02-04T11:35:22Z</time>
      </trkpt>
      <trkpt lat="45.97194" lon="4.71694">
        <ele>197</ele>
        <time>2018-02-04T11:35:23Z</time>
      </trkpt>
      <trkpt lat="45.97186" lon="4.71694">
        <ele>197</ele>
        <time>2018-02-04T11:35:24Z</time>
      </trkpt>
      <trkpt lat="45.97179" lon="4.71694">
        <ele>197</ele>
        <time>2018-02-04T11:35:25Z</time>
      </trkpt>
      <trkpt lat="45.97171" lon="4.71694">
        <ele>197</ele>
        <time>2018-02-04T11:35:26Z</time>
      </trkpt>
      <trkpt lat="45.97163" lon="4.71694">
        <ele>195</ele>
        <time>2018-02-04T11:35:27Z</time>
      </trkpt>
      <trkpt lat="45.97156" lon="4.71693">
        <ele>195</ele>
        <time>2018-02-04T11:35:28Z</time>
      </trkpt>
      <trkpt lat="45.97149" lon="4.71692">
        <ele>195</ele>
        <time>2018-02-04T11:35:29Z</time>
      </trkpt>
      <trkpt lat="45.97141" lon="4.71692">
        <ele>195</ele>
        <time>2018-02-04T11:35:30Z</time>
      </trkpt>
      <trkpt lat="45.97134" lon="4.71691">
        <ele>195</ele>
        <time>2018-02-04T11:35:31Z</time>
      </trkpt>
      <trkpt lat="45.97128" lon="4.71691">
        <ele>195</ele>
        <time>2018-02-04T11:35:32Z</time>
      </trkpt>
      <trkpt lat="45.97123" lon="4.71689">
        <ele>195</ele>
        <time>2018-02-04T11:35:33Z</time>
      </trkpt>
      <trkpt lat="45.97115" lon="4.71688">
        <ele>194</ele>
        <time>2018-02-04T11:35:34Z</time>
      </trkpt>
      <trkpt lat="45.97109" lon="4.71688">
        <ele>194</ele>
        <time>2018-02-04T11:35:35Z</time>
      </trkpt>
      <trkpt lat="45.97102" lon="4.71688">
        <ele>194</ele>
        <time>2018-02-04T11:35:36Z</time>
      </trkpt>
      <trkpt lat="45.97096" lon="4.71688">
        <ele>194</ele>
        <time>2018-02-04T11:35:37Z</time>
      </trkpt>
      <trkpt lat="45.97089" lon="4.71687">
        <ele>194</ele>
        <time>2018-02-04T11:35:38Z</time>
      </trkpt>
      <trkpt lat="45.97083" lon="4.71686">
        <ele>193</ele>
        <time>2018-02-04T11:35:39Z</time>
      </trkpt>
      <trkpt lat="45.97076" lon="4.71684">
        <ele>193</ele>
        <time>2018-02-04T11:35:40Z</time>
      </trkpt>
      <trkpt lat="45.97068" lon="4.71683">
        <ele>193</ele>
        <time>2018-02-04T11:35:41Z</time>
      </trkpt>
      <trkpt lat="45.97062" lon="4.71682">
        <ele>193</ele>
        <time>2018-02-04T11:35:42Z</time>
      </trkpt>
      <trkpt lat="45.97052" lon="4.71681">
        <ele>193</ele>
        <time>2018-02-04T11:35:43Z</time>
      </trkpt>
      <trkpt lat="45.97044" lon="4.71679">
        <ele>193</ele>
        <time>2018-02-04T11:35:44Z</time>
      </trkpt>
      <trkpt lat="45.97037" lon="4.71679">
        <ele>193</ele>
        <time>2018-02-04T11:35:45Z</time>
      </trkpt>
      <trkpt lat="45.9703" lon="4.71678">
        <ele>193</ele>
        <time>2018-02-04T11:35:46Z</time>
      </trkpt>
      <trkpt lat="45.97023" lon="4.71677">
        <ele>193</ele>
        <time>2018-02-04T11:35:47Z</time>
      </trkpt>
      <trkpt lat="45.97018" lon="4.71677">
        <ele>193</ele>
        <time>2018-02-04T11:35:48Z</time>
      </trkpt>
      <trkpt lat="45.97012" lon="4.71676">
        <ele>193</ele>
        <time>2018-02-04T11:35:49Z</time>
      </trkpt>
      <trkpt lat="45.97006" lon="4.71674">
        <ele>193</ele>
        <time>2018-02-04T11:35:50Z</time>
      </trkpt>
      <trkpt lat="45.97" lon="4.71674">
        <ele>193</ele>
        <time>2018-02-04T11:35:51Z</time>
      </trkpt>
      <trkpt lat="45.96993" lon="4.71674">
        <ele>193</ele>
        <time>2018-02-04T11:35:52Z</time>
      </trkpt>
      <trkpt lat="45.96987" lon="4.71673">
        <ele>193</ele>
        <time>2018-02-04T11:35:53Z</time>
      </trkpt>
      <trkpt lat="45.9698" lon="4.71674">
        <ele>192</ele>
        <time>2018-02-04T11:35:54Z</time>
      </trkpt>
      <trkpt lat="45.96972" lon="4.71674">
        <ele>192</ele>
        <time>2018-02-04T11:35:55Z</time>
      </trkpt>
      <trkpt lat="45.96964" lon="4.71674">
        <ele>192</ele>
        <time>2018-02-04T11:35:56Z</time>
      </trkpt>
      <trkpt lat="45.96957" lon="4.71674">
        <ele>192</ele>
        <time>2018-02-04T11:35:57Z</time>
      </trkpt>
      <trkpt lat="45.96949" lon="4.71673">
        <ele>192</ele>
        <time>2018-02-04T11:35:58Z</time>
      </trkpt>
      <trkpt lat="45.96943" lon="4.71673">
        <ele>192</ele>
        <time>2018-02-04T11:35:59Z</time>
      </trkpt>
      <trkpt lat="45.96936" lon="4.71673">
        <ele>193</ele>
        <time>2018-02-04T11:36:00Z</time>
      </trkpt>
      <trkpt lat="45.96929" lon="4.71672">
        <ele>193</ele>
        <time>2018-02-04T11:36:01Z</time>
      </trkpt>
      <trkpt lat="45.96922" lon="4.71671">
        <ele>194</ele>
        <time>2018-02-04T11:36:02Z</time>
      </trkpt>
      <trkpt lat="45.96915" lon="4.71671">
        <ele>194</ele>
        <time>2018-02-04T11:36:03Z</time>
      </trkpt>
      <trkpt lat="45.9691" lon="4.7167">
        <ele>193</ele>
        <time>2018-02-04T11:36:04Z</time>
      </trkpt>
      <trkpt lat="45.96903" lon="4.71669">
        <ele>192</ele>
        <time>2018-02-04T11:36:05Z</time>
      </trkpt>
      <trkpt lat="45.96895" lon="4.71668">
        <ele>192</ele>
        <time>2018-02-04T11:36:06Z</time>
      </trkpt>
      <trkpt lat="45.96888" lon="4.71668">
        <ele>191</ele>
        <time>2018-02-04T11:36:07Z</time>
      </trkpt>
      <trkpt lat="45.96881" lon="4.71666">
        <ele>195</ele>
        <time>2018-02-04T11:36:08Z</time>
      </trkpt>
      <trkpt lat="45.96874" lon="4.71664">
        <ele>195</ele>
        <time>2018-02-04T11:36:09Z</time>
      </trkpt>
      <trkpt lat="45.96869" lon="4.71664">
        <ele>195</ele>
        <time>2018-02-04T11:36:10Z</time>
      </trkpt>
      <trkpt lat="45.96862" lon="4.71661">
        <ele>195</ele>
        <time>2018-02-04T11:36:11Z</time>
      </trkpt>
      <trkpt lat="45.96855" lon="4.7166">
        <ele>194</ele>
        <time>2018-02-04T11:36:12Z</time>
      </trkpt>
      <trkpt lat="45.96848" lon="4.71659">
        <ele>194</ele>
        <time>2018-02-04T11:36:13Z</time>
      </trkpt>
      <trkpt lat="45.96839" lon="4.71658">
        <ele>193</ele>
        <time>2018-02-04T11:36:14Z</time>
      </trkpt>
      <trkpt lat="45.9683" lon="4.71659">
        <ele>192</ele>
        <time>2018-02-04T11:36:15Z</time>
      </trkpt>
      <trkpt lat="45.96823" lon="4.71658">
        <ele>193</ele>
        <time>2018-02-04T11:36:16Z</time>
      </trkpt>
      <trkpt lat="45.96816" lon="4.71658">
        <ele>193</ele>
        <time>2018-02-04T11:36:17Z</time>
      </trkpt>
      <trkpt lat="45.96808" lon="4.71656">
        <ele>193</ele>
        <time>2018-02-04T11:36:18Z</time>
      </trkpt>
      <trkpt lat="45.96801" lon="4.71655">
        <ele>193</ele>
        <time>2018-02-04T11:36:19Z</time>
      </trkpt>
      <trkpt lat="45.96794" lon="4.71654">
        <ele>192</ele>
        <time>2018-02-04T11:36:20Z</time>
      </trkpt>
      <trkpt lat="45.96786" lon="4.71653">
        <ele>192</ele>
        <time>2018-02-04T11:36:21Z</time>
      </trkpt>
      <trkpt lat="45.96777" lon="4.71653">
        <ele>192</ele>
        <time>2018-02-04T11:36:22Z</time>
      </trkpt>
      <trkpt lat="45.9677" lon="4.71651">
        <ele>192</ele>
        <time>2018-02-04T11:36:23Z</time>
      </trkpt>
      <trkpt lat="45.96762" lon="4.7165">
        <ele>191</ele>
        <time>2018-02-04T11:36:24Z</time>
      </trkpt>
      <trkpt lat="45.96754" lon="4.7165">
        <ele>191</ele>
        <time>2018-02-04T11:36:25Z</time>
      </trkpt>
      <trkpt lat="45.96746" lon="4.71648">
        <ele>190</ele>
        <time>2018-02-04T11:36:26Z</time>
      </trkpt>
      <trkpt lat="45.9674" lon="4.71646">
        <ele>190</ele>
        <time>2018-02-04T11:36:27Z</time>
      </trkpt>
      <trkpt lat="45.96733" lon="4.71645">
        <ele>190</ele>
        <time>2018-02-04T11:36:28Z</time>
      </trkpt>
      <trkpt lat="45.96726" lon="4.71644">
        <ele>190</ele>
        <time>2018-02-04T11:36:29Z</time>
      </trkpt>
      <trkpt lat="45.96719" lon="4.71643">
        <ele>190</ele>
        <time>2018-02-04T11:36:30Z</time>
      </trkpt>
      <trkpt lat="45.96711" lon="4.71643">
        <ele>190</ele>
        <time>2018-02-04T11:36:31Z</time>
      </trkpt>
      <trkpt lat="45.96707" lon="4.71643">
        <ele>190</ele>
        <time>2018-02-04T11:36:32Z</time>
      </trkpt>
      <trkpt lat="45.967" lon="4.71642">
        <ele>190</ele>
        <time>2018-02-04T11:36:33Z</time>
      </trkpt>
      <trkpt lat="45.96693" lon="4.71641">
        <ele>190</ele>
        <time>2018-02-04T11:36:34Z</time>
      </trkpt>
      <trkpt lat="45.96686" lon="4.7164">
        <ele>190</ele>
        <time>2018-02-04T11:36:35Z</time>
      </trkpt>
      <trkpt lat="45.96678" lon="4.71638">
        <ele>190</ele>
        <time>2018-02-04T11:36:36Z</time>
      </trkpt>
      <trkpt lat="45.96673" lon="4.71636">
        <ele>190</ele>
        <time>2018-02-04T11:36:37Z</time>
      </trkpt>
      <trkpt lat="45.96666" lon="4.71633">
        <ele>188</ele>
        <time>2018-02-04T11:36:38Z</time>
      </trkpt>
      <trkpt lat="45.96658" lon="4.71632">
        <ele>188</ele>
        <time>2018-02-04T11:36:39Z</time>
      </trkpt>
      <trkpt lat="45.96652" lon="4.71631">
        <ele>188</ele>
        <time>2018-02-04T11:36:40Z</time>
      </trkpt>
      <trkpt lat="45.96645" lon="4.71631">
        <ele>188</ele>
        <time>2018-02-04T11:36:41Z</time>
      </trkpt>
      <trkpt lat="45.96637" lon="4.71629">
        <ele>188</ele>
        <time>2018-02-04T11:36:42Z</time>
      </trkpt>
      <trkpt lat="45.9663" lon="4.71628">
        <ele>188</ele>
        <time>2018-02-04T11:36:43Z</time>
      </trkpt>
      <trkpt lat="45.96622" lon="4.71628">
        <ele>188</ele>
        <time>2018-02-04T11:36:44Z</time>
      </trkpt>
      <trkpt lat="45.96617" lon="4.71627">
        <ele>187</ele>
        <time>2018-02-04T11:36:45Z</time>
      </trkpt>
      <trkpt lat="45.9661" lon="4.71627">
        <ele>187</ele>
        <time>2018-02-04T11:36:46Z</time>
      </trkpt>
      <trkpt lat="45.96604" lon="4.71625">
        <ele>187</ele>
        <time>2018-02-04T11:36:47Z</time>
      </trkpt>
      <trkpt lat="45.96599" lon="4.71625">
        <ele>187</ele>
        <time>2018-02-04T11:36:48Z</time>
      </trkpt>
      <trkpt lat="45.96593" lon="4.71624">
        <ele>187</ele>
        <time>2018-02-04T11:36:49Z</time>
      </trkpt>
      <trkpt lat="45.96587" lon="4.71623">
        <ele>187</ele>
        <time>2018-02-04T11:36:50Z</time>
      </trkpt>
      <trkpt lat="45.96581" lon="4.71621">
        <ele>185</ele>
        <time>2018-02-04T11:36:51Z</time>
      </trkpt>
      <trkpt lat="45.96575" lon="4.7162">
        <ele>185</ele>
        <time>2018-02-04T11:36:52Z</time>
      </trkpt>
      <trkpt lat="45.9657" lon="4.71619">
        <ele>185</ele>
        <time>2018-02-04T11:36:53Z</time>
      </trkpt>
      <trkpt lat="45.96564" lon="4.71618">
        <ele>185</ele>
        <time>2018-02-04T11:36:54Z</time>
      </trkpt>
      <trkpt lat="45.96556" lon="4.71616">
        <ele>185</ele>
        <time>2018-02-04T11:36:55Z</time>
      </trkpt>
      <trkpt lat="45.9655" lon="4.71612">
        <ele>185</ele>
        <time>2018-02-04T11:36:56Z</time>
      </trkpt>
      <trkpt lat="45.96545" lon="4.71608">
        <ele>185</ele>
        <time>2018-02-04T11:36:57Z</time>
      </trkpt>
      <trkpt lat="45.9654" lon="4.71603">
        <ele>185</ele>
        <time>2018-02-04T11:36:58Z</time>
      </trkpt>
      <trkpt lat="45.96533" lon="4.716">
        <ele>185</ele>
        <time>2018-02-04T11:36:59Z</time>
      </trkpt>
      <trkpt lat="45.96526" lon="4.71599">
        <ele>185</ele>
        <time>2018-02-04T11:37:00Z</time>
      </trkpt>
      <trkpt lat="45.9652" lon="4.71601">
        <ele>185</ele>
        <time>2018-02-04T11:37:01Z</time>
      </trkpt>
      <trkpt lat="45.96514" lon="4.71606">
        <ele>184</ele>
        <time>2018-02-04T11:37:02Z</time>
      </trkpt>
      <trkpt lat="45.96506" lon="4.71608">
        <ele>184</ele>
        <time>2018-02-04T11:37:03Z</time>
      </trkpt>
      <trkpt lat="45.96499" lon="4.71607">
        <ele>183</ele>
        <time>2018-02-04T11:37:04Z</time>
      </trkpt>
      <trkpt lat="45.96492" lon="4.71606">
        <ele>183</ele>
        <time>2018-02-04T11:37:05Z</time>
      </trkpt>
      <trkpt lat="45.96485" lon="4.71604">
        <ele>183</ele>
        <time>2018-02-04T11:37:06Z</time>
      </trkpt>
      <trkpt lat="45.9648" lon="4.71603">
        <ele>183</ele>
        <time>2018-02-04T11:37:07Z</time>
      </trkpt>
      <trkpt lat="45.96473" lon="4.71602">
        <ele>183</ele>
        <time>2018-02-04T11:37:08Z</time>
      </trkpt>
      <trkpt lat="45.96465" lon="4.71601">
        <ele>183</ele>
        <time>2018-02-04T11:37:09Z</time>
      </trkpt>
      <trkpt lat="45.96458" lon="4.716">
        <ele>183</ele>
        <time>2018-02-04T11:37:10Z</time>
      </trkpt>
      <trkpt lat="45.9645" lon="4.71598">
        <ele>183</ele>
        <time>2018-02-04T11:37:11Z</time>
      </trkpt>
      <trkpt lat="45.96442" lon="4.71598">
        <ele>183</ele>
        <time>2018-02-04T11:37:12Z</time>
      </trkpt>
      <trkpt lat="45.96435" lon="4.71597">
        <ele>184</ele>
        <time>2018-02-04T11:37:13Z</time>
      </trkpt>
      <trkpt lat="45.96428" lon="4.71596">
        <ele>184</ele>
        <time>2018-02-04T11:37:14Z</time>
      </trkpt>
      <trkpt lat="45.9642" lon="4.71595">
        <ele>184</ele>
        <time>2018-02-04T11:37:15Z</time>
      </trkpt>
      <trkpt lat="45.96413" lon="4.71594">
        <ele>184</ele>
        <time>2018-02-04T11:37:16Z</time>
      </trkpt>
      <trkpt lat="45.96405" lon="4.71593">
        <ele>183</ele>
        <time>2018-02-04T11:37:17Z</time>
      </trkpt>
      <trkpt lat="45.96399" lon="4.71593">
        <ele>183</ele>
        <time>2018-02-04T11:37:18Z</time>
      </trkpt>
      <trkpt lat="45.96391" lon="4.71592">
        <ele>183</ele>
        <time>2018-02-04T11:37:19Z</time>
      </trkpt>
      <trkpt lat="45.96383" lon="4.7159">
        <ele>183</ele>
        <time>2018-02-04T11:37:20Z</time>
      </trkpt>
      <trkpt lat="45.96376" lon="4.71588">
        <ele>182</ele>
        <time>2018-02-04T11:37:21Z</time>
      </trkpt>
      <trkpt lat="45.96369" lon="4.71588">
        <ele>182</ele>
        <time>2018-02-04T11:37:22Z</time>
      </trkpt>
      <trkpt lat="45.96361" lon="4.71587">
        <ele>182</ele>
        <time>2018-02-04T11:37:23Z</time>
      </trkpt>
      <trkpt lat="45.96354" lon="4.71586">
        <ele>182</ele>
        <time>2018-02-04T11:37:24Z</time>
      </trkpt>
      <trkpt lat="45.96347" lon="4.71584">
        <ele>182</ele>
        <time>2018-02-04T11:37:25Z</time>
      </trkpt>
      <trkpt lat="45.9634" lon="4.71583">
        <ele>184</ele>
        <time>2018-02-04T11:37:26Z</time>
      </trkpt>
      <trkpt lat="45.96332" lon="4.71582">
        <ele>183</ele>
        <time>2018-02-04T11:37:27Z</time>
      </trkpt>
      <trkpt lat="45.96326" lon="4.71581">
        <ele>184</ele>
        <time>2018-02-04T11:37:28Z</time>
      </trkpt>
      <trkpt lat="45.9632" lon="4.71579">
        <ele>184</ele>
        <time>2018-02-04T11:37:29Z</time>
      </trkpt>
      <trkpt lat="45.96314" lon="4.71577">
        <ele>184</ele>
        <time>2018-02-04T11:37:30Z</time>
      </trkpt>
      <trkpt lat="45.96306" lon="4.71576">
        <ele>184</ele>
        <time>2018-02-04T11:37:31Z</time>
      </trkpt>
      <trkpt lat="45.96301" lon="4.71575">
        <ele>184</ele>
        <time>2018-02-04T11:37:32Z</time>
      </trkpt>
      <trkpt lat="45.96293" lon="4.71574">
        <ele>184</ele>
        <time>2018-02-04T11:37:33Z</time>
      </trkpt>
      <trkpt lat="45.96286" lon="4.71574">
        <ele>184</ele>
        <time>2018-02-04T11:37:34Z</time>
      </trkpt>
      <trkpt lat="45.96279" lon="4.71573">
        <ele>184</ele>
        <time>2018-02-04T11:37:35Z</time>
      </trkpt>
      <trkpt lat="45.96271" lon="4.71572">
        <ele>184</ele>
        <time>2018-02-04T11:37:36Z</time>
      </trkpt>
      <trkpt lat="45.96263" lon="4.71571">
        <ele>183</ele>
        <time>2018-02-04T11:37:37Z</time>
      </trkpt>
      <trkpt lat="45.96257" lon="4.7157">
        <ele>183</ele>
        <time>2018-02-04T11:37:38Z</time>
      </trkpt>
      <trkpt lat="45.96249" lon="4.71569">
        <ele>182</ele>
        <time>2018-02-04T11:37:39Z</time>
      </trkpt>
      <trkpt lat="45.96243" lon="4.71569">
        <ele>183</ele>
        <time>2018-02-04T11:37:40Z</time>
      </trkpt>
      <trkpt lat="45.96236" lon="4.71567">
        <ele>183</ele>
        <time>2018-02-04T11:37:41Z</time>
      </trkpt>
      <trkpt lat="45.96228" lon="4.71566">
        <ele>183</ele>
        <time>2018-02-04T11:37:42Z</time>
      </trkpt>
      <trkpt lat="45.96221" lon="4.71564">
        <ele>183</ele>
        <time>2018-02-04T11:37:43Z</time>
      </trkpt>
      <trkpt lat="45.96216" lon="4.71563">
        <ele>183</ele>
        <time>2018-02-04T11:37:44Z</time>
      </trkpt>
      <trkpt lat="45.96208" lon="4.71561">
        <ele>183</ele>
        <time>2018-02-04T11:37:45Z</time>
      </trkpt>
      <trkpt lat="45.96201" lon="4.71561">
        <ele>183</ele>
        <time>2018-02-04T11:37:46Z</time>
      </trkpt>
      <trkpt lat="45.96194" lon="4.71559">
        <ele>183</ele>
        <time>2018-02-04T11:37:47Z</time>
      </trkpt>
      <trkpt lat="45.96187" lon="4.71558">
        <ele>183</ele>
        <time>2018-02-04T11:37:48Z</time>
      </trkpt>
      <trkpt lat="45.96181" lon="4.71557">
        <ele>183</ele>
        <time>2018-02-04T11:37:49Z</time>
      </trkpt>
      <trkpt lat="45.96176" lon="4.71554">
        <ele>183</ele>
        <time>2018-02-04T11:37:50Z</time>
      </trkpt>
      <trkpt lat="45.9617" lon="4.71553">
        <ele>183</ele>
        <time>2018-02-04T11:37:51Z</time>
      </trkpt>
      <trkpt lat="45.96164" lon="4.71552">
        <ele>184</ele>
        <time>2018-02-04T11:37:52Z</time>
      </trkpt>
      <trkpt lat="45.96157" lon="4.71552">
        <ele>184</ele>
        <time>2018-02-04T11:37:53Z</time>
      </trkpt>
      <trkpt lat="45.96152" lon="4.7155">
        <ele>184</ele>
        <time>2018-02-04T11:37:54Z</time>
      </trkpt>
      <trkpt lat="45.96145" lon="4.71548">
        <ele>184</ele>
        <time>2018-02-04T11:37:55Z</time>
      </trkpt>
      <trkpt lat="45.96139" lon="4.71547">
        <ele>184</ele>
        <time>2018-02-04T11:37:56Z</time>
      </trkpt>
      <trkpt lat="45.96134" lon="4.71546">
        <ele>184</ele>
        <time>2018-02-04T11:37:57Z</time>
      </trkpt>
      <trkpt lat="45.96127" lon="4.71546">
        <ele>185</ele>
        <time>2018-02-04T11:37:58Z</time>
      </trkpt>
      <trkpt lat="45.96122" lon="4.71547">
        <ele>185</ele>
        <time>2018-02-04T11:37:59Z</time>
      </trkpt>
      <trkpt lat="45.96115" lon="4.71545">
        <ele>185</ele>
        <time>2018-02-04T11:38:00Z</time>
      </trkpt>
      <trkpt lat="45.96109" lon="4.71543">
        <ele>185</ele>
        <time>2018-02-04T11:38:01Z</time>
      </trkpt>
      <trkpt lat="45.96102" lon="4.71542">
        <ele>185</ele>
        <time>2018-02-04T11:38:02Z</time>
      </trkpt>
      <trkpt lat="45.96096" lon="4.71541">
        <ele>185</ele>
        <time>2018-02-04T11:38:03Z</time>
      </trkpt>
      <trkpt lat="45.9609" lon="4.71539">
        <ele>185</ele>
        <time>2018-02-04T11:38:04Z</time>
      </trkpt>
      <trkpt lat="45.96084" lon="4.71538">
        <ele>185</ele>
        <time>2018-02-04T11:38:05Z</time>
      </trkpt>
      <trkpt lat="45.96078" lon="4.71537">
        <ele>186</ele>
        <time>2018-02-04T11:38:06Z</time>
      </trkpt>
      <trkpt lat="45.96071" lon="4.71536">
        <ele>186</ele>
        <time>2018-02-04T11:38:07Z</time>
      </trkpt>
      <trkpt lat="45.96065" lon="4.71535">
        <ele>186</ele>
        <time>2018-02-04T11:38:08Z</time>
      </trkpt>
      <trkpt lat="45.96059" lon="4.71533">
        <ele>186</ele>
        <time>2018-02-04T11:38:09Z</time>
      </trkpt>
      <trkpt lat="45.96053" lon="4.71533">
        <ele>186</ele>
        <time>2018-02-04T11:38:10Z</time>
      </trkpt>
      <trkpt lat="45.96047" lon="4.71532">
        <ele>186</ele>
        <time>2018-02-04T11:38:11Z</time>
      </trkpt>
      <trkpt lat="45.9604" lon="4.71531">
        <ele>186</ele>
        <time>2018-02-04T11:38:12Z</time>
      </trkpt>
      <trkpt lat="45.96033" lon="4.7153">
        <ele>186</ele>
        <time>2018-02-04T11:38:13Z</time>
      </trkpt>
      <trkpt lat="45.96027" lon="4.71529">
        <ele>186</ele>
        <time>2018-02-04T11:38:14Z</time>
      </trkpt>
      <trkpt lat="45.9602" lon="4.71527">
        <ele>186</ele>
        <time>2018-02-04T11:38:15Z</time>
      </trkpt>
      <trkpt lat="45.96014" lon="4.71527">
        <ele>186</ele>
        <time>2018-02-04T11:38:16Z</time>
      </trkpt>
      <trkpt lat="45.96009" lon="4.71525">
        <ele>186</ele>
        <time>2018-02-04T11:38:17Z</time>
      </trkpt>
      <trkpt lat="45.96002" lon="4.71522">
        <ele>186</ele>
        <time>2018-02-04T11:38:18Z</time>
      </trkpt>
      <trkpt lat="45.95997" lon="4.71519">
        <ele>185</ele>
        <time>2018-02-04T11:38:19Z</time>
      </trkpt>
      <trkpt lat="45.95992" lon="4.71515">
        <ele>186</ele>
        <time>2018-02-04T11:38:20Z</time>
      </trkpt>
      <trkpt lat="45.95986" lon="4.71512">
        <ele>186</ele>
        <time>2018-02-04T11:38:21Z</time>
      </trkpt>
      <trkpt lat="45.9598" lon="4.71512">
        <ele>185</ele>
        <time>2018-02-04T11:38:22Z</time>
      </trkpt>
      <trkpt lat="45.95975" lon="4.71514">
        <ele>185</ele>
        <time>2018-02-04T11:38:23Z</time>
      </trkpt>
      <trkpt lat="45.95971" lon="4.71516">
        <ele>185</ele>
        <time>2018-02-04T11:38:24Z</time>
      </trkpt>
      <trkpt lat="45.95965" lon="4.71519">
        <ele>184</ele>
        <time>2018-02-04T11:38:25Z</time>
      </trkpt>
      <trkpt lat="45.95959" lon="4.71521">
        <ele>184</ele>
        <time>2018-02-04T11:38:26Z</time>
      </trkpt>
      <trkpt lat="45.95952" lon="4.71522">
        <ele>184</ele>
        <time>2018-02-04T11:38:27Z</time>
      </trkpt>
      <trkpt lat="45.95944" lon="4.71522">
        <ele>184</ele>
        <time>2018-02-04T11:38:28Z</time>
      </trkpt>
      <trkpt lat="45.95937" lon="4.71523">
        <ele>184</ele>
        <time>2018-02-04T11:38:29Z</time>
      </trkpt>
      <trkpt lat="45.95931" lon="4.71522">
        <ele>184</ele>
        <time>2018-02-04T11:38:30Z</time>
      </trkpt>
      <trkpt lat="45.95924" lon="4.71523">
        <ele>184</ele>
        <time>2018-02-04T11:38:31Z</time>
      </trkpt>
      <trkpt lat="45.95917" lon="4.71523">
        <ele>184</ele>
        <time>2018-02-04T11:38:32Z</time>
      </trkpt>
      <trkpt lat="45.9591" lon="4.71523">
        <ele>183</ele>
        <time>2018-02-04T11:38:33Z</time>
      </trkpt>
      <trkpt lat="45.95903" lon="4.71523">
        <ele>182</ele>
        <time>2018-02-04T11:38:34Z</time>
      </trkpt>
      <trkpt lat="45.95896" lon="4.71523">
        <ele>182</ele>
        <time>2018-02-04T11:38:35Z</time>
      </trkpt>
      <trkpt lat="45.95889" lon="4.71523">
        <ele>182</ele>
        <time>2018-02-04T11:38:36Z</time>
      </trkpt>
      <trkpt lat="45.95881" lon="4.71523">
        <ele>182</ele>
        <time>2018-02-04T11:38:37Z</time>
      </trkpt>
      <trkpt lat="45.95873" lon="4.71523">
        <ele>182</ele>
        <time>2018-02-04T11:38:38Z</time>
      </trkpt>
      <trkpt lat="45.95866" lon="4.71523">
        <ele>182</ele>
        <time>2018-02-04T11:38:39Z</time>
      </trkpt>
      <trkpt lat="45.95858" lon="4.71522">
        <ele>182</ele>
        <time>2018-02-04T11:38:40Z</time>
      </trkpt>
      <trkpt lat="45.95851" lon="4.71521">
        <ele>182</ele>
        <time>2018-02-04T11:38:41Z</time>
      </trkpt>
      <trkpt lat="45.95843" lon="4.71521">
        <ele>182</ele>
        <time>2018-02-04T11:38:42Z</time>
      </trkpt>
      <trkpt lat="45.95836" lon="4.71521">
        <ele>182</ele>
        <time>2018-02-04T11:38:43Z</time>
      </trkpt>
      <trkpt lat="45.95828" lon="4.7152">
        <ele>182</ele>
        <time>2018-02-04T11:38:44Z</time>
      </trkpt>
      <trkpt lat="45.95821" lon="4.71519">
        <ele>182</ele>
        <time>2018-02-04T11:38:45Z</time>
      </trkpt>
      <trkpt lat="45.95814" lon="4.71519">
        <ele>181</ele>
        <time>2018-02-04T11:38:46Z</time>
      </trkpt>
      <trkpt lat="45.95808" lon="4.71519">
        <ele>181</ele>
        <time>2018-02-04T11:38:47Z</time>
      </trkpt>
      <trkpt lat="45.95801" lon="4.71518">
        <ele>181</ele>
        <time>2018-02-04T11:38:48Z</time>
      </trkpt>
      <trkpt lat="45.95794" lon="4.71517">
        <ele>181</ele>
        <time>2018-02-04T11:38:49Z</time>
      </trkpt>
      <trkpt lat="45.95788" lon="4.71517">
        <ele>181</ele>
        <time>2018-02-04T11:38:50Z</time>
      </trkpt>
      <trkpt lat="45.95782" lon="4.71518">
        <ele>181</ele>
        <time>2018-02-04T11:38:51Z</time>
      </trkpt>
      <trkpt lat="45.95775" lon="4.71517">
        <ele>181</ele>
        <time>2018-02-04T11:38:52Z</time>
      </trkpt>
      <trkpt lat="45.95768" lon="4.71516">
        <ele>181</ele>
        <time>2018-02-04T11:38:53Z</time>
      </trkpt>
      <trkpt lat="45.95761" lon="4.71516">
        <ele>181</ele>
        <time>2018-02-04T11:38:54Z</time>
      </trkpt>
      <trkpt lat="45.95754" lon="4.71515">
        <ele>181</ele>
        <time>2018-02-04T11:38:55Z</time>
      </trkpt>
      <trkpt lat="45.95749" lon="4.71516">
        <ele>181</ele>
        <time>2018-02-04T11:38:56Z</time>
      </trkpt>
      <trkpt lat="45.95741" lon="4.71514">
        <ele>181</ele>
        <time>2018-02-04T11:38:57Z</time>
      </trkpt>
      <trkpt lat="45.95735" lon="4.71514">
        <ele>181</ele>
        <time>2018-02-04T11:38:58Z</time>
      </trkpt>
      <trkpt lat="45.95727" lon="4.71514">
        <ele>180</ele>
        <time>2018-02-04T11:38:59Z</time>
      </trkpt>
      <trkpt lat="45.9572" lon="4.71514">
        <ele>180</ele>
        <time>2018-02-04T11:39:00Z</time>
      </trkpt>
      <trkpt lat="45.95714" lon="4.71516">
        <ele>180</ele>
        <time>2018-02-04T11:39:01Z</time>
      </trkpt>
      <trkpt lat="45.95706" lon="4.71516">
        <ele>180</ele>
        <time>2018-02-04T11:39:02Z</time>
      </trkpt>
      <trkpt lat="45.95698" lon="4.71516">
        <ele>180</ele>
        <time>2018-02-04T11:39:03Z</time>
      </trkpt>
      <trkpt lat="45.9569" lon="4.71513">
        <ele>180</ele>
        <time>2018-02-04T11:39:04Z</time>
      </trkpt>
      <trkpt lat="45.95682" lon="4.71512">
        <ele>181</ele>
        <time>2018-02-04T11:39:05Z</time>
      </trkpt>
      <trkpt lat="45.95675" lon="4.71511">
        <ele>181</ele>
        <time>2018-02-04T11:39:06Z</time>
      </trkpt>
      <trkpt lat="45.95667" lon="4.71511">
        <ele>181</ele>
        <time>2018-02-04T11:39:07Z</time>
      </trkpt>
      <trkpt lat="45.95659" lon="4.71511">
        <ele>181</ele>
        <time>2018-02-04T11:39:08Z</time>
      </trkpt>
      <trkpt lat="45.95651" lon="4.71509">
        <ele>180</ele>
        <time>2018-02-04T11:39:09Z</time>
      </trkpt>
      <trkpt lat="45.95643" lon="4.71508">
        <ele>180</ele>
        <time>2018-02-04T11:39:10Z</time>
      </trkpt>
      <trkpt lat="45.95636" lon="4.71506">
        <ele>180</ele>
        <time>2018-02-04T11:39:11Z</time>
      </trkpt>
      <trkpt lat="45.9563" lon="4.71506">
        <ele>180</ele>
        <time>2018-02-04T11:39:12Z</time>
      </trkpt>
      <trkpt lat="45.95623" lon="4.71505">
        <ele>180</ele>
        <time>2018-02-04T11:39:13Z</time>
      </trkpt>
      <trkpt lat="45.95615" lon="4.71505">
        <ele>179</ele>
        <time>2018-02-04T11:39:14Z</time>
      </trkpt>
      <trkpt lat="45.95607" lon="4.71503">
        <ele>179</ele>
        <time>2018-02-04T11:39:15Z</time>
      </trkpt>
      <trkpt lat="45.95599" lon="4.71503">
        <ele>180</ele>
        <time>2018-02-04T11:39:16Z</time>
      </trkpt>
      <trkpt lat="45.95591" lon="4.71502">
        <ele>180</ele>
        <time>2018-02-04T11:39:17Z</time>
      </trkpt>
      <trkpt lat="45.95583" lon="4.71501">
        <ele>180</ele>
        <time>2018-02-04T11:39:18Z</time>
      </trkpt>
      <trkpt lat="45.95574" lon="4.715">
        <ele>180</ele>
        <time>2018-02-04T11:39:19Z</time>
      </trkpt>
      <trkpt lat="45.95566" lon="4.71499">
        <ele>179</ele>
        <time>2018-02-04T11:39:20Z</time>
      </trkpt>
      <trkpt lat="45.95557" lon="4.71499">
        <ele>179</ele>
        <time>2018-02-04T11:39:21Z</time>
      </trkpt>
      <trkpt lat="45.95548" lon="4.71497">
        <ele>179</ele>
        <time>2018-02-04T11:39:22Z</time>
      </trkpt>
      <trkpt lat="45.9554" lon="4.71496">
        <ele>179</ele>
        <time>2018-02-04T11:39:23Z</time>
      </trkpt>
      <trkpt lat="45.9553" lon="4.71496">
        <ele>178</ele>
        <time>2018-02-04T11:39:24Z</time>
      </trkpt>
      <trkpt lat="45.95521" lon="4.71495">
        <ele>178</ele>
        <time>2018-02-04T11:39:25Z</time>
      </trkpt>
      <trkpt lat="45.95513" lon="4.71496">
        <ele>178</ele>
        <time>2018-02-04T11:39:26Z</time>
      </trkpt>
      <trkpt lat="45.95504" lon="4.71496">
        <ele>177</ele>
        <time>2018-02-04T11:39:27Z</time>
      </trkpt>
      <trkpt lat="45.95497" lon="4.71496">
        <ele>177</ele>
        <time>2018-02-04T11:39:28Z</time>
      </trkpt>
      <trkpt lat="45.95487" lon="4.71496">
        <ele>177</ele>
        <time>2018-02-04T11:39:29Z</time>
      </trkpt>
      <trkpt lat="45.9548" lon="4.71496">
        <ele>176</ele>
        <time>2018-02-04T11:39:30Z</time>
      </trkpt>
      <trkpt lat="45.95471" lon="4.71495">
        <ele>176</ele>
        <time>2018-02-04T11:39:31Z</time>
      </trkpt>
      <trkpt lat="45.95461" lon="4.71496">
        <ele>176</ele>
        <time>2018-02-04T11:39:32Z</time>
      </trkpt>
      <trkpt lat="45.95454" lon="4.71496">
        <ele>176</ele>
        <time>2018-02-04T11:39:33Z</time>
      </trkpt>
      <trkpt lat="45.95446" lon="4.71496">
        <ele>176</ele>
        <time>2018-02-04T11:39:34Z</time>
      </trkpt>
      <trkpt lat="45.95437" lon="4.71495">
        <ele>175</ele>
        <time>2018-02-04T11:39:35Z</time>
      </trkpt>
      <trkpt lat="45.95428" lon="4.71495">
        <ele>175</ele>
        <time>2018-02-04T11:39:36Z</time>
      </trkpt>
      <trkpt lat="45.9542" lon="4.71495">
        <ele>175</ele>
        <time>2018-02-04T11:39:37Z</time>
      </trkpt>
      <trkpt lat="45.95413" lon="4.71494">
        <ele>174</ele>
        <time>2018-02-04T11:39:38Z</time>
      </trkpt>
      <trkpt lat="45.95407" lon="4.71494">
        <ele>174</ele>
        <time>2018-02-04T11:39:39Z</time>
      </trkpt>
      <trkpt lat="45.95398" lon="4.71493">
        <ele>175</ele>
        <time>2018-02-04T11:39:40Z</time>
      </trkpt>
      <trkpt lat="45.95389" lon="4.71492">
        <ele>175</ele>
        <time>2018-02-04T11:39:41Z</time>
      </trkpt>
      <trkpt lat="45.95381" lon="4.71491">
        <ele>175</ele>
        <time>2018-02-04T11:39:42Z</time>
      </trkpt>
      <trkpt lat="45.95372" lon="4.7149">
        <ele>175</ele>
        <time>2018-02-04T11:39:43Z</time>
      </trkpt>
      <trkpt lat="45.95364" lon="4.71489">
        <ele>175</ele>
        <time>2018-02-04T11:39:44Z</time>
      </trkpt>
      <trkpt lat="45.95356" lon="4.71488">
        <ele>175</ele>
        <time>2018-02-04T11:39:45Z</time>
      </trkpt>
      <trkpt lat="45.95348" lon="4.71487">
        <ele>175</ele>
        <time>2018-02-04T11:39:46Z</time>
      </trkpt>
      <trkpt lat="45.95341" lon="4.71487">
        <ele>175</ele>
        <time>2018-02-04T11:39:47Z</time>
      </trkpt>
      <trkpt lat="45.95332" lon="4.71486">
        <ele>175</ele>
        <time>2018-02-04T11:39:48Z</time>
      </trkpt>
      <trkpt lat="45.95324" lon="4.71486">
        <ele>175</ele>
        <time>2018-02-04T11:39:49Z</time>
      </trkpt>
      <trkpt lat="45.95315" lon="4.71485">
        <ele>175</ele>
        <time>2018-02-04T11:39:50Z</time>
      </trkpt>
      <trkpt lat="45.95308" lon="4.71484">
        <ele>175</ele>
        <time>2018-02-04T11:39:51Z</time>
      </trkpt>
      <trkpt lat="45.95302" lon="4.71483">
        <ele>175</ele>
        <time>2018-02-04T11:39:52Z</time>
      </trkpt>
      <trkpt lat="45.95295" lon="4.71483">
        <ele>176</ele>
        <time>2018-02-04T11:39:53Z</time>
      </trkpt>
      <trkpt lat="45.95288" lon="4.71483">
        <ele>176</ele>
        <time>2018-02-04T11:39:54Z</time>
      </trkpt>
      <trkpt lat="45.95281" lon="4.71483">
        <ele>176</ele>
        <time>2018-02-04T11:39:55Z</time>
      </trkpt>
      <trkpt lat="45.95273" lon="4.71482">
        <ele>176</ele>
        <time>2018-02-04T11:39:56Z</time>
      </trkpt>
      <trkpt lat="45.95265" lon="4.71481">
        <ele>176</ele>
        <time>2018-02-04T11:39:57Z</time>
      </trkpt>
      <trkpt lat="45.95258" lon="4.71481">
        <ele>176</ele>
        <time>2018-02-04T11:39:58Z</time>
      </trkpt>
      <trkpt lat="45.9525" lon="4.71481">
        <ele>177</ele>
        <time>2018-02-04T11:39:59Z</time>
      </trkpt>
      <trkpt lat="45.95243" lon="4.7148">
        <ele>177</ele>
        <time>2018-02-04T11:40:00Z</time>
      </trkpt>
      <trkpt lat="45.95236" lon="4.71479">
        <ele>177</ele>
        <time>2018-02-04T11:40:01Z</time>
      </trkpt>
      <trkpt lat="45.95229" lon="4.71478">
        <ele>177</ele>
        <time>2018-02-04T11:40:02Z</time>
      </trkpt>
      <trkpt lat="45.95222" lon="4.71479">
        <ele>177</ele>
        <time>2018-02-04T11:40:03Z</time>
      </trkpt>
      <trkpt lat="45.95214" lon="4.71478">
        <ele>177</ele>
        <time>2018-02-04T11:40:04Z</time>
      </trkpt>
      <trkpt lat="45.95207" lon="4.71477">
        <ele>177</ele>
        <time>2018-02-04T11:40:05Z</time>
      </trkpt>
      <trkpt lat="45.952" lon="4.71477">
        <ele>177</ele>
        <time>2018-02-04T11:40:06Z</time>
      </trkpt>
      <trkpt lat="45.95192" lon="4.71477">
        <ele>177</ele>
        <time>2018-02-04T11:40:07Z</time>
      </trkpt>
      <trkpt lat="45.95186" lon="4.71477">
        <ele>177</ele>
        <time>2018-02-04T11:40:08Z</time>
      </trkpt>
      <trkpt lat="45.95181" lon="4.71475">
        <ele>177</ele>
        <time>2018-02-04T11:40:09Z</time>
      </trkpt>
      <trkpt lat="45.95174" lon="4.71475">
        <ele>177</ele>
        <time>2018-02-04T11:40:10Z</time>
      </trkpt>
      <trkpt lat="45.95167" lon="4.71474">
        <ele>177</ele>
        <time>2018-02-04T11:40:11Z</time>
      </trkpt>
      <trkpt lat="45.95161" lon="4.71474">
        <ele>178</ele>
        <time>2018-02-04T11:40:12Z</time>
      </trkpt>
      <trkpt lat="45.95155" lon="4.71472">
        <ele>178</ele>
        <time>2018-02-04T11:40:13Z</time>
      </trkpt>
      <trkpt lat="45.95149" lon="4.71471">
        <ele>178</ele>
        <time>2018-02-04T11:40:14Z</time>
      </trkpt>
      <trkpt lat="45.95143" lon="4.7147">
        <ele>178</ele>
        <time>2018-02-04T11:40:15Z</time>
      </trkpt>
      <trkpt lat="45.95137" lon="4.71469">
        <ele>178</ele>
        <time>2018-02-04T11:40:16Z</time>
      </trkpt>
      <trkpt lat="45.95132" lon="4.71468">
        <ele>178</ele>
        <time>2018-02-04T11:40:17Z</time>
      </trkpt>
      <trkpt lat="45.95128" lon="4.71467">
        <ele>178</ele>
        <time>2018-02-04T11:40:18Z</time>
      </trkpt>
      <trkpt lat="45.95123" lon="4.71466">
        <ele>178</ele>
        <time>2018-02-04T11:40:19Z</time>
      </trkpt>
      <trkpt lat="45.95118" lon="4.71466">
        <ele>179</ele>
        <time>2018-02-04T11:40:20Z</time>
      </trkpt>
      <trkpt lat="45.95112" lon="4.71466">
        <ele>179</ele>
        <time>2018-02-04T11:40:21Z</time>
      </trkpt>
      <trkpt lat="45.95105" lon="4.71467">
        <ele>179</ele>
        <time>2018-02-04T11:40:22Z</time>
      </trkpt>
      <trkpt lat="45.95099" lon="4.71468">
        <ele>179</ele>
        <time>2018-02-04T11:40:23Z</time>
      </trkpt>
      <trkpt lat="45.95094" lon="4.71467">
        <ele>179</ele>
        <time>2018-02-04T11:40:24Z</time>
      </trkpt>
      <trkpt lat="45.95089" lon="4.71466">
        <ele>179</ele>
        <time>2018-02-04T11:40:25Z</time>
      </trkpt>
      <trkpt lat="45.95084" lon="4.71466">
        <ele>179</ele>
        <time>2018-02-04T11:40:26Z</time>
      </trkpt>
      <trkpt lat="45.95078" lon="4.71467">
        <ele>181</ele>
        <time>2018-02-04T11:40:27Z</time>
      </trkpt>
      <trkpt lat="45.95071" lon="4.71468">
        <ele>181</ele>
        <time>2018-02-04T11:40:28Z</time>
      </trkpt>
      <trkpt lat="45.95067" lon="4.71468">
        <ele>181</ele>
        <time>2018-02-04T11:40:29Z</time>
      </trkpt>
      <trkpt lat="45.95061" lon="4.71467">
        <ele>181</ele>
        <time>2018-02-04T11:40:30Z</time>
      </trkpt>
      <trkpt lat="45.95056" lon="4.71467">
        <ele>181</ele>
        <time>2018-02-04T11:40:31Z</time>
      </trkpt>
      <trkpt lat="45.95051" lon="4.71467">
        <ele>181</ele>
        <time>2018-02-04T11:40:32Z</time>
      </trkpt>
      <trkpt lat="45.95043" lon="4.71466">
        <ele>182</ele>
        <time>2018-02-04T11:40:34Z</time>
      </trkpt>
      <trkpt lat="45.9504" lon="4.71465">
        <ele>182</ele>
        <time>2018-02-04T11:40:35Z</time>
      </trkpt>
      <trkpt lat="45.95035" lon="4.71466">
        <ele>182</ele>
        <time>2018-02-04T11:40:36Z</time>
      </trkpt>
      <trkpt lat="45.9503" lon="4.71464">
        <ele>182</ele>
        <time>2018-02-04T11:40:37Z</time>
      </trkpt>
      <trkpt lat="45.95023" lon="4.71464">
        <ele>182</ele>
        <time>2018-02-04T11:40:39Z</time>
      </trkpt>
      <trkpt lat="45.9502" lon="4.71465">
        <ele>182</ele>
        <time>2018-02-04T11:40:40Z</time>
      </trkpt>
      <trkpt lat="45.95015" lon="4.71464">
        <ele>182</ele>
        <time>2018-02-04T11:40:41Z</time>
      </trkpt>
      <trkpt lat="45.9501" lon="4.71464">
        <ele>182</ele>
        <time>2018-02-04T11:40:42Z</time>
      </trkpt>
      <trkpt lat="45.95006" lon="4.71464">
        <ele>182</ele>
        <time>2018-02-04T11:40:43Z</time>
      </trkpt>
      <trkpt lat="45.95001" lon="4.71462">
        <ele>182</ele>
        <time>2018-02-04T11:40:44Z</time>
      </trkpt>
      <trkpt lat="45.94995" lon="4.7146">
        <ele>183</ele>
        <time>2018-02-04T11:40:45Z</time>
      </trkpt>
      <trkpt lat="45.9499" lon="4.71455">
        <ele>184</ele>
        <time>2018-02-04T11:40:46Z</time>
      </trkpt>
      <trkpt lat="45.94986" lon="4.71449">
        <ele>184</ele>
        <time>2018-02-04T11:40:47Z</time>
      </trkpt>
      <trkpt lat="45.94981" lon="4.71444">
        <ele>184</ele>
        <time>2018-02-04T11:40:48Z</time>
      </trkpt>
      <trkpt lat="45.94976" lon="4.71439">
        <ele>184</ele>
        <time>2018-02-04T11:40:49Z</time>
      </trkpt>
      <trkpt lat="45.94972" lon="4.71435">
        <ele>184</ele>
        <time>2018-02-04T11:40:50Z</time>
      </trkpt>
      <trkpt lat="45.94966" lon="4.71435">
        <ele>184</ele>
        <time>2018-02-04T11:40:51Z</time>
      </trkpt>
      <trkpt lat="45.9496" lon="4.71435">
        <ele>184</ele>
        <time>2018-02-04T11:40:52Z</time>
      </trkpt>
      <trkpt lat="45.94952" lon="4.7144">
        <ele>184</ele>
        <time>2018-02-04T11:40:54Z</time>
      </trkpt>
      <trkpt lat="45.94948" lon="4.71445">
        <ele>184</ele>
        <time>2018-02-04T11:40:55Z</time>
      </trkpt>
      <trkpt lat="45.94944" lon="4.7145">
        <ele>184</ele>
        <time>2018-02-04T11:40:56Z</time>
      </trkpt>
      <trkpt lat="45.94939" lon="4.71453">
        <ele>184</ele>
        <time>2018-02-04T11:40:57Z</time>
      </trkpt>
      <trkpt lat="45.94934" lon="4.71455">
        <ele>184</ele>
        <time>2018-02-04T11:40:58Z</time>
      </trkpt>
      <trkpt lat="45.94929" lon="4.71457">
        <ele>184</ele>
        <time>2018-02-04T11:40:59Z</time>
      </trkpt>
      <trkpt lat="45.94923" lon="4.71458">
        <ele>184</ele>
        <time>2018-02-04T11:41:00Z</time>
      </trkpt>
      <trkpt lat="45.94916" lon="4.71458">
        <ele>184</ele>
        <time>2018-02-04T11:41:01Z</time>
      </trkpt>
      <trkpt lat="45.94911" lon="4.71458">
        <ele>184</ele>
        <time>2018-02-04T11:41:02Z</time>
      </trkpt>
      <trkpt lat="45.94906" lon="4.71457">
        <ele>184</ele>
        <time>2018-02-04T11:41:03Z</time>
      </trkpt>
      <trkpt lat="45.949" lon="4.71456">
        <ele>184</ele>
        <time>2018-02-04T11:41:04Z</time>
      </trkpt>
      <trkpt lat="45.94896" lon="4.71454">
        <ele>184</ele>
        <time>2018-02-04T11:41:05Z</time>
      </trkpt>
      <trkpt lat="45.94891" lon="4.71453">
        <ele>184</ele>
        <time>2018-02-04T11:41:06Z</time>
      </trkpt>
      <trkpt lat="45.94886" lon="4.71453">
        <ele>184</ele>
        <time>2018-02-04T11:41:07Z</time>
      </trkpt>
      <trkpt lat="45.94879" lon="4.71454">
        <ele>184</ele>
        <time>2018-02-04T11:41:08Z</time>
      </trkpt>
      <trkpt lat="45.94874" lon="4.71453">
        <ele>184</ele>
        <time>2018-02-04T11:41:09Z</time>
      </trkpt>
      <trkpt lat="45.94869" lon="4.71452">
        <ele>184</ele>
        <time>2018-02-04T11:41:10Z</time>
      </trkpt>
      <trkpt lat="45.94862" lon="4.71452">
        <ele>184</ele>
        <time>2018-02-04T11:41:11Z</time>
      </trkpt>
      <trkpt lat="45.94853" lon="4.71451">
        <ele>184</ele>
        <time>2018-02-04T11:41:13Z</time>
      </trkpt>
      <trkpt lat="45.94848" lon="4.71451">
        <ele>184</ele>
        <time>2018-02-04T11:41:14Z</time>
      </trkpt>
      <trkpt lat="45.94839" lon="4.71451">
        <ele>184</ele>
        <time>2018-02-04T11:41:16Z</time>
      </trkpt>
      <trkpt lat="45.94835" lon="4.71451">
        <ele>184</ele>
        <time>2018-02-04T11:41:17Z</time>
      </trkpt>
      <trkpt lat="45.9483" lon="4.7145">
        <ele>184</ele>
        <time>2018-02-04T11:41:18Z</time>
      </trkpt>
      <trkpt lat="45.94825" lon="4.7145">
        <ele>184</ele>
        <time>2018-02-04T11:41:19Z</time>
      </trkpt>
      <trkpt lat="45.9482" lon="4.71449">
        <ele>184</ele>
        <time>2018-02-04T11:41:20Z</time>
      </trkpt>
      <trkpt lat="45.94815" lon="4.71448">
        <ele>184</ele>
        <time>2018-02-04T11:41:21Z</time>
      </trkpt>
      <trkpt lat="45.94809" lon="4.71448">
        <ele>183</ele>
        <time>2018-02-04T11:41:22Z</time>
      </trkpt>
      <trkpt lat="45.94804" lon="4.7145">
        <ele>183</ele>
        <time>2018-02-04T11:41:23Z</time>
      </trkpt>
      <trkpt lat="45.94799" lon="4.71449">
        <ele>183</ele>
        <time>2018-02-04T11:41:24Z</time>
      </trkpt>
      <trkpt lat="45.94794" lon="4.7145">
        <ele>183</ele>
        <time>2018-02-04T11:41:25Z</time>
      </trkpt>
      <trkpt lat="45.94789" lon="4.71449">
        <ele>183</ele>
        <time>2018-02-04T11:41:26Z</time>
      </trkpt>
      <trkpt lat="45.94784" lon="4.71449">
        <ele>183</ele>
        <time>2018-02-04T11:41:27Z</time>
      </trkpt>
      <trkpt lat="45.94779" lon="4.71448">
        <ele>183</ele>
        <time>2018-02-04T11:41:28Z</time>
      </trkpt>
      <trkpt lat="45.94774" lon="4.71448">
        <ele>183</ele>
        <time>2018-02-04T11:41:29Z</time>
      </trkpt>
      <trkpt lat="45.9477" lon="4.71448">
        <ele>183</ele>
        <time>2018-02-04T11:41:30Z</time>
      </trkpt>
      <trkpt lat="45.94764" lon="4.71447">
        <ele>183</ele>
        <time>2018-02-04T11:41:31Z</time>
      </trkpt>
      <trkpt lat="45.94759" lon="4.71446">
        <ele>184</ele>
        <time>2018-02-04T11:41:32Z</time>
      </trkpt>
      <trkpt lat="45.94755" lon="4.71447">
        <ele>184</ele>
        <time>2018-02-04T11:41:33Z</time>
      </trkpt>
      <trkpt lat="45.9475" lon="4.71447">
        <ele>183</ele>
        <time>2018-02-04T11:41:34Z</time>
      </trkpt>
      <trkpt lat="45.94745" lon="4.71446">
        <ele>183</ele>
        <time>2018-02-04T11:41:35Z</time>
      </trkpt>
      <trkpt lat="45.94741" lon="4.71446">
        <ele>183</ele>
        <time>2018-02-04T11:41:36Z</time>
      </trkpt>
      <trkpt lat="45.94734" lon="4.71445">
        <ele>183</ele>
        <time>2018-02-04T11:41:37Z</time>
      </trkpt>
      <trkpt lat="45.94728" lon="4.71444">
        <ele>182</ele>
        <time>2018-02-04T11:41:38Z</time>
      </trkpt>
      <trkpt lat="45.94722" lon="4.71443">
        <ele>182</ele>
        <time>2018-02-04T11:41:39Z</time>
      </trkpt>
      <trkpt lat="45.94715" lon="4.71443">
        <ele>182</ele>
        <time>2018-02-04T11:41:40Z</time>
      </trkpt>
      <trkpt lat="45.94709" lon="4.71443">
        <ele>182</ele>
        <time>2018-02-04T11:41:41Z</time>
      </trkpt>
      <trkpt lat="45.94703" lon="4.71443">
        <ele>182</ele>
        <time>2018-02-04T11:41:42Z</time>
      </trkpt>
      <trkpt lat="45.94697" lon="4.71443">
        <ele>182</ele>
        <time>2018-02-04T11:41:43Z</time>
      </trkpt>
      <trkpt lat="45.9469" lon="4.71443">
        <ele>182</ele>
        <time>2018-02-04T11:41:44Z</time>
      </trkpt>
      <trkpt lat="45.94684" lon="4.71442">
        <ele>182</ele>
        <time>2018-02-04T11:41:45Z</time>
      </trkpt>
      <trkpt lat="45.94678" lon="4.71441">
        <ele>182</ele>
        <time>2018-02-04T11:41:46Z</time>
      </trkpt>
      <trkpt lat="45.94674" lon="4.71441">
        <ele>182</ele>
        <time>2018-02-04T11:41:47Z</time>
      </trkpt>
      <trkpt lat="45.94667" lon="4.71441">
        <ele>182</ele>
        <time>2018-02-04T11:41:48Z</time>
      </trkpt>
      <trkpt lat="45.94661" lon="4.71442">
        <ele>182</ele>
        <time>2018-02-04T11:41:49Z</time>
      </trkpt>
      <trkpt lat="45.94655" lon="4.71441">
        <ele>182</ele>
        <time>2018-02-04T11:41:50Z</time>
      </trkpt>
      <trkpt lat="45.94649" lon="4.7144">
        <ele>182</ele>
        <time>2018-02-04T11:41:51Z</time>
      </trkpt>
      <trkpt lat="45.94643" lon="4.71438">
        <ele>182</ele>
        <time>2018-02-04T11:41:52Z</time>
      </trkpt>
      <trkpt lat="45.94638" lon="4.71437">
        <ele>182</ele>
        <time>2018-02-04T11:41:53Z</time>
      </trkpt>
      <trkpt lat="45.94633" lon="4.71436">
        <ele>182</ele>
        <time>2018-02-04T11:41:54Z</time>
      </trkpt>
      <trkpt lat="45.94628" lon="4.71435">
        <ele>182</ele>
        <time>2018-02-04T11:41:55Z</time>
      </trkpt>
      <trkpt lat="45.94622" lon="4.71435">
        <ele>182</ele>
        <time>2018-02-04T11:41:56Z</time>
      </trkpt>
      <trkpt lat="45.94617" lon="4.71435">
        <ele>182</ele>
        <time>2018-02-04T11:41:57Z</time>
      </trkpt>
      <trkpt lat="45.94611" lon="4.71435">
        <ele>182</ele>
        <time>2018-02-04T11:41:58Z</time>
      </trkpt>
      <trkpt lat="45.94606" lon="4.71433">
        <ele>182</ele>
        <time>2018-02-04T11:41:59Z</time>
      </trkpt>
      <trkpt lat="45.946" lon="4.71433">
        <ele>182</ele>
        <time>2018-02-04T11:42:00Z</time>
      </trkpt>
      <trkpt lat="45.94595" lon="4.71435">
        <ele>182</ele>
        <time>2018-02-04T11:42:01Z</time>
      </trkpt>
      <trkpt lat="45.94589" lon="4.71434">
        <ele>183</ele>
        <time>2018-02-04T11:42:02Z</time>
      </trkpt>
      <trkpt lat="45.94582" lon="4.71435">
        <ele>182</ele>
        <time>2018-02-04T11:42:03Z</time>
      </trkpt>
      <trkpt lat="45.94576" lon="4.71436">
        <ele>182</ele>
        <time>2018-02-04T11:42:04Z</time>
      </trkpt>
      <trkpt lat="45.94569" lon="4.71437">
        <ele>182</ele>
        <time>2018-02-04T11:42:05Z</time>
      </trkpt>
      <trkpt lat="45.94565" lon="4.71438">
        <ele>181</ele>
        <time>2018-02-04T11:42:06Z</time>
      </trkpt>
      <trkpt lat="45.94559" lon="4.71438">
        <ele>181</ele>
        <time>2018-02-04T11:42:07Z</time>
      </trkpt>
      <trkpt lat="45.94552" lon="4.7144">
        <ele>181</ele>
        <time>2018-02-04T11:42:08Z</time>
      </trkpt>
      <trkpt lat="45.94545" lon="4.71444">
        <ele>181</ele>
        <time>2018-02-04T11:42:09Z</time>
      </trkpt>
      <trkpt lat="45.94538" lon="4.71447">
        <ele>180</ele>
        <time>2018-02-04T11:42:10Z</time>
      </trkpt>
      <trkpt lat="45.94531" lon="4.7145">
        <ele>180</ele>
        <time>2018-02-04T11:42:11Z</time>
      </trkpt>
      <trkpt lat="45.94525" lon="4.71453">
        <ele>180</ele>
        <time>2018-02-04T11:42:12Z</time>
      </trkpt>
      <trkpt lat="45.94517" lon="4.71455">
        <ele>180</ele>
        <time>2018-02-04T11:42:13Z</time>
      </trkpt>
      <trkpt lat="45.9451" lon="4.71458">
        <ele>180</ele>
        <time>2018-02-04T11:42:14Z</time>
      </trkpt>
      <trkpt lat="45.94504" lon="4.7146">
        <ele>180</ele>
        <time>2018-02-04T11:42:15Z</time>
      </trkpt>
      <trkpt lat="45.94497" lon="4.71462">
        <ele>179</ele>
        <time>2018-02-04T11:42:16Z</time>
      </trkpt>
      <trkpt lat="45.94489" lon="4.71465">
        <ele>179</ele>
        <time>2018-02-04T11:42:17Z</time>
      </trkpt>
      <trkpt lat="45.94485" lon="4.71468">
        <ele>179</ele>
        <time>2018-02-04T11:42:18Z</time>
      </trkpt>
      <trkpt lat="45.94477" lon="4.7147">
        <ele>179</ele>
        <time>2018-02-04T11:42:19Z</time>
      </trkpt>
      <trkpt lat="45.94468" lon="4.71474">
        <ele>179</ele>
        <time>2018-02-04T11:42:20Z</time>
      </trkpt>
      <trkpt lat="45.94461" lon="4.71477">
        <ele>179</ele>
        <time>2018-02-04T11:42:21Z</time>
      </trkpt>
      <trkpt lat="45.94456" lon="4.71479">
        <ele>179</ele>
        <time>2018-02-04T11:42:22Z</time>
      </trkpt>
      <trkpt lat="45.94449" lon="4.71482">
        <ele>179</ele>
        <time>2018-02-04T11:42:23Z</time>
      </trkpt>
      <trkpt lat="45.94441" lon="4.71485">
        <ele>179</ele>
        <time>2018-02-04T11:42:24Z</time>
      </trkpt>
      <trkpt lat="45.94434" lon="4.71488">
        <ele>178</ele>
        <time>2018-02-04T11:42:25Z</time>
      </trkpt>
      <trkpt lat="45.94426" lon="4.71491">
        <ele>178</ele>
        <time>2018-02-04T11:42:26Z</time>
      </trkpt>
      <trkpt lat="45.9442" lon="4.71494">
        <ele>178</ele>
        <time>2018-02-04T11:42:27Z</time>
      </trkpt>
      <trkpt lat="45.94412" lon="4.71496">
        <ele>178</ele>
        <time>2018-02-04T11:42:28Z</time>
      </trkpt>
      <trkpt lat="45.94404" lon="4.71499">
        <ele>178</ele>
        <time>2018-02-04T11:42:29Z</time>
      </trkpt>
      <trkpt lat="45.94396" lon="4.71502">
        <ele>177</ele>
        <time>2018-02-04T11:42:30Z</time>
      </trkpt>
      <trkpt lat="45.94389" lon="4.71505">
        <ele>177</ele>
        <time>2018-02-04T11:42:31Z</time>
      </trkpt>
      <trkpt lat="45.94381" lon="4.71508">
        <ele>177</ele>
        <time>2018-02-04T11:42:32Z</time>
      </trkpt>
      <trkpt lat="45.94373" lon="4.71512">
        <ele>176</ele>
        <time>2018-02-04T11:42:33Z</time>
      </trkpt>
      <trkpt lat="45.94369" lon="4.71513">
        <ele>176</ele>
        <time>2018-02-04T11:42:34Z</time>
      </trkpt>
      <trkpt lat="45.94362" lon="4.71515">
        <ele>176</ele>
        <time>2018-02-04T11:42:35Z</time>
      </trkpt>
      <trkpt lat="45.94356" lon="4.71517">
        <ele>176</ele>
        <time>2018-02-04T11:42:36Z</time>
      </trkpt>
      <trkpt lat="45.94348" lon="4.71521">
        <ele>176</ele>
        <time>2018-02-04T11:42:37Z</time>
      </trkpt>
      <trkpt lat="45.94341" lon="4.71523">
        <ele>176</ele>
        <time>2018-02-04T11:42:38Z</time>
      </trkpt>
      <trkpt lat="45.94334" lon="4.71527">
        <ele>176</ele>
        <time>2018-02-04T11:42:39Z</time>
      </trkpt>
      <trkpt lat="45.94327" lon="4.7153">
        <ele>176</ele>
        <time>2018-02-04T11:42:40Z</time>
      </trkpt>
      <trkpt lat="45.94323" lon="4.71534">
        <ele>176</ele>
        <time>2018-02-04T11:42:41Z</time>
      </trkpt>
      <trkpt lat="45.94317" lon="4.71535">
        <ele>175</ele>
        <time>2018-02-04T11:42:42Z</time>
      </trkpt>
      <trkpt lat="45.94307" lon="4.71539">
        <ele>175</ele>
        <time>2018-02-04T11:42:43Z</time>
      </trkpt>
      <trkpt lat="45.94301" lon="4.7154">
        <ele>175</ele>
        <time>2018-02-04T11:42:44Z</time>
      </trkpt>
      <trkpt lat="45.94295" lon="4.71543">
        <ele>175</ele>
        <time>2018-02-04T11:42:45Z</time>
      </trkpt>
      <trkpt lat="45.94289" lon="4.71546">
        <ele>175</ele>
        <time>2018-02-04T11:42:46Z</time>
      </trkpt>
      <trkpt lat="45.94282" lon="4.71548">
        <ele>175</ele>
        <time>2018-02-04T11:42:47Z</time>
      </trkpt>
      <trkpt lat="45.94276" lon="4.71552">
        <ele>175</ele>
        <time>2018-02-04T11:42:48Z</time>
      </trkpt>
      <trkpt lat="45.94269" lon="4.71555">
        <ele>175</ele>
        <time>2018-02-04T11:42:49Z</time>
      </trkpt>
      <trkpt lat="45.94262" lon="4.71557">
        <ele>175</ele>
        <time>2018-02-04T11:42:50Z</time>
      </trkpt>
      <trkpt lat="45.94256" lon="4.71559">
        <ele>175</ele>
        <time>2018-02-04T11:42:51Z</time>
      </trkpt>
      <trkpt lat="45.9425" lon="4.71562">
        <ele>175</ele>
        <time>2018-02-04T11:42:52Z</time>
      </trkpt>
      <trkpt lat="45.94244" lon="4.71565">
        <ele>174</ele>
        <time>2018-02-04T11:42:53Z</time>
      </trkpt>
      <trkpt lat="45.94238" lon="4.71567">
        <ele>174</ele>
        <time>2018-02-04T11:42:54Z</time>
      </trkpt>
      <trkpt lat="45.94232" lon="4.7157">
        <ele>174</ele>
        <time>2018-02-04T11:42:55Z</time>
      </trkpt>
      <trkpt lat="45.94225" lon="4.71571">
        <ele>174</ele>
        <time>2018-02-04T11:42:56Z</time>
      </trkpt>
      <trkpt lat="45.94218" lon="4.71572">
        <ele>174</ele>
        <time>2018-02-04T11:42:57Z</time>
      </trkpt>
      <trkpt lat="45.94213" lon="4.71575">
        <ele>174</ele>
        <time>2018-02-04T11:42:58Z</time>
      </trkpt>
      <trkpt lat="45.94207" lon="4.71577">
        <ele>174</ele>
        <time>2018-02-04T11:42:59Z</time>
      </trkpt>
      <trkpt lat="45.94201" lon="4.71579">
        <ele>174</ele>
        <time>2018-02-04T11:43:00Z</time>
      </trkpt>
      <trkpt lat="45.94195" lon="4.71581">
        <ele>174</ele>
        <time>2018-02-04T11:43:01Z</time>
      </trkpt>
      <trkpt lat="45.94188" lon="4.71583">
        <ele>174</ele>
        <time>2018-02-04T11:43:02Z</time>
      </trkpt>
      <trkpt lat="45.94182" lon="4.71586">
        <ele>173</ele>
        <time>2018-02-04T11:43:03Z</time>
      </trkpt>
      <trkpt lat="45.94176" lon="4.71588">
        <ele>174</ele>
        <time>2018-02-04T11:43:04Z</time>
      </trkpt>
      <trkpt lat="45.94171" lon="4.7159">
        <ele>174</ele>
        <time>2018-02-04T11:43:05Z</time>
      </trkpt>
      <trkpt lat="45.94166" lon="4.71592">
        <ele>174</ele>
        <time>2018-02-04T11:43:06Z</time>
      </trkpt>
      <trkpt lat="45.94159" lon="4.71594">
        <ele>173</ele>
        <time>2018-02-04T11:43:07Z</time>
      </trkpt>
      <trkpt lat="45.94154" lon="4.71596">
        <ele>173</ele>
        <time>2018-02-04T11:43:08Z</time>
      </trkpt>
      <trkpt lat="45.94148" lon="4.71599">
        <ele>173</ele>
        <time>2018-02-04T11:43:09Z</time>
      </trkpt>
      <trkpt lat="45.94144" lon="4.71601">
        <ele>173</ele>
        <time>2018-02-04T11:43:10Z</time>
      </trkpt>
      <trkpt lat="45.94138" lon="4.71604">
        <ele>173</ele>
        <time>2018-02-04T11:43:11Z</time>
      </trkpt>
      <trkpt lat="45.94132" lon="4.71607">
        <ele>173</ele>
        <time>2018-02-04T11:43:12Z</time>
      </trkpt>
      <trkpt lat="45.94127" lon="4.7161">
        <ele>173</ele>
        <time>2018-02-04T11:43:13Z</time>
      </trkpt>
      <trkpt lat="45.94122" lon="4.71612">
        <ele>173</ele>
        <time>2018-02-04T11:43:14Z</time>
      </trkpt>
      <trkpt lat="45.94117" lon="4.71614">
        <ele>173</ele>
        <time>2018-02-04T11:43:15Z</time>
      </trkpt>
      <trkpt lat="45.9411" lon="4.71617">
        <ele>173</ele>
        <time>2018-02-04T11:43:16Z</time>
      </trkpt>
      <trkpt lat="45.94104" lon="4.7162">
        <ele>173</ele>
        <time>2018-02-04T11:43:17Z</time>
      </trkpt>
      <trkpt lat="45.94099" lon="4.71622">
        <ele>173</ele>
        <time>2018-02-04T11:43:18Z</time>
      </trkpt>
      <trkpt lat="45.94094" lon="4.71625">
        <ele>173</ele>
        <time>2018-02-04T11:43:19Z</time>
      </trkpt>
      <trkpt lat="45.94088" lon="4.71628">
        <ele>173</ele>
        <time>2018-02-04T11:43:20Z</time>
      </trkpt>
      <trkpt lat="45.94082" lon="4.7163">
        <ele>174</ele>
        <time>2018-02-04T11:43:21Z</time>
      </trkpt>
      <trkpt lat="45.94076" lon="4.71631">
        <ele>174</ele>
        <time>2018-02-04T11:43:22Z</time>
      </trkpt>
      <trkpt lat="45.94071" lon="4.71633">
        <ele>174</ele>
        <time>2018-02-04T11:43:23Z</time>
      </trkpt>
      <trkpt lat="45.94066" lon="4.71635">
        <ele>174</ele>
        <time>2018-02-04T11:43:24Z</time>
      </trkpt>
      <trkpt lat="45.94061" lon="4.71637">
        <ele>174</ele>
        <time>2018-02-04T11:43:25Z</time>
      </trkpt>
      <trkpt lat="45.94056" lon="4.71639">
        <ele>174</ele>
        <time>2018-02-04T11:43:26Z</time>
      </trkpt>
      <trkpt lat="45.94051" lon="4.7164">
        <ele>175</ele>
        <time>2018-02-04T11:43:27Z</time>
      </trkpt>
      <trkpt lat="45.94046" lon="4.71641">
        <ele>175</ele>
        <time>2018-02-04T11:43:28Z</time>
      </trkpt>
      <trkpt lat="45.94041" lon="4.71643">
        <ele>175</ele>
        <time>2018-02-04T11:43:29Z</time>
      </trkpt>
      <trkpt lat="45.94034" lon="4.71645">
        <ele>175</ele>
        <time>2018-02-04T11:43:30Z</time>
      </trkpt>
      <trkpt lat="45.94029" lon="4.71647">
        <ele>175</ele>
        <time>2018-02-04T11:43:31Z</time>
      </trkpt>
      <trkpt lat="45.94025" lon="4.71651">
        <ele>175</ele>
        <time>2018-02-04T11:43:32Z</time>
      </trkpt>
      <trkpt lat="45.9402" lon="4.71654">
        <ele>176</ele>
        <time>2018-02-04T11:43:33Z</time>
      </trkpt>
      <trkpt lat="45.94012" lon="4.7166">
        <ele>176</ele>
        <time>2018-02-04T11:43:35Z</time>
      </trkpt>
      <trkpt lat="45.94008" lon="4.71661">
        <ele>176</ele>
        <time>2018-02-04T11:43:36Z</time>
      </trkpt>
      <trkpt lat="45.94002" lon="4.71662">
        <ele>177</ele>
        <time>2018-02-04T11:43:37Z</time>
      </trkpt>
      <trkpt lat="45.93996" lon="4.71662">
        <ele>177</ele>
        <time>2018-02-04T11:43:38Z</time>
      </trkpt>
      <trkpt lat="45.93992" lon="4.71662">
        <ele>177</ele>
        <time>2018-02-04T11:43:39Z</time>
      </trkpt>
      <trkpt lat="45.93986" lon="4.71662">
        <ele>177</ele>
        <time>2018-02-04T11:43:40Z</time>
      </trkpt>
      <trkpt lat="45.93981" lon="4.71664">
        <ele>177</ele>
        <time>2018-02-04T11:43:41Z</time>
      </trkpt>
      <trkpt lat="45.93976" lon="4.71665">
        <ele>177</ele>
        <time>2018-02-04T11:43:42Z</time>
      </trkpt>
      <trkpt lat="45.93968" lon="4.71668">
        <ele>175</ele>
        <time>2018-02-04T11:43:43Z</time>
      </trkpt>
      <trkpt lat="45.93966" lon="4.71668">
        <ele>175</ele>
        <time>2018-02-04T11:43:44Z</time>
      </trkpt>
      <trkpt lat="45.93961" lon="4.71669">
        <ele>175</ele>
        <time>2018-02-04T11:43:45Z</time>
      </trkpt>
      <trkpt lat="45.93954" lon="4.71672">
        <ele>175</ele>
        <time>2018-02-04T11:43:46Z</time>
      </trkpt>
      <trkpt lat="45.93948" lon="4.71674">
        <ele>175</ele>
        <time>2018-02-04T11:43:47Z</time>
      </trkpt>
      <trkpt lat="45.93943" lon="4.71677">
        <ele>175</ele>
        <time>2018-02-04T11:43:48Z</time>
      </trkpt>
      <trkpt lat="45.93934" lon="4.71681">
        <ele>175</ele>
        <time>2018-02-04T11:43:49Z</time>
      </trkpt>
      <trkpt lat="45.93927" lon="4.71682">
        <ele>175</ele>
        <time>2018-02-04T11:43:51Z</time>
      </trkpt>
      <trkpt lat="45.93923" lon="4.71684">
        <ele>175</ele>
        <time>2018-02-04T11:43:52Z</time>
      </trkpt>
      <trkpt lat="45.93916" lon="4.71687">
        <ele>174</ele>
        <time>2018-02-04T11:43:53Z</time>
      </trkpt>
      <trkpt lat="45.93912" lon="4.7169">
        <ele>174</ele>
        <time>2018-02-04T11:43:54Z</time>
      </trkpt>
      <trkpt lat="45.93906" lon="4.71693">
        <ele>174</ele>
        <time>2018-02-04T11:43:55Z</time>
      </trkpt>
      <trkpt lat="45.93899" lon="4.71696">
        <ele>174</ele>
        <time>2018-02-04T11:43:56Z</time>
      </trkpt>
      <trkpt lat="45.93892" lon="4.71699">
        <ele>174</ele>
        <time>2018-02-04T11:43:57Z</time>
      </trkpt>
      <trkpt lat="45.93887" lon="4.71702">
        <ele>174</ele>
        <time>2018-02-04T11:43:58Z</time>
      </trkpt>
      <trkpt lat="45.9388" lon="4.71704">
        <ele>174</ele>
        <time>2018-02-04T11:43:59Z</time>
      </trkpt>
      <trkpt lat="45.93874" lon="4.71707">
        <ele>174</ele>
        <time>2018-02-04T11:44:00Z</time>
      </trkpt>
      <trkpt lat="45.93868" lon="4.71709">
        <ele>174</ele>
        <time>2018-02-04T11:44:01Z</time>
      </trkpt>
      <trkpt lat="45.93862" lon="4.71711">
        <ele>174</ele>
        <time>2018-02-04T11:44:02Z</time>
      </trkpt>
      <trkpt lat="45.93853" lon="4.71714">
        <ele>174</ele>
        <time>2018-02-04T11:44:04Z</time>
      </trkpt>
      <trkpt lat="45.93849" lon="4.71716">
        <ele>174</ele>
        <time>2018-02-04T11:44:05Z</time>
      </trkpt>
      <trkpt lat="45.93845" lon="4.71718">
        <ele>174</ele>
        <time>2018-02-04T11:44:06Z</time>
      </trkpt>
      <trkpt lat="45.9384" lon="4.7172">
        <ele>175</ele>
        <time>2018-02-04T11:44:07Z</time>
      </trkpt>
      <trkpt lat="45.93832" lon="4.71723">
        <ele>175</ele>
        <time>2018-02-04T11:44:08Z</time>
      </trkpt>
      <trkpt lat="45.93824" lon="4.71725">
        <ele>175</ele>
        <time>2018-02-04T11:44:09Z</time>
      </trkpt>
      <trkpt lat="45.93818" lon="4.71727">
        <ele>175</ele>
        <time>2018-02-04T11:44:10Z</time>
      </trkpt>
      <trkpt lat="45.93812" lon="4.71729">
        <ele>175</ele>
        <time>2018-02-04T11:44:11Z</time>
      </trkpt>
      <trkpt lat="45.93807" lon="4.71731">
        <ele>175</ele>
        <time>2018-02-04T11:44:12Z</time>
      </trkpt>
      <trkpt lat="45.93801" lon="4.71733">
        <ele>175</ele>
        <time>2018-02-04T11:44:13Z</time>
      </trkpt>
      <trkpt lat="45.93796" lon="4.71735">
        <ele>175</ele>
        <time>2018-02-04T11:44:14Z</time>
      </trkpt>
      <trkpt lat="45.9379" lon="4.71739">
        <ele>175</ele>
        <time>2018-02-04T11:44:15Z</time>
      </trkpt>
      <trkpt lat="45.93785" lon="4.71741">
        <ele>175</ele>
        <time>2018-02-04T11:44:16Z</time>
      </trkpt>
      <trkpt lat="45.9378" lon="4.71743">
        <ele>175</ele>
        <time>2018-02-04T11:44:17Z</time>
      </trkpt>
      <trkpt lat="45.93774" lon="4.71746">
        <ele>175</ele>
        <time>2018-02-04T11:44:18Z</time>
      </trkpt>
      <trkpt lat="45.9377" lon="4.71747">
        <ele>175</ele>
        <time>2018-02-04T11:44:19Z</time>
      </trkpt>
      <trkpt lat="45.93765" lon="4.71749">
        <ele>175</ele>
        <time>2018-02-04T11:44:20Z</time>
      </trkpt>
      <trkpt lat="45.9376" lon="4.7175">
        <ele>175</ele>
        <time>2018-02-04T11:44:21Z</time>
      </trkpt>
      <trkpt lat="45.93752" lon="4.71754">
        <ele>175</ele>
        <time>2018-02-04T11:44:22Z</time>
      </trkpt>
      <trkpt lat="45.93745" lon="4.71757">
        <ele>175</ele>
        <time>2018-02-04T11:44:23Z</time>
      </trkpt>
      <trkpt lat="45.93739" lon="4.71759">
        <ele>176</ele>
        <time>2018-02-04T11:44:24Z</time>
      </trkpt>
      <trkpt lat="45.93733" lon="4.71762">
        <ele>176</ele>
        <time>2018-02-04T11:44:25Z</time>
      </trkpt>
      <trkpt lat="45.93724" lon="4.71769">
        <ele>176</ele>
        <time>2018-02-04T11:44:26Z</time>
      </trkpt>
      <trkpt lat="45.93717" lon="4.71775">
        <ele>176</ele>
        <time>2018-02-04T11:44:27Z</time>
      </trkpt>
      <trkpt lat="45.93712" lon="4.71781">
        <ele>176</ele>
        <time>2018-02-04T11:44:28Z</time>
      </trkpt>
      <trkpt lat="45.93709" lon="4.71785">
        <ele>176</ele>
        <time>2018-02-04T11:44:29Z</time>
      </trkpt>
      <trkpt lat="45.93707" lon="4.71793">
        <ele>176</ele>
        <time>2018-02-04T11:44:30Z</time>
      </trkpt>
      <trkpt lat="45.93705" lon="4.718">
        <ele>176</ele>
        <time>2018-02-04T11:44:31Z</time>
      </trkpt>
      <trkpt lat="45.93704" lon="4.71808">
        <ele>176</ele>
        <time>2018-02-04T11:44:32Z</time>
      </trkpt>
      <trkpt lat="45.93702" lon="4.71814">
        <ele>176</ele>
        <time>2018-02-04T11:44:33Z</time>
      </trkpt>
      <trkpt lat="45.937" lon="4.71822">
        <ele>176</ele>
        <time>2018-02-04T11:44:34Z</time>
      </trkpt>
      <trkpt lat="45.93699" lon="4.71829">
        <ele>176</ele>
        <time>2018-02-04T11:44:35Z</time>
      </trkpt>
      <trkpt lat="45.93697" lon="4.71836">
        <ele>175</ele>
        <time>2018-02-04T11:44:36Z</time>
      </trkpt>
      <trkpt lat="45.93696" lon="4.71842">
        <ele>175</ele>
        <time>2018-02-04T11:44:37Z</time>
      </trkpt>
      <trkpt lat="45.93693" lon="4.71849">
        <ele>175</ele>
        <time>2018-02-04T11:44:38Z</time>
      </trkpt>
      <trkpt lat="45.93689" lon="4.71856">
        <ele>175</ele>
        <time>2018-02-04T11:44:39Z</time>
      </trkpt>
      <trkpt lat="45.93687" lon="4.71863">
        <ele>175</ele>
        <time>2018-02-04T11:44:40Z</time>
      </trkpt>
      <trkpt lat="45.93685" lon="4.71869">
        <ele>175</ele>
        <time>2018-02-04T11:44:41Z</time>
      </trkpt>
      <trkpt lat="45.93683" lon="4.71876">
        <ele>175</ele>
        <time>2018-02-04T11:44:42Z</time>
      </trkpt>
      <trkpt lat="45.93681" lon="4.71883">
        <ele>175</ele>
        <time>2018-02-04T11:44:43Z</time>
      </trkpt>
      <trkpt lat="45.9368" lon="4.71889">
        <ele>175</ele>
        <time>2018-02-04T11:44:44Z</time>
      </trkpt>
      <trkpt lat="45.93678" lon="4.71896">
        <ele>175</ele>
        <time>2018-02-04T11:44:45Z</time>
      </trkpt>
      <trkpt lat="45.93674" lon="4.71903">
        <ele>175</ele>
        <time>2018-02-04T11:44:46Z</time>
      </trkpt>
      <trkpt lat="45.93672" lon="4.71911">
        <ele>175</ele>
        <time>2018-02-04T11:44:47Z</time>
      </trkpt>
      <trkpt lat="45.93669" lon="4.71919">
        <ele>175</ele>
        <time>2018-02-04T11:44:48Z</time>
      </trkpt>
      <trkpt lat="45.93668" lon="4.71927">
        <ele>174</ele>
        <time>2018-02-04T11:44:49Z</time>
      </trkpt>
      <trkpt lat="45.93665" lon="4.71934">
        <ele>175</ele>
        <time>2018-02-04T11:44:50Z</time>
      </trkpt>
      <trkpt lat="45.93659" lon="4.71943">
        <ele>175</ele>
        <time>2018-02-04T11:44:51Z</time>
      </trkpt>
      <trkpt lat="45.93656" lon="4.71948">
        <ele>175</ele>
        <time>2018-02-04T11:44:52Z</time>
      </trkpt>
      <trkpt lat="45.93653" lon="4.71955">
        <ele>175</ele>
        <time>2018-02-04T11:44:53Z</time>
      </trkpt>
      <trkpt lat="45.9365" lon="4.71961">
        <ele>175</ele>
        <time>2018-02-04T11:44:54Z</time>
      </trkpt>
      <trkpt lat="45.93647" lon="4.71968">
        <ele>175</ele>
        <time>2018-02-04T11:44:55Z</time>
      </trkpt>
      <trkpt lat="45.93644" lon="4.71976">
        <ele>175</ele>
        <time>2018-02-04T11:44:56Z</time>
      </trkpt>
      <trkpt lat="45.93643" lon="4.71981">
        <ele>175</ele>
        <time>2018-02-04T11:44:57Z</time>
      </trkpt>
      <trkpt lat="45.9364" lon="4.71988">
        <ele>175</ele>
        <time>2018-02-04T11:44:58Z</time>
      </trkpt>
      <trkpt lat="45.93638" lon="4.71995">
        <ele>175</ele>
        <time>2018-02-04T11:44:59Z</time>
      </trkpt>
      <trkpt lat="45.93635" lon="4.72002">
        <ele>174</ele>
        <time>2018-02-04T11:45:00Z</time>
      </trkpt>
      <trkpt lat="45.93633" lon="4.72008">
        <ele>174</ele>
        <time>2018-02-04T11:45:01Z</time>
      </trkpt>
      <trkpt lat="45.9363" lon="4.72017">
        <ele>174</ele>
        <time>2018-02-04T11:45:02Z</time>
      </trkpt>
      <trkpt lat="45.93627" lon="4.72024">
        <ele>175</ele>
        <time>2018-02-04T11:45:03Z</time>
      </trkpt>
      <trkpt lat="45.93624" lon="4.72031">
        <ele>175</ele>
        <time>2018-02-04T11:45:04Z</time>
      </trkpt>
      <trkpt lat="45.93618" lon="4.72039">
        <ele>175</ele>
        <time>2018-02-04T11:45:05Z</time>
      </trkpt>
      <trkpt lat="45.93611" lon="4.72048">
        <ele>175</ele>
        <time>2018-02-04T11:45:07Z</time>
      </trkpt>
      <trkpt lat="45.93607" lon="4.72054">
        <ele>175</ele>
        <time>2018-02-04T11:45:08Z</time>
      </trkpt>
      <trkpt lat="45.93604" lon="4.72062">
        <ele>175</ele>
        <time>2018-02-04T11:45:09Z</time>
      </trkpt>
      <trkpt lat="45.93602" lon="4.72068">
        <ele>175</ele>
        <time>2018-02-04T11:45:10Z</time>
      </trkpt>
      <trkpt lat="45.93599" lon="4.72075">
        <ele>175</ele>
        <time>2018-02-04T11:45:11Z</time>
      </trkpt>
      <trkpt lat="45.93597" lon="4.72081">
        <ele>175</ele>
        <time>2018-02-04T11:45:12Z</time>
      </trkpt>
      <trkpt lat="45.93596" lon="4.72087">
        <ele>175</ele>
        <time>2018-02-04T11:45:13Z</time>
      </trkpt>
      <trkpt lat="45.93594" lon="4.72094">
        <ele>175</ele>
        <time>2018-02-04T11:45:14Z</time>
      </trkpt>
      <trkpt lat="45.93591" lon="4.72101">
        <ele>174</ele>
        <time>2018-02-04T11:45:15Z</time>
      </trkpt>
      <trkpt lat="45.93588" lon="4.72109">
        <ele>174</ele>
        <time>2018-02-04T11:45:16Z</time>
      </trkpt>
      <trkpt lat="45.93585" lon="4.72115">
        <ele>174</ele>
        <time>2018-02-04T11:45:17Z</time>
      </trkpt>
      <trkpt lat="45.93579" lon="4.72122">
        <ele>175</ele>
        <time>2018-02-04T11:45:18Z</time>
      </trkpt>
      <trkpt lat="45.93578" lon="4.72134">
        <ele>174</ele>
        <time>2018-02-04T11:45:20Z</time>
      </trkpt>
      <trkpt lat="45.93576" lon="4.72142">
        <ele>174</ele>
        <time>2018-02-04T11:45:21Z</time>
      </trkpt>
      <trkpt lat="45.93571" lon="4.7215">
        <ele>174</ele>
        <time>2018-02-04T11:45:22Z</time>
      </trkpt>
      <trkpt lat="45.93569" lon="4.7216">
        <ele>174</ele>
        <time>2018-02-04T11:45:23Z</time>
      </trkpt>
      <trkpt lat="45.93566" lon="4.7217">
        <ele>173</ele>
        <time>2018-02-04T11:45:24Z</time>
      </trkpt>
      <trkpt lat="45.93565" lon="4.7218">
        <ele>173</ele>
        <time>2018-02-04T11:45:25Z</time>
      </trkpt>
      <trkpt lat="45.9356" lon="4.72186">
        <ele>173</ele>
        <time>2018-02-04T11:45:26Z</time>
      </trkpt>
      <trkpt lat="45.93557" lon="4.72193">
        <ele>173</ele>
        <time>2018-02-04T11:45:27Z</time>
      </trkpt>
      <trkpt lat="45.93555" lon="4.72201">
        <ele>173</ele>
        <time>2018-02-04T11:45:28Z</time>
      </trkpt>
      <trkpt lat="45.93552" lon="4.72208">
        <ele>173</ele>
        <time>2018-02-04T11:45:29Z</time>
      </trkpt>
      <trkpt lat="45.9355" lon="4.72214">
        <ele>173</ele>
        <time>2018-02-04T11:45:30Z</time>
      </trkpt>
      <trkpt lat="45.93548" lon="4.7222">
        <ele>172</ele>
        <time>2018-02-04T11:45:31Z</time>
      </trkpt>
      <trkpt lat="45.93546" lon="4.72228">
        <ele>172</ele>
        <time>2018-02-04T11:45:32Z</time>
      </trkpt>
      <trkpt lat="45.93544" lon="4.72234">
        <ele>172</ele>
        <time>2018-02-04T11:45:33Z</time>
      </trkpt>
      <trkpt lat="45.93542" lon="4.72241">
        <ele>172</ele>
        <time>2018-02-04T11:45:34Z</time>
      </trkpt>
      <trkpt lat="45.9354" lon="4.72247">
        <ele>172</ele>
        <time>2018-02-04T11:45:35Z</time>
      </trkpt>
      <trkpt lat="45.93537" lon="4.72253">
        <ele>172</ele>
        <time>2018-02-04T11:45:36Z</time>
      </trkpt>
      <trkpt lat="45.93535" lon="4.72259">
        <ele>172</ele>
        <time>2018-02-04T11:45:37Z</time>
      </trkpt>
      <trkpt lat="45.93532" lon="4.72265">
        <ele>172</ele>
        <time>2018-02-04T11:45:38Z</time>
      </trkpt>
      <trkpt lat="45.9353" lon="4.72272">
        <ele>172</ele>
        <time>2018-02-04T11:45:39Z</time>
      </trkpt>
      <trkpt lat="45.93527" lon="4.72278">
        <ele>172</ele>
        <time>2018-02-04T11:45:40Z</time>
      </trkpt>
      <trkpt lat="45.93524" lon="4.72284">
        <ele>172</ele>
        <time>2018-02-04T11:45:41Z</time>
      </trkpt>
      <trkpt lat="45.9352" lon="4.72291">
        <ele>172</ele>
        <time>2018-02-04T11:45:42Z</time>
      </trkpt>
      <trkpt lat="45.93516" lon="4.72298">
        <ele>172</ele>
        <time>2018-02-04T11:45:43Z</time>
      </trkpt>
      <trkpt lat="45.93513" lon="4.72304">
        <ele>173</ele>
        <time>2018-02-04T11:45:44Z</time>
      </trkpt>
      <trkpt lat="45.93509" lon="4.72309">
        <ele>173</ele>
        <time>2018-02-04T11:45:45Z</time>
      </trkpt>
      <trkpt lat="45.93505" lon="4.72315">
        <ele>173</ele>
        <time>2018-02-04T11:45:46Z</time>
      </trkpt>
      <trkpt lat="45.93501" lon="4.72321">
        <ele>173</ele>
        <time>2018-02-04T11:45:47Z</time>
      </trkpt>
      <trkpt lat="45.93497" lon="4.72328">
        <ele>173</ele>
        <time>2018-02-04T11:45:48Z</time>
      </trkpt>
      <trkpt lat="45.93492" lon="4.72333">
        <ele>173</ele>
        <time>2018-02-04T11:45:49Z</time>
      </trkpt>
      <trkpt lat="45.93488" lon="4.72339">
        <ele>173</ele>
        <time>2018-02-04T11:45:50Z</time>
      </trkpt>
      <trkpt lat="45.93484" lon="4.72344">
        <ele>173</ele>
        <time>2018-02-04T11:45:51Z</time>
      </trkpt>
      <trkpt lat="45.93479" lon="4.7235">
        <ele>173</ele>
        <time>2018-02-04T11:45:52Z</time>
      </trkpt>
      <trkpt lat="45.93475" lon="4.72355">
        <ele>173</ele>
        <time>2018-02-04T11:45:53Z</time>
      </trkpt>
      <trkpt lat="45.93471" lon="4.72361">
        <ele>173</ele>
        <time>2018-02-04T11:45:54Z</time>
      </trkpt>
      <trkpt lat="45.93467" lon="4.72367">
        <ele>173</ele>
        <time>2018-02-04T11:45:55Z</time>
      </trkpt>
      <trkpt lat="45.93463" lon="4.72373">
        <ele>173</ele>
        <time>2018-02-04T11:45:56Z</time>
      </trkpt>
      <trkpt lat="45.93459" lon="4.72379">
        <ele>173</ele>
        <time>2018-02-04T11:45:57Z</time>
      </trkpt>
      <trkpt lat="45.93454" lon="4.72384">
        <ele>173</ele>
        <time>2018-02-04T11:45:58Z</time>
      </trkpt>
      <trkpt lat="45.93449" lon="4.72389">
        <ele>173</ele>
        <time>2018-02-04T11:45:59Z</time>
      </trkpt>
      <trkpt lat="45.93443" lon="4.72393">
        <ele>173</ele>
        <time>2018-02-04T11:46:00Z</time>
      </trkpt>
      <trkpt lat="45.93437" lon="4.72396">
        <ele>173</ele>
        <time>2018-02-04T11:46:01Z</time>
      </trkpt>
      <trkpt lat="45.93432" lon="4.72399">
        <ele>174</ele>
        <time>2018-02-04T11:46:02Z</time>
      </trkpt>
      <trkpt lat="45.93427" lon="4.72402">
        <ele>174</ele>
        <time>2018-02-04T11:46:03Z</time>
      </trkpt>
      <trkpt lat="45.93422" lon="4.72404">
        <ele>174</ele>
        <time>2018-02-04T11:46:04Z</time>
      </trkpt>
      <trkpt lat="45.93418" lon="4.72407">
        <ele>174</ele>
        <time>2018-02-04T11:46:05Z</time>
      </trkpt>
      <trkpt lat="45.93409" lon="4.7241">
        <ele>174</ele>
        <time>2018-02-04T11:46:07Z</time>
      </trkpt>
      <trkpt lat="45.93403" lon="4.7241">
        <ele>174</ele>
        <time>2018-02-04T11:46:08Z</time>
      </trkpt>
      <trkpt lat="45.93398" lon="4.72409">
        <ele>174</ele>
        <time>2018-02-04T11:46:09Z</time>
      </trkpt>
      <trkpt lat="45.93391" lon="4.72411">
        <ele>174</ele>
        <time>2018-02-04T11:46:10Z</time>
      </trkpt>
      <trkpt lat="45.93387" lon="4.72415">
        <ele>174</ele>
        <time>2018-02-04T11:46:11Z</time>
      </trkpt>
      <trkpt lat="45.93384" lon="4.7242">
        <ele>173</ele>
        <time>2018-02-04T11:46:12Z</time>
      </trkpt>
      <trkpt lat="45.93381" lon="4.72424">
        <ele>173</ele>
        <time>2018-02-04T11:46:13Z</time>
      </trkpt>
      <trkpt lat="45.93386" lon="4.72433">
        <ele>173</ele>
        <time>2018-02-04T11:46:14Z</time>
      </trkpt>
      <trkpt lat="45.93388" lon="4.72439">
        <ele>173</ele>
        <time>2018-02-04T11:46:15Z</time>
      </trkpt>
      <trkpt lat="45.93389" lon="4.72446">
        <ele>173</ele>
        <time>2018-02-04T11:46:16Z</time>
      </trkpt>
      <trkpt lat="45.93389" lon="4.72454">
        <ele>173</ele>
        <time>2018-02-04T11:46:17Z</time>
      </trkpt>
      <trkpt lat="45.93387" lon="4.7246">
        <ele>173</ele>
        <time>2018-02-04T11:46:18Z</time>
      </trkpt>
      <trkpt lat="45.93382" lon="4.72469">
        <ele>173</ele>
        <time>2018-02-04T11:46:20Z</time>
      </trkpt>
      <trkpt lat="45.93378" lon="4.72475">
        <ele>173</ele>
        <time>2018-02-04T11:46:21Z</time>
      </trkpt>
      <trkpt lat="45.93373" lon="4.7248">
        <ele>173</ele>
        <time>2018-02-04T11:46:22Z</time>
      </trkpt>
      <trkpt lat="45.93369" lon="4.72484">
        <ele>173</ele>
        <time>2018-02-04T11:46:23Z</time>
      </trkpt>
      <trkpt lat="45.93365" lon="4.72489">
        <ele>173</ele>
        <time>2018-02-04T11:46:24Z</time>
      </trkpt>
      <trkpt lat="45.9336" lon="4.72495">
        <ele>173</ele>
        <time>2018-02-04T11:46:25Z</time>
      </trkpt>
      <trkpt lat="45.93356" lon="4.72501">
        <ele>172</ele>
        <time>2018-02-04T11:46:26Z</time>
      </trkpt>
      <trkpt lat="45.93353" lon="4.72506">
        <ele>172</ele>
        <time>2018-02-04T11:46:27Z</time>
      </trkpt>
      <trkpt lat="45.93349" lon="4.72512">
        <ele>172</ele>
        <time>2018-02-04T11:46:28Z</time>
      </trkpt>
      <trkpt lat="45.93343" lon="4.72519">
        <ele>172</ele>
        <time>2018-02-04T11:46:29Z</time>
      </trkpt>
      <trkpt lat="45.93338" lon="4.72525">
        <ele>172</ele>
        <time>2018-02-04T11:46:30Z</time>
      </trkpt>
      <trkpt lat="45.93332" lon="4.7253">
        <ele>172</ele>
        <time>2018-02-04T11:46:31Z</time>
      </trkpt>
      <trkpt lat="45.93328" lon="4.72535">
        <ele>172</ele>
        <time>2018-02-04T11:46:32Z</time>
      </trkpt>
      <trkpt lat="45.93324" lon="4.72541">
        <ele>172</ele>
        <time>2018-02-04T11:46:33Z</time>
      </trkpt>
      <trkpt lat="45.9332" lon="4.72545">
        <ele>172</ele>
        <time>2018-02-04T11:46:34Z</time>
      </trkpt>
      <trkpt lat="45.93316" lon="4.7255">
        <ele>172</ele>
        <time>2018-02-04T11:46:35Z</time>
      </trkpt>
      <trkpt lat="45.93313" lon="4.72555">
        <ele>172</ele>
        <time>2018-02-04T11:46:36Z</time>
      </trkpt>
      <trkpt lat="45.93307" lon="4.72561">
        <ele>172</ele>
        <time>2018-02-04T11:46:37Z</time>
      </trkpt>
      <trkpt lat="45.93303" lon="4.72566">
        <ele>171</ele>
        <time>2018-02-04T11:46:38Z</time>
      </trkpt>
      <trkpt lat="45.93299" lon="4.72572">
        <ele>171</ele>
        <time>2018-02-04T11:46:39Z</time>
      </trkpt>
      <trkpt lat="45.93294" lon="4.72577">
        <ele>171</ele>
        <time>2018-02-04T11:46:40Z</time>
      </trkpt>
      <trkpt lat="45.93289" lon="4.72583">
        <ele>171</ele>
        <time>2018-02-04T11:46:41Z</time>
      </trkpt>
      <trkpt lat="45.93285" lon="4.72588">
        <ele>170</ele>
        <time>2018-02-04T11:46:42Z</time>
      </trkpt>
      <trkpt lat="45.93281" lon="4.72594">
        <ele>170</ele>
        <time>2018-02-04T11:46:43Z</time>
      </trkpt>
      <trkpt lat="45.93276" lon="4.72601">
        <ele>170</ele>
        <time>2018-02-04T11:46:44Z</time>
      </trkpt>
      <trkpt lat="45.93271" lon="4.72606">
        <ele>170</ele>
        <time>2018-02-04T11:46:45Z</time>
      </trkpt>
      <trkpt lat="45.93266" lon="4.7261">
        <ele>170</ele>
        <time>2018-02-04T11:46:46Z</time>
      </trkpt>
      <trkpt lat="45.93261" lon="4.72615">
        <ele>170</ele>
        <time>2018-02-04T11:46:47Z</time>
      </trkpt>
      <trkpt lat="45.93257" lon="4.7262">
        <ele>170</ele>
        <time>2018-02-04T11:46:48Z</time>
      </trkpt>
      <trkpt lat="45.93253" lon="4.72626">
        <ele>170</ele>
        <time>2018-02-04T11:46:49Z</time>
      </trkpt>
      <trkpt lat="45.93248" lon="4.7263">
        <ele>170</ele>
        <time>2018-02-04T11:46:50Z</time>
      </trkpt>
      <trkpt lat="45.93242" lon="4.72636">
        <ele>170</ele>
        <time>2018-02-04T11:46:51Z</time>
      </trkpt>
      <trkpt lat="45.93239" lon="4.72641">
        <ele>170</ele>
        <time>2018-02-04T11:46:52Z</time>
      </trkpt>
      <trkpt lat="45.93234" lon="4.72646">
        <ele>170</ele>
        <time>2018-02-04T11:46:53Z</time>
      </trkpt>
      <trkpt lat="45.93229" lon="4.72651">
        <ele>170</ele>
        <time>2018-02-04T11:46:54Z</time>
      </trkpt>
      <trkpt lat="45.93224" lon="4.72656">
        <ele>170</ele>
        <time>2018-02-04T11:46:55Z</time>
      </trkpt>
      <trkpt lat="45.93218" lon="4.72665">
        <ele>170</ele>
        <time>2018-02-04T11:46:57Z</time>
      </trkpt>
      <trkpt lat="45.93215" lon="4.72671">
        <ele>169</ele>
        <time>2018-02-04T11:46:58Z</time>
      </trkpt>
      <trkpt lat="45.9321" lon="4.72676">
        <ele>169</ele>
        <time>2018-02-04T11:46:59Z</time>
      </trkpt>
      <trkpt lat="45.93206" lon="4.72681">
        <ele>169</ele>
        <time>2018-02-04T11:47:00Z</time>
      </trkpt>
      <trkpt lat="45.93202" lon="4.72686">
        <ele>169</ele>
        <time>2018-02-04T11:47:01Z</time>
      </trkpt>
      <trkpt lat="45.93197" lon="4.72691">
        <ele>169</ele>
        <time>2018-02-04T11:47:02Z</time>
      </trkpt>
      <trkpt lat="45.93192" lon="4.72696">
        <ele>169</ele>
        <time>2018-02-04T11:47:03Z</time>
      </trkpt>
      <trkpt lat="45.93187" lon="4.72703">
        <ele>169</ele>
        <time>2018-02-04T11:47:04Z</time>
      </trkpt>
      <trkpt lat="45.93183" lon="4.72709">
        <ele>169</ele>
        <time>2018-02-04T11:47:05Z</time>
      </trkpt>
      <trkpt lat="45.93178" lon="4.72715">
        <ele>169</ele>
        <time>2018-02-04T11:47:06Z</time>
      </trkpt>
      <trkpt lat="45.93172" lon="4.7272">
        <ele>170</ele>
        <time>2018-02-04T11:47:07Z</time>
      </trkpt>
      <trkpt lat="45.93168" lon="4.72725">
        <ele>170</ele>
        <time>2018-02-04T11:47:08Z</time>
      </trkpt>
      <trkpt lat="45.93163" lon="4.72731">
        <ele>170</ele>
        <time>2018-02-04T11:47:09Z</time>
      </trkpt>
      <trkpt lat="45.93159" lon="4.72736">
        <ele>170</ele>
        <time>2018-02-04T11:47:10Z</time>
      </trkpt>
      <trkpt lat="45.93154" lon="4.72742">
        <ele>170</ele>
        <time>2018-02-04T11:47:11Z</time>
      </trkpt>
      <trkpt lat="45.9315" lon="4.72747">
        <ele>170</ele>
        <time>2018-02-04T11:47:12Z</time>
      </trkpt>
      <trkpt lat="45.93145" lon="4.72753">
        <ele>170</ele>
        <time>2018-02-04T11:47:13Z</time>
      </trkpt>
      <trkpt lat="45.9314" lon="4.7276">
        <ele>171</ele>
        <time>2018-02-04T11:47:14Z</time>
      </trkpt>
      <trkpt lat="45.93135" lon="4.72765">
        <ele>171</ele>
        <time>2018-02-04T11:47:15Z</time>
      </trkpt>
      <trkpt lat="45.93131" lon="4.72771">
        <ele>171</ele>
        <time>2018-02-04T11:47:16Z</time>
      </trkpt>
      <trkpt lat="45.93126" lon="4.72777">
        <ele>171</ele>
        <time>2018-02-04T11:47:17Z</time>
      </trkpt>
      <trkpt lat="45.93121" lon="4.72783">
        <ele>171</ele>
        <time>2018-02-04T11:47:18Z</time>
      </trkpt>
      <trkpt lat="45.93116" lon="4.72788">
        <ele>171</ele>
        <time>2018-02-04T11:47:19Z</time>
      </trkpt>
      <trkpt lat="45.93112" lon="4.72793">
        <ele>171</ele>
        <time>2018-02-04T11:47:20Z</time>
      </trkpt>
      <trkpt lat="45.93109" lon="4.72799">
        <ele>171</ele>
        <time>2018-02-04T11:47:21Z</time>
      </trkpt>
      <trkpt lat="45.93105" lon="4.72804">
        <ele>171</ele>
        <time>2018-02-04T11:47:22Z</time>
      </trkpt>
      <trkpt lat="45.931" lon="4.72808">
        <ele>172</ele>
        <time>2018-02-04T11:47:23Z</time>
      </trkpt>
      <trkpt lat="45.93096" lon="4.72812">
        <ele>172</ele>
        <time>2018-02-04T11:47:24Z</time>
      </trkpt>
      <trkpt lat="45.93092" lon="4.72816">
        <ele>172</ele>
        <time>2018-02-04T11:47:25Z</time>
      </trkpt>
      <trkpt lat="45.93088" lon="4.72822">
        <ele>172</ele>
        <time>2018-02-04T11:47:26Z</time>
      </trkpt>
      <trkpt lat="45.93084" lon="4.72825">
        <ele>172</ele>
        <time>2018-02-04T11:47:27Z</time>
      </trkpt>
      <trkpt lat="45.9308" lon="4.7283">
        <ele>173</ele>
        <time>2018-02-04T11:47:28Z</time>
      </trkpt>
      <trkpt lat="45.93076" lon="4.72834">
        <ele>173</ele>
        <time>2018-02-04T11:47:29Z</time>
      </trkpt>
      <trkpt lat="45.93072" lon="4.72838">
        <ele>173</ele>
        <time>2018-02-04T11:47:30Z</time>
      </trkpt>
      <trkpt lat="45.93068" lon="4.72843">
        <ele>173</ele>
        <time>2018-02-04T11:47:31Z</time>
      </trkpt>
      <trkpt lat="45.93063" lon="4.72849">
        <ele>172</ele>
        <time>2018-02-04T11:47:32Z</time>
      </trkpt>
      <trkpt lat="45.93056" lon="4.72849">
        <ele>172</ele>
        <time>2018-02-04T11:47:33Z</time>
      </trkpt>
      <trkpt lat="45.93052" lon="4.72857">
        <ele>172</ele>
        <time>2018-02-04T11:47:34Z</time>
      </trkpt>
      <trkpt lat="45.93047" lon="4.72866">
        <ele>172</ele>
        <time>2018-02-04T11:47:35Z</time>
      </trkpt>
      <trkpt lat="45.9304" lon="4.72872">
        <ele>172</ele>
        <time>2018-02-04T11:47:36Z</time>
      </trkpt>
      <trkpt lat="45.93034" lon="4.72877">
        <ele>172</ele>
        <time>2018-02-04T11:47:37Z</time>
      </trkpt>
      <trkpt lat="45.9303" lon="4.72884">
        <ele>172</ele>
        <time>2018-02-04T11:47:38Z</time>
      </trkpt>
      <trkpt lat="45.93025" lon="4.7289">
        <ele>172</ele>
        <time>2018-02-04T11:47:39Z</time>
      </trkpt>
      <trkpt lat="45.93021" lon="4.72895">
        <ele>172</ele>
        <time>2018-02-04T11:47:40Z</time>
      </trkpt>
      <trkpt lat="45.93017" lon="4.72901">
        <ele>172</ele>
        <time>2018-02-04T11:47:41Z</time>
      </trkpt>
      <trkpt lat="45.93012" lon="4.72907">
        <ele>171</ele>
        <time>2018-02-04T11:47:42Z</time>
      </trkpt>
      <trkpt lat="45.93009" lon="4.72911">
        <ele>171</ele>
        <time>2018-02-04T11:47:43Z</time>
      </trkpt>
      <trkpt lat="45.93004" lon="4.72917">
        <ele>171</ele>
        <time>2018-02-04T11:47:44Z</time>
      </trkpt>
      <trkpt lat="45.92999" lon="4.72923">
        <ele>171</ele>
        <time>2018-02-04T11:47:45Z</time>
      </trkpt>
      <trkpt lat="45.92994" lon="4.72928">
        <ele>171</ele>
        <time>2018-02-04T11:47:46Z</time>
      </trkpt>
      <trkpt lat="45.92989" lon="4.72934">
        <ele>171</ele>
        <time>2018-02-04T11:47:47Z</time>
      </trkpt>
      <trkpt lat="45.92985" lon="4.7294">
        <ele>171</ele>
        <time>2018-02-04T11:47:48Z</time>
      </trkpt>
      <trkpt lat="45.92981" lon="4.72946">
        <ele>171</ele>
        <time>2018-02-04T11:47:49Z</time>
      </trkpt>
      <trkpt lat="45.92976" lon="4.72952">
        <ele>171</ele>
        <time>2018-02-04T11:47:50Z</time>
      </trkpt>
      <trkpt lat="45.92971" lon="4.72958">
        <ele>171</ele>
        <time>2018-02-04T11:47:51Z</time>
      </trkpt>
      <trkpt lat="45.92967" lon="4.72963">
        <ele>171</ele>
        <time>2018-02-04T11:47:52Z</time>
      </trkpt>
      <trkpt lat="45.92962" lon="4.72969">
        <ele>171</ele>
        <time>2018-02-04T11:47:53Z</time>
      </trkpt>
      <trkpt lat="45.92957" lon="4.72975">
        <ele>171</ele>
        <time>2018-02-04T11:47:54Z</time>
      </trkpt>
      <trkpt lat="45.92952" lon="4.7298">
        <ele>171</ele>
        <time>2018-02-04T11:47:55Z</time>
      </trkpt>
      <trkpt lat="45.92947" lon="4.72986">
        <ele>171</ele>
        <time>2018-02-04T11:47:56Z</time>
      </trkpt>
      <trkpt lat="45.92942" lon="4.72993">
        <ele>171</ele>
        <time>2018-02-04T11:47:57Z</time>
      </trkpt>
      <trkpt lat="45.92937" lon="4.72999">
        <ele>171</ele>
        <time>2018-02-04T11:47:58Z</time>
      </trkpt>
      <trkpt lat="45.92932" lon="4.73005">
        <ele>171</ele>
        <time>2018-02-04T11:47:59Z</time>
      </trkpt>
      <trkpt lat="45.92927" lon="4.73011">
        <ele>172</ele>
        <time>2018-02-04T11:48:00Z</time>
      </trkpt>
      <trkpt lat="45.92922" lon="4.73017">
        <ele>172</ele>
        <time>2018-02-04T11:48:01Z</time>
      </trkpt>
      <trkpt lat="45.92917" lon="4.73022">
        <ele>172</ele>
        <time>2018-02-04T11:48:02Z</time>
      </trkpt>
      <trkpt lat="45.92912" lon="4.73028">
        <ele>172</ele>
        <time>2018-02-04T11:48:03Z</time>
      </trkpt>
      <trkpt lat="45.92907" lon="4.73035">
        <ele>172</ele>
        <time>2018-02-04T11:48:04Z</time>
      </trkpt>
      <trkpt lat="45.92903" lon="4.73041">
        <ele>172</ele>
        <time>2018-02-04T11:48:05Z</time>
      </trkpt>
      <trkpt lat="45.92897" lon="4.73049">
        <ele>172</ele>
        <time>2018-02-04T11:48:06Z</time>
      </trkpt>
      <trkpt lat="45.92893" lon="4.73054">
        <ele>172</ele>
        <time>2018-02-04T11:48:07Z</time>
      </trkpt>
      <trkpt lat="45.92889" lon="4.73061">
        <ele>172</ele>
        <time>2018-02-04T11:48:08Z</time>
      </trkpt>
      <trkpt lat="45.92884" lon="4.73067">
        <ele>172</ele>
        <time>2018-02-04T11:48:09Z</time>
      </trkpt>
      <trkpt lat="45.9288" lon="4.73072">
        <ele>172</ele>
        <time>2018-02-04T11:48:10Z</time>
      </trkpt>
      <trkpt lat="45.92877" lon="4.73078">
        <ele>172</ele>
        <time>2018-02-04T11:48:11Z</time>
      </trkpt>
      <trkpt lat="45.92873" lon="4.73083">
        <ele>172</ele>
        <time>2018-02-04T11:48:12Z</time>
      </trkpt>
      <trkpt lat="45.9287" lon="4.73089">
        <ele>172</ele>
        <time>2018-02-04T11:48:13Z</time>
      </trkpt>
      <trkpt lat="45.92865" lon="4.73095">
        <ele>172</ele>
        <time>2018-02-04T11:48:14Z</time>
      </trkpt>
      <trkpt lat="45.92862" lon="4.731">
        <ele>171</ele>
        <time>2018-02-04T11:48:15Z</time>
      </trkpt>
      <trkpt lat="45.92857" lon="4.73103">
        <ele>171</ele>
        <time>2018-02-04T11:48:16Z</time>
      </trkpt>
      <trkpt lat="45.92849" lon="4.73103">
        <ele>171</ele>
        <time>2018-02-04T11:48:18Z</time>
      </trkpt>
      <trkpt lat="45.92846" lon="4.73098">
        <ele>171</ele>
        <time>2018-02-04T11:48:19Z</time>
      </trkpt>
      <trkpt lat="45.92843" lon="4.73086">
        <ele>171</ele>
        <time>2018-02-04T11:48:21Z</time>
      </trkpt>
      <trkpt lat="45.92843" lon="4.73078">
        <ele>171</ele>
        <time>2018-02-04T11:48:22Z</time>
      </trkpt>
      <trkpt lat="45.92842" lon="4.73071">
        <ele>171</ele>
        <time>2018-02-04T11:48:23Z</time>
      </trkpt>
      <trkpt lat="45.92841" lon="4.73064">
        <ele>171</ele>
        <time>2018-02-04T11:48:24Z</time>
      </trkpt>
      <trkpt lat="45.9284" lon="4.73056">
        <ele>171</ele>
        <time>2018-02-04T11:48:25Z</time>
      </trkpt>
      <trkpt lat="45.92838" lon="4.73049">
        <ele>171</ele>
        <time>2018-02-04T11:48:26Z</time>
      </trkpt>
      <trkpt lat="45.92836" lon="4.73042">
        <ele>171</ele>
        <time>2018-02-04T11:48:27Z</time>
      </trkpt>
      <trkpt lat="45.92835" lon="4.73034">
        <ele>171</ele>
        <time>2018-02-04T11:48:28Z</time>
      </trkpt>
      <trkpt lat="45.92834" lon="4.73027">
        <ele>171</ele>
        <time>2018-02-04T11:48:29Z</time>
      </trkpt>
      <trkpt lat="45.92833" lon="4.7302">
        <ele>170</ele>
        <time>2018-02-04T11:48:30Z</time>
      </trkpt>
      <trkpt lat="45.92832" lon="4.73012">
        <ele>170</ele>
        <time>2018-02-04T11:48:31Z</time>
      </trkpt>
      <trkpt lat="45.92831" lon="4.73005">
        <ele>170</ele>
        <time>2018-02-04T11:48:32Z</time>
      </trkpt>
      <trkpt lat="45.9283" lon="4.72998">
        <ele>170</ele>
        <time>2018-02-04T11:48:33Z</time>
      </trkpt>
      <trkpt lat="45.92829" lon="4.72991">
        <ele>170</ele>
        <time>2018-02-04T11:48:34Z</time>
      </trkpt>
      <trkpt lat="45.92829" lon="4.72984">
        <ele>170</ele>
        <time>2018-02-04T11:48:35Z</time>
      </trkpt>
      <trkpt lat="45.92828" lon="4.72976">
        <ele>170</ele>
        <time>2018-02-04T11:48:36Z</time>
      </trkpt>
      <trkpt lat="45.92828" lon="4.72969">
        <ele>170</ele>
        <time>2018-02-04T11:48:37Z</time>
      </trkpt>
      <trkpt lat="45.92827" lon="4.72962">
        <ele>170</ele>
        <time>2018-02-04T11:48:38Z</time>
      </trkpt>
      <trkpt lat="45.92826" lon="4.72955">
        <ele>170</ele>
        <time>2018-02-04T11:48:39Z</time>
      </trkpt>
      <trkpt lat="45.92825" lon="4.72946">
        <ele>170</ele>
        <time>2018-02-04T11:48:40Z</time>
      </trkpt>
      <trkpt lat="45.92824" lon="4.72939">
        <ele>170</ele>
        <time>2018-02-04T11:48:41Z</time>
      </trkpt>
      <trkpt lat="45.92824" lon="4.72931">
        <ele>170</ele>
        <time>2018-02-04T11:48:42Z</time>
      </trkpt>
      <trkpt lat="45.92823" lon="4.72924">
        <ele>170</ele>
        <time>2018-02-04T11:48:43Z</time>
      </trkpt>
      <trkpt lat="45.92822" lon="4.72917">
        <ele>170</ele>
        <time>2018-02-04T11:48:44Z</time>
      </trkpt>
      <trkpt lat="45.92821" lon="4.7291">
        <ele>170</ele>
        <time>2018-02-04T11:48:45Z</time>
      </trkpt>
      <trkpt lat="45.9282" lon="4.72903">
        <ele>170</ele>
        <time>2018-02-04T11:48:46Z</time>
      </trkpt>
      <trkpt lat="45.92819" lon="4.72896">
        <ele>170</ele>
        <time>2018-02-04T11:48:47Z</time>
      </trkpt>
      <trkpt lat="45.92818" lon="4.72889">
        <ele>170</ele>
        <time>2018-02-04T11:48:48Z</time>
      </trkpt>
      <trkpt lat="45.92816" lon="4.72882">
        <ele>170</ele>
        <time>2018-02-04T11:48:49Z</time>
      </trkpt>
      <trkpt lat="45.92815" lon="4.72875">
        <ele>170</ele>
        <time>2018-02-04T11:48:50Z</time>
      </trkpt>
      <trkpt lat="45.92813" lon="4.72868">
        <ele>170</ele>
        <time>2018-02-04T11:48:51Z</time>
      </trkpt>
      <trkpt lat="45.92812" lon="4.7286">
        <ele>170</ele>
        <time>2018-02-04T11:48:52Z</time>
      </trkpt>
      <trkpt lat="45.9281" lon="4.72853">
        <ele>170</ele>
        <time>2018-02-04T11:48:53Z</time>
      </trkpt>
      <trkpt lat="45.92809" lon="4.72846">
        <ele>170</ele>
        <time>2018-02-04T11:48:54Z</time>
      </trkpt>
      <trkpt lat="45.92807" lon="4.7284">
        <ele>170</ele>
        <time>2018-02-04T11:48:55Z</time>
      </trkpt>
      <trkpt lat="45.92806" lon="4.72834">
        <ele>170</ele>
        <time>2018-02-04T11:48:56Z</time>
      </trkpt>
      <trkpt lat="45.92804" lon="4.72828">
        <ele>171</ele>
        <time>2018-02-04T11:48:57Z</time>
      </trkpt>
      <trkpt lat="45.92803" lon="4.72821">
        <ele>170</ele>
        <time>2018-02-04T11:48:58Z</time>
      </trkpt>
      <trkpt lat="45.92802" lon="4.72809">
        <ele>171</ele>
        <time>2018-02-04T11:49:00Z</time>
      </trkpt>
      <trkpt lat="45.92801" lon="4.72803">
        <ele>171</ele>
        <time>2018-02-04T11:49:01Z</time>
      </trkpt>
      <trkpt lat="45.92798" lon="4.72791">
        <ele>171</ele>
        <time>2018-02-04T11:49:03Z</time>
      </trkpt>
      <trkpt lat="45.92795" lon="4.72788">
        <ele>171</ele>
        <time>2018-02-04T11:49:04Z</time>
      </trkpt>
      <trkpt lat="45.92788" lon="4.7279">
        <ele>170</ele>
        <time>2018-02-04T11:49:06Z</time>
      </trkpt>
      <trkpt lat="45.92784" lon="4.72794">
        <ele>170</ele>
        <time>2018-02-04T11:49:07Z</time>
      </trkpt>
      <trkpt lat="45.92777" lon="4.72801">
        <ele>170</ele>
        <time>2018-02-04T11:49:09Z</time>
      </trkpt>
      <trkpt lat="45.92774" lon="4.72804">
        <ele>170</ele>
        <time>2018-02-04T11:49:10Z</time>
      </trkpt>
      <trkpt lat="45.92769" lon="4.72808">
        <ele>170</ele>
        <time>2018-02-04T11:49:11Z</time>
      </trkpt>
      <trkpt lat="45.92765" lon="4.72812">
        <ele>170</ele>
        <time>2018-02-04T11:49:12Z</time>
      </trkpt>
      <trkpt lat="45.9276" lon="4.72816">
        <ele>170</ele>
        <time>2018-02-04T11:49:13Z</time>
      </trkpt>
      <trkpt lat="45.92756" lon="4.7282">
        <ele>170</ele>
        <time>2018-02-04T11:49:14Z</time>
      </trkpt>
      <trkpt lat="45.92752" lon="4.72822">
        <ele>170</ele>
        <time>2018-02-04T11:49:15Z</time>
      </trkpt>
      <trkpt lat="45.92747" lon="4.72826">
        <ele>169</ele>
        <time>2018-02-04T11:49:16Z</time>
      </trkpt>
      <trkpt lat="45.92743" lon="4.72831">
        <ele>169</ele>
        <time>2018-02-04T11:49:17Z</time>
      </trkpt>
      <trkpt lat="45.92739" lon="4.72834">
        <ele>169</ele>
        <time>2018-02-04T11:49:18Z</time>
      </trkpt>
      <trkpt lat="45.92733" lon="4.72837">
        <ele>169</ele>
        <time>2018-02-04T11:49:19Z</time>
      </trkpt>
      <trkpt lat="45.92728" lon="4.72841">
        <ele>169</ele>
        <time>2018-02-04T11:49:20Z</time>
      </trkpt>
      <trkpt lat="45.92724" lon="4.72846">
        <ele>169</ele>
        <time>2018-02-04T11:49:21Z</time>
      </trkpt>
      <trkpt lat="45.92719" lon="4.72849">
        <ele>169</ele>
        <time>2018-02-04T11:49:22Z</time>
      </trkpt>
      <trkpt lat="45.92714" lon="4.72853">
        <ele>169</ele>
        <time>2018-02-04T11:49:23Z</time>
      </trkpt>
      <trkpt lat="45.92709" lon="4.72856">
        <ele>169</ele>
        <time>2018-02-04T11:49:24Z</time>
      </trkpt>
      <trkpt lat="45.92705" lon="4.7286">
        <ele>169</ele>
        <time>2018-02-04T11:49:25Z</time>
      </trkpt>
      <trkpt lat="45.92699" lon="4.72863">
        <ele>169</ele>
        <time>2018-02-04T11:49:26Z</time>
      </trkpt>
      <trkpt lat="45.92695" lon="4.72867">
        <ele>169</ele>
        <time>2018-02-04T11:49:27Z</time>
      </trkpt>
      <trkpt lat="45.92691" lon="4.72871">
        <ele>169</ele>
        <time>2018-02-04T11:49:28Z</time>
      </trkpt>
      <trkpt lat="45.92686" lon="4.72875">
        <ele>169</ele>
        <time>2018-02-04T11:49:29Z</time>
      </trkpt>
      <trkpt lat="45.92681" lon="4.72878">
        <ele>170</ele>
        <time>2018-02-04T11:49:30Z</time>
      </trkpt>
      <trkpt lat="45.92677" lon="4.72882">
        <ele>170</ele>
        <time>2018-02-04T11:49:31Z</time>
      </trkpt>
      <trkpt lat="45.92671" lon="4.72887">
        <ele>170</ele>
        <time>2018-02-04T11:49:32Z</time>
      </trkpt>
      <trkpt lat="45.92667" lon="4.7289">
        <ele>169</ele>
        <time>2018-02-04T11:49:33Z</time>
      </trkpt>
      <trkpt lat="45.92663" lon="4.72895">
        <ele>170</ele>
        <time>2018-02-04T11:49:34Z</time>
      </trkpt>
      <trkpt lat="45.92658" lon="4.72899">
        <ele>170</ele>
        <time>2018-02-04T11:49:35Z</time>
      </trkpt>
      <trkpt lat="45.92653" lon="4.72903">
        <ele>170</ele>
        <time>2018-02-04T11:49:36Z</time>
      </trkpt>
      <trkpt lat="45.92648" lon="4.72907">
        <ele>170</ele>
        <time>2018-02-04T11:49:37Z</time>
      </trkpt>
      <trkpt lat="45.92644" lon="4.7291">
        <ele>170</ele>
        <time>2018-02-04T11:49:38Z</time>
      </trkpt>
      <trkpt lat="45.92639" lon="4.72914">
        <ele>169</ele>
        <time>2018-02-04T11:49:39Z</time>
      </trkpt>
      <trkpt lat="45.92634" lon="4.72917">
        <ele>170</ele>
        <time>2018-02-04T11:49:40Z</time>
      </trkpt>
      <trkpt lat="45.92629" lon="4.72922">
        <ele>170</ele>
        <time>2018-02-04T11:49:41Z</time>
      </trkpt>
      <trkpt lat="45.92623" lon="4.72926">
        <ele>169</ele>
        <time>2018-02-04T11:49:42Z</time>
      </trkpt>
      <trkpt lat="45.92618" lon="4.72929">
        <ele>169</ele>
        <time>2018-02-04T11:49:43Z</time>
      </trkpt>
      <trkpt lat="45.92613" lon="4.72935">
        <ele>169</ele>
        <time>2018-02-04T11:49:44Z</time>
      </trkpt>
      <trkpt lat="45.92608" lon="4.7294">
        <ele>169</ele>
        <time>2018-02-04T11:49:45Z</time>
      </trkpt>
      <trkpt lat="45.92604" lon="4.72945">
        <ele>169</ele>
        <time>2018-02-04T11:49:46Z</time>
      </trkpt>
      <trkpt lat="45.92599" lon="4.7295">
        <ele>169</ele>
        <time>2018-02-04T11:49:47Z</time>
      </trkpt>
      <trkpt lat="45.92595" lon="4.72955">
        <ele>169</ele>
        <time>2018-02-04T11:49:48Z</time>
      </trkpt>
      <trkpt lat="45.9259" lon="4.7296">
        <ele>169</ele>
        <time>2018-02-04T11:49:49Z</time>
      </trkpt>
      <trkpt lat="45.92585" lon="4.72965">
        <ele>169</ele>
        <time>2018-02-04T11:49:50Z</time>
      </trkpt>
      <trkpt lat="45.92582" lon="4.72971">
        <ele>169</ele>
        <time>2018-02-04T11:49:51Z</time>
      </trkpt>
      <trkpt lat="45.92577" lon="4.72976">
        <ele>169</ele>
        <time>2018-02-04T11:49:52Z</time>
      </trkpt>
      <trkpt lat="45.92571" lon="4.72981">
        <ele>169</ele>
        <time>2018-02-04T11:49:53Z</time>
      </trkpt>
      <trkpt lat="45.92567" lon="4.72985">
        <ele>169</ele>
        <time>2018-02-04T11:49:54Z</time>
      </trkpt>
      <trkpt lat="45.92562" lon="4.7299">
        <ele>169</ele>
        <time>2018-02-04T11:49:55Z</time>
      </trkpt>
      <trkpt lat="45.92557" lon="4.72994">
        <ele>169</ele>
        <time>2018-02-04T11:49:56Z</time>
      </trkpt>
      <trkpt lat="45.92553" lon="4.72997">
        <ele>169</ele>
        <time>2018-02-04T11:49:57Z</time>
      </trkpt>
      <trkpt lat="45.92548" lon="4.73001">
        <ele>169</ele>
        <time>2018-02-04T11:49:58Z</time>
      </trkpt>
      <trkpt lat="45.92543" lon="4.73006">
        <ele>169</ele>
        <time>2018-02-04T11:49:59Z</time>
      </trkpt>
      <trkpt lat="45.92538" lon="4.7301">
        <ele>169</ele>
        <time>2018-02-04T11:50:00Z</time>
      </trkpt>
      <trkpt lat="45.92534" lon="4.73015">
        <ele>169</ele>
        <time>2018-02-04T11:50:01Z</time>
      </trkpt>
      <trkpt lat="45.92528" lon="4.73019">
        <ele>169</ele>
        <time>2018-02-04T11:50:02Z</time>
      </trkpt>
      <trkpt lat="45.92522" lon="4.73025">
        <ele>169</ele>
        <time>2018-02-04T11:50:03Z</time>
      </trkpt>
      <trkpt lat="45.92519" lon="4.7303">
        <ele>169</ele>
        <time>2018-02-04T11:50:04Z</time>
      </trkpt>
      <trkpt lat="45.92514" lon="4.73035">
        <ele>169</ele>
        <time>2018-02-04T11:50:05Z</time>
      </trkpt>
      <trkpt lat="45.92508" lon="4.7304">
        <ele>169</ele>
        <time>2018-02-04T11:50:06Z</time>
      </trkpt>
      <trkpt lat="45.92502" lon="4.73045">
        <ele>170</ele>
        <time>2018-02-04T11:50:07Z</time>
      </trkpt>
      <trkpt lat="45.92496" lon="4.73049">
        <ele>170</ele>
        <time>2018-02-04T11:50:08Z</time>
      </trkpt>
      <trkpt lat="45.92491" lon="4.73056">
        <ele>170</ele>
        <time>2018-02-04T11:50:09Z</time>
      </trkpt>
      <trkpt lat="45.92485" lon="4.73061">
        <ele>170</ele>
        <time>2018-02-04T11:50:10Z</time>
      </trkpt>
      <trkpt lat="45.9248" lon="4.73067">
        <ele>170</ele>
        <time>2018-02-04T11:50:11Z</time>
      </trkpt>
      <trkpt lat="45.92474" lon="4.73071">
        <ele>170</ele>
        <time>2018-02-04T11:50:12Z</time>
      </trkpt>
      <trkpt lat="45.92469" lon="4.73075">
        <ele>170</ele>
        <time>2018-02-04T11:50:13Z</time>
      </trkpt>
      <trkpt lat="45.92463" lon="4.7308">
        <ele>170</ele>
        <time>2018-02-04T11:50:14Z</time>
      </trkpt>
      <trkpt lat="45.92459" lon="4.73082">
        <ele>170</ele>
        <time>2018-02-04T11:50:15Z</time>
      </trkpt>
      <trkpt lat="45.92453" lon="4.73087">
        <ele>170</ele>
        <time>2018-02-04T11:50:16Z</time>
      </trkpt>
      <trkpt lat="45.92448" lon="4.73093">
        <ele>170</ele>
        <time>2018-02-04T11:50:17Z</time>
      </trkpt>
      <trkpt lat="45.92442" lon="4.73098">
        <ele>170</ele>
        <time>2018-02-04T11:50:18Z</time>
      </trkpt>
      <trkpt lat="45.92437" lon="4.73103">
        <ele>170</ele>
        <time>2018-02-04T11:50:19Z</time>
      </trkpt>
      <trkpt lat="45.92432" lon="4.73106">
        <ele>170</ele>
        <time>2018-02-04T11:50:20Z</time>
      </trkpt>
      <trkpt lat="45.92426" lon="4.7311">
        <ele>170</ele>
        <time>2018-02-04T11:50:21Z</time>
      </trkpt>
      <trkpt lat="45.92422" lon="4.73113">
        <ele>170</ele>
        <time>2018-02-04T11:50:22Z</time>
      </trkpt>
      <trkpt lat="45.92416" lon="4.7312">
        <ele>171</ele>
        <time>2018-02-04T11:50:23Z</time>
      </trkpt>
      <trkpt lat="45.92411" lon="4.73126">
        <ele>171</ele>
        <time>2018-02-04T11:50:24Z</time>
      </trkpt>
      <trkpt lat="45.92408" lon="4.73134">
        <ele>171</ele>
        <time>2018-02-04T11:50:25Z</time>
      </trkpt>
      <trkpt lat="45.92408" lon="4.73141">
        <ele>171</ele>
        <time>2018-02-04T11:50:26Z</time>
      </trkpt>
      <trkpt lat="45.92408" lon="4.73149">
        <ele>171</ele>
        <time>2018-02-04T11:50:27Z</time>
      </trkpt>
      <trkpt lat="45.92406" lon="4.73156">
        <ele>170</ele>
        <time>2018-02-04T11:50:28Z</time>
      </trkpt>
      <trkpt lat="45.92406" lon="4.73165">
        <ele>170</ele>
        <time>2018-02-04T11:50:29Z</time>
      </trkpt>
      <trkpt lat="45.92406" lon="4.73172">
        <ele>171</ele>
        <time>2018-02-04T11:50:30Z</time>
      </trkpt>
      <trkpt lat="45.92405" lon="4.73183">
        <ele>171</ele>
        <time>2018-02-04T11:50:31Z</time>
      </trkpt>
      <trkpt lat="45.92406" lon="4.73191">
        <ele>171</ele>
        <time>2018-02-04T11:50:32Z</time>
      </trkpt>
      <trkpt lat="45.92407" lon="4.73198">
        <ele>171</ele>
        <time>2018-02-04T11:50:33Z</time>
      </trkpt>
      <trkpt lat="45.92407" lon="4.73206">
        <ele>171</ele>
        <time>2018-02-04T11:50:34Z</time>
      </trkpt>
      <trkpt lat="45.92408" lon="4.73213">
        <ele>171</ele>
        <time>2018-02-04T11:50:35Z</time>
      </trkpt>
      <trkpt lat="45.92408" lon="4.7322">
        <ele>171</ele>
        <time>2018-02-04T11:50:36Z</time>
      </trkpt>
      <trkpt lat="45.92408" lon="4.73229">
        <ele>171</ele>
        <time>2018-02-04T11:50:37Z</time>
      </trkpt>
      <trkpt lat="45.92409" lon="4.73235">
        <ele>171</ele>
        <time>2018-02-04T11:50:38Z</time>
      </trkpt>
      <trkpt lat="45.92409" lon="4.73243">
        <ele>171</ele>
        <time>2018-02-04T11:50:39Z</time>
      </trkpt>
      <trkpt lat="45.92411" lon="4.73251">
        <ele>171</ele>
        <time>2018-02-04T11:50:40Z</time>
      </trkpt>
      <trkpt lat="45.92411" lon="4.73259">
        <ele>171</ele>
        <time>2018-02-04T11:50:41Z</time>
      </trkpt>
      <trkpt lat="45.92411" lon="4.73267">
        <ele>171</ele>
        <time>2018-02-04T11:50:42Z</time>
      </trkpt>
      <trkpt lat="45.92411" lon="4.73273">
        <ele>171</ele>
        <time>2018-02-04T11:50:43Z</time>
      </trkpt>
      <trkpt lat="45.92413" lon="4.7328">
        <ele>171</ele>
        <time>2018-02-04T11:50:44Z</time>
      </trkpt>
      <trkpt lat="45.92414" lon="4.73288">
        <ele>171</ele>
        <time>2018-02-04T11:50:45Z</time>
      </trkpt>
      <trkpt lat="45.92414" lon="4.73296">
        <ele>171</ele>
        <time>2018-02-04T11:50:46Z</time>
      </trkpt>
      <trkpt lat="45.92414" lon="4.73303">
        <ele>171</ele>
        <time>2018-02-04T11:50:47Z</time>
      </trkpt>
      <trkpt lat="45.92415" lon="4.73311">
        <ele>171</ele>
        <time>2018-02-04T11:50:48Z</time>
      </trkpt>
      <trkpt lat="45.92415" lon="4.73317">
        <ele>171</ele>
        <time>2018-02-04T11:50:49Z</time>
      </trkpt>
      <trkpt lat="45.92416" lon="4.73325">
        <ele>171</ele>
        <time>2018-02-04T11:50:50Z</time>
      </trkpt>
      <trkpt lat="45.92416" lon="4.73333">
        <ele>171</ele>
        <time>2018-02-04T11:50:51Z</time>
      </trkpt>
      <trkpt lat="45.92417" lon="4.73339">
        <ele>171</ele>
        <time>2018-02-04T11:50:52Z</time>
      </trkpt>
      <trkpt lat="45.92417" lon="4.73346">
        <ele>171</ele>
        <time>2018-02-04T11:50:53Z</time>
      </trkpt>
      <trkpt lat="45.92419" lon="4.73354">
        <ele>171</ele>
        <time>2018-02-04T11:50:54Z</time>
      </trkpt>
      <trkpt lat="45.92419" lon="4.73361">
        <ele>172</ele>
        <time>2018-02-04T11:50:55Z</time>
      </trkpt>
      <trkpt lat="45.9242" lon="4.73368">
        <ele>172</ele>
        <time>2018-02-04T11:50:56Z</time>
      </trkpt>
      <trkpt lat="45.92421" lon="4.73375">
        <ele>172</ele>
        <time>2018-02-04T11:50:57Z</time>
      </trkpt>
      <trkpt lat="45.92423" lon="4.73382">
        <ele>172</ele>
        <time>2018-02-04T11:50:58Z</time>
      </trkpt>
      <trkpt lat="45.92425" lon="4.7339">
        <ele>172</ele>
        <time>2018-02-04T11:50:59Z</time>
      </trkpt>
      <trkpt lat="45.92427" lon="4.73397">
        <ele>172</ele>
        <time>2018-02-04T11:51:00Z</time>
      </trkpt>
      <trkpt lat="45.92429" lon="4.73404">
        <ele>172</ele>
        <time>2018-02-04T11:51:01Z</time>
      </trkpt>
      <trkpt lat="45.92432" lon="4.73409">
        <ele>172</ele>
        <time>2018-02-04T11:51:02Z</time>
      </trkpt>
      <trkpt lat="45.92437" lon="4.73414">
        <ele>172</ele>
        <time>2018-02-04T11:51:03Z</time>
      </trkpt>
      <trkpt lat="45.92441" lon="4.73418">
        <ele>173</ele>
        <time>2018-02-04T11:51:04Z</time>
      </trkpt>
      <trkpt lat="45.92446" lon="4.73421">
        <ele>173</ele>
        <time>2018-02-04T11:51:05Z</time>
      </trkpt>
      <trkpt lat="45.9245" lon="4.73426">
        <ele>173</ele>
        <time>2018-02-04T11:51:06Z</time>
      </trkpt>
      <trkpt lat="45.92455" lon="4.73431">
        <ele>173</ele>
        <time>2018-02-04T11:51:07Z</time>
      </trkpt>
      <trkpt lat="45.92458" lon="4.73436">
        <ele>173</ele>
        <time>2018-02-04T11:51:08Z</time>
      </trkpt>
      <trkpt lat="45.92462" lon="4.73442">
        <ele>173</ele>
        <time>2018-02-04T11:51:09Z</time>
      </trkpt>
      <trkpt lat="45.92464" lon="4.73449">
        <ele>173</ele>
        <time>2018-02-04T11:51:10Z</time>
      </trkpt>
      <trkpt lat="45.92466" lon="4.73457">
        <ele>173</ele>
        <time>2018-02-04T11:51:11Z</time>
      </trkpt>
      <trkpt lat="45.92468" lon="4.73465">
        <ele>173</ele>
        <time>2018-02-04T11:51:12Z</time>
      </trkpt>
      <trkpt lat="45.92468" lon="4.73473">
        <ele>173</ele>
        <time>2018-02-04T11:51:13Z</time>
      </trkpt>
      <trkpt lat="45.92468" lon="4.73481">
        <ele>173</ele>
        <time>2018-02-04T11:51:14Z</time>
      </trkpt>
      <trkpt lat="45.92468" lon="4.73488">
        <ele>173</ele>
        <time>2018-02-04T11:51:15Z</time>
      </trkpt>
      <trkpt lat="45.92467" lon="4.73497">
        <ele>173</ele>
        <time>2018-02-04T11:51:16Z</time>
      </trkpt>
      <trkpt lat="45.92467" lon="4.73507">
        <ele>174</ele>
        <time>2018-02-04T11:51:17Z</time>
      </trkpt>
      <trkpt lat="45.92467" lon="4.73516">
        <ele>174</ele>
        <time>2018-02-04T11:51:18Z</time>
      </trkpt>
      <trkpt lat="45.92467" lon="4.73525">
        <ele>174</ele>
        <time>2018-02-04T11:51:19Z</time>
      </trkpt>
      <trkpt lat="45.92466" lon="4.73532">
        <ele>174</ele>
        <time>2018-02-04T11:51:20Z</time>
      </trkpt>
      <trkpt lat="45.92466" lon="4.7354">
        <ele>174</ele>
        <time>2018-02-04T11:51:21Z</time>
      </trkpt>
      <trkpt lat="45.92466" lon="4.73547">
        <ele>173</ele>
        <time>2018-02-04T11:51:22Z</time>
      </trkpt>
      <trkpt lat="45.92466" lon="4.73554">
        <ele>173</ele>
        <time>2018-02-04T11:51:23Z</time>
      </trkpt>
      <trkpt lat="45.92466" lon="4.73561">
        <ele>173</ele>
        <time>2018-02-04T11:51:24Z</time>
      </trkpt>
      <trkpt lat="45.92465" lon="4.73569">
        <ele>173</ele>
        <time>2018-02-04T11:51:25Z</time>
      </trkpt>
      <trkpt lat="45.92466" lon="4.73579">
        <ele>173</ele>
        <time>2018-02-04T11:51:26Z</time>
      </trkpt>
      <trkpt lat="45.92467" lon="4.73587">
        <ele>174</ele>
        <time>2018-02-04T11:51:27Z</time>
      </trkpt>
      <trkpt lat="45.92467" lon="4.73595">
        <ele>174</ele>
        <time>2018-02-04T11:51:28Z</time>
      </trkpt>
      <trkpt lat="45.92467" lon="4.73602">
        <ele>174</ele>
        <time>2018-02-04T11:51:29Z</time>
      </trkpt>
      <trkpt lat="45.92468" lon="4.7361">
        <ele>174</ele>
        <time>2018-02-04T11:51:30Z</time>
      </trkpt>
      <trkpt lat="45.92469" lon="4.73618">
        <ele>174</ele>
        <time>2018-02-04T11:51:31Z</time>
      </trkpt>
      <trkpt lat="45.92469" lon="4.73625">
        <ele>174</ele>
        <time>2018-02-04T11:51:32Z</time>
      </trkpt>
      <trkpt lat="45.9247" lon="4.73633">
        <ele>174</ele>
        <time>2018-02-04T11:51:33Z</time>
      </trkpt>
      <trkpt lat="45.9247" lon="4.73641">
        <ele>174</ele>
        <time>2018-02-04T11:51:34Z</time>
      </trkpt>
      <trkpt lat="45.92469" lon="4.73649">
        <ele>174</ele>
        <time>2018-02-04T11:51:35Z</time>
      </trkpt>
      <trkpt lat="45.92469" lon="4.73655">
        <ele>174</ele>
        <time>2018-02-04T11:51:36Z</time>
      </trkpt>
      <trkpt lat="45.92469" lon="4.73668">
        <ele>174</ele>
        <time>2018-02-04T11:51:38Z</time>
      </trkpt>
      <trkpt lat="45.92468" lon="4.73674">
        <ele>174</ele>
        <time>2018-02-04T11:51:39Z</time>
      </trkpt>
      <trkpt lat="45.92467" lon="4.73685">
        <ele>174</ele>
        <time>2018-02-04T11:51:41Z</time>
      </trkpt>
      <trkpt lat="45.92466" lon="4.73692">
        <ele>174</ele>
        <time>2018-02-04T11:51:42Z</time>
      </trkpt>
      <trkpt lat="45.92464" lon="4.73702">
        <ele>174</ele>
        <time>2018-02-04T11:51:44Z</time>
      </trkpt>
      <trkpt lat="45.92465" lon="4.73706">
        <ele>174</ele>
        <time>2018-02-04T11:51:45Z</time>
      </trkpt>
      <trkpt lat="45.92457" lon="4.73713">
        <ele>174</ele>
        <time>2018-02-04T11:52:12Z</time>
      </trkpt>
      <trkpt lat="45.92457" lon="4.73714">
        <ele>174</ele>
        <time>2018-02-04T11:52:13Z</time>
      </trkpt>
      <trkpt lat="45.92455" lon="4.73713">
        <ele>174</ele>
        <time>2018-02-04T11:52:29.827Z</time>
      </trkpt>
    </trkseg>
  </trk>
</gpx>